<?xml version='1.0' encoding='UTF-8'?><gpx version="1.1" creator="JPX - https://github.com/jenetics/jpx" xmlns="http://www.topografix.com/GPX/1/1"><trk><trkseg><trkpt lat="45.59101423940372" lon="9.321725823415193"><ele>167.0</ele><time>2026-05-01T07:16:14.999Z</time></trkpt><trkpt lat="45.59104774651046" lon="9.321828028370426"><ele>167.0</ele><time>2026-05-01T07:16:16.999Z</time></trkpt><trkpt lat="45.5910549349904" lon="9.321966691618766"><ele>167.0</ele><time>2026-05-01T07:16:18.999Z</time></trkpt><trkpt lat="45.591035476584565" lon="9.322113047580041"><ele>167.0</ele><time>2026-05-01T07:16:20.999Z</time></trkpt><trkpt lat="45.59100903476802" lon="9.322261722389666"><ele>167.0</ele><time>2026-05-01T07:16:22.999Z</time></trkpt><trkpt lat="45.59098987995445" lon="9.322386438810668"><ele>167.0</ele><time>2026-05-01T07:16:24.999Z</time></trkpt><trkpt lat="45.59097941880275" lon="9.322513367869766"><ele>167.0</ele><time>2026-05-01T07:16:26.999Z</time></trkpt><trkpt lat="45.59095380588287" lon="9.322623950751398"><ele>167.0</ele><time>2026-05-01T07:16:28.999Z</time></trkpt><trkpt lat="45.590890009579525" lon="9.32270312367239"><ele>167.0</ele><time>2026-05-01T07:16:31.999Z</time></trkpt><trkpt lat="45.59082497488602" lon="9.32269137446702"><ele>167.0</ele><time>2026-05-01T07:16:33.999Z</time></trkpt><trkpt lat="45.590753592488106" lon="9.322671723970267"><ele>167.0</ele><time>2026-05-01T07:16:35.999Z</time></trkpt><trkpt lat="45.59064770161952" lon="9.322628685730177"><ele>167.0</ele><time>2026-05-01T07:16:37.999Z</time></trkpt><trkpt lat="45.590566152949954" lon="9.322571482638345"><ele>167.0</ele><time>2026-05-01T07:16:39.999Z</time></trkpt><trkpt lat="45.59047699809257" lon="9.322519585137158"><ele>167.0</ele><time>2026-05-01T07:16:41.999Z</time></trkpt><trkpt lat="45.590485102881864" lon="9.322418446946044"><ele>167.0</ele><time>2026-05-01T07:16:42.999Z</time></trkpt><trkpt lat="45.590359404192" lon="9.322497502479964"><ele>167.0</ele><time>2026-05-01T07:16:43.999Z</time></trkpt><trkpt lat="45.59023988910415" lon="9.322477358184765"><ele>167.0</ele><time>2026-05-01T07:16:45.999Z</time></trkpt><trkpt lat="45.59014289221613" lon="9.32245795921879"><ele>167.0</ele><time>2026-05-01T07:16:47.999Z</time></trkpt><trkpt lat="45.590068509842006" lon="9.322464144561906"><ele>167.0</ele><time>2026-05-01T07:17:04.999Z</time></trkpt><trkpt lat="45.59000538043511" lon="9.322441598944733"><ele>167.0</ele><time>2026-05-01T07:17:31.999Z</time></trkpt><trkpt lat="45.58992488553069" lon="9.32240113244516"><ele>167.0</ele><time>2026-05-01T07:17:34.999Z</time></trkpt><trkpt lat="45.58985444348665" lon="9.322397879304045"><ele>167.0</ele><time>2026-05-01T07:20:15.999Z</time></trkpt><trkpt lat="45.58978564286524" lon="9.322390737165996"><ele>167.0</ele><time>2026-05-01T07:20:16.999Z</time></trkpt><trkpt lat="45.5896517757696" lon="9.322350818674991"><ele>167.0</ele><time>2026-05-01T07:20:18.999Z</time></trkpt><trkpt lat="45.58956881799741" lon="9.322326431152431"><ele>167.0</ele><time>2026-05-01T07:20:19.999Z</time></trkpt><trkpt lat="45.589488510963264" lon="9.3222578091979"><ele>167.0</ele><time>2026-05-01T07:20:20.999Z</time></trkpt><trkpt lat="45.589390849400864" lon="9.322271409397404"><ele>167.0</ele><time>2026-05-01T07:20:21.999Z</time></trkpt><trkpt lat="45.589300164128446" lon="9.32224437698305"><ele>166.39999999999998</ele><time>2026-05-01T07:20:22.999Z</time></trkpt><trkpt lat="45.58919859019648" lon="9.322213098796933"><ele>165.79999999999998</ele><time>2026-05-01T07:20:23.999Z</time></trkpt><trkpt lat="45.5890943286198" lon="9.322183064115578"><ele>165.2</ele><time>2026-05-01T07:20:24.999Z</time></trkpt><trkpt lat="45.58898695788828" lon="9.32215026535804"><ele>164.6</ele><time>2026-05-01T07:20:25.999Z</time></trkpt><trkpt lat="45.5888756593488" lon="9.322117669724836"><ele>164.0</ele><time>2026-05-01T07:20:26.999Z</time></trkpt><trkpt lat="45.588761963498946" lon="9.32208578852646"><ele>164.2</ele><time>2026-05-01T07:20:27.999Z</time></trkpt><trkpt lat="45.5886478738509" lon="9.322056640511304"><ele>164.39999999999998</ele><time>2026-05-01T07:20:28.999Z</time></trkpt><trkpt lat="45.58853935074023" lon="9.322024414383437"><ele>164.6</ele><time>2026-05-01T07:20:29.999Z</time></trkpt><trkpt lat="45.5884336504223" lon="9.321993547588393"><ele>164.8</ele><time>2026-05-01T07:20:30.999Z</time></trkpt><trkpt lat="45.58832356114115" lon="9.321960420430615"><ele>165.0</ele><time>2026-05-01T07:20:31.999Z</time></trkpt><trkpt lat="45.58821737317791" lon="9.32190103807113"><ele>165.0</ele><time>2026-05-01T07:20:32.999Z</time></trkpt><trkpt lat="45.58810815725425" lon="9.321871469705439"><ele>165.0</ele><time>2026-05-01T07:20:33.999Z</time></trkpt><trkpt lat="45.587999219466454" lon="9.321841523525293"><ele>165.0</ele><time>2026-05-01T07:20:34.999Z</time></trkpt><trkpt lat="45.58789225955365" lon="9.321812121047355"><ele>165.0</ele><time>2026-05-01T07:20:35.999Z</time></trkpt><trkpt lat="45.587783570958976" lon="9.321782243394722"><ele>165.0</ele><time>2026-05-01T07:20:36.999Z</time></trkpt><trkpt lat="45.587679189162806" lon="9.321750006146756"><ele>165.2</ele><time>2026-05-01T07:20:37.999Z</time></trkpt><trkpt lat="45.58757902129851" lon="9.321747548449697"><ele>165.4</ele><time>2026-05-01T07:20:38.999Z</time></trkpt><trkpt lat="45.58748481874641" lon="9.321716569367336"><ele>165.60000000000002</ele><time>2026-05-01T07:20:39.999Z</time></trkpt><trkpt lat="45.58739156050932" lon="9.321686821832964"><ele>165.8</ele><time>2026-05-01T07:20:40.999Z</time></trkpt><trkpt lat="45.58729980115485" lon="9.321658871875053"><ele>166.0</ele><time>2026-05-01T07:20:41.999Z</time></trkpt><trkpt lat="45.587210221191924" lon="9.321610362001282"><ele>166.0</ele><time>2026-05-01T07:20:42.999Z</time></trkpt><trkpt lat="45.58713025244791" lon="9.321541749626524"><ele>166.0</ele><time>2026-05-01T07:20:43.999Z</time></trkpt><trkpt lat="45.58704550415182" lon="9.321474469462842"><ele>166.0</ele><time>2026-05-01T07:20:44.999Z</time></trkpt><trkpt lat="45.58694676240505" lon="9.321443001654055"><ele>166.0</ele><time>2026-05-01T07:20:45.999Z</time></trkpt><trkpt lat="45.58683056241912" lon="9.321443478870687"><ele>166.0</ele><time>2026-05-01T07:20:46.999Z</time></trkpt><trkpt lat="45.58670925241634" lon="9.321400764309372"><ele>166.0</ele><time>2026-05-01T07:20:47.999Z</time></trkpt><trkpt lat="45.58657970450974" lon="9.321358252815665"><ele>166.0</ele><time>2026-05-01T07:20:48.999Z</time></trkpt><trkpt lat="45.58643475141529" lon="9.321344222336537"><ele>166.0</ele><time>2026-05-01T07:20:49.999Z</time></trkpt><trkpt lat="45.58629775486879" lon="9.321305785020119"><ele>166.0</ele><time>2026-05-01T07:20:50.999Z</time></trkpt><trkpt lat="45.58616637098917" lon="9.321267164150864"><ele>165.75</ele><time>2026-05-01T07:20:51.999Z</time></trkpt><trkpt lat="45.58602645348507" lon="9.32122920652555"><ele>165.5</ele><time>2026-05-01T07:20:52.999Z</time></trkpt><trkpt lat="45.58588278557822" lon="9.32118896548184"><ele>165.25</ele><time>2026-05-01T07:20:53.999Z</time></trkpt><trkpt lat="45.585739469330186" lon="9.321147495273344"><ele>165.0</ele><time>2026-05-01T07:20:54.999Z</time></trkpt><trkpt lat="45.585595091588516" lon="9.32110420937605"><ele>165.0</ele><time>2026-05-01T07:20:55.999Z</time></trkpt><trkpt lat="45.58545179649116" lon="9.321060368753256"><ele>165.0</ele><time>2026-05-01T07:20:56.999Z</time></trkpt><trkpt lat="45.58530791338576" lon="9.321013963500633"><ele>165.0</ele><time>2026-05-01T07:20:57.999Z</time></trkpt><trkpt lat="45.58516605471411" lon="9.32094101232757"><ele>165.0</ele><time>2026-05-01T07:20:58.999Z</time></trkpt><trkpt lat="45.58501765220583" lon="9.320919706697188"><ele>164.75</ele><time>2026-05-01T07:20:59.999Z</time></trkpt><trkpt lat="45.584874552737936" lon="9.320878636015802"><ele>164.5</ele><time>2026-05-01T07:21:00.999Z</time></trkpt><trkpt lat="45.584737892523094" lon="9.320840192633884"><ele>164.25</ele><time>2026-05-01T07:21:01.999Z</time></trkpt><trkpt lat="45.58460427635793" lon="9.320796684353319"><ele>164.0</ele><time>2026-05-01T07:21:02.999Z</time></trkpt><trkpt lat="45.58447162621385" lon="9.320755159401715"><ele>163.25</ele><time>2026-05-01T07:21:03.999Z</time></trkpt><trkpt lat="45.584344286223256" lon="9.32072016674998"><ele>162.5</ele><time>2026-05-01T07:21:04.999Z</time></trkpt><trkpt lat="45.58421673549737" lon="9.320681030478847"><ele>161.75</ele><time>2026-05-01T07:21:05.999Z</time></trkpt><trkpt lat="45.584094445918346" lon="9.32064351441436"><ele>161.0</ele><time>2026-05-01T07:21:06.999Z</time></trkpt><trkpt lat="45.583975602859894" lon="9.32060373621971"><ele>161.0</ele><time>2026-05-01T07:21:07.999Z</time></trkpt><trkpt lat="45.5838707551406" lon="9.320571778974404"><ele>161.0</ele><time>2026-05-01T07:21:08.999Z</time></trkpt><trkpt lat="45.58377496876761" lon="9.320544413171575"><ele>161.0</ele><time>2026-05-01T07:21:09.999Z</time></trkpt><trkpt lat="45.58370035955506" lon="9.320524344423998"><ele>161.0</ele><time>2026-05-01T07:21:10.999Z</time></trkpt><trkpt lat="45.583636335371736" lon="9.320524802252823"><ele>161.0</ele><time>2026-05-01T07:21:11.999Z</time></trkpt><trkpt lat="45.583572187429986" lon="9.320628373231376"><ele>161.0</ele><time>2026-05-01T07:21:13.999Z</time></trkpt><trkpt lat="45.58355978662242" lon="9.320730402553455"><ele>161.4</ele><time>2026-05-01T07:21:14.999Z</time></trkpt><trkpt lat="45.58354991173439" lon="9.320851157996293"><ele>161.8</ele><time>2026-05-01T07:21:15.999Z</time></trkpt><trkpt lat="45.583531554556245" lon="9.3209961746326"><ele>162.20000000000002</ele><time>2026-05-01T07:21:16.999Z</time></trkpt><trkpt lat="45.58350775799425" lon="9.321150458884157"><ele>162.60000000000002</ele><time>2026-05-01T07:21:17.999Z</time></trkpt><trkpt lat="45.58348590297937" lon="9.32129541513694"><ele>163.0</ele><time>2026-05-01T07:21:18.999Z</time></trkpt><trkpt lat="45.58346659234528" lon="9.321467860230019"><ele>163.0</ele><time>2026-05-01T07:21:19.999Z</time></trkpt><trkpt lat="45.583446423279355" lon="9.32164918071367"><ele>163.0</ele><time>2026-05-01T07:21:20.999Z</time></trkpt><trkpt lat="45.58342458461366" lon="9.321837520667595"><ele>163.0</ele><time>2026-05-01T07:21:21.999Z</time></trkpt><trkpt lat="45.5834022413051" lon="9.322009278897847"><ele>163.0</ele><time>2026-05-01T07:21:22.998Z</time></trkpt><trkpt lat="45.583382302359624" lon="9.32217190170972"><ele>163.0</ele><time>2026-05-01T07:21:23.998Z</time></trkpt><trkpt lat="45.583363049799416" lon="9.322329512733035"><ele>163.0</ele><time>2026-05-01T07:21:24.998Z</time></trkpt><trkpt lat="45.58334024503381" lon="9.322508198926956"><ele>163.0</ele><time>2026-05-01T07:21:25.998Z</time></trkpt><trkpt lat="45.58331444991143" lon="9.322698747606122"><ele>163.0</ele><time>2026-05-01T07:21:26.998Z</time></trkpt><trkpt lat="45.583288935504505" lon="9.322902596027483"><ele>163.33333333333334</ele><time>2026-05-01T07:21:27.998Z</time></trkpt><trkpt lat="45.58326589735475" lon="9.32311185105572"><ele>163.66666666666666</ele><time>2026-05-01T07:21:28.998Z</time></trkpt><trkpt lat="45.58324157522025" lon="9.323323278691843"><ele>164.0</ele><time>2026-05-01T07:21:29.998Z</time></trkpt><trkpt lat="45.583217743349174" lon="9.32353756037238"><ele>164.0</ele><time>2026-05-01T07:21:30.998Z</time></trkpt><trkpt lat="45.5831768568594" lon="9.323747522139236"><ele>164.0</ele><time>2026-05-01T07:21:31.998Z</time></trkpt><trkpt lat="45.58314836038416" lon="9.323962904424002"><ele>164.0</ele><time>2026-05-01T07:21:32.998Z</time></trkpt><trkpt lat="45.583121118439024" lon="9.324181249433858"><ele>164.0</ele><time>2026-05-01T07:21:33.998Z</time></trkpt><trkpt lat="45.583094683379116" lon="9.324394394493929"><ele>164.0</ele><time>2026-05-01T07:21:34.998Z</time></trkpt><trkpt lat="45.58306771206932" lon="9.324602470358409"><ele>164.0</ele><time>2026-05-01T07:21:35.998Z</time></trkpt><trkpt lat="45.58303943257458" lon="9.324807032474279"><ele>164.0</ele><time>2026-05-01T07:21:36.998Z</time></trkpt><trkpt lat="45.58301154557969" lon="9.325008755403742"><ele>164.0</ele><time>2026-05-01T07:21:37.998Z</time></trkpt><trkpt lat="45.58298420049561" lon="9.325206558374171"><ele>164.0</ele><time>2026-05-01T07:21:38.998Z</time></trkpt><trkpt lat="45.58295772180699" lon="9.325398616292656"><ele>164.0</ele><time>2026-05-01T07:21:39.998Z</time></trkpt><trkpt lat="45.58293214384056" lon="9.325584106117441"><ele>164.0</ele><time>2026-05-01T07:21:40.998Z</time></trkpt><trkpt lat="45.582907383770866" lon="9.325763962877826"><ele>164.25</ele><time>2026-05-01T07:21:41.999Z</time></trkpt><trkpt lat="45.58288329556295" lon="9.3259389133831"><ele>164.5</ele><time>2026-05-01T07:21:42.999Z</time></trkpt><trkpt lat="45.58288416113161" lon="9.326111610156396"><ele>164.75</ele><time>2026-05-01T07:21:43.999Z</time></trkpt><trkpt lat="45.58286182395911" lon="9.326266936883933"><ele>165.0</ele><time>2026-05-01T07:21:44.999Z</time></trkpt><trkpt lat="45.58284025235283" lon="9.32641506996595"><ele>164.66666666666666</ele><time>2026-05-01T07:21:45.999Z</time></trkpt><trkpt lat="45.58282001101512" lon="9.326558406353755"><ele>164.33333333333334</ele><time>2026-05-01T07:21:46.999Z</time></trkpt><trkpt lat="45.58279785023179" lon="9.326686682464159"><ele>164.0</ele><time>2026-05-01T07:21:47.999Z</time></trkpt><trkpt lat="45.58276486679905" lon="9.326796317193073"><ele>163.66666666666669</ele><time>2026-05-01T07:21:48.999Z</time></trkpt><trkpt lat="45.58271707734302" lon="9.326877028638155"><ele>163.33333333333334</ele><time>2026-05-01T07:21:49.999Z</time></trkpt><trkpt lat="45.5826526954834" lon="9.326938645510372"><ele>163.0</ele><time>2026-05-01T07:21:50.999Z</time></trkpt><trkpt lat="45.58256894927609" lon="9.326966260412128"><ele>163.0</ele><time>2026-05-01T07:21:51.999Z</time></trkpt><trkpt lat="45.58251138716256" lon="9.327035666655519"><ele>163.0</ele><time>2026-05-01T07:21:52.999Z</time></trkpt><trkpt lat="45.58238890616615" lon="9.326925483786452"><ele>163.0</ele><time>2026-05-01T07:21:53.999Z</time></trkpt><trkpt lat="45.582301340792675" lon="9.32680982383846"><ele>163.0</ele><time>2026-05-01T07:21:54.999Z</time></trkpt><trkpt lat="45.58218764411469" lon="9.326717259139183"><ele>163.0</ele><time>2026-05-01T07:21:55.999Z</time></trkpt><trkpt lat="45.58207787090601" lon="9.326593981059055"><ele>163.0</ele><time>2026-05-01T07:21:56.999Z</time></trkpt><trkpt lat="45.58194814768369" lon="9.326457474478614"><ele>163.0</ele><time>2026-05-01T07:21:57.999Z</time></trkpt><trkpt lat="45.581820706750854" lon="9.326327318684847"><ele>163.25</ele><time>2026-05-01T07:21:58.999Z</time></trkpt><trkpt lat="45.581701797259676" lon="9.32620600069332"><ele>163.5</ele><time>2026-05-01T07:21:59.999Z</time></trkpt><trkpt lat="45.581585359309166" lon="9.326089836520614"><ele>163.75</ele><time>2026-05-01T07:22:00.999Z</time></trkpt><trkpt lat="45.58147892693896" lon="9.3259839569497"><ele>164.0</ele><time>2026-05-01T07:22:01.999Z</time></trkpt><trkpt lat="45.58137117783094" lon="9.325878834196109"><ele>164.0</ele><time>2026-05-01T07:22:02.999Z</time></trkpt><trkpt lat="45.58125767886951" lon="9.325765749662125"><ele>164.0</ele><time>2026-05-01T07:22:03.999Z</time></trkpt><trkpt lat="45.58114678747501" lon="9.325655535488664"><ele>164.0</ele><time>2026-05-01T07:22:04.999Z</time></trkpt><trkpt lat="45.58104822636943" lon="9.325554045713497"><ele>164.0</ele><time>2026-05-01T07:22:05.999Z</time></trkpt><trkpt lat="45.58095778563098" lon="9.32545748810691"><ele>164.0</ele><time>2026-05-01T07:22:06.999Z</time></trkpt><trkpt lat="45.580865209549906" lon="9.325353040530988"><ele>164.0</ele><time>2026-05-01T07:22:07.999Z</time></trkpt><trkpt lat="45.580772247772316" lon="9.32525220085487"><ele>164.0</ele><time>2026-05-01T07:22:08.999Z</time></trkpt><trkpt lat="45.58068345535078" lon="9.325171314870879"><ele>164.0</ele><time>2026-05-01T07:22:09.999Z</time></trkpt><trkpt lat="45.580614529104466" lon="9.32508082656386"><ele>164.0</ele><time>2026-05-01T07:22:10.999Z</time></trkpt><trkpt lat="45.580538716992095" lon="9.32502089336442"><ele>164.0</ele><time>2026-05-01T07:22:11.999Z</time></trkpt><trkpt lat="45.58047559752032" lon="9.324952811783264"><ele>164.0</ele><time>2026-05-01T07:22:12.999Z</time></trkpt><trkpt lat="45.58041570993786" lon="9.324891040058336"><ele>164.0</ele><time>2026-05-01T07:22:13.999Z</time></trkpt><trkpt lat="45.5803561132648" lon="9.324830103994364"><ele>164.0</ele><time>2026-05-01T07:22:14.999Z</time></trkpt><trkpt lat="45.58026160714651" lon="9.324739196727274"><ele>164.0</ele><time>2026-05-01T07:22:16.999Z</time></trkpt><trkpt lat="45.58019514082169" lon="9.324673249795834"><ele>164.0</ele><time>2026-05-01T07:22:18.999Z</time></trkpt><trkpt lat="45.58015098911505" lon="9.324608994854303"><ele>163.75</ele><time>2026-05-01T07:22:38.999Z</time></trkpt><trkpt lat="45.580073827776864" lon="9.324542095559398"><ele>163.5</ele><time>2026-05-01T07:22:41.999Z</time></trkpt><trkpt lat="45.58001734551603" lon="9.324452056596511"><ele>163.25</ele><time>2026-05-01T07:22:43.999Z</time></trkpt><trkpt lat="45.579956267518504" lon="9.32437725451711"><ele>163.0</ele><time>2026-05-01T07:22:45.999Z</time></trkpt><trkpt lat="45.579747286716206" lon="9.324284082671422"><ele>163.0</ele><time>2026-05-01T07:22:47.999Z</time></trkpt><trkpt lat="45.57976117559699" lon="9.324598155001684"><ele>163.0</ele><time>2026-05-01T07:22:48.999Z</time></trkpt><trkpt lat="45.57973595725057" lon="9.324704016678819"><ele>163.0</ele><time>2026-05-01T07:22:49.999Z</time></trkpt><trkpt lat="45.57970782227824" lon="9.324822938414501"><ele>163.0</ele><time>2026-05-01T07:22:50.999Z</time></trkpt><trkpt lat="45.579670378079236" lon="9.324952057089591"><ele>163.0</ele><time>2026-05-01T07:22:51.999Z</time></trkpt><trkpt lat="45.57963233215221" lon="9.325099905037037"><ele>163.0</ele><time>2026-05-01T07:22:52.999Z</time></trkpt><trkpt lat="45.57958603264946" lon="9.32523305400468"><ele>163.0</ele><time>2026-05-01T07:22:53.999Z</time></trkpt><trkpt lat="45.579539294722856" lon="9.325362138201356"><ele>163.0</ele><time>2026-05-01T07:22:54.999Z</time></trkpt><trkpt lat="45.5794929655941" lon="9.325490416961921"><ele>163.0</ele><time>2026-05-01T07:22:55.999Z</time></trkpt><trkpt lat="45.57944650831715" lon="9.325616842347612"><ele>163.0</ele><time>2026-05-01T07:22:56.999Z</time></trkpt><trkpt lat="45.57939635506538" lon="9.325750246646756"><ele>163.0</ele><time>2026-05-01T07:22:57.999Z</time></trkpt><trkpt lat="45.57934143873347" lon="9.3258856626726"><ele>163.0</ele><time>2026-05-01T07:22:58.999Z</time></trkpt><trkpt lat="45.57928457770107" lon="9.32603282091078"><ele>163.0</ele><time>2026-05-01T07:22:59.999Z</time></trkpt><trkpt lat="45.57922494085218" lon="9.326195594648063"><ele>163.0</ele><time>2026-05-01T07:23:00.999Z</time></trkpt><trkpt lat="45.579162525694244" lon="9.326368707945702"><ele>163.0</ele><time>2026-05-01T07:23:01.999Z</time></trkpt><trkpt lat="45.57909892331703" lon="9.326545078137668"><ele>163.0</ele><time>2026-05-01T07:23:02.999Z</time></trkpt><trkpt lat="45.57903891730633" lon="9.326706893104541"><ele>163.0</ele><time>2026-05-01T07:23:03.999Z</time></trkpt><trkpt lat="45.57897787064016" lon="9.326871010095985"><ele>163.0</ele><time>2026-05-01T07:23:04.999Z</time></trkpt><trkpt lat="45.57891559699568" lon="9.327037013644212"><ele>163.0</ele><time>2026-05-01T07:23:05.999Z</time></trkpt><trkpt lat="45.578849639044485" lon="9.327202786297034"><ele>163.0</ele><time>2026-05-01T07:23:06.999Z</time></trkpt><trkpt lat="45.5787863585827" lon="9.32737180452388"><ele>163.0</ele><time>2026-05-01T07:23:07.999Z</time></trkpt><trkpt lat="45.57872332262627" lon="9.327547356315007"><ele>162.75</ele><time>2026-05-01T07:23:08.999Z</time></trkpt><trkpt lat="45.578642997113526" lon="9.327715720751785"><ele>162.5</ele><time>2026-05-01T07:23:09.999Z</time></trkpt><trkpt lat="45.57857683286559" lon="9.327898141180036"><ele>162.25</ele><time>2026-05-01T07:23:10.999Z</time></trkpt><trkpt lat="45.578509511362846" lon="9.328081197091779"><ele>162.0</ele><time>2026-05-01T07:23:11.999Z</time></trkpt><trkpt lat="45.578441175605896" lon="9.328267010908132"><ele>162.0</ele><time>2026-05-01T07:23:12.999Z</time></trkpt><trkpt lat="45.57838806483662" lon="9.328459005714633"><ele>162.0</ele><time>2026-05-01T07:23:13.999Z</time></trkpt><trkpt lat="45.57832582557125" lon="9.328624549026117"><ele>162.0</ele><time>2026-05-01T07:23:14.999Z</time></trkpt><trkpt lat="45.578268071255636" lon="9.328781323544638"><ele>162.0</ele><time>2026-05-01T07:23:15.999Z</time></trkpt><trkpt lat="45.578214189163866" lon="9.32892451550687"><ele>162.16666666666666</ele><time>2026-05-01T07:23:16.999Z</time></trkpt><trkpt lat="45.57816518822646" lon="9.329054271726186"><ele>162.33333333333334</ele><time>2026-05-01T07:23:17.999Z</time></trkpt><trkpt lat="45.578120771652934" lon="9.329168833324562"><ele>162.5</ele><time>2026-05-01T07:23:18.999Z</time></trkpt><trkpt lat="45.57808393430361" lon="9.329265256535685"><ele>162.66666666666669</ele><time>2026-05-01T07:23:19.999Z</time></trkpt><trkpt lat="45.57805290671243" lon="9.329349859932009"><ele>162.83333333333334</ele><time>2026-05-01T07:23:20.999Z</time></trkpt><trkpt lat="45.57800276796391" lon="9.329487148531163"><ele>163.0</ele><time>2026-05-01T07:23:22.999Z</time></trkpt><trkpt lat="45.57796488344277" lon="9.329573021385679"><ele>163.0</ele><time>2026-05-01T07:23:24.999Z</time></trkpt><trkpt lat="45.57792508034864" lon="9.329691261825582"><ele>163.0</ele><time>2026-05-01T07:23:37.997Z</time></trkpt><trkpt lat="45.57788909140998" lon="9.32980159306907"><ele>163.0</ele><time>2026-05-01T07:23:39.997Z</time></trkpt><trkpt lat="45.577839935865036" lon="9.32993855559472"><ele>163.0</ele><time>2026-05-01T07:23:41.997Z</time></trkpt><trkpt lat="45.577802998181916" lon="9.330035649817102"><ele>163.0</ele><time>2026-05-01T07:23:42.997Z</time></trkpt><trkpt lat="45.577763837977386" lon="9.330142630636193"><ele>163.0</ele><time>2026-05-01T07:23:43.998Z</time></trkpt><trkpt lat="45.57772725779172" lon="9.330242400403705"><ele>163.0</ele><time>2026-05-01T07:23:44.998Z</time></trkpt><trkpt lat="45.577687343772055" lon="9.330357075094152"><ele>163.0</ele><time>2026-05-01T07:23:45.998Z</time></trkpt><trkpt lat="45.57764221878202" lon="9.33047892052951"><ele>163.0</ele><time>2026-05-01T07:23:46.998Z</time></trkpt><trkpt lat="45.577584928402246" lon="9.330616882227169"><ele>163.0</ele><time>2026-05-01T07:23:47.998Z</time></trkpt><trkpt lat="45.57752267684922" lon="9.330768326086199"><ele>163.0</ele><time>2026-05-01T07:23:48.998Z</time></trkpt><trkpt lat="45.577457763271454" lon="9.330936529556027"><ele>162.75</ele><time>2026-05-01T07:23:49.998Z</time></trkpt><trkpt lat="45.57739351862291" lon="9.331104698994272"><ele>162.5</ele><time>2026-05-01T07:23:50.998Z</time></trkpt><trkpt lat="45.57733116169026" lon="9.331259466427648"><ele>162.25</ele><time>2026-05-01T07:23:51.998Z</time></trkpt><trkpt lat="45.57727049666581" lon="9.331424163404154"><ele>162.0</ele><time>2026-05-01T07:23:52.998Z</time></trkpt><trkpt lat="45.577206639535675" lon="9.331593388132744"><ele>162.25</ele><time>2026-05-01T07:23:53.998Z</time></trkpt><trkpt lat="45.57714904728365" lon="9.33177268470529"><ele>162.5</ele><time>2026-05-01T07:23:54.998Z</time></trkpt><trkpt lat="45.5770880439005" lon="9.331952743958166"><ele>162.75</ele><time>2026-05-01T07:23:55.998Z</time></trkpt><trkpt lat="45.57702207912795" lon="9.332132831729714"><ele>163.0</ele><time>2026-05-01T07:23:56.998Z</time></trkpt><trkpt lat="45.576950643056875" lon="9.332316618629381"><ele>163.0</ele><time>2026-05-01T07:23:57.998Z</time></trkpt><trkpt lat="45.57687987046585" lon="9.332505687258097"><ele>163.0</ele><time>2026-05-01T07:23:58.998Z</time></trkpt><trkpt lat="45.576808777207916" lon="9.332697741399622"><ele>163.0</ele><time>2026-05-01T07:23:59.998Z</time></trkpt><trkpt lat="45.57674287333825" lon="9.33288030392133"><ele>163.0</ele><time>2026-05-01T07:24:00.998Z</time></trkpt><trkpt lat="45.57667502829127" lon="9.333064752527848"><ele>163.33333333333334</ele><time>2026-05-01T07:24:01.999Z</time></trkpt><trkpt lat="45.57660684298777" lon="9.333255502187095"><ele>163.66666666666666</ele><time>2026-05-01T07:24:02.999Z</time></trkpt><trkpt lat="45.576543136050994" lon="9.333454129412537"><ele>164.0</ele><time>2026-05-01T07:24:03.999Z</time></trkpt><trkpt lat="45.57648377956111" lon="9.333661073426763"><ele>164.0</ele><time>2026-05-01T07:24:04.999Z</time></trkpt><trkpt lat="45.576425142674445" lon="9.333872690760455"><ele>164.0</ele><time>2026-05-01T07:24:05.999Z</time></trkpt><trkpt lat="45.576364328702226" lon="9.334094142837463"><ele>164.0</ele><time>2026-05-01T07:24:06.999Z</time></trkpt><trkpt lat="45.57630459720203" lon="9.334317095579907"><ele>164.0</ele><time>2026-05-01T07:24:07.999Z</time></trkpt><trkpt lat="45.576245909216304" lon="9.334540728872103"><ele>164.0</ele><time>2026-05-01T07:24:08.999Z</time></trkpt><trkpt lat="45.576192626661516" lon="9.334759222661612"><ele>164.0</ele><time>2026-05-01T07:24:09.999Z</time></trkpt><trkpt lat="45.576141443401546" lon="9.33498118127988"><ele>163.33333333333331</ele><time>2026-05-01T07:24:10.999Z</time></trkpt><trkpt lat="45.57609339304984" lon="9.335206463855508"><ele>162.66666666666666</ele><time>2026-05-01T07:24:11.999Z</time></trkpt><trkpt lat="45.57604624101209" lon="9.33543418654689"><ele>162.0</ele><time>2026-05-01T07:24:12.999Z</time></trkpt><trkpt lat="45.57600156224941" lon="9.335662588274397"><ele>162.0</ele><time>2026-05-01T07:24:13.999Z</time></trkpt><trkpt lat="45.57595855238224" lon="9.335891587399653"><ele>162.0</ele><time>2026-05-01T07:24:14.999Z</time></trkpt><trkpt lat="45.575914385705495" lon="9.336122999782214"><ele>162.0</ele><time>2026-05-01T07:24:15.999Z</time></trkpt><trkpt lat="45.575871021205124" lon="9.336353454134255"><ele>162.0</ele><time>2026-05-01T07:24:16.999Z</time></trkpt><trkpt lat="45.57583192662364" lon="9.336586537106932"><ele>162.0</ele><time>2026-05-01T07:24:17.999Z</time></trkpt><trkpt lat="45.57579139401135" lon="9.336823531713689"><ele>162.0</ele><time>2026-05-01T07:24:18.999Z</time></trkpt><trkpt lat="45.57575036338781" lon="9.337059366798803"><ele>162.0</ele><time>2026-05-01T07:24:19.999Z</time></trkpt><trkpt lat="45.5757047662071" lon="9.337293710956702"><ele>162.0</ele><time>2026-05-01T07:24:20.999Z</time></trkpt><trkpt lat="45.57565919601755" lon="9.33752092337865"><ele>162.0</ele><time>2026-05-01T07:24:21.999Z</time></trkpt><trkpt lat="45.57561366784871" lon="9.33774344852672"><ele>162.0</ele><time>2026-05-01T07:24:22.999Z</time></trkpt><trkpt lat="45.57557136079369" lon="9.337966159022642"><ele>162.0</ele><time>2026-05-01T07:24:23.999Z</time></trkpt><trkpt lat="45.5755304411593" lon="9.338183462765647"><ele>162.0</ele><time>2026-05-01T07:24:24.999Z</time></trkpt><trkpt lat="45.5754915801244" lon="9.338396461847777"><ele>162.0</ele><time>2026-05-01T07:24:25.999Z</time></trkpt><trkpt lat="45.57545023249951" lon="9.33861217227342"><ele>162.0</ele><time>2026-05-01T07:24:26.999Z</time></trkpt><trkpt lat="45.57540700235611" lon="9.338826447077416"><ele>162.0</ele><time>2026-05-01T07:24:27.999Z</time></trkpt><trkpt lat="45.57536212985523" lon="9.339034382188737"><ele>162.0</ele><time>2026-05-01T07:24:28.999Z</time></trkpt><trkpt lat="45.575317020430546" lon="9.339233333574823"><ele>162.0</ele><time>2026-05-01T07:24:29.999Z</time></trkpt><trkpt lat="45.57529273240538" lon="9.339423617086313"><ele>162.0</ele><time>2026-05-01T07:24:30.999Z</time></trkpt><trkpt lat="45.57524958775216" lon="9.339592259631912"><ele>162.0</ele><time>2026-05-01T07:24:31.999Z</time></trkpt><trkpt lat="45.57521942306359" lon="9.339752124520741"><ele>162.0</ele><time>2026-05-01T07:24:32.999Z</time></trkpt><trkpt lat="45.57519844192588" lon="9.339897376034937"><ele>162.0</ele><time>2026-05-01T07:24:33.999Z</time></trkpt><trkpt lat="45.575165006466946" lon="9.340031252196278"><ele>162.0</ele><time>2026-05-01T07:24:34.999Z</time></trkpt><trkpt lat="45.57513250158867" lon="9.340152488379832"><ele>162.0</ele><time>2026-05-01T07:24:35.999Z</time></trkpt><trkpt lat="45.57496166071613" lon="9.340184801217692"><ele>162.0</ele><time>2026-05-01T07:24:36.999Z</time></trkpt><trkpt lat="45.574892892581424" lon="9.340206938147231"><ele>162.0</ele><time>2026-05-01T07:24:37.999Z</time></trkpt><trkpt lat="45.574796474964224" lon="9.340214662542913"><ele>162.0</ele><time>2026-05-01T07:24:38.999Z</time></trkpt><trkpt lat="45.57470722037298" lon="9.340178740682688"><ele>162.0</ele><time>2026-05-01T07:24:39.999Z</time></trkpt><trkpt lat="45.57462549516781" lon="9.340105519423076"><ele>162.0</ele><time>2026-05-01T07:24:40.999Z</time></trkpt><trkpt lat="45.57454273879907" lon="9.340001920786117"><ele>162.0</ele><time>2026-05-01T07:24:41.999Z</time></trkpt><trkpt lat="45.57445716444812" lon="9.339887655331236"><ele>162.0</ele><time>2026-05-01T07:24:42.999Z</time></trkpt><trkpt lat="45.57436427029411" lon="9.339772106511004"><ele>162.0</ele><time>2026-05-01T07:24:43.999Z</time></trkpt><trkpt lat="45.57426898662087" lon="9.339660635284508"><ele>162.0</ele><time>2026-05-01T07:24:44.999Z</time></trkpt><trkpt lat="45.574176317389075" lon="9.339556202164896"><ele>162.0</ele><time>2026-05-01T07:24:45.999Z</time></trkpt><trkpt lat="45.574082558889046" lon="9.339482444903751"><ele>162.0</ele><time>2026-05-01T07:24:46.999Z</time></trkpt><trkpt lat="45.57397578420459" lon="9.339449166747675"><ele>162.0</ele><time>2026-05-01T07:24:47.999Z</time></trkpt><trkpt lat="45.57386315281906" lon="9.339463768838364"><ele>162.0</ele><time>2026-05-01T07:24:48.999Z</time></trkpt><trkpt lat="45.57375409175662" lon="9.339518701307654"><ele>162.0</ele><time>2026-05-01T07:24:49.999Z</time></trkpt><trkpt lat="45.57365218229852" lon="9.339608503799054"><ele>162.0</ele><time>2026-05-01T07:24:50.999Z</time></trkpt><trkpt lat="45.573545555305714" lon="9.339702431459619"><ele>162.0</ele><time>2026-05-01T07:24:51.999Z</time></trkpt><trkpt lat="45.57341663010774" lon="9.339771491997007"><ele>162.0</ele><time>2026-05-01T07:24:52.999Z</time></trkpt><trkpt lat="45.57327831431568" lon="9.339806527224225"><ele>162.0</ele><time>2026-05-01T07:24:53.999Z</time></trkpt><trkpt lat="45.573131634277104" lon="9.339814912856022"><ele>162.0</ele><time>2026-05-01T07:24:54.999Z</time></trkpt><trkpt lat="45.57297904396909" lon="9.339795610097482"><ele>162.0</ele><time>2026-05-01T07:24:55.999Z</time></trkpt><trkpt lat="45.572825552541595" lon="9.339734474608301"><ele>162.0</ele><time>2026-05-01T07:24:56.999Z</time></trkpt><trkpt lat="45.57267052801496" lon="9.339636170253039"><ele>161.33333333333334</ele><time>2026-05-01T07:24:57.999Z</time></trkpt><trkpt lat="45.572508898593306" lon="9.339530602229273"><ele>160.66666666666669</ele><time>2026-05-01T07:24:58.999Z</time></trkpt><trkpt lat="45.572353477830454" lon="9.339433702867371"><ele>160.0</ele><time>2026-05-01T07:24:59.999Z</time></trkpt><trkpt lat="45.57218810899434" lon="9.339333111182444"><ele>159.33333333333334</ele><time>2026-05-01T07:25:00.999Z</time></trkpt><trkpt lat="45.572015660927114" lon="9.339229643328208"><ele>158.66666666666666</ele><time>2026-05-01T07:25:01.999Z</time></trkpt><trkpt lat="45.571839762872116" lon="9.339126416435004"><ele>158.0</ele><time>2026-05-01T07:25:02.999Z</time></trkpt><trkpt lat="45.57165806203498" lon="9.339020703833834"><ele>158.0</ele><time>2026-05-01T07:25:03.999Z</time></trkpt><trkpt lat="45.57147259792968" lon="9.338909357221077"><ele>158.0</ele><time>2026-05-01T07:25:04.999Z</time></trkpt><trkpt lat="45.57128590806427" lon="9.338797014233316"><ele>158.0</ele><time>2026-05-01T07:25:05.999Z</time></trkpt><trkpt lat="45.57109984919916" lon="9.338679146685967"><ele>157.33333333333331</ele><time>2026-05-01T07:25:06.999Z</time></trkpt><trkpt lat="45.5709191373648" lon="9.33857100756468"><ele>156.66666666666666</ele><time>2026-05-01T07:25:07.999Z</time></trkpt><trkpt lat="45.57073710930884" lon="9.338462500257728"><ele>156.0</ele><time>2026-05-01T07:25:08.999Z</time></trkpt><trkpt lat="45.57055126578695" lon="9.33834667165667"><ele>156.0</ele><time>2026-05-01T07:25:09.999Z</time></trkpt><trkpt lat="45.57036249495169" lon="9.338231933817749"><ele>156.0</ele><time>2026-05-01T07:25:10.999Z</time></trkpt><trkpt lat="45.570172101677" lon="9.33811717295491"><ele>156.0</ele><time>2026-05-01T07:25:11.999Z</time></trkpt><trkpt lat="45.56998169205187" lon="9.337999698901942"><ele>156.66666666666666</ele><time>2026-05-01T07:25:12.999Z</time></trkpt><trkpt lat="45.56978708639657" lon="9.337881562377849"><ele>157.33333333333331</ele><time>2026-05-01T07:25:13.999Z</time></trkpt><trkpt lat="45.56958935657434" lon="9.337762733343395"><ele>158.0</ele><time>2026-05-01T07:25:14.999Z</time></trkpt><trkpt lat="45.56939113599968" lon="9.337643854903057"><ele>158.0</ele><time>2026-05-01T07:25:15.999Z</time></trkpt><trkpt lat="45.569190312056605" lon="9.3375266844976"><ele>158.0</ele><time>2026-05-01T07:25:16.999Z</time></trkpt><trkpt lat="45.56898636080155" lon="9.337411729579436"><ele>158.0</ele><time>2026-05-01T07:25:17.999Z</time></trkpt><trkpt lat="45.56878479110368" lon="9.337301445742867"><ele>157.66666666666666</ele><time>2026-05-01T07:25:18.999Z</time></trkpt><trkpt lat="45.56857972521711" lon="9.337194136890911"><ele>157.33333333333334</ele><time>2026-05-01T07:25:19.999Z</time></trkpt><trkpt lat="45.56837425222822" lon="9.337090524094917"><ele>157.0</ele><time>2026-05-01T07:25:20.999Z</time></trkpt><trkpt lat="45.568176897691835" lon="9.336989448359597"><ele>157.0</ele><time>2026-05-01T07:25:21.999Z</time></trkpt><trkpt lat="45.56797723979154" lon="9.336894058730515"><ele>157.0</ele><time>2026-05-01T07:25:22.999Z</time></trkpt><trkpt lat="45.56777502215115" lon="9.336800503008792"><ele>157.0</ele><time>2026-05-01T07:25:23.999Z</time></trkpt><trkpt lat="45.56757247034405" lon="9.336711483845514"><ele>157.0</ele><time>2026-05-01T07:25:24.999Z</time></trkpt><trkpt lat="45.56737021130212" lon="9.336615426758735"><ele>157.0</ele><time>2026-05-01T07:25:26Z</time></trkpt><trkpt lat="45.567167873038144" lon="9.33651725135229"><ele>157.0</ele><time>2026-05-01T07:25:27Z</time></trkpt><trkpt lat="45.56696443943189" lon="9.336426822975415"><ele>157.33333333333334</ele><time>2026-05-01T07:25:28Z</time></trkpt><trkpt lat="45.56676338475308" lon="9.336340798627862"><ele>157.66666666666666</ele><time>2026-05-01T07:25:29Z</time></trkpt><trkpt lat="45.566564467417805" lon="9.336252529469995"><ele>158.0</ele><time>2026-05-01T07:25:30Z</time></trkpt><trkpt lat="45.56636617077553" lon="9.336161425131264"><ele>158.33333333333331</ele><time>2026-05-01T07:25:31Z</time></trkpt><trkpt lat="45.56617518098224" lon="9.336065914891678"><ele>158.66666666666666</ele><time>2026-05-01T07:25:32Z</time></trkpt><trkpt lat="45.565977801577276" lon="9.335960792848955"><ele>159.0</ele><time>2026-05-01T07:25:33Z</time></trkpt><trkpt lat="45.56577826572589" lon="9.33585130152379"><ele>159.0</ele><time>2026-05-01T07:25:34Z</time></trkpt><trkpt lat="45.56558445882263" lon="9.335734462286506"><ele>159.0</ele><time>2026-05-01T07:25:34.997Z</time></trkpt><trkpt lat="45.56539150590666" lon="9.335612865902394"><ele>159.0</ele><time>2026-05-01T07:25:35.997Z</time></trkpt><trkpt lat="45.56520485463053" lon="9.33548073364964"><ele>159.0</ele><time>2026-05-01T07:25:36.997Z</time></trkpt><trkpt lat="45.56501697393836" lon="9.335345580778256"><ele>159.0</ele><time>2026-05-01T07:25:37.997Z</time></trkpt><trkpt lat="45.56484219713821" lon="9.335206886515083"><ele>159.0</ele><time>2026-05-01T07:25:38.997Z</time></trkpt><trkpt lat="45.56467194812056" lon="9.335070541369316"><ele>158.33333333333334</ele><time>2026-05-01T07:25:39.997Z</time></trkpt><trkpt lat="45.56450288203681" lon="9.334935513587979"><ele>157.66666666666669</ele><time>2026-05-01T07:25:40.997Z</time></trkpt><trkpt lat="45.56434001030256" lon="9.33480870717741"><ele>157.0</ele><time>2026-05-01T07:25:41.997Z</time></trkpt><trkpt lat="45.56418169457102" lon="9.334681052770735"><ele>157.0</ele><time>2026-05-01T07:25:42.997Z</time></trkpt><trkpt lat="45.56401959364822" lon="9.334555212006737"><ele>157.0</ele><time>2026-05-01T07:25:43.997Z</time></trkpt><trkpt lat="45.5638618126991" lon="9.334437683923003"><ele>157.0</ele><time>2026-05-01T07:25:44.997Z</time></trkpt><trkpt lat="45.563702239709876" lon="9.334326075663846"><ele>156.33333333333334</ele><time>2026-05-01T07:25:45.997Z</time></trkpt><trkpt lat="45.56354437409383" lon="9.334221895052188"><ele>155.66666666666666</ele><time>2026-05-01T07:25:46.997Z</time></trkpt><trkpt lat="45.563377618495736" lon="9.334117281432992"><ele>155.0</ele><time>2026-05-01T07:25:47.997Z</time></trkpt><trkpt lat="45.56321692683558" lon="9.334002299284196"><ele>155.33333333333331</ele><time>2026-05-01T07:25:48.997Z</time></trkpt><trkpt lat="45.563071847209386" lon="9.333872091432488"><ele>155.66666666666666</ele><time>2026-05-01T07:25:49.998Z</time></trkpt><trkpt lat="45.562932931077185" lon="9.333730728104786"><ele>156.0</ele><time>2026-05-01T07:25:50.998Z</time></trkpt><trkpt lat="45.56279922239183" lon="9.333592959666397"><ele>156.0</ele><time>2026-05-01T07:25:51.998Z</time></trkpt><trkpt lat="45.56266452308518" lon="9.333463826203031"><ele>156.0</ele><time>2026-05-01T07:25:52.998Z</time></trkpt><trkpt lat="45.562530120952715" lon="9.333347599742643"><ele>156.0</ele><time>2026-05-01T07:25:53.998Z</time></trkpt><trkpt lat="45.562396413339854" lon="9.33324695136404"><ele>156.0</ele><time>2026-05-01T07:25:54.998Z</time></trkpt><trkpt lat="45.562288411741505" lon="9.33310931690673"><ele>156.0</ele><time>2026-05-01T07:25:55.998Z</time></trkpt><trkpt lat="45.56217405668343" lon="9.332989610819066"><ele>156.0</ele><time>2026-05-01T07:25:56.998Z</time></trkpt><trkpt lat="45.562068452780295" lon="9.332879065383711"><ele>156.0</ele><time>2026-05-01T07:25:57.998Z</time></trkpt><trkpt lat="45.56197435618836" lon="9.332780565695119"><ele>155.5</ele><time>2026-05-01T07:25:58.998Z</time></trkpt><trkpt lat="45.56178104016197" lon="9.332916274232295"><ele>155.0</ele><time>2026-05-01T07:25:59.998Z</time></trkpt><trkpt lat="45.56169785337396" lon="9.332872269930391"><ele>154.5</ele><time>2026-05-01T07:26:00.998Z</time></trkpt><trkpt lat="45.56162489802445" lon="9.3328302598519"><ele>154.0</ele><time>2026-05-01T07:26:01.998Z</time></trkpt><trkpt lat="45.561555920151555" lon="9.332790190228513"><ele>154.0</ele><time>2026-05-01T07:26:02.998Z</time></trkpt><trkpt lat="45.56148402067982" lon="9.332748454677718"><ele>154.0</ele><time>2026-05-01T07:26:03.998Z</time></trkpt><trkpt lat="45.56140774361701" lon="9.332703283601282"><ele>154.0</ele><time>2026-05-01T07:26:04.999Z</time></trkpt><trkpt lat="45.56131690878701" lon="9.332656558332419"><ele>154.0</ele><time>2026-05-01T07:26:05.999Z</time></trkpt><trkpt lat="45.56122597426056" lon="9.332620562966085"><ele>154.0</ele><time>2026-05-01T07:26:06.999Z</time></trkpt><trkpt lat="45.561115176756715" lon="9.33258666195278"><ele>153.25</ele><time>2026-05-01T07:26:07.999Z</time></trkpt><trkpt lat="45.56099567339177" lon="9.332557529342884"><ele>152.5</ele><time>2026-05-01T07:26:08.999Z</time></trkpt><trkpt lat="45.56087187544035" lon="9.33253056640566"><ele>151.75</ele><time>2026-05-01T07:26:09.999Z</time></trkpt><trkpt lat="45.56074393835316" lon="9.33250438973936"><ele>151.0</ele><time>2026-05-01T07:26:10.999Z</time></trkpt><trkpt lat="45.56061231088918" lon="9.33247445855028"><ele>151.0</ele><time>2026-05-01T07:26:11.999Z</time></trkpt><trkpt lat="45.56047747567973" lon="9.33244035035944"><ele>151.0</ele><time>2026-05-01T07:26:12.999Z</time></trkpt><trkpt lat="45.56034020993159" lon="9.332396883092791"><ele>151.0</ele><time>2026-05-01T07:26:13.999Z</time></trkpt><trkpt lat="45.560198122587316" lon="9.332344042984856"><ele>151.0</ele><time>2026-05-01T07:26:14.999Z</time></trkpt><trkpt lat="45.56005128336369" lon="9.332281923120135"><ele>150.66666666666669</ele><time>2026-05-01T07:26:15.999Z</time></trkpt><trkpt lat="45.55989814561641" lon="9.332211985399887"><ele>150.33333333333334</ele><time>2026-05-01T07:26:16.999Z</time></trkpt><trkpt lat="45.55974120445552" lon="9.332135805271154"><ele>150.0</ele><time>2026-05-01T07:26:17.999Z</time></trkpt><trkpt lat="45.559578674836864" lon="9.332049905419112"><ele>149.66666666666666</ele><time>2026-05-01T07:26:18.999Z</time></trkpt><trkpt lat="45.55942546003764" lon="9.331963318065537"><ele>149.33333333333331</ele><time>2026-05-01T07:26:19.999Z</time></trkpt><trkpt lat="45.55926891103466" lon="9.33187322861734"><ele>149.0</ele><time>2026-05-01T07:26:20.999Z</time></trkpt><trkpt lat="45.55910917044864" lon="9.331781776382288"><ele>149.0</ele><time>2026-05-01T07:26:21.999Z</time></trkpt><trkpt lat="45.558944920287175" lon="9.331687267651722"><ele>149.0</ele><time>2026-05-01T07:26:22.999Z</time></trkpt><trkpt lat="45.55877791056964" lon="9.331591612780677"><ele>149.0</ele><time>2026-05-01T07:26:23.999Z</time></trkpt><trkpt lat="45.55860607329499" lon="9.331494597848376"><ele>149.66666666666666</ele><time>2026-05-01T07:26:24.999Z</time></trkpt><trkpt lat="45.55842941684987" lon="9.33139512674161"><ele>150.33333333333334</ele><time>2026-05-01T07:26:25.999Z</time></trkpt><trkpt lat="45.558251153649294" lon="9.33129326431964"><ele>151.0</ele><time>2026-05-01T07:26:26.999Z</time></trkpt><trkpt lat="45.55806668555296" lon="9.33118819762266"><ele>151.33333333333334</ele><time>2026-05-01T07:26:27.999Z</time></trkpt><trkpt lat="45.55788136906033" lon="9.331083677906252"><ele>151.66666666666666</ele><time>2026-05-01T07:26:28.999Z</time></trkpt><trkpt lat="45.557699248754" lon="9.3309800838137"><ele>152.0</ele><time>2026-05-01T07:26:29.999Z</time></trkpt><trkpt lat="45.55752560237335" lon="9.3308799491849"><ele>152.0</ele><time>2026-05-01T07:26:30.999Z</time></trkpt><trkpt lat="45.55734974749289" lon="9.330774017665036"><ele>152.0</ele><time>2026-05-01T07:26:31.999Z</time></trkpt><trkpt lat="45.55717259373794" lon="9.330668695984176"><ele>152.0</ele><time>2026-05-01T07:26:32.999Z</time></trkpt><trkpt lat="45.5569938309224" lon="9.330565580534905"><ele>151.33333333333331</ele><time>2026-05-01T07:26:33.999Z</time></trkpt><trkpt lat="45.55681220615067" lon="9.330459501324196"><ele>150.66666666666666</ele><time>2026-05-01T07:26:34.999Z</time></trkpt><trkpt lat="45.556628158376434" lon="9.3303494540417"><ele>150.0</ele><time>2026-05-01T07:26:35.999Z</time></trkpt><trkpt lat="45.556443753717744" lon="9.330239741322625"><ele>150.0</ele><time>2026-05-01T07:26:36.999Z</time></trkpt><trkpt lat="45.55625868032952" lon="9.330130730739127"><ele>150.0</ele><time>2026-05-01T07:26:37.999Z</time></trkpt><trkpt lat="45.55606981286087" lon="9.330020813629938"><ele>150.0</ele><time>2026-05-01T07:26:38.999Z</time></trkpt><trkpt lat="45.555880556753515" lon="9.329910399117114"><ele>149.66666666666666</ele><time>2026-05-01T07:26:39.999Z</time></trkpt><trkpt lat="45.55568789158682" lon="9.329798172296734"><ele>149.33333333333331</ele><time>2026-05-01T07:26:41Z</time></trkpt><trkpt lat="45.55549310880654" lon="9.329684296813893"><ele>149.0</ele><time>2026-05-01T07:26:42Z</time></trkpt><trkpt lat="45.555297716372394" lon="9.32956911387733"><ele>149.0</ele><time>2026-05-01T07:26:43Z</time></trkpt><trkpt lat="45.55510274629736" lon="9.32945080241811"><ele>149.0</ele><time>2026-05-01T07:26:44Z</time></trkpt><trkpt lat="45.55490494579893" lon="9.329328554657447"><ele>149.0</ele><time>2026-05-01T07:26:45Z</time></trkpt><trkpt lat="45.55470515829125" lon="9.329210134796922"><ele>148.33333333333331</ele><time>2026-05-01T07:26:46Z</time></trkpt><trkpt lat="45.55450280706498" lon="9.329091271492414"><ele>147.66666666666666</ele><time>2026-05-01T07:26:47Z</time></trkpt><trkpt lat="45.5542999488919" lon="9.328971777350176"><ele>147.0</ele><time>2026-05-01T07:26:48Z</time></trkpt><trkpt lat="45.554095261785086" lon="9.328850364899514"><ele>146.0</ele><time>2026-05-01T07:26:49Z</time></trkpt><trkpt lat="45.55389123114668" lon="9.328731473390617"><ele>145.0</ele><time>2026-05-01T07:26:50Z</time></trkpt><trkpt lat="45.55368703528572" lon="9.328612029155911"><ele>144.0</ele><time>2026-05-01T07:26:51Z</time></trkpt><trkpt lat="45.55347611461882" lon="9.328490206712457"><ele>143.5</ele><time>2026-05-01T07:26:52Z</time></trkpt><trkpt lat="45.55326615130384" lon="9.328370300450432"><ele>143.0</ele><time>2026-05-01T07:26:53Z</time></trkpt><trkpt lat="45.553052527353124" lon="9.328247221915264"><ele>142.5</ele><time>2026-05-01T07:26:54Z</time></trkpt><trkpt lat="45.552837009576436" lon="9.328125836870822"><ele>142.0</ele><time>2026-05-01T07:26:55Z</time></trkpt><trkpt lat="45.5526202455897" lon="9.328000599848489"><ele>142.0</ele><time>2026-05-01T07:26:56Z</time></trkpt><trkpt lat="45.55240527997649" lon="9.327873947732227"><ele>142.0</ele><time>2026-05-01T07:26:57Z</time></trkpt><trkpt lat="45.552188379635176" lon="9.327745338296927"><ele>143.0</ele><time>2026-05-01T07:26:58Z</time></trkpt><trkpt lat="45.551970004771356" lon="9.327619839735105"><ele>144.0</ele><time>2026-05-01T07:26:59Z</time></trkpt><trkpt lat="45.55175156798112" lon="9.327491797882853"><ele>144.0</ele><time>2026-05-01T07:27:00Z</time></trkpt><trkpt lat="45.55153549523516" lon="9.327366908361732"><ele>144.0</ele><time>2026-05-01T07:27:01Z</time></trkpt><trkpt lat="45.55131781422023" lon="9.327237953555468"><ele>143.0</ele><time>2026-05-01T07:27:02Z</time></trkpt><trkpt lat="45.55110312049932" lon="9.327108735634559"><ele>142.0</ele><time>2026-05-01T07:27:03Z</time></trkpt><trkpt lat="45.55088852654505" lon="9.326977939746218"><ele>142.0</ele><time>2026-05-01T07:27:04Z</time></trkpt><trkpt lat="45.55067505184019" lon="9.326851291201066"><ele>142.0</ele><time>2026-05-01T07:27:05Z</time></trkpt><trkpt lat="45.550464471074704" lon="9.326727409451822"><ele>143.0</ele><time>2026-05-01T07:27:06Z</time></trkpt><trkpt lat="45.55025391228515" lon="9.326605504186851"><ele>144.0</ele><time>2026-05-01T07:27:07Z</time></trkpt><trkpt lat="45.55004390766497" lon="9.326481462297675"><ele>144.0</ele><time>2026-05-01T07:27:08Z</time></trkpt><trkpt lat="45.549835451960455" lon="9.326357441476683"><ele>144.0</ele><time>2026-05-01T07:27:09Z</time></trkpt><trkpt lat="45.54962328564321" lon="9.326230252712573"><ele>142.5</ele><time>2026-05-01T07:27:10Z</time></trkpt><trkpt lat="45.549416600675606" lon="9.326101514274898"><ele>141.0</ele><time>2026-05-01T07:27:11Z</time></trkpt><trkpt lat="45.549211793445934" lon="9.32596788886042"><ele>141.0</ele><time>2026-05-01T07:27:12Z</time></trkpt><trkpt lat="45.54900983328341" lon="9.325825573388787"><ele>141.0</ele><time>2026-05-01T07:27:13Z</time></trkpt><trkpt lat="45.54880843037824" lon="9.325669818201282"><ele>143.0</ele><time>2026-05-01T07:27:14Z</time></trkpt><trkpt lat="45.54861270835357" lon="9.325507636521035"><ele>145.0</ele><time>2026-05-01T07:27:15Z</time></trkpt><trkpt lat="45.54842265701481" lon="9.325337505609717"><ele>145.0</ele><time>2026-05-01T07:27:16Z</time></trkpt><trkpt lat="45.548233491830764" lon="9.325161544292978"><ele>145.0</ele><time>2026-05-01T07:27:17Z</time></trkpt><trkpt lat="45.54804793519674" lon="9.324979882961461"><ele>144.66666666666669</ele><time>2026-05-01T07:27:18Z</time></trkpt><trkpt lat="45.54786493213562" lon="9.32479361339212"><ele>144.33333333333334</ele><time>2026-05-01T07:27:19Z</time></trkpt><trkpt lat="45.54768917787541" lon="9.324597475201877"><ele>144.0</ele><time>2026-05-01T07:27:20Z</time></trkpt><trkpt lat="45.54751819723993" lon="9.324390233169177"><ele>143.66666666666666</ele><time>2026-05-01T07:27:21Z</time></trkpt><trkpt lat="45.54735110062596" lon="9.324177345091536"><ele>143.33333333333331</ele><time>2026-05-01T07:27:22Z</time></trkpt><trkpt lat="45.54718914489849" lon="9.323960307464638"><ele>143.0</ele><time>2026-05-01T07:27:23Z</time></trkpt><trkpt lat="45.54702895233216" lon="9.32373564799624"><ele>142.5</ele><time>2026-05-01T07:27:24Z</time></trkpt><trkpt lat="45.54686797798909" lon="9.3235048143469"><ele>142.0</ele><time>2026-05-01T07:27:25Z</time></trkpt><trkpt lat="45.54671376554395" lon="9.32325961699234"><ele>142.5</ele><time>2026-05-01T07:27:26Z</time></trkpt><trkpt lat="45.546565186998784" lon="9.32300803962865"><ele>143.0</ele><time>2026-05-01T07:27:27Z</time></trkpt><trkpt lat="45.54641963277614" lon="9.322755195227945"><ele>143.0</ele><time>2026-05-01T07:27:28Z</time></trkpt><trkpt lat="45.546280962047405" lon="9.322493803345738"><ele>143.0</ele><time>2026-05-01T07:27:29Z</time></trkpt><trkpt lat="45.54614719378185" lon="9.32222207146099"><ele>142.0</ele><time>2026-05-01T07:27:30Z</time></trkpt><trkpt lat="45.54601964619523" lon="9.32194486133571"><ele>141.0</ele><time>2026-05-01T07:27:31Z</time></trkpt><trkpt lat="45.5458982408824" lon="9.321661772508048"><ele>140.5</ele><time>2026-05-01T07:27:32Z</time></trkpt><trkpt lat="45.54578303903814" lon="9.321373374275604"><ele>140.0</ele><time>2026-05-01T07:27:33Z</time></trkpt><trkpt lat="45.545669208299735" lon="9.321085468672164"><ele>140.0</ele><time>2026-05-01T07:27:34Z</time></trkpt><trkpt lat="45.54555513311185" lon="9.320793158902585"><ele>140.0</ele><time>2026-05-01T07:27:35Z</time></trkpt><trkpt lat="45.545443183042494" lon="9.320511048073051"><ele>141.0</ele><time>2026-05-01T07:27:36Z</time></trkpt><trkpt lat="45.54533153779372" lon="9.320224306673282"><ele>142.0</ele><time>2026-05-01T07:27:37Z</time></trkpt><trkpt lat="45.5452165517777" lon="9.319941307486783"><ele>141.5</ele><time>2026-05-01T07:27:38Z</time></trkpt><trkpt lat="45.54509944726849" lon="9.319663322330292"><ele>141.0</ele><time>2026-05-01T07:27:39Z</time></trkpt><trkpt lat="45.54497564810328" lon="9.319391788109598"><ele>141.0</ele><time>2026-05-01T07:27:40Z</time></trkpt><trkpt lat="45.54484613769679" lon="9.319128885785569"><ele>141.0</ele><time>2026-05-01T07:27:40.997Z</time></trkpt><trkpt lat="45.544708884717906" lon="9.318871375370426"><ele>140.66666666666666</ele><time>2026-05-01T07:27:41.997Z</time></trkpt><trkpt lat="45.54456390478816" lon="9.318627472431782"><ele>140.33333333333331</ele><time>2026-05-01T07:27:42.997Z</time></trkpt><trkpt lat="45.54441198209232" lon="9.31839646402243"><ele>140.0</ele><time>2026-05-01T07:27:43.997Z</time></trkpt><trkpt lat="45.54425096050409" lon="9.31818253962647"><ele>140.0</ele><time>2026-05-01T07:27:44.997Z</time></trkpt><trkpt lat="45.544079674100274" lon="9.317976868848355"><ele>140.0</ele><time>2026-05-01T07:27:45.997Z</time></trkpt><trkpt lat="45.54390237864918" lon="9.317783242945648"><ele>140.0</ele><time>2026-05-01T07:27:46.997Z</time></trkpt><trkpt lat="45.543718933050144" lon="9.317596314580678"><ele>140.0</ele><time>2026-05-01T07:27:47.997Z</time></trkpt><trkpt lat="45.54353039083093" lon="9.317419110228519"><ele>140.0</ele><time>2026-05-01T07:27:48.997Z</time></trkpt><trkpt lat="45.543335170899525" lon="9.317253747407907"><ele>140.5</ele><time>2026-05-01T07:27:49.997Z</time></trkpt><trkpt lat="45.54313540197599" lon="9.31710096456865"><ele>141.0</ele><time>2026-05-01T07:27:50.997Z</time></trkpt><trkpt lat="45.54293078453689" lon="9.316956197004883"><ele>140.5</ele><time>2026-05-01T07:27:51.997Z</time></trkpt><trkpt lat="45.54272383186609" lon="9.316812972707442"><ele>140.0</ele><time>2026-05-01T07:27:52.997Z</time></trkpt><trkpt lat="45.542512380695975" lon="9.316674243568468"><ele>140.0</ele><time>2026-05-01T07:27:53.997Z</time></trkpt><trkpt lat="45.542302809022374" lon="9.316535229265165"><ele>140.0</ele><time>2026-05-01T07:27:54.997Z</time></trkpt><trkpt lat="45.54208937833895" lon="9.316404275086583"><ele>138.5</ele><time>2026-05-01T07:27:55.997Z</time></trkpt><trkpt lat="45.54188230109891" lon="9.316268435213523"><ele>137.0</ele><time>2026-05-01T07:27:56.998Z</time></trkpt><trkpt lat="45.54167270405961" lon="9.316124928295235"><ele>137.0</ele><time>2026-05-01T07:27:57.998Z</time></trkpt><trkpt lat="45.54146570936192" lon="9.315977563171698"><ele>137.0</ele><time>2026-05-01T07:27:58.998Z</time></trkpt><trkpt lat="45.54126185301483" lon="9.315816553214212"><ele>136.5</ele><time>2026-05-01T07:27:59.998Z</time></trkpt><trkpt lat="45.54106406046785" lon="9.315639915417727"><ele>136.0</ele><time>2026-05-01T07:28:00.998Z</time></trkpt><trkpt lat="45.540871476030375" lon="9.315451266588319"><ele>137.0</ele><time>2026-05-01T07:28:01.998Z</time></trkpt><trkpt lat="45.540684169522585" lon="9.315253326006982"><ele>138.0</ele><time>2026-05-01T07:28:02.998Z</time></trkpt><trkpt lat="45.54050560641419" lon="9.315039153542484"><ele>137.0</ele><time>2026-05-01T07:28:03.998Z</time></trkpt><trkpt lat="45.54033432618947" lon="9.31481266329705"><ele>136.0</ele><time>2026-05-01T07:28:04.998Z</time></trkpt><trkpt lat="45.54017080148046" lon="9.314576331730008"><ele>135.5</ele><time>2026-05-01T07:28:05.998Z</time></trkpt><trkpt lat="45.54002052423326" lon="9.31432575851327"><ele>135.0</ele><time>2026-05-01T07:28:06.998Z</time></trkpt><trkpt lat="45.539881102410476" lon="9.314062205243422"><ele>135.5</ele><time>2026-05-01T07:28:07.998Z</time></trkpt><trkpt lat="45.53975093375249" lon="9.313790630170345"><ele>136.0</ele><time>2026-05-01T07:28:08.998Z</time></trkpt><trkpt lat="45.539629728841234" lon="9.313511676354848"><ele>136.5</ele><time>2026-05-01T07:28:09.998Z</time></trkpt><trkpt lat="45.53951762325204" lon="9.313226943097474"><ele>137.0</ele><time>2026-05-01T07:28:10.999Z</time></trkpt><trkpt lat="45.53941517488117" lon="9.312937473976401"><ele>136.0</ele><time>2026-05-01T07:28:11.999Z</time></trkpt><trkpt lat="45.53932283181008" lon="9.312646888161819"><ele>135.0</ele><time>2026-05-01T07:28:12.999Z</time></trkpt><trkpt lat="45.539244900256215" lon="9.312337396503754"><ele>134.5</ele><time>2026-05-01T07:28:13.999Z</time></trkpt><trkpt lat="45.539180518926436" lon="9.3120252580815"><ele>134.0</ele><time>2026-05-01T07:28:14.999Z</time></trkpt><trkpt lat="45.53912751466055" lon="9.31171040522011"><ele>134.5</ele><time>2026-05-01T07:28:15.999Z</time></trkpt><trkpt lat="45.53908555053737" lon="9.311394054249815"><ele>135.0</ele><time>2026-05-01T07:28:16.999Z</time></trkpt><trkpt lat="45.539049914964664" lon="9.31107406356432"><ele>135.0</ele><time>2026-05-01T07:28:17.999Z</time></trkpt><trkpt lat="45.539020549744514" lon="9.31075708254583"><ele>135.0</ele><time>2026-05-01T07:28:18.999Z</time></trkpt><trkpt lat="45.538990579455756" lon="9.310434823850425"><ele>136.0</ele><time>2026-05-01T07:28:19.999Z</time></trkpt><trkpt lat="45.53895440561264" lon="9.310106238062591"><ele>137.0</ele><time>2026-05-01T07:28:20.999Z</time></trkpt><trkpt lat="45.5389164547504" lon="9.309772946920466"><ele>137.0</ele><time>2026-05-01T07:28:21.999Z</time></trkpt><trkpt lat="45.53888076509138" lon="9.309438070979438"><ele>137.0</ele><time>2026-05-01T07:28:22.999Z</time></trkpt><trkpt lat="45.53884290583574" lon="9.309101039929496"><ele>137.5</ele><time>2026-05-01T07:28:23.999Z</time></trkpt><trkpt lat="45.538805032262964" lon="9.308761855521798"><ele>138.0</ele><time>2026-05-01T07:28:24.999Z</time></trkpt><trkpt lat="45.53876701812101" lon="9.308424530325828"><ele>138.0</ele><time>2026-05-01T07:28:25.999Z</time></trkpt><trkpt lat="45.53873008004407" lon="9.308083004366159"><ele>138.0</ele><time>2026-05-01T07:28:26.999Z</time></trkpt><trkpt lat="45.538693112490016" lon="9.307739973781507"><ele>137.5</ele><time>2026-05-01T07:28:27.999Z</time></trkpt><trkpt lat="45.538658394809964" lon="9.30739879671104"><ele>137.0</ele><time>2026-05-01T07:28:28.999Z</time></trkpt><trkpt lat="45.53862162937881" lon="9.307055399479584"><ele>135.0</ele><time>2026-05-01T07:28:29.999Z</time></trkpt><trkpt lat="45.53858404646992" lon="9.30671389266721"><ele>133.0</ele><time>2026-05-01T07:28:30.999Z</time></trkpt><trkpt lat="45.538545854095126" lon="9.306372937339201"><ele>133.0</ele><time>2026-05-01T07:28:31.999Z</time></trkpt><trkpt lat="45.538507168237196" lon="9.30602935664177"><ele>133.0</ele><time>2026-05-01T07:28:32.999Z</time></trkpt><trkpt lat="45.538468830278106" lon="9.30568325787342"><ele>134.0</ele><time>2026-05-01T07:28:33.999Z</time></trkpt><trkpt lat="45.53843015054694" lon="9.305336885097903"><ele>135.0</ele><time>2026-05-01T07:28:34.999Z</time></trkpt><trkpt lat="45.5383928984522" lon="9.304994836564966"><ele>134.5</ele><time>2026-05-01T07:28:35.999Z</time></trkpt><trkpt lat="45.53835585786103" lon="9.304650658216852"><ele>134.0</ele><time>2026-05-01T07:28:37Z</time></trkpt><trkpt lat="45.53832064948541" lon="9.30430678335027"><ele>134.0</ele><time>2026-05-01T07:28:38Z</time></trkpt><trkpt lat="45.53828295473853" lon="9.303962830751022"><ele>134.0</ele><time>2026-05-01T07:28:39Z</time></trkpt><trkpt lat="45.53824310143525" lon="9.303620957888402"><ele>133.5</ele><time>2026-05-01T07:28:40Z</time></trkpt><trkpt lat="45.53820604452792" lon="9.303278001959699"><ele>133.0</ele><time>2026-05-01T07:28:41Z</time></trkpt><trkpt lat="45.53816940336837" lon="9.302936672632647"><ele>134.5</ele><time>2026-05-01T07:28:42Z</time></trkpt><trkpt lat="45.53813408761927" lon="9.302597442750345"><ele>136.0</ele><time>2026-05-01T07:28:43Z</time></trkpt><trkpt lat="45.538097841264666" lon="9.302260886346087"><ele>136.5</ele><time>2026-05-01T07:28:44Z</time></trkpt><trkpt lat="45.538060668738844" lon="9.301922508582708"><ele>137.0</ele><time>2026-05-01T07:28:45Z</time></trkpt><trkpt lat="45.53802624971761" lon="9.301589200121974"><ele>137.5</ele><time>2026-05-01T07:28:46Z</time></trkpt><trkpt lat="45.537990688720235" lon="9.301256307853256"><ele>138.0</ele><time>2026-05-01T07:28:47Z</time></trkpt><trkpt lat="45.53795531175216" lon="9.300926047226524"><ele>138.0</ele><time>2026-05-01T07:28:48Z</time></trkpt><trkpt lat="45.53792183041125" lon="9.300595094269635"><ele>138.0</ele><time>2026-05-01T07:28:49Z</time></trkpt><trkpt lat="45.53788588265879" lon="9.300265296799815"><ele>135.0</ele><time>2026-05-01T07:28:50Z</time></trkpt><trkpt lat="45.5378512686958" lon="9.299940664541847"><ele>132.0</ele><time>2026-05-01T07:28:51Z</time></trkpt><trkpt lat="45.5378181160223" lon="9.29961723949531"><ele>132.0</ele><time>2026-05-01T07:28:52Z</time></trkpt><trkpt lat="45.537784882402605" lon="9.299295166793367"><ele>132.0</ele><time>2026-05-01T07:28:53Z</time></trkpt><trkpt lat="45.53774896428546" lon="9.298970149261706"><ele>133.0</ele><time>2026-05-01T07:28:54Z</time></trkpt><trkpt lat="45.53771363897052" lon="9.29864832905845"><ele>134.0</ele><time>2026-05-01T07:28:55Z</time></trkpt><trkpt lat="45.53767659759122" lon="9.298325702203567"><ele>132.5</ele><time>2026-05-01T07:28:56Z</time></trkpt><trkpt lat="45.537639849364034" lon="9.297996374593396"><ele>131.0</ele><time>2026-05-01T07:28:57Z</time></trkpt><trkpt lat="45.537601250524844" lon="9.297668000064176"><ele>131.0</ele><time>2026-05-01T07:28:58Z</time></trkpt><trkpt lat="45.5375665977286" lon="9.297339720199842"><ele>131.0</ele><time>2026-05-01T07:28:59Z</time></trkpt><trkpt lat="45.53752828267055" lon="9.297008028990696"><ele>132.0</ele><time>2026-05-01T07:29:00Z</time></trkpt><trkpt lat="45.537490450784574" lon="9.296678296812962"><ele>133.0</ele><time>2026-05-01T07:29:01Z</time></trkpt><trkpt lat="45.53745676764271" lon="9.29635009894991"><ele>133.5</ele><time>2026-05-01T07:29:02Z</time></trkpt><trkpt lat="45.537421049280425" lon="9.2960208052785"><ele>134.0</ele><time>2026-05-01T07:29:03Z</time></trkpt><trkpt lat="45.53738748477133" lon="9.295693750535772"><ele>137.0</ele><time>2026-05-01T07:29:04Z</time></trkpt><trkpt lat="45.53735259864714" lon="9.29536204087762"><ele>140.0</ele><time>2026-05-01T07:29:05Z</time></trkpt><trkpt lat="45.537318340098096" lon="9.295031955962918"><ele>141.0</ele><time>2026-05-01T07:29:06Z</time></trkpt><trkpt lat="45.53728177339597" lon="9.294702283166908"><ele>142.0</ele><time>2026-05-01T07:29:07Z</time></trkpt><trkpt lat="45.53724478315076" lon="9.294372206939787"><ele>142.0</ele><time>2026-05-01T07:29:08Z</time></trkpt><trkpt lat="45.53720945361025" lon="9.294045632796536"><ele>142.0</ele><time>2026-05-01T07:29:09Z</time></trkpt><trkpt lat="45.53717519941288" lon="9.293718427016678"><ele>140.5</ele><time>2026-05-01T07:29:10Z</time></trkpt><trkpt lat="45.537141624035506" lon="9.293391281411301"><ele>139.0</ele><time>2026-05-01T07:29:11Z</time></trkpt><trkpt lat="45.537107306157374" lon="9.293065794141262"><ele>137.5</ele><time>2026-05-01T07:29:12Z</time></trkpt><trkpt lat="45.53707219502783" lon="9.292740191744702"><ele>136.0</ele><time>2026-05-01T07:29:13Z</time></trkpt><trkpt lat="45.537038236528566" lon="9.292416175465167"><ele>134.0</ele><time>2026-05-01T07:29:14Z</time></trkpt><trkpt lat="45.53700237771088" lon="9.292091688225772"><ele>132.0</ele><time>2026-05-01T07:29:15Z</time></trkpt><trkpt lat="45.536968160020955" lon="9.291766181856962"><ele>132.0</ele><time>2026-05-01T07:29:16.001Z</time></trkpt><trkpt lat="45.53694039987054" lon="9.291443779546528"><ele>132.0</ele><time>2026-05-01T07:29:17.001Z</time></trkpt><trkpt lat="45.53692580627898" lon="9.29113278755563"><ele>132.0</ele><time>2026-05-01T07:29:18.001Z</time></trkpt><trkpt lat="45.536924972060355" lon="9.290822601584459"><ele>133.0</ele><time>2026-05-01T07:29:19.001Z</time></trkpt><trkpt lat="45.53693591256235" lon="9.290525808015872"><ele>134.0</ele><time>2026-05-01T07:29:20.001Z</time></trkpt><trkpt lat="45.53696328073486" lon="9.290233843990478"><ele>135.0</ele><time>2026-05-01T07:29:21.001Z</time></trkpt><trkpt lat="45.53699922589324" lon="9.289944215709381"><ele>135.33333333333334</ele><time>2026-05-01T07:29:22.001Z</time></trkpt><trkpt lat="45.53704565981034" lon="9.28965898216815"><ele>135.66666666666669</ele><time>2026-05-01T07:29:23.001Z</time></trkpt><trkpt lat="45.53710076574002" lon="9.289376697003636"><ele>136.0</ele><time>2026-05-01T07:29:24.001Z</time></trkpt><trkpt lat="45.537170254759204" lon="9.289101738521056"><ele>135.66666666666669</ele><time>2026-05-01T07:29:25.001Z</time></trkpt><trkpt lat="45.53725163090573" lon="9.288836842507713"><ele>135.33333333333334</ele><time>2026-05-01T07:29:26.001Z</time></trkpt><trkpt lat="45.53733845267057" lon="9.288588776107813"><ele>135.0</ele><time>2026-05-01T07:29:27.001Z</time></trkpt><trkpt lat="45.53742932388496" lon="9.288357123654302"><ele>135.0</ele><time>2026-05-01T07:29:28.001Z</time></trkpt><trkpt lat="45.537515375439256" lon="9.2881231866689"><ele>135.0</ele><time>2026-05-01T07:29:29.001Z</time></trkpt><trkpt lat="45.537600222306516" lon="9.287902281093183"><ele>135.0</ele><time>2026-05-01T07:29:30.001Z</time></trkpt><trkpt lat="45.537686159351104" lon="9.287675665493659"><ele>135.33333333333334</ele><time>2026-05-01T07:29:31.001Z</time></trkpt><trkpt lat="45.537768753345766" lon="9.287440224572553"><ele>135.66666666666669</ele><time>2026-05-01T07:29:32.001Z</time></trkpt><trkpt lat="45.53784071334401" lon="9.287197006706231"><ele>136.0</ele><time>2026-05-01T07:29:33.001Z</time></trkpt><trkpt lat="45.53790231461143" lon="9.286943160550553"><ele>136.33333333333334</ele><time>2026-05-01T07:29:34.001Z</time></trkpt><trkpt lat="45.537952871837646" lon="9.286678522542093"><ele>136.66666666666666</ele><time>2026-05-01T07:29:35.001Z</time></trkpt><trkpt lat="45.53799320355171" lon="9.286406975665772"><ele>137.0</ele><time>2026-05-01T07:29:36.001Z</time></trkpt><trkpt lat="45.538026107055614" lon="9.28613005001322"><ele>137.0</ele><time>2026-05-01T07:29:37.001Z</time></trkpt><trkpt lat="45.53804809283002" lon="9.28585012724462"><ele>137.0</ele><time>2026-05-01T07:29:38.001Z</time></trkpt><trkpt lat="45.53805138076992" lon="9.285565369113467"><ele>137.0</ele><time>2026-05-01T07:29:39.001Z</time></trkpt><trkpt lat="45.5380406154814" lon="9.285281370652815"><ele>137.0</ele><time>2026-05-01T07:29:40.001Z</time></trkpt><trkpt lat="45.53801749697309" lon="9.284988228109839"><ele>137.0</ele><time>2026-05-01T07:29:41.001Z</time></trkpt><trkpt lat="45.53797881590778" lon="9.284702975719549"><ele>137.0</ele><time>2026-05-01T07:29:42.001Z</time></trkpt><trkpt lat="45.537921657789795" lon="9.284423101235245"><ele>137.66666666666666</ele><time>2026-05-01T07:29:43.001Z</time></trkpt><trkpt lat="45.537851304392284" lon="9.284150186782911"><ele>138.33333333333334</ele><time>2026-05-01T07:29:44.001Z</time></trkpt><trkpt lat="45.53776692367882" lon="9.283883993829347"><ele>139.0</ele><time>2026-05-01T07:29:45.001Z</time></trkpt><trkpt lat="45.53766811589255" lon="9.283622034228591"><ele>139.0</ele><time>2026-05-01T07:29:46.001Z</time></trkpt><trkpt lat="45.53755822083394" lon="9.283374290302696"><ele>139.0</ele><time>2026-05-01T07:29:46.995Z</time></trkpt><trkpt lat="45.537436447106884" lon="9.283130568389952"><ele>139.0</ele><time>2026-05-01T07:29:47.995Z</time></trkpt><trkpt lat="45.53731079798292" lon="9.282888979949554"><ele>139.0</ele><time>2026-05-01T07:29:48.995Z</time></trkpt><trkpt lat="45.53718207692913" lon="9.282646494757918"><ele>139.0</ele><time>2026-05-01T07:29:49.995Z</time></trkpt><trkpt lat="45.53705434748391" lon="9.282401355643545"><ele>139.0</ele><time>2026-05-01T07:29:50.995Z</time></trkpt><trkpt lat="45.536926160370854" lon="9.282150598012905"><ele>138.66666666666669</ele><time>2026-05-01T07:29:51.995Z</time></trkpt><trkpt lat="45.53679930607046" lon="9.281893077868823"><ele>138.33333333333334</ele><time>2026-05-01T07:29:52.995Z</time></trkpt><trkpt lat="45.53666823600453" lon="9.281635440803663"><ele>138.0</ele><time>2026-05-01T07:29:53.996Z</time></trkpt><trkpt lat="45.536541061687686" lon="9.281373609367895"><ele>138.0</ele><time>2026-05-01T07:29:54.996Z</time></trkpt><trkpt lat="45.53641095746374" lon="9.28111015020495"><ele>138.0</ele><time>2026-05-01T07:29:55.996Z</time></trkpt><trkpt lat="45.53628194834678" lon="9.280849661372933"><ele>138.0</ele><time>2026-05-01T07:29:56.996Z</time></trkpt><trkpt lat="45.536152001411274" lon="9.28058729479381"><ele>137.5</ele><time>2026-05-01T07:29:57.996Z</time></trkpt><trkpt lat="45.536021974293455" lon="9.280323634106162"><ele>137.0</ele><time>2026-05-01T07:29:58.996Z</time></trkpt><trkpt lat="45.53589136306616" lon="9.280056418517306"><ele>137.0</ele><time>2026-05-01T07:29:59.996Z</time></trkpt><trkpt lat="45.53576002850766" lon="9.279789857460655"><ele>137.0</ele><time>2026-05-01T07:30:00.996Z</time></trkpt><trkpt lat="45.5356294494654" lon="9.279520582528466"><ele>136.5</ele><time>2026-05-01T07:30:01.996Z</time></trkpt><trkpt lat="45.535496867831014" lon="9.279249290721992"><ele>136.0</ele><time>2026-05-01T07:30:02.997Z</time></trkpt><trkpt lat="45.53536537012121" lon="9.278978319196366"><ele>136.5</ele><time>2026-05-01T07:30:03.997Z</time></trkpt><trkpt lat="45.535232158639914" lon="9.278709348502533"><ele>137.0</ele><time>2026-05-01T07:30:04.997Z</time></trkpt><trkpt lat="45.535099726919846" lon="9.278432824532127"><ele>137.0</ele><time>2026-05-01T07:30:05.997Z</time></trkpt><trkpt lat="45.53496987489849" lon="9.278156723558222"><ele>137.0</ele><time>2026-05-01T07:30:06.997Z</time></trkpt><trkpt lat="45.53484231144508" lon="9.27788093647297"><ele>138.0</ele><time>2026-05-01T07:30:07.997Z</time></trkpt><trkpt lat="45.53471413755442" lon="9.277605693486167"><ele>139.0</ele><time>2026-05-01T07:30:08.997Z</time></trkpt><trkpt lat="45.53458637820134" lon="9.277322447882867"><ele>137.0</ele><time>2026-05-01T07:30:09.997Z</time></trkpt><trkpt lat="45.53445761993058" lon="9.277046681996246"><ele>135.0</ele><time>2026-05-01T07:30:10.998Z</time></trkpt><trkpt lat="45.53432356301835" lon="9.276766488447716"><ele>135.0</ele><time>2026-05-01T07:30:11.998Z</time></trkpt><trkpt lat="45.53419471822331" lon="9.276492000906215"><ele>135.0</ele><time>2026-05-01T07:30:12.998Z</time></trkpt><trkpt lat="45.534066724016064" lon="9.276217500661067"><ele>135.5</ele><time>2026-05-01T07:30:13.998Z</time></trkpt><trkpt lat="45.533939330625564" lon="9.27594459335686"><ele>136.0</ele><time>2026-05-01T07:30:14.998Z</time></trkpt><trkpt lat="45.53381361950343" lon="9.275671836833384"><ele>136.0</ele><time>2026-05-01T07:30:15.998Z</time></trkpt><trkpt lat="45.5336870797167" lon="9.275397656612055"><ele>136.0</ele><time>2026-05-01T07:30:16.998Z</time></trkpt><trkpt lat="45.5335588946549" lon="9.275127744951645"><ele>136.0</ele><time>2026-05-01T07:30:17.998Z</time></trkpt><trkpt lat="45.533428524886176" lon="9.274860278731403"><ele>136.0</ele><time>2026-05-01T07:30:18.998Z</time></trkpt><trkpt lat="45.5332986072798" lon="9.274593738541395"><ele>136.5</ele><time>2026-05-01T07:30:19.998Z</time></trkpt><trkpt lat="45.53316961593925" lon="9.274323965788312"><ele>137.0</ele><time>2026-05-01T07:30:20.998Z</time></trkpt><trkpt lat="45.53304127074038" lon="9.274057589942746"><ele>137.5</ele><time>2026-05-01T07:30:21.998Z</time></trkpt><trkpt lat="45.532913919377826" lon="9.273787433214293"><ele>138.0</ele><time>2026-05-01T07:30:22.998Z</time></trkpt><trkpt lat="45.532785382257245" lon="9.273519294131324"><ele>137.0</ele><time>2026-05-01T07:30:23.998Z</time></trkpt><trkpt lat="45.53265634825736" lon="9.273253511618352"><ele>136.0</ele><time>2026-05-01T07:30:24.999Z</time></trkpt><trkpt lat="45.53252578688684" lon="9.272987191755625"><ele>135.5</ele><time>2026-05-01T07:30:25.999Z</time></trkpt><trkpt lat="45.53239438848565" lon="9.272722059265842"><ele>135.0</ele><time>2026-05-01T07:30:26.999Z</time></trkpt><trkpt lat="45.53226183763774" lon="9.272458782451169"><ele>136.0</ele><time>2026-05-01T07:30:27.999Z</time></trkpt><trkpt lat="45.53213079193949" lon="9.272193374281494"><ele>137.0</ele><time>2026-05-01T07:30:28.999Z</time></trkpt><trkpt lat="45.53200223668344" lon="9.271928575170568"><ele>136.0</ele><time>2026-05-01T07:30:29.999Z</time></trkpt><trkpt lat="45.53187383931834" lon="9.271661743569402"><ele>135.0</ele><time>2026-05-01T07:30:30.999Z</time></trkpt><trkpt lat="45.53174461787382" lon="9.271395500066076"><ele>135.0</ele><time>2026-05-01T07:30:31.999Z</time></trkpt><trkpt lat="45.5316146127081" lon="9.271131206979547"><ele>135.0</ele><time>2026-05-01T07:30:32.999Z</time></trkpt><trkpt lat="45.53148497316888" lon="9.270863222688538"><ele>136.5</ele><time>2026-05-01T07:30:33.999Z</time></trkpt><trkpt lat="45.53135405663905" lon="9.270594297576796"><ele>138.0</ele><time>2026-05-01T07:30:34.999Z</time></trkpt><trkpt lat="45.53122576000357" lon="9.270325333633537"><ele>137.5</ele><time>2026-05-01T07:30:35.999Z</time></trkpt><trkpt lat="45.531096821512925" lon="9.27005716881412"><ele>137.0</ele><time>2026-05-01T07:30:36.999Z</time></trkpt><trkpt lat="45.530963883268264" lon="9.269775052152653"><ele>137.0</ele><time>2026-05-01T07:30:37.999Z</time></trkpt><trkpt lat="45.530832266113165" lon="9.269502882183597"><ele>137.0</ele><time>2026-05-01T07:30:38.999Z</time></trkpt><trkpt lat="45.530707063099854" lon="9.269239439085245"><ele>137.0</ele><time>2026-05-01T07:30:39.999Z</time></trkpt><trkpt lat="45.53058045309065" lon="9.268976968696517"><ele>137.0</ele><time>2026-05-01T07:30:40.999Z</time></trkpt><trkpt lat="45.53045172561103" lon="9.268718472542417"><ele>137.0</ele><time>2026-05-01T07:30:41.999Z</time></trkpt><trkpt lat="45.530317528656354" lon="9.268465500870194"><ele>136.66666666666666</ele><time>2026-05-01T07:30:42.999Z</time></trkpt><trkpt lat="45.5301778332604" lon="9.268222150591964"><ele>136.33333333333334</ele><time>2026-05-01T07:30:43.999Z</time></trkpt><trkpt lat="45.530032903927236" lon="9.26799166886798"><ele>136.0</ele><time>2026-05-01T07:30:44.999Z</time></trkpt><trkpt lat="45.529879833878425" lon="9.267771384649986"><ele>136.33333333333334</ele><time>2026-05-01T07:30:45.999Z</time></trkpt><trkpt lat="45.5297196379306" lon="9.267558586056795"><ele>136.66666666666666</ele><time>2026-05-01T07:30:46.999Z</time></trkpt><trkpt lat="45.52955370759209" lon="9.267358103043986"><ele>137.0</ele><time>2026-05-01T07:30:48Z</time></trkpt><trkpt lat="45.529383198795635" lon="9.26716913552906"><ele>136.0</ele><time>2026-05-01T07:30:49Z</time></trkpt><trkpt lat="45.52920783756655" lon="9.266993526365933"><ele>135.0</ele><time>2026-05-01T07:30:50Z</time></trkpt><trkpt lat="45.529026613888476" lon="9.26683161652654"><ele>134.0</ele><time>2026-05-01T07:30:51Z</time></trkpt><trkpt lat="45.52884024567045" lon="9.266677857074743"><ele>134.66666666666666</ele><time>2026-05-01T07:30:52Z</time></trkpt><trkpt lat="45.52865140527948" lon="9.266531784632974"><ele>135.33333333333334</ele><time>2026-05-01T07:30:53Z</time></trkpt><trkpt lat="45.528462472823016" lon="9.266383826031381"><ele>136.0</ele><time>2026-05-01T07:30:54Z</time></trkpt><trkpt lat="45.52827310893113" lon="9.266237446616277"><ele>136.66666666666669</ele><time>2026-05-01T07:30:55Z</time></trkpt><trkpt lat="45.52808493986935" lon="9.26609059933224"><ele>137.33333333333334</ele><time>2026-05-01T07:30:56Z</time></trkpt><trkpt lat="45.527898309012194" lon="9.265939731500104"><ele>138.0</ele><time>2026-05-01T07:30:57Z</time></trkpt><trkpt lat="45.52771143936397" lon="9.265782489046506"><ele>138.0</ele><time>2026-05-01T07:30:58Z</time></trkpt><trkpt lat="45.52753127581065" lon="9.265614690399675"><ele>138.0</ele><time>2026-05-01T07:30:59Z</time></trkpt><trkpt lat="45.527360960435836" lon="9.26543536098073"><ele>138.0</ele><time>2026-05-01T07:31:00Z</time></trkpt><trkpt lat="45.527196276585094" lon="9.265236639998427"><ele>137.66666666666666</ele><time>2026-05-01T07:31:01Z</time></trkpt><trkpt lat="45.52703660622088" lon="9.265039856637845"><ele>137.33333333333331</ele><time>2026-05-01T07:31:02Z</time></trkpt><trkpt lat="45.526885349403" lon="9.264828208426852"><ele>137.0</ele><time>2026-05-01T07:31:03Z</time></trkpt><trkpt lat="45.52674988014092" lon="9.264604034076301"><ele>137.0</ele><time>2026-05-01T07:31:04Z</time></trkpt><trkpt lat="45.52662519307094" lon="9.26437027822216"><ele>137.0</ele><time>2026-05-01T07:31:05Z</time></trkpt><trkpt lat="45.526511692802345" lon="9.264123913273865"><ele>137.0</ele><time>2026-05-01T07:31:06Z</time></trkpt><trkpt lat="45.52640394096754" lon="9.26387131322999"><ele>136.66666666666666</ele><time>2026-05-01T07:31:07Z</time></trkpt><trkpt lat="45.5263060946449" lon="9.263607633444996"><ele>136.33333333333334</ele><time>2026-05-01T07:31:08Z</time></trkpt><trkpt lat="45.526216706140694" lon="9.263337829476345"><ele>136.0</ele><time>2026-05-01T07:31:09Z</time></trkpt><trkpt lat="45.526129271595074" lon="9.263060433164775"><ele>135.0</ele><time>2026-05-01T07:31:10Z</time></trkpt><trkpt lat="45.52603277032728" lon="9.262785538770935"><ele>134.0</ele><time>2026-05-01T07:31:11Z</time></trkpt><trkpt lat="45.52592627985864" lon="9.262523143202756"><ele>133.0</ele><time>2026-05-01T07:31:12Z</time></trkpt><trkpt lat="45.52580732231791" lon="9.262267779685807"><ele>133.0</ele><time>2026-05-01T07:31:13Z</time></trkpt><trkpt lat="45.52567724360787" lon="9.262025129482977"><ele>133.0</ele><time>2026-05-01T07:31:14Z</time></trkpt><trkpt lat="45.52553370318021" lon="9.26179302452431"><ele>133.0</ele><time>2026-05-01T07:31:15Z</time></trkpt><trkpt lat="45.525377180342126" lon="9.261575654691194"><ele>131.66666666666669</ele><time>2026-05-01T07:31:16Z</time></trkpt><trkpt lat="45.52520928874553" lon="9.261373097725668"><ele>130.33333333333334</ele><time>2026-05-01T07:31:17Z</time></trkpt><trkpt lat="45.52503200518119" lon="9.261184013643495"><ele>129.0</ele><time>2026-05-01T07:31:18Z</time></trkpt><trkpt lat="45.52484675543931" lon="9.261012677762636"><ele>129.0</ele><time>2026-05-01T07:31:19.001Z</time></trkpt><trkpt lat="45.52465510119849" lon="9.260864429831802"><ele>129.0</ele><time>2026-05-01T07:31:20.001Z</time></trkpt><trkpt lat="45.52445955833368" lon="9.260737847060796"><ele>129.0</ele><time>2026-05-01T07:31:21.001Z</time></trkpt><trkpt lat="45.524261917747815" lon="9.260631989483622"><ele>129.33333333333334</ele><time>2026-05-01T07:31:22.001Z</time></trkpt><trkpt lat="45.52406099749236" lon="9.260542003023934"><ele>129.66666666666669</ele><time>2026-05-01T07:31:23.001Z</time></trkpt><trkpt lat="45.5238578130397" lon="9.260469153878898"><ele>130.0</ele><time>2026-05-01T07:31:24.001Z</time></trkpt><trkpt lat="45.52365296000911" lon="9.26041330497879"><ele>130.0</ele><time>2026-05-01T07:31:25.001Z</time></trkpt><trkpt lat="45.52344820849363" lon="9.260373402421148"><ele>130.0</ele><time>2026-05-01T07:31:26.001Z</time></trkpt><trkpt lat="45.523242533278804" lon="9.260358133040405"><ele>130.0</ele><time>2026-05-01T07:31:27.001Z</time></trkpt><trkpt lat="45.52303758657006" lon="9.260359738478114"><ele>129.33333333333334</ele><time>2026-05-01T07:31:28.001Z</time></trkpt><trkpt lat="45.52283556366847" lon="9.260380701577883"><ele>128.66666666666666</ele><time>2026-05-01T07:31:29.001Z</time></trkpt><trkpt lat="45.52263421361562" lon="9.260415275432413"><ele>128.0</ele><time>2026-05-01T07:31:30.001Z</time></trkpt><trkpt lat="45.52243397009866" lon="9.260467581565932"><ele>128.0</ele><time>2026-05-01T07:31:31.001Z</time></trkpt><trkpt lat="45.522235820018096" lon="9.260527116033495"><ele>128.0</ele><time>2026-05-01T07:31:32.001Z</time></trkpt><trkpt lat="45.52203197307311" lon="9.260589718632817"><ele>128.0</ele><time>2026-05-01T07:31:33.001Z</time></trkpt><trkpt lat="45.52182990614714" lon="9.260653744971094"><ele>128.33333333333331</ele><time>2026-05-01T07:31:34.001Z</time></trkpt><trkpt lat="45.52162624554238" lon="9.260715868261478"><ele>128.66666666666666</ele><time>2026-05-01T07:31:35.001Z</time></trkpt><trkpt lat="45.521421872749805" lon="9.260778124622576"><ele>129.0</ele><time>2026-05-01T07:31:36.001Z</time></trkpt><trkpt lat="45.52121763791039" lon="9.260839172294991"><ele>129.0</ele><time>2026-05-01T07:31:37.001Z</time></trkpt><trkpt lat="45.52101169372072" lon="9.26089897368267"><ele>129.0</ele><time>2026-05-01T07:31:38.001Z</time></trkpt><trkpt lat="45.520805902051144" lon="9.260959496292184"><ele>129.0</ele><time>2026-05-01T07:31:39.001Z</time></trkpt><trkpt lat="45.52059942361167" lon="9.261015485112084"><ele>129.33333333333334</ele><time>2026-05-01T07:31:40.001Z</time></trkpt><trkpt lat="45.52038827942528" lon="9.261065014417232"><ele>129.66666666666669</ele><time>2026-05-01T07:31:41.001Z</time></trkpt><trkpt lat="45.52017766264503" lon="9.26111077045697"><ele>130.0</ele><time>2026-05-01T07:31:42.001Z</time></trkpt><trkpt lat="45.51996846100538" lon="9.26115694463199"><ele>130.0</ele><time>2026-05-01T07:31:43.001Z</time></trkpt><trkpt lat="45.519753741737034" lon="9.261197430607819"><ele>130.0</ele><time>2026-05-01T07:31:44.001Z</time></trkpt><trkpt lat="45.51953846854131" lon="9.261237498658357"><ele>130.0</ele><time>2026-05-01T07:31:45.001Z</time></trkpt><trkpt lat="45.519324797753995" lon="9.261275701861885"><ele>129.0</ele><time>2026-05-01T07:31:46.001Z</time></trkpt><trkpt lat="45.51910851606453" lon="9.261313729114244"><ele>128.0</ele><time>2026-05-01T07:31:47.001Z</time></trkpt><trkpt lat="45.51889195331486" lon="9.26134866895555"><ele>127.0</ele><time>2026-05-01T07:31:48.001Z</time></trkpt><trkpt lat="45.518675008991295" lon="9.261383698966545"><ele>127.0</ele><time>2026-05-01T07:31:49.001Z</time></trkpt><trkpt lat="45.518456683022734" lon="9.261419766383614"><ele>127.0</ele><time>2026-05-01T07:31:50.001Z</time></trkpt><trkpt lat="45.518236818753955" lon="9.261452816788927"><ele>127.0</ele><time>2026-05-01T07:31:51.001Z</time></trkpt><trkpt lat="45.51801901934638" lon="9.261482570386512"><ele>125.66666666666667</ele><time>2026-05-01T07:31:52.002Z</time></trkpt><trkpt lat="45.51780062878502" lon="9.261505242248347"><ele>124.33333333333334</ele><time>2026-05-01T07:31:52.995Z</time></trkpt><trkpt lat="45.51757934177216" lon="9.261523785951612"><ele>123.0</ele><time>2026-05-01T07:31:53.996Z</time></trkpt><trkpt lat="45.5173562501991" lon="9.261535596252278"><ele>123.0</ele><time>2026-05-01T07:31:54.996Z</time></trkpt><trkpt lat="45.51713505099098" lon="9.261542604724564"><ele>123.0</ele><time>2026-05-01T07:31:55.996Z</time></trkpt><trkpt lat="45.516914836946974" lon="9.261546870906864"><ele>123.0</ele><time>2026-05-01T07:31:56.996Z</time></trkpt><trkpt lat="45.516694979909055" lon="9.2615430314381"><ele>123.66666666666666</ele><time>2026-05-01T07:31:57.997Z</time></trkpt><trkpt lat="45.516474941954414" lon="9.261535246197116"><ele>124.33333333333333</ele><time>2026-05-01T07:31:58.997Z</time></trkpt><trkpt lat="45.516256538902425" lon="9.261525400907754"><ele>125.0</ele><time>2026-05-01T07:31:59.997Z</time></trkpt><trkpt lat="45.51604158224244" lon="9.261507922588576"><ele>125.66666666666666</ele><time>2026-05-01T07:32:00.997Z</time></trkpt><trkpt lat="45.51582834002084" lon="9.261484435043064"><ele>126.33333333333334</ele><time>2026-05-01T07:32:01.997Z</time></trkpt><trkpt lat="45.51562206986564" lon="9.261460776421314"><ele>127.0</ele><time>2026-05-01T07:32:02.997Z</time></trkpt><trkpt lat="45.51542548337663" lon="9.261437800123904"><ele>126.0</ele><time>2026-05-01T07:32:03.998Z</time></trkpt><trkpt lat="45.51523601894545" lon="9.2614159560617"><ele>125.0</ele><time>2026-05-01T07:32:04.998Z</time></trkpt><trkpt lat="45.51505552383432" lon="9.261395204248013"><ele>124.0</ele><time>2026-05-01T07:32:05.998Z</time></trkpt><trkpt lat="45.51487615064146" lon="9.261375317025786"><ele>124.0</ele><time>2026-05-01T07:32:06.998Z</time></trkpt><trkpt lat="45.514698392799886" lon="9.261358085922668"><ele>124.0</ele><time>2026-05-01T07:32:07.998Z</time></trkpt><trkpt lat="45.51452185211263" lon="9.261341657993038"><ele>124.0</ele><time>2026-05-01T07:32:08.998Z</time></trkpt><trkpt lat="45.51434670194938" lon="9.261324818071836"><ele>125.33333333333334</ele><time>2026-05-01T07:32:09.998Z</time></trkpt><trkpt lat="45.51416723484124" lon="9.26131256602711"><ele>126.66666666666666</ele><time>2026-05-01T07:32:10.999Z</time></trkpt><trkpt lat="45.51399361708974" lon="9.261300144832411"><ele>128.0</ele><time>2026-05-01T07:32:11.999Z</time></trkpt><trkpt lat="45.51382025628063" lon="9.261292059763033"><ele>129.66666666666666</ele><time>2026-05-01T07:32:12.999Z</time></trkpt><trkpt lat="45.51364665240418" lon="9.261289200066281"><ele>131.33333333333334</ele><time>2026-05-01T07:32:13.999Z</time></trkpt><trkpt lat="45.51347035164116" lon="9.26129444116811"><ele>133.0</ele><time>2026-05-01T07:32:14.999Z</time></trkpt><trkpt lat="45.51329269458463" lon="9.261305252227718"><ele>133.0</ele><time>2026-05-01T07:32:15.999Z</time></trkpt><trkpt lat="45.51311489307766" lon="9.261312974847987"><ele>133.0</ele><time>2026-05-01T07:32:16.999Z</time></trkpt><trkpt lat="45.5129332141111" lon="9.26132123152059"><ele>133.0</ele><time>2026-05-01T07:32:17.999Z</time></trkpt><trkpt lat="45.51275130969818" lon="9.261331680675847"><ele>131.66666666666669</ele><time>2026-05-01T07:32:18.999Z</time></trkpt><trkpt lat="45.51257521472136" lon="9.26134270807249"><ele>130.33333333333334</ele><time>2026-05-01T07:32:20Z</time></trkpt><trkpt lat="45.51240025321434" lon="9.261351130073137"><ele>129.0</ele><time>2026-05-01T07:32:21Z</time></trkpt><trkpt lat="45.5122237697381" lon="9.261363370509438"><ele>128.33333333333334</ele><time>2026-05-01T07:32:22Z</time></trkpt><trkpt lat="45.51205067942784" lon="9.261380513218674"><ele>127.66666666666667</ele><time>2026-05-01T07:32:23Z</time></trkpt><trkpt lat="45.51187634856681" lon="9.261395037027924"><ele>127.0</ele><time>2026-05-01T07:32:24Z</time></trkpt><trkpt lat="45.51169747296755" lon="9.261418286559305"><ele>127.33333333333334</ele><time>2026-05-01T07:32:25Z</time></trkpt><trkpt lat="45.51151588754911" lon="9.261449652567002"><ele>127.66666666666666</ele><time>2026-05-01T07:32:26Z</time></trkpt><trkpt lat="45.51133192523046" lon="9.261492276514291"><ele>128.0</ele><time>2026-05-01T07:32:27Z</time></trkpt><trkpt lat="45.51113953519135" lon="9.261547519556473"><ele>127.0</ele><time>2026-05-01T07:32:28Z</time></trkpt><trkpt lat="45.51094492936653" lon="9.261607344851816"><ele>126.0</ele><time>2026-05-01T07:32:29Z</time></trkpt><trkpt lat="45.51075230182872" lon="9.261671347144388"><ele>125.0</ele><time>2026-05-01T07:32:30Z</time></trkpt><trkpt lat="45.51055363647623" lon="9.261731651798959"><ele>125.0</ele><time>2026-05-01T07:32:31Z</time></trkpt><trkpt lat="45.510355735667204" lon="9.261770438289942"><ele>125.0</ele><time>2026-05-01T07:32:32Z</time></trkpt><trkpt lat="45.51015426305737" lon="9.261788138858012"><ele>125.0</ele><time>2026-05-01T07:32:33Z</time></trkpt><trkpt lat="45.509954172180926" lon="9.261786487589996"><ele>125.0</ele><time>2026-05-01T07:32:34.001Z</time></trkpt><trkpt lat="45.50975414623303" lon="9.261772600289735"><ele>125.0</ele><time>2026-05-01T07:32:35.001Z</time></trkpt><trkpt lat="45.50954966808669" lon="9.261750041007472"><ele>125.0</ele><time>2026-05-01T07:32:36.001Z</time></trkpt><trkpt lat="45.50932969098518" lon="9.261709829785167"><ele>124.5</ele><time>2026-05-01T07:32:37.001Z</time></trkpt><trkpt lat="45.509103035214146" lon="9.26164815777634"><ele>124.0</ele><time>2026-05-01T07:32:38.001Z</time></trkpt><trkpt lat="45.50887719712767" lon="9.26156094889746"><ele>124.5</ele><time>2026-05-01T07:32:39.001Z</time></trkpt><trkpt lat="45.508648214501775" lon="9.261454209496684"><ele>125.0</ele><time>2026-05-01T07:32:40.001Z</time></trkpt><trkpt lat="45.508422393767" lon="9.261318507168367"><ele>124.0</ele><time>2026-05-01T07:32:41.001Z</time></trkpt><trkpt lat="45.50820086906633" lon="9.261163370455092"><ele>123.0</ele><time>2026-05-01T07:32:42.001Z</time></trkpt><trkpt lat="45.50798582781226" lon="9.26098969094218"><ele>123.5</ele><time>2026-05-01T07:32:43.001Z</time></trkpt><trkpt lat="45.507763914907585" lon="9.260814495011092"><ele>124.0</ele><time>2026-05-01T07:32:44.001Z</time></trkpt><trkpt lat="45.507532868726436" lon="9.26063706822037"><ele>124.0</ele><time>2026-05-01T07:32:45.001Z</time></trkpt><trkpt lat="45.507300577237636" lon="9.26046419866692"><ele>124.0</ele><time>2026-05-01T07:32:46.001Z</time></trkpt><trkpt lat="45.50706946644773" lon="9.260288615540862"><ele>123.5</ele><time>2026-05-01T07:32:47.001Z</time></trkpt><trkpt lat="45.50683883268151" lon="9.260113917102753"><ele>123.0</ele><time>2026-05-01T07:32:48.001Z</time></trkpt><trkpt lat="45.506608590415425" lon="9.259940509406114"><ele>123.0</ele><time>2026-05-01T07:32:49.001Z</time></trkpt><trkpt lat="45.506377994684264" lon="9.259772189507306"><ele>123.0</ele><time>2026-05-01T07:32:50.001Z</time></trkpt><trkpt lat="45.50615531992958" lon="9.259592028847523"><ele>122.0</ele><time>2026-05-01T07:32:51.001Z</time></trkpt><trkpt lat="45.505932576585366" lon="9.259408539002244"><ele>121.0</ele><time>2026-05-01T07:32:52.001Z</time></trkpt><trkpt lat="45.50571060580405" lon="9.259227742227903"><ele>121.0</ele><time>2026-05-01T07:32:53.001Z</time></trkpt><trkpt lat="45.50549009335039" lon="9.259047617782407"><ele>121.0</ele><time>2026-05-01T07:32:54.001Z</time></trkpt><trkpt lat="45.505274672884305" lon="9.258866926852757"><ele>122.0</ele><time>2026-05-01T07:32:55.001Z</time></trkpt><trkpt lat="45.50506070526892" lon="9.2586930378296"><ele>123.0</ele><time>2026-05-01T07:32:56.001Z</time></trkpt><trkpt lat="45.50484439017437" lon="9.258523710980704"><ele>123.0</ele><time>2026-05-01T07:32:57.001Z</time></trkpt><trkpt lat="45.50462871149047" lon="9.258353920935797"><ele>123.0</ele><time>2026-05-01T07:32:58.002Z</time></trkpt><trkpt lat="45.50441097888569" lon="9.25818585768562"><ele>121.0</ele><time>2026-05-01T07:32:59.002Z</time></trkpt><trkpt lat="45.50419413609381" lon="9.25801778626082"><ele>119.0</ele><time>2026-05-01T07:33:00.002Z</time></trkpt><trkpt lat="45.50397625161785" lon="9.257853016900265"><ele>119.0</ele><time>2026-05-01T07:33:01.002Z</time></trkpt><trkpt lat="45.50375989453353" lon="9.257688572016194"><ele>119.0</ele><time>2026-05-01T07:33:02.002Z</time></trkpt><trkpt lat="45.50354494381137" lon="9.257522000858692"><ele>119.5</ele><time>2026-05-01T07:33:03.002Z</time></trkpt><trkpt lat="45.503334866311135" lon="9.257359805276336"><ele>120.0</ele><time>2026-05-01T07:33:04.002Z</time></trkpt><trkpt lat="45.50312904562325" lon="9.257195340527325"><ele>120.0</ele><time>2026-05-01T07:33:05.002Z</time></trkpt><trkpt lat="45.50292753262576" lon="9.257036937187166"><ele>120.0</ele><time>2026-05-01T07:33:06.002Z</time></trkpt><trkpt lat="45.50272592976323" lon="9.256878146574634"><ele>120.0</ele><time>2026-05-01T07:33:07.002Z</time></trkpt><trkpt lat="45.502523553964394" lon="9.256721166548367"><ele>120.0</ele><time>2026-05-01T07:33:08.002Z</time></trkpt><trkpt lat="45.50232217661819" lon="9.256566848764932"><ele>120.0</ele><time>2026-05-01T07:33:09.002Z</time></trkpt><trkpt lat="45.502120963528846" lon="9.25641713939952"><ele>120.0</ele><time>2026-05-01T07:33:10.002Z</time></trkpt><trkpt lat="45.50192254217797" lon="9.256271451376168"><ele>120.66666666666666</ele><time>2026-05-01T07:33:11.002Z</time></trkpt><trkpt lat="45.501722919228065" lon="9.256129734035792"><ele>121.33333333333333</ele><time>2026-05-01T07:33:12.002Z</time></trkpt><trkpt lat="45.50151849622789" lon="9.256000272213987"><ele>122.0</ele><time>2026-05-01T07:33:13.002Z</time></trkpt><trkpt lat="45.50130853702871" lon="9.25588163963325"><ele>121.5</ele><time>2026-05-01T07:33:14.002Z</time></trkpt><trkpt lat="45.50109341079395" lon="9.255782154180727"><ele>121.0</ele><time>2026-05-01T07:33:15.002Z</time></trkpt><trkpt lat="45.50087212071534" lon="9.25569274056679"><ele>121.0</ele><time>2026-05-01T07:33:16.002Z</time></trkpt><trkpt lat="45.50064896578286" lon="9.255618808167602"><ele>121.0</ele><time>2026-05-01T07:33:17.002Z</time></trkpt><trkpt lat="45.50042341590765" lon="9.255553535081201"><ele>121.0</ele><time>2026-05-01T07:33:18.002Z</time></trkpt><trkpt lat="45.500193078663465" lon="9.255497130119942"><ele>121.0</ele><time>2026-05-01T07:33:19.002Z</time></trkpt><trkpt lat="45.49995664953507" lon="9.255456546322169"><ele>121.0</ele><time>2026-05-01T07:33:20.002Z</time></trkpt><trkpt lat="45.49971398891874" lon="9.25542482311162"><ele>121.0</ele><time>2026-05-01T07:33:21.002Z</time></trkpt><trkpt lat="45.49946763803876" lon="9.25539467331497"><ele>122.0</ele><time>2026-05-01T07:33:22.002Z</time></trkpt><trkpt lat="45.49921823936482" lon="9.255367744565667"><ele>123.0</ele><time>2026-05-01T07:33:23.002Z</time></trkpt><trkpt lat="45.49896788889609" lon="9.255340497962223"><ele>124.5</ele><time>2026-05-01T07:33:24.002Z</time></trkpt><trkpt lat="45.49871465587351" lon="9.255308129652695"><ele>126.0</ele><time>2026-05-01T07:33:25.002Z</time></trkpt><trkpt lat="45.498460151481254" lon="9.255274660413669"><ele>126.0</ele><time>2026-05-01T07:33:26.002Z</time></trkpt><trkpt lat="45.49820399733535" lon="9.255246274174574"><ele>126.0</ele><time>2026-05-01T07:33:27.002Z</time></trkpt><trkpt lat="45.49794945585244" lon="9.255219668896983"><ele>125.0</ele><time>2026-05-01T07:33:28.002Z</time></trkpt><trkpt lat="45.497694762227745" lon="9.255191089765598"><ele>124.0</ele><time>2026-05-01T07:33:29.003Z</time></trkpt><trkpt lat="45.497440632143864" lon="9.25516275513288"><ele>124.0</ele><time>2026-05-01T07:33:30.003Z</time></trkpt><trkpt lat="45.49718721639066" lon="9.255133065537146"><ele>124.0</ele><time>2026-05-01T07:33:31.003Z</time></trkpt><trkpt lat="45.49693895038187" lon="9.255098044976686"><ele>121.5</ele><time>2026-05-01T07:33:32.003Z</time></trkpt><trkpt lat="45.496692648849894" lon="9.255051579200012"><ele>119.0</ele><time>2026-05-01T07:33:33.003Z</time></trkpt><trkpt lat="45.496451576507475" lon="9.254977642675387"><ele>121.0</ele><time>2026-05-01T07:33:34.003Z</time></trkpt><trkpt lat="45.496213218246766" lon="9.2548901434587"><ele>123.0</ele><time>2026-05-01T07:33:35.003Z</time></trkpt><trkpt lat="45.49597670811725" lon="9.254787937151054"><ele>124.0</ele><time>2026-05-01T07:33:36.003Z</time></trkpt><trkpt lat="45.49574028185598" lon="9.254670325631764"><ele>125.0</ele><time>2026-05-01T07:33:37.003Z</time></trkpt><trkpt lat="45.49550763892862" lon="9.254541587949388"><ele>122.5</ele><time>2026-05-01T07:33:38.003Z</time></trkpt><trkpt lat="45.49527533396488" lon="9.25440246178923"><ele>120.0</ele><time>2026-05-01T07:33:39.003Z</time></trkpt><trkpt lat="45.49504534596036" lon="9.254258535082359"><ele>120.0</ele><time>2026-05-01T07:33:40.003Z</time></trkpt><trkpt lat="45.49481680740203" lon="9.254114947496717"><ele>120.0</ele><time>2026-05-01T07:33:41.003Z</time></trkpt><trkpt lat="45.49459033298519" lon="9.253973116431512"><ele>119.0</ele><time>2026-05-01T07:33:42.003Z</time></trkpt><trkpt lat="45.49436452598955" lon="9.253829659951256"><ele>118.0</ele><time>2026-05-01T07:33:43.003Z</time></trkpt><trkpt lat="45.49413819182638" lon="9.253684926298645"><ele>118.0</ele><time>2026-05-01T07:33:44.003Z</time></trkpt><trkpt lat="45.49391489956428" lon="9.253540174798275"><ele>118.0</ele><time>2026-05-01T07:33:45.003Z</time></trkpt><trkpt lat="45.49369296230395" lon="9.253396623423326"><ele>119.5</ele><time>2026-05-01T07:33:46.003Z</time></trkpt><trkpt lat="45.49346955206173" lon="9.253252426982929"><ele>121.0</ele><time>2026-05-01T07:33:47.003Z</time></trkpt><trkpt lat="45.49324487535782" lon="9.253108779751198"><ele>121.0</ele><time>2026-05-01T07:33:48.003Z</time></trkpt><trkpt lat="45.49301877203338" lon="9.252966905695684"><ele>121.0</ele><time>2026-05-01T07:33:49.003Z</time></trkpt><trkpt lat="45.49278944166699" lon="9.252831390609536"><ele>121.0</ele><time>2026-05-01T07:33:50.003Z</time></trkpt><trkpt lat="45.492559393722" lon="9.252704244714883"><ele>121.0</ele><time>2026-05-01T07:33:51.003Z</time></trkpt><trkpt lat="45.49232781133507" lon="9.252582495550904"><ele>121.0</ele><time>2026-05-01T07:33:52.003Z</time></trkpt><trkpt lat="45.49209343400627" lon="9.252464296480648"><ele>121.0</ele><time>2026-05-01T07:33:53.003Z</time></trkpt><trkpt lat="45.49185999935098" lon="9.25235147182568"><ele>122.5</ele><time>2026-05-01T07:33:54.003Z</time></trkpt><trkpt lat="45.491625948763414" lon="9.25224637680605"><ele>124.0</ele><time>2026-05-01T07:33:55.003Z</time></trkpt><trkpt lat="45.49138988528638" lon="9.252146689791402"><ele>125.0</ele><time>2026-05-01T07:33:56.003Z</time></trkpt><trkpt lat="45.49115113661377" lon="9.252055454078693"><ele>126.0</ele><time>2026-05-01T07:33:57.003Z</time></trkpt><trkpt lat="45.49090863527099" lon="9.25197633500838"><ele>126.0</ele><time>2026-05-01T07:33:58.003Z</time></trkpt><trkpt lat="45.49066643385689" lon="9.251911110333541"><ele>126.0</ele><time>2026-05-01T07:33:58.997Z</time></trkpt><trkpt lat="45.49042464361146" lon="9.251861034500848"><ele>123.5</ele><time>2026-05-01T07:33:59.998Z</time></trkpt><trkpt lat="45.490180656138904" lon="9.251814702172043"><ele>121.0</ele><time>2026-05-01T07:34:00.998Z</time></trkpt><trkpt lat="45.4899378488187" lon="9.251772068200603"><ele>121.0</ele><time>2026-05-01T07:34:01.998Z</time></trkpt><trkpt lat="45.48969885673741" lon="9.251728111086333"><ele>121.0</ele><time>2026-05-01T07:34:02.998Z</time></trkpt><trkpt lat="45.48945872339094" lon="9.251686745358526"><ele>121.0</ele><time>2026-05-01T07:34:03.998Z</time></trkpt><trkpt lat="45.48922097449545" lon="9.251645096843154"><ele>121.0</ele><time>2026-05-01T07:34:04.998Z</time></trkpt><trkpt lat="45.488983093425595" lon="9.251605472725803"><ele>120.0</ele><time>2026-05-01T07:34:05.998Z</time></trkpt><trkpt lat="45.4887435131428" lon="9.251567288623471"><ele>119.0</ele><time>2026-05-01T07:34:06.998Z</time></trkpt><trkpt lat="45.48850255725331" lon="9.251534612908465"><ele>119.0</ele><time>2026-05-01T07:34:07.998Z</time></trkpt><trkpt lat="45.48826323121627" lon="9.251496541043755"><ele>119.0</ele><time>2026-05-01T07:34:08.998Z</time></trkpt><trkpt lat="45.48802584486702" lon="9.251454472265523"><ele>118.0</ele><time>2026-05-01T07:34:09.998Z</time></trkpt><trkpt lat="45.487787815068934" lon="9.251411740833811"><ele>117.0</ele><time>2026-05-01T07:34:10.998Z</time></trkpt><trkpt lat="45.487551940090235" lon="9.25137765584973"><ele>117.0</ele><time>2026-05-01T07:34:11.998Z</time></trkpt><trkpt lat="45.48731650383201" lon="9.251345019272637"><ele>117.0</ele><time>2026-05-01T07:34:12.999Z</time></trkpt><trkpt lat="45.48708187069535" lon="9.251313603157397"><ele>116.5</ele><time>2026-05-01T07:34:13.999Z</time></trkpt><trkpt lat="45.48684689770367" lon="9.251282104801554"><ele>116.0</ele><time>2026-05-01T07:34:14.999Z</time></trkpt><trkpt lat="45.48661058666621" lon="9.251252324866906"><ele>116.0</ele><time>2026-05-01T07:34:15.999Z</time></trkpt><trkpt lat="45.48637376526925" lon="9.251218818309908"><ele>116.0</ele><time>2026-05-01T07:34:16.999Z</time></trkpt><trkpt lat="45.48613785410371" lon="9.25118494498563"><ele>117.0</ele><time>2026-05-01T07:34:17.999Z</time></trkpt><trkpt lat="45.48589895113539" lon="9.251144912591487"><ele>118.0</ele><time>2026-05-01T07:34:18.999Z</time></trkpt><trkpt lat="45.485660231958974" lon="9.251108743485002"><ele>118.0</ele><time>2026-05-01T07:34:19.999Z</time></trkpt><trkpt lat="45.485421456842175" lon="9.251073219311625"><ele>118.0</ele><time>2026-05-01T07:34:20.999Z</time></trkpt><trkpt lat="45.48518210046652" lon="9.251038942210723"><ele>118.0</ele><time>2026-05-01T07:34:21.999Z</time></trkpt><trkpt lat="45.48494191382308" lon="9.25100886300668"><ele>118.0</ele><time>2026-05-01T07:34:22.999Z</time></trkpt><trkpt lat="45.48470212528104" lon="9.250986485115606"><ele>119.0</ele><time>2026-05-01T07:34:24Z</time></trkpt><trkpt lat="45.48446193585676" lon="9.25097258849576"><ele>120.0</ele><time>2026-05-01T07:34:25Z</time></trkpt><trkpt lat="45.484218862144694" lon="9.250967759165894"><ele>120.0</ele><time>2026-05-01T07:34:26Z</time></trkpt><trkpt lat="45.48397474807066" lon="9.250974231984015"><ele>120.0</ele><time>2026-05-01T07:34:27Z</time></trkpt><trkpt lat="45.483732826673865" lon="9.250992844596484"><ele>119.0</ele><time>2026-05-01T07:34:28Z</time></trkpt><trkpt lat="45.4834922767396" lon="9.251023687096325"><ele>118.0</ele><time>2026-05-01T07:34:29Z</time></trkpt><trkpt lat="45.483249662479146" lon="9.251062637238999"><ele>118.0</ele><time>2026-05-01T07:34:30Z</time></trkpt><trkpt lat="45.48301001404673" lon="9.25111026667787"><ele>118.0</ele><time>2026-05-01T07:34:31Z</time></trkpt><trkpt lat="45.48277226045449" lon="9.2511718432429"><ele>119.0</ele><time>2026-05-01T07:34:32Z</time></trkpt><trkpt lat="45.48253949730513" lon="9.25124567362694"><ele>120.0</ele><time>2026-05-01T07:34:33Z</time></trkpt><trkpt lat="45.482307643620196" lon="9.25133009994178"><ele>120.5</ele><time>2026-05-01T07:34:34Z</time></trkpt><trkpt lat="45.48207775412199" lon="9.251422243643464"><ele>121.0</ele><time>2026-05-01T07:34:35Z</time></trkpt><trkpt lat="45.48185154015242" lon="9.251518155423195"><ele>121.0</ele><time>2026-05-01T07:34:36Z</time></trkpt><trkpt lat="45.48162391832002" lon="9.2516129443391"><ele>121.0</ele><time>2026-05-01T07:34:37Z</time></trkpt><trkpt lat="45.4813977502007" lon="9.251701780190052"><ele>121.0</ele><time>2026-05-01T07:34:38Z</time></trkpt><trkpt lat="45.48117225922716" lon="9.251796030155932"><ele>121.0</ele><time>2026-05-01T07:34:39Z</time></trkpt><trkpt lat="45.48094871199798" lon="9.251887615474216"><ele>121.0</ele><time>2026-05-01T07:34:40Z</time></trkpt><trkpt lat="45.48072394100954" lon="9.251983527424471"><ele>121.0</ele><time>2026-05-01T07:34:41Z</time></trkpt><trkpt lat="45.480501047541246" lon="9.252085803119398"><ele>119.0</ele><time>2026-05-01T07:34:42.001Z</time></trkpt><trkpt lat="45.48027616034898" lon="9.252190995967327"><ele>117.0</ele><time>2026-05-01T07:34:43.001Z</time></trkpt><trkpt lat="45.480053581961585" lon="9.252296070216417"><ele>117.0</ele><time>2026-05-01T07:34:44.001Z</time></trkpt><trkpt lat="45.479828881506094" lon="9.252401910543131"><ele>117.0</ele><time>2026-05-01T07:34:45.001Z</time></trkpt><trkpt lat="45.4796015770665" lon="9.252506643549625"><ele>118.0</ele><time>2026-05-01T07:34:46.001Z</time></trkpt><trkpt lat="45.479375820481536" lon="9.252610244017335"><ele>119.0</ele><time>2026-05-01T07:34:47.001Z</time></trkpt><trkpt lat="45.479153442565895" lon="9.252711182115865"><ele>119.0</ele><time>2026-05-01T07:34:48.001Z</time></trkpt><trkpt lat="45.4789296349652" lon="9.252812809764535"><ele>119.0</ele><time>2026-05-01T07:34:49.001Z</time></trkpt><trkpt lat="45.478706459109794" lon="9.252909449245976"><ele>117.5</ele><time>2026-05-01T07:34:50.001Z</time></trkpt><trkpt lat="45.47848516849885" lon="9.25300510195119"><ele>116.0</ele><time>2026-05-01T07:34:51.001Z</time></trkpt><trkpt lat="45.47825956318857" lon="9.253100027623415"><ele>116.5</ele><time>2026-05-01T07:34:52.001Z</time></trkpt><trkpt lat="45.478034228614916" lon="9.253194275041798"><ele>117.0</ele><time>2026-05-01T07:34:53.001Z</time></trkpt><trkpt lat="45.4778082530604" lon="9.253277105575329"><ele>115.5</ele><time>2026-05-01T07:34:54.001Z</time></trkpt><trkpt lat="45.47758058531118" lon="9.25334994795147"><ele>114.0</ele><time>2026-05-01T07:34:55.001Z</time></trkpt><trkpt lat="45.47735169148581" lon="9.253408661462656"><ele>114.0</ele><time>2026-05-01T07:34:56.001Z</time></trkpt><trkpt lat="45.47712149920589" lon="9.253451026507184"><ele>114.0</ele><time>2026-05-01T07:34:57.001Z</time></trkpt><trkpt lat="45.476888462834104" lon="9.253481407420091"><ele>115.5</ele><time>2026-05-01T07:34:58.001Z</time></trkpt><trkpt lat="45.47665507527977" lon="9.253494734145493"><ele>117.0</ele><time>2026-05-01T07:34:59.001Z</time></trkpt><trkpt lat="45.476419038067185" lon="9.253496133106434"><ele>117.0</ele><time>2026-05-01T07:35:00.001Z</time></trkpt><trkpt lat="45.47618543651776" lon="9.253486852882812"><ele>117.0</ele><time>2026-05-01T07:35:01.001Z</time></trkpt><trkpt lat="45.47594959238142" lon="9.253461426639937"><ele>117.0</ele><time>2026-05-01T07:35:02.001Z</time></trkpt><trkpt lat="45.47571691900883" lon="9.253423337877289"><ele>117.0</ele><time>2026-05-01T07:35:03.001Z</time></trkpt><trkpt lat="45.47548404160172" lon="9.25337279138211"><ele>118.5</ele><time>2026-05-01T07:35:04.001Z</time></trkpt><trkpt lat="45.47525847228414" lon="9.253312981561354"><ele>120.0</ele><time>2026-05-01T07:35:05.001Z</time></trkpt><trkpt lat="45.475035142585696" lon="9.253246156631004"><ele>120.0</ele><time>2026-05-01T07:35:06.001Z</time></trkpt><trkpt lat="45.47481408122146" lon="9.253176138892844"><ele>120.0</ele><time>2026-05-01T07:35:07.001Z</time></trkpt><trkpt lat="45.47459536358166" lon="9.253102257491664"><ele>119.0</ele><time>2026-05-01T07:35:08.001Z</time></trkpt><trkpt lat="45.47438013999866" lon="9.253028728406855"><ele>118.0</ele><time>2026-05-01T07:35:09.002Z</time></trkpt><trkpt lat="45.47416561140199" lon="9.252957202206696"><ele>117.0</ele><time>2026-05-01T07:35:10.002Z</time></trkpt><trkpt lat="45.47395295177453" lon="9.252885020443026"><ele>117.66666666666666</ele><time>2026-05-01T07:35:11.002Z</time></trkpt><trkpt lat="45.47373856009095" lon="9.252812585221756"><ele>118.33333333333333</ele><time>2026-05-01T07:35:12.002Z</time></trkpt><trkpt lat="45.47352575062872" lon="9.252742315817306"><ele>119.0</ele><time>2026-05-01T07:35:13.002Z</time></trkpt><trkpt lat="45.473312881373836" lon="9.252670981819959"><ele>119.0</ele><time>2026-05-01T07:35:14.002Z</time></trkpt><trkpt lat="45.4730990875247" lon="9.252600741881059"><ele>119.0</ele><time>2026-05-01T07:35:15.002Z</time></trkpt><trkpt lat="45.47288448465054" lon="9.252534904375048"><ele>119.0</ele><time>2026-05-01T07:35:16.002Z</time></trkpt><trkpt lat="45.47267023067631" lon="9.252471924019936"><ele>119.66666666666666</ele><time>2026-05-01T07:35:17.002Z</time></trkpt><trkpt lat="45.472456045660415" lon="9.25241395916941"><ele>120.33333333333334</ele><time>2026-05-01T07:35:18.002Z</time></trkpt><trkpt lat="45.47223892538212" lon="9.252358138770814"><ele>121.0</ele><time>2026-05-01T07:35:19.002Z</time></trkpt><trkpt lat="45.47202011117192" lon="9.252306830087088"><ele>117.5</ele><time>2026-05-01T07:35:20.002Z</time></trkpt><trkpt lat="45.47179928172331" lon="9.2522569655955"><ele>114.0</ele><time>2026-05-01T07:35:21.002Z</time></trkpt><trkpt lat="45.47157539233332" lon="9.252208325978904"><ele>114.0</ele><time>2026-05-01T07:35:22.002Z</time></trkpt><trkpt lat="45.47134929835285" lon="9.252164666381168"><ele>114.0</ele><time>2026-05-01T07:35:23.002Z</time></trkpt><trkpt lat="45.4711206212078" lon="9.25212148285649"><ele>113.5</ele><time>2026-05-01T07:35:24.002Z</time></trkpt><trkpt lat="45.47089165679597" lon="9.252084187441106"><ele>113.0</ele><time>2026-05-01T07:35:25.002Z</time></trkpt><trkpt lat="45.47065899022307" lon="9.252052845864112"><ele>113.5</ele><time>2026-05-01T07:35:26.002Z</time></trkpt><trkpt lat="45.47042604719001" lon="9.252027811211542"><ele>114.0</ele><time>2026-05-01T07:35:27.002Z</time></trkpt><trkpt lat="45.47019444329734" lon="9.252006309711607"><ele>114.0</ele><time>2026-05-01T07:35:28.002Z</time></trkpt><trkpt lat="45.469964541032404" lon="9.251983361804337"><ele>114.0</ele><time>2026-05-01T07:35:29.002Z</time></trkpt><trkpt lat="45.469738098126804" lon="9.251967902527838"><ele>113.33333333333334</ele><time>2026-05-01T07:35:30.002Z</time></trkpt><trkpt lat="45.46951414220182" lon="9.251961480943034"><ele>112.66666666666667</ele><time>2026-05-01T07:35:31.002Z</time></trkpt><trkpt lat="45.46929502842706" lon="9.251955915909507"><ele>112.0</ele><time>2026-05-01T07:35:32.002Z</time></trkpt><trkpt lat="45.46908067444536" lon="9.251952816930757"><ele>112.0</ele><time>2026-05-01T07:35:33.002Z</time></trkpt><trkpt lat="45.46886569923481" lon="9.25195017378212"><ele>112.0</ele><time>2026-05-01T07:35:34.002Z</time></trkpt><trkpt lat="45.46864645854014" lon="9.251953302655718"><ele>112.0</ele><time>2026-05-01T07:35:35.002Z</time></trkpt><trkpt lat="45.46842634221757" lon="9.25195829945905"><ele>113.5</ele><time>2026-05-01T07:35:36.002Z</time></trkpt><trkpt lat="45.46820099797822" lon="9.251967643193359"><ele>115.0</ele><time>2026-05-01T07:35:37.002Z</time></trkpt><trkpt lat="45.46797591474485" lon="9.251980256250611"><ele>115.0</ele><time>2026-05-01T07:35:38.002Z</time></trkpt><trkpt lat="45.46774585139581" lon="9.251982593012755"><ele>115.0</ele><time>2026-05-01T07:35:39.002Z</time></trkpt><trkpt lat="45.4675169635122" lon="9.251982163800827"><ele>115.0</ele><time>2026-05-01T07:35:40.002Z</time></trkpt><trkpt lat="45.467288455118045" lon="9.251967492350627"><ele>115.0</ele><time>2026-05-01T07:35:41.002Z</time></trkpt><trkpt lat="45.467060633153785" lon="9.251947724013716"><ele>115.0</ele><time>2026-05-01T07:35:42.003Z</time></trkpt><trkpt lat="45.46683146919125" lon="9.25191688989321"><ele>115.0</ele><time>2026-05-01T07:35:43.003Z</time></trkpt><trkpt lat="45.466604528015765" lon="9.251872642919603"><ele>115.0</ele><time>2026-05-01T07:35:44.003Z</time></trkpt><trkpt lat="45.46637590092784" lon="9.251819059421377"><ele>115.0</ele><time>2026-05-01T07:35:45.003Z</time></trkpt><trkpt lat="45.466148986237116" lon="9.251752400766803"><ele>114.5</ele><time>2026-05-01T07:35:46.003Z</time></trkpt><trkpt lat="45.465923191042066" lon="9.2516751429617"><ele>114.0</ele><time>2026-05-01T07:35:47.003Z</time></trkpt><trkpt lat="45.46569794512728" lon="9.251591163712694"><ele>114.0</ele><time>2026-05-01T07:35:48.003Z</time></trkpt><trkpt lat="45.4654778896129" lon="9.251493929766996"><ele>114.0</ele><time>2026-05-01T07:35:49.003Z</time></trkpt><trkpt lat="45.46525909798471" lon="9.25138941598438"><ele>113.5</ele><time>2026-05-01T07:35:50.003Z</time></trkpt><trkpt lat="45.46504238574645" lon="9.251291597934369"><ele>113.0</ele><time>2026-05-01T07:35:51.003Z</time></trkpt><trkpt lat="45.46482092683369" lon="9.25120648160074"><ele>114.0</ele><time>2026-05-01T07:35:52.003Z</time></trkpt><trkpt lat="45.464596760251474" lon="9.251138129400008"><ele>115.0</ele><time>2026-05-01T07:35:53.003Z</time></trkpt><trkpt lat="45.464372561872686" lon="9.25108264409153"><ele>115.0</ele><time>2026-05-01T07:35:54.003Z</time></trkpt><trkpt lat="45.46414644855136" lon="9.251042183975589"><ele>115.0</ele><time>2026-05-01T07:35:55.003Z</time></trkpt><trkpt lat="45.46392010669304" lon="9.251008763710653"><ele>115.0</ele><time>2026-05-01T07:35:56.003Z</time></trkpt><trkpt lat="45.463693572940294" lon="9.25098546755298"><ele>115.0</ele><time>2026-05-01T07:35:57.003Z</time></trkpt><trkpt lat="45.4634659812791" lon="9.250973447541"><ele>115.0</ele><time>2026-05-01T07:35:58.003Z</time></trkpt><trkpt lat="45.463240196821204" lon="9.250969867288505"><ele>115.0</ele><time>2026-05-01T07:35:59.003Z</time></trkpt><trkpt lat="45.46301308676677" lon="9.250974034423198"><ele>111.5</ele><time>2026-05-01T07:36:00.003Z</time></trkpt><trkpt lat="45.46278820230325" lon="9.250986489326317"><ele>108.0</ele><time>2026-05-01T07:36:01.003Z</time></trkpt><trkpt lat="45.462562682242144" lon="9.251001717155372"><ele>108.0</ele><time>2026-05-01T07:36:02.003Z</time></trkpt><trkpt lat="45.462338783673204" lon="9.25101929356114"><ele>108.0</ele><time>2026-05-01T07:36:03.003Z</time></trkpt><trkpt lat="45.462113139025966" lon="9.25103886596351"><ele>110.66666666666666</ele><time>2026-05-01T07:36:04.003Z</time></trkpt><trkpt lat="45.461891572074144" lon="9.25105635937998"><ele>113.33333333333333</ele><time>2026-05-01T07:36:04.996Z</time></trkpt><trkpt lat="45.46166669770423" lon="9.251077114357084"><ele>116.0</ele><time>2026-05-01T07:36:05.996Z</time></trkpt><trkpt lat="45.461441647710174" lon="9.25109985422426"><ele>116.5</ele><time>2026-05-01T07:36:06.996Z</time></trkpt><trkpt lat="45.46121699656513" lon="9.251122256668463"><ele>117.0</ele><time>2026-05-01T07:36:07.996Z</time></trkpt><trkpt lat="45.460988714539546" lon="9.251141450778864"><ele>117.0</ele><time>2026-05-01T07:36:08.996Z</time></trkpt><trkpt lat="45.4607607023301" lon="9.251159674014017"><ele>117.0</ele><time>2026-05-01T07:36:09.997Z</time></trkpt><trkpt lat="45.460533066209635" lon="9.251179127069484"><ele>115.0</ele><time>2026-05-01T07:36:10.997Z</time></trkpt><trkpt lat="45.460306638777546" lon="9.251198851131631"><ele>113.0</ele><time>2026-05-01T07:36:11.997Z</time></trkpt><trkpt lat="45.46008389672723" lon="9.251222086402093"><ele>113.0</ele><time>2026-05-01T07:36:12.997Z</time></trkpt><trkpt lat="45.459850886203306" lon="9.25125885005106"><ele>113.0</ele><time>2026-05-01T07:36:13.997Z</time></trkpt><trkpt lat="45.45961937775877" lon="9.251304158065961"><ele>112.5</ele><time>2026-05-01T07:36:14.997Z</time></trkpt><trkpt lat="45.459388581759015" lon="9.25135604460904"><ele>112.0</ele><time>2026-05-01T07:36:15.998Z</time></trkpt><trkpt lat="45.459156227585176" lon="9.251413368778154"><ele>112.5</ele><time>2026-05-01T07:36:16.998Z</time></trkpt><trkpt lat="45.45892496865763" lon="9.251478521640228"><ele>113.0</ele><time>2026-05-01T07:36:17.998Z</time></trkpt><trkpt lat="45.45869473650063" lon="9.251549843581651"><ele>113.5</ele><time>2026-05-01T07:36:18.998Z</time></trkpt><trkpt lat="45.458462721886455" lon="9.251631161695768"><ele>114.0</ele><time>2026-05-01T07:36:19.998Z</time></trkpt><trkpt lat="45.458231526042226" lon="9.25171607266311"><ele>114.0</ele><time>2026-05-01T07:36:20.998Z</time></trkpt><trkpt lat="45.45800258532561" lon="9.251812581223625"><ele>114.0</ele><time>2026-05-01T07:36:21.998Z</time></trkpt><trkpt lat="45.457776664206676" lon="9.251918973203676"><ele>112.5</ele><time>2026-05-01T07:36:22.998Z</time></trkpt><trkpt lat="45.45755446927036" lon="9.252031966083297"><ele>111.0</ele><time>2026-05-01T07:36:23.999Z</time></trkpt><trkpt lat="45.45733628956536" lon="9.252154346936477"><ele>111.0</ele><time>2026-05-01T07:36:24.999Z</time></trkpt><trkpt lat="45.45712321094291" lon="9.252278547824332"><ele>111.0</ele><time>2026-05-01T07:36:25.999Z</time></trkpt><trkpt lat="45.456916240216735" lon="9.252407656843816"><ele>111.33333333333334</ele><time>2026-05-01T07:36:26.999Z</time></trkpt><trkpt lat="45.45671386841287" lon="9.252537990947975"><ele>111.66666666666667</ele><time>2026-05-01T07:36:27.999Z</time></trkpt><trkpt lat="45.456515327491694" lon="9.252675002528498"><ele>112.0</ele><time>2026-05-01T07:36:28.999Z</time></trkpt><trkpt lat="45.45632000021717" lon="9.25282062039445"><ele>111.66666666666667</ele><time>2026-05-01T07:36:29.999Z</time></trkpt><trkpt lat="45.45613189464692" lon="9.252971756909815"><ele>111.33333333333334</ele><time>2026-05-01T07:36:30.999Z</time></trkpt><trkpt lat="45.45594670856465" lon="9.253125042486772"><ele>111.0</ele><time>2026-05-01T07:36:31.999Z</time></trkpt><trkpt lat="45.45576211978031" lon="9.253275493440837"><ele>111.0</ele><time>2026-05-01T07:36:33Z</time></trkpt><trkpt lat="45.45558019600943" lon="9.253424869047649"><ele>111.0</ele><time>2026-05-01T07:36:34Z</time></trkpt><trkpt lat="45.45539980888032" lon="9.253576090944541"><ele>111.0</ele><time>2026-05-01T07:36:35Z</time></trkpt><trkpt lat="45.45522397324712" lon="9.253723874041555"><ele>110.66666666666666</ele><time>2026-05-01T07:36:36Z</time></trkpt><trkpt lat="45.45505087242985" lon="9.253873306492448"><ele>110.33333333333333</ele><time>2026-05-01T07:36:37Z</time></trkpt><trkpt lat="45.454877093789975" lon="9.25402283110896"><ele>110.0</ele><time>2026-05-01T07:36:38Z</time></trkpt><trkpt lat="45.45470215308024" lon="9.25417819881051"><ele>109.66666666666666</ele><time>2026-05-01T07:36:39Z</time></trkpt><trkpt lat="45.45452155235808" lon="9.254338321438073"><ele>109.33333333333334</ele><time>2026-05-01T07:36:40Z</time></trkpt><trkpt lat="45.45433599443329" lon="9.25450645520894"><ele>109.0</ele><time>2026-05-01T07:36:41Z</time></trkpt><trkpt lat="45.45414600792826" lon="9.254667724433007"><ele>109.33333333333334</ele><time>2026-05-01T07:36:42Z</time></trkpt><trkpt lat="45.45395674166736" lon="9.25482436399786"><ele>109.66666666666666</ele><time>2026-05-01T07:36:43Z</time></trkpt><trkpt lat="45.45376905894237" lon="9.254982386054245"><ele>110.0</ele><time>2026-05-01T07:36:44Z</time></trkpt><trkpt lat="45.45357974249638" lon="9.255139141533602"><ele>110.0</ele><time>2026-05-01T07:36:45Z</time></trkpt><trkpt lat="45.45338949266343" lon="9.255295347468586"><ele>110.0</ele><time>2026-05-01T07:36:46Z</time></trkpt><trkpt lat="45.45320253719783" lon="9.255446116936964"><ele>110.0</ele><time>2026-05-01T07:36:47Z</time></trkpt><trkpt lat="45.45301426238374" lon="9.255595740717261"><ele>110.0</ele><time>2026-05-01T07:36:48.001Z</time></trkpt><trkpt lat="45.45282988974362" lon="9.255740712543112"><ele>110.0</ele><time>2026-05-01T07:36:49.001Z</time></trkpt><trkpt lat="45.452646637287174" lon="9.255884098330132"><ele>110.0</ele><time>2026-05-01T07:36:50.001Z</time></trkpt><trkpt lat="45.45245884526779" lon="9.256033678109318"><ele>110.0</ele><time>2026-05-01T07:36:51.001Z</time></trkpt><trkpt lat="45.452271500001686" lon="9.256181770553805"><ele>110.0</ele><time>2026-05-01T07:36:52.001Z</time></trkpt><trkpt lat="45.45208369211815" lon="9.256332232213468"><ele>110.0</ele><time>2026-05-01T07:36:53.001Z</time></trkpt><trkpt lat="45.45189496828496" lon="9.256485948980515"><ele>110.33333333333333</ele><time>2026-05-01T07:36:54.001Z</time></trkpt><trkpt lat="45.451705909765636" lon="9.25664190225708"><ele>110.66666666666666</ele><time>2026-05-01T07:36:55.001Z</time></trkpt><trkpt lat="45.45151836155283" lon="9.25679921206516"><ele>111.0</ele><time>2026-05-01T07:36:56.001Z</time></trkpt><trkpt lat="45.45132984799436" lon="9.256956478563112"><ele>111.33333333333334</ele><time>2026-05-01T07:36:57.001Z</time></trkpt><trkpt lat="45.451140572172555" lon="9.257116962062758"><ele>111.66666666666667</ele><time>2026-05-01T07:36:58.001Z</time></trkpt><trkpt lat="45.450949956872066" lon="9.257271596339093"><ele>112.0</ele><time>2026-05-01T07:36:59.001Z</time></trkpt><trkpt lat="45.45075964794596" lon="9.257423860020946"><ele>112.0</ele><time>2026-05-01T07:37:00.001Z</time></trkpt><trkpt lat="45.45056626464556" lon="9.257573530798622"><ele>112.0</ele><time>2026-05-01T07:37:01.001Z</time></trkpt><trkpt lat="45.45037161622066" lon="9.257716026857047"><ele>112.0</ele><time>2026-05-01T07:37:02.001Z</time></trkpt><trkpt lat="45.45017631865608" lon="9.257848878401703"><ele>112.33333333333334</ele><time>2026-05-01T07:37:03.001Z</time></trkpt><trkpt lat="45.44997522969861" lon="9.257972968418786"><ele>112.66666666666666</ele><time>2026-05-01T07:37:04.001Z</time></trkpt><trkpt lat="45.449771644274364" lon="9.258088760849873"><ele>113.0</ele><time>2026-05-01T07:37:05.001Z</time></trkpt><trkpt lat="45.449564564176406" lon="9.258196739743278"><ele>111.66666666666666</ele><time>2026-05-01T07:37:06.001Z</time></trkpt><trkpt lat="45.44935284858728" lon="9.258295642780238"><ele>110.33333333333334</ele><time>2026-05-01T07:37:07.001Z</time></trkpt><trkpt lat="45.449138192640966" lon="9.258387078507207"><ele>109.0</ele><time>2026-05-01T07:37:08.001Z</time></trkpt><trkpt lat="45.44892124064018" lon="9.258464182277832"><ele>108.33333333333334</ele><time>2026-05-01T07:37:09.001Z</time></trkpt><trkpt lat="45.448700911472365" lon="9.258530324505395"><ele>107.66666666666666</ele><time>2026-05-01T07:37:10.001Z</time></trkpt><trkpt lat="45.44848206527971" lon="9.258586894849483"><ele>107.0</ele><time>2026-05-01T07:37:11.001Z</time></trkpt><trkpt lat="45.448260960012476" lon="9.258629891986494"><ele>107.0</ele><time>2026-05-01T07:37:12.001Z</time></trkpt><trkpt lat="45.448039811964016" lon="9.258658547261474"><ele>107.0</ele><time>2026-05-01T07:37:13.002Z</time></trkpt><trkpt lat="45.44781792102483" lon="9.258677534318869"><ele>107.0</ele><time>2026-05-01T07:37:14.002Z</time></trkpt><trkpt lat="45.44759515676948" lon="9.258682301366449"><ele>106.0</ele><time>2026-05-01T07:37:15.002Z</time></trkpt><trkpt lat="45.44737701230148" lon="9.258675597380265"><ele>105.0</ele><time>2026-05-01T07:37:16.002Z</time></trkpt><trkpt lat="45.44715992433404" lon="9.258659633747799"><ele>104.0</ele><time>2026-05-01T07:37:17.002Z</time></trkpt><trkpt lat="45.44694124483322" lon="9.258635000773822"><ele>103.0</ele><time>2026-05-01T07:37:18.002Z</time></trkpt><trkpt lat="45.44672895078419" lon="9.258603036341924"><ele>102.0</ele><time>2026-05-01T07:37:19.002Z</time></trkpt><trkpt lat="45.446512207660945" lon="9.25856212378843"><ele>101.0</ele><time>2026-05-01T07:37:20.002Z</time></trkpt><trkpt lat="45.44629408903373" lon="9.25851372895077"><ele>101.0</ele><time>2026-05-01T07:37:21.002Z</time></trkpt><trkpt lat="45.44607994400198" lon="9.258460030193863"><ele>101.0</ele><time>2026-05-01T07:37:22.002Z</time></trkpt><trkpt lat="45.44586433317852" lon="9.258399427977686"><ele>101.0</ele><time>2026-05-01T07:37:23.002Z</time></trkpt><trkpt lat="45.44564949575607" lon="9.258337387873159"><ele>97.66666666666666</ele><time>2026-05-01T07:37:24.002Z</time></trkpt><trkpt lat="45.44543730665902" lon="9.258275260951276"><ele>94.33333333333333</ele><time>2026-05-01T07:37:25.002Z</time></trkpt><trkpt lat="45.445223327197084" lon="9.258216848944704"><ele>91.0</ele><time>2026-05-01T07:37:26.002Z</time></trkpt><trkpt lat="45.44501232482035" lon="9.258158312811217"><ele>92.0</ele><time>2026-05-01T07:37:27.002Z</time></trkpt><trkpt lat="45.44480079741867" lon="9.258100565818989"><ele>93.0</ele><time>2026-05-01T07:37:28.002Z</time></trkpt><trkpt lat="45.4445899302822" lon="9.258042692651685"><ele>94.0</ele><time>2026-05-01T07:37:29.002Z</time></trkpt><trkpt lat="45.44437810491721" lon="9.257983332139165"><ele>94.0</ele><time>2026-05-01T07:37:30.002Z</time></trkpt><trkpt lat="45.44416709199944" lon="9.257922761459582"><ele>94.0</ele><time>2026-05-01T07:37:31.002Z</time></trkpt><trkpt lat="45.443957765257565" lon="9.257864122756303"><ele>94.0</ele><time>2026-05-01T07:37:32.002Z</time></trkpt><trkpt lat="45.44374991683154" lon="9.257806019990065"><ele>95.0</ele><time>2026-05-01T07:37:33.002Z</time></trkpt><trkpt lat="45.44354253927723" lon="9.25774808748477"><ele>96.0</ele><time>2026-05-01T07:37:34.002Z</time></trkpt><trkpt lat="45.44333415804836" lon="9.257692551194971"><ele>97.0</ele><time>2026-05-01T07:37:35.002Z</time></trkpt><trkpt lat="45.44312114136584" lon="9.257633285811595"><ele>99.33333333333334</ele><time>2026-05-01T07:37:36.002Z</time></trkpt><trkpt lat="45.44290445254896" lon="9.257574929421766"><ele>101.66666666666666</ele><time>2026-05-01T07:37:37.002Z</time></trkpt><trkpt lat="45.44268581131855" lon="9.257520819858561"><ele>104.0</ele><time>2026-05-01T07:37:38.002Z</time></trkpt><trkpt lat="45.442466481133295" lon="9.257464566814399"><ele>104.0</ele><time>2026-05-01T07:37:39.002Z</time></trkpt><trkpt lat="45.44224450697234" lon="9.257408091811422"><ele>104.0</ele><time>2026-05-01T07:37:40.002Z</time></trkpt><trkpt lat="45.44201948351247" lon="9.257348568780756"><ele>104.0</ele><time>2026-05-01T07:37:41.002Z</time></trkpt><trkpt lat="45.441794213772276" lon="9.257287431906992"><ele>104.0</ele><time>2026-05-01T07:37:42.002Z</time></trkpt><trkpt lat="45.44156653221589" lon="9.257225977219552"><ele>104.0</ele><time>2026-05-01T07:37:43.002Z</time></trkpt><trkpt lat="45.44133645880474" lon="9.257162652098739"><ele>104.0</ele><time>2026-05-01T07:37:44.002Z</time></trkpt><trkpt lat="45.44110665071373" lon="9.257095702257432"><ele>104.0</ele><time>2026-05-01T07:37:45.003Z</time></trkpt><trkpt lat="45.440875476993746" lon="9.257026855024574"><ele>104.0</ele><time>2026-05-01T07:37:46.003Z</time></trkpt><trkpt lat="45.44064361843881" lon="9.256956533844159"><ele>104.5</ele><time>2026-05-01T07:37:47.003Z</time></trkpt><trkpt lat="45.440411511161095" lon="9.256885113043195"><ele>105.0</ele><time>2026-05-01T07:37:48.003Z</time></trkpt><trkpt lat="45.44017862185718" lon="9.256814710467776"><ele>105.0</ele><time>2026-05-01T07:37:49.003Z</time></trkpt><trkpt lat="45.43994682695241" lon="9.256742633099416"><ele>105.0</ele><time>2026-05-01T07:37:50.003Z</time></trkpt><trkpt lat="45.439716109805225" lon="9.256673536368735"><ele>104.5</ele><time>2026-05-01T07:37:51.003Z</time></trkpt><trkpt lat="45.4394860722743" lon="9.256606212323545"><ele>104.0</ele><time>2026-05-01T07:37:52.003Z</time></trkpt><trkpt lat="45.4392588570854" lon="9.25654112277506"><ele>104.0</ele><time>2026-05-01T07:37:53.003Z</time></trkpt><trkpt lat="45.43903382756538" lon="9.256476988381307"><ele>104.0</ele><time>2026-05-01T07:37:54.003Z</time></trkpt><trkpt lat="45.43880922512441" lon="9.25641174527979"><ele>104.5</ele><time>2026-05-01T07:37:55.003Z</time></trkpt><trkpt lat="45.43858507694758" lon="9.256348266926857"><ele>105.0</ele><time>2026-05-01T07:37:56.003Z</time></trkpt><trkpt lat="45.43836172735488" lon="9.256284769178539"><ele>105.0</ele><time>2026-05-01T07:37:57.003Z</time></trkpt><trkpt lat="45.43814138140829" lon="9.256221060596816"><ele>105.0</ele><time>2026-05-01T07:37:58.003Z</time></trkpt><trkpt lat="45.43792016449416" lon="9.256158561698475"><ele>106.5</ele><time>2026-05-01T07:37:59.003Z</time></trkpt><trkpt lat="45.43769515592369" lon="9.256094684881294"><ele>108.0</ele><time>2026-05-01T07:38:00.003Z</time></trkpt><trkpt lat="45.43747131866064" lon="9.256029755340741"><ele>108.0</ele><time>2026-05-01T07:38:01.003Z</time></trkpt><trkpt lat="45.43726271794632" lon="9.25584533540233"><ele>108.0</ele><time>2026-05-01T07:38:02.003Z</time></trkpt><trkpt lat="45.437032540234284" lon="9.255777399941728"><ele>107.0</ele><time>2026-05-01T07:38:03.003Z</time></trkpt><trkpt lat="45.43679911275486" lon="9.255708504936575"><ele>106.0</ele><time>2026-05-01T07:38:04.003Z</time></trkpt><trkpt lat="45.43656311374887" lon="9.25563885090698"><ele>105.5</ele><time>2026-05-01T07:38:05.003Z</time></trkpt><trkpt lat="45.436326151565915" lon="9.255573192525091"><ele>105.0</ele><time>2026-05-01T07:38:06.003Z</time></trkpt><trkpt lat="45.4360816879053" lon="9.255555026135328"><ele>104.0</ele><time>2026-05-01T07:38:07.003Z</time></trkpt><trkpt lat="45.4358499913764" lon="9.255452398594423"><ele>103.0</ele><time>2026-05-01T07:38:08.003Z</time></trkpt><trkpt lat="45.43562190027389" lon="9.255339621505835"><ele>104.5</ele><time>2026-05-01T07:38:09.003Z</time></trkpt><trkpt lat="45.43539608164783" lon="9.255220130414926"><ele>106.0</ele><time>2026-05-01T07:38:10.003Z</time></trkpt><trkpt lat="45.435170133619586" lon="9.255097530243985"><ele>106.0</ele><time>2026-05-01T07:38:10.998Z</time></trkpt><trkpt lat="45.4349443883348" lon="9.254968057360077"><ele>106.0</ele><time>2026-05-01T07:38:11.998Z</time></trkpt><trkpt lat="45.434723562346925" lon="9.254827559665502"><ele>106.5</ele><time>2026-05-01T07:38:12.998Z</time></trkpt><trkpt lat="45.434501081662084" lon="9.254679001218694"><ele>107.0</ele><time>2026-05-01T07:38:13.998Z</time></trkpt><trkpt lat="45.43428439766085" lon="9.254525127056919"><ele>107.0</ele><time>2026-05-01T07:38:14.998Z</time></trkpt><trkpt lat="45.4340693526683" lon="9.25436735776873"><ele>107.0</ele><time>2026-05-01T07:38:15.998Z</time></trkpt><trkpt lat="45.43385439961701" lon="9.254201888498457"><ele>107.0</ele><time>2026-05-01T07:38:16.998Z</time></trkpt><trkpt lat="45.43364169703142" lon="9.254030477764047"><ele>107.0</ele><time>2026-05-01T07:38:17.999Z</time></trkpt><trkpt lat="45.43343353562723" lon="9.25385413116065"><ele>107.0</ele><time>2026-05-01T07:38:18.999Z</time></trkpt><trkpt lat="45.43322724337872" lon="9.253672212181474"><ele>107.0</ele><time>2026-05-01T07:38:19.999Z</time></trkpt><trkpt lat="45.43302459434411" lon="9.253483281727961"><ele>104.5</ele><time>2026-05-01T07:38:20.999Z</time></trkpt><trkpt lat="45.43282416240817" lon="9.253290454087272"><ele>102.0</ele><time>2026-05-01T07:38:21.999Z</time></trkpt><trkpt lat="45.43262390527605" lon="9.253091179636144"><ele>102.0</ele><time>2026-05-01T07:38:22.999Z</time></trkpt><trkpt lat="45.43242882227158" lon="9.252883181006379"><ele>102.0</ele><time>2026-05-01T07:38:23.999Z</time></trkpt><trkpt lat="45.43223499906519" lon="9.252667512596394"><ele>103.0</ele><time>2026-05-01T07:38:24.999Z</time></trkpt><trkpt lat="45.43204592859913" lon="9.252442541763093"><ele>104.0</ele><time>2026-05-01T07:38:25.999Z</time></trkpt><trkpt lat="45.43185927254123" lon="9.252214474004553"><ele>104.5</ele><time>2026-05-01T07:38:26.999Z</time></trkpt><trkpt lat="45.431675985664796" lon="9.251979461722685"><ele>105.0</ele><time>2026-05-01T07:38:27.999Z</time></trkpt><trkpt lat="45.431494481432345" lon="9.251741339074462"><ele>105.0</ele><time>2026-05-01T07:38:28.999Z</time></trkpt><trkpt lat="45.43131689257269" lon="9.251495267843284"><ele>105.0</ele><time>2026-05-01T07:38:29.999Z</time></trkpt><trkpt lat="45.43114112326514" lon="9.251246597773667"><ele>105.5</ele><time>2026-05-01T07:38:30.999Z</time></trkpt><trkpt lat="45.430967960198885" lon="9.250993837546803"><ele>106.0</ele><time>2026-05-01T07:38:32Z</time></trkpt><trkpt lat="45.43079477266376" lon="9.250739943154125"><ele>106.5</ele><time>2026-05-01T07:38:33Z</time></trkpt><trkpt lat="45.430621167099766" lon="9.250490137246205"><ele>107.0</ele><time>2026-05-01T07:38:34Z</time></trkpt><trkpt lat="45.43045027968774" lon="9.25023805742702"><ele>107.0</ele><time>2026-05-01T07:38:35Z</time></trkpt><trkpt lat="45.430281649891846" lon="9.249982110958243"><ele>107.0</ele><time>2026-05-01T07:38:36Z</time></trkpt><trkpt lat="45.43011681928491" lon="9.249726094756095"><ele>107.0</ele><time>2026-05-01T07:38:37Z</time></trkpt><trkpt lat="45.429950860642826" lon="9.24946845847841"><ele>107.0</ele><time>2026-05-01T07:38:38Z</time></trkpt><trkpt lat="45.429787730341005" lon="9.249212721694601"><ele>108.5</ele><time>2026-05-01T07:38:39Z</time></trkpt><trkpt lat="45.42962575094784" lon="9.24895645018183"><ele>110.0</ele><time>2026-05-01T07:38:40Z</time></trkpt><trkpt lat="45.429468663888976" lon="9.248699378217392"><ele>110.0</ele><time>2026-05-01T07:38:41Z</time></trkpt><trkpt lat="45.429307392396325" lon="9.248440586032947"><ele>110.0</ele><time>2026-05-01T07:38:42Z</time></trkpt><trkpt lat="45.429145921829246" lon="9.248183186026724"><ele>109.0</ele><time>2026-05-01T07:38:43Z</time></trkpt><trkpt lat="45.42898313445749" lon="9.247924367282407"><ele>108.0</ele><time>2026-05-01T07:38:44Z</time></trkpt><trkpt lat="45.42881840522516" lon="9.247671318376558"><ele>109.5</ele><time>2026-05-01T07:38:45Z</time></trkpt><trkpt lat="45.4286498682608" lon="9.24742582658308"><ele>111.0</ele><time>2026-05-01T07:38:46Z</time></trkpt><trkpt lat="45.42847339370434" lon="9.24719520828718"><ele>111.5</ele><time>2026-05-01T07:38:47Z</time></trkpt><trkpt lat="45.428290216945044" lon="9.246976543578512"><ele>112.0</ele><time>2026-05-01T07:38:48Z</time></trkpt><trkpt lat="45.42809660528064" lon="9.24677415108106"><ele>109.0</ele><time>2026-05-01T07:38:49Z</time></trkpt><trkpt lat="45.42790059644498" lon="9.246578638665902"><ele>106.0</ele><time>2026-05-01T07:38:50Z</time></trkpt><trkpt lat="45.42769973089925" lon="9.246396277672702"><ele>105.0</ele><time>2026-05-01T07:38:51.001Z</time></trkpt><trkpt lat="45.427496335742724" lon="9.246224171289489"><ele>104.0</ele><time>2026-05-01T07:38:52.001Z</time></trkpt><trkpt lat="45.42728918842258" lon="9.246068961589552"><ele>102.5</ele><time>2026-05-01T07:38:53.001Z</time></trkpt><trkpt lat="45.427073883461844" lon="9.245929772872323"><ele>101.0</ele><time>2026-05-01T07:38:54.001Z</time></trkpt><trkpt lat="45.42685513226614" lon="9.245807530911318"><ele>101.0</ele><time>2026-05-01T07:38:55.001Z</time></trkpt><trkpt lat="45.42663072274" lon="9.245701473865694"><ele>101.0</ele><time>2026-05-01T07:38:56.001Z</time></trkpt><trkpt lat="45.4264033091915" lon="9.245612071482117"><ele>103.0</ele><time>2026-05-01T07:38:57.001Z</time></trkpt><trkpt lat="45.42617544889014" lon="9.245539784561103"><ele>105.0</ele><time>2026-05-01T07:38:58.001Z</time></trkpt><trkpt lat="45.42594483239461" lon="9.245482555815299"><ele>105.0</ele><time>2026-05-01T07:38:59.001Z</time></trkpt><trkpt lat="45.42571385638566" lon="9.245441964663678"><ele>105.0</ele><time>2026-05-01T07:39:00.001Z</time></trkpt><trkpt lat="45.42548201910844" lon="9.24541655997741"><ele>104.5</ele><time>2026-05-01T07:39:01.001Z</time></trkpt><trkpt lat="45.425251184795634" lon="9.24540676632317"><ele>104.0</ele><time>2026-05-01T07:39:02.001Z</time></trkpt><trkpt lat="45.42501873935401" lon="9.24540550250137"><ele>104.0</ele><time>2026-05-01T07:39:03.001Z</time></trkpt><trkpt lat="45.42478852157228" lon="9.245411709927389"><ele>104.0</ele><time>2026-05-01T07:39:04.001Z</time></trkpt><trkpt lat="45.4245587889848" lon="9.245430745190344"><ele>104.0</ele><time>2026-05-01T07:39:05.001Z</time></trkpt><trkpt lat="45.42433071330911" lon="9.245458950128425"><ele>104.0</ele><time>2026-05-01T07:39:06.001Z</time></trkpt><trkpt lat="45.42410712037553" lon="9.245484178509074"><ele>104.0</ele><time>2026-05-01T07:39:07.001Z</time></trkpt><trkpt lat="45.42388496303048" lon="9.245508283252144"><ele>104.0</ele><time>2026-05-01T07:39:08.001Z</time></trkpt><trkpt lat="45.4236649711949" lon="9.245532431918358"><ele>104.0</ele><time>2026-05-01T07:39:09.001Z</time></trkpt><trkpt lat="45.42344560743704" lon="9.245554968598341"><ele>104.33333333333333</ele><time>2026-05-01T07:39:10.001Z</time></trkpt><trkpt lat="45.42322760089187" lon="9.245580964041116"><ele>104.66666666666666</ele><time>2026-05-01T07:39:11.001Z</time></trkpt><trkpt lat="45.423011169380224" lon="9.245607483374677"><ele>105.0</ele><time>2026-05-01T07:39:12.001Z</time></trkpt><trkpt lat="45.422792813769306" lon="9.245632957599744"><ele>105.0</ele><time>2026-05-01T07:39:13.001Z</time></trkpt><trkpt lat="45.422572951486615" lon="9.245658119145771"><ele>105.0</ele><time>2026-05-01T07:39:14.001Z</time></trkpt><trkpt lat="45.42235087894858" lon="9.245681702862575"><ele>105.0</ele><time>2026-05-01T07:39:15.001Z</time></trkpt><trkpt lat="45.422128302878704" lon="9.245705393386892"><ele>106.0</ele><time>2026-05-01T07:39:16.001Z</time></trkpt><trkpt lat="45.42190161892867" lon="9.245730989317233"><ele>107.0</ele><time>2026-05-01T07:39:17.001Z</time></trkpt><trkpt lat="45.42167283793998" lon="9.245756563465159"><ele>107.0</ele><time>2026-05-01T07:39:18.001Z</time></trkpt><trkpt lat="45.42144402273786" lon="9.245783886324402"><ele>107.0</ele><time>2026-05-01T07:39:19.001Z</time></trkpt><trkpt lat="45.42121245694935" lon="9.24580965658061"><ele>107.0</ele><time>2026-05-01T07:39:20.002Z</time></trkpt><trkpt lat="45.42097940279851" lon="9.245836505234173"><ele>107.0</ele><time>2026-05-01T07:39:21.002Z</time></trkpt><trkpt lat="45.420745797301" lon="9.245867426938"><ele>107.0</ele><time>2026-05-01T07:39:22.002Z</time></trkpt><trkpt lat="45.420510414349415" lon="9.245907557286175"><ele>107.0</ele><time>2026-05-01T07:39:23.002Z</time></trkpt><trkpt lat="45.420277708560775" lon="9.24595769653413"><ele>106.0</ele><time>2026-05-01T07:39:24.002Z</time></trkpt><trkpt lat="45.42005337115674" lon="9.246023736039966"><ele>105.0</ele><time>2026-05-01T07:39:25.002Z</time></trkpt><trkpt lat="45.4198222953963" lon="9.246107560974606"><ele>104.0</ele><time>2026-05-01T07:39:26.002Z</time></trkpt><trkpt lat="45.419593535667765" lon="9.246199437481641"><ele>103.0</ele><time>2026-05-01T07:39:27.002Z</time></trkpt><trkpt lat="45.41936903872417" lon="9.24630378300229"><ele>103.0</ele><time>2026-05-01T07:39:28.002Z</time></trkpt><trkpt lat="45.419147909145586" lon="9.246418507092352"><ele>103.0</ele><time>2026-05-01T07:39:29.002Z</time></trkpt><trkpt lat="45.41893498904998" lon="9.246546726443848"><ele>102.0</ele><time>2026-05-01T07:39:30.002Z</time></trkpt><trkpt lat="45.418724577578566" lon="9.246685595879915"><ele>101.0</ele><time>2026-05-01T07:39:31.002Z</time></trkpt><trkpt lat="45.41851929560189" lon="9.24683627925241"><ele>101.0</ele><time>2026-05-01T07:39:32.002Z</time></trkpt><trkpt lat="45.41831872149714" lon="9.24699915548165"><ele>101.0</ele><time>2026-05-01T07:39:33.002Z</time></trkpt><trkpt lat="45.41812544146705" lon="9.247176161722393"><ele>100.5</ele><time>2026-05-01T07:39:34.002Z</time></trkpt><trkpt lat="45.417939007825424" lon="9.247364740429623"><ele>100.0</ele><time>2026-05-01T07:39:35.002Z</time></trkpt><trkpt lat="45.417760459443436" lon="9.24756660048565"><ele>100.0</ele><time>2026-05-01T07:39:36.002Z</time></trkpt><trkpt lat="45.41758779819165" lon="9.247779992269685"><ele>100.0</ele><time>2026-05-01T07:39:37.002Z</time></trkpt><trkpt lat="45.41741765080539" lon="9.248001675709265"><ele>99.0</ele><time>2026-05-01T07:39:38.002Z</time></trkpt><trkpt lat="45.41725035071945" lon="9.248227692542073"><ele>98.0</ele><time>2026-05-01T07:39:39.002Z</time></trkpt><trkpt lat="45.41708693092658" lon="9.248462534248272"><ele>100.0</ele><time>2026-05-01T07:39:40.002Z</time></trkpt><trkpt lat="45.41692681538618" lon="9.24870163166252"><ele>102.0</ele><time>2026-05-01T07:39:41.002Z</time></trkpt><trkpt lat="45.41676801853275" lon="9.248943799536415"><ele>102.0</ele><time>2026-05-01T07:39:42.002Z</time></trkpt><trkpt lat="45.41660668520127" lon="9.249190290324307"><ele>102.0</ele><time>2026-05-01T07:39:43.002Z</time></trkpt><trkpt lat="45.41644602978122" lon="9.249433681739188"><ele>102.0</ele><time>2026-05-01T07:39:44.002Z</time></trkpt><trkpt lat="45.4162863258784" lon="9.249680286272604"><ele>102.0</ele><time>2026-05-01T07:39:45.002Z</time></trkpt><trkpt lat="45.41612643320832" lon="9.249922625757236"><ele>102.5</ele><time>2026-05-01T07:39:46.002Z</time></trkpt><trkpt lat="45.415966762184816" lon="9.250163429002404"><ele>103.0</ele><time>2026-05-01T07:39:47.002Z</time></trkpt><trkpt lat="45.41580799856641" lon="9.25040249910123"><ele>101.5</ele><time>2026-05-01T07:39:48.002Z</time></trkpt><trkpt lat="45.415653037088084" lon="9.25063854462411"><ele>100.0</ele><time>2026-05-01T07:39:49.002Z</time></trkpt><trkpt lat="45.415494415975395" lon="9.250877862161033"><ele>99.5</ele><time>2026-05-01T07:39:50.002Z</time></trkpt><trkpt lat="45.415336683533525" lon="9.251116978888835"><ele>99.0</ele><time>2026-05-01T07:39:51.002Z</time></trkpt><trkpt lat="45.415178978790834" lon="9.251357534528836"><ele>99.0</ele><time>2026-05-01T07:39:52.003Z</time></trkpt><trkpt lat="45.41501927740617" lon="9.251596564151306"><ele>99.0</ele><time>2026-05-01T07:39:53.003Z</time></trkpt><trkpt lat="45.41486011364515" lon="9.251832632579367"><ele>99.0</ele><time>2026-05-01T07:39:54.003Z</time></trkpt><trkpt lat="45.414700947412186" lon="9.25206520700434"><ele>99.0</ele><time>2026-05-01T07:39:55.003Z</time></trkpt><trkpt lat="45.41454018019148" lon="9.252295360869793"><ele>101.33333333333334</ele><time>2026-05-01T07:39:56.003Z</time></trkpt><trkpt lat="45.414379909375455" lon="9.25251860453437"><ele>103.66666666666667</ele><time>2026-05-01T07:39:57.003Z</time></trkpt><trkpt lat="45.4142218212206" lon="9.252742218010928"><ele>106.0</ele><time>2026-05-01T07:39:58.003Z</time></trkpt><trkpt lat="45.41406233549046" lon="9.252966311947857"><ele>105.0</ele><time>2026-05-01T07:39:59.003Z</time></trkpt><trkpt lat="45.413905133667306" lon="9.253188255428698"><ele>104.0</ele><time>2026-05-01T07:40:00.003Z</time></trkpt><trkpt lat="45.41374542750495" lon="9.253412083802699"><ele>103.0</ele><time>2026-05-01T07:40:01.003Z</time></trkpt><trkpt lat="45.41358165494854" lon="9.253636051072151"><ele>103.0</ele><time>2026-05-01T07:40:02.003Z</time></trkpt><trkpt lat="45.41341698821843" lon="9.253859746138959"><ele>103.0</ele><time>2026-05-01T07:40:03.003Z</time></trkpt><trkpt lat="45.41325316896389" lon="9.254080047826136"><ele>102.0</ele><time>2026-05-01T07:40:04.003Z</time></trkpt><trkpt lat="45.413086956525554" lon="9.25430043880193"><ele>101.0</ele><time>2026-05-01T07:40:05.003Z</time></trkpt><trkpt lat="45.4129203532263" lon="9.25451816242933"><ele>100.5</ele><time>2026-05-01T07:40:06.003Z</time></trkpt><trkpt lat="45.412751738716814" lon="9.254737852774255"><ele>100.0</ele><time>2026-05-01T07:40:07.003Z</time></trkpt><trkpt lat="45.412582238611364" lon="9.254955756244247"><ele>100.0</ele><time>2026-05-01T07:40:08.003Z</time></trkpt><trkpt lat="45.412413789098544" lon="9.255171583054283"><ele>100.0</ele><time>2026-05-01T07:40:09.003Z</time></trkpt><trkpt lat="45.41224448376458" lon="9.255386010537492"><ele>100.0</ele><time>2026-05-01T07:40:10.003Z</time></trkpt><trkpt lat="45.41207435756428" lon="9.255601291383359"><ele>100.0</ele><time>2026-05-01T07:40:11.003Z</time></trkpt><trkpt lat="45.41190022203553" lon="9.255820634269968"><ele>100.0</ele><time>2026-05-01T07:40:12.003Z</time></trkpt><trkpt lat="45.411724498963984" lon="9.256041548761162"><ele>100.0</ele><time>2026-05-01T07:40:13.003Z</time></trkpt><trkpt lat="45.411551191428366" lon="9.256259426442751"><ele>100.5</ele><time>2026-05-01T07:40:14.003Z</time></trkpt><trkpt lat="45.411379458914716" lon="9.256475890219845"><ele>101.0</ele><time>2026-05-01T07:40:15.003Z</time></trkpt><trkpt lat="45.411206402586856" lon="9.256694652877538"><ele>100.0</ele><time>2026-05-01T07:40:16.003Z</time></trkpt><trkpt lat="45.41103241840202" lon="9.256914960071521"><ele>99.0</ele><time>2026-05-01T07:40:16.997Z</time></trkpt><trkpt lat="45.410855572406014" lon="9.257134097574287"><ele>100.5</ele><time>2026-05-01T07:40:17.997Z</time></trkpt><trkpt lat="45.410679158520054" lon="9.257355772790762"><ele>102.0</ele><time>2026-05-01T07:40:18.997Z</time></trkpt><trkpt lat="45.41050210761722" lon="9.257576520064491"><ele>101.0</ele><time>2026-05-01T07:40:19.997Z</time></trkpt><trkpt lat="45.41032508905142" lon="9.257794653304483"><ele>100.0</ele><time>2026-05-01T07:40:20.997Z</time></trkpt><trkpt lat="45.41014767664281" lon="9.258002509394107"><ele>101.0</ele><time>2026-05-01T07:40:21.998Z</time></trkpt><trkpt lat="45.409970634042466" lon="9.258213494718277"><ele>102.0</ele><time>2026-05-01T07:40:22.998Z</time></trkpt><trkpt lat="45.409794079619175" lon="9.258423760887487"><ele>100.66666666666666</ele><time>2026-05-01T07:40:23.998Z</time></trkpt><trkpt lat="45.40961940612732" lon="9.258631080237414"><ele>99.33333333333333</ele><time>2026-05-01T07:40:24.998Z</time></trkpt><trkpt lat="45.40945086805389" lon="9.258837245221878"><ele>98.0</ele><time>2026-05-01T07:40:25.998Z</time></trkpt><trkpt lat="45.40928359263071" lon="9.25904371458677"><ele>98.0</ele><time>2026-05-01T07:40:26.998Z</time></trkpt><trkpt lat="45.409118490630505" lon="9.259248710750711"><ele>98.0</ele><time>2026-05-01T07:40:27.998Z</time></trkpt><trkpt lat="45.40895271039771" lon="9.259452068339368"><ele>98.0</ele><time>2026-05-01T07:40:28.998Z</time></trkpt><trkpt lat="45.40878901990129" lon="9.259655288911103"><ele>98.0</ele><time>2026-05-01T07:40:29.998Z</time></trkpt><trkpt lat="45.40862302063321" lon="9.259851392478966"><ele>98.0</ele><time>2026-05-01T07:40:30.999Z</time></trkpt><trkpt lat="45.408450186144165" lon="9.260038701919534"><ele>98.0</ele><time>2026-05-01T07:40:31.999Z</time></trkpt><trkpt lat="45.40827538561305" lon="9.260214521073022"><ele>98.0</ele><time>2026-05-01T07:40:32.999Z</time></trkpt><trkpt lat="45.408095774917705" lon="9.260373548261057"><ele>98.0</ele><time>2026-05-01T07:40:33.999Z</time></trkpt><trkpt lat="45.40791021040864" lon="9.26052112174947"><ele>98.0</ele><time>2026-05-01T07:40:34.999Z</time></trkpt><trkpt lat="45.407720231625234" lon="9.260655885605066"><ele>98.0</ele><time>2026-05-01T07:40:35.999Z</time></trkpt><trkpt lat="45.407524114379875" lon="9.26077984148862"><ele>98.0</ele><time>2026-05-01T07:40:36.999Z</time></trkpt><trkpt lat="45.407320154804005" lon="9.260888384203144"><ele>98.0</ele><time>2026-05-01T07:40:37.999Z</time></trkpt><trkpt lat="45.40711380579015" lon="9.260981975679014"><ele>98.33333333333333</ele><time>2026-05-01T07:40:38.999Z</time></trkpt><trkpt lat="45.40690516557744" lon="9.261063976870444"><ele>98.66666666666666</ele><time>2026-05-01T07:40:39.999Z</time></trkpt><trkpt lat="45.40669279235473" lon="9.261131536068104"><ele>99.0</ele><time>2026-05-01T07:40:41Z</time></trkpt><trkpt lat="45.40648363815161" lon="9.261179287226826"><ele>99.33333333333334</ele><time>2026-05-01T07:40:42Z</time></trkpt><trkpt lat="45.4062728069718" lon="9.261215011973055"><ele>99.66666666666667</ele><time>2026-05-01T07:40:43Z</time></trkpt><trkpt lat="45.40606271302155" lon="9.26123675895682"><ele>100.0</ele><time>2026-05-01T07:40:44Z</time></trkpt><trkpt lat="45.405856274141385" lon="9.261238365427241"><ele>100.0</ele><time>2026-05-01T07:40:45Z</time></trkpt><trkpt lat="45.405654650146374" lon="9.261234832672452"><ele>100.0</ele><time>2026-05-01T07:40:46Z</time></trkpt><trkpt lat="45.40545449480783" lon="9.261221028915713"><ele>100.0</ele><time>2026-05-01T07:40:47Z</time></trkpt><trkpt lat="45.405258176050054" lon="9.261207996666638"><ele>99.33333333333334</ele><time>2026-05-01T07:40:48Z</time></trkpt><trkpt lat="45.40506125208911" lon="9.261196193985658"><ele>98.66666666666666</ele><time>2026-05-01T07:40:49Z</time></trkpt><trkpt lat="45.404863998394106" lon="9.261184689282343"><ele>98.0</ele><time>2026-05-01T07:40:50Z</time></trkpt><trkpt lat="45.4046668794837" lon="9.261169290413221"><ele>98.33333333333333</ele><time>2026-05-01T07:40:51Z</time></trkpt><trkpt lat="45.404471214818926" lon="9.261147081849694"><ele>98.66666666666666</ele><time>2026-05-01T07:40:52Z</time></trkpt><trkpt lat="45.404272276773206" lon="9.261123493700836"><ele>99.0</ele><time>2026-05-01T07:40:53Z</time></trkpt><trkpt lat="45.40407421673774" lon="9.261102095113028"><ele>99.0</ele><time>2026-05-01T07:40:54Z</time></trkpt><trkpt lat="45.403871547590576" lon="9.261079876511468"><ele>99.0</ele><time>2026-05-01T07:40:55Z</time></trkpt><trkpt lat="45.4036665803815" lon="9.261056131583583"><ele>99.0</ele><time>2026-05-01T07:40:56Z</time></trkpt><trkpt lat="45.40346131564284" lon="9.26103483031139"><ele>99.0</ele><time>2026-05-01T07:40:57Z</time></trkpt><trkpt lat="45.40325822378748" lon="9.261016254389455"><ele>99.0</ele><time>2026-05-01T07:40:58.001Z</time></trkpt><trkpt lat="45.40305525747301" lon="9.260994979175008"><ele>99.0</ele><time>2026-05-01T07:40:59.001Z</time></trkpt><trkpt lat="45.40285361633298" lon="9.260972922747468"><ele>99.0</ele><time>2026-05-01T07:41:00.001Z</time></trkpt><trkpt lat="45.4026531545293" lon="9.260949536114161"><ele>99.0</ele><time>2026-05-01T07:41:01.001Z</time></trkpt><trkpt lat="45.40246041153717" lon="9.260929969989318"><ele>99.0</ele><time>2026-05-01T07:41:02.001Z</time></trkpt><trkpt lat="45.40226779584757" lon="9.260916285318933"><ele>99.0</ele><time>2026-05-01T07:41:03.001Z</time></trkpt><trkpt lat="45.402079444405366" lon="9.260899067624642"><ele>99.0</ele><time>2026-05-01T07:41:04.001Z</time></trkpt><trkpt lat="45.401892347597226" lon="9.260876134144066"><ele>99.0</ele><time>2026-05-01T07:41:05.001Z</time></trkpt><trkpt lat="45.401707573810626" lon="9.260854566106191"><ele>99.0</ele><time>2026-05-01T07:41:06.001Z</time></trkpt><trkpt lat="45.401524144719204" lon="9.260830150000347"><ele>99.0</ele><time>2026-05-01T07:41:07.001Z</time></trkpt><trkpt lat="45.40134172903122" lon="9.260810293383097"><ele>99.0</ele><time>2026-05-01T07:41:08.001Z</time></trkpt><trkpt lat="45.40115857195073" lon="9.260788958124321"><ele>98.66666666666666</ele><time>2026-05-01T07:41:09.001Z</time></trkpt><trkpt lat="45.40097593199835" lon="9.260767638132888"><ele>98.33333333333333</ele><time>2026-05-01T07:41:10.001Z</time></trkpt><trkpt lat="45.40079580724628" lon="9.26074321949464"><ele>98.0</ele><time>2026-05-01T07:41:11.001Z</time></trkpt><trkpt lat="45.40061460236459" lon="9.260720677073554"><ele>98.0</ele><time>2026-05-01T07:41:12.001Z</time></trkpt><trkpt lat="45.40043544954518" lon="9.260699252435877"><ele>98.0</ele><time>2026-05-01T07:41:13.001Z</time></trkpt><trkpt lat="45.400251150932974" lon="9.26067714867671"><ele>98.0</ele><time>2026-05-01T07:41:14.001Z</time></trkpt><trkpt lat="45.40006499163691" lon="9.260657727692713"><ele>98.0</ele><time>2026-05-01T07:41:15.001Z</time></trkpt><trkpt lat="45.39987780427042" lon="9.260638902708115"><ele>98.0</ele><time>2026-05-01T07:41:16.001Z</time></trkpt><trkpt lat="45.39968794375773" lon="9.260618433601417"><ele>98.0</ele><time>2026-05-01T07:41:17.001Z</time></trkpt><trkpt lat="45.39949726552525" lon="9.26059776399793"><ele>98.66666666666666</ele><time>2026-05-01T07:41:18.001Z</time></trkpt><trkpt lat="45.39930404574856" lon="9.260578645930295"><ele>99.33333333333334</ele><time>2026-05-01T07:41:19.001Z</time></trkpt><trkpt lat="45.39910718473322" lon="9.260557342493685"><ele>100.0</ele><time>2026-05-01T07:41:20.001Z</time></trkpt><trkpt lat="45.39890763368082" lon="9.260531358291564"><ele>100.33333333333334</ele><time>2026-05-01T07:41:21.001Z</time></trkpt><trkpt lat="45.39870674420696" lon="9.26051144123214"><ele>100.66666666666666</ele><time>2026-05-01T07:41:22.001Z</time></trkpt><trkpt lat="45.39850409728706" lon="9.260489884952687"><ele>101.0</ele><time>2026-05-01T07:41:23.001Z</time></trkpt><trkpt lat="45.398300371765856" lon="9.260467122334992"><ele>101.0</ele><time>2026-05-01T07:41:24.002Z</time></trkpt><trkpt lat="45.398095644870594" lon="9.260445087094524"><ele>101.0</ele><time>2026-05-01T07:41:25.002Z</time></trkpt><trkpt lat="45.397892145850946" lon="9.260421786744008"><ele>101.0</ele><time>2026-05-01T07:41:26.002Z</time></trkpt><trkpt lat="45.39768797106807" lon="9.260396209747634"><ele>101.0</ele><time>2026-05-01T07:41:27.002Z</time></trkpt><trkpt lat="45.39749000228807" lon="9.260371442748243"><ele>101.0</ele><time>2026-05-01T07:41:28.002Z</time></trkpt><trkpt lat="45.397294320361326" lon="9.260348730423797"><ele>101.0</ele><time>2026-05-01T07:41:29.002Z</time></trkpt><trkpt lat="45.397101128338" lon="9.260327759740788"><ele>100.66666666666666</ele><time>2026-05-01T07:41:30.002Z</time></trkpt><trkpt lat="45.39690728990431" lon="9.260306032153427"><ele>100.33333333333334</ele><time>2026-05-01T07:41:31.002Z</time></trkpt><trkpt lat="45.396716210925256" lon="9.2602850607136"><ele>100.0</ele><time>2026-05-01T07:41:32.002Z</time></trkpt><trkpt lat="45.39652364595848" lon="9.260266587038592"><ele>100.0</ele><time>2026-05-01T07:41:33.002Z</time></trkpt><trkpt lat="45.396335573384235" lon="9.260250016801997"><ele>100.0</ele><time>2026-05-01T07:41:34.002Z</time></trkpt><trkpt lat="45.39614624798994" lon="9.260234744686874"><ele>100.0</ele><time>2026-05-01T07:41:35.002Z</time></trkpt><trkpt lat="45.39595457140261" lon="9.260222202776903"><ele>100.0</ele><time>2026-05-01T07:41:36.002Z</time></trkpt><trkpt lat="45.39575998479194" lon="9.26020955270979"><ele>100.0</ele><time>2026-05-01T07:41:37.002Z</time></trkpt><trkpt lat="45.39556191238327" lon="9.26019879652422"><ele>100.0</ele><time>2026-05-01T07:41:38.002Z</time></trkpt><trkpt lat="45.39536471526303" lon="9.26019869414143"><ele>100.0</ele><time>2026-05-01T07:41:39.002Z</time></trkpt><trkpt lat="45.39517029421817" lon="9.260204954365221"><ele>100.0</ele><time>2026-05-01T07:41:40.002Z</time></trkpt><trkpt lat="45.39497749485761" lon="9.260218285128694"><ele>100.0</ele><time>2026-05-01T07:41:41.002Z</time></trkpt><trkpt lat="45.39478531630669" lon="9.260234535869888"><ele>100.66666666666667</ele><time>2026-05-01T07:41:42.002Z</time></trkpt><trkpt lat="45.39459710402471" lon="9.260255229490154"><ele>101.33333333333334</ele><time>2026-05-01T07:41:43.002Z</time></trkpt><trkpt lat="45.394407615577464" lon="9.260278256854454"><ele>102.0</ele><time>2026-05-01T07:41:44.002Z</time></trkpt><trkpt lat="45.394215176424744" lon="9.260305660250312"><ele>102.0</ele><time>2026-05-01T07:41:45.002Z</time></trkpt><trkpt lat="45.39402385912399" lon="9.260337634331599"><ele>102.0</ele><time>2026-05-01T07:41:46.002Z</time></trkpt><trkpt lat="45.39383426579263" lon="9.260371126963811"><ele>102.0</ele><time>2026-05-01T07:41:47.002Z</time></trkpt><trkpt lat="45.39364570115598" lon="9.260410645897974"><ele>101.66666666666666</ele><time>2026-05-01T07:41:48.002Z</time></trkpt><trkpt lat="45.393457192581764" lon="9.260457913846635"><ele>101.33333333333333</ele><time>2026-05-01T07:41:49.002Z</time></trkpt><trkpt lat="45.39327283627542" lon="9.260508625432298"><ele>101.0</ele><time>2026-05-01T07:41:50.002Z</time></trkpt><trkpt lat="45.39308939318045" lon="9.260563214081218"><ele>101.0</ele><time>2026-05-01T07:41:51.002Z</time></trkpt><trkpt lat="45.392908769703496" lon="9.260620053691945"><ele>101.0</ele><time>2026-05-01T07:41:52.002Z</time></trkpt><trkpt lat="45.39273203215633" lon="9.260680131508755"><ele>101.0</ele><time>2026-05-01T07:41:53.002Z</time></trkpt><trkpt lat="45.39256697071061" lon="9.260742560899429"><ele>101.0</ele><time>2026-05-01T07:41:54.002Z</time></trkpt><trkpt lat="45.392394800176845" lon="9.260810392254756"><ele>101.0</ele><time>2026-05-01T07:41:55.002Z</time></trkpt><trkpt lat="45.39221936949778" lon="9.260885198013534"><ele>101.0</ele><time>2026-05-01T07:41:56.003Z</time></trkpt><trkpt lat="45.392038155188324" lon="9.260968040235195"><ele>100.0</ele><time>2026-05-01T07:41:57.003Z</time></trkpt><trkpt lat="45.39185807874215" lon="9.26107581079148"><ele>99.0</ele><time>2026-05-01T07:41:58.003Z</time></trkpt><trkpt lat="45.39166651097299" lon="9.261195496535263"><ele>98.0</ele><time>2026-05-01T07:41:59.003Z</time></trkpt><trkpt lat="45.391489313578106" lon="9.261304714784721"><ele>98.5</ele><time>2026-05-01T07:42:00.003Z</time></trkpt><trkpt lat="45.39125006515926" lon="9.261426136380075"><ele>99.0</ele><time>2026-05-01T07:42:01.003Z</time></trkpt><trkpt lat="45.39103634667797" lon="9.26154634708675"><ele>99.0</ele><time>2026-05-01T07:42:02.003Z</time></trkpt><trkpt lat="45.39082482801059" lon="9.261669194848775"><ele>99.0</ele><time>2026-05-01T07:42:03.003Z</time></trkpt><trkpt lat="45.39061741790746" lon="9.26179725911308"><ele>99.0</ele><time>2026-05-01T07:42:04.003Z</time></trkpt><trkpt lat="45.39041542454633" lon="9.261932021701014"><ele>99.0</ele><time>2026-05-01T07:42:05.003Z</time></trkpt><trkpt lat="45.390220739292694" lon="9.262071392496088"><ele>99.0</ele><time>2026-05-01T07:42:06.003Z</time></trkpt><trkpt lat="45.39003302477182" lon="9.262214418295684"><ele>98.33333333333334</ele><time>2026-05-01T07:42:07.003Z</time></trkpt><trkpt lat="45.38984807957656" lon="9.262368223104053"><ele>97.66666666666667</ele><time>2026-05-01T07:42:08.003Z</time></trkpt><trkpt lat="45.389666815234456" lon="9.262529801899522"><ele>97.0</ele><time>2026-05-01T07:42:09.003Z</time></trkpt><trkpt lat="45.38948659001065" lon="9.262694642033491"><ele>97.0</ele><time>2026-05-01T07:42:10.003Z</time></trkpt><trkpt lat="45.38931036191938" lon="9.262860850910222"><ele>97.0</ele><time>2026-05-01T07:42:11.003Z</time></trkpt><trkpt lat="45.38913623601979" lon="9.263029902621582"><ele>97.0</ele><time>2026-05-01T07:42:12.003Z</time></trkpt><trkpt lat="45.388964710983466" lon="9.263201553990834"><ele>97.33333333333334</ele><time>2026-05-01T07:42:13.003Z</time></trkpt><trkpt lat="45.388793666745315" lon="9.263374150621015"><ele>97.66666666666666</ele><time>2026-05-01T07:42:14.003Z</time></trkpt><trkpt lat="45.388624053285184" lon="9.263547751984948"><ele>98.0</ele><time>2026-05-01T07:42:15.003Z</time></trkpt><trkpt lat="45.388455815005116" lon="9.263723448336336"><ele>98.0</ele><time>2026-05-01T07:42:16.003Z</time></trkpt><trkpt lat="45.38828557389548" lon="9.263903555625866"><ele>98.0</ele><time>2026-05-01T07:42:17.003Z</time></trkpt><trkpt lat="45.38811518313585" lon="9.26408456410869"><ele>98.0</ele><time>2026-05-01T07:42:18.003Z</time></trkpt><trkpt lat="45.38794801663179" lon="9.264270832580019"><ele>98.0</ele><time>2026-05-01T07:42:19.003Z</time></trkpt><trkpt lat="45.387780139148816" lon="9.264460134363798"><ele>98.0</ele><time>2026-05-01T07:42:20.003Z</time></trkpt><trkpt lat="45.387614406562726" lon="9.26465282230503"><ele>98.0</ele><time>2026-05-01T07:42:21.003Z</time></trkpt><trkpt lat="45.38744944632231" lon="9.264846301240112"><ele>98.0</ele><time>2026-05-01T07:42:22.003Z</time></trkpt><trkpt lat="45.38728190356651" lon="9.265038742119566"><ele>98.0</ele><time>2026-05-01T07:42:22.998Z</time></trkpt><trkpt lat="45.38711364936053" lon="9.265232248451042"><ele>98.0</ele><time>2026-05-01T07:42:23.999Z</time></trkpt><trkpt lat="45.38694699699347" lon="9.265427094555475"><ele>97.66666666666666</ele><time>2026-05-01T07:42:24.999Z</time></trkpt><trkpt lat="45.38678121082324" lon="9.265621436697508"><ele>97.33333333333334</ele><time>2026-05-01T07:42:25.999Z</time></trkpt><trkpt lat="45.38661721190015" lon="9.265816004005714"><ele>97.0</ele><time>2026-05-01T07:42:26.999Z</time></trkpt><trkpt lat="45.38645336090689" lon="9.266008356437188"><ele>97.0</ele><time>2026-05-01T07:42:27.999Z</time></trkpt><trkpt lat="45.3862932851118" lon="9.26619557164479"><ele>97.0</ele><time>2026-05-01T07:42:28.999Z</time></trkpt><trkpt lat="45.38614630797919" lon="9.266396250883679"><ele>97.0</ele><time>2026-05-01T07:42:29.999Z</time></trkpt><trkpt lat="45.38600322191577" lon="9.26658499256168"><ele>97.0</ele><time>2026-05-01T07:42:30.999Z</time></trkpt><trkpt lat="45.385860747263536" lon="9.266756256858148"><ele>97.0</ele><time>2026-05-01T07:42:31.999Z</time></trkpt><trkpt lat="45.385696499661925" lon="9.26688276636052"><ele>97.0</ele><time>2026-05-01T07:42:32.999Z</time></trkpt><trkpt lat="45.385548846605765" lon="9.267038075167333"><ele>97.0</ele><time>2026-05-01T07:42:33.999Z</time></trkpt><trkpt lat="45.38539429819815" lon="9.267177798556661"><ele>97.0</ele><time>2026-05-01T07:42:34.999Z</time></trkpt><trkpt lat="45.38523266652382" lon="9.267289557851834"><ele>97.0</ele><time>2026-05-01T07:42:35.999Z</time></trkpt><trkpt lat="45.38506201635298" lon="9.267389621680023"><ele>97.0</ele><time>2026-05-01T07:42:36.999Z</time></trkpt><trkpt lat="45.38488746278491" lon="9.267467217919883"><ele>97.0</ele><time>2026-05-01T07:42:37.999Z</time></trkpt><trkpt lat="45.38471454203646" lon="9.267527269668125"><ele>97.0</ele><time>2026-05-01T07:42:39Z</time></trkpt><trkpt lat="45.38453457516627" lon="9.26754401672928"><ele>97.66666666666667</ele><time>2026-05-01T07:42:40Z</time></trkpt><trkpt lat="45.384351812548395" lon="9.26753986428988"><ele>98.33333333333334</ele><time>2026-05-01T07:42:41Z</time></trkpt><trkpt lat="45.384178485075225" lon="9.267509978817417"><ele>99.0</ele><time>2026-05-01T07:42:42Z</time></trkpt><trkpt lat="45.3840052508157" lon="9.26745229392461"><ele>99.33333333333334</ele><time>2026-05-01T07:42:43Z</time></trkpt><trkpt lat="45.38384360724087" lon="9.267367777956402"><ele>99.66666666666667</ele><time>2026-05-01T07:42:44Z</time></trkpt><trkpt lat="45.38369544434019" lon="9.267261708969198"><ele>100.0</ele><time>2026-05-01T07:42:45Z</time></trkpt><trkpt lat="45.38355782652498" lon="9.267133713156921"><ele>100.33333333333334</ele><time>2026-05-01T07:42:46Z</time></trkpt><trkpt lat="45.383426963124535" lon="9.266973549081305"><ele>100.66666666666666</ele><time>2026-05-01T07:42:47Z</time></trkpt><trkpt lat="45.383306849983555" lon="9.266790384387273"><ele>101.0</ele><time>2026-05-01T07:42:48Z</time></trkpt><trkpt lat="45.3831949500764" lon="9.266598763515917"><ele>100.33333333333333</ele><time>2026-05-01T07:42:49Z</time></trkpt><trkpt lat="45.38308564709837" lon="9.266414526635183"><ele>99.66666666666666</ele><time>2026-05-01T07:42:50Z</time></trkpt><trkpt lat="45.38296668868035" lon="9.266238673947962"><ele>99.0</ele><time>2026-05-01T07:42:51Z</time></trkpt><trkpt lat="45.382850850992156" lon="9.26605307524882"><ele>99.33333333333334</ele><time>2026-05-01T07:42:52Z</time></trkpt><trkpt lat="45.38274507121682" lon="9.265854336514101"><ele>99.66666666666667</ele><time>2026-05-01T07:42:53Z</time></trkpt><trkpt lat="45.38264880558252" lon="9.265638072080115"><ele>100.0</ele><time>2026-05-01T07:42:54Z</time></trkpt><trkpt lat="45.38256300635673" lon="9.265411854928722"><ele>100.0</ele><time>2026-05-01T07:42:55Z</time></trkpt><trkpt lat="45.38248925298898" lon="9.265174227529004"><ele>100.0</ele><time>2026-05-01T07:42:56Z</time></trkpt><trkpt lat="45.382429722743595" lon="9.264927057031478"><ele>100.0</ele><time>2026-05-01T07:42:57Z</time></trkpt><trkpt lat="45.382388900022264" lon="9.264669005191124"><ele>99.0</ele><time>2026-05-01T07:42:58Z</time></trkpt><trkpt lat="45.382365921960435" lon="9.264409096304613"><ele>98.0</ele><time>2026-05-01T07:42:59.001Z</time></trkpt><trkpt lat="45.38236183723995" lon="9.264142207091439"><ele>97.0</ele><time>2026-05-01T07:43:00.001Z</time></trkpt><trkpt lat="45.382375493641646" lon="9.263876218900764"><ele>97.0</ele><time>2026-05-01T07:43:01.001Z</time></trkpt><trkpt lat="45.38239615737196" lon="9.26361401749181"><ele>97.0</ele><time>2026-05-01T07:43:02.001Z</time></trkpt><trkpt lat="45.38241314285664" lon="9.263350314543715"><ele>97.0</ele><time>2026-05-01T07:43:03.001Z</time></trkpt><trkpt lat="45.3824264922546" lon="9.263085301498407"><ele>97.33333333333334</ele><time>2026-05-01T07:43:04.001Z</time></trkpt><trkpt lat="45.38244069899776" lon="9.262818807327548"><ele>97.66666666666666</ele><time>2026-05-01T07:43:05.001Z</time></trkpt><trkpt lat="45.38245747245761" lon="9.262553617685711"><ele>98.0</ele><time>2026-05-01T07:43:06.001Z</time></trkpt><trkpt lat="45.3824778808907" lon="9.262276880777003"><ele>98.33333333333333</ele><time>2026-05-01T07:43:07.001Z</time></trkpt><trkpt lat="45.382498082097726" lon="9.261999215480087"><ele>98.66666666666666</ele><time>2026-05-01T07:43:08.001Z</time></trkpt><trkpt lat="45.38251671943591" lon="9.261722156205057"><ele>99.0</ele><time>2026-05-01T07:43:09.001Z</time></trkpt><trkpt lat="45.38253392717274" lon="9.261442933862236"><ele>98.33333333333334</ele><time>2026-05-01T07:43:10.001Z</time></trkpt><trkpt lat="45.38255192645903" lon="9.261161324394829"><ele>97.66666666666667</ele><time>2026-05-01T07:43:11.001Z</time></trkpt><trkpt lat="45.38256889029594" lon="9.260881255526424"><ele>97.0</ele><time>2026-05-01T07:43:12.001Z</time></trkpt><trkpt lat="45.38258660152469" lon="9.260597502680195"><ele>97.0</ele><time>2026-05-01T07:43:13.001Z</time></trkpt><trkpt lat="45.38260231237362" lon="9.260310819352194"><ele>97.0</ele><time>2026-05-01T07:43:14.001Z</time></trkpt><trkpt lat="45.382616532400014" lon="9.260025688319082"><ele>97.0</ele><time>2026-05-01T07:43:15.001Z</time></trkpt><trkpt lat="45.38262989981304" lon="9.259740870479371"><ele>97.33333333333334</ele><time>2026-05-01T07:43:16.001Z</time></trkpt><trkpt lat="45.382645557701395" lon="9.259454349999473"><ele>97.66666666666666</ele><time>2026-05-01T07:43:17.001Z</time></trkpt><trkpt lat="45.38266278335346" lon="9.259168314212866"><ele>98.0</ele><time>2026-05-01T07:43:18.001Z</time></trkpt><trkpt lat="45.382679119212845" lon="9.25888136093952"><ele>98.0</ele><time>2026-05-01T07:43:19.001Z</time></trkpt><trkpt lat="45.382693507945085" lon="9.258593239323531"><ele>98.0</ele><time>2026-05-01T07:43:20.001Z</time></trkpt><trkpt lat="45.38270756807776" lon="9.258301339150659"><ele>98.0</ele><time>2026-05-01T07:43:21.001Z</time></trkpt><trkpt lat="45.38271875468141" lon="9.258009575309162"><ele>98.0</ele><time>2026-05-01T07:43:22.001Z</time></trkpt><trkpt lat="45.382730931982756" lon="9.257714024460016"><ele>98.0</ele><time>2026-05-01T07:43:23.001Z</time></trkpt><trkpt lat="45.3827458184436" lon="9.25741447238116"><ele>98.0</ele><time>2026-05-01T07:43:24.001Z</time></trkpt><trkpt lat="45.38276276586235" lon="9.257114979675007"><ele>97.66666666666666</ele><time>2026-05-01T07:43:25.001Z</time></trkpt><trkpt lat="45.3827786886786" lon="9.256811250709346"><ele>97.33333333333334</ele><time>2026-05-01T07:43:26.001Z</time></trkpt><trkpt lat="45.38279630217481" lon="9.256504006505867"><ele>97.0</ele><time>2026-05-01T07:43:27.001Z</time></trkpt><trkpt lat="45.38281436486402" lon="9.256194525986704"><ele>97.0</ele><time>2026-05-01T07:43:28.002Z</time></trkpt><trkpt lat="45.382832244255816" lon="9.255882710234044"><ele>97.0</ele><time>2026-05-01T07:43:29.002Z</time></trkpt><trkpt lat="45.382854025100954" lon="9.255555237518227"><ele>97.33333333333334</ele><time>2026-05-01T07:43:30.002Z</time></trkpt><trkpt lat="45.38286985775954" lon="9.255241955817871"><ele>97.66666666666666</ele><time>2026-05-01T07:43:31.002Z</time></trkpt><trkpt lat="45.38288667472365" lon="9.254935190186488"><ele>98.0</ele><time>2026-05-01T07:43:32.002Z</time></trkpt><trkpt lat="45.3829054908929" lon="9.254623366808872"><ele>98.0</ele><time>2026-05-01T07:43:33.002Z</time></trkpt><trkpt lat="45.382925689081986" lon="9.254298546642307"><ele>98.0</ele><time>2026-05-01T07:43:34.002Z</time></trkpt><trkpt lat="45.38294624829028" lon="9.25394677235475"><ele>98.0</ele><time>2026-05-01T07:43:35.002Z</time></trkpt><trkpt lat="45.38296474461075" lon="9.253583576127559"><ele>98.0</ele><time>2026-05-01T07:43:36.002Z</time></trkpt><trkpt lat="45.38298020947053" lon="9.253248081896944"><ele>98.5</ele><time>2026-05-01T07:43:37.002Z</time></trkpt><trkpt lat="45.3829970389403" lon="9.252924541712991"><ele>99.0</ele><time>2026-05-01T07:43:38.002Z</time></trkpt><trkpt lat="45.383016381022706" lon="9.252602384055209"><ele>99.33333333333334</ele><time>2026-05-01T07:43:39.002Z</time></trkpt><trkpt lat="45.38303563501636" lon="9.252285389120646"><ele>99.66666666666667</ele><time>2026-05-01T07:43:40.002Z</time></trkpt><trkpt lat="45.383055235462216" lon="9.251976304237186"><ele>100.0</ele><time>2026-05-01T07:43:41.002Z</time></trkpt><trkpt lat="45.38307651529816" lon="9.251668768430488"><ele>100.0</ele><time>2026-05-01T07:43:42.002Z</time></trkpt><trkpt lat="45.38309725486775" lon="9.251361590423283"><ele>100.0</ele><time>2026-05-01T07:43:43.002Z</time></trkpt><trkpt lat="45.38311642649942" lon="9.25105525896071"><ele>100.0</ele><time>2026-05-01T07:43:44.002Z</time></trkpt><trkpt lat="45.383134583382734" lon="9.250747500593517"><ele>99.66666666666667</ele><time>2026-05-01T07:43:45.002Z</time></trkpt><trkpt lat="45.38315148357026" lon="9.250439023219634"><ele>99.33333333333334</ele><time>2026-05-01T07:43:46.002Z</time></trkpt><trkpt lat="45.38316782603125" lon="9.250131140055482"><ele>99.0</ele><time>2026-05-01T07:43:47.002Z</time></trkpt><trkpt lat="45.38318494059705" lon="9.249823805431943"><ele>98.66666666666666</ele><time>2026-05-01T07:43:48.002Z</time></trkpt><trkpt lat="45.38320203686993" lon="9.249514282167747"><ele>98.33333333333333</ele><time>2026-05-01T07:43:49.002Z</time></trkpt><trkpt lat="45.383221690918624" lon="9.249203854176022"><ele>98.0</ele><time>2026-05-01T07:43:50.002Z</time></trkpt><trkpt lat="45.38324122393998" lon="9.248886203245387"><ele>98.0</ele><time>2026-05-01T07:43:51.002Z</time></trkpt><trkpt lat="45.38325956253918" lon="9.248569151705372"><ele>98.0</ele><time>2026-05-01T07:43:52.002Z</time></trkpt><trkpt lat="45.38327980450702" lon="9.248248303836792"><ele>98.5</ele><time>2026-05-01T07:43:53.002Z</time></trkpt><trkpt lat="45.383298938505014" lon="9.247930203382447"><ele>99.0</ele><time>2026-05-01T07:43:54.002Z</time></trkpt><trkpt lat="45.38331913091653" lon="9.247609771050072"><ele>98.66666666666666</ele><time>2026-05-01T07:43:55.002Z</time></trkpt><trkpt lat="45.383335232241535" lon="9.247293738538874"><ele>98.33333333333333</ele><time>2026-05-01T07:43:56.002Z</time></trkpt><trkpt lat="45.383352023422454" lon="9.246976831862247"><ele>98.0</ele><time>2026-05-01T07:43:57.002Z</time></trkpt><trkpt lat="45.383370182526726" lon="9.246660879270225"><ele>98.0</ele><time>2026-05-01T07:43:58.002Z</time></trkpt><trkpt lat="45.38338994124274" lon="9.246347597268032"><ele>98.0</ele><time>2026-05-01T07:43:59.002Z</time></trkpt><trkpt lat="45.383408787089294" lon="9.246032164230435"><ele>98.0</ele><time>2026-05-01T07:44:00.003Z</time></trkpt><trkpt lat="45.3834281672846" lon="9.245714852075073"><ele>98.0</ele><time>2026-05-01T07:44:01.003Z</time></trkpt><trkpt lat="45.3834490286299" lon="9.245397604028964"><ele>98.0</ele><time>2026-05-01T07:44:02.003Z</time></trkpt><trkpt lat="45.38346915384983" lon="9.245081120866631"><ele>98.0</ele><time>2026-05-01T07:44:03.003Z</time></trkpt><trkpt lat="45.38349133922129" lon="9.244760452531933"><ele>98.0</ele><time>2026-05-01T07:44:04.003Z</time></trkpt><trkpt lat="45.38351664942146" lon="9.244447373798728"><ele>98.0</ele><time>2026-05-01T07:44:05.003Z</time></trkpt><trkpt lat="45.38354291569859" lon="9.24413416047644"><ele>98.0</ele><time>2026-05-01T07:44:06.003Z</time></trkpt><trkpt lat="45.38356970598347" lon="9.24381991705379"><ele>98.0</ele><time>2026-05-01T07:44:07.003Z</time></trkpt><trkpt lat="45.383598974255946" lon="9.243501739231128"><ele>98.0</ele><time>2026-05-01T07:44:08.003Z</time></trkpt><trkpt lat="45.38362904112805" lon="9.243185244544607"><ele>98.0</ele><time>2026-05-01T07:44:09.003Z</time></trkpt><trkpt lat="45.38365928182322" lon="9.242871182421553"><ele>98.0</ele><time>2026-05-01T07:44:10.003Z</time></trkpt><trkpt lat="45.3836917089392" lon="9.242554676310535"><ele>98.0</ele><time>2026-05-01T07:44:11.003Z</time></trkpt><trkpt lat="45.38372733596946" lon="9.242239591241294"><ele>98.0</ele><time>2026-05-01T07:44:12.003Z</time></trkpt><trkpt lat="45.383767420848834" lon="9.241922623424227"><ele>98.0</ele><time>2026-05-01T07:44:13.003Z</time></trkpt><trkpt lat="45.38380973114699" lon="9.241607793130775"><ele>99.0</ele><time>2026-05-01T07:44:14.003Z</time></trkpt><trkpt lat="45.38385460221013" lon="9.241293365163886"><ele>100.0</ele><time>2026-05-01T07:44:15.003Z</time></trkpt><trkpt lat="45.38390202753246" lon="9.240978277694731"><ele>100.0</ele><time>2026-05-01T07:44:16.003Z</time></trkpt><trkpt lat="45.38394701759659" lon="9.240663747545856"><ele>100.0</ele><time>2026-05-01T07:44:17.003Z</time></trkpt><trkpt lat="45.38399398863905" lon="9.240345472690109"><ele>100.0</ele><time>2026-05-01T07:44:18.003Z</time></trkpt><trkpt lat="45.38404159943471" lon="9.240028730743571"><ele>100.0</ele><time>2026-05-01T07:44:19.003Z</time></trkpt><trkpt lat="45.3840929897716" lon="9.239714505763041"><ele>100.0</ele><time>2026-05-01T07:44:20.003Z</time></trkpt><trkpt lat="45.38414750296744" lon="9.23940135269465"><ele>100.0</ele><time>2026-05-01T07:44:21.003Z</time></trkpt><trkpt lat="45.38420418554869" lon="9.239087438632923"><ele>100.0</ele><time>2026-05-01T07:44:22.003Z</time></trkpt><trkpt lat="45.38426301243257" lon="9.238773073096253"><ele>100.0</ele><time>2026-05-01T07:44:23.003Z</time></trkpt><trkpt lat="45.384324271203944" lon="9.238456550290685"><ele>100.0</ele><time>2026-05-01T07:44:24.003Z</time></trkpt><trkpt lat="45.384387395539584" lon="9.23813843717726"><ele>100.0</ele><time>2026-05-01T07:44:25.003Z</time></trkpt><trkpt lat="45.38445188362528" lon="9.23782250030051"><ele>99.5</ele><time>2026-05-01T07:44:26.003Z</time></trkpt><trkpt lat="45.38451877231404" lon="9.2375073899441"><ele>99.0</ele><time>2026-05-01T07:44:27.003Z</time></trkpt><trkpt lat="45.384586793899516" lon="9.237194363160869"><ele>99.0</ele><time>2026-05-01T07:44:28.003Z</time></trkpt><trkpt lat="45.38465672099619" lon="9.236881761814887"><ele>99.0</ele><time>2026-05-01T07:44:28.999Z</time></trkpt><trkpt lat="45.38473034927108" lon="9.236563971436361"><ele>100.0</ele><time>2026-05-01T07:44:29.999Z</time></trkpt><trkpt lat="45.38480703188456" lon="9.236243490684837"><ele>101.0</ele><time>2026-05-01T07:44:30.999Z</time></trkpt><trkpt lat="45.38488505264098" lon="9.235926057016288"><ele>100.5</ele><time>2026-05-01T07:44:31.999Z</time></trkpt><trkpt lat="45.384964584858345" lon="9.235608865408455"><ele>100.0</ele><time>2026-05-01T07:44:32.999Z</time></trkpt><trkpt lat="45.385043340238845" lon="9.235295363148133"><ele>100.0</ele><time>2026-05-01T07:44:33.999Z</time></trkpt><trkpt lat="45.38512446759931" lon="9.234979362637599"><ele>100.0</ele><time>2026-05-01T07:44:34.999Z</time></trkpt><trkpt lat="45.385202230332084" lon="9.23466495707658"><ele>100.0</ele><time>2026-05-01T07:44:35.999Z</time></trkpt><trkpt lat="45.3852764256429" lon="9.234350605182264"><ele>100.0</ele><time>2026-05-01T07:44:37Z</time></trkpt><trkpt lat="45.38535234985944" lon="9.234036142942927"><ele>101.0</ele><time>2026-05-01T07:44:38Z</time></trkpt><trkpt lat="45.38542843329413" lon="9.233724526480641"><ele>102.0</ele><time>2026-05-01T07:44:39Z</time></trkpt><trkpt lat="45.38550475271694" lon="9.233412682486415"><ele>101.5</ele><time>2026-05-01T07:44:40Z</time></trkpt><trkpt lat="45.38558329024358" lon="9.23310034351699"><ele>101.0</ele><time>2026-05-01T07:44:41Z</time></trkpt><trkpt lat="45.3856565057994" lon="9.232787908467115"><ele>101.0</ele><time>2026-05-01T07:44:41.999Z</time></trkpt><trkpt lat="45.38573183435555" lon="9.232475650031411"><ele>101.0</ele><time>2026-05-01T07:44:42.999Z</time></trkpt><trkpt lat="45.38580724984847" lon="9.232165000487337"><ele>102.0</ele><time>2026-05-01T07:44:43.999Z</time></trkpt><trkpt lat="45.38588286957565" lon="9.231855797459525"><ele>103.0</ele><time>2026-05-01T07:44:45Z</time></trkpt><trkpt lat="45.38595914923911" lon="9.23154415526512"><ele>104.0</ele><time>2026-05-01T07:44:46Z</time></trkpt><trkpt lat="45.38603636854544" lon="9.231232925175826"><ele>105.0</ele><time>2026-05-01T07:44:47Z</time></trkpt><trkpt lat="45.38611599234698" lon="9.230919731737577"><ele>103.5</ele><time>2026-05-01T07:44:48Z</time></trkpt><trkpt lat="45.386193932781765" lon="9.230609000716248"><ele>102.0</ele><time>2026-05-01T07:44:49Z</time></trkpt><trkpt lat="45.38627255854841" lon="9.230296128032304"><ele>102.5</ele><time>2026-05-01T07:44:50Z</time></trkpt><trkpt lat="45.38634906327406" lon="9.229987233141488"><ele>103.0</ele><time>2026-05-01T07:44:51Z</time></trkpt><trkpt lat="45.38642712797764" lon="9.229675216364466"><ele>103.5</ele><time>2026-05-01T07:44:52Z</time></trkpt><trkpt lat="45.38650597665181" lon="9.229359029272464"><ele>104.0</ele><time>2026-05-01T07:44:53Z</time></trkpt><trkpt lat="45.38658499934933" lon="9.22904033402875"><ele>102.5</ele><time>2026-05-01T07:44:54Z</time></trkpt><trkpt lat="45.386663382257204" lon="9.228724008141924"><ele>101.0</ele><time>2026-05-01T07:44:55Z</time></trkpt><trkpt lat="45.386744501172664" lon="9.228401325737096"><ele>100.0</ele><time>2026-05-01T07:44:56Z</time></trkpt><trkpt lat="45.38682383530976" lon="9.228081126483444"><ele>99.0</ele><time>2026-05-01T07:44:57Z</time></trkpt><trkpt lat="45.38690279599083" lon="9.227767532848201"><ele>99.0</ele><time>2026-05-01T07:44:58Z</time></trkpt><trkpt lat="45.386978195840236" lon="9.227460143334973"><ele>99.0</ele><time>2026-05-01T07:44:59Z</time></trkpt><trkpt lat="45.38705673158654" lon="9.227146154794195"><ele>99.0</ele><time>2026-05-01T07:45:00Z</time></trkpt><trkpt lat="45.38713479351822" lon="9.226839871493244"><ele>99.0</ele><time>2026-05-01T07:45:01Z</time></trkpt><trkpt lat="45.3872098868173" lon="9.226534231097334"><ele>100.0</ele><time>2026-05-01T07:45:02Z</time></trkpt><trkpt lat="45.38728651043189" lon="9.22622962851033"><ele>101.0</ele><time>2026-05-01T07:45:03Z</time></trkpt><trkpt lat="45.3873637631951" lon="9.225920976752699"><ele>101.5</ele><time>2026-05-01T07:45:04Z</time></trkpt><trkpt lat="45.38743933563072" lon="9.225613472325861"><ele>102.0</ele><time>2026-05-01T07:45:05Z</time></trkpt><trkpt lat="45.38751807765483" lon="9.225303637464261"><ele>102.0</ele><time>2026-05-01T07:45:06Z</time></trkpt><trkpt lat="45.387593165558485" lon="9.224992151026461"><ele>102.0</ele><time>2026-05-01T07:45:07Z</time></trkpt><trkpt lat="45.38767019509575" lon="9.224682482307877"><ele>100.5</ele><time>2026-05-01T07:45:08Z</time></trkpt><trkpt lat="45.38774702840402" lon="9.224376188702779"><ele>99.0</ele><time>2026-05-01T07:45:09.001Z</time></trkpt><trkpt lat="45.38782646639311" lon="9.224063987203248"><ele>99.0</ele><time>2026-05-01T07:45:10.001Z</time></trkpt><trkpt lat="45.38790332461289" lon="9.223754226962047"><ele>99.0</ele><time>2026-05-01T07:45:11.001Z</time></trkpt><trkpt lat="45.38797913980442" lon="9.223450373897093"><ele>100.0</ele><time>2026-05-01T07:45:12.001Z</time></trkpt><trkpt lat="45.38805461163395" lon="9.223145719390272"><ele>101.0</ele><time>2026-05-01T07:45:13.001Z</time></trkpt><trkpt lat="45.38813073383241" lon="9.222841165423622"><ele>101.0</ele><time>2026-05-01T07:45:14.001Z</time></trkpt><trkpt lat="45.38820490431032" lon="9.222539003577536"><ele>101.0</ele><time>2026-05-01T07:45:15.001Z</time></trkpt><trkpt lat="45.38828187439217" lon="9.222237543829506"><ele>101.0</ele><time>2026-05-01T07:45:16.001Z</time></trkpt><trkpt lat="45.38835356517664" lon="9.22193516635733"><ele>101.0</ele><time>2026-05-01T07:45:17.001Z</time></trkpt><trkpt lat="45.388425208458806" lon="9.221636330073848"><ele>101.0</ele><time>2026-05-01T07:45:18.001Z</time></trkpt><trkpt lat="45.3884984378703" lon="9.221342184742031"><ele>101.0</ele><time>2026-05-01T07:45:19.001Z</time></trkpt><trkpt lat="45.388572839583105" lon="9.221047395922964"><ele>101.0</ele><time>2026-05-01T07:45:20.001Z</time></trkpt><trkpt lat="45.388644416647516" lon="9.22075223142715"><ele>101.0</ele><time>2026-05-01T07:45:21.001Z</time></trkpt><trkpt lat="45.38872070832105" lon="9.220466680345885"><ele>100.66666666666666</ele><time>2026-05-01T07:45:22.001Z</time></trkpt><trkpt lat="45.388793859529976" lon="9.220175484616764"><ele>100.33333333333334</ele><time>2026-05-01T07:45:23.001Z</time></trkpt><trkpt lat="45.38886670510215" lon="9.219876509244369"><ele>100.0</ele><time>2026-05-01T07:45:24.001Z</time></trkpt><trkpt lat="45.38893777485914" lon="9.219582800337264"><ele>100.66666666666667</ele><time>2026-05-01T07:45:25.001Z</time></trkpt><trkpt lat="45.389008550287905" lon="9.219292963605609"><ele>101.33333333333334</ele><time>2026-05-01T07:45:26.001Z</time></trkpt><trkpt lat="45.389079241603675" lon="9.219003088945387"><ele>102.0</ele><time>2026-05-01T07:45:27.001Z</time></trkpt><trkpt lat="45.38914964005367" lon="9.218713542486984"><ele>102.0</ele><time>2026-05-01T07:45:28.001Z</time></trkpt><trkpt lat="45.38921886112173" lon="9.218422099527473"><ele>102.0</ele><time>2026-05-01T07:45:29.001Z</time></trkpt><trkpt lat="45.389290040877555" lon="9.218128122812926"><ele>102.0</ele><time>2026-05-01T07:45:30.001Z</time></trkpt><trkpt lat="45.389361649805245" lon="9.21783196224875"><ele>102.0</ele><time>2026-05-01T07:45:31.001Z</time></trkpt><trkpt lat="45.38943199538399" lon="9.21753435374428"><ele>102.0</ele><time>2026-05-01T07:45:32.001Z</time></trkpt><trkpt lat="45.389500439478404" lon="9.21723638003739"><ele>102.0</ele><time>2026-05-01T07:45:33.001Z</time></trkpt><trkpt lat="45.38957017428564" lon="9.216938108541244"><ele>102.33333333333334</ele><time>2026-05-01T07:45:34.001Z</time></trkpt><trkpt lat="45.38963794295016" lon="9.216637953361666"><ele>102.66666666666667</ele><time>2026-05-01T07:45:35.001Z</time></trkpt><trkpt lat="45.38970366925599" lon="9.216334311426731"><ele>103.0</ele><time>2026-05-01T07:45:36.001Z</time></trkpt><trkpt lat="45.38976902733123" lon="9.216028647111921"><ele>103.0</ele><time>2026-05-01T07:45:37.001Z</time></trkpt><trkpt lat="45.38983205609429" lon="9.215719003948104"><ele>103.0</ele><time>2026-05-01T07:45:38.001Z</time></trkpt><trkpt lat="45.389897067637385" lon="9.215408031119198"><ele>103.0</ele><time>2026-05-01T07:45:39.001Z</time></trkpt><trkpt lat="45.389958790722105" lon="9.215094811700517"><ele>103.0</ele><time>2026-05-01T07:45:40.001Z</time></trkpt><trkpt lat="45.39002160489189" lon="9.214782841969024"><ele>104.5</ele><time>2026-05-01T07:45:41.002Z</time></trkpt><trkpt lat="45.39008341150393" lon="9.214468925632715"><ele>106.0</ele><time>2026-05-01T07:45:42.002Z</time></trkpt><trkpt lat="45.390142485391166" lon="9.214155826937054"><ele>105.5</ele><time>2026-05-01T07:45:43.002Z</time></trkpt><trkpt lat="45.39019872398976" lon="9.21383932115282"><ele>105.0</ele><time>2026-05-01T07:45:44.002Z</time></trkpt><trkpt lat="45.39025728991801" lon="9.213526174699963"><ele>105.0</ele><time>2026-05-01T07:45:45.002Z</time></trkpt><trkpt lat="45.390316021324985" lon="9.213211573939452"><ele>105.0</ele><time>2026-05-01T07:45:46.002Z</time></trkpt><trkpt lat="45.39036826573697" lon="9.212898668888197"><ele>105.0</ele><time>2026-05-01T07:45:47.002Z</time></trkpt><trkpt lat="45.39042107009431" lon="9.2125847769805"><ele>105.0</ele><time>2026-05-01T07:45:48.002Z</time></trkpt><trkpt lat="45.39047484781616" lon="9.21227059340608"><ele>103.5</ele><time>2026-05-01T07:45:49.002Z</time></trkpt><trkpt lat="45.39053009411468" lon="9.211950764971956"><ele>102.0</ele><time>2026-05-01T07:45:50.002Z</time></trkpt><trkpt lat="45.390581978560384" lon="9.211629161901355"><ele>103.0</ele><time>2026-05-01T07:45:51.002Z</time></trkpt><trkpt lat="45.39063233699893" lon="9.211306945477247"><ele>104.0</ele><time>2026-05-01T07:45:52.002Z</time></trkpt><trkpt lat="45.390680132250544" lon="9.21098335132691"><ele>104.0</ele><time>2026-05-01T07:45:53.002Z</time></trkpt><trkpt lat="45.39072370082151" lon="9.21066983886783"><ele>104.0</ele><time>2026-05-01T07:45:54.002Z</time></trkpt><trkpt lat="45.39076674045715" lon="9.210359345532058"><ele>104.0</ele><time>2026-05-01T07:45:55.002Z</time></trkpt><trkpt lat="45.39080864822649" lon="9.210053251492475"><ele>104.0</ele><time>2026-05-01T07:45:56.002Z</time></trkpt><trkpt lat="45.3908509608136" lon="9.209745403102612"><ele>104.0</ele><time>2026-05-01T07:45:57.002Z</time></trkpt><trkpt lat="45.39089089132599" lon="9.209436050509265"><ele>104.0</ele><time>2026-05-01T07:45:58.002Z</time></trkpt><trkpt lat="45.39093425573107" lon="9.209120946648387"><ele>102.66666666666666</ele><time>2026-05-01T07:45:59.002Z</time></trkpt><trkpt lat="45.390970862267" lon="9.208810323451434"><ele>101.33333333333334</ele><time>2026-05-01T07:46:00.002Z</time></trkpt><trkpt lat="45.3910055914535" lon="9.208497248929623"><ele>100.0</ele><time>2026-05-01T07:46:01.002Z</time></trkpt><trkpt lat="45.39104300108709" lon="9.20817732712282"><ele>99.5</ele><time>2026-05-01T07:46:02.002Z</time></trkpt><trkpt lat="45.391076731428086" lon="9.20786316366818"><ele>99.0</ele><time>2026-05-01T07:46:03.002Z</time></trkpt><trkpt lat="45.39111299475074" lon="9.207541291685065"><ele>101.0</ele><time>2026-05-01T07:46:04.002Z</time></trkpt><trkpt lat="45.39114853374243" lon="9.20721742321302"><ele>103.0</ele><time>2026-05-01T07:46:05.002Z</time></trkpt><trkpt lat="45.391184563470716" lon="9.20689101814534"><ele>103.0</ele><time>2026-05-01T07:46:06.002Z</time></trkpt><trkpt lat="45.39121727822391" lon="9.206559672446287"><ele>103.0</ele><time>2026-05-01T07:46:07.002Z</time></trkpt><trkpt lat="45.39124832197248" lon="9.206228243168251"><ele>103.0</ele><time>2026-05-01T07:46:08.002Z</time></trkpt><trkpt lat="45.39127979179314" lon="9.205895984905867"><ele>103.0</ele><time>2026-05-01T07:46:09.002Z</time></trkpt><trkpt lat="45.391309420211094" lon="9.205565004363791"><ele>102.0</ele><time>2026-05-01T07:46:10.002Z</time></trkpt><trkpt lat="45.39133642251526" lon="9.205237015596968"><ele>101.0</ele><time>2026-05-01T07:46:11.002Z</time></trkpt><trkpt lat="45.39136228530225" lon="9.204910299063407"><ele>101.5</ele><time>2026-05-01T07:46:12.002Z</time></trkpt><trkpt lat="45.391385632227575" lon="9.204581256458486"><ele>102.0</ele><time>2026-05-01T07:46:13.002Z</time></trkpt><trkpt lat="45.391406165190894" lon="9.204249568446267"><ele>101.5</ele><time>2026-05-01T07:46:14.003Z</time></trkpt><trkpt lat="45.391424854027264" lon="9.203916904993433"><ele>101.0</ele><time>2026-05-01T07:46:15.003Z</time></trkpt><trkpt lat="45.3914464895789" lon="9.203580217481322"><ele>101.0</ele><time>2026-05-01T07:46:16.003Z</time></trkpt><trkpt lat="45.391466390651736" lon="9.20324313163409"><ele>101.0</ele><time>2026-05-01T07:46:17.003Z</time></trkpt><trkpt lat="45.391486550667004" lon="9.202901979317451"><ele>100.5</ele><time>2026-05-01T07:46:18.003Z</time></trkpt><trkpt lat="45.39150627838885" lon="9.202559192807037"><ele>100.0</ele><time>2026-05-01T07:46:19.003Z</time></trkpt><trkpt lat="45.39152472254513" lon="9.202214765162601"><ele>101.0</ele><time>2026-05-01T07:46:20.003Z</time></trkpt><trkpt lat="45.39154119494573" lon="9.201871577052682"><ele>102.0</ele><time>2026-05-01T07:46:21.003Z</time></trkpt><trkpt lat="45.391553570624886" lon="9.201528033639091"><ele>103.0</ele><time>2026-05-01T07:46:22.003Z</time></trkpt><trkpt lat="45.391563934051185" lon="9.201184878960047"><ele>104.0</ele><time>2026-05-01T07:46:23.003Z</time></trkpt><trkpt lat="45.391574825832684" lon="9.200841781193722"><ele>102.5</ele><time>2026-05-01T07:46:24.003Z</time></trkpt><trkpt lat="45.39158599742082" lon="9.200499689642273"><ele>101.0</ele><time>2026-05-01T07:46:25.003Z</time></trkpt><trkpt lat="45.3915952418225" lon="9.200155599906934"><ele>101.0</ele><time>2026-05-01T07:46:26.003Z</time></trkpt><trkpt lat="45.39160289579901" lon="9.199811941670598"><ele>101.0</ele><time>2026-05-01T07:46:27.003Z</time></trkpt><trkpt lat="45.39161000457856" lon="9.19946797630418"><ele>101.0</ele><time>2026-05-01T07:46:28.003Z</time></trkpt><trkpt lat="45.39161648954047" lon="9.199123368179023"><ele>101.0</ele><time>2026-05-01T07:46:29.003Z</time></trkpt><trkpt lat="45.39161949655904" lon="9.198778041401336"><ele>102.0</ele><time>2026-05-01T07:46:30.003Z</time></trkpt><trkpt lat="45.39162288186258" lon="9.198433949615623"><ele>103.0</ele><time>2026-05-01T07:46:31.003Z</time></trkpt><trkpt lat="45.39162088161999" lon="9.198090117095642"><ele>103.0</ele><time>2026-05-01T07:46:32.003Z</time></trkpt><trkpt lat="45.39161837363503" lon="9.197744223318074"><ele>103.0</ele><time>2026-05-01T07:46:33.003Z</time></trkpt><trkpt lat="45.391611703643946" lon="9.19739898764454"><ele>101.5</ele><time>2026-05-01T07:46:34.003Z</time></trkpt><trkpt lat="45.39160439809498" lon="9.197055252456233"><ele>100.0</ele><time>2026-05-01T07:46:34.999Z</time></trkpt><trkpt lat="45.39159577778368" lon="9.196708588180226"><ele>100.0</ele><time>2026-05-01T07:46:35.999Z</time></trkpt><trkpt lat="45.39158376968498" lon="9.196360788937573"><ele>100.0</ele><time>2026-05-01T07:46:36.999Z</time></trkpt><trkpt lat="45.391570310584285" lon="9.19601246007375"><ele>100.0</ele><time>2026-05-01T07:46:37.999Z</time></trkpt><trkpt lat="45.39155519142891" lon="9.195666324166423"><ele>100.0</ele><time>2026-05-01T07:46:38.999Z</time></trkpt><trkpt lat="45.39153834796453" lon="9.19531933304458"><ele>100.0</ele><time>2026-05-01T07:46:39.999Z</time></trkpt><trkpt lat="45.39151970189509" lon="9.194974212653273"><ele>100.0</ele><time>2026-05-01T07:46:40.999Z</time></trkpt><trkpt lat="45.39149932755775" lon="9.194629881308696"><ele>100.5</ele><time>2026-05-01T07:46:41.999Z</time></trkpt><trkpt lat="45.39147727493132" lon="9.194283335171416"><ele>101.0</ele><time>2026-05-01T07:46:42.999Z</time></trkpt><trkpt lat="45.39145245204089" lon="9.193935594129513"><ele>101.0</ele><time>2026-05-01T07:46:43.999Z</time></trkpt><trkpt lat="45.39142443006627" lon="9.193589388262506"><ele>101.0</ele><time>2026-05-01T07:46:44.999Z</time></trkpt><trkpt lat="45.39139560965954" lon="9.193243200880314"><ele>101.0</ele><time>2026-05-01T07:46:45.999Z</time></trkpt><trkpt lat="45.39136410339031" lon="9.192896592684326"><ele>101.0</ele><time>2026-05-01T07:46:46.999Z</time></trkpt><trkpt lat="45.39133114918273" lon="9.192548461146307"><ele>100.0</ele><time>2026-05-01T07:46:48Z</time></trkpt><trkpt lat="45.39129228626539" lon="9.192203148743932"><ele>99.0</ele><time>2026-05-01T07:46:49Z</time></trkpt><trkpt lat="45.391254438567046" lon="9.191858862928747"><ele>99.0</ele><time>2026-05-01T07:46:50Z</time></trkpt><trkpt lat="45.39121533160737" lon="9.191512890583919"><ele>99.0</ele><time>2026-05-01T07:46:51Z</time></trkpt><trkpt lat="45.391174640475185" lon="9.191174689493542"><ele>99.5</ele><time>2026-05-01T07:46:52Z</time></trkpt><trkpt lat="45.39113247089174" lon="9.19083672279141"><ele>100.0</ele><time>2026-05-01T07:46:53Z</time></trkpt><trkpt lat="45.391090240369" lon="9.190500040439934"><ele>100.0</ele><time>2026-05-01T07:46:54Z</time></trkpt><trkpt lat="45.39104428590401" lon="9.190165181018513"><ele>100.0</ele><time>2026-05-01T07:46:55Z</time></trkpt><trkpt lat="45.390997928882356" lon="9.189829370699709"><ele>101.5</ele><time>2026-05-01T07:46:56Z</time></trkpt><trkpt lat="45.39095063203279" lon="9.189497810912606"><ele>103.0</ele><time>2026-05-01T07:46:57Z</time></trkpt><trkpt lat="45.39090140518195" lon="9.189167120414714"><ele>103.0</ele><time>2026-05-01T07:46:58Z</time></trkpt><trkpt lat="45.39084567110114" lon="9.188831454707387"><ele>103.0</ele><time>2026-05-01T07:46:59Z</time></trkpt><trkpt lat="45.390788619683576" lon="9.188499175497595"><ele>102.0</ele><time>2026-05-01T07:47:00Z</time></trkpt><trkpt lat="45.390731493047916" lon="9.188165720046946"><ele>101.0</ele><time>2026-05-01T07:47:01Z</time></trkpt><trkpt lat="45.39067243156765" lon="9.187830864582804"><ele>101.0</ele><time>2026-05-01T07:47:02Z</time></trkpt><trkpt lat="45.39061328051604" lon="9.187499637618801"><ele>101.0</ele><time>2026-05-01T07:47:03Z</time></trkpt><trkpt lat="45.39054848770626" lon="9.18717062032202"><ele>101.0</ele><time>2026-05-01T07:47:04Z</time></trkpt><trkpt lat="45.39048199121243" lon="9.186839987353215"><ele>101.0</ele><time>2026-05-01T07:47:05Z</time></trkpt><trkpt lat="45.39041339052932" lon="9.186508839923231"><ele>101.0</ele><time>2026-05-01T07:47:06Z</time></trkpt><trkpt lat="45.39034222958583" lon="9.186181643260893"><ele>101.0</ele><time>2026-05-01T07:47:07Z</time></trkpt><trkpt lat="45.39027214139016" lon="9.185854326774113"><ele>100.5</ele><time>2026-05-01T07:47:08Z</time></trkpt><trkpt lat="45.39020006508803" lon="9.185525330694592"><ele>100.0</ele><time>2026-05-01T07:47:09.001Z</time></trkpt><trkpt lat="45.390126051532505" lon="9.185201776464385"><ele>100.0</ele><time>2026-05-01T07:47:10.001Z</time></trkpt><trkpt lat="45.390049716830596" lon="9.184873863301577"><ele>100.0</ele><time>2026-05-01T07:47:11.001Z</time></trkpt><trkpt lat="45.38997291844716" lon="9.184549835425345"><ele>100.5</ele><time>2026-05-01T07:47:12.001Z</time></trkpt><trkpt lat="45.389893835290216" lon="9.184225130129663"><ele>101.0</ele><time>2026-05-01T07:47:13.001Z</time></trkpt><trkpt lat="45.3898136770158" lon="9.183900343078372"><ele>101.5</ele><time>2026-05-01T07:47:14.001Z</time></trkpt><trkpt lat="45.3897281320926" lon="9.183580344050517"><ele>102.0</ele><time>2026-05-01T07:47:15.001Z</time></trkpt><trkpt lat="45.38964227677962" lon="9.183261102603673"><ele>102.5</ele><time>2026-05-01T07:47:16.001Z</time></trkpt><trkpt lat="45.3895545280003" lon="9.182942306017319"><ele>103.0</ele><time>2026-05-01T07:47:17.001Z</time></trkpt><trkpt lat="45.38946394063464" lon="9.182625080263797"><ele>103.5</ele><time>2026-05-01T07:47:18.001Z</time></trkpt><trkpt lat="45.389369704802256" lon="9.182307034824358"><ele>104.0</ele><time>2026-05-01T07:47:19.001Z</time></trkpt><trkpt lat="45.389276470216885" lon="9.18199188246552"><ele>104.0</ele><time>2026-05-01T07:47:20.001Z</time></trkpt><trkpt lat="45.38918130960413" lon="9.181673097617953"><ele>104.0</ele><time>2026-05-01T07:47:21.001Z</time></trkpt><trkpt lat="45.389086377661194" lon="9.18135467165214"><ele>103.5</ele><time>2026-05-01T07:47:22.001Z</time></trkpt><trkpt lat="45.38898578768815" lon="9.181047816533205"><ele>103.0</ele><time>2026-05-01T07:47:23.001Z</time></trkpt><trkpt lat="45.388885946276865" lon="9.18074559141121"><ele>102.0</ele><time>2026-05-01T07:47:24.001Z</time></trkpt><trkpt lat="45.38878482195837" lon="9.180446273973256"><ele>101.0</ele><time>2026-05-01T07:47:25.001Z</time></trkpt><trkpt lat="45.38868432664353" lon="9.180149894310398"><ele>101.0</ele><time>2026-05-01T07:47:26.001Z</time></trkpt><trkpt lat="45.388580631377344" lon="9.179855360694395"><ele>101.0</ele><time>2026-05-01T07:47:27.001Z</time></trkpt><trkpt lat="45.38847877639726" lon="9.179566148128037"><ele>101.33333333333333</ele><time>2026-05-01T07:47:28.001Z</time></trkpt><trkpt lat="45.38838072459777" lon="9.179296882613881"><ele>101.66666666666666</ele><time>2026-05-01T07:47:29.001Z</time></trkpt><trkpt lat="45.388286491037015" lon="9.17904030668426"><ele>102.0</ele><time>2026-05-01T07:47:30.001Z</time></trkpt><trkpt lat="45.38819156790117" lon="9.178787395558702"><ele>102.33333333333334</ele><time>2026-05-01T07:47:31.001Z</time></trkpt><trkpt lat="45.38809531762204" lon="9.17854010739324"><ele>102.66666666666667</ele><time>2026-05-01T07:47:32.001Z</time></trkpt><trkpt lat="45.387998881524865" lon="9.178296849946165"><ele>103.0</ele><time>2026-05-01T07:47:33.001Z</time></trkpt><trkpt lat="45.38790530308831" lon="9.178064784907578"><ele>103.0</ele><time>2026-05-01T07:47:34.001Z</time></trkpt><trkpt lat="45.387821897143844" lon="9.177845466931794"><ele>103.0</ele><time>2026-05-01T07:47:35.001Z</time></trkpt><trkpt lat="45.38774377424543" lon="9.177633905751533"><ele>103.0</ele><time>2026-05-01T07:47:36.001Z</time></trkpt><trkpt lat="45.387670364224014" lon="9.177432472265245"><ele>103.25</ele><time>2026-05-01T07:47:37.001Z</time></trkpt><trkpt lat="45.387600199339126" lon="9.177239612589695"><ele>103.5</ele><time>2026-05-01T07:47:38.001Z</time></trkpt><trkpt lat="45.3875290604903" lon="9.177055733067794"><ele>103.75</ele><time>2026-05-01T07:47:39.002Z</time></trkpt><trkpt lat="45.38745842367607" lon="9.176876670602164"><ele>104.0</ele><time>2026-05-01T07:47:40.002Z</time></trkpt><trkpt lat="45.38738552057156" lon="9.176695207773385"><ele>103.75</ele><time>2026-05-01T07:47:41.002Z</time></trkpt><trkpt lat="45.38731586429456" lon="9.176516311172936"><ele>103.5</ele><time>2026-05-01T07:47:42.002Z</time></trkpt><trkpt lat="45.38725091432647" lon="9.176344087874464"><ele>103.25</ele><time>2026-05-01T07:47:43.002Z</time></trkpt><trkpt lat="45.38718759270309" lon="9.176170180189592"><ele>103.0</ele><time>2026-05-01T07:47:44.002Z</time></trkpt><trkpt lat="45.38712702132713" lon="9.175994766702319"><ele>102.5</ele><time>2026-05-01T07:47:45.002Z</time></trkpt><trkpt lat="45.38706786065193" lon="9.175818109385363"><ele>102.0</ele><time>2026-05-01T07:47:46.002Z</time></trkpt><trkpt lat="45.38701212620801" lon="9.175640697718853"><ele>101.5</ele><time>2026-05-01T07:47:47.002Z</time></trkpt><trkpt lat="45.38696085061608" lon="9.175468655431985"><ele>101.0</ele><time>2026-05-01T07:47:48.002Z</time></trkpt><trkpt lat="45.38691226130382" lon="9.175301010247837"><ele>101.0</ele><time>2026-05-01T07:47:49.002Z</time></trkpt><trkpt lat="45.386864637151156" lon="9.175135099994424"><ele>101.0</ele><time>2026-05-01T07:47:50.002Z</time></trkpt><trkpt lat="45.38681896688136" lon="9.174971245527141"><ele>101.0</ele><time>2026-05-01T07:47:51.002Z</time></trkpt><trkpt lat="45.38677675109093" lon="9.174810801495346"><ele>101.0</ele><time>2026-05-01T07:47:52.002Z</time></trkpt><trkpt lat="45.386734693888826" lon="9.174652236166937"><ele>101.0</ele><time>2026-05-01T07:47:53.002Z</time></trkpt><trkpt lat="45.38669365246817" lon="9.174497787722165"><ele>101.0</ele><time>2026-05-01T07:47:54.002Z</time></trkpt><trkpt lat="45.38665590421538" lon="9.174335022557946"><ele>101.0</ele><time>2026-05-01T07:47:55.002Z</time></trkpt><trkpt lat="45.386618482856385" lon="9.174169501066746"><ele>101.0</ele><time>2026-05-01T07:47:56.002Z</time></trkpt><trkpt lat="45.386582934574186" lon="9.1739950910543"><ele>101.0</ele><time>2026-05-01T07:47:57.002Z</time></trkpt><trkpt lat="45.38654796801334" lon="9.173818229831047"><ele>101.0</ele><time>2026-05-01T07:47:58.002Z</time></trkpt><trkpt lat="45.386516113707415" lon="9.173637016058102"><ele>101.0</ele><time>2026-05-01T07:47:59.002Z</time></trkpt><trkpt lat="45.3864852490676" lon="9.173454665343726"><ele>101.0</ele><time>2026-05-01T07:48:00.002Z</time></trkpt><trkpt lat="45.38645590146436" lon="9.173270721667254"><ele>101.0</ele><time>2026-05-01T07:48:01.002Z</time></trkpt><trkpt lat="45.386426333503806" lon="9.173084208434483"><ele>101.0</ele><time>2026-05-01T07:48:02.002Z</time></trkpt><trkpt lat="45.38639793269839" lon="9.172893889231556"><ele>101.0</ele><time>2026-05-01T07:48:03.002Z</time></trkpt><trkpt lat="45.38637143006096" lon="9.172699410198621"><ele>101.0</ele><time>2026-05-01T07:48:04.002Z</time></trkpt><trkpt lat="45.38634792306021" lon="9.172502192876104"><ele>101.0</ele><time>2026-05-01T07:48:05.002Z</time></trkpt><trkpt lat="45.38632713180603" lon="9.172300258227763"><ele>101.0</ele><time>2026-05-01T07:48:06.002Z</time></trkpt><trkpt lat="45.386307724699776" lon="9.172093455407989"><ele>101.0</ele><time>2026-05-01T07:48:07.002Z</time></trkpt><trkpt lat="45.38629019710579" lon="9.171882036004396"><ele>101.0</ele><time>2026-05-01T07:48:08.002Z</time></trkpt><trkpt lat="45.38627574755581" lon="9.17167116706645"><ele>101.75</ele><time>2026-05-01T07:48:09.002Z</time></trkpt><trkpt lat="45.38626318057208" lon="9.171462932093162"><ele>102.5</ele><time>2026-05-01T07:48:10.002Z</time></trkpt><trkpt lat="45.38625451556187" lon="9.171260252980026"><ele>103.25</ele><time>2026-05-01T07:48:11.003Z</time></trkpt><trkpt lat="45.38624716809064" lon="9.171054104176074"><ele>104.0</ele><time>2026-05-01T07:48:12.003Z</time></trkpt><trkpt lat="45.38624358431007" lon="9.1708467104444"><ele>104.5</ele><time>2026-05-01T07:48:13.003Z</time></trkpt><trkpt lat="45.386243591896445" lon="9.17064063119694"><ele>105.0</ele><time>2026-05-01T07:48:14.003Z</time></trkpt><trkpt lat="45.38624379951088" lon="9.170432070830282"><ele>105.5</ele><time>2026-05-01T07:48:15.003Z</time></trkpt><trkpt lat="45.38624576095422" lon="9.170220420762305"><ele>106.0</ele><time>2026-05-01T07:48:16.003Z</time></trkpt><trkpt lat="45.38625339178392" lon="9.17001611042099"><ele>105.5</ele><time>2026-05-01T07:48:17.003Z</time></trkpt><trkpt lat="45.386260831133185" lon="9.169819960401103"><ele>105.0</ele><time>2026-05-01T07:48:18.003Z</time></trkpt><trkpt lat="45.386268072076646" lon="9.169620823339207"><ele>104.5</ele><time>2026-05-01T07:48:19.003Z</time></trkpt><trkpt lat="45.386279998060665" lon="9.169418911383511"><ele>104.0</ele><time>2026-05-01T07:48:20.003Z</time></trkpt><trkpt lat="45.3862956414096" lon="9.169220004631986"><ele>103.25</ele><time>2026-05-01T07:48:21.003Z</time></trkpt><trkpt lat="45.38631215547923" lon="9.169025441425747"><ele>102.5</ele><time>2026-05-01T07:48:22.003Z</time></trkpt><trkpt lat="45.38632920856605" lon="9.16883387675709"><ele>101.75</ele><time>2026-05-01T07:48:23.003Z</time></trkpt><trkpt lat="45.3863477794185" lon="9.168642909211048"><ele>101.0</ele><time>2026-05-01T07:48:24.003Z</time></trkpt><trkpt lat="45.38636947492378" lon="9.168455111660144"><ele>100.25</ele><time>2026-05-01T07:48:25.003Z</time></trkpt><trkpt lat="45.3863933972608" lon="9.16827026233419"><ele>99.5</ele><time>2026-05-01T07:48:26.003Z</time></trkpt><trkpt lat="45.38641977782645" lon="9.168085179303642"><ele>98.75</ele><time>2026-05-01T07:48:27.003Z</time></trkpt><trkpt lat="45.38644747725144" lon="9.167901283401294"><ele>98.0</ele><time>2026-05-01T07:48:28.003Z</time></trkpt><trkpt lat="45.38647726186919" lon="9.16770769130701"><ele>98.0</ele><time>2026-05-01T07:48:29.003Z</time></trkpt><trkpt lat="45.38651232933979" lon="9.167509783648056"><ele>98.0</ele><time>2026-05-01T07:48:30.003Z</time></trkpt><trkpt lat="45.38655016725174" lon="9.167307311733294"><ele>98.0</ele><time>2026-05-01T07:48:31.003Z</time></trkpt><trkpt lat="45.38659164596951" lon="9.167109471021911"><ele>98.0</ele><time>2026-05-01T07:48:32.003Z</time></trkpt><trkpt lat="45.3866350228938" lon="9.166916553961624"><ele>98.0</ele><time>2026-05-01T07:48:33.003Z</time></trkpt><trkpt lat="45.38668090953561" lon="9.166729858208761"><ele>98.0</ele><time>2026-05-01T07:48:34.003Z</time></trkpt><trkpt lat="45.386729586289015" lon="9.166548476579976"><ele>98.0</ele><time>2026-05-01T07:48:35.003Z</time></trkpt><trkpt lat="45.38677755162781" lon="9.166368290059935"><ele>98.0</ele><time>2026-05-01T07:48:36.003Z</time></trkpt><trkpt lat="45.386829498096844" lon="9.166188289587954"><ele>98.25</ele><time>2026-05-01T07:48:37.003Z</time></trkpt><trkpt lat="45.38688259763153" lon="9.166006048132857"><ele>98.5</ele><time>2026-05-01T07:48:38.003Z</time></trkpt><trkpt lat="45.38693607758284" lon="9.165829330215521"><ele>98.75</ele><time>2026-05-01T07:48:39.003Z</time></trkpt><trkpt lat="45.386987169293285" lon="9.165655262325405"><ele>99.0</ele><time>2026-05-01T07:48:40.003Z</time></trkpt><trkpt lat="45.38703638102956" lon="9.165478980342229"><ele>99.25</ele><time>2026-05-01T07:48:40.999Z</time></trkpt><trkpt lat="45.387088922061565" lon="9.165299661200324"><ele>99.5</ele><time>2026-05-01T07:48:41.999Z</time></trkpt><trkpt lat="45.38714960807927" lon="9.165113461104529"><ele>99.75</ele><time>2026-05-01T07:48:42.999Z</time></trkpt><trkpt lat="45.387214381153875" lon="9.164927163477312"><ele>100.0</ele><time>2026-05-01T07:48:43.999Z</time></trkpt><trkpt lat="45.38728119487032" lon="9.164741198495852"><ele>100.25</ele><time>2026-05-01T07:48:44.999Z</time></trkpt><trkpt lat="45.387344076970564" lon="9.164563288178948"><ele>100.5</ele><time>2026-05-01T07:48:45.999Z</time></trkpt><trkpt lat="45.38740522902672" lon="9.164382477850685"><ele>100.75</ele><time>2026-05-01T07:48:46.999Z</time></trkpt><trkpt lat="45.38747003066955" lon="9.164203025058006"><ele>101.0</ele><time>2026-05-01T07:48:47.999Z</time></trkpt><trkpt lat="45.38753445781472" lon="9.164025101920991"><ele>101.0</ele><time>2026-05-01T07:48:48.999Z</time></trkpt><trkpt lat="45.38759968779588" lon="9.163846275557725"><ele>101.0</ele><time>2026-05-01T07:48:49.999Z</time></trkpt><trkpt lat="45.387664035309406" lon="9.16366614907645"><ele>101.0</ele><time>2026-05-01T07:48:50.999Z</time></trkpt><trkpt lat="45.38772334694481" lon="9.163480458560246"><ele>101.0</ele><time>2026-05-01T07:48:52Z</time></trkpt><trkpt lat="45.38778556356465" lon="9.163298398604855"><ele>101.25</ele><time>2026-05-01T07:48:53Z</time></trkpt><trkpt lat="45.38784924187789" lon="9.163120026865407"><ele>101.5</ele><time>2026-05-01T07:48:53.999Z</time></trkpt><trkpt lat="45.387912780338056" lon="9.16293907618068"><ele>101.75</ele><time>2026-05-01T07:48:54.999Z</time></trkpt><trkpt lat="45.38797720359713" lon="9.16275949429584"><ele>102.0</ele><time>2026-05-01T07:48:56Z</time></trkpt><trkpt lat="45.38804029319246" lon="9.16257776987187"><ele>102.0</ele><time>2026-05-01T07:48:57Z</time></trkpt><trkpt lat="45.38810668867453" lon="9.162395211620458"><ele>102.0</ele><time>2026-05-01T07:48:58Z</time></trkpt><trkpt lat="45.38817259948859" lon="9.162209590121998"><ele>102.0</ele><time>2026-05-01T07:48:59Z</time></trkpt><trkpt lat="45.388238415062226" lon="9.16202489913399"><ele>102.0</ele><time>2026-05-01T07:49:00Z</time></trkpt><trkpt lat="45.38830544365742" lon="9.161839022568321"><ele>101.75</ele><time>2026-05-01T07:49:01Z</time></trkpt><trkpt lat="45.38837043594046" lon="9.161650332903115"><ele>101.5</ele><time>2026-05-01T07:49:02Z</time></trkpt><trkpt lat="45.388436173712606" lon="9.16146374414847"><ele>101.25</ele><time>2026-05-01T07:49:03Z</time></trkpt><trkpt lat="45.38850134648881" lon="9.16127818038279"><ele>101.0</ele><time>2026-05-01T07:49:04Z</time></trkpt><trkpt lat="45.38856565102665" lon="9.161091845441005"><ele>101.0</ele><time>2026-05-01T07:49:05Z</time></trkpt><trkpt lat="45.388632505111055" lon="9.160898553735631"><ele>101.0</ele><time>2026-05-01T07:49:06Z</time></trkpt><trkpt lat="45.388702344444766" lon="9.160701077262404"><ele>101.0</ele><time>2026-05-01T07:49:07Z</time></trkpt><trkpt lat="45.38877375972843" lon="9.160501427108748"><ele>101.33333333333333</ele><time>2026-05-01T07:49:08Z</time></trkpt><trkpt lat="45.38884506505153" lon="9.160301691358358"><ele>101.66666666666666</ele><time>2026-05-01T07:49:09Z</time></trkpt><trkpt lat="45.388916856764475" lon="9.160100019988976"><ele>102.0</ele><time>2026-05-01T07:49:10Z</time></trkpt><trkpt lat="45.38898726090549" lon="9.159892344102882"><ele>102.0</ele><time>2026-05-01T07:49:11Z</time></trkpt><trkpt lat="45.38905981652925" lon="9.159683800661918"><ele>102.0</ele><time>2026-05-01T07:49:12Z</time></trkpt><trkpt lat="45.38913260920677" lon="9.159475294614646"><ele>102.0</ele><time>2026-05-01T07:49:13Z</time></trkpt><trkpt lat="45.38920845258671" lon="9.159265115818599"><ele>102.0</ele><time>2026-05-01T07:49:14Z</time></trkpt><trkpt lat="45.389284232608944" lon="9.159053706948558"><ele>102.0</ele><time>2026-05-01T07:49:15Z</time></trkpt><trkpt lat="45.38936027263512" lon="9.158841223277085"><ele>102.0</ele><time>2026-05-01T07:49:16Z</time></trkpt><trkpt lat="45.389435815183184" lon="9.158629289861631"><ele>102.66666666666666</ele><time>2026-05-01T07:49:17Z</time></trkpt><trkpt lat="45.389509298723986" lon="9.158419167882832"><ele>103.33333333333333</ele><time>2026-05-01T07:49:18.001Z</time></trkpt><trkpt lat="45.38958273885594" lon="9.158213962855642"><ele>104.0</ele><time>2026-05-01T07:49:19.001Z</time></trkpt><trkpt lat="45.38965387625307" lon="9.158010380063224"><ele>104.0</ele><time>2026-05-01T07:49:20.001Z</time></trkpt><trkpt lat="45.38972056607531" lon="9.15781390428435"><ele>104.0</ele><time>2026-05-01T07:49:21.001Z</time></trkpt><trkpt lat="45.38979629897544" lon="9.157616443249275"><ele>104.0</ele><time>2026-05-01T07:49:22.001Z</time></trkpt><trkpt lat="45.389862981830824" lon="9.157427907659716"><ele>103.75</ele><time>2026-05-01T07:49:23.001Z</time></trkpt><trkpt lat="45.38993154426715" lon="9.157240766785478"><ele>103.5</ele><time>2026-05-01T07:49:24.001Z</time></trkpt><trkpt lat="45.38999317411744" lon="9.157054096295166"><ele>103.25</ele><time>2026-05-01T07:49:25.001Z</time></trkpt><trkpt lat="45.390062546991466" lon="9.156880271819032"><ele>103.0</ele><time>2026-05-01T07:49:26.001Z</time></trkpt><trkpt lat="45.390120947783565" lon="9.156669116778717"><ele>103.25</ele><time>2026-05-01T07:49:27.001Z</time></trkpt><trkpt lat="45.39019228416701" lon="9.156486632879382"><ele>103.5</ele><time>2026-05-01T07:49:28.001Z</time></trkpt><trkpt lat="45.3902590222194" lon="9.156310093997769"><ele>103.75</ele><time>2026-05-01T07:49:29.001Z</time></trkpt><trkpt lat="45.39032047208618" lon="9.156137958173991"><ele>104.0</ele><time>2026-05-01T07:49:30.001Z</time></trkpt><trkpt lat="45.39038129919858" lon="9.155962938820569"><ele>104.0</ele><time>2026-05-01T07:49:31.001Z</time></trkpt><trkpt lat="45.390444705347335" lon="9.155784574715101"><ele>104.0</ele><time>2026-05-01T07:49:32.001Z</time></trkpt><trkpt lat="45.39051002685955" lon="9.155600454763519"><ele>104.0</ele><time>2026-05-01T07:49:33.001Z</time></trkpt><trkpt lat="45.39057714632173" lon="9.155409720916023"><ele>104.0</ele><time>2026-05-01T07:49:34.001Z</time></trkpt><trkpt lat="45.39064510343226" lon="9.155220896745181"><ele>104.66666666666666</ele><time>2026-05-01T07:49:35.001Z</time></trkpt><trkpt lat="45.390709907101446" lon="9.155022639473303"><ele>105.33333333333334</ele><time>2026-05-01T07:49:36.001Z</time></trkpt><trkpt lat="45.390778408121555" lon="9.154828522658452"><ele>106.0</ele><time>2026-05-01T07:49:37.001Z</time></trkpt><trkpt lat="45.39084614289267" lon="9.154633891948903"><ele>105.75</ele><time>2026-05-01T07:49:38.001Z</time></trkpt><trkpt lat="45.390915888576934" lon="9.154449213004774"><ele>105.5</ele><time>2026-05-01T07:49:39.001Z</time></trkpt><trkpt lat="45.39097533761436" lon="9.15426348799321"><ele>105.25</ele><time>2026-05-01T07:49:40.001Z</time></trkpt><trkpt lat="45.39103958051259" lon="9.154080545308314"><ele>105.0</ele><time>2026-05-01T07:49:41.001Z</time></trkpt><trkpt lat="45.39110522350449" lon="9.153900061523114"><ele>105.0</ele><time>2026-05-01T07:49:42.001Z</time></trkpt><trkpt lat="45.39117248058512" lon="9.153717933245975"><ele>105.0</ele><time>2026-05-01T07:49:43.001Z</time></trkpt><trkpt lat="45.39123607099077" lon="9.153535772502824"><ele>105.0</ele><time>2026-05-01T07:49:44.001Z</time></trkpt><trkpt lat="45.39129830906021" lon="9.153354976693771"><ele>105.0</ele><time>2026-05-01T07:49:45.001Z</time></trkpt><trkpt lat="45.39135931597052" lon="9.153176173210387"><ele>105.25</ele><time>2026-05-01T07:49:46.001Z</time></trkpt><trkpt lat="45.391419687707184" lon="9.153004474341584"><ele>105.5</ele><time>2026-05-01T07:49:47.001Z</time></trkpt><trkpt lat="45.391476319155515" lon="9.152839865903227"><ele>105.75</ele><time>2026-05-01T07:49:48.002Z</time></trkpt><trkpt lat="45.391529801325206" lon="9.15268895257643"><ele>106.0</ele><time>2026-05-01T07:49:49.002Z</time></trkpt><trkpt lat="45.39157931101608" lon="9.152556340608406"><ele>106.00000000000001</ele><time>2026-05-01T07:49:50.002Z</time></trkpt><trkpt lat="45.39162067882975" lon="9.152442081329523"><ele>106.0</ele><time>2026-05-01T07:49:51.002Z</time></trkpt><trkpt lat="45.391650811499936" lon="9.152354705061121"><ele>106.0</ele><time>2026-05-01T07:49:52.002Z</time></trkpt><trkpt lat="45.39168473896599" lon="9.152277407368345"><ele>106.0</ele><time>2026-05-01T07:49:54.002Z</time></trkpt><trkpt lat="45.391726330918104" lon="9.152138851917094"><ele>106.00000000000001</ele><time>2026-05-01T07:49:57.002Z</time></trkpt><trkpt lat="45.39176790293211" lon="9.152064171242511"><ele>106.0</ele><time>2026-05-01T07:49:58.002Z</time></trkpt><trkpt lat="45.39179367641002" lon="9.151958745787626"><ele>105.83333333333334</ele><time>2026-05-01T07:49:59.002Z</time></trkpt><trkpt lat="45.39182576506007" lon="9.15186697965956"><ele>105.66666666666667</ele><time>2026-05-01T07:50:00.002Z</time></trkpt><trkpt lat="45.39186090210888" lon="9.151769257269422"><ele>105.5</ele><time>2026-05-01T07:50:01.002Z</time></trkpt><trkpt lat="45.3918967066213" lon="9.1516693033146"><ele>105.33333333333334</ele><time>2026-05-01T07:50:02.002Z</time></trkpt><trkpt lat="45.39192996957462" lon="9.151577298459499"><ele>105.16666666666667</ele><time>2026-05-01T07:50:03.002Z</time></trkpt><trkpt lat="45.39196484588042" lon="9.15149591857005"><ele>105.0</ele><time>2026-05-01T07:50:04.002Z</time></trkpt><trkpt lat="45.39201749699607" lon="9.15136644812685"><ele>105.75</ele><time>2026-05-01T07:50:05.002Z</time></trkpt><trkpt lat="45.39206963372196" lon="9.151202034757999"><ele>106.5</ele><time>2026-05-01T07:50:06.002Z</time></trkpt><trkpt lat="45.39211754821586" lon="9.151040293959348"><ele>107.25</ele><time>2026-05-01T07:50:07.002Z</time></trkpt><trkpt lat="45.392163320170354" lon="9.150894853825129"><ele>108.0</ele><time>2026-05-01T07:50:08.002Z</time></trkpt><trkpt lat="45.39220350045594" lon="9.150764735573379"><ele>107.80000000000001</ele><time>2026-05-01T07:50:09.002Z</time></trkpt><trkpt lat="45.39224362607963" lon="9.150641398735276"><ele>107.60000000000001</ele><time>2026-05-01T07:50:10.002Z</time></trkpt><trkpt lat="45.39229250324388" lon="9.150515086491362"><ele>107.39999999999999</ele><time>2026-05-01T07:50:11.002Z</time></trkpt><trkpt lat="45.39233780163547" lon="9.150385272160557"><ele>107.19999999999999</ele><time>2026-05-01T07:50:12.002Z</time></trkpt><trkpt lat="45.39238355562265" lon="9.150256692491823"><ele>107.0</ele><time>2026-05-01T07:50:13.002Z</time></trkpt><trkpt lat="45.392430269075305" lon="9.15013193083212"><ele>106.99999999999999</ele><time>2026-05-01T07:50:14.002Z</time></trkpt><trkpt lat="45.39247387211818" lon="9.150012557490584"><ele>107.0</ele><time>2026-05-01T07:50:15.002Z</time></trkpt><trkpt lat="45.39251022425415" lon="9.149901241165121"><ele>107.0</ele><time>2026-05-01T07:50:16.002Z</time></trkpt><trkpt lat="45.39254644598228" lon="9.149800354919007"><ele>107.0</ele><time>2026-05-01T07:50:17.002Z</time></trkpt><trkpt lat="45.39257945398025" lon="9.149706453790817"><ele>106.99999999999999</ele><time>2026-05-01T07:50:18.002Z</time></trkpt><trkpt lat="45.39261018527084" lon="9.149619107134741"><ele>107.0</ele><time>2026-05-01T07:50:19.002Z</time></trkpt><trkpt lat="45.392643157132774" lon="9.14952557533811"><ele>106.83333333333333</ele><time>2026-05-01T07:50:20.002Z</time></trkpt><trkpt lat="45.39267736436306" lon="9.149426189430802"><ele>106.66666666666666</ele><time>2026-05-01T07:50:21.003Z</time></trkpt><trkpt lat="45.39271314014147" lon="9.149324870365152"><ele>106.5</ele><time>2026-05-01T07:50:22.003Z</time></trkpt><trkpt lat="45.39275112017059" lon="9.149215160870895"><ele>106.33333333333334</ele><time>2026-05-01T07:50:23.003Z</time></trkpt><trkpt lat="45.39279391618627" lon="9.149097740069799"><ele>106.16666666666667</ele><time>2026-05-01T07:50:24.003Z</time></trkpt><trkpt lat="45.392834093364044" lon="9.148983640489266"><ele>106.0</ele><time>2026-05-01T07:50:25.003Z</time></trkpt><trkpt lat="45.39287108496391" lon="9.148873374298816"><ele>106.66666666666667</ele><time>2026-05-01T07:50:26.003Z</time></trkpt><trkpt lat="45.39291581786077" lon="9.14874206052728"><ele>107.33333333333334</ele><time>2026-05-01T07:50:28.003Z</time></trkpt><trkpt lat="45.39295793627419" lon="9.148623038877922"><ele>108.0</ele><time>2026-05-01T07:50:31.003Z</time></trkpt><trkpt lat="45.39298999851403" lon="9.148518043158925"><ele>108.66666666666666</ele><time>2026-05-01T07:50:33.003Z</time></trkpt><trkpt lat="45.39300874320455" lon="9.14843028844341"><ele>109.33333333333333</ele><time>2026-05-01T07:50:34.003Z</time></trkpt><trkpt lat="45.393046091382715" lon="9.148320561486814"><ele>110.0</ele><time>2026-05-01T07:50:35.003Z</time></trkpt><trkpt lat="45.39308471479658" lon="9.148213391825786"><ele>109.4</ele><time>2026-05-01T07:50:36.003Z</time></trkpt><trkpt lat="45.39312290580539" lon="9.148093295136919"><ele>108.8</ele><time>2026-05-01T07:50:37.003Z</time></trkpt><trkpt lat="45.39317032147816" lon="9.147957109703148"><ele>108.19999999999999</ele><time>2026-05-01T07:50:38.003Z</time></trkpt><trkpt lat="45.39321616799801" lon="9.147812056513112"><ele>107.6</ele><time>2026-05-01T07:50:39.003Z</time></trkpt><trkpt lat="45.39326914822597" lon="9.147655824308847"><ele>107.0</ele><time>2026-05-01T07:50:40.003Z</time></trkpt><trkpt lat="45.39331840232949" lon="9.14750277948417"><ele>107.25</ele><time>2026-05-01T07:50:41.003Z</time></trkpt><trkpt lat="45.39337439201785" lon="9.14735328460503"><ele>107.5</ele><time>2026-05-01T07:50:42.003Z</time></trkpt><trkpt lat="45.393427649947974" lon="9.147203371010121"><ele>107.75</ele><time>2026-05-01T07:50:43.003Z</time></trkpt><trkpt lat="45.393480208859735" lon="9.147049264324215"><ele>108.0</ele><time>2026-05-01T07:50:44.003Z</time></trkpt><trkpt lat="45.39353631582896" lon="9.146889797148884"><ele>108.0</ele><time>2026-05-01T07:50:45.003Z</time></trkpt><trkpt lat="45.39359213925074" lon="9.146732746340133"><ele>108.0</ele><time>2026-05-01T07:50:46.003Z</time></trkpt><trkpt lat="45.39364650333207" lon="9.146574121318503"><ele>108.0</ele><time>2026-05-01T07:50:46.998Z</time></trkpt><trkpt lat="45.3937050608853" lon="9.146405732645652"><ele>108.0</ele><time>2026-05-01T07:50:47.998Z</time></trkpt><trkpt lat="45.39376472901144" lon="9.146232878818937"><ele>107.25</ele><time>2026-05-01T07:50:48.999Z</time></trkpt><trkpt lat="45.39382873667077" lon="9.146063859141316"><ele>106.5</ele><time>2026-05-01T07:50:49.999Z</time></trkpt><trkpt lat="45.39388921207476" lon="9.145905661880285"><ele>105.75</ele><time>2026-05-01T07:50:50.999Z</time></trkpt><trkpt lat="45.39394648042915" lon="9.14575127216741"><ele>105.0</ele><time>2026-05-01T07:50:51.999Z</time></trkpt><trkpt lat="45.394001359456674" lon="9.145603126112986"><ele>105.0</ele><time>2026-05-01T07:50:52.999Z</time></trkpt><trkpt lat="45.39405472173159" lon="9.145459400550083"><ele>105.0</ele><time>2026-05-01T07:50:53.999Z</time></trkpt><trkpt lat="45.39410558712894" lon="9.145320016463824"><ele>105.0</ele><time>2026-05-01T07:50:54.999Z</time></trkpt><trkpt lat="45.39415691924976" lon="9.145184042324429"><ele>105.0</ele><time>2026-05-01T07:50:55.999Z</time></trkpt><trkpt lat="45.394204582574304" lon="9.145054020982007"><ele>105.0</ele><time>2026-05-01T07:50:56.999Z</time></trkpt><trkpt lat="45.39425514831768" lon="9.144928632224648"><ele>105.4</ele><time>2026-05-01T07:50:57.999Z</time></trkpt><trkpt lat="45.39430204142035" lon="9.144821729261961"><ele>105.8</ele><time>2026-05-01T07:50:58.999Z</time></trkpt><trkpt lat="45.39433933367198" lon="9.144731472038622"><ele>106.19999999999999</ele><time>2026-05-01T07:50:59.999Z</time></trkpt><trkpt lat="45.39439399117241" lon="9.144601292749732"><ele>106.6</ele><time>2026-05-01T07:51:01.999Z</time></trkpt><trkpt lat="45.39443431334758" lon="9.144484723842009"><ele>107.0</ele><time>2026-05-01T07:51:03.999Z</time></trkpt><trkpt lat="45.3944837089236" lon="9.144334018486209"><ele>106.99999999999999</ele><time>2026-05-01T07:51:06Z</time></trkpt><trkpt lat="45.394518510175836" lon="9.144245545958544"><ele>107.0</ele><time>2026-05-01T07:51:07Z</time></trkpt><trkpt lat="45.394550078915415" lon="9.144155963815173"><ele>107.0</ele><time>2026-05-01T07:51:08Z</time></trkpt><trkpt lat="45.394576039833254" lon="9.144073584852608"><ele>107.0</ele><time>2026-05-01T07:51:09Z</time></trkpt><trkpt lat="45.39463059923164" lon="9.143911580713075"><ele>106.99999999999999</ele><time>2026-05-01T07:51:11Z</time></trkpt><trkpt lat="45.39466287310811" lon="9.143818106121723"><ele>107.0</ele><time>2026-05-01T07:51:12Z</time></trkpt><trkpt lat="45.394700213134975" lon="9.143723058470886"><ele>106.83333333333333</ele><time>2026-05-01T07:51:13Z</time></trkpt><trkpt lat="45.394734828776286" lon="9.143631022659127"><ele>106.66666666666666</ele><time>2026-05-01T07:51:14Z</time></trkpt><trkpt lat="45.39476688740064" lon="9.143536861439411"><ele>106.5</ele><time>2026-05-01T07:51:15Z</time></trkpt><trkpt lat="45.39480029681811" lon="9.143442151224763"><ele>106.33333333333334</ele><time>2026-05-01T07:51:16Z</time></trkpt><trkpt lat="45.39483419156194" lon="9.143346267077925"><ele>106.16666666666667</ele><time>2026-05-01T07:51:17Z</time></trkpt><trkpt lat="45.39486942263745" lon="9.143248433062643"><ele>106.0</ele><time>2026-05-01T07:51:18Z</time></trkpt><trkpt lat="45.39490406914953" lon="9.143147476421076"><ele>106.00000000000001</ele><time>2026-05-01T07:51:19Z</time></trkpt><trkpt lat="45.39494032471336" lon="9.143048588222515"><ele>106.0</ele><time>2026-05-01T07:51:20Z</time></trkpt><trkpt lat="45.39497623934865" lon="9.142948015544311"><ele>106.0</ele><time>2026-05-01T07:51:21Z</time></trkpt><trkpt lat="45.39501141702487" lon="9.14284573502362"><ele>106.0</ele><time>2026-05-01T07:51:22Z</time></trkpt><trkpt lat="45.39504649534277" lon="9.142744460771386"><ele>106.00000000000001</ele><time>2026-05-01T07:51:23Z</time></trkpt><trkpt lat="45.39508040409365" lon="9.142649812846795"><ele>106.0</ele><time>2026-05-01T07:51:24Z</time></trkpt><trkpt lat="45.39510989587024" lon="9.142565695950752"><ele>106.00000000000001</ele><time>2026-05-01T07:51:25.001Z</time></trkpt><trkpt lat="45.39514029338812" lon="9.142484014332648"><ele>106.0</ele><time>2026-05-01T07:51:26.001Z</time></trkpt><trkpt lat="45.39517314270671" lon="9.142399553961445"><ele>106.0</ele><time>2026-05-01T07:51:27.001Z</time></trkpt><trkpt lat="45.39520280558456" lon="9.142317781013329"><ele>106.0</ele><time>2026-05-01T07:51:28.001Z</time></trkpt><trkpt lat="45.39525807607937" lon="9.142166970794415"><ele>106.00000000000001</ele><time>2026-05-01T07:51:30.001Z</time></trkpt><trkpt lat="45.395306868150556" lon="9.142020703319542"><ele>106.0</ele><time>2026-05-01T07:51:32.001Z</time></trkpt><trkpt lat="45.395357327259326" lon="9.141876505876198"><ele>105.8</ele><time>2026-05-01T07:51:34.001Z</time></trkpt><trkpt lat="45.39542247805632" lon="9.141716051787057"><ele>105.6</ele><time>2026-05-01T07:51:36.001Z</time></trkpt><trkpt lat="45.39545202482632" lon="9.141602903519624"><ele>105.4</ele><time>2026-05-01T07:51:39.001Z</time></trkpt><trkpt lat="45.39549803406287" lon="9.141471877906085"><ele>105.2</ele><time>2026-05-01T07:51:41.001Z</time></trkpt><trkpt lat="45.39553466644543" lon="9.141370514394453"><ele>105.0</ele><time>2026-05-01T07:51:42.001Z</time></trkpt><trkpt lat="45.39556933642998" lon="9.141281673115822"><ele>105.33333333333333</ele><time>2026-05-01T07:51:43.001Z</time></trkpt><trkpt lat="45.39560143843976" lon="9.141189373799262"><ele>105.66666666666666</ele><time>2026-05-01T07:51:44.001Z</time></trkpt><trkpt lat="45.39563901421077" lon="9.141084941197187"><ele>106.0</ele><time>2026-05-01T07:51:45.001Z</time></trkpt><trkpt lat="45.395679489854984" lon="9.14097916600369"><ele>106.33333333333333</ele><time>2026-05-01T07:51:46.001Z</time></trkpt><trkpt lat="45.395716566625396" lon="9.14088461398352"><ele>106.66666666666666</ele><time>2026-05-01T07:51:47.001Z</time></trkpt><trkpt lat="45.39575197720488" lon="9.140800249080897"><ele>107.0</ele><time>2026-05-01T07:51:48.001Z</time></trkpt><trkpt lat="45.39578745213212" lon="9.140706622112582"><ele>107.66666666666666</ele><time>2026-05-01T07:51:49.001Z</time></trkpt><trkpt lat="45.39582647734674" lon="9.140613457137869"><ele>108.33333333333333</ele><time>2026-05-01T07:51:50.001Z</time></trkpt><trkpt lat="45.39587334766465" lon="9.140523165673685"><ele>109.0</ele><time>2026-05-01T07:51:51.001Z</time></trkpt><trkpt lat="45.39593130186997" lon="9.140444144528876"><ele>109.66666666666666</ele><time>2026-05-01T07:51:52.001Z</time></trkpt><trkpt lat="45.395988174736544" lon="9.140367943611844"><ele>110.33333333333333</ele><time>2026-05-01T07:51:53.002Z</time></trkpt><trkpt lat="45.39605641471432" lon="9.140298394273406"><ele>111.0</ele><time>2026-05-01T07:51:54.002Z</time></trkpt><trkpt lat="45.396126266775155" lon="9.140235979387583"><ele>111.0</ele><time>2026-05-01T07:51:55.002Z</time></trkpt><trkpt lat="45.39620707872911" lon="9.140184775077758"><ele>111.0</ele><time>2026-05-01T07:51:56.002Z</time></trkpt><trkpt lat="45.396287871119995" lon="9.140142555074453"><ele>111.0</ele><time>2026-05-01T07:51:57.002Z</time></trkpt><trkpt lat="45.39636894695782" lon="9.140115069301839"><ele>111.0</ele><time>2026-05-01T07:51:58.002Z</time></trkpt><trkpt lat="45.39644570735188" lon="9.14010664907925"><ele>111.0</ele><time>2026-05-01T07:51:59.002Z</time></trkpt><trkpt lat="45.396521840991966" lon="9.140110810849183"><ele>111.0</ele><time>2026-05-01T07:52:00.002Z</time></trkpt><trkpt lat="45.39659995604374" lon="9.140141704289714"><ele>110.33333333333333</ele><time>2026-05-01T07:52:01.002Z</time></trkpt><trkpt lat="45.39667475757659" lon="9.140194808617002"><ele>109.66666666666666</ele><time>2026-05-01T07:52:02.002Z</time></trkpt><trkpt lat="45.396743941302084" lon="9.140266432019232"><ele>109.0</ele><time>2026-05-01T07:52:03.002Z</time></trkpt><trkpt lat="45.39680523170608" lon="9.140358722714234"><ele>108.33333333333333</ele><time>2026-05-01T07:52:04.002Z</time></trkpt><trkpt lat="45.39685176485349" lon="9.140462143345646"><ele>107.66666666666666</ele><time>2026-05-01T07:52:05.002Z</time></trkpt><trkpt lat="45.39688347804057" lon="9.140574297252062"><ele>107.0</ele><time>2026-05-01T07:52:06.002Z</time></trkpt><trkpt lat="45.39689694295802" lon="9.14069039655412"><ele>106.66666666666666</ele><time>2026-05-01T07:52:07.002Z</time></trkpt><trkpt lat="45.39689896032476" lon="9.140809733855386"><ele>106.33333333333333</ele><time>2026-05-01T07:52:08.002Z</time></trkpt><trkpt lat="45.39689266018147" lon="9.140921303806342"><ele>106.0</ele><time>2026-05-01T07:52:09.002Z</time></trkpt><trkpt lat="45.396873353687184" lon="9.141027136562213"><ele>105.66666666666666</ele><time>2026-05-01T07:52:10.002Z</time></trkpt><trkpt lat="45.39683582925935" lon="9.141126918664195"><ele>105.33333333333333</ele><time>2026-05-01T07:52:11.002Z</time></trkpt><trkpt lat="45.39679153760606" lon="9.141213142628821"><ele>105.0</ele><time>2026-05-01T07:52:12.002Z</time></trkpt><trkpt lat="45.39673898749483" lon="9.14128732575262"><ele>105.0</ele><time>2026-05-01T07:52:13.002Z</time></trkpt><trkpt lat="45.39666699002035" lon="9.141330679586357"><ele>105.0</ele><time>2026-05-01T07:52:14.002Z</time></trkpt><trkpt lat="45.39660429389752" lon="9.141373054013036"><ele>105.0</ele><time>2026-05-01T07:52:15.002Z</time></trkpt><trkpt lat="45.396540502831584" lon="9.141413265115409"><ele>105.0</ele><time>2026-05-01T07:52:16.002Z</time></trkpt><trkpt lat="45.39647007295632" lon="9.141448669457592"><ele>105.0</ele><time>2026-05-01T07:52:17.002Z</time></trkpt><trkpt lat="45.39639910254733" lon="9.141472609464028"><ele>105.0</ele><time>2026-05-01T07:52:18.002Z</time></trkpt><trkpt lat="45.396327013198544" lon="9.14149482421478"><ele>105.0</ele><time>2026-05-01T07:52:19.002Z</time></trkpt><trkpt lat="45.39625357741659" lon="9.141507859831695"><ele>105.4</ele><time>2026-05-01T07:52:20.002Z</time></trkpt><trkpt lat="45.396174855717945" lon="9.14150396996349"><ele>105.8</ele><time>2026-05-01T07:52:21.002Z</time></trkpt><trkpt lat="45.39608799422689" lon="9.141499639822117"><ele>106.19999999999999</ele><time>2026-05-01T07:52:22.002Z</time></trkpt><trkpt lat="45.395991754048396" lon="9.141467787658096"><ele>106.6</ele><time>2026-05-01T07:52:23.002Z</time></trkpt><trkpt lat="45.39589050781991" lon="9.141426966591304"><ele>107.0</ele><time>2026-05-01T07:52:24.002Z</time></trkpt><trkpt lat="45.39579513598911" lon="9.141386793729838"><ele>107.0</ele><time>2026-05-01T07:52:25.002Z</time></trkpt><trkpt lat="45.3956996086128" lon="9.141346393825364"><ele>106.99999999999999</ele><time>2026-05-01T07:52:26.003Z</time></trkpt><trkpt lat="45.395596567348115" lon="9.141303241162737"><ele>106.99999999999999</ele><time>2026-05-01T07:52:27.003Z</time></trkpt><trkpt lat="45.39549366896156" lon="9.14125910141627"><ele>107.0</ele><time>2026-05-01T07:52:28.003Z</time></trkpt><trkpt lat="45.395378051779794" lon="9.141212292502894"><ele>107.0</ele><time>2026-05-01T07:52:29.003Z</time></trkpt><trkpt lat="45.39525775097086" lon="9.141165842991153"><ele>106.5</ele><time>2026-05-01T07:52:30.003Z</time></trkpt><trkpt lat="45.395129825216586" lon="9.141114242202283"><ele>106.0</ele><time>2026-05-01T07:52:31.003Z</time></trkpt><trkpt lat="45.394998752048174" lon="9.141050307859244"><ele>105.5</ele><time>2026-05-01T07:52:32.003Z</time></trkpt><trkpt lat="45.39484467200865" lon="9.14097241249514"><ele>105.0</ele><time>2026-05-01T07:52:33.003Z</time></trkpt><trkpt lat="45.39469660243941" lon="9.140903905783308"><ele>104.66666666666666</ele><time>2026-05-01T07:52:34.003Z</time></trkpt><trkpt lat="45.39454877370656" lon="9.140837655937563"><ele>104.33333333333333</ele><time>2026-05-01T07:52:35.003Z</time></trkpt><trkpt lat="45.394407647321174" lon="9.140774968042068"><ele>104.0</ele><time>2026-05-01T07:52:36.003Z</time></trkpt><trkpt lat="45.39426196128965" lon="9.140710226853738"><ele>104.0</ele><time>2026-05-01T07:52:37.003Z</time></trkpt><trkpt lat="45.39411770243715" lon="9.140649497152475"><ele>104.0</ele><time>2026-05-01T07:52:38.003Z</time></trkpt><trkpt lat="45.39396944735515" lon="9.14058698651502"><ele>104.0</ele><time>2026-05-01T07:52:39.003Z</time></trkpt><trkpt lat="45.39382354846643" lon="9.14052287408731"><ele>104.0</ele><time>2026-05-01T07:52:40.003Z</time></trkpt><trkpt lat="45.39367581230642" lon="9.140456172045988"><ele>104.0</ele><time>2026-05-01T07:52:41.003Z</time></trkpt><trkpt lat="45.3935308650301" lon="9.140389432085302"><ele>104.0</ele><time>2026-05-01T07:52:42.003Z</time></trkpt><trkpt lat="45.39338659040452" lon="9.140324815741497"><ele>104.0</ele><time>2026-05-01T07:52:43.003Z</time></trkpt><trkpt lat="45.39324140078992" lon="9.14026144276698"><ele>104.0</ele><time>2026-05-01T07:52:44.003Z</time></trkpt><trkpt lat="45.393102538688176" lon="9.140199375151465"><ele>104.0</ele><time>2026-05-01T07:52:45.003Z</time></trkpt><trkpt lat="45.39296283026279" lon="9.140139735689221"><ele>104.0</ele><time>2026-05-01T07:52:46.003Z</time></trkpt><trkpt lat="45.392822657981185" lon="9.140078580920555"><ele>103.66666666666666</ele><time>2026-05-01T07:52:47.003Z</time></trkpt><trkpt lat="45.39268088433962" lon="9.140042311565042"><ele>103.33333333333334</ele><time>2026-05-01T07:52:48.003Z</time></trkpt><trkpt lat="45.39253700122096" lon="9.139956443444115"><ele>103.0</ele><time>2026-05-01T07:52:49.003Z</time></trkpt><trkpt lat="45.3923930118996" lon="9.139893726720217"><ele>103.0</ele><time>2026-05-01T07:52:50.003Z</time></trkpt><trkpt lat="45.392249263013035" lon="9.139827433341296"><ele>103.0</ele><time>2026-05-01T07:52:51.003Z</time></trkpt><trkpt lat="45.392105480205544" lon="9.13976130378373"><ele>103.0</ele><time>2026-05-01T07:52:52.003Z</time></trkpt><trkpt lat="45.39196684234425" lon="9.139696875661738"><ele>103.0</ele><time>2026-05-01T07:52:52.997Z</time></trkpt><trkpt lat="45.39183367214783" lon="9.139631437844512"><ele>102.75</ele><time>2026-05-01T07:52:53.997Z</time></trkpt><trkpt lat="45.391703783432824" lon="9.139566229441646"><ele>102.5</ele><time>2026-05-01T07:52:54.997Z</time></trkpt><trkpt lat="45.39157480133078" lon="9.139535589715178"><ele>102.25</ele><time>2026-05-01T07:52:55.997Z</time></trkpt><trkpt lat="45.391455729434" lon="9.13948599043222"><ele>102.0</ele><time>2026-05-01T07:52:56.997Z</time></trkpt><trkpt lat="45.39134492948874" lon="9.13943441907806"><ele>102.19999999999999</ele><time>2026-05-01T07:52:57.998Z</time></trkpt><trkpt lat="45.391244113249314" lon="9.139376520289188"><ele>102.4</ele><time>2026-05-01T07:52:58.998Z</time></trkpt><trkpt lat="45.391159556032335" lon="9.139291204815946"><ele>102.6</ele><time>2026-05-01T07:52:59.998Z</time></trkpt><trkpt lat="45.39106403667583" lon="9.13924334066086"><ele>102.80000000000001</ele><time>2026-05-01T07:53:00.998Z</time></trkpt><trkpt lat="45.39097104923163" lon="9.139196253862188"><ele>103.0</ele><time>2026-05-01T07:53:01.998Z</time></trkpt><trkpt lat="45.39088042911466" lon="9.139148001024832"><ele>103.0</ele><time>2026-05-01T07:53:02.998Z</time></trkpt><trkpt lat="45.39078461397176" lon="9.139095509710879"><ele>103.0</ele><time>2026-05-01T07:53:03.998Z</time></trkpt><trkpt lat="45.390678737191415" lon="9.139033531770968"><ele>103.0</ele><time>2026-05-01T07:53:04.998Z</time></trkpt><trkpt lat="45.390570951391695" lon="9.138962618163019"><ele>103.0</ele><time>2026-05-01T07:53:05.998Z</time></trkpt><trkpt lat="45.39046144759758" lon="9.138889150320125"><ele>103.0</ele><time>2026-05-01T07:53:06.999Z</time></trkpt><trkpt lat="45.390354986490095" lon="9.138809457997962"><ele>103.0</ele><time>2026-05-01T07:53:07.999Z</time></trkpt><trkpt lat="45.390251585657026" lon="9.138738372199363"><ele>103.0</ele><time>2026-05-01T07:53:08.999Z</time></trkpt><trkpt lat="45.390156136486844" lon="9.138671978539238"><ele>103.0</ele><time>2026-05-01T07:53:09.999Z</time></trkpt><trkpt lat="45.39006514415871" lon="9.138600527095539"><ele>103.0</ele><time>2026-05-01T07:53:10.999Z</time></trkpt><trkpt lat="45.38997334275724" lon="9.138533259369861"><ele>103.0</ele><time>2026-05-01T07:53:11.999Z</time></trkpt><trkpt lat="45.389881794003344" lon="9.13846883905212"><ele>103.0</ele><time>2026-05-01T07:53:12.999Z</time></trkpt><trkpt lat="45.38978874893114" lon="9.13840758826419"><ele>103.0</ele><time>2026-05-01T07:53:13.999Z</time></trkpt><trkpt lat="45.389696919455915" lon="9.138351699581767"><ele>103.0</ele><time>2026-05-01T07:53:14.999Z</time></trkpt><trkpt lat="45.38961236896346" lon="9.13830419124654"><ele>103.0</ele><time>2026-05-01T07:53:15.999Z</time></trkpt><trkpt lat="45.389538187728846" lon="9.138258487869503"><ele>103.00000000000001</ele><time>2026-05-01T07:53:17Z</time></trkpt><trkpt lat="45.38947242161863" lon="9.138220705444592"><ele>103.0</ele><time>2026-05-01T07:53:18Z</time></trkpt><trkpt lat="45.38940865369418" lon="9.1381834311004"><ele>103.0</ele><time>2026-05-01T07:53:19Z</time></trkpt><trkpt lat="45.389340065005996" lon="9.138141327631192"><ele>103.0</ele><time>2026-05-01T07:53:20Z</time></trkpt><trkpt lat="45.38927068696738" lon="9.13812156870612"><ele>103.00000000000001</ele><time>2026-05-01T07:53:21Z</time></trkpt><trkpt lat="45.38918361214852" lon="9.138079947860467"><ele>103.0</ele><time>2026-05-01T07:53:22Z</time></trkpt><trkpt lat="45.38905609107478" lon="9.138011868085467"><ele>103.0</ele><time>2026-05-01T07:53:23Z</time></trkpt><trkpt lat="45.388948186196224" lon="9.137975038301795"><ele>103.0</ele><time>2026-05-01T07:53:24Z</time></trkpt><trkpt lat="45.38883040540817" lon="9.13793508129986"><ele>103.0</ele><time>2026-05-01T07:53:25Z</time></trkpt><trkpt lat="45.38870337431217" lon="9.137893625296295"><ele>103.0</ele><time>2026-05-01T07:53:26Z</time></trkpt><trkpt lat="45.38856992771623" lon="9.137852321420791"><ele>102.75</ele><time>2026-05-01T07:53:27Z</time></trkpt><trkpt lat="45.38844359248245" lon="9.137817091683708"><ele>102.5</ele><time>2026-05-01T07:53:28Z</time></trkpt><trkpt lat="45.38832294954405" lon="9.137788179864666"><ele>102.25</ele><time>2026-05-01T07:53:29Z</time></trkpt><trkpt lat="45.38819760190063" lon="9.137764557481242"><ele>102.0</ele><time>2026-05-01T07:53:30Z</time></trkpt><trkpt lat="45.388076591661864" lon="9.137731794805134"><ele>102.0</ele><time>2026-05-01T07:53:31Z</time></trkpt><trkpt lat="45.387961193944754" lon="9.13770233927216"><ele>102.0</ele><time>2026-05-01T07:53:32Z</time></trkpt><trkpt lat="45.387838263043825" lon="9.137672494855757"><ele>102.0</ele><time>2026-05-01T07:53:33Z</time></trkpt><trkpt lat="45.387712752054895" lon="9.137632333895874"><ele>102.0</ele><time>2026-05-01T07:53:34.001Z</time></trkpt><trkpt lat="45.38758812810596" lon="9.137583087452994"><ele>102.0</ele><time>2026-05-01T07:53:35.001Z</time></trkpt><trkpt lat="45.38746046768326" lon="9.137519394919329"><ele>102.0</ele><time>2026-05-01T07:53:36.001Z</time></trkpt><trkpt lat="45.387327007100126" lon="9.137447300541687"><ele>102.0</ele><time>2026-05-01T07:53:37.001Z</time></trkpt><trkpt lat="45.38718908373181" lon="9.137370244056495"><ele>102.0</ele><time>2026-05-01T07:53:38.001Z</time></trkpt><trkpt lat="45.38703692923125" lon="9.137281072277764"><ele>101.66666666666666</ele><time>2026-05-01T07:53:39.001Z</time></trkpt><trkpt lat="45.38687315877421" lon="9.137189092773186"><ele>101.33333333333333</ele><time>2026-05-01T07:53:40.001Z</time></trkpt><trkpt lat="45.38670088062966" lon="9.13708611608026"><ele>101.0</ele><time>2026-05-01T07:53:41.001Z</time></trkpt><trkpt lat="45.38653441154199" lon="9.136990522349787"><ele>101.0</ele><time>2026-05-01T07:53:42.001Z</time></trkpt><trkpt lat="45.38636671930256" lon="9.136896053039552"><ele>101.0</ele><time>2026-05-01T07:53:43.001Z</time></trkpt><trkpt lat="45.38619555029739" lon="9.136793066238882"><ele>101.0</ele><time>2026-05-01T07:53:44.001Z</time></trkpt><trkpt lat="45.38602199337376" lon="9.13669216104011"><ele>101.0</ele><time>2026-05-01T07:53:45.001Z</time></trkpt><trkpt lat="45.38584431110766" lon="9.136591187020885"><ele>101.0</ele><time>2026-05-01T07:53:46.001Z</time></trkpt><trkpt lat="45.3856649680132" lon="9.136486956961361"><ele>101.0</ele><time>2026-05-01T07:53:47.001Z</time></trkpt><trkpt lat="45.385482395339196" lon="9.136377922056845"><ele>100.33333333333333</ele><time>2026-05-01T07:53:48.001Z</time></trkpt><trkpt lat="45.38529429009544" lon="9.136269300829243"><ele>99.66666666666666</ele><time>2026-05-01T07:53:49.001Z</time></trkpt><trkpt lat="45.38510678082462" lon="9.136156894317702"><ele>99.0</ele><time>2026-05-01T07:53:50.001Z</time></trkpt><trkpt lat="45.38491733677047" lon="9.136044848236788"><ele>99.0</ele><time>2026-05-01T07:53:51.001Z</time></trkpt><trkpt lat="45.38473539758335" lon="9.135935981981692"><ele>99.0</ele><time>2026-05-01T07:53:52.001Z</time></trkpt><trkpt lat="45.38455074524113" lon="9.135825912615779"><ele>99.0</ele><time>2026-05-01T07:53:53.001Z</time></trkpt><trkpt lat="45.38436513746813" lon="9.135715703746206"><ele>99.66666666666666</ele><time>2026-05-01T07:53:54.001Z</time></trkpt><trkpt lat="45.38417683998476" lon="9.135605297253248"><ele>100.33333333333333</ele><time>2026-05-01T07:53:55.001Z</time></trkpt><trkpt lat="45.38398679685406" lon="9.135495269382625"><ele>101.0</ele><time>2026-05-01T07:53:56.001Z</time></trkpt><trkpt lat="45.38379726677983" lon="9.135383627803584"><ele>101.0</ele><time>2026-05-01T07:53:57.001Z</time></trkpt><trkpt lat="45.38360303943029" lon="9.135271542840362"><ele>101.0</ele><time>2026-05-01T07:53:58.001Z</time></trkpt><trkpt lat="45.38340598365143" lon="9.135157790866854"><ele>101.0</ele><time>2026-05-01T07:53:59.002Z</time></trkpt><trkpt lat="45.38320589060265" lon="9.135042297580124"><ele>101.0</ele><time>2026-05-01T07:54:00.002Z</time></trkpt><trkpt lat="45.38300503960233" lon="9.134926353066987"><ele>101.0</ele><time>2026-05-01T07:54:01.002Z</time></trkpt><trkpt lat="45.38280579024061" lon="9.134808851195436"><ele>101.0</ele><time>2026-05-01T07:54:02.002Z</time></trkpt><trkpt lat="45.382607331859624" lon="9.134692462512088"><ele>101.0</ele><time>2026-05-01T07:54:03.002Z</time></trkpt><trkpt lat="45.38240735776179" lon="9.134574264749027"><ele>101.0</ele><time>2026-05-01T07:54:04.002Z</time></trkpt><trkpt lat="45.38220537919144" lon="9.134457246462839"><ele>101.0</ele><time>2026-05-01T07:54:05.002Z</time></trkpt><trkpt lat="45.38200091796312" lon="9.134337070985444"><ele>102.0</ele><time>2026-05-01T07:54:06.002Z</time></trkpt><trkpt lat="45.381793938833106" lon="9.134213193979116"><ele>103.0</ele><time>2026-05-01T07:54:07.002Z</time></trkpt><trkpt lat="45.381582921673306" lon="9.134086164436996"><ele>102.5</ele><time>2026-05-01T07:54:08.002Z</time></trkpt><trkpt lat="45.38136744754133" lon="9.133959284743014"><ele>102.0</ele><time>2026-05-01T07:54:09.002Z</time></trkpt><trkpt lat="45.38114143018071" lon="9.13382288002456"><ele>102.0</ele><time>2026-05-01T07:54:10.002Z</time></trkpt><trkpt lat="45.380912061491614" lon="9.133691058115826"><ele>102.0</ele><time>2026-05-01T07:54:11.002Z</time></trkpt><trkpt lat="45.380689911522104" lon="9.133555467869396"><ele>102.0</ele><time>2026-05-01T07:54:12.002Z</time></trkpt><trkpt lat="45.380470412966964" lon="9.133425650796708"><ele>102.0</ele><time>2026-05-01T07:54:13.002Z</time></trkpt><trkpt lat="45.38024858452947" lon="9.13329789556535"><ele>101.5</ele><time>2026-05-01T07:54:14.002Z</time></trkpt><trkpt lat="45.38002711194677" lon="9.133170036722234"><ele>101.0</ele><time>2026-05-01T07:54:15.002Z</time></trkpt><trkpt lat="45.379810219921744" lon="9.133037980102344"><ele>101.0</ele><time>2026-05-01T07:54:16.002Z</time></trkpt><trkpt lat="45.37959110518899" lon="9.132907137507955"><ele>101.0</ele><time>2026-05-01T07:54:17.002Z</time></trkpt><trkpt lat="45.37937037454094" lon="9.132777765483297"><ele>101.0</ele><time>2026-05-01T07:54:18.002Z</time></trkpt><trkpt lat="45.37914764850763" lon="9.132646966617902"><ele>101.0</ele><time>2026-05-01T07:54:19.002Z</time></trkpt><trkpt lat="45.37892796125168" lon="9.132515327809864"><ele>102.0</ele><time>2026-05-01T07:54:20.002Z</time></trkpt><trkpt lat="45.37870657516274" lon="9.132384329356613"><ele>103.0</ele><time>2026-05-01T07:54:21.002Z</time></trkpt><trkpt lat="45.3784853392856" lon="9.132251560164782"><ele>103.0</ele><time>2026-05-01T07:54:22.002Z</time></trkpt><trkpt lat="45.378264023067175" lon="9.13211522230073"><ele>103.0</ele><time>2026-05-01T07:54:23.002Z</time></trkpt><trkpt lat="45.37804128248887" lon="9.131983163084202"><ele>101.5</ele><time>2026-05-01T07:54:24.002Z</time></trkpt><trkpt lat="45.377821862579246" lon="9.131856269563738"><ele>100.0</ele><time>2026-05-01T07:54:25.002Z</time></trkpt><trkpt lat="45.37760095747206" lon="9.131730682279558"><ele>100.0</ele><time>2026-05-01T07:54:26.002Z</time></trkpt><trkpt lat="45.37738945262184" lon="9.13160423962602"><ele>100.0</ele><time>2026-05-01T07:54:27.002Z</time></trkpt><trkpt lat="45.37717824895916" lon="9.13147799454906"><ele>100.5</ele><time>2026-05-01T07:54:28.002Z</time></trkpt><trkpt lat="45.376967356328024" lon="9.131349322032722"><ele>101.0</ele><time>2026-05-01T07:54:29.002Z</time></trkpt><trkpt lat="45.37675445569563" lon="9.131221042792646"><ele>101.0</ele><time>2026-05-01T07:54:30.002Z</time></trkpt><trkpt lat="45.37654195746864" lon="9.13109554834781"><ele>101.0</ele><time>2026-05-01T07:54:31.003Z</time></trkpt><trkpt lat="45.37633041459343" lon="9.130968511293462"><ele>101.0</ele><time>2026-05-01T07:54:32.003Z</time></trkpt><trkpt lat="45.37612103419703" lon="9.130836702781151"><ele>101.0</ele><time>2026-05-01T07:54:33.003Z</time></trkpt><trkpt lat="45.37591069690512" lon="9.13070370897845"><ele>101.0</ele><time>2026-05-01T07:54:34.003Z</time></trkpt><trkpt lat="45.375699840767" lon="9.130568032346133"><ele>101.0</ele><time>2026-05-01T07:54:35.003Z</time></trkpt><trkpt lat="45.37549149780625" lon="9.130428444970994"><ele>101.0</ele><time>2026-05-01T07:54:36.003Z</time></trkpt><trkpt lat="45.375282331222586" lon="9.130281995602914"><ele>101.0</ele><time>2026-05-01T07:54:37.003Z</time></trkpt><trkpt lat="45.37507447284878" lon="9.130134011830826"><ele>101.0</ele><time>2026-05-01T07:54:38.003Z</time></trkpt><trkpt lat="45.37486704972431" lon="9.129981452162802"><ele>101.0</ele><time>2026-05-01T07:54:39.003Z</time></trkpt><trkpt lat="45.37466294506516" lon="9.12982059290467"><ele>102.0</ele><time>2026-05-01T07:54:40.003Z</time></trkpt><trkpt lat="45.374460496207504" lon="9.12965766553941"><ele>103.0</ele><time>2026-05-01T07:54:41.003Z</time></trkpt><trkpt lat="45.37425754854384" lon="9.129491242191314"><ele>103.0</ele><time>2026-05-01T07:54:42.003Z</time></trkpt><trkpt lat="45.37405641831101" lon="9.129320257909518"><ele>103.0</ele><time>2026-05-01T07:54:43.003Z</time></trkpt><trkpt lat="45.37385468940396" lon="9.129142550456415"><ele>101.0</ele><time>2026-05-01T07:54:44.003Z</time></trkpt><trkpt lat="45.373656551978605" lon="9.128964194473577"><ele>99.0</ele><time>2026-05-01T07:54:45.003Z</time></trkpt><trkpt lat="45.37345710601575" lon="9.128778600557837"><ele>99.0</ele><time>2026-05-01T07:54:46.003Z</time></trkpt><trkpt lat="45.37326068711363" lon="9.128588254010465"><ele>99.0</ele><time>2026-05-01T07:54:47.003Z</time></trkpt><trkpt lat="45.37306474796182" lon="9.128400736997477"><ele>100.0</ele><time>2026-05-01T07:54:48.003Z</time></trkpt><trkpt lat="45.372867181218545" lon="9.128213184133202"><ele>101.0</ele><time>2026-05-01T07:54:49.003Z</time></trkpt><trkpt lat="45.37266955662827" lon="9.128028618255664"><ele>101.0</ele><time>2026-05-01T07:54:50.003Z</time></trkpt><trkpt lat="45.37247058201216" lon="9.127841285511982"><ele>101.0</ele><time>2026-05-01T07:54:51.003Z</time></trkpt><trkpt lat="45.372270701479856" lon="9.127650007760534"><ele>101.0</ele><time>2026-05-01T07:54:52.003Z</time></trkpt><trkpt lat="45.37207289073027" lon="9.127458229167708"><ele>101.0</ele><time>2026-05-01T07:54:53.003Z</time></trkpt><trkpt lat="45.37187417614016" lon="9.127269566250456"><ele>100.5</ele><time>2026-05-01T07:54:54.003Z</time></trkpt><trkpt lat="45.37167599556034" lon="9.127083872869589"><ele>100.0</ele><time>2026-05-01T07:54:55.003Z</time></trkpt><trkpt lat="45.37147683362527" lon="9.126895864077515"><ele>100.0</ele><time>2026-05-01T07:54:56.003Z</time></trkpt><trkpt lat="45.37127668559641" lon="9.126707644579126"><ele>100.0</ele><time>2026-05-01T07:54:57.003Z</time></trkpt><trkpt lat="45.371079740306165" lon="9.126519932532938"><ele>99.0</ele><time>2026-05-01T07:54:58.003Z</time></trkpt><trkpt lat="45.370883424550684" lon="9.126332489495967"><ele>98.0</ele><time>2026-05-01T07:54:58.998Z</time></trkpt><trkpt lat="45.37068646441428" lon="9.126144746893527"><ele>100.5</ele><time>2026-05-01T07:54:59.998Z</time></trkpt><trkpt lat="45.37048918325325" lon="9.12595875185093"><ele>103.0</ele><time>2026-05-01T07:55:00.998Z</time></trkpt><trkpt lat="45.37029289825553" lon="9.12577323195144"><ele>101.5</ele><time>2026-05-01T07:55:01.998Z</time></trkpt><trkpt lat="45.370098799058425" lon="9.125589061740385"><ele>100.0</ele><time>2026-05-01T07:55:02.998Z</time></trkpt><trkpt lat="45.36990158810817" lon="9.125404582057465"><ele>100.0</ele><time>2026-05-01T07:55:03.999Z</time></trkpt><trkpt lat="45.369705941142264" lon="9.125218137184982"><ele>100.0</ele><time>2026-05-01T07:55:04.999Z</time></trkpt><trkpt lat="45.36950909874762" lon="9.12503286003257"><ele>100.5</ele><time>2026-05-01T07:55:05.999Z</time></trkpt><trkpt lat="45.36931319789463" lon="9.124844246577334"><ele>101.0</ele><time>2026-05-01T07:55:06.999Z</time></trkpt><trkpt lat="45.36911370187867" lon="9.124654886738638"><ele>101.0</ele><time>2026-05-01T07:55:07.999Z</time></trkpt><trkpt lat="45.36891397429126" lon="9.124459300695792"><ele>101.0</ele><time>2026-05-01T07:55:08.999Z</time></trkpt><trkpt lat="45.36871111930397" lon="9.1242634552434"><ele>101.0</ele><time>2026-05-01T07:55:09.999Z</time></trkpt><trkpt lat="45.36850440075554" lon="9.124070967382965"><ele>101.0</ele><time>2026-05-01T07:55:10.999Z</time></trkpt><trkpt lat="45.36829551225231" lon="9.123876803992736"><ele>101.0</ele><time>2026-05-01T07:55:11.999Z</time></trkpt><trkpt lat="45.36808673405306" lon="9.123681329583757"><ele>101.0</ele><time>2026-05-01T07:55:12.999Z</time></trkpt><trkpt lat="45.367877792234886" lon="9.123485682450934"><ele>101.0</ele><time>2026-05-01T07:55:13.999Z</time></trkpt><trkpt lat="45.367664901505414" lon="9.123294689392216"><ele>101.0</ele><time>2026-05-01T07:55:14.999Z</time></trkpt><trkpt lat="45.36745169239011" lon="9.123105248639263"><ele>101.0</ele><time>2026-05-01T07:55:15.999Z</time></trkpt><trkpt lat="45.36723875049367" lon="9.12290663745108"><ele>101.0</ele><time>2026-05-01T07:55:16.999Z</time></trkpt><trkpt lat="45.36703033655912" lon="9.122711182169764"><ele>101.0</ele><time>2026-05-01T07:55:17.999Z</time></trkpt><trkpt lat="45.366822430983234" lon="9.122516515147243"><ele>101.0</ele><time>2026-05-01T07:55:19Z</time></trkpt><trkpt lat="45.36661338399839" lon="9.122322756387018"><ele>101.0</ele><time>2026-05-01T07:55:20Z</time></trkpt><trkpt lat="45.36640476961264" lon="9.122127353268725"><ele>101.0</ele><time>2026-05-01T07:55:21Z</time></trkpt><trkpt lat="45.366186603434286" lon="9.121923685033144"><ele>101.5</ele><time>2026-05-01T07:55:22Z</time></trkpt><trkpt lat="45.36595815577023" lon="9.121701984403925"><ele>102.0</ele><time>2026-05-01T07:55:23Z</time></trkpt><trkpt lat="45.36571987648318" lon="9.121479891447647"><ele>101.0</ele><time>2026-05-01T07:55:24Z</time></trkpt><trkpt lat="45.36547331401081" lon="9.121247851352633"><ele>100.0</ele><time>2026-05-01T07:55:25Z</time></trkpt><trkpt lat="45.36522208759203" lon="9.12100584894513"><ele>100.0</ele><time>2026-05-01T07:55:26Z</time></trkpt><trkpt lat="45.364964915462856" lon="9.12075674314588"><ele>100.0</ele><time>2026-05-01T07:55:27Z</time></trkpt><trkpt lat="45.3647034846684" lon="9.120503089484538"><ele>100.0</ele><time>2026-05-01T07:55:28Z</time></trkpt><trkpt lat="45.36443874208437" lon="9.120256221353731"><ele>100.0</ele><time>2026-05-01T07:55:29Z</time></trkpt><trkpt lat="45.3641807592717" lon="9.12001497133444"><ele>100.5</ele><time>2026-05-01T07:55:30Z</time></trkpt><trkpt lat="45.363932385564084" lon="9.11978069275265"><ele>101.0</ele><time>2026-05-01T07:55:31Z</time></trkpt><trkpt lat="45.363699249229526" lon="9.119555432998274"><ele>101.5</ele><time>2026-05-01T07:55:32Z</time></trkpt><trkpt lat="45.3634739004499" lon="9.119334283155535"><ele>102.0</ele><time>2026-05-01T07:55:33Z</time></trkpt><trkpt lat="45.36325546566882" lon="9.119115323273874"><ele>101.5</ele><time>2026-05-01T07:55:34Z</time></trkpt><trkpt lat="45.36303930644603" lon="9.118904226485952"><ele>101.0</ele><time>2026-05-01T07:55:35Z</time></trkpt><trkpt lat="45.36283234292277" lon="9.118696902991127"><ele>102.0</ele><time>2026-05-01T07:55:36Z</time></trkpt><trkpt lat="45.3626289434525" lon="9.118490972481053"><ele>103.0</ele><time>2026-05-01T07:55:37Z</time></trkpt><trkpt lat="45.36241800136645" lon="9.118287293930019"><ele>101.5</ele><time>2026-05-01T07:55:38Z</time></trkpt><trkpt lat="45.36220902439358" lon="9.118088260017739"><ele>100.0</ele><time>2026-05-01T07:55:39.001Z</time></trkpt><trkpt lat="45.36199943387501" lon="9.117892051627805"><ele>100.0</ele><time>2026-05-01T07:55:40.001Z</time></trkpt><trkpt lat="45.36178782347986" lon="9.117700669577603"><ele>100.0</ele><time>2026-05-01T07:55:41.001Z</time></trkpt><trkpt lat="45.36157722830644" lon="9.117508619832327"><ele>99.5</ele><time>2026-05-01T07:55:42.001Z</time></trkpt><trkpt lat="45.361368594581194" lon="9.117315679036052"><ele>99.0</ele><time>2026-05-01T07:55:43.001Z</time></trkpt><trkpt lat="45.361159773332574" lon="9.11712982849059"><ele>99.0</ele><time>2026-05-01T07:55:44.001Z</time></trkpt><trkpt lat="45.360950723223624" lon="9.116946223281374"><ele>99.0</ele><time>2026-05-01T07:55:45.001Z</time></trkpt><trkpt lat="45.360744146239156" lon="9.116764186427131"><ele>99.0</ele><time>2026-05-01T07:55:46.001Z</time></trkpt><trkpt lat="45.36053672970456" lon="9.116583678332862"><ele>99.0</ele><time>2026-05-01T07:55:47.001Z</time></trkpt><trkpt lat="45.36032822036926" lon="9.116409567153436"><ele>98.5</ele><time>2026-05-01T07:55:48.001Z</time></trkpt><trkpt lat="45.360122977836966" lon="9.11623621258507"><ele>98.0</ele><time>2026-05-01T07:55:49.001Z</time></trkpt><trkpt lat="45.35991697140157" lon="9.116063227840531"><ele>98.0</ele><time>2026-05-01T07:55:50.001Z</time></trkpt><trkpt lat="45.359711444416526" lon="9.115885474085413"><ele>98.0</ele><time>2026-05-01T07:55:51.001Z</time></trkpt><trkpt lat="45.3595066198718" lon="9.115712232607873"><ele>99.0</ele><time>2026-05-01T07:55:52.001Z</time></trkpt><trkpt lat="45.359301124117934" lon="9.115538273255106"><ele>100.0</ele><time>2026-05-01T07:55:53.001Z</time></trkpt><trkpt lat="45.35909527372486" lon="9.115363107232167"><ele>100.0</ele><time>2026-05-01T07:55:54.001Z</time></trkpt><trkpt lat="45.35889201304952" lon="9.11518516555185"><ele>100.0</ele><time>2026-05-01T07:55:55.001Z</time></trkpt><trkpt lat="45.3586865831191" lon="9.115012071877777"><ele>100.5</ele><time>2026-05-01T07:55:56.001Z</time></trkpt><trkpt lat="45.35848107918786" lon="9.114837088249947"><ele>101.0</ele><time>2026-05-01T07:55:57.001Z</time></trkpt><trkpt lat="45.35827607702824" lon="9.114665191824294"><ele>101.0</ele><time>2026-05-01T07:55:58.001Z</time></trkpt><trkpt lat="45.35806934432076" lon="9.114493908179359"><ele>101.0</ele><time>2026-05-01T07:55:59.001Z</time></trkpt><trkpt lat="45.35786268630867" lon="9.114320843646105"><ele>101.0</ele><time>2026-05-01T07:56:00.001Z</time></trkpt><trkpt lat="45.35765626969454" lon="9.114150729767822"><ele>101.0</ele><time>2026-05-01T07:56:01.001Z</time></trkpt><trkpt lat="45.35744934429584" lon="9.113981363968433"><ele>100.5</ele><time>2026-05-01T07:56:02.001Z</time></trkpt><trkpt lat="45.35724272627653" lon="9.11381330530786"><ele>100.0</ele><time>2026-05-01T07:56:03.001Z</time></trkpt><trkpt lat="45.357038907919" lon="9.113640537481212"><ele>100.0</ele><time>2026-05-01T07:56:04.001Z</time></trkpt><trkpt lat="45.35683450186568" lon="9.11346841508073"><ele>100.0</ele><time>2026-05-01T07:56:05.001Z</time></trkpt><trkpt lat="45.356632019627774" lon="9.113295411483113"><ele>100.0</ele><time>2026-05-01T07:56:06.001Z</time></trkpt><trkpt lat="45.35642915188648" lon="9.113122918100444"><ele>100.0</ele><time>2026-05-01T07:56:07.001Z</time></trkpt><trkpt lat="45.35622864038706" lon="9.112949131834952"><ele>100.5</ele><time>2026-05-01T07:56:08.002Z</time></trkpt><trkpt lat="45.35602785636776" lon="9.112776406330896"><ele>101.0</ele><time>2026-05-01T07:56:09.002Z</time></trkpt><trkpt lat="45.35582578537966" lon="9.112601019424199"><ele>101.0</ele><time>2026-05-01T07:56:10.002Z</time></trkpt><trkpt lat="45.355622336054616" lon="9.112423041873457"><ele>101.0</ele><time>2026-05-01T07:56:11.002Z</time></trkpt><trkpt lat="45.35541996456447" lon="9.112249851405794"><ele>100.0</ele><time>2026-05-01T07:56:12.002Z</time></trkpt><trkpt lat="45.35521793552129" lon="9.112073476457981"><ele>99.0</ele><time>2026-05-01T07:56:13.002Z</time></trkpt><trkpt lat="45.355015826090565" lon="9.111911561530281"><ele>99.0</ele><time>2026-05-01T07:56:14.002Z</time></trkpt><trkpt lat="45.354815034285124" lon="9.111743617938831"><ele>99.0</ele><time>2026-05-01T07:56:15.002Z</time></trkpt><trkpt lat="45.35461523700818" lon="9.11157340937995"><ele>99.0</ele><time>2026-05-01T07:56:16.002Z</time></trkpt><trkpt lat="45.35441553634113" lon="9.111405008342771"><ele>99.0</ele><time>2026-05-01T07:56:17.002Z</time></trkpt><trkpt lat="45.35421495602199" lon="9.111234345453568"><ele>99.0</ele><time>2026-05-01T07:56:18.002Z</time></trkpt><trkpt lat="45.354015945583754" lon="9.111063983828734"><ele>99.0</ele><time>2026-05-01T07:56:19.002Z</time></trkpt><trkpt lat="45.35381764233837" lon="9.110893027374988"><ele>99.0</ele><time>2026-05-01T07:56:20.002Z</time></trkpt><trkpt lat="45.35361644078229" lon="9.11072249856327"><ele>99.0</ele><time>2026-05-01T07:56:21.002Z</time></trkpt><trkpt lat="45.35341787692439" lon="9.110552470093278"><ele>99.0</ele><time>2026-05-01T07:56:22.002Z</time></trkpt><trkpt lat="45.353218202172314" lon="9.110386082275472"><ele>99.0</ele><time>2026-05-01T07:56:23.002Z</time></trkpt><trkpt lat="45.353021448143124" lon="9.11021795874641"><ele>99.0</ele><time>2026-05-01T07:56:24.002Z</time></trkpt><trkpt lat="45.35282053273674" lon="9.110047196991555"><ele>99.0</ele><time>2026-05-01T07:56:25.002Z</time></trkpt><trkpt lat="45.35261997269713" lon="9.109876405870304"><ele>98.0</ele><time>2026-05-01T07:56:26.002Z</time></trkpt><trkpt lat="45.35241906448126" lon="9.10970693044059"><ele>97.0</ele><time>2026-05-01T07:56:27.002Z</time></trkpt><trkpt lat="45.35221860109155" lon="9.109535968531343"><ele>98.0</ele><time>2026-05-01T07:56:28.002Z</time></trkpt><trkpt lat="45.35201628371891" lon="9.109364056082342"><ele>99.0</ele><time>2026-05-01T07:56:29.002Z</time></trkpt><trkpt lat="45.35181283608058" lon="9.109194518913805"><ele>98.0</ele><time>2026-05-01T07:56:30.002Z</time></trkpt><trkpt lat="45.35161127174777" lon="9.109022782082057"><ele>97.0</ele><time>2026-05-01T07:56:31.002Z</time></trkpt><trkpt lat="45.351409349705904" lon="9.108855241392673"><ele>97.0</ele><time>2026-05-01T07:56:32.002Z</time></trkpt><trkpt lat="45.351210953229646" lon="9.108683772450624"><ele>97.0</ele><time>2026-05-01T07:56:33.002Z</time></trkpt><trkpt lat="45.35101130836002" lon="9.108517540328098"><ele>97.0</ele><time>2026-05-01T07:56:34.002Z</time></trkpt><trkpt lat="45.35081215699904" lon="9.108352105054843"><ele>97.0</ele><time>2026-05-01T07:56:35.002Z</time></trkpt><trkpt lat="45.350618784571175" lon="9.108191854339095"><ele>97.0</ele><time>2026-05-01T07:56:36.002Z</time></trkpt><trkpt lat="45.35042601499907" lon="9.108030401935556"><ele>97.0</ele><time>2026-05-01T07:56:37.002Z</time></trkpt><trkpt lat="45.3502345896336" lon="9.107871674588628"><ele>97.0</ele><time>2026-05-01T07:56:38.002Z</time></trkpt><trkpt lat="45.35004358697568" lon="9.107713915715015"><ele>97.0</ele><time>2026-05-01T07:56:39.002Z</time></trkpt><trkpt lat="45.349853522549495" lon="9.10755253433943"><ele>97.0</ele><time>2026-05-01T07:56:40.003Z</time></trkpt><trkpt lat="45.34966260369658" lon="9.107387147806964"><ele>97.0</ele><time>2026-05-01T07:56:41.003Z</time></trkpt><trkpt lat="45.34947075197965" lon="9.107224703233506"><ele>97.66666666666667</ele><time>2026-05-01T07:56:42.003Z</time></trkpt><trkpt lat="45.34928329043193" lon="9.107063725473715"><ele>98.33333333333334</ele><time>2026-05-01T07:56:43.003Z</time></trkpt><trkpt lat="45.34909907860094" lon="9.106905068901469"><ele>99.0</ele><time>2026-05-01T07:56:44.003Z</time></trkpt><trkpt lat="45.348915806570545" lon="9.10675053275696"><ele>99.0</ele><time>2026-05-01T07:56:45.003Z</time></trkpt><trkpt lat="45.34873442059891" lon="9.106594597763861"><ele>99.0</ele><time>2026-05-01T07:56:46.003Z</time></trkpt><trkpt lat="45.348554976882625" lon="9.106441334806513"><ele>99.0</ele><time>2026-05-01T07:56:47.003Z</time></trkpt><trkpt lat="45.348374297322394" lon="9.1062856622408"><ele>99.0</ele><time>2026-05-01T07:56:48.003Z</time></trkpt><trkpt lat="45.348190465142636" lon="9.106129677746306"><ele>99.0</ele><time>2026-05-01T07:56:49.003Z</time></trkpt><trkpt lat="45.34800834448032" lon="9.105973917042556"><ele>99.0</ele><time>2026-05-01T07:56:50.003Z</time></trkpt><trkpt lat="45.3478274757356" lon="9.1058177768489"><ele>98.66666666666666</ele><time>2026-05-01T07:56:51.003Z</time></trkpt><trkpt lat="45.347645649776794" lon="9.105665842973409"><ele>98.33333333333333</ele><time>2026-05-01T07:56:52.003Z</time></trkpt><trkpt lat="45.347466697472285" lon="9.105517309780605"><ele>98.0</ele><time>2026-05-01T07:56:53.003Z</time></trkpt><trkpt lat="45.34728775654646" lon="9.105365140282117"><ele>97.66666666666666</ele><time>2026-05-01T07:56:54.003Z</time></trkpt><trkpt lat="45.34710758633618" lon="9.105212878216193"><ele>97.33333333333334</ele><time>2026-05-01T07:56:55.003Z</time></trkpt><trkpt lat="45.34692479248271" lon="9.105059460484759"><ele>97.0</ele><time>2026-05-01T07:56:56.003Z</time></trkpt><trkpt lat="45.34674457637013" lon="9.104905530483707"><ele>97.0</ele><time>2026-05-01T07:56:57.003Z</time></trkpt><trkpt lat="45.34656537369922" lon="9.104755523604092"><ele>97.0</ele><time>2026-05-01T07:56:58.003Z</time></trkpt><trkpt lat="45.34638447027918" lon="9.10460059675906"><ele>97.0</ele><time>2026-05-01T07:56:59.003Z</time></trkpt><trkpt lat="45.346202425035095" lon="9.104444384175805"><ele>97.0</ele><time>2026-05-01T07:57:00.003Z</time></trkpt><trkpt lat="45.34601973113809" lon="9.104284708450798"><ele>97.0</ele><time>2026-05-01T07:57:01.003Z</time></trkpt><trkpt lat="45.345834285288255" lon="9.104123962372169"><ele>97.0</ele><time>2026-05-01T07:57:02.003Z</time></trkpt><trkpt lat="45.345649727229045" lon="9.10396158997632"><ele>97.33333333333334</ele><time>2026-05-01T07:57:03.003Z</time></trkpt><trkpt lat="45.34546958680099" lon="9.103795318789551"><ele>97.66666666666666</ele><time>2026-05-01T07:57:04.003Z</time></trkpt><trkpt lat="45.34528677397933" lon="9.103629270656295"><ele>98.0</ele><time>2026-05-01T07:57:04.998Z</time></trkpt><trkpt lat="45.345104390300165" lon="9.10346022341289"><ele>98.0</ele><time>2026-05-01T07:57:05.998Z</time></trkpt><trkpt lat="45.34492393006826" lon="9.10328796027713"><ele>98.0</ele><time>2026-05-01T07:57:06.998Z</time></trkpt><trkpt lat="45.34474337755404" lon="9.103113513988273"><ele>98.0</ele><time>2026-05-01T07:57:07.998Z</time></trkpt><trkpt lat="45.34456036039206" lon="9.102941722494048"><ele>98.0</ele><time>2026-05-01T07:57:08.998Z</time></trkpt><trkpt lat="45.3443785098442" lon="9.102772011660928"><ele>98.0</ele><time>2026-05-01T07:57:09.998Z</time></trkpt><trkpt lat="45.34419877313157" lon="9.102604318036562"><ele>98.0</ele><time>2026-05-01T07:57:10.998Z</time></trkpt><trkpt lat="45.34401910618239" lon="9.102436468475885"><ele>98.66666666666666</ele><time>2026-05-01T07:57:11.999Z</time></trkpt><trkpt lat="45.343837820382596" lon="9.102269916318406"><ele>99.33333333333334</ele><time>2026-05-01T07:57:12.999Z</time></trkpt><trkpt lat="45.34365386810616" lon="9.10210663400285"><ele>100.0</ele><time>2026-05-01T07:57:13.999Z</time></trkpt><trkpt lat="45.343471945192356" lon="9.10193937458042"><ele>100.0</ele><time>2026-05-01T07:57:14.999Z</time></trkpt><trkpt lat="45.34328782206867" lon="9.10177164129735"><ele>100.0</ele><time>2026-05-01T07:57:15.999Z</time></trkpt><trkpt lat="45.34310588855308" lon="9.101603549255643"><ele>100.0</ele><time>2026-05-01T07:57:16.999Z</time></trkpt><trkpt lat="45.34292642505868" lon="9.101434795053736"><ele>99.33333333333334</ele><time>2026-05-01T07:57:17.999Z</time></trkpt><trkpt lat="45.34274771407755" lon="9.10126485784139"><ele>98.66666666666666</ele><time>2026-05-01T07:57:18.999Z</time></trkpt><trkpt lat="45.342568959601735" lon="9.101095247903286"><ele>98.0</ele><time>2026-05-01T07:57:19.999Z</time></trkpt><trkpt lat="45.34238984925288" lon="9.100927540744868"><ele>98.33333333333333</ele><time>2026-05-01T07:57:20.999Z</time></trkpt><trkpt lat="45.34221232239714" lon="9.100762382955663"><ele>98.66666666666666</ele><time>2026-05-01T07:57:21.999Z</time></trkpt><trkpt lat="45.34203627290793" lon="9.100598826483873"><ele>99.0</ele><time>2026-05-01T07:57:22.999Z</time></trkpt><trkpt lat="45.34185946374006" lon="9.100435880049462"><ele>99.0</ele><time>2026-05-01T07:57:23.999Z</time></trkpt><trkpt lat="45.34168466122321" lon="9.100269004980841"><ele>99.0</ele><time>2026-05-01T07:57:25Z</time></trkpt><trkpt lat="45.3415086919019" lon="9.100103411035429"><ele>99.0</ele><time>2026-05-01T07:57:26Z</time></trkpt><trkpt lat="45.3413319922175" lon="9.099942894961519"><ele>99.33333333333334</ele><time>2026-05-01T07:57:27Z</time></trkpt><trkpt lat="45.34115892596704" lon="9.099778618548342"><ele>99.66666666666667</ele><time>2026-05-01T07:57:28Z</time></trkpt><trkpt lat="45.340986054241824" lon="9.09961572562009"><ele>100.0</ele><time>2026-05-01T07:57:29Z</time></trkpt><trkpt lat="45.34081459118655" lon="9.099452313717672"><ele>100.0</ele><time>2026-05-01T07:57:30Z</time></trkpt><trkpt lat="45.34064051620407" lon="9.099287848823336"><ele>100.0</ele><time>2026-05-01T07:57:31Z</time></trkpt><trkpt lat="45.340467236342185" lon="9.099125538831704"><ele>100.0</ele><time>2026-05-01T07:57:32Z</time></trkpt><trkpt lat="45.34029430395646" lon="9.09896350838526"><ele>99.66666666666667</ele><time>2026-05-01T07:57:33Z</time></trkpt><trkpt lat="45.34012037448363" lon="9.098799036196022"><ele>99.33333333333334</ele><time>2026-05-01T07:57:34Z</time></trkpt><trkpt lat="45.339945819502546" lon="9.098633414292712"><ele>99.0</ele><time>2026-05-01T07:57:35Z</time></trkpt><trkpt lat="45.339772639636024" lon="9.098468570272287"><ele>98.66666666666666</ele><time>2026-05-01T07:57:36Z</time></trkpt><trkpt lat="45.33960284437545" lon="9.098304714024833"><ele>98.33333333333333</ele><time>2026-05-01T07:57:37Z</time></trkpt><trkpt lat="45.33942949124074" lon="9.098140155158296"><ele>98.0</ele><time>2026-05-01T07:57:38Z</time></trkpt><trkpt lat="45.33925825680737" lon="9.097987634327529"><ele>98.0</ele><time>2026-05-01T07:57:39Z</time></trkpt><trkpt lat="45.33909563153343" lon="9.097839774515993"><ele>98.0</ele><time>2026-05-01T07:57:40Z</time></trkpt><trkpt lat="45.33894415654904" lon="9.097701655766729"><ele>98.0</ele><time>2026-05-01T07:57:41Z</time></trkpt><trkpt lat="45.33879487076847" lon="9.097565572492396"><ele>98.33333333333333</ele><time>2026-05-01T07:57:42.001Z</time></trkpt><trkpt lat="45.33863655747525" lon="9.097424519326026"><ele>98.66666666666666</ele><time>2026-05-01T07:57:43.001Z</time></trkpt><trkpt lat="45.33847674192918" lon="9.097283141938055"><ele>99.0</ele><time>2026-05-01T07:57:44.001Z</time></trkpt><trkpt lat="45.3383149441388" lon="9.097140299726714"><ele>99.0</ele><time>2026-05-01T07:57:45.001Z</time></trkpt><trkpt lat="45.33815441240744" lon="9.096993109086792"><ele>99.0</ele><time>2026-05-01T07:57:46.001Z</time></trkpt><trkpt lat="45.33799457045915" lon="9.096843306175103"><ele>99.0</ele><time>2026-05-01T07:57:47.001Z</time></trkpt><trkpt lat="45.33782701395929" lon="9.096691583823764"><ele>99.0</ele><time>2026-05-01T07:57:48.001Z</time></trkpt><trkpt lat="45.3376589999656" lon="9.096537702504797"><ele>99.0</ele><time>2026-05-01T07:57:49.001Z</time></trkpt><trkpt lat="45.337485385067616" lon="9.0963842483754"><ele>99.0</ele><time>2026-05-01T07:57:50.001Z</time></trkpt><trkpt lat="45.3373086714357" lon="9.096231183836094"><ele>99.66666666666666</ele><time>2026-05-01T07:57:51.001Z</time></trkpt><trkpt lat="45.33712776406589" lon="9.096078368036196"><ele>100.33333333333333</ele><time>2026-05-01T07:57:52.001Z</time></trkpt><trkpt lat="45.336944757774305" lon="9.095920946802552"><ele>101.0</ele><time>2026-05-01T07:57:53.001Z</time></trkpt><trkpt lat="45.336757155753354" lon="9.095762434659246"><ele>100.66666666666666</ele><time>2026-05-01T07:57:54.001Z</time></trkpt><trkpt lat="45.33656682867964" lon="9.095613518243278"><ele>100.33333333333334</ele><time>2026-05-01T07:57:55.001Z</time></trkpt><trkpt lat="45.33637192592315" lon="9.095470969328922"><ele>100.0</ele><time>2026-05-01T07:57:56.001Z</time></trkpt><trkpt lat="45.33617785934094" lon="9.095332458626272"><ele>100.0</ele><time>2026-05-01T07:57:57.001Z</time></trkpt><trkpt lat="45.33598169324854" lon="9.09519918566298"><ele>100.0</ele><time>2026-05-01T07:57:58.001Z</time></trkpt><trkpt lat="45.33578546716685" lon="9.095067031219418"><ele>100.0</ele><time>2026-05-01T07:57:59.001Z</time></trkpt><trkpt lat="45.33558639008861" lon="9.09493565823117"><ele>100.0</ele><time>2026-05-01T07:58:00.001Z</time></trkpt><trkpt lat="45.3353857639632" lon="9.094811342734717"><ele>100.0</ele><time>2026-05-01T07:58:01.001Z</time></trkpt><trkpt lat="45.335187340505314" lon="9.0946898328318"><ele>100.0</ele><time>2026-05-01T07:58:02.001Z</time></trkpt><trkpt lat="45.334988929459456" lon="9.094579757359105"><ele>100.0</ele><time>2026-05-01T07:58:03.001Z</time></trkpt><trkpt lat="45.33478879492278" lon="9.094469941343817"><ele>100.0</ele><time>2026-05-01T07:58:04.001Z</time></trkpt><trkpt lat="45.3345872699528" lon="9.094365525794045"><ele>100.0</ele><time>2026-05-01T07:58:05.001Z</time></trkpt><trkpt lat="45.334382353786346" lon="9.094263605945507"><ele>100.0</ele><time>2026-05-01T07:58:06.001Z</time></trkpt><trkpt lat="45.3341757029094" lon="9.094159083054816"><ele>100.0</ele><time>2026-05-01T07:58:07.001Z</time></trkpt><trkpt lat="45.33396817396634" lon="9.09405203858689"><ele>100.0</ele><time>2026-05-01T07:58:08.001Z</time></trkpt><trkpt lat="45.33375846396294" lon="9.093940435796487"><ele>99.0</ele><time>2026-05-01T07:58:09.002Z</time></trkpt><trkpt lat="45.333549682310114" lon="9.09382682375963"><ele>98.0</ele><time>2026-05-01T07:58:10.002Z</time></trkpt><trkpt lat="45.33334733882014" lon="9.093718921835418"><ele>97.0</ele><time>2026-05-01T07:58:11.002Z</time></trkpt><trkpt lat="45.3331544738262" lon="9.093610805014343"><ele>97.66666666666667</ele><time>2026-05-01T07:58:12.002Z</time></trkpt><trkpt lat="45.33296500677048" lon="9.093497866470805"><ele>98.33333333333334</ele><time>2026-05-01T07:58:13.002Z</time></trkpt><trkpt lat="45.33277204446509" lon="9.093386735570826"><ele>99.0</ele><time>2026-05-01T07:58:14.002Z</time></trkpt><trkpt lat="45.332590946056435" lon="9.093283983565284"><ele>99.66666666666666</ele><time>2026-05-01T07:58:15.002Z</time></trkpt><trkpt lat="45.332414141974354" lon="9.093182589174074"><ele>100.33333333333333</ele><time>2026-05-01T07:58:16.002Z</time></trkpt><trkpt lat="45.33224354332951" lon="9.093085259750323"><ele>101.0</ele><time>2026-05-01T07:58:17.002Z</time></trkpt><trkpt lat="45.33208082122693" lon="9.09299205346978"><ele>101.33333333333333</ele><time>2026-05-01T07:58:18.002Z</time></trkpt><trkpt lat="45.33192644185963" lon="9.092902932825448"><ele>101.66666666666666</ele><time>2026-05-01T07:58:19.002Z</time></trkpt><trkpt lat="45.33177767259084" lon="9.092815139524314"><ele>102.0</ele><time>2026-05-01T07:58:20.002Z</time></trkpt><trkpt lat="45.33162184779748" lon="9.09272226475289"><ele>102.0</ele><time>2026-05-01T07:58:21.002Z</time></trkpt><trkpt lat="45.33146254034248" lon="9.092619704820345"><ele>102.0</ele><time>2026-05-01T07:58:22.002Z</time></trkpt><trkpt lat="45.331301713671245" lon="9.092511149517938"><ele>102.0</ele><time>2026-05-01T07:58:23.002Z</time></trkpt><trkpt lat="45.33113039809218" lon="9.092395366542164"><ele>100.66666666666666</ele><time>2026-05-01T07:58:24.002Z</time></trkpt><trkpt lat="45.33095839202445" lon="9.092281521141407"><ele>99.33333333333333</ele><time>2026-05-01T07:58:25.002Z</time></trkpt><trkpt lat="45.33078207346324" lon="9.092169072764607"><ele>98.0</ele><time>2026-05-01T07:58:26.002Z</time></trkpt><trkpt lat="45.3305936750757" lon="9.092049637001187"><ele>98.66666666666666</ele><time>2026-05-01T07:58:27.002Z</time></trkpt><trkpt lat="45.330404410014154" lon="9.09193563206159"><ele>99.33333333333334</ele><time>2026-05-01T07:58:28.002Z</time></trkpt><trkpt lat="45.33021300970109" lon="9.091821706018136"><ele>100.0</ele><time>2026-05-01T07:58:29.002Z</time></trkpt><trkpt lat="45.330015257687776" lon="9.091709697290208"><ele>100.0</ele><time>2026-05-01T07:58:30.002Z</time></trkpt><trkpt lat="45.32981352706013" lon="9.091596780329981"><ele>100.0</ele><time>2026-05-01T07:58:31.002Z</time></trkpt><trkpt lat="45.32960981124537" lon="9.09147955457659"><ele>100.0</ele><time>2026-05-01T07:58:32.002Z</time></trkpt><trkpt lat="45.32940393466184" lon="9.091360856242133"><ele>100.0</ele><time>2026-05-01T07:58:33.002Z</time></trkpt><trkpt lat="45.32919895133269" lon="9.091243740603854"><ele>100.0</ele><time>2026-05-01T07:58:34.002Z</time></trkpt><trkpt lat="45.328998515323015" lon="9.091129691896077"><ele>100.0</ele><time>2026-05-01T07:58:35.002Z</time></trkpt><trkpt lat="45.328797999020914" lon="9.091014069073315"><ele>100.0</ele><time>2026-05-01T07:58:36.002Z</time></trkpt><trkpt lat="45.32859293334115" lon="9.090901030429421"><ele>100.0</ele><time>2026-05-01T07:58:37.002Z</time></trkpt><trkpt lat="45.32839169113728" lon="9.090787994715788"><ele>100.0</ele><time>2026-05-01T07:58:38.002Z</time></trkpt><trkpt lat="45.328190474735315" lon="9.090672805399391"><ele>100.33333333333334</ele><time>2026-05-01T07:58:39.002Z</time></trkpt><trkpt lat="45.327980848638404" lon="9.090555441917479"><ele>100.66666666666666</ele><time>2026-05-01T07:58:40.002Z</time></trkpt><trkpt lat="45.327773289444075" lon="9.090436170574607"><ele>101.0</ele><time>2026-05-01T07:58:41.002Z</time></trkpt><trkpt lat="45.32756417110281" lon="9.090318188694143"><ele>101.0</ele><time>2026-05-01T07:58:42.003Z</time></trkpt><trkpt lat="45.327356710082064" lon="9.090199682872727"><ele>101.0</ele><time>2026-05-01T07:58:43.003Z</time></trkpt><trkpt lat="45.32714946595231" lon="9.090081964062762"><ele>101.0</ele><time>2026-05-01T07:58:44.003Z</time></trkpt><trkpt lat="45.32693941813059" lon="9.089962955550481"><ele>100.5</ele><time>2026-05-01T07:58:45.003Z</time></trkpt><trkpt lat="45.32673229411079" lon="9.089844059954759"><ele>100.0</ele><time>2026-05-01T07:58:46.003Z</time></trkpt><trkpt lat="45.32651593141549" lon="9.089721346433322"><ele>99.0</ele><time>2026-05-01T07:58:47.003Z</time></trkpt><trkpt lat="45.32629861176522" lon="9.089604411077834"><ele>98.0</ele><time>2026-05-01T07:58:48.003Z</time></trkpt><trkpt lat="45.32608433989778" lon="9.089484540288941"><ele>98.0</ele><time>2026-05-01T07:58:49.003Z</time></trkpt><trkpt lat="45.32586849209247" lon="9.089366067961857"><ele>98.0</ele><time>2026-05-01T07:58:50.003Z</time></trkpt><trkpt lat="45.32565352753742" lon="9.089240413403719"><ele>98.5</ele><time>2026-05-01T07:58:51.003Z</time></trkpt><trkpt lat="45.325437846706926" lon="9.089119344143468"><ele>99.0</ele><time>2026-05-01T07:58:52.003Z</time></trkpt><trkpt lat="45.32522322806519" lon="9.088993309810038"><ele>99.5</ele><time>2026-05-01T07:58:53.003Z</time></trkpt><trkpt lat="45.325008553300094" lon="9.088868407726313"><ele>100.0</ele><time>2026-05-01T07:58:54.003Z</time></trkpt><trkpt lat="45.32479671382369" lon="9.08873984950351"><ele>99.5</ele><time>2026-05-01T07:58:55.003Z</time></trkpt><trkpt lat="45.32458529700345" lon="9.088616627184374"><ele>99.0</ele><time>2026-05-01T07:58:56.003Z</time></trkpt><trkpt lat="45.32437852591942" lon="9.08849771805002"><ele>99.0</ele><time>2026-05-01T07:58:57.003Z</time></trkpt><trkpt lat="45.324173276191715" lon="9.088380730567536"><ele>99.0</ele><time>2026-05-01T07:58:58.003Z</time></trkpt><trkpt lat="45.32396818054004" lon="9.088268372801322"><ele>99.0</ele><time>2026-05-01T07:58:59.003Z</time></trkpt><trkpt lat="45.32376498567827" lon="9.08815557161158"><ele>98.66666666666666</ele><time>2026-05-01T07:59:00.003Z</time></trkpt><trkpt lat="45.323565122543044" lon="9.088046102366993"><ele>98.33333333333333</ele><time>2026-05-01T07:59:01.003Z</time></trkpt><trkpt lat="45.32336715403623" lon="9.087934637051726"><ele>98.0</ele><time>2026-05-01T07:59:02.003Z</time></trkpt><trkpt lat="45.323167952564674" lon="9.087820961020073"><ele>98.0</ele><time>2026-05-01T07:59:03.003Z</time></trkpt><trkpt lat="45.32296928929706" lon="9.087706173231114"><ele>98.0</ele><time>2026-05-01T07:59:04.003Z</time></trkpt><trkpt lat="45.32277263380946" lon="9.087588818164772"><ele>98.0</ele><time>2026-05-01T07:59:05.003Z</time></trkpt><trkpt lat="45.322574375614465" lon="9.087464703500759"><ele>97.66666666666666</ele><time>2026-05-01T07:59:06.003Z</time></trkpt><trkpt lat="45.322369733941514" lon="9.087334267148844"><ele>97.33333333333334</ele><time>2026-05-01T07:59:07.003Z</time></trkpt><trkpt lat="45.322169622976645" lon="9.087199621171088"><ele>97.0</ele><time>2026-05-01T07:59:08.003Z</time></trkpt><trkpt lat="45.321970071535574" lon="9.087056392958553"><ele>97.0</ele><time>2026-05-01T07:59:09.003Z</time></trkpt><trkpt lat="45.32177397384558" lon="9.086903919417335"><ele>97.0</ele><time>2026-05-01T07:59:10.003Z</time></trkpt><trkpt lat="45.32157933859452" lon="9.08674863912009"><ele>97.0</ele><time>2026-05-01T07:59:10.999Z</time></trkpt><trkpt lat="45.321390866807064" lon="9.086588173946081"><ele>96.66666666666667</ele><time>2026-05-01T07:59:11.999Z</time></trkpt><trkpt lat="45.32120442736185" lon="9.086423611645854"><ele>96.33333333333334</ele><time>2026-05-01T07:59:12.999Z</time></trkpt><trkpt lat="45.32102577339738" lon="9.086258904340601"><ele>96.0</ele><time>2026-05-01T07:59:13.999Z</time></trkpt><trkpt lat="45.32084463710672" lon="9.086090663847765"><ele>96.0</ele><time>2026-05-01T07:59:14.999Z</time></trkpt><trkpt lat="45.32066439802685" lon="9.08591877608007"><ele>96.0</ele><time>2026-05-01T07:59:15.999Z</time></trkpt><trkpt lat="45.32048742582181" lon="9.085748052690846"><ele>96.0</ele><time>2026-05-01T07:59:16.999Z</time></trkpt><trkpt lat="45.32030735692654" lon="9.085577065914693"><ele>96.33333333333334</ele><time>2026-05-01T07:59:17.999Z</time></trkpt><trkpt lat="45.32012618280277" lon="9.085412085948558"><ele>96.66666666666667</ele><time>2026-05-01T07:59:18.999Z</time></trkpt><trkpt lat="45.31994820583553" lon="9.085244342944328"><ele>97.0</ele><time>2026-05-01T07:59:19.999Z</time></trkpt><trkpt lat="45.31977291937685" lon="9.085072746199216"><ele>96.66666666666667</ele><time>2026-05-01T07:59:20.999Z</time></trkpt><trkpt lat="45.31959895321868" lon="9.084903303464552"><ele>96.33333333333334</ele><time>2026-05-01T07:59:21.999Z</time></trkpt><trkpt lat="45.31942091151311" lon="9.08473257751266"><ele>96.0</ele><time>2026-05-01T07:59:22.999Z</time></trkpt><trkpt lat="45.319247821585876" lon="9.084566015344448"><ele>96.0</ele><time>2026-05-01T07:59:23.999Z</time></trkpt><trkpt lat="45.319071306076765" lon="9.084398008678694"><ele>96.0</ele><time>2026-05-01T07:59:24.999Z</time></trkpt><trkpt lat="45.318896230460595" lon="9.084229557358373"><ele>96.0</ele><time>2026-05-01T07:59:25.999Z</time></trkpt><trkpt lat="45.31872063971557" lon="9.0840622920917"><ele>96.0</ele><time>2026-05-01T07:59:26.999Z</time></trkpt><trkpt lat="45.3185451148986" lon="9.083893968412612"><ele>96.0</ele><time>2026-05-01T07:59:27.999Z</time></trkpt><trkpt lat="45.31836932502506" lon="9.083724406337488"><ele>96.0</ele><time>2026-05-01T07:59:29Z</time></trkpt><trkpt lat="45.31819059154287" lon="9.083555799023161"><ele>96.0</ele><time>2026-05-01T07:59:30Z</time></trkpt><trkpt lat="45.31801023340831" lon="9.083385895911134"><ele>96.0</ele><time>2026-05-01T07:59:31Z</time></trkpt><trkpt lat="45.31626453459018" lon="9.081716819228593"><ele>96.33333333333334</ele><time>2026-05-01T07:59:41Z</time></trkpt><trkpt lat="45.31609627938489" lon="9.081552662712829"><ele>96.66666666666667</ele><time>2026-05-01T07:59:42Z</time></trkpt><trkpt lat="45.31592903755787" lon="9.081390384937977"><ele>97.0</ele><time>2026-05-01T07:59:43Z</time></trkpt><trkpt lat="45.31575717956977" lon="9.08122872253111"><ele>97.0</ele><time>2026-05-01T07:59:44Z</time></trkpt><trkpt lat="45.31558670238942" lon="9.081065544677871"><ele>97.0</ele><time>2026-05-01T07:59:45Z</time></trkpt><trkpt lat="45.31541347346376" lon="9.08089939111124"><ele>97.0</ele><time>2026-05-01T07:59:46Z</time></trkpt><trkpt lat="45.315240694958746" lon="9.080731714433957"><ele>96.66666666666667</ele><time>2026-05-01T07:59:47Z</time></trkpt><trkpt lat="45.31506443566803" lon="9.08056368325182"><ele>96.33333333333334</ele><time>2026-05-01T07:59:48Z</time></trkpt><trkpt lat="45.314888577214965" lon="9.080398477264843"><ele>96.0</ele><time>2026-05-01T07:59:49.001Z</time></trkpt><trkpt lat="45.31471198520822" lon="9.080231783802567"><ele>96.0</ele><time>2026-05-01T07:59:50.001Z</time></trkpt><trkpt lat="45.314535859323385" lon="9.080064276541489"><ele>96.0</ele><time>2026-05-01T07:59:51.001Z</time></trkpt><trkpt lat="45.31436133589204" lon="9.079895730533995"><ele>96.0</ele><time>2026-05-01T07:59:52.001Z</time></trkpt><trkpt lat="45.31418544898794" lon="9.079730109748851"><ele>96.0</ele><time>2026-05-01T07:59:53.001Z</time></trkpt><trkpt lat="45.31401134307807" lon="9.079565815700677"><ele>96.0</ele><time>2026-05-01T07:59:54.001Z</time></trkpt><trkpt lat="45.31383654821621" lon="9.079398755565727"><ele>96.0</ele><time>2026-05-01T07:59:55.001Z</time></trkpt><trkpt lat="45.31365982084474" lon="9.079231223588378"><ele>95.33333333333333</ele><time>2026-05-01T07:59:56.001Z</time></trkpt><trkpt lat="45.313481800181094" lon="9.079061550270337"><ele>94.66666666666666</ele><time>2026-05-01T07:59:57.001Z</time></trkpt><trkpt lat="45.3133039644189" lon="9.078893204446407"><ele>94.0</ele><time>2026-05-01T07:59:58.001Z</time></trkpt><trkpt lat="45.31312763323954" lon="9.078725888666243"><ele>94.33333333333333</ele><time>2026-05-01T07:59:59.001Z</time></trkpt><trkpt lat="45.3129501062601" lon="9.0785582007405"><ele>94.66666666666667</ele><time>2026-05-01T08:00:00.001Z</time></trkpt><trkpt lat="45.31277441505547" lon="9.078388121456522"><ele>95.0</ele><time>2026-05-01T08:00:01.001Z</time></trkpt><trkpt lat="45.31259867444165" lon="9.078216541718048"><ele>95.33333333333334</ele><time>2026-05-01T08:00:02.001Z</time></trkpt><trkpt lat="45.31242394701785" lon="9.078049387546157"><ele>95.66666666666667</ele><time>2026-05-01T08:00:03.001Z</time></trkpt><trkpt lat="45.3122487827584" lon="9.077881000821128"><ele>96.0</ele><time>2026-05-01T08:00:04.001Z</time></trkpt><trkpt lat="45.312073514008055" lon="9.077713654530454"><ele>96.0</ele><time>2026-05-01T08:00:05.001Z</time></trkpt><trkpt lat="45.31189590706825" lon="9.077546433328477"><ele>96.0</ele><time>2026-05-01T08:00:06.001Z</time></trkpt><trkpt lat="45.311718525501526" lon="9.077377698356214"><ele>96.0</ele><time>2026-05-01T08:00:07.001Z</time></trkpt><trkpt lat="45.31153758031212" lon="9.077209287628731"><ele>95.66666666666667</ele><time>2026-05-01T08:00:08.001Z</time></trkpt><trkpt lat="45.31135438730437" lon="9.077040168095122"><ele>95.33333333333334</ele><time>2026-05-01T08:00:09.001Z</time></trkpt><trkpt lat="45.3111724762087" lon="9.076868684161582"><ele>95.0</ele><time>2026-05-01T08:00:10.001Z</time></trkpt><trkpt lat="45.31099182384649" lon="9.07669513310204"><ele>95.33333333333334</ele><time>2026-05-01T08:00:11.001Z</time></trkpt><trkpt lat="45.31080982024214" lon="9.076521103745305"><ele>95.66666666666667</ele><time>2026-05-01T08:00:12.001Z</time></trkpt><trkpt lat="45.31062835719887" lon="9.076347702731445"><ele>96.0</ele><time>2026-05-01T08:00:13.001Z</time></trkpt><trkpt lat="45.31044762279222" lon="9.076173639350639"><ele>96.0</ele><time>2026-05-01T08:00:14.001Z</time></trkpt><trkpt lat="45.31026874600661" lon="9.07599924146464"><ele>96.0</ele><time>2026-05-01T08:00:15.001Z</time></trkpt><trkpt lat="45.31008796471429" lon="9.075828232446364"><ele>96.0</ele><time>2026-05-01T08:00:16.001Z</time></trkpt><trkpt lat="45.30990729847879" lon="9.075656176370728"><ele>95.0</ele><time>2026-05-01T08:00:17.002Z</time></trkpt><trkpt lat="45.309726781065564" lon="9.075487150188627"><ele>94.0</ele><time>2026-05-01T08:00:18.002Z</time></trkpt><trkpt lat="45.30954571038044" lon="9.075319965513037"><ele>93.0</ele><time>2026-05-01T08:00:19.002Z</time></trkpt><trkpt lat="45.309360159193055" lon="9.075157167494632"><ele>93.0</ele><time>2026-05-01T08:00:20.002Z</time></trkpt><trkpt lat="45.30917402009939" lon="9.074998270442531"><ele>93.0</ele><time>2026-05-01T08:00:21.002Z</time></trkpt><trkpt lat="45.308981758663336" lon="9.074846563247979"><ele>93.0</ele><time>2026-05-01T08:00:22.002Z</time></trkpt><trkpt lat="45.30878563759295" lon="9.074698089689326"><ele>94.5</ele><time>2026-05-01T08:00:23.002Z</time></trkpt><trkpt lat="45.30858359059203" lon="9.074556613637982"><ele>96.0</ele><time>2026-05-01T08:00:24.002Z</time></trkpt><trkpt lat="45.30837329217334" lon="9.074414366298578"><ele>96.0</ele><time>2026-05-01T08:00:25.002Z</time></trkpt><trkpt lat="45.30815883493451" lon="9.074276969505187"><ele>96.0</ele><time>2026-05-01T08:00:26.002Z</time></trkpt><trkpt lat="45.307951174726334" lon="9.074140097829904"><ele>96.0</ele><time>2026-05-01T08:00:27.002Z</time></trkpt><trkpt lat="45.30774945219873" lon="9.074004740242405"><ele>96.0</ele><time>2026-05-01T08:00:28.002Z</time></trkpt><trkpt lat="45.30755282558294" lon="9.0738702648595"><ele>96.0</ele><time>2026-05-01T08:00:29.002Z</time></trkpt><trkpt lat="45.30735584232983" lon="9.073736464227277"><ele>96.0</ele><time>2026-05-01T08:00:30.002Z</time></trkpt><trkpt lat="45.30715897325866" lon="9.073602605151152"><ele>96.0</ele><time>2026-05-01T08:00:31.002Z</time></trkpt><trkpt lat="45.30696304032799" lon="9.073469692777943"><ele>96.0</ele><time>2026-05-01T08:00:32.002Z</time></trkpt><trkpt lat="45.306768879113406" lon="9.073337349018196"><ele>96.0</ele><time>2026-05-01T08:00:33.002Z</time></trkpt><trkpt lat="45.306573372630275" lon="9.073205575757765"><ele>96.0</ele><time>2026-05-01T08:00:34.002Z</time></trkpt><trkpt lat="45.306372750354484" lon="9.073073986519871"><ele>96.0</ele><time>2026-05-01T08:00:35.002Z</time></trkpt><trkpt lat="45.30615979927458" lon="9.072938857607685"><ele>96.0</ele><time>2026-05-01T08:00:36.002Z</time></trkpt><trkpt lat="45.30594558146768" lon="9.072800796054418"><ele>96.0</ele><time>2026-05-01T08:00:37.002Z</time></trkpt><trkpt lat="45.305724902071184" lon="9.072656304793357"><ele>96.0</ele><time>2026-05-01T08:00:38.002Z</time></trkpt><trkpt lat="45.30549995796735" lon="9.072507650229293"><ele>96.0</ele><time>2026-05-01T08:00:39.002Z</time></trkpt><trkpt lat="45.30527158789342" lon="9.072347565062273"><ele>95.5</ele><time>2026-05-01T08:00:40.002Z</time></trkpt><trkpt lat="45.30504288889109" lon="9.072184703130944"><ele>95.0</ele><time>2026-05-01T08:00:41.002Z</time></trkpt><trkpt lat="45.30482079232322" lon="9.072033036536483"><ele>95.5</ele><time>2026-05-01T08:00:42.002Z</time></trkpt><trkpt lat="45.3045994779338" lon="9.071878297290791"><ele>96.0</ele><time>2026-05-01T08:00:43.002Z</time></trkpt><trkpt lat="45.3043840793174" lon="9.071719098910467"><ele>96.0</ele><time>2026-05-01T08:00:44.002Z</time></trkpt><trkpt lat="45.30416717045012" lon="9.07156970924332"><ele>96.0</ele><time>2026-05-01T08:00:45.002Z</time></trkpt><trkpt lat="45.303948071776816" lon="9.071428961433218"><ele>95.5</ele><time>2026-05-01T08:00:46.002Z</time></trkpt><trkpt lat="45.30373175234544" lon="9.071284044071378"><ele>95.0</ele><time>2026-05-01T08:00:47.002Z</time></trkpt><trkpt lat="45.303515181660735" lon="9.071138118404985"><ele>95.0</ele><time>2026-05-01T08:00:48.002Z</time></trkpt><trkpt lat="45.30329903756253" lon="9.070990551660316"><ele>95.0</ele><time>2026-05-01T08:00:49.002Z</time></trkpt><trkpt lat="45.30308473056904" lon="9.070845385923926"><ele>95.5</ele><time>2026-05-01T08:00:50.003Z</time></trkpt><trkpt lat="45.30286688317795" lon="9.07069750402276"><ele>96.0</ele><time>2026-05-01T08:00:51.003Z</time></trkpt><trkpt lat="45.302649397320636" lon="9.070549568913027"><ele>96.0</ele><time>2026-05-01T08:00:52.003Z</time></trkpt><trkpt lat="45.302434005171676" lon="9.070400763295147"><ele>96.0</ele><time>2026-05-01T08:00:53.003Z</time></trkpt><trkpt lat="45.3022168345163" lon="9.070253063131117"><ele>96.0</ele><time>2026-05-01T08:00:54.003Z</time></trkpt><trkpt lat="45.302000665099754" lon="9.070106075479853"><ele>96.0</ele><time>2026-05-01T08:00:55.003Z</time></trkpt><trkpt lat="45.30178345075409" lon="9.069961840204734"><ele>96.0</ele><time>2026-05-01T08:00:56.003Z</time></trkpt><trkpt lat="45.301570657752315" lon="9.069817889221863"><ele>96.0</ele><time>2026-05-01T08:00:57.003Z</time></trkpt><trkpt lat="45.30135721539258" lon="9.069674522924908"><ele>96.0</ele><time>2026-05-01T08:00:58.003Z</time></trkpt><trkpt lat="45.30114532081596" lon="9.069533929353057"><ele>96.0</ele><time>2026-05-01T08:00:59.003Z</time></trkpt><trkpt lat="45.300933106321025" lon="9.069391870678595"><ele>96.0</ele><time>2026-05-01T08:01:00.003Z</time></trkpt><trkpt lat="45.300718372081114" lon="9.069251034319008"><ele>96.0</ele><time>2026-05-01T08:01:01.003Z</time></trkpt><trkpt lat="45.30050782512214" lon="9.069111157395199"><ele>96.0</ele><time>2026-05-01T08:01:02.003Z</time></trkpt><trkpt lat="45.300299443469626" lon="9.068969022609252"><ele>96.0</ele><time>2026-05-01T08:01:03.003Z</time></trkpt><trkpt lat="45.30008961147393" lon="9.068825375832299"><ele>96.0</ele><time>2026-05-01T08:01:04.003Z</time></trkpt><trkpt lat="45.29988098993118" lon="9.068686005124466"><ele>96.0</ele><time>2026-05-01T08:01:05.003Z</time></trkpt><trkpt lat="45.29967448767254" lon="9.068546790407174"><ele>95.5</ele><time>2026-05-01T08:01:06.003Z</time></trkpt><trkpt lat="45.29946958022286" lon="9.068408078810226"><ele>95.0</ele><time>2026-05-01T08:01:07.003Z</time></trkpt><trkpt lat="45.29926635928954" lon="9.068265879118059"><ele>94.5</ele><time>2026-05-01T08:01:08.003Z</time></trkpt><trkpt lat="45.29905998099996" lon="9.068134462816866"><ele>94.0</ele><time>2026-05-01T08:01:09.003Z</time></trkpt><trkpt lat="45.29885066096516" lon="9.067999131234522"><ele>93.5</ele><time>2026-05-01T08:01:10.003Z</time></trkpt><trkpt lat="45.29864449760801" lon="9.067860170260653"><ele>93.0</ele><time>2026-05-01T08:01:11.003Z</time></trkpt><trkpt lat="45.298437003702105" lon="9.067720622516427"><ele>93.0</ele><time>2026-05-01T08:01:12.003Z</time></trkpt><trkpt lat="45.29822869994681" lon="9.067579008037479"><ele>93.0</ele><time>2026-05-01T08:01:13.003Z</time></trkpt><trkpt lat="45.29801735110317" lon="9.06743945936108"><ele>94.0</ele><time>2026-05-01T08:01:14.003Z</time></trkpt><trkpt lat="45.29780329216607" lon="9.067295595723051"><ele>95.0</ele><time>2026-05-01T08:01:15.003Z</time></trkpt><trkpt lat="45.29759136270695" lon="9.067152462582872"><ele>95.0</ele><time>2026-05-01T08:01:16.003Z</time></trkpt><trkpt lat="45.29737745889915" lon="9.067010156550687"><ele>95.0</ele><time>2026-05-01T08:01:16.999Z</time></trkpt><trkpt lat="45.29716175785623" lon="9.066865259291834"><ele>94.5</ele><time>2026-05-01T08:01:17.999Z</time></trkpt><trkpt lat="45.29694893816059" lon="9.066722156832755"><ele>94.0</ele><time>2026-05-01T08:01:19Z</time></trkpt><trkpt lat="45.29673469746656" lon="9.066579918424663"><ele>94.0</ele><time>2026-05-01T08:01:20Z</time></trkpt><trkpt lat="45.296519770745704" lon="9.066438846741619"><ele>94.0</ele><time>2026-05-01T08:01:21Z</time></trkpt><trkpt lat="45.29630643091909" lon="9.066293367319222"><ele>94.0</ele><time>2026-05-01T08:01:22Z</time></trkpt><trkpt lat="45.29609117414528" lon="9.06614724768863"><ele>94.0</ele><time>2026-05-01T08:01:23Z</time></trkpt><trkpt lat="45.295876807941994" lon="9.06600599493974"><ele>94.0</ele><time>2026-05-01T08:01:24Z</time></trkpt><trkpt lat="45.2956617881922" lon="9.065867207440496"><ele>94.0</ele><time>2026-05-01T08:01:25Z</time></trkpt><trkpt lat="45.295447320977765" lon="9.065721544140978"><ele>94.0</ele><time>2026-05-01T08:01:26Z</time></trkpt><trkpt lat="45.295232086605644" lon="9.065577356922116"><ele>94.0</ele><time>2026-05-01T08:01:27Z</time></trkpt><trkpt lat="45.29501719048294" lon="9.065431776625491"><ele>94.0</ele><time>2026-05-01T08:01:28Z</time></trkpt><trkpt lat="45.294804238740255" lon="9.065287050988744"><ele>94.0</ele><time>2026-05-01T08:01:29Z</time></trkpt><trkpt lat="45.294588024430084" lon="9.06514272452731"><ele>94.5</ele><time>2026-05-01T08:01:30Z</time></trkpt><trkpt lat="45.2943723015354" lon="9.064999793767141"><ele>95.0</ele><time>2026-05-01T08:01:31Z</time></trkpt><trkpt lat="45.294154600430524" lon="9.064858312089486"><ele>94.0</ele><time>2026-05-01T08:01:32Z</time></trkpt><trkpt lat="45.29393582841578" lon="9.064713876044495"><ele>93.0</ele><time>2026-05-01T08:01:33Z</time></trkpt><trkpt lat="45.29371577373382" lon="9.064566244731054"><ele>93.0</ele><time>2026-05-01T08:01:34Z</time></trkpt><trkpt lat="45.2934933425939" lon="9.064427835802192"><ele>93.0</ele><time>2026-05-01T08:01:35Z</time></trkpt><trkpt lat="45.293269036944906" lon="9.064298268156032"><ele>94.5</ele><time>2026-05-01T08:01:36Z</time></trkpt><trkpt lat="45.29303795581697" lon="9.064188615875599"><ele>96.0</ele><time>2026-05-01T08:01:37Z</time></trkpt><trkpt lat="45.29280657255843" lon="9.064087298087045"><ele>96.0</ele><time>2026-05-01T08:01:38Z</time></trkpt><trkpt lat="45.29257374249722" lon="9.063985024195908"><ele>96.0</ele><time>2026-05-01T08:01:39Z</time></trkpt><trkpt lat="45.2923372812496" lon="9.063887717790472"><ele>96.0</ele><time>2026-05-01T08:01:40Z</time></trkpt><trkpt lat="45.29210581916632" lon="9.063804647457252"><ele>96.0</ele><time>2026-05-01T08:01:41Z</time></trkpt><trkpt lat="45.29188729018252" lon="9.06372951523042"><ele>96.0</ele><time>2026-05-01T08:01:42Z</time></trkpt><trkpt lat="45.29167320116401" lon="9.063636485524134"><ele>96.0</ele><time>2026-05-01T08:01:43Z</time></trkpt><trkpt lat="45.29146011801376" lon="9.06355342698007"><ele>96.0</ele><time>2026-05-01T08:01:44Z</time></trkpt><trkpt lat="45.2912487920212" lon="9.06347016660567"><ele>96.0</ele><time>2026-05-01T08:01:45Z</time></trkpt><trkpt lat="45.291035098236094" lon="9.063389475931157"><ele>96.0</ele><time>2026-05-01T08:01:46.001Z</time></trkpt><trkpt lat="45.29082244032686" lon="9.063311032409569"><ele>96.0</ele><time>2026-05-01T08:01:47.001Z</time></trkpt><trkpt lat="45.29061300386459" lon="9.063233834113527"><ele>95.0</ele><time>2026-05-01T08:01:48.001Z</time></trkpt><trkpt lat="45.29040651546532" lon="9.063155401808947"><ele>94.0</ele><time>2026-05-01T08:01:49.001Z</time></trkpt><trkpt lat="45.29020175394285" lon="9.06308168740036"><ele>93.0</ele><time>2026-05-01T08:01:50.001Z</time></trkpt><trkpt lat="45.2899950922865" lon="9.063011141580413"><ele>93.0</ele><time>2026-05-01T08:01:51.001Z</time></trkpt><trkpt lat="45.28978690215052" lon="9.062938533492797"><ele>93.0</ele><time>2026-05-01T08:01:52.001Z</time></trkpt><trkpt lat="45.28957898990706" lon="9.062862262810071"><ele>93.0</ele><time>2026-05-01T08:01:53.001Z</time></trkpt><trkpt lat="45.2893699682586" lon="9.062786065654487"><ele>93.33333333333333</ele><time>2026-05-01T08:01:54.001Z</time></trkpt><trkpt lat="45.28915854172112" lon="9.062708674785814"><ele>93.66666666666666</ele><time>2026-05-01T08:01:55.001Z</time></trkpt><trkpt lat="45.2889455388059" lon="9.06262731619974"><ele>94.0</ele><time>2026-05-01T08:01:56.001Z</time></trkpt><trkpt lat="45.28872952034763" lon="9.062551421963798"><ele>94.33333333333333</ele><time>2026-05-01T08:01:57.001Z</time></trkpt><trkpt lat="45.28851664028545" lon="9.062471056103542"><ele>94.66666666666667</ele><time>2026-05-01T08:01:58.001Z</time></trkpt><trkpt lat="45.288295844744425" lon="9.062392109927329"><ele>95.0</ele><time>2026-05-01T08:01:59.001Z</time></trkpt><trkpt lat="45.28807782802117" lon="9.062311320781268"><ele>96.0</ele><time>2026-05-01T08:02:00.001Z</time></trkpt><trkpt lat="45.28785737775373" lon="9.062230239432246"><ele>97.0</ele><time>2026-05-01T08:02:01.001Z</time></trkpt><trkpt lat="45.28763157296305" lon="9.062147894432645"><ele>97.0</ele><time>2026-05-01T08:02:02.001Z</time></trkpt><trkpt lat="45.287407604750335" lon="9.062066031091032"><ele>97.0</ele><time>2026-05-01T08:02:03.001Z</time></trkpt><trkpt lat="45.287186846251885" lon="9.061985263905035"><ele>95.5</ele><time>2026-05-01T08:02:04.001Z</time></trkpt><trkpt lat="45.286962295835096" lon="9.06190158117591"><ele>94.0</ele><time>2026-05-01T08:02:05.001Z</time></trkpt><trkpt lat="45.28673836086775" lon="9.061818903412217"><ele>94.0</ele><time>2026-05-01T08:02:06.001Z</time></trkpt><trkpt lat="45.28650922482882" lon="9.061735394572223"><ele>94.0</ele><time>2026-05-01T08:02:07.001Z</time></trkpt><trkpt lat="45.28627848240876" lon="9.06165012766759"><ele>94.0</ele><time>2026-05-01T08:02:08.001Z</time></trkpt><trkpt lat="45.28604649796218" lon="9.061566661523864"><ele>94.0</ele><time>2026-05-01T08:02:09.001Z</time></trkpt><trkpt lat="45.285815635065696" lon="9.061481009216513"><ele>93.5</ele><time>2026-05-01T08:02:10.001Z</time></trkpt><trkpt lat="45.28558346520565" lon="9.06139540971732"><ele>93.0</ele><time>2026-05-01T08:02:11.001Z</time></trkpt><trkpt lat="45.28534892316733" lon="9.061308706011232"><ele>93.0</ele><time>2026-05-01T08:02:12.001Z</time></trkpt><trkpt lat="45.28511277418889" lon="9.061221577796383"><ele>93.0</ele><time>2026-05-01T08:02:13.001Z</time></trkpt><trkpt lat="45.284877337318086" lon="9.061131457447159"><ele>93.0</ele><time>2026-05-01T08:02:14.001Z</time></trkpt><trkpt lat="45.28463975606251" lon="9.06104477209728"><ele>93.0</ele><time>2026-05-01T08:02:15.001Z</time></trkpt><trkpt lat="45.28440157254718" lon="9.060957926820947"><ele>93.0</ele><time>2026-05-01T08:02:16.001Z</time></trkpt><trkpt lat="45.28416741845716" lon="9.060873692740667"><ele>93.0</ele><time>2026-05-01T08:02:17.001Z</time></trkpt><trkpt lat="45.283936331075815" lon="9.060787146466177"><ele>93.0</ele><time>2026-05-01T08:02:18.002Z</time></trkpt><trkpt lat="45.28370585727764" lon="9.060702657762583"><ele>93.0</ele><time>2026-05-01T08:02:19.002Z</time></trkpt><trkpt lat="45.283475598888174" lon="9.060618017287071"><ele>93.0</ele><time>2026-05-01T08:02:20.002Z</time></trkpt><trkpt lat="45.283248351890414" lon="9.060534605635459"><ele>93.0</ele><time>2026-05-01T08:02:21.002Z</time></trkpt><trkpt lat="45.28302185823617" lon="9.060452605690532"><ele>94.0</ele><time>2026-05-01T08:02:22.002Z</time></trkpt><trkpt lat="45.28279482137727" lon="9.060368310740849"><ele>95.0</ele><time>2026-05-01T08:02:23.002Z</time></trkpt><trkpt lat="45.282567246740975" lon="9.060290017163071"><ele>95.0</ele><time>2026-05-01T08:02:24.002Z</time></trkpt><trkpt lat="45.28234039063068" lon="9.060201007733474"><ele>95.0</ele><time>2026-05-01T08:02:25.002Z</time></trkpt><trkpt lat="45.28212166655532" lon="9.060111671317648"><ele>95.0</ele><time>2026-05-01T08:02:26.002Z</time></trkpt><trkpt lat="45.28188966539894" lon="9.060034987266459"><ele>95.0</ele><time>2026-05-01T08:02:27.002Z</time></trkpt><trkpt lat="45.28165921368673" lon="9.059948608823289"><ele>95.0</ele><time>2026-05-01T08:02:28.002Z</time></trkpt><trkpt lat="45.28142841685202" lon="9.05986081893095"><ele>95.0</ele><time>2026-05-01T08:02:29.002Z</time></trkpt><trkpt lat="45.281192970007055" lon="9.059773439886527"><ele>95.0</ele><time>2026-05-01T08:02:30.002Z</time></trkpt><trkpt lat="45.28095763701136" lon="9.059686841000481"><ele>95.0</ele><time>2026-05-01T08:02:31.002Z</time></trkpt><trkpt lat="45.280725295096644" lon="9.059598976209166"><ele>94.5</ele><time>2026-05-01T08:02:32.002Z</time></trkpt><trkpt lat="45.28049144775974" lon="9.059513433431803"><ele>94.0</ele><time>2026-05-01T08:02:33.002Z</time></trkpt><trkpt lat="45.28025431811105" lon="9.059430206730598"><ele>94.0</ele><time>2026-05-01T08:02:34.002Z</time></trkpt><trkpt lat="45.28001481767896" lon="9.059345916093541"><ele>94.0</ele><time>2026-05-01T08:02:35.002Z</time></trkpt><trkpt lat="45.27977528573668" lon="9.059260520267335"><ele>94.0</ele><time>2026-05-01T08:02:36.002Z</time></trkpt><trkpt lat="45.27953743863644" lon="9.0591754534293"><ele>94.0</ele><time>2026-05-01T08:02:37.002Z</time></trkpt><trkpt lat="45.279296182777266" lon="9.059084729309195"><ele>93.0</ele><time>2026-05-01T08:02:38.002Z</time></trkpt><trkpt lat="45.27905961180417" lon="9.058994989279675"><ele>92.0</ele><time>2026-05-01T08:02:39.002Z</time></trkpt><trkpt lat="45.278820797393465" lon="9.05890439454209"><ele>92.0</ele><time>2026-05-01T08:02:40.002Z</time></trkpt><trkpt lat="45.2785808486405" lon="9.058816071092274"><ele>92.0</ele><time>2026-05-01T08:02:41.002Z</time></trkpt><trkpt lat="45.278341553098265" lon="9.058726239925404"><ele>92.0</ele><time>2026-05-01T08:02:42.002Z</time></trkpt><trkpt lat="45.2781030639209" lon="9.058637831081036"><ele>92.0</ele><time>2026-05-01T08:02:43.002Z</time></trkpt><trkpt lat="45.27786279703873" lon="9.058547533097064"><ele>92.5</ele><time>2026-05-01T08:02:44.002Z</time></trkpt><trkpt lat="45.27762376818192" lon="9.058457299262212"><ele>93.0</ele><time>2026-05-01T08:02:45.002Z</time></trkpt><trkpt lat="45.277386866174474" lon="9.058368674954252"><ele>93.0</ele><time>2026-05-01T08:02:46.002Z</time></trkpt><trkpt lat="45.27715020580878" lon="9.058278459686074"><ele>93.0</ele><time>2026-05-01T08:02:47.002Z</time></trkpt><trkpt lat="45.27691345800821" lon="9.058190120945982"><ele>93.0</ele><time>2026-05-01T08:02:48.002Z</time></trkpt><trkpt lat="45.27667936209014" lon="9.058103173917308"><ele>93.0</ele><time>2026-05-01T08:02:49.002Z</time></trkpt><trkpt lat="45.27644287315331" lon="9.05801063135442"><ele>93.0</ele><time>2026-05-01T08:02:50.002Z</time></trkpt><trkpt lat="45.27620850703818" lon="9.057925082145173"><ele>93.0</ele><time>2026-05-01T08:02:51.002Z</time></trkpt><trkpt lat="45.27597176506178" lon="9.057838110719825"><ele>93.0</ele><time>2026-05-01T08:02:52.003Z</time></trkpt><trkpt lat="45.27573449947817" lon="9.057752548486626"><ele>93.0</ele><time>2026-05-01T08:02:53.003Z</time></trkpt><trkpt lat="45.275494794630774" lon="9.057666689061428"><ele>92.5</ele><time>2026-05-01T08:02:54.003Z</time></trkpt><trkpt lat="45.275258844223096" lon="9.057579266094908"><ele>92.0</ele><time>2026-05-01T08:02:55.003Z</time></trkpt><trkpt lat="45.275022283418494" lon="9.057489833006553"><ele>92.5</ele><time>2026-05-01T08:02:56.003Z</time></trkpt><trkpt lat="45.274782768767075" lon="9.057403000996155"><ele>93.0</ele><time>2026-05-01T08:02:57.003Z</time></trkpt><trkpt lat="45.27454634565419" lon="9.057317991659698"><ele>93.5</ele><time>2026-05-01T08:02:58.003Z</time></trkpt><trkpt lat="45.274309253521515" lon="9.057228811212052"><ele>94.0</ele><time>2026-05-01T08:02:59.003Z</time></trkpt><trkpt lat="45.27407232049994" lon="9.057141984364316"><ele>93.5</ele><time>2026-05-01T08:03:00.003Z</time></trkpt><trkpt lat="45.273834799975866" lon="9.05705626350491"><ele>93.0</ele><time>2026-05-01T08:03:01.003Z</time></trkpt><trkpt lat="45.27360018402021" lon="9.056968138855147"><ele>93.0</ele><time>2026-05-01T08:03:02.003Z</time></trkpt><trkpt lat="45.27336628087487" lon="9.056880769366668"><ele>93.0</ele><time>2026-05-01T08:03:03.003Z</time></trkpt><trkpt lat="45.27312882395064" lon="9.056796373892858"><ele>93.5</ele><time>2026-05-01T08:03:04.003Z</time></trkpt><trkpt lat="45.272892287096006" lon="9.056708922526077"><ele>94.0</ele><time>2026-05-01T08:03:05.003Z</time></trkpt><trkpt lat="45.27265718585622" lon="9.05662276316308"><ele>93.5</ele><time>2026-05-01T08:03:06.003Z</time></trkpt><trkpt lat="45.272420787766436" lon="9.056537405069122"><ele>93.0</ele><time>2026-05-01T08:03:07.003Z</time></trkpt><trkpt lat="45.272184302090054" lon="9.056450317199106"><ele>92.5</ele><time>2026-05-01T08:03:08.003Z</time></trkpt><trkpt lat="45.2719483496373" lon="9.056360621410144"><ele>92.0</ele><time>2026-05-01T08:03:09.003Z</time></trkpt><trkpt lat="45.27171321508048" lon="9.056270345687448"><ele>92.0</ele><time>2026-05-01T08:03:10.003Z</time></trkpt><trkpt lat="45.27147574609009" lon="9.056183226525997"><ele>92.0</ele><time>2026-05-01T08:03:11.003Z</time></trkpt><trkpt lat="45.271238061330635" lon="9.056097074983747"><ele>92.5</ele><time>2026-05-01T08:03:12.003Z</time></trkpt><trkpt lat="45.270999815939206" lon="9.056011863896172"><ele>93.0</ele><time>2026-05-01T08:03:13.003Z</time></trkpt><trkpt lat="45.2707591063891" lon="9.055923031514862"><ele>93.0</ele><time>2026-05-01T08:03:14.003Z</time></trkpt><trkpt lat="45.270518751505016" lon="9.055832517962923"><ele>93.0</ele><time>2026-05-01T08:03:15.003Z</time></trkpt><trkpt lat="45.27027855063343" lon="9.055742690315933"><ele>92.0</ele><time>2026-05-01T08:03:16.003Z</time></trkpt><trkpt lat="45.2700379862623" lon="9.055657251869023"><ele>91.0</ele><time>2026-05-01T08:03:17.003Z</time></trkpt><trkpt lat="45.2697969361472" lon="9.055568013151547"><ele>91.0</ele><time>2026-05-01T08:03:18.003Z</time></trkpt><trkpt lat="45.26955841206432" lon="9.055481945293245"><ele>91.0</ele><time>2026-05-01T08:03:19.003Z</time></trkpt><trkpt lat="45.26931905747915" lon="9.055395111202262"><ele>91.0</ele><time>2026-05-01T08:03:20.003Z</time></trkpt><trkpt lat="45.269083332555226" lon="9.055305967193586"><ele>91.0</ele><time>2026-05-01T08:03:21.003Z</time></trkpt><trkpt lat="45.26884839651128" lon="9.055218728763471"><ele>91.0</ele><time>2026-05-01T08:03:22.003Z</time></trkpt><trkpt lat="45.2686165761678" lon="9.055131645633562"><ele>91.0</ele><time>2026-05-01T08:03:23.001Z</time></trkpt><trkpt lat="45.26838680327954" lon="9.05504534361954"><ele>91.0</ele><time>2026-05-01T08:03:24.001Z</time></trkpt><trkpt lat="45.268158427166306" lon="9.054959285342111"><ele>91.0</ele><time>2026-05-01T08:03:25.001Z</time></trkpt><trkpt lat="45.2679287619969" lon="9.054876857246187"><ele>91.5</ele><time>2026-05-01T08:03:26.001Z</time></trkpt><trkpt lat="45.267699609606396" lon="9.054798488124941"><ele>92.0</ele><time>2026-05-01T08:03:27.001Z</time></trkpt><trkpt lat="45.26746975174512" lon="9.054714936056582"><ele>91.5</ele><time>2026-05-01T08:03:28.001Z</time></trkpt><trkpt lat="45.267237859226086" lon="9.05463188176379"><ele>91.0</ele><time>2026-05-01T08:03:29.001Z</time></trkpt><trkpt lat="45.26701014872736" lon="9.054544821883704"><ele>91.0</ele><time>2026-05-01T08:03:30.001Z</time></trkpt><trkpt lat="45.26677928130884" lon="9.054459839073637"><ele>91.0</ele><time>2026-05-01T08:03:31.001Z</time></trkpt><trkpt lat="45.26654893806945" lon="9.054374364072155"><ele>91.0</ele><time>2026-05-01T08:03:32.001Z</time></trkpt><trkpt lat="45.2663177144582" lon="9.054288635593863"><ele>91.0</ele><time>2026-05-01T08:03:33.001Z</time></trkpt><trkpt lat="45.26608455543407" lon="9.054201279563747"><ele>91.0</ele><time>2026-05-01T08:03:34.001Z</time></trkpt><trkpt lat="45.26585277040037" lon="9.05412021359095"><ele>91.0</ele><time>2026-05-01T08:03:35.001Z</time></trkpt><trkpt lat="45.26562198773329" lon="9.054035237331451"><ele>91.5</ele><time>2026-05-01T08:03:36.001Z</time></trkpt><trkpt lat="45.265392028691835" lon="9.053951382988359"><ele>92.0</ele><time>2026-05-01T08:03:37.001Z</time></trkpt><trkpt lat="45.265160997826726" lon="9.05386509474999"><ele>92.0</ele><time>2026-05-01T08:03:38.001Z</time></trkpt><trkpt lat="45.26493330652272" lon="9.053779615060787"><ele>92.0</ele><time>2026-05-01T08:03:39.001Z</time></trkpt><trkpt lat="45.26470719831101" lon="9.053696383884756"><ele>92.0</ele><time>2026-05-01T08:03:40.001Z</time></trkpt><trkpt lat="45.264479058493734" lon="9.053611558415666"><ele>92.0</ele><time>2026-05-01T08:03:41.001Z</time></trkpt><trkpt lat="45.26425331953738" lon="9.053526220481666"><ele>92.0</ele><time>2026-05-01T08:03:42.001Z</time></trkpt><trkpt lat="45.26402960416702" lon="9.053432321645802"><ele>92.0</ele><time>2026-05-01T08:03:43.001Z</time></trkpt><trkpt lat="45.26380479550104" lon="9.053335850677435"><ele>92.5</ele><time>2026-05-01T08:03:44.001Z</time></trkpt><trkpt lat="45.263581789513175" lon="9.053234710748534"><ele>93.0</ele><time>2026-05-01T08:03:45.001Z</time></trkpt><trkpt lat="45.263359325262655" lon="9.053130082878813"><ele>93.0</ele><time>2026-05-01T08:03:46.001Z</time></trkpt><trkpt lat="45.26314217502131" lon="9.053018488483284"><ele>93.0</ele><time>2026-05-01T08:03:47.001Z</time></trkpt><trkpt lat="45.26292384732232" lon="9.052898424858158"><ele>91.5</ele><time>2026-05-01T08:03:48.001Z</time></trkpt><trkpt lat="45.26271863529981" lon="9.05276480417076"><ele>90.0</ele><time>2026-05-01T08:03:49.001Z</time></trkpt><trkpt lat="45.26250335048459" lon="9.052624709590754"><ele>90.0</ele><time>2026-05-01T08:03:50.001Z</time></trkpt><trkpt lat="45.262286812182175" lon="9.052481845416073"><ele>90.0</ele><time>2026-05-01T08:03:51.001Z</time></trkpt><trkpt lat="45.262073218277145" lon="9.052339365077973"><ele>91.0</ele><time>2026-05-01T08:03:52.001Z</time></trkpt><trkpt lat="45.2618570711738" lon="9.05220012395093"><ele>92.0</ele><time>2026-05-01T08:03:53.001Z</time></trkpt><trkpt lat="45.261637049804705" lon="9.052067451818154"><ele>92.0</ele><time>2026-05-01T08:03:54.001Z</time></trkpt><trkpt lat="45.26142085165478" lon="9.05192751554799"><ele>92.0</ele><time>2026-05-01T08:03:55.001Z</time></trkpt><trkpt lat="45.2612026377992" lon="9.05178680013366"><ele>92.0</ele><time>2026-05-01T08:03:56.001Z</time></trkpt><trkpt lat="45.26098308598084" lon="9.051646665992234"><ele>92.0</ele><time>2026-05-01T08:03:57.001Z</time></trkpt><trkpt lat="45.260768537310256" lon="9.051506274882184"><ele>92.0</ele><time>2026-05-01T08:03:58.001Z</time></trkpt><trkpt lat="45.26055097422823" lon="9.051365519726863"><ele>92.0</ele><time>2026-05-01T08:03:59.001Z</time></trkpt><trkpt lat="45.26033179192746" lon="9.051223130306328"><ele>92.0</ele><time>2026-05-01T08:04:00.001Z</time></trkpt><trkpt lat="45.26011311064104" lon="9.051082128032363"><ele>92.0</ele><time>2026-05-01T08:04:01.001Z</time></trkpt><trkpt lat="45.25989438498961" lon="9.050941007955512"><ele>92.5</ele><time>2026-05-01T08:04:02.001Z</time></trkpt><trkpt lat="45.25967439682759" lon="9.050795582994112"><ele>93.0</ele><time>2026-05-01T08:04:03.001Z</time></trkpt><trkpt lat="45.25945057421512" lon="9.050654260877273"><ele>93.0</ele><time>2026-05-01T08:04:04.001Z</time></trkpt><trkpt lat="45.25923036919712" lon="9.0505146894655"><ele>93.0</ele><time>2026-05-01T08:04:05.001Z</time></trkpt><trkpt lat="45.25901291384267" lon="9.05037233391798"><ele>92.0</ele><time>2026-05-01T08:04:06.001Z</time></trkpt><trkpt lat="45.2587889763331" lon="9.050233469509072"><ele>91.0</ele><time>2026-05-01T08:04:07.001Z</time></trkpt><trkpt lat="45.25857337005206" lon="9.050091470826187"><ele>91.0</ele><time>2026-05-01T08:04:08.001Z</time></trkpt><trkpt lat="45.25835151032918" lon="9.0499562923391"><ele>91.0</ele><time>2026-05-01T08:04:09.001Z</time></trkpt><trkpt lat="45.25813122115829" lon="9.049813475064916"><ele>91.0</ele><time>2026-05-01T08:04:10.001Z</time></trkpt><trkpt lat="45.25791358258621" lon="9.049673400903295"><ele>91.0</ele><time>2026-05-01T08:04:11.001Z</time></trkpt><trkpt lat="45.25769597958523" lon="9.049531896432686"><ele>91.0</ele><time>2026-05-01T08:04:12.001Z</time></trkpt><trkpt lat="45.257472642419856" lon="9.049385247139437"><ele>91.0</ele><time>2026-05-01T08:04:13.001Z</time></trkpt><trkpt lat="45.257252003464906" lon="9.049251415177073"><ele>91.5</ele><time>2026-05-01T08:04:14.001Z</time></trkpt><trkpt lat="45.25703278906287" lon="9.049110139938241"><ele>92.0</ele><time>2026-05-01T08:04:15.001Z</time></trkpt><trkpt lat="45.25681355526303" lon="9.048967858054885"><ele>92.0</ele><time>2026-05-01T08:04:16.001Z</time></trkpt><trkpt lat="45.2565941510889" lon="9.048827972938696"><ele>92.0</ele><time>2026-05-01T08:04:17.001Z</time></trkpt><trkpt lat="45.2563752270665" lon="9.048693713154595"><ele>91.5</ele><time>2026-05-01T08:04:18.001Z</time></trkpt><trkpt lat="45.256154542961724" lon="9.048556507266072"><ele>91.0</ele><time>2026-05-01T08:04:19.001Z</time></trkpt><trkpt lat="45.25593165581817" lon="9.048410113942598"><ele>91.5</ele><time>2026-05-01T08:04:20.001Z</time></trkpt><trkpt lat="45.2557130091195" lon="9.048268829363643"><ele>92.0</ele><time>2026-05-01T08:04:21.001Z</time></trkpt><trkpt lat="45.25549147271342" lon="9.04812928552143"><ele>92.5</ele><time>2026-05-01T08:04:22.001Z</time></trkpt><trkpt lat="45.25527228178152" lon="9.047992464070544"><ele>93.0</ele><time>2026-05-01T08:04:23.001Z</time></trkpt><trkpt lat="45.255052399817" lon="9.047842339301186"><ele>93.0</ele><time>2026-05-01T08:04:24.001Z</time></trkpt><trkpt lat="45.25483194921327" lon="9.047702308384022"><ele>93.0</ele><time>2026-05-01T08:04:25.001Z</time></trkpt><trkpt lat="45.254612344174745" lon="9.0475641253005"><ele>92.0</ele><time>2026-05-01T08:04:26.001Z</time></trkpt><trkpt lat="45.254394214260415" lon="9.047428381546036"><ele>91.0</ele><time>2026-05-01T08:04:27.001Z</time></trkpt><trkpt lat="45.25417709045139" lon="9.047290384009187"><ele>91.0</ele><time>2026-05-01T08:04:28.001Z</time></trkpt><trkpt lat="45.25395788958881" lon="9.047149976741775"><ele>91.0</ele><time>2026-05-01T08:04:29.001Z</time></trkpt><trkpt lat="45.25374190783334" lon="9.047008308084578"><ele>91.5</ele><time>2026-05-01T08:04:30.001Z</time></trkpt><trkpt lat="45.2535220384458" lon="9.046867297725267"><ele>92.0</ele><time>2026-05-01T08:04:31.001Z</time></trkpt><trkpt lat="45.253303723032424" lon="9.046728703392349"><ele>92.0</ele><time>2026-05-01T08:04:32.001Z</time></trkpt><trkpt lat="45.25308638968816" lon="9.046587297850659"><ele>92.0</ele><time>2026-05-01T08:04:33.001Z</time></trkpt><trkpt lat="45.25286807787438" lon="9.046448116709687"><ele>92.0</ele><time>2026-05-01T08:04:34.001Z</time></trkpt><trkpt lat="45.252651071901994" lon="9.046305431415888"><ele>92.0</ele><time>2026-05-01T08:04:35.001Z</time></trkpt><trkpt lat="45.252434184037384" lon="9.0461673015103"><ele>92.0</ele><time>2026-05-01T08:04:36.001Z</time></trkpt><trkpt lat="45.25221647688902" lon="9.046030015338857"><ele>92.0</ele><time>2026-05-01T08:04:37.001Z</time></trkpt><trkpt lat="45.252000704888424" lon="9.045889328788949"><ele>91.5</ele><time>2026-05-01T08:04:38.001Z</time></trkpt><trkpt lat="45.25178076619276" lon="9.045749120211187"><ele>91.0</ele><time>2026-05-01T08:04:39.001Z</time></trkpt><trkpt lat="45.25156344745475" lon="9.045611698099549"><ele>91.5</ele><time>2026-05-01T08:04:40.001Z</time></trkpt><trkpt lat="45.25134651249274" lon="9.045472061044375"><ele>92.0</ele><time>2026-05-01T08:04:41.001Z</time></trkpt><trkpt lat="45.2511294932114" lon="9.04533503017992"><ele>92.0</ele><time>2026-05-01T08:04:42.001Z</time></trkpt><trkpt lat="45.25091244127865" lon="9.045200009559785"><ele>92.0</ele><time>2026-05-01T08:04:43.001Z</time></trkpt><trkpt lat="45.25069503141905" lon="9.045057821017938"><ele>91.5</ele><time>2026-05-01T08:04:44.001Z</time></trkpt><trkpt lat="45.25047576157464" lon="9.044915722234816"><ele>91.0</ele><time>2026-05-01T08:04:45.001Z</time></trkpt><trkpt lat="45.25025727107752" lon="9.044775431701202"><ele>91.0</ele><time>2026-05-01T08:04:46.001Z</time></trkpt><trkpt lat="45.25003877604352" lon="9.04463718506008"><ele>91.0</ele><time>2026-05-01T08:04:47.001Z</time></trkpt><trkpt lat="45.249817190710004" lon="9.044498634880247"><ele>92.0</ele><time>2026-05-01T08:04:48.001Z</time></trkpt><trkpt lat="45.24959665351424" lon="9.044359702413185"><ele>93.0</ele><time>2026-05-01T08:04:49.001Z</time></trkpt><trkpt lat="45.24937620010563" lon="9.044216388344342"><ele>92.5</ele><time>2026-05-01T08:04:50.001Z</time></trkpt><trkpt lat="45.24915690289444" lon="9.044079108964683"><ele>92.0</ele><time>2026-05-01T08:04:51.001Z</time></trkpt><trkpt lat="45.24893628171137" lon="9.043938984433195"><ele>92.0</ele><time>2026-05-01T08:04:52.001Z</time></trkpt><trkpt lat="45.248716617714216" lon="9.043797444904031"><ele>92.0</ele><time>2026-05-01T08:04:53.001Z</time></trkpt><trkpt lat="45.24849910582593" lon="9.043652671471534"><ele>92.0</ele><time>2026-05-01T08:04:54.001Z</time></trkpt><trkpt lat="45.24828033407106" lon="9.043509757855613"><ele>92.0</ele><time>2026-05-01T08:04:55.002Z</time></trkpt><trkpt lat="45.2480622841963" lon="9.04336124518319"><ele>91.0</ele><time>2026-05-01T08:04:56.002Z</time></trkpt><trkpt lat="45.24784392250315" lon="9.043221644079978"><ele>90.0</ele><time>2026-05-01T08:04:57.002Z</time></trkpt><trkpt lat="45.247624353867636" lon="9.043080693628996"><ele>90.0</ele><time>2026-05-01T08:04:58.002Z</time></trkpt><trkpt lat="45.24740326823878" lon="9.042939181147728"><ele>90.0</ele><time>2026-05-01T08:04:59.002Z</time></trkpt><trkpt lat="45.247183754828214" lon="9.042792212428312"><ele>89.5</ele><time>2026-05-01T08:05:00.002Z</time></trkpt><trkpt lat="45.24696420915053" lon="9.042654045623701"><ele>89.0</ele><time>2026-05-01T08:05:01.002Z</time></trkpt><trkpt lat="45.24674713181843" lon="9.042517427362966"><ele>90.0</ele><time>2026-05-01T08:05:02.002Z</time></trkpt><trkpt lat="45.2465275864603" lon="9.042377259984534"><ele>91.0</ele><time>2026-05-01T08:05:03.002Z</time></trkpt><trkpt lat="45.246307456111296" lon="9.042233070223087"><ele>91.0</ele><time>2026-05-01T08:05:04.002Z</time></trkpt><trkpt lat="45.24609054199304" lon="9.042090294131885"><ele>91.0</ele><time>2026-05-01T08:05:05.002Z</time></trkpt><trkpt lat="45.24587474069185" lon="9.041951325478006"><ele>91.0</ele><time>2026-05-01T08:05:06.002Z</time></trkpt><trkpt lat="45.245655916596924" lon="9.04180408793305"><ele>91.0</ele><time>2026-05-01T08:05:07.002Z</time></trkpt><trkpt lat="45.24543858881358" lon="9.041656278161721"><ele>90.5</ele><time>2026-05-01T08:05:08.002Z</time></trkpt><trkpt lat="45.24521653248378" lon="9.041524204166118"><ele>90.0</ele><time>2026-05-01T08:05:09.002Z</time></trkpt><trkpt lat="45.244999726664695" lon="9.04138119867376"><ele>89.5</ele><time>2026-05-01T08:05:10.002Z</time></trkpt><trkpt lat="45.244780198252464" lon="9.041240048358334"><ele>89.0</ele><time>2026-05-01T08:05:11.002Z</time></trkpt><trkpt lat="45.24456225387214" lon="9.041093356382763"><ele>89.0</ele><time>2026-05-01T08:05:12.002Z</time></trkpt><trkpt lat="45.24434915349398" lon="9.040933101342098"><ele>89.0</ele><time>2026-05-01T08:05:13.002Z</time></trkpt><trkpt lat="45.24413754921704" lon="9.040763908435537"><ele>88.0</ele><time>2026-05-01T08:05:14.002Z</time></trkpt><trkpt lat="45.243927223861135" lon="9.040591218016974"><ele>87.0</ele><time>2026-05-01T08:05:15.002Z</time></trkpt><trkpt lat="45.243718002493225" lon="9.040415455969104"><ele>87.0</ele><time>2026-05-01T08:05:16.002Z</time></trkpt><trkpt lat="45.24351025711348" lon="9.04023107210732"><ele>87.0</ele><time>2026-05-01T08:05:17.002Z</time></trkpt><trkpt lat="45.24329953220756" lon="9.040053103555467"><ele>85.5</ele><time>2026-05-01T08:05:18.002Z</time></trkpt><trkpt lat="45.24309541931398" lon="9.039873969330836"><ele>84.0</ele><time>2026-05-01T08:05:19.002Z</time></trkpt><trkpt lat="45.24288802486087" lon="9.039698899659403"><ele>84.0</ele><time>2026-05-01T08:05:20.002Z</time></trkpt><trkpt lat="45.2426827835342" lon="9.0395248213346"><ele>84.0</ele><time>2026-05-01T08:05:21.002Z</time></trkpt><trkpt lat="45.24247680024977" lon="9.039345212945216"><ele>84.5</ele><time>2026-05-01T08:05:22.002Z</time></trkpt><trkpt lat="45.24227075811763" lon="9.039166814819001"><ele>85.0</ele><time>2026-05-01T08:05:23.002Z</time></trkpt><trkpt lat="45.2420647533369" lon="9.03898783678975"><ele>85.0</ele><time>2026-05-01T08:05:24.002Z</time></trkpt><trkpt lat="45.24185494295557" lon="9.03880930536697"><ele>85.0</ele><time>2026-05-01T08:05:25.002Z</time></trkpt><trkpt lat="45.241649282733796" lon="9.038627885217101"><ele>84.5</ele><time>2026-05-01T08:05:26.002Z</time></trkpt><trkpt lat="45.24144576066823" lon="9.03844515231126"><ele>84.0</ele><time>2026-05-01T08:05:27.002Z</time></trkpt><trkpt lat="45.241244081665286" lon="9.03826880029985"><ele>83.0</ele><time>2026-05-01T08:05:28.002Z</time></trkpt><trkpt lat="45.241036874148556" lon="9.038086123542861"><ele>82.0</ele><time>2026-05-01T08:05:29Z</time></trkpt><trkpt lat="45.24083608183605" lon="9.037907877708363"><ele>82.0</ele><time>2026-05-01T08:05:30Z</time></trkpt><trkpt lat="45.240635533131005" lon="9.037728670695174"><ele>82.0</ele><time>2026-05-01T08:05:31Z</time></trkpt><trkpt lat="45.24043665139178" lon="9.037549423627578"><ele>82.0</ele><time>2026-05-01T08:05:32Z</time></trkpt><trkpt lat="45.24023673237455" lon="9.037376735875041"><ele>82.0</ele><time>2026-05-01T08:05:33Z</time></trkpt><trkpt lat="45.24003891427658" lon="9.037202122911733"><ele>82.0</ele><time>2026-05-01T08:05:34Z</time></trkpt><trkpt lat="45.239840622529634" lon="9.0370274323373"><ele>82.0</ele><time>2026-05-01T08:05:35Z</time></trkpt><trkpt lat="45.23964088579702" lon="9.036850166494668"><ele>81.5</ele><time>2026-05-01T08:05:36Z</time></trkpt><trkpt lat="45.23943752522726" lon="9.036675276580693"><ele>81.0</ele><time>2026-05-01T08:05:37Z</time></trkpt><trkpt lat="45.239237656900954" lon="9.036502924441258"><ele>81.0</ele><time>2026-05-01T08:05:38Z</time></trkpt><trkpt lat="45.23903574385598" lon="9.03632675338854"><ele>81.0</ele><time>2026-05-01T08:05:39Z</time></trkpt><trkpt lat="45.238825053036564" lon="9.036153672736491"><ele>77.5</ele><time>2026-05-01T08:05:40Z</time></trkpt><trkpt lat="45.238627117738645" lon="9.035975451299608"><ele>74.0</ele><time>2026-05-01T08:05:41Z</time></trkpt><trkpt lat="45.238424636902536" lon="9.035795547749151"><ele>74.0</ele><time>2026-05-01T08:05:42Z</time></trkpt><trkpt lat="45.238219963298036" lon="9.035616789065735"><ele>74.0</ele><time>2026-05-01T08:05:43Z</time></trkpt><trkpt lat="45.238015785403626" lon="9.035437607090287"><ele>71.5</ele><time>2026-05-01T08:05:44Z</time></trkpt><trkpt lat="45.237810415697695" lon="9.035256313548343"><ele>69.0</ele><time>2026-05-01T08:05:45Z</time></trkpt><trkpt lat="45.237603220012446" lon="9.035075959762159"><ele>69.0</ele><time>2026-05-01T08:05:46Z</time></trkpt><trkpt lat="45.23739573738093" lon="9.034896925665521"><ele>69.0</ele><time>2026-05-01T08:05:47Z</time></trkpt><trkpt lat="45.23718687516313" lon="9.03471856485264"><ele>69.0</ele><time>2026-05-01T08:05:48Z</time></trkpt><trkpt lat="45.236975592859835" lon="9.034537896473354"><ele>69.0</ele><time>2026-05-01T08:05:49Z</time></trkpt><trkpt lat="45.23676301636735" lon="9.034356095855612"><ele>69.0</ele><time>2026-05-01T08:05:50Z</time></trkpt><trkpt lat="45.23655346816513" lon="9.0341730242095"><ele>69.0</ele><time>2026-05-01T08:05:51Z</time></trkpt><trkpt lat="45.23634129373932" lon="9.03399195424289"><ele>67.0</ele><time>2026-05-01T08:05:52Z</time></trkpt><trkpt lat="45.23613023531398" lon="9.033806384640767"><ele>65.0</ele><time>2026-05-01T08:05:53Z</time></trkpt><trkpt lat="45.235919342210174" lon="9.033622895698766"><ele>65.0</ele><time>2026-05-01T08:05:54Z</time></trkpt><trkpt lat="45.235708599393426" lon="9.033440665501859"><ele>65.0</ele><time>2026-05-01T08:05:55Z</time></trkpt><trkpt lat="45.23550110236761" lon="9.033257891980195"><ele>66.5</ele><time>2026-05-01T08:05:56Z</time></trkpt><trkpt lat="45.235294143991496" lon="9.033081734610512"><ele>68.0</ele><time>2026-05-01T08:05:57Z</time></trkpt><trkpt lat="45.2350869808667" lon="9.032904132254684"><ele>68.0</ele><time>2026-05-01T08:05:58Z</time></trkpt><trkpt lat="45.2348835041694" lon="9.032716559604436"><ele>68.0</ele><time>2026-05-01T08:05:59Z</time></trkpt><trkpt lat="45.234676276602954" lon="9.032535658617661"><ele>67.5</ele><time>2026-05-01T08:06:00Z</time></trkpt><trkpt lat="45.23446771499126" lon="9.032353909737596"><ele>67.0</ele><time>2026-05-01T08:06:01Z</time></trkpt><trkpt lat="45.23425759321007" lon="9.032173414176153"><ele>67.0</ele><time>2026-05-01T08:06:02Z</time></trkpt><trkpt lat="45.23404873573804" lon="9.031993616751969"><ele>67.0</ele><time>2026-05-01T08:06:03Z</time></trkpt><trkpt lat="45.233840232513586" lon="9.031810545625948"><ele>65.5</ele><time>2026-05-01T08:06:04Z</time></trkpt><trkpt lat="45.233634131154275" lon="9.031628129266993"><ele>64.0</ele><time>2026-05-01T08:06:05Z</time></trkpt><trkpt lat="45.23342581589563" lon="9.031448165180667"><ele>64.0</ele><time>2026-05-01T08:06:06.001Z</time></trkpt><trkpt lat="45.23322069707924" lon="9.031267416803624"><ele>64.0</ele><time>2026-05-01T08:06:07.001Z</time></trkpt><trkpt lat="45.2330121407545" lon="9.031091388306963"><ele>64.5</ele><time>2026-05-01T08:06:08.001Z</time></trkpt><trkpt lat="45.23280672628788" lon="9.03091187226714"><ele>65.0</ele><time>2026-05-01T08:06:09.001Z</time></trkpt><trkpt lat="45.23259904951516" lon="9.030732427926969"><ele>65.5</ele><time>2026-05-01T08:06:10.001Z</time></trkpt><trkpt lat="45.232392061650536" lon="9.03055533044833"><ele>66.0</ele><time>2026-05-01T08:06:11.001Z</time></trkpt><trkpt lat="45.23218573828447" lon="9.030376727655705"><ele>65.0</ele><time>2026-05-01T08:06:12.001Z</time></trkpt><trkpt lat="45.23197807332803" lon="9.030199831643834"><ele>64.0</ele><time>2026-05-01T08:06:13.001Z</time></trkpt><trkpt lat="45.23176971173705" lon="9.030019825688777"><ele>64.0</ele><time>2026-05-01T08:06:14.001Z</time></trkpt><trkpt lat="45.23156295115762" lon="9.02984052299478"><ele>64.0</ele><time>2026-05-01T08:06:15.001Z</time></trkpt><trkpt lat="45.231360046787785" lon="9.029662098987048"><ele>64.0</ele><time>2026-05-01T08:06:16.001Z</time></trkpt><trkpt lat="45.231157669765395" lon="9.029484171898778"><ele>64.0</ele><time>2026-05-01T08:06:17.001Z</time></trkpt><trkpt lat="45.2309540901294" lon="9.029307952198932"><ele>64.0</ele><time>2026-05-01T08:06:18.001Z</time></trkpt><trkpt lat="45.230750088798644" lon="9.029138709957241"><ele>64.0</ele><time>2026-05-01T08:06:19.001Z</time></trkpt><trkpt lat="45.23054550935511" lon="9.028969774447335"><ele>64.0</ele><time>2026-05-01T08:06:20.001Z</time></trkpt><trkpt lat="45.230343339096386" lon="9.02880160081407"><ele>64.0</ele><time>2026-05-01T08:06:21.001Z</time></trkpt><trkpt lat="45.23014344503524" lon="9.02862625275282"><ele>64.0</ele><time>2026-05-01T08:06:22.001Z</time></trkpt><trkpt lat="45.229947006070475" lon="9.028449633652297"><ele>64.0</ele><time>2026-05-01T08:06:23.001Z</time></trkpt><trkpt lat="45.229747513911875" lon="9.028273698535367"><ele>65.5</ele><time>2026-05-01T08:06:24.001Z</time></trkpt><trkpt lat="45.22955171375016" lon="9.028100912226025"><ele>67.0</ele><time>2026-05-01T08:06:25.001Z</time></trkpt><trkpt lat="45.229355094158464" lon="9.027929752319865"><ele>67.0</ele><time>2026-05-01T08:06:26.001Z</time></trkpt><trkpt lat="45.22915836336547" lon="9.02775754581529"><ele>67.0</ele><time>2026-05-01T08:06:27.001Z</time></trkpt><trkpt lat="45.22895778624331" lon="9.027586914694437"><ele>66.0</ele><time>2026-05-01T08:06:28.001Z</time></trkpt><trkpt lat="45.22876146672255" lon="9.027413982872517"><ele>65.0</ele><time>2026-05-01T08:06:29.001Z</time></trkpt><trkpt lat="45.22856288440432" lon="9.027240127638432"><ele>65.0</ele><time>2026-05-01T08:06:30.001Z</time></trkpt><trkpt lat="45.228363883977835" lon="9.027063187518815"><ele>65.0</ele><time>2026-05-01T08:06:31.001Z</time></trkpt><trkpt lat="45.22816527664989" lon="9.026883539927072"><ele>65.0</ele><time>2026-05-01T08:06:32.001Z</time></trkpt><trkpt lat="45.22796467933927" lon="9.026705241088257"><ele>65.0</ele><time>2026-05-01T08:06:33.001Z</time></trkpt><trkpt lat="45.22776416714216" lon="9.026527097694704"><ele>65.0</ele><time>2026-05-01T08:06:34.001Z</time></trkpt><trkpt lat="45.22756052953981" lon="9.0263493204851"><ele>65.0</ele><time>2026-05-01T08:06:35.001Z</time></trkpt><trkpt lat="45.227357292036736" lon="9.026171008810365"><ele>65.0</ele><time>2026-05-01T08:06:36.001Z</time></trkpt><trkpt lat="45.227155530955415" lon="9.025995795858368"><ele>65.0</ele><time>2026-05-01T08:06:37.001Z</time></trkpt><trkpt lat="45.22695728407914" lon="9.025815487755917"><ele>64.0</ele><time>2026-05-01T08:06:38.001Z</time></trkpt><trkpt lat="45.226759896867065" lon="9.025641395010627"><ele>63.0</ele><time>2026-05-01T08:06:39.001Z</time></trkpt><trkpt lat="45.22656249433346" lon="9.02547496049282"><ele>62.5</ele><time>2026-05-01T08:06:40.001Z</time></trkpt><trkpt lat="45.226361484945805" lon="9.025303611470973"><ele>62.0</ele><time>2026-05-01T08:06:41.001Z</time></trkpt><trkpt lat="45.2261630723971" lon="9.025130847076827"><ele>61.5</ele><time>2026-05-01T08:06:42.001Z</time></trkpt><trkpt lat="45.22596370173806" lon="9.024959103549186"><ele>61.0</ele><time>2026-05-01T08:06:43.001Z</time></trkpt><trkpt lat="45.22576484867834" lon="9.02478385272009"><ele>61.0</ele><time>2026-05-01T08:06:44.001Z</time></trkpt><trkpt lat="45.22556733415664" lon="9.024612158869076"><ele>61.0</ele><time>2026-05-01T08:06:45.001Z</time></trkpt><trkpt lat="45.22537094742258" lon="9.02444156573574"><ele>61.0</ele><time>2026-05-01T08:06:46.001Z</time></trkpt><trkpt lat="45.225175157294096" lon="9.024268714637302"><ele>61.0</ele><time>2026-05-01T08:06:47.001Z</time></trkpt><trkpt lat="45.22498132668062" lon="9.02410092612086"><ele>62.0</ele><time>2026-05-01T08:06:48.001Z</time></trkpt><trkpt lat="45.22478586933669" lon="9.023932818460905"><ele>63.0</ele><time>2026-05-01T08:06:49.001Z</time></trkpt><trkpt lat="45.22459344302256" lon="9.023760674679341"><ele>63.0</ele><time>2026-05-01T08:06:50.001Z</time></trkpt><trkpt lat="45.22440161031801" lon="9.023595774672104"><ele>63.0</ele><time>2026-05-01T08:06:51.001Z</time></trkpt><trkpt lat="45.22421201183569" lon="9.023428144845742"><ele>63.0</ele><time>2026-05-01T08:06:52.001Z</time></trkpt><trkpt lat="45.22402236940618" lon="9.023261522756384"><ele>63.33333333333333</ele><time>2026-05-01T08:06:53.001Z</time></trkpt><trkpt lat="45.223836205864735" lon="9.023098713530725"><ele>63.666666666666664</ele><time>2026-05-01T08:06:54.001Z</time></trkpt><trkpt lat="45.2236495062043" lon="9.022935189924207"><ele>64.0</ele><time>2026-05-01T08:06:55.001Z</time></trkpt><trkpt lat="45.223465119960665" lon="9.0227717876236"><ele>64.0</ele><time>2026-05-01T08:06:56.001Z</time></trkpt><trkpt lat="45.223280705788916" lon="9.02260946018206"><ele>64.0</ele><time>2026-05-01T08:06:57.001Z</time></trkpt><trkpt lat="45.22309691529909" lon="9.022452209371124"><ele>64.0</ele><time>2026-05-01T08:06:58.001Z</time></trkpt><trkpt lat="45.222913960565556" lon="9.022288844391843"><ele>63.0</ele><time>2026-05-01T08:06:59.001Z</time></trkpt><trkpt lat="45.22273113175287" lon="9.022125717717142"><ele>62.0</ele><time>2026-05-01T08:07:00.001Z</time></trkpt><trkpt lat="45.22254706051765" lon="9.021962732138869"><ele>61.0</ele><time>2026-05-01T08:07:01.001Z</time></trkpt><trkpt lat="45.22236150123425" lon="9.021804610674574"><ele>62.0</ele><time>2026-05-01T08:07:02.002Z</time></trkpt><trkpt lat="45.22217702077573" lon="9.021644581869925"><ele>63.0</ele><time>2026-05-01T08:07:03.002Z</time></trkpt><trkpt lat="45.221991396729585" lon="9.021485911620283"><ele>64.0</ele><time>2026-05-01T08:07:04.002Z</time></trkpt><trkpt lat="45.2218039735974" lon="9.021328254336208"><ele>64.0</ele><time>2026-05-01T08:07:05.002Z</time></trkpt><trkpt lat="45.22161603350831" lon="9.021166899416428"><ele>64.0</ele><time>2026-05-01T08:07:06.002Z</time></trkpt><trkpt lat="45.22142772256253" lon="9.021002964268856"><ele>64.0</ele><time>2026-05-01T08:07:07.002Z</time></trkpt><trkpt lat="45.22123745810889" lon="9.020833351421562"><ele>63.666666666666664</ele><time>2026-05-01T08:07:08.002Z</time></trkpt><trkpt lat="45.221049022214295" lon="9.020665848867946"><ele>63.33333333333333</ele><time>2026-05-01T08:07:09.002Z</time></trkpt><trkpt lat="45.22085820635406" lon="9.020498211531994"><ele>63.0</ele><time>2026-05-01T08:07:10.002Z</time></trkpt><trkpt lat="45.2206670829518" lon="9.020329591911386"><ele>64.0</ele><time>2026-05-01T08:07:11.002Z</time></trkpt><trkpt lat="45.22047675295529" lon="9.020160197341854"><ele>65.0</ele><time>2026-05-01T08:07:12.002Z</time></trkpt><trkpt lat="45.220281891952574" lon="9.019995159651495"><ele>63.5</ele><time>2026-05-01T08:07:13.002Z</time></trkpt><trkpt lat="45.22008918021116" lon="9.019827816504794"><ele>62.0</ele><time>2026-05-01T08:07:14.002Z</time></trkpt><trkpt lat="45.219893537416446" lon="9.019659265743929"><ele>63.0</ele><time>2026-05-01T08:07:15.002Z</time></trkpt><trkpt lat="45.21969835716017" lon="9.019492824053074"><ele>64.0</ele><time>2026-05-01T08:07:16.002Z</time></trkpt><trkpt lat="45.21950375764815" lon="9.019329316144363"><ele>64.0</ele><time>2026-05-01T08:07:17.002Z</time></trkpt><trkpt lat="45.219315260544526" lon="9.019180827816495"><ele>64.0</ele><time>2026-05-01T08:07:18.002Z</time></trkpt><trkpt lat="45.21912998833752" lon="9.01904064582016"><ele>64.0</ele><time>2026-05-01T08:07:19.002Z</time></trkpt><trkpt lat="45.218943915379114" lon="9.018910264822228"><ele>64.0</ele><time>2026-05-01T08:07:20.002Z</time></trkpt><trkpt lat="45.21875929227868" lon="9.018779526623165"><ele>64.0</ele><time>2026-05-01T08:07:21.002Z</time></trkpt><trkpt lat="45.2185716659479" lon="9.01865712703245"><ele>64.0</ele><time>2026-05-01T08:07:22.002Z</time></trkpt><trkpt lat="45.2183819780133" lon="9.018536460213046"><ele>64.0</ele><time>2026-05-01T08:07:23.002Z</time></trkpt><trkpt lat="45.21818839833776" lon="9.018421125437936"><ele>64.0</ele><time>2026-05-01T08:07:24.002Z</time></trkpt><trkpt lat="45.21799038467743" lon="9.018310909708008"><ele>64.0</ele><time>2026-05-01T08:07:25.002Z</time></trkpt><trkpt lat="45.21779083408433" lon="9.018202926556212"><ele>63.666666666666664</ele><time>2026-05-01T08:07:26.002Z</time></trkpt><trkpt lat="45.21758816965179" lon="9.018102903557107"><ele>63.33333333333333</ele><time>2026-05-01T08:07:27.002Z</time></trkpt><trkpt lat="45.21738217143496" lon="9.018011680511211"><ele>63.0</ele><time>2026-05-01T08:07:28.002Z</time></trkpt><trkpt lat="45.21718605927225" lon="9.0179299416036"><ele>64.0</ele><time>2026-05-01T08:07:29.002Z</time></trkpt><trkpt lat="45.216998749592406" lon="9.017855198523218"><ele>65.0</ele><time>2026-05-01T08:07:30.002Z</time></trkpt><trkpt lat="45.216809687154665" lon="9.01778464551123"><ele>66.0</ele><time>2026-05-01T08:07:31.002Z</time></trkpt><trkpt lat="45.21661913765097" lon="9.017720276564633"><ele>65.0</ele><time>2026-05-01T08:07:32.002Z</time></trkpt><trkpt lat="45.21643124912039" lon="9.017659541386704"><ele>64.0</ele><time>2026-05-01T08:07:33.002Z</time></trkpt><trkpt lat="45.21624111209961" lon="9.017604106554984"><ele>63.0</ele><time>2026-05-01T08:07:34.002Z</time></trkpt><trkpt lat="45.216050560929126" lon="9.017551387419713"><ele>63.0</ele><time>2026-05-01T08:07:35Z</time></trkpt><trkpt lat="45.21585871718057" lon="9.017503766044674"><ele>63.0</ele><time>2026-05-01T08:07:36Z</time></trkpt><trkpt lat="45.21566821550514" lon="9.017459786468187"><ele>63.0</ele><time>2026-05-01T08:07:37Z</time></trkpt><trkpt lat="45.21547565599134" lon="9.01741765153561"><ele>63.33333333333333</ele><time>2026-05-01T08:07:38Z</time></trkpt><trkpt lat="45.21528336150031" lon="9.017376189408246"><ele>63.666666666666664</ele><time>2026-05-01T08:07:39Z</time></trkpt><trkpt lat="45.21508821652096" lon="9.017331705122924"><ele>64.0</ele><time>2026-05-01T08:07:40Z</time></trkpt><trkpt lat="45.21489164084189" lon="9.017288283131714"><ele>64.0</ele><time>2026-05-01T08:07:41Z</time></trkpt><trkpt lat="45.21469163781923" lon="9.017243076103076"><ele>64.0</ele><time>2026-05-01T08:07:42Z</time></trkpt><trkpt lat="45.214491763575346" lon="9.017199126180719"><ele>64.0</ele><time>2026-05-01T08:07:43Z</time></trkpt><trkpt lat="45.21429544560214" lon="9.01715210453087"><ele>64.0</ele><time>2026-05-01T08:07:44Z</time></trkpt><trkpt lat="45.21410085352072" lon="9.017111449424599"><ele>64.0</ele><time>2026-05-01T08:07:45Z</time></trkpt><trkpt lat="45.21390436806781" lon="9.01706906298543"><ele>64.0</ele><time>2026-05-01T08:07:46Z</time></trkpt><trkpt lat="45.21370956236022" lon="9.017028106982204"><ele>64.0</ele><time>2026-05-01T08:07:47Z</time></trkpt><trkpt lat="45.213515514388675" lon="9.016988756862126"><ele>64.0</ele><time>2026-05-01T08:07:48Z</time></trkpt><trkpt lat="45.21331947734045" lon="9.016949110410735"><ele>64.0</ele><time>2026-05-01T08:07:49Z</time></trkpt><trkpt lat="45.21312617750957" lon="9.016909180555752"><ele>64.0</ele><time>2026-05-01T08:07:50Z</time></trkpt><trkpt lat="45.21293000050005" lon="9.0168691983323"><ele>64.0</ele><time>2026-05-01T08:07:51Z</time></trkpt><trkpt lat="45.212737795180054" lon="9.016828484535246"><ele>64.0</ele><time>2026-05-01T08:07:52Z</time></trkpt><trkpt lat="45.21255038857491" lon="9.016789544835714"><ele>64.0</ele><time>2026-05-01T08:07:53Z</time></trkpt><trkpt lat="45.212365524714826" lon="9.016748502063578"><ele>64.0</ele><time>2026-05-01T08:07:54Z</time></trkpt><trkpt lat="45.21217991821461" lon="9.016708306491726"><ele>64.0</ele><time>2026-05-01T08:07:55Z</time></trkpt><trkpt lat="45.211993580448315" lon="9.016670473788823"><ele>63.666666666666664</ele><time>2026-05-01T08:07:56Z</time></trkpt><trkpt lat="45.21180541574647" lon="9.01663024807088"><ele>63.33333333333333</ele><time>2026-05-01T08:07:57Z</time></trkpt><trkpt lat="45.21161486964587" lon="9.01659094682745"><ele>63.0</ele><time>2026-05-01T08:07:58Z</time></trkpt><trkpt lat="45.211419390811855" lon="9.01655685201651"><ele>63.66666666666667</ele><time>2026-05-01T08:07:59Z</time></trkpt><trkpt lat="45.21121824741227" lon="9.016527942407855"><ele>64.33333333333334</ele><time>2026-05-01T08:08:00Z</time></trkpt><trkpt lat="45.21100947925545" lon="9.016504988804224"><ele>65.0</ele><time>2026-05-01T08:08:01Z</time></trkpt><trkpt lat="45.21079744686255" lon="9.016489243296519"><ele>65.0</ele><time>2026-05-01T08:08:02Z</time></trkpt><trkpt lat="45.21057636663658" lon="9.016481909499182"><ele>65.0</ele><time>2026-05-01T08:08:03.001Z</time></trkpt><trkpt lat="45.21035530928848" lon="9.016478072571083"><ele>65.0</ele><time>2026-05-01T08:08:04.001Z</time></trkpt><trkpt lat="45.21013251777126" lon="9.016476529785884"><ele>65.0</ele><time>2026-05-01T08:08:05.001Z</time></trkpt><trkpt lat="45.209909861201155" lon="9.016478566424425"><ele>65.0</ele><time>2026-05-01T08:08:06.001Z</time></trkpt><trkpt lat="45.20968623675557" lon="9.016486378097266"><ele>65.0</ele><time>2026-05-01T08:08:07.001Z</time></trkpt><trkpt lat="45.20946114410753" lon="9.016500586536694"><ele>65.0</ele><time>2026-05-01T08:08:08.001Z</time></trkpt><trkpt lat="45.2092364751141" lon="9.016520075287314"><ele>65.0</ele><time>2026-05-01T08:08:09.001Z</time></trkpt><trkpt lat="45.209008485185784" lon="9.01654375685958"><ele>64.5</ele><time>2026-05-01T08:08:10.001Z</time></trkpt><trkpt lat="45.208778118336106" lon="9.016572718660033"><ele>64.0</ele><time>2026-05-01T08:08:11.001Z</time></trkpt><trkpt lat="45.20854564190646" lon="9.01660600883116"><ele>64.0</ele><time>2026-05-01T08:08:12.001Z</time></trkpt><trkpt lat="45.20831500102079" lon="9.01664584608809"><ele>64.0</ele><time>2026-05-01T08:08:13.001Z</time></trkpt><trkpt lat="45.208079761712874" lon="9.016695196614338"><ele>65.0</ele><time>2026-05-01T08:08:14.001Z</time></trkpt><trkpt lat="45.20784376849238" lon="9.016741030766882"><ele>66.0</ele><time>2026-05-01T08:08:15.001Z</time></trkpt><trkpt lat="45.20760421482655" lon="9.016784736230337"><ele>66.0</ele><time>2026-05-01T08:08:16.001Z</time></trkpt><trkpt lat="45.20736743281643" lon="9.016829948113859"><ele>66.0</ele><time>2026-05-01T08:08:17.001Z</time></trkpt><trkpt lat="45.20713034891143" lon="9.016876167916838"><ele>66.0</ele><time>2026-05-01T08:08:18.001Z</time></trkpt><trkpt lat="45.20689363727789" lon="9.01692459920239"><ele>66.0</ele><time>2026-05-01T08:08:19.001Z</time></trkpt><trkpt lat="45.2066570289713" lon="9.016970318258636"><ele>66.0</ele><time>2026-05-01T08:08:20.001Z</time></trkpt><trkpt lat="45.20642157361443" lon="9.01701891566527"><ele>66.0</ele><time>2026-05-01T08:08:21.001Z</time></trkpt><trkpt lat="45.20618497429063" lon="9.017063314768867"><ele>66.0</ele><time>2026-05-01T08:08:22.001Z</time></trkpt><trkpt lat="45.20595257940198" lon="9.017114931938657"><ele>66.0</ele><time>2026-05-01T08:08:23.001Z</time></trkpt><trkpt lat="45.20572383968" lon="9.017159733771768"><ele>66.5</ele><time>2026-05-01T08:08:24.001Z</time></trkpt><trkpt lat="45.20549454826247" lon="9.017204672096275"><ele>67.0</ele><time>2026-05-01T08:08:25.001Z</time></trkpt><trkpt lat="45.20526929610011" lon="9.017251266698148"><ele>67.0</ele><time>2026-05-01T08:08:26.001Z</time></trkpt><trkpt lat="45.20504203441048" lon="9.017299254041802"><ele>67.0</ele><time>2026-05-01T08:08:27.001Z</time></trkpt><trkpt lat="45.20481334157026" lon="9.017345861884134"><ele>67.0</ele><time>2026-05-01T08:08:28.001Z</time></trkpt><trkpt lat="45.204585448193605" lon="9.01739326889249"><ele>67.0</ele><time>2026-05-01T08:08:29.001Z</time></trkpt><trkpt lat="45.20435374169693" lon="9.017441960955008"><ele>67.0</ele><time>2026-05-01T08:08:30.001Z</time></trkpt><trkpt lat="45.20412038388383" lon="9.01748958132083"><ele>67.0</ele><time>2026-05-01T08:08:31.001Z</time></trkpt><trkpt lat="45.203885388488835" lon="9.017539411257058"><ele>67.0</ele><time>2026-05-01T08:08:32.001Z</time></trkpt><trkpt lat="45.203646955341945" lon="9.017586640451059"><ele>67.0</ele><time>2026-05-01T08:08:33.001Z</time></trkpt><trkpt lat="45.20340597243823" lon="9.017635157766948"><ele>66.5</ele><time>2026-05-01T08:08:34.001Z</time></trkpt><trkpt lat="45.20316230226105" lon="9.017684983224955"><ele>66.0</ele><time>2026-05-01T08:08:35.001Z</time></trkpt><trkpt lat="45.20292095782806" lon="9.017739755077592"><ele>66.0</ele><time>2026-05-01T08:08:36.001Z</time></trkpt><trkpt lat="45.20267610663473" lon="9.01779219008719"><ele>66.0</ele><time>2026-05-01T08:08:37.001Z</time></trkpt><trkpt lat="45.20243000661795" lon="9.017842735188314"><ele>65.0</ele><time>2026-05-01T08:08:38.001Z</time></trkpt><trkpt lat="45.20218145323523" lon="9.01789388180965"><ele>64.0</ele><time>2026-05-01T08:08:39.001Z</time></trkpt><trkpt lat="45.20193456220249" lon="9.017946013287387"><ele>64.0</ele><time>2026-05-01T08:08:40.001Z</time></trkpt><trkpt lat="45.201687036661085" lon="9.017996193154136"><ele>64.0</ele><time>2026-05-01T08:08:41.001Z</time></trkpt><trkpt lat="45.20144328335151" lon="9.0180453604133"><ele>64.5</ele><time>2026-05-01T08:08:42.001Z</time></trkpt><trkpt lat="45.201197892055646" lon="9.018089443089758"><ele>65.0</ele><time>2026-05-01T08:08:43.001Z</time></trkpt><trkpt lat="45.200949618987195" lon="9.018135156879275"><ele>65.0</ele><time>2026-05-01T08:08:44.001Z</time></trkpt><trkpt lat="45.200705660257576" lon="9.018171360846955"><ele>65.0</ele><time>2026-05-01T08:08:45.001Z</time></trkpt><trkpt lat="45.20046243203018" lon="9.018195008059118"><ele>65.0</ele><time>2026-05-01T08:08:46.001Z</time></trkpt><trkpt lat="45.200216701203054" lon="9.018208567864848"><ele>65.0</ele><time>2026-05-01T08:08:47.001Z</time></trkpt><trkpt lat="45.199973122640266" lon="9.018207946737727"><ele>65.0</ele><time>2026-05-01T08:08:48.001Z</time></trkpt><trkpt lat="45.19972907952415" lon="9.018198427558568"><ele>65.0</ele><time>2026-05-01T08:08:49.001Z</time></trkpt><trkpt lat="45.19948273511088" lon="9.018181236779421"><ele>65.0</ele><time>2026-05-01T08:08:50.001Z</time></trkpt><trkpt lat="45.19923800710917" lon="9.01815672801524"><ele>65.0</ele><time>2026-05-01T08:08:51.001Z</time></trkpt><trkpt lat="45.19899159266808" lon="9.018121308415813"><ele>64.5</ele><time>2026-05-01T08:08:52.001Z</time></trkpt><trkpt lat="45.19874447793521" lon="9.018074100896415"><ele>64.0</ele><time>2026-05-01T08:08:53.001Z</time></trkpt><trkpt lat="45.1984994326563" lon="9.01802020541018"><ele>64.0</ele><time>2026-05-01T08:08:54.001Z</time></trkpt><trkpt lat="45.19825733963042" lon="9.01795494313749"><ele>64.0</ele><time>2026-05-01T08:08:55.001Z</time></trkpt><trkpt lat="45.198014618752524" lon="9.017881060456032"><ele>64.0</ele><time>2026-05-01T08:08:56.001Z</time></trkpt><trkpt lat="45.19776963613593" lon="9.01779831314722"><ele>64.0</ele><time>2026-05-01T08:08:57.001Z</time></trkpt><trkpt lat="45.19752716431158" lon="9.017705345549922"><ele>64.5</ele><time>2026-05-01T08:08:58.001Z</time></trkpt><trkpt lat="45.19728845818117" lon="9.017603365704037"><ele>65.0</ele><time>2026-05-01T08:08:59.001Z</time></trkpt><trkpt lat="45.19705295089536" lon="9.017489530257219"><ele>65.0</ele><time>2026-05-01T08:09:00.001Z</time></trkpt><trkpt lat="45.19681755663238" lon="9.017365775083956"><ele>65.0</ele><time>2026-05-01T08:09:01.001Z</time></trkpt><trkpt lat="45.19658394630886" lon="9.01723458693347"><ele>65.0</ele><time>2026-05-01T08:09:02.001Z</time></trkpt><trkpt lat="45.1963526864424" lon="9.017097936712124"><ele>65.0</ele><time>2026-05-01T08:09:03.001Z</time></trkpt><trkpt lat="45.19612199707906" lon="9.01695996740826"><ele>65.0</ele><time>2026-05-01T08:09:04.001Z</time></trkpt><trkpt lat="45.19589119068916" lon="9.016821110217736"><ele>65.0</ele><time>2026-05-01T08:09:05.001Z</time></trkpt><trkpt lat="45.19566239008088" lon="9.016684328959077"><ele>65.0</ele><time>2026-05-01T08:09:06.001Z</time></trkpt><trkpt lat="45.19543372644552" lon="9.016549056982134"><ele>65.0</ele><time>2026-05-01T08:09:07.001Z</time></trkpt><trkpt lat="45.19520429217974" lon="9.0164125927102"><ele>65.0</ele><time>2026-05-01T08:09:08.002Z</time></trkpt><trkpt lat="45.19497586731146" lon="9.01627405301702"><ele>65.0</ele><time>2026-05-01T08:09:09.002Z</time></trkpt><trkpt lat="45.19475075780672" lon="9.0161377636089"><ele>65.0</ele><time>2026-05-01T08:09:10.002Z</time></trkpt><trkpt lat="45.19452245269769" lon="9.016003665030592"><ele>65.0</ele><time>2026-05-01T08:09:11.002Z</time></trkpt><trkpt lat="45.1942950353398" lon="9.015868307885126"><ele>65.0</ele><time>2026-05-01T08:09:12.002Z</time></trkpt><trkpt lat="45.19407055346259" lon="9.015733335644295"><ele>65.0</ele><time>2026-05-01T08:09:13.002Z</time></trkpt><trkpt lat="45.19384245230468" lon="9.015598947120074"><ele>65.0</ele><time>2026-05-01T08:09:14.002Z</time></trkpt><trkpt lat="45.19361268249177" lon="9.015463138022106"><ele>65.0</ele><time>2026-05-01T08:09:15.002Z</time></trkpt><trkpt lat="45.19338408870291" lon="9.01532592919617"><ele>65.5</ele><time>2026-05-01T08:09:16.002Z</time></trkpt><trkpt lat="45.19315679623356" lon="9.015190925552162"><ele>66.0</ele><time>2026-05-01T08:09:17.002Z</time></trkpt><trkpt lat="45.192927984588074" lon="9.015056986443616"><ele>65.5</ele><time>2026-05-01T08:09:18.002Z</time></trkpt><trkpt lat="45.19270072682341" lon="9.014924752334887"><ele>65.0</ele><time>2026-05-01T08:09:19.002Z</time></trkpt><trkpt lat="45.192475496525226" lon="9.01479215741754"><ele>65.0</ele><time>2026-05-01T08:09:20.002Z</time></trkpt><trkpt lat="45.192247897474026" lon="9.014656617487676"><ele>65.0</ele><time>2026-05-01T08:09:21.002Z</time></trkpt><trkpt lat="45.192023024105694" lon="9.014523909369462"><ele>65.0</ele><time>2026-05-01T08:09:22.002Z</time></trkpt><trkpt lat="45.1917959381997" lon="9.014388260876872"><ele>65.0</ele><time>2026-05-01T08:09:23.002Z</time></trkpt><trkpt lat="45.19156759177871" lon="9.01425125168416"><ele>65.0</ele><time>2026-05-01T08:09:24.002Z</time></trkpt><trkpt lat="45.19133821343512" lon="9.014116614395563"><ele>65.0</ele><time>2026-05-01T08:09:25.002Z</time></trkpt><trkpt lat="45.191106905373026" lon="9.01398302899747"><ele>65.0</ele><time>2026-05-01T08:09:26.002Z</time></trkpt><trkpt lat="45.19087734281922" lon="9.0138448932872"><ele>65.0</ele><time>2026-05-01T08:09:27.002Z</time></trkpt><trkpt lat="45.19065091463489" lon="9.013706352858353"><ele>65.0</ele><time>2026-05-01T08:09:28.002Z</time></trkpt><trkpt lat="45.190424168908756" lon="9.013571348150737"><ele>65.0</ele><time>2026-05-01T08:09:29.002Z</time></trkpt><trkpt lat="45.1902006516874" lon="9.013437421583564"><ele>65.0</ele><time>2026-05-01T08:09:30.002Z</time></trkpt><trkpt lat="45.189975617132816" lon="9.01330105247414"><ele>65.0</ele><time>2026-05-01T08:09:31.002Z</time></trkpt><trkpt lat="45.18975334236365" lon="9.013167060130481"><ele>65.0</ele><time>2026-05-01T08:09:32.002Z</time></trkpt><trkpt lat="45.18952844378446" lon="9.013030397548844"><ele>65.0</ele><time>2026-05-01T08:09:33.002Z</time></trkpt><trkpt lat="45.18930341993349" lon="9.012896688459124"><ele>65.0</ele><time>2026-05-01T08:09:34.002Z</time></trkpt><trkpt lat="45.1890782896582" lon="9.012764492711755"><ele>65.0</ele><time>2026-05-01T08:09:35.002Z</time></trkpt><trkpt lat="45.18885032650281" lon="9.0126327148819"><ele>66.0</ele><time>2026-05-01T08:09:36.002Z</time></trkpt><trkpt lat="45.188627572795255" lon="9.01249837482098"><ele>67.0</ele><time>2026-05-01T08:09:37.002Z</time></trkpt><trkpt lat="45.18840399777989" lon="9.012361961855122"><ele>67.0</ele><time>2026-05-01T08:09:38.002Z</time></trkpt><trkpt lat="45.18818088008158" lon="9.012226894710215"><ele>67.0</ele><time>2026-05-01T08:09:39.002Z</time></trkpt><trkpt lat="45.187948577487894" lon="9.012085176895551"><ele>66.5</ele><time>2026-05-01T08:09:40.002Z</time></trkpt><trkpt lat="45.18772256513225" lon="9.011954456765771"><ele>66.0</ele><time>2026-05-01T08:09:41.001Z</time></trkpt><trkpt lat="45.18749757808678" lon="9.011824630862305"><ele>66.0</ele><time>2026-05-01T08:09:42.001Z</time></trkpt><trkpt lat="45.18727502338865" lon="9.011691697510049"><ele>66.0</ele><time>2026-05-01T08:09:43.001Z</time></trkpt><trkpt lat="45.18704939070921" lon="9.011558780890375"><ele>66.0</ele><time>2026-05-01T08:09:44.001Z</time></trkpt><trkpt lat="45.18682745671495" lon="9.011421797137716"><ele>66.0</ele><time>2026-05-01T08:09:45Z</time></trkpt><trkpt lat="45.186604099400064" lon="9.011286205557687"><ele>65.0</ele><time>2026-05-01T08:09:46.001Z</time></trkpt><trkpt lat="45.186379270642796" lon="9.011153054676509"><ele>64.0</ele><time>2026-05-01T08:09:47Z</time></trkpt><trkpt lat="45.18615375114712" lon="9.011019618320926"><ele>64.0</ele><time>2026-05-01T08:09:48Z</time></trkpt><trkpt lat="45.18592966905055" lon="9.010886535363907"><ele>64.0</ele><time>2026-05-01T08:09:49Z</time></trkpt><trkpt lat="45.18570504385368" lon="9.01075220687452"><ele>64.0</ele><time>2026-05-01T08:09:50Z</time></trkpt><trkpt lat="45.18548154721778" lon="9.010617123640404"><ele>64.0</ele><time>2026-05-01T08:09:51Z</time></trkpt><trkpt lat="45.18525819097273" lon="9.010483513327895"><ele>64.0</ele><time>2026-05-01T08:09:52Z</time></trkpt><trkpt lat="45.18503082572697" lon="9.010351056253683"><ele>64.0</ele><time>2026-05-01T08:09:53Z</time></trkpt><trkpt lat="45.18480906016917" lon="9.010214297873409"><ele>64.0</ele><time>2026-05-01T08:09:54Z</time></trkpt><trkpt lat="45.184584163820254" lon="9.01008056164376"><ele>64.0</ele><time>2026-05-01T08:09:55Z</time></trkpt><trkpt lat="45.18435334721801" lon="9.009949468414677"><ele>64.0</ele><time>2026-05-01T08:09:56Z</time></trkpt><trkpt lat="45.18412492049208" lon="9.00981508225082"><ele>64.0</ele><time>2026-05-01T08:09:57Z</time></trkpt><trkpt lat="45.18390103159404" lon="9.009679214022162"><ele>64.5</ele><time>2026-05-01T08:09:58Z</time></trkpt><trkpt lat="45.18367504256794" lon="9.009543705010467"><ele>65.0</ele><time>2026-05-01T08:09:59Z</time></trkpt><trkpt lat="45.183451134555504" lon="9.009412258174356"><ele>65.0</ele><time>2026-05-01T08:10:00Z</time></trkpt><trkpt lat="45.183225505485154" lon="9.00928376300888"><ele>65.0</ele><time>2026-05-01T08:10:01Z</time></trkpt><trkpt lat="45.18300284772496" lon="9.009151456992914"><ele>65.0</ele><time>2026-05-01T08:10:02Z</time></trkpt><trkpt lat="45.18278134493035" lon="9.009020284603459"><ele>65.0</ele><time>2026-05-01T08:10:03Z</time></trkpt><trkpt lat="45.18256238060464" lon="9.008886783737925"><ele>66.5</ele><time>2026-05-01T08:10:04Z</time></trkpt><trkpt lat="45.18234256351866" lon="9.008754577567103"><ele>68.0</ele><time>2026-05-01T08:10:05.001Z</time></trkpt><trkpt lat="45.18212448115188" lon="9.008622479562694"><ele>68.0</ele><time>2026-05-01T08:10:06.001Z</time></trkpt><trkpt lat="45.18190789124579" lon="9.008492635180437"><ele>68.0</ele><time>2026-05-01T08:10:07.001Z</time></trkpt><trkpt lat="45.18169253286494" lon="9.008364322551785"><ele>67.0</ele><time>2026-05-01T08:10:08.001Z</time></trkpt><trkpt lat="45.18147253568108" lon="9.00823617356574"><ele>66.0</ele><time>2026-05-01T08:10:09.001Z</time></trkpt><trkpt lat="45.18124958319157" lon="9.008104566010763"><ele>66.0</ele><time>2026-05-01T08:10:10.001Z</time></trkpt><trkpt lat="45.18102820678497" lon="9.007974840613093"><ele>66.0</ele><time>2026-05-01T08:10:11.001Z</time></trkpt><trkpt lat="45.18080581640975" lon="9.00784008336602"><ele>66.5</ele><time>2026-05-01T08:10:12.001Z</time></trkpt><trkpt lat="45.180580449049124" lon="9.007708243658833"><ele>67.0</ele><time>2026-05-01T08:10:13.001Z</time></trkpt><trkpt lat="45.18035260600109" lon="9.007573696806668"><ele>66.5</ele><time>2026-05-01T08:10:14.001Z</time></trkpt><trkpt lat="45.18012784487148" lon="9.0074379264287"><ele>66.0</ele><time>2026-05-01T08:10:15.001Z</time></trkpt><trkpt lat="45.17990175290748" lon="9.007299889058636"><ele>69.0</ele><time>2026-05-01T08:10:16.001Z</time></trkpt><trkpt lat="45.17967700602088" lon="9.007166039173883"><ele>72.0</ele><time>2026-05-01T08:10:17.001Z</time></trkpt><trkpt lat="45.179452956983006" lon="9.007032757260781"><ele>72.0</ele><time>2026-05-01T08:10:18.001Z</time></trkpt><trkpt lat="45.17923051635961" lon="9.006901760268523"><ele>72.0</ele><time>2026-05-01T08:10:19.001Z</time></trkpt><trkpt lat="45.17901238764987" lon="9.00676861903022"><ele>73.5</ele><time>2026-05-01T08:10:20.001Z</time></trkpt><trkpt lat="45.178794279650845" lon="9.0066359554916"><ele>75.0</ele><time>2026-05-01T08:10:21.001Z</time></trkpt><trkpt lat="45.1785737259893" lon="9.006504404616686"><ele>75.0</ele><time>2026-05-01T08:10:22.001Z</time></trkpt><trkpt lat="45.17835379392016" lon="9.00637381730312"><ele>75.0</ele><time>2026-05-01T08:10:23.001Z</time></trkpt><trkpt lat="45.178132607310815" lon="9.006242372675924"><ele>77.5</ele><time>2026-05-01T08:10:24.001Z</time></trkpt><trkpt lat="45.1779096331476" lon="9.006112553006748"><ele>80.0</ele><time>2026-05-01T08:10:25.001Z</time></trkpt><trkpt lat="45.17768842749626" lon="9.00597968144212"><ele>80.0</ele><time>2026-05-01T08:10:26.001Z</time></trkpt><trkpt lat="45.17746828746228" lon="9.005848824622811"><ele>80.0</ele><time>2026-05-01T08:10:27.001Z</time></trkpt><trkpt lat="45.17724972956951" lon="9.00572005805974"><ele>83.0</ele><time>2026-05-01T08:10:28.001Z</time></trkpt><trkpt lat="45.17703130104249" lon="9.005593207237908"><ele>86.0</ele><time>2026-05-01T08:10:29.001Z</time></trkpt><trkpt lat="45.17680965912519" lon="9.005470192119311"><ele>86.0</ele><time>2026-05-01T08:10:30.001Z</time></trkpt><trkpt lat="45.17658347362897" lon="9.005348274191476"><ele>86.0</ele><time>2026-05-01T08:10:31.001Z</time></trkpt><trkpt lat="45.17637153272773" lon="9.005230930148937"><ele>85.5</ele><time>2026-05-01T08:10:32.001Z</time></trkpt><trkpt lat="45.176152182721815" lon="9.005121473245046"><ele>85.0</ele><time>2026-05-01T08:10:33.001Z</time></trkpt><trkpt lat="45.175934468763685" lon="9.005016591066001"><ele>85.66666666666666</ele><time>2026-05-01T08:10:34.001Z</time></trkpt><trkpt lat="45.17572407389342" lon="9.004909288315105"><ele>86.33333333333333</ele><time>2026-05-01T08:10:35.001Z</time></trkpt><trkpt lat="45.17552773077499" lon="9.004811271512494"><ele>87.0</ele><time>2026-05-01T08:10:36.001Z</time></trkpt><trkpt lat="45.17533983469829" lon="9.00471709272155"><ele>87.0</ele><time>2026-05-01T08:10:37.001Z</time></trkpt><trkpt lat="45.175160347753845" lon="9.004628266952768"><ele>87.0</ele><time>2026-05-01T08:10:38.001Z</time></trkpt><trkpt lat="45.17498828835709" lon="9.004543703526489"><ele>87.0</ele><time>2026-05-01T08:10:39.001Z</time></trkpt><trkpt lat="45.174811625890264" lon="9.00445553097044"><ele>87.0</ele><time>2026-05-01T08:10:40.001Z</time></trkpt><trkpt lat="45.17463739786196" lon="9.004373534054361"><ele>87.0</ele><time>2026-05-01T08:10:41.001Z</time></trkpt><trkpt lat="45.17447137306453" lon="9.0042901222376"><ele>87.0</ele><time>2026-05-01T08:10:42.001Z</time></trkpt><trkpt lat="45.1743191704279" lon="9.004212510549147"><ele>87.0</ele><time>2026-05-01T08:10:43.001Z</time></trkpt><trkpt lat="45.17418378802324" lon="9.004144317987024"><ele>87.0</ele><time>2026-05-01T08:10:44.001Z</time></trkpt><trkpt lat="45.17404394356169" lon="9.004088472042552"><ele>87.0</ele><time>2026-05-01T08:10:45.001Z</time></trkpt><trkpt lat="45.17391119074519" lon="9.004009390955085"><ele>87.0</ele><time>2026-05-01T08:10:46.001Z</time></trkpt><trkpt lat="45.17379802793436" lon="9.003932910491335"><ele>87.0</ele><time>2026-05-01T08:10:47.001Z</time></trkpt><trkpt lat="45.17369611123027" lon="9.00384202264078"><ele>87.0</ele><time>2026-05-01T08:10:48.001Z</time></trkpt><trkpt lat="45.17362312795137" lon="9.003727071137337"><ele>87.0</ele><time>2026-05-01T08:10:49.001Z</time></trkpt><trkpt lat="45.173580441739794" lon="9.003596404535985"><ele>87.0</ele><time>2026-05-01T08:10:50.001Z</time></trkpt><trkpt lat="45.17355812102745" lon="9.003450050460565"><ele>87.0</ele><time>2026-05-01T08:10:51.001Z</time></trkpt><trkpt lat="45.173542032335355" lon="9.003297846082347"><ele>86.8</ele><time>2026-05-01T08:10:52.001Z</time></trkpt><trkpt lat="45.17358796116762" lon="9.003139456612848"><ele>86.6</ele><time>2026-05-01T08:10:53.001Z</time></trkpt><trkpt lat="45.17365057554064" lon="9.003012602314527"><ele>86.39999999999999</ele><time>2026-05-01T08:10:54.001Z</time></trkpt><trkpt lat="45.17374119145927" lon="9.002939136008527"><ele>86.19999999999999</ele><time>2026-05-01T08:10:55.001Z</time></trkpt><trkpt lat="45.173831341462275" lon="9.002857610368288"><ele>86.0</ele><time>2026-05-01T08:10:56.001Z</time></trkpt><trkpt lat="45.17394168568777" lon="9.002829293994731"><ele>86.6</ele><time>2026-05-01T08:10:57.001Z</time></trkpt><trkpt lat="45.17405002503959" lon="9.00285600481348"><ele>87.19999999999999</ele><time>2026-05-01T08:10:58.001Z</time></trkpt><trkpt lat="45.17415476504863" lon="9.002895377817625"><ele>87.80000000000001</ele><time>2026-05-01T08:10:59.001Z</time></trkpt><trkpt lat="45.17425261209206" lon="9.0029725845365"><ele>88.4</ele><time>2026-05-01T08:11:00.001Z</time></trkpt><trkpt lat="45.174334527782364" lon="9.003084676021713"><ele>89.0</ele><time>2026-05-01T08:11:01.001Z</time></trkpt><trkpt lat="45.17440578105936" lon="9.00321626975805"><ele>89.0</ele><time>2026-05-01T08:11:02.001Z</time></trkpt><trkpt lat="45.17445729620554" lon="9.003360441222906"><ele>89.0</ele><time>2026-05-01T08:11:03.001Z</time></trkpt><trkpt lat="45.17449215066302" lon="9.003520131137169"><ele>89.0</ele><time>2026-05-01T08:11:04.001Z</time></trkpt><trkpt lat="45.17450512594706" lon="9.003685493621665"><ele>89.0</ele><time>2026-05-01T08:11:05.001Z</time></trkpt><trkpt lat="45.174495869486144" lon="9.003856967148488"><ele>89.0</ele><time>2026-05-01T08:11:06.001Z</time></trkpt><trkpt lat="45.174466364003614" lon="9.004024970668235"><ele>89.0</ele><time>2026-05-01T08:11:07.001Z</time></trkpt><trkpt lat="45.17442693585701" lon="9.004185962563081"><ele>89.0</ele><time>2026-05-01T08:11:08.001Z</time></trkpt><trkpt lat="45.17438534069931" lon="9.004348445638758"><ele>89.0</ele><time>2026-05-01T08:11:09.001Z</time></trkpt><trkpt lat="45.17434652574442" lon="9.004509814588573"><ele>89.0</ele><time>2026-05-01T08:11:10.001Z</time></trkpt><trkpt lat="45.1743090951159" lon="9.00467243008137"><ele>89.0</ele><time>2026-05-01T08:11:11.001Z</time></trkpt><trkpt lat="45.17426362914948" lon="9.004825612438658"><ele>89.0</ele><time>2026-05-01T08:11:12.001Z</time></trkpt><trkpt lat="45.1742139430202" lon="9.004964536121886"><ele>89.0</ele><time>2026-05-01T08:11:13.001Z</time></trkpt><trkpt lat="45.174165856186846" lon="9.005120366295722"><ele>89.0</ele><time>2026-05-01T08:11:14.001Z</time></trkpt><trkpt lat="45.1740865873314" lon="9.005252986961313"><ele>89.0</ele><time>2026-05-01T08:11:15.001Z</time></trkpt><trkpt lat="45.17399618378702" lon="9.005365386110755"><ele>89.0</ele><time>2026-05-01T08:11:16.002Z</time></trkpt><trkpt lat="45.173893129040145" lon="9.005460549222867"><ele>89.0</ele><time>2026-05-01T08:11:17.002Z</time></trkpt><trkpt lat="45.173772943702296" lon="9.005542459741887"><ele>88.25</ele><time>2026-05-01T08:11:18.002Z</time></trkpt><trkpt lat="45.17364524261937" lon="9.00560389336863"><ele>87.5</ele><time>2026-05-01T08:11:19.002Z</time></trkpt><trkpt lat="45.17351979849159" lon="9.00564547802135"><ele>86.75</ele><time>2026-05-01T08:11:20.002Z</time></trkpt><trkpt lat="45.17340419287723" lon="9.00567201427795"><ele>86.0</ele><time>2026-05-01T08:11:21.002Z</time></trkpt><trkpt lat="45.173295722904555" lon="9.005687859622366"><ele>86.0</ele><time>2026-05-01T08:11:22.002Z</time></trkpt><trkpt lat="45.173193754764085" lon="9.005685639628583"><ele>86.0</ele><time>2026-05-01T08:11:23.002Z</time></trkpt><trkpt lat="45.17309730455513" lon="9.005656623337565"><ele>86.0</ele><time>2026-05-01T08:11:24.002Z</time></trkpt><trkpt lat="45.173000805566176" lon="9.005603997927832"><ele>86.0</ele><time>2026-05-01T08:11:25.002Z</time></trkpt><trkpt lat="45.17290567103389" lon="9.00553583702261"><ele>86.0</ele><time>2026-05-01T08:11:26.002Z</time></trkpt><trkpt lat="45.172808539547844" lon="9.005450932286898"><ele>85.8</ele><time>2026-05-01T08:11:27.002Z</time></trkpt><trkpt lat="45.17271197926238" lon="9.00535473428117"><ele>85.6</ele><time>2026-05-01T08:11:28.002Z</time></trkpt><trkpt lat="45.17261981922863" lon="9.005260448665972"><ele>85.4</ele><time>2026-05-01T08:11:29.002Z</time></trkpt><trkpt lat="45.1725291632856" lon="9.005169313134619"><ele>85.2</ele><time>2026-05-01T08:11:30.002Z</time></trkpt><trkpt lat="45.17244135915203" lon="9.005083173780402"><ele>85.0</ele><time>2026-05-01T08:11:31.002Z</time></trkpt><trkpt lat="45.17235677556173" lon="9.005006165335153"><ele>85.16666666666666</ele><time>2026-05-01T08:11:32.002Z</time></trkpt><trkpt lat="45.17228343606267" lon="9.004927449584402"><ele>85.33333333333333</ele><time>2026-05-01T08:11:33.002Z</time></trkpt><trkpt lat="45.172221500171304" lon="9.004857290977556"><ele>85.5</ele><time>2026-05-01T08:11:34.002Z</time></trkpt><trkpt lat="45.172166333328384" lon="9.004797853531215"><ele>85.66666666666667</ele><time>2026-05-01T08:11:35.002Z</time></trkpt><trkpt lat="45.17210486984706" lon="9.004730786254694"><ele>85.83333333333334</ele><time>2026-05-01T08:11:36.002Z</time></trkpt><trkpt lat="45.17204081392012" lon="9.00466480200295"><ele>86.0</ele><time>2026-05-01T08:11:37.002Z</time></trkpt><trkpt lat="45.17197121968223" lon="9.004596899655333"><ele>86.00000000000001</ele><time>2026-05-01T08:11:38.002Z</time></trkpt><trkpt lat="45.17190472701074" lon="9.004522839026762"><ele>86.0</ele><time>2026-05-01T08:11:39.002Z</time></trkpt><trkpt lat="45.171847060465545" lon="9.004461789027296"><ele>86.0</ele><time>2026-05-01T08:11:40.002Z</time></trkpt><trkpt lat="45.17178833655443" lon="9.004400310286968"><ele>86.0</ele><time>2026-05-01T08:11:41.002Z</time></trkpt><trkpt lat="45.171722199569004" lon="9.004358101673823"><ele>86.0</ele><time>2026-05-01T08:11:42.002Z</time></trkpt><trkpt lat="45.17166025612338" lon="9.004312046111014"><ele>86.00000000000001</ele><time>2026-05-01T08:11:43.002Z</time></trkpt><trkpt lat="45.1716009177697" lon="9.004270562027765"><ele>86.0</ele><time>2026-05-01T08:11:44.002Z</time></trkpt><trkpt lat="45.171566158778056" lon="9.004170163193216"><ele>85.8</ele><time>2026-05-01T08:11:45.002Z</time></trkpt><trkpt lat="45.17148061661593" lon="9.004062966272231"><ele>85.6</ele><time>2026-05-01T08:11:47Z</time></trkpt><trkpt lat="45.1713977481901" lon="9.003985688284768"><ele>85.4</ele><time>2026-05-01T08:11:49Z</time></trkpt><trkpt lat="45.17136179913905" lon="9.003881634833093"><ele>85.2</ele><time>2026-05-01T08:11:51Z</time></trkpt><trkpt lat="45.171331404887475" lon="9.00379391289651"><ele>85.0</ele><time>2026-05-01T08:11:53Z</time></trkpt><trkpt lat="45.17121850267619" lon="9.003806008269239"><ele>85.0</ele><time>2026-05-01T08:11:54Z</time></trkpt><trkpt lat="45.17111361391802" lon="9.003814639843988"><ele>85.0</ele><time>2026-05-01T08:11:56Z</time></trkpt><trkpt lat="45.17102270650875" lon="9.003840254495264"><ele>85.0</ele><time>2026-05-01T08:11:58Z</time></trkpt><trkpt lat="45.170983500185464" lon="9.003949347186689"><ele>85.0</ele><time>2026-05-01T08:12:00Z</time></trkpt><trkpt lat="45.170862100374215" lon="9.003850724652926"><ele>85.0</ele><time>2026-05-01T08:12:02Z</time></trkpt></trkseg><trkseg><trkpt lat="45.17086822992881" lon="9.00385336825095"><ele>85.0</ele><time>2026-05-01T08:26:08.999Z</time></trkpt><trkpt lat="45.1709558495252" lon="9.003891157553042"><ele>85.0</ele><time>2026-05-01T08:26:11.999Z</time></trkpt><trkpt lat="45.17103482001666" lon="9.00392521665717"><ele>85.0</ele><time>2026-05-01T08:26:13.999Z</time></trkpt><trkpt lat="45.171040928500624" lon="9.004085579055548"><ele>85.0</ele><time>2026-05-01T08:26:14.999Z</time></trkpt><trkpt lat="45.171056155054615" lon="9.004180258416834"><ele>85.0</ele><time>2026-05-01T08:26:15.999Z</time></trkpt><trkpt lat="45.171040741706335" lon="9.00428678754815"><ele>85.0</ele><time>2026-05-01T08:26:16.999Z</time></trkpt><trkpt lat="45.17101022391128" lon="9.004373603314969"><ele>85.0</ele><time>2026-05-01T08:26:17.999Z</time></trkpt><trkpt lat="45.170971848515855" lon="9.004472403585305"><ele>85.0</ele><time>2026-05-01T08:26:18.999Z</time></trkpt><trkpt lat="45.17092536202373" lon="9.004573810842894"><ele>85.0</ele><time>2026-05-01T08:26:19.999Z</time></trkpt><trkpt lat="45.17087339551533" lon="9.004674685539323"><ele>85.0</ele><time>2026-05-01T08:26:20.999Z</time></trkpt><trkpt lat="45.170815635643166" lon="9.00477818938768"><ele>85.0</ele><time>2026-05-01T08:26:21.999Z</time></trkpt><trkpt lat="45.17075606299117" lon="9.004890942552722"><ele>85.0</ele><time>2026-05-01T08:26:22.999Z</time></trkpt><trkpt lat="45.17069709224644" lon="9.005008555627315"><ele>84.4</ele><time>2026-05-01T08:26:23.999Z</time></trkpt><trkpt lat="45.17063540460972" lon="9.005128811914886"><ele>83.8</ele><time>2026-05-01T08:26:24.999Z</time></trkpt><trkpt lat="45.170574193436906" lon="9.005252462379241"><ele>83.19999999999999</ele><time>2026-05-01T08:26:25.999Z</time></trkpt><trkpt lat="45.170510982774495" lon="9.005377148575771"><ele>82.6</ele><time>2026-05-01T08:26:26.999Z</time></trkpt><trkpt lat="45.170450692111814" lon="9.005498220034145"><ele>82.0</ele><time>2026-05-01T08:26:27.999Z</time></trkpt><trkpt lat="45.17040372430405" lon="9.005596833432067"><ele>82.0</ele><time>2026-05-01T08:26:28.999Z</time></trkpt><trkpt lat="45.17034211551872" lon="9.005712058161508"><ele>82.0</ele><time>2026-05-01T08:26:29.999Z</time></trkpt><trkpt lat="45.170281910151594" lon="9.005831122715279"><ele>82.0</ele><time>2026-05-01T08:26:30.999Z</time></trkpt><trkpt lat="45.17022363176695" lon="9.005957778656148"><ele>82.0</ele><time>2026-05-01T08:26:31.999Z</time></trkpt><trkpt lat="45.170159209497946" lon="9.006076603872938"><ele>82.0</ele><time>2026-05-01T08:26:32.999Z</time></trkpt><trkpt lat="45.170089462153314" lon="9.00619716848442"><ele>82.39999999999999</ele><time>2026-05-01T08:26:33.999Z</time></trkpt><trkpt lat="45.17002654828081" lon="9.006325424168908"><ele>82.8</ele><time>2026-05-01T08:26:34.999Z</time></trkpt><trkpt lat="45.16997233206705" lon="9.006470360510146"><ele>83.2</ele><time>2026-05-01T08:26:35.999Z</time></trkpt><trkpt lat="45.169910820190324" lon="9.006616545728868"><ele>83.6</ele><time>2026-05-01T08:26:36.999Z</time></trkpt><trkpt lat="45.16984601737659" lon="9.006725879147131"><ele>84.0</ele><time>2026-05-01T08:26:37.999Z</time></trkpt><trkpt lat="45.16978504150519" lon="9.006850550771489"><ele>84.0</ele><time>2026-05-01T08:26:38.999Z</time></trkpt><trkpt lat="45.16972002882807" lon="9.00698228291864"><ele>84.0</ele><time>2026-05-01T08:26:39.999Z</time></trkpt><trkpt lat="45.16965481922828" lon="9.00711586661811"><ele>84.0</ele><time>2026-05-01T08:26:40.999Z</time></trkpt><trkpt lat="45.169591994211586" lon="9.007254830933912"><ele>84.0</ele><time>2026-05-01T08:26:41.999Z</time></trkpt><trkpt lat="45.16952901947658" lon="9.007387179617718"><ele>84.25</ele><time>2026-05-01T08:26:42.999Z</time></trkpt><trkpt lat="45.169461996069984" lon="9.007520116785441"><ele>84.5</ele><time>2026-05-01T08:26:43.999Z</time></trkpt><trkpt lat="45.169392955240156" lon="9.007652509198099"><ele>84.75</ele><time>2026-05-01T08:26:44.999Z</time></trkpt><trkpt lat="45.16933127720458" lon="9.007790757540594"><ele>85.0</ele><time>2026-05-01T08:26:45.999Z</time></trkpt><trkpt lat="45.1692662179762" lon="9.007923020026162"><ele>85.0</ele><time>2026-05-01T08:26:46.999Z</time></trkpt><trkpt lat="45.16920073278994" lon="9.008056289175805"><ele>85.0</ele><time>2026-05-01T08:26:47.999Z</time></trkpt><trkpt lat="45.169133428549486" lon="9.00819193130448"><ele>85.0</ele><time>2026-05-01T08:26:48.999Z</time></trkpt><trkpt lat="45.16906764888753" lon="9.008328547833719"><ele>85.0</ele><time>2026-05-01T08:26:49.999Z</time></trkpt><trkpt lat="45.16900433820196" lon="9.008457824766882"><ele>84.75</ele><time>2026-05-01T08:26:50.999Z</time></trkpt><trkpt lat="45.16893816244373" lon="9.008600932656682"><ele>84.5</ele><time>2026-05-01T08:26:51.999Z</time></trkpt><trkpt lat="45.16886933455582" lon="9.008744064239105"><ele>84.25</ele><time>2026-05-01T08:26:52.999Z</time></trkpt><trkpt lat="45.16879703850029" lon="9.008890560655994"><ele>84.0</ele><time>2026-05-01T08:26:53.999Z</time></trkpt><trkpt lat="45.16872112066236" lon="9.009040745659675"><ele>84.0</ele><time>2026-05-01T08:26:54.999Z</time></trkpt><trkpt lat="45.16864769025878" lon="9.009192210811122"><ele>84.0</ele><time>2026-05-01T08:26:55.999Z</time></trkpt><trkpt lat="45.16857439701604" lon="9.009349526408796"><ele>84.0</ele><time>2026-05-01T08:26:56.999Z</time></trkpt><trkpt lat="45.16849753542065" lon="9.009509105773438"><ele>84.0</ele><time>2026-05-01T08:26:57.999Z</time></trkpt><trkpt lat="45.16841633859741" lon="9.009674952979685"><ele>84.0</ele><time>2026-05-01T08:26:58.999Z</time></trkpt><trkpt lat="45.16833210687752" lon="9.009842756958617"><ele>84.0</ele><time>2026-05-01T08:26:59.999Z</time></trkpt><trkpt lat="45.16824645893919" lon="9.010015205308703"><ele>84.0</ele><time>2026-05-01T08:27:00.999Z</time></trkpt><trkpt lat="45.16816044581724" lon="9.010192367757913"><ele>84.0</ele><time>2026-05-01T08:27:01.999Z</time></trkpt><trkpt lat="45.16807519347049" lon="9.010362406032746"><ele>84.25</ele><time>2026-05-01T08:27:02.999Z</time></trkpt><trkpt lat="45.167999277770406" lon="9.010533934981174"><ele>84.5</ele><time>2026-05-01T08:27:03.999Z</time></trkpt><trkpt lat="45.16791431298146" lon="9.01069437015443"><ele>84.75</ele><time>2026-05-01T08:27:04.999Z</time></trkpt><trkpt lat="45.16783057336903" lon="9.010866022163503"><ele>85.0</ele><time>2026-05-01T08:27:05.999Z</time></trkpt><trkpt lat="45.16774749930606" lon="9.011037189432788"><ele>84.25</ele><time>2026-05-01T08:27:06.999Z</time></trkpt><trkpt lat="45.16767045027445" lon="9.01121282036141"><ele>83.5</ele><time>2026-05-01T08:27:07.999Z</time></trkpt><trkpt lat="45.16758434032135" lon="9.011379527594457"><ele>82.75</ele><time>2026-05-01T08:27:08.999Z</time></trkpt><trkpt lat="45.167502483898375" lon="9.011546905582518"><ele>82.0</ele><time>2026-05-01T08:27:09.999Z</time></trkpt><trkpt lat="45.16742311701752" lon="9.011708335792424"><ele>82.25</ele><time>2026-05-01T08:27:10.999Z</time></trkpt><trkpt lat="45.16734666297419" lon="9.011861471771162"><ele>82.5</ele><time>2026-05-01T08:27:11.999Z</time></trkpt><trkpt lat="45.16727366030235" lon="9.01201081099745"><ele>82.75</ele><time>2026-05-01T08:27:12.999Z</time></trkpt><trkpt lat="45.167202001839655" lon="9.012154406567596"><ele>83.0</ele><time>2026-05-01T08:27:13.999Z</time></trkpt><trkpt lat="45.16713332622164" lon="9.012289615903983"><ele>83.0</ele><time>2026-05-01T08:27:14.999Z</time></trkpt><trkpt lat="45.1670656397636" lon="9.0124128214047"><ele>83.0</ele><time>2026-05-01T08:27:15.999Z</time></trkpt><trkpt lat="45.16699791352351" lon="9.012508873447327"><ele>83.0</ele><time>2026-05-01T08:27:16.999Z</time></trkpt><trkpt lat="45.16692737852421" lon="9.012575547047106"><ele>83.0</ele><time>2026-05-01T08:27:17.999Z</time></trkpt><trkpt lat="45.16685720236734" lon="9.012614335145853"><ele>83.0</ele><time>2026-05-01T08:27:18.999Z</time></trkpt><trkpt lat="45.16678832857171" lon="9.012615292776838"><ele>83.0</ele><time>2026-05-01T08:27:19.999Z</time></trkpt><trkpt lat="45.16672163443399" lon="9.012590270234636"><ele>83.0</ele><time>2026-05-01T08:27:20.999Z</time></trkpt><trkpt lat="45.166630580201044" lon="9.012477677547864"><ele>83.0</ele><time>2026-05-01T08:27:22.999Z</time></trkpt><trkpt lat="45.166654266375176" lon="9.012248072499524"><ele>83.0</ele><time>2026-05-01T08:27:24.999Z</time></trkpt><trkpt lat="45.16667785756621" lon="9.012117119893992"><ele>83.0</ele><time>2026-05-01T08:27:25.999Z</time></trkpt><trkpt lat="45.166712302912" lon="9.011977401433679"><ele>83.0</ele><time>2026-05-01T08:27:26.999Z</time></trkpt><trkpt lat="45.16675101184491" lon="9.01182384971358"><ele>83.0</ele><time>2026-05-01T08:27:27.999Z</time></trkpt><trkpt lat="45.16679160426096" lon="9.011669156114976"><ele>83.0</ele><time>2026-05-01T08:27:28.999Z</time></trkpt><trkpt lat="45.166838687298586" lon="9.011506506666132"><ele>83.0</ele><time>2026-05-01T08:27:29.999Z</time></trkpt><trkpt lat="45.166886763355386" lon="9.011336531317642"><ele>83.0</ele><time>2026-05-01T08:27:30.999Z</time></trkpt><trkpt lat="45.166934556312526" lon="9.01115545952543"><ele>83.0</ele><time>2026-05-01T08:27:31.999Z</time></trkpt><trkpt lat="45.16698337775192" lon="9.0109713196056"><ele>83.0</ele><time>2026-05-01T08:27:32.999Z</time></trkpt><trkpt lat="45.16703276840021" lon="9.010797086777277"><ele>83.0</ele><time>2026-05-01T08:27:33.999Z</time></trkpt><trkpt lat="45.16708198071719" lon="9.010626823586502"><ele>83.25</ele><time>2026-05-01T08:27:34.999Z</time></trkpt><trkpt lat="45.167132783290114" lon="9.010453402113749"><ele>83.5</ele><time>2026-05-01T08:27:35.999Z</time></trkpt><trkpt lat="45.167184586670245" lon="9.010278812058656"><ele>83.75</ele><time>2026-05-01T08:27:36.999Z</time></trkpt><trkpt lat="45.1672352145316" lon="9.010094557046198"><ele>84.0</ele><time>2026-05-01T08:27:37.999Z</time></trkpt><trkpt lat="45.16728143204824" lon="9.009912953635716"><ele>83.5</ele><time>2026-05-01T08:27:38.999Z</time></trkpt><trkpt lat="45.16732910262868" lon="9.009731311772446"><ele>83.0</ele><time>2026-05-01T08:27:39.999Z</time></trkpt><trkpt lat="45.167384730086425" lon="9.009562590751731"><ele>82.5</ele><time>2026-05-01T08:27:40.999Z</time></trkpt><trkpt lat="45.167414546679844" lon="9.00936643827537"><ele>82.0</ele><time>2026-05-01T08:27:41.999Z</time></trkpt><trkpt lat="45.167436873698904" lon="9.009168362268431"><ele>83.25</ele><time>2026-05-01T08:27:42.999Z</time></trkpt><trkpt lat="45.16747206586751" lon="9.008983309010091"><ele>84.5</ele><time>2026-05-01T08:27:43.999Z</time></trkpt><trkpt lat="45.167493585381514" lon="9.008788600213085"><ele>85.75</ele><time>2026-05-01T08:27:44.999Z</time></trkpt><trkpt lat="45.16751311130577" lon="9.008590163887277"><ele>87.0</ele><time>2026-05-01T08:27:45.999Z</time></trkpt><trkpt lat="45.16752624466473" lon="9.008389144232407"><ele>87.0</ele><time>2026-05-01T08:27:46.999Z</time></trkpt><trkpt lat="45.16753486269382" lon="9.008184678297836"><ele>87.0</ele><time>2026-05-01T08:27:47.999Z</time></trkpt><trkpt lat="45.167534912768716" lon="9.00798276346118"><ele>87.0</ele><time>2026-05-01T08:27:48.999Z</time></trkpt><trkpt lat="45.167532958404585" lon="9.007791005774065"><ele>87.0</ele><time>2026-05-01T08:27:49.999Z</time></trkpt><trkpt lat="45.16753166740685" lon="9.00758656704988"><ele>86.75</ele><time>2026-05-01T08:27:50.999Z</time></trkpt><trkpt lat="45.1675309719174" lon="9.007386006746435"><ele>86.5</ele><time>2026-05-01T08:27:51.999Z</time></trkpt><trkpt lat="45.16752937037311" lon="9.00718165315777"><ele>86.25</ele><time>2026-05-01T08:27:52.999Z</time></trkpt><trkpt lat="45.16752558523794" lon="9.00698055390444"><ele>86.0</ele><time>2026-05-01T08:27:53.999Z</time></trkpt><trkpt lat="45.16752255511552" lon="9.006777997608708"><ele>85.75</ele><time>2026-05-01T08:27:54.999Z</time></trkpt><trkpt lat="45.16752039590344" lon="9.006578096311186"><ele>85.5</ele><time>2026-05-01T08:27:55.999Z</time></trkpt><trkpt lat="45.1675234966467" lon="9.00637195028174"><ele>85.25</ele><time>2026-05-01T08:27:56.999Z</time></trkpt><trkpt lat="45.167525794709256" lon="9.006159154797528"><ele>85.0</ele><time>2026-05-01T08:27:57.999Z</time></trkpt><trkpt lat="45.16752345716495" lon="9.005939568684415"><ele>84.66666666666666</ele><time>2026-05-01T08:27:58.999Z</time></trkpt><trkpt lat="45.16752253838966" lon="9.005722570054896"><ele>84.33333333333333</ele><time>2026-05-01T08:27:59.999Z</time></trkpt><trkpt lat="45.16752165925979" lon="9.005510283408682"><ele>84.0</ele><time>2026-05-01T08:28:00.999Z</time></trkpt><trkpt lat="45.16751757041682" lon="9.00529460769378"><ele>84.0</ele><time>2026-05-01T08:28:01.999Z</time></trkpt><trkpt lat="45.16751887491743" lon="9.005077978686774"><ele>84.0</ele><time>2026-05-01T08:28:02.999Z</time></trkpt><trkpt lat="45.16751871056901" lon="9.004863399787254"><ele>84.0</ele><time>2026-05-01T08:28:03.999Z</time></trkpt><trkpt lat="45.16751605005583" lon="9.00466217198781"><ele>84.0</ele><time>2026-05-01T08:28:04.999Z</time></trkpt><trkpt lat="45.16751325177645" lon="9.00445227675171"><ele>84.0</ele><time>2026-05-01T08:28:05.999Z</time></trkpt><trkpt lat="45.1675192110616" lon="9.004251998298264"><ele>84.0</ele><time>2026-05-01T08:28:06.999Z</time></trkpt><trkpt lat="45.16751800952791" lon="9.00404016219771"><ele>84.0</ele><time>2026-05-01T08:28:07.999Z</time></trkpt><trkpt lat="45.16751670129663" lon="9.003833264537853"><ele>84.0</ele><time>2026-05-01T08:28:08.999Z</time></trkpt><trkpt lat="45.167514553994586" lon="9.003625041102657"><ele>84.25</ele><time>2026-05-01T08:28:09.999Z</time></trkpt><trkpt lat="45.16751118945086" lon="9.003420547008568"><ele>84.5</ele><time>2026-05-01T08:28:10.999Z</time></trkpt><trkpt lat="45.16750789703079" lon="9.003212604228562"><ele>84.75</ele><time>2026-05-01T08:28:11.999Z</time></trkpt><trkpt lat="45.16750624391311" lon="9.002995060611823"><ele>85.0</ele><time>2026-05-01T08:28:12.999Z</time></trkpt><trkpt lat="45.16750483854118" lon="9.00278202747607"><ele>85.0</ele><time>2026-05-01T08:28:13.999Z</time></trkpt><trkpt lat="45.167503604874106" lon="9.002564136273424"><ele>85.0</ele><time>2026-05-01T08:28:14.999Z</time></trkpt><trkpt lat="45.16749918930803" lon="9.00234844359696"><ele>85.0</ele><time>2026-05-01T08:28:15.999Z</time></trkpt><trkpt lat="45.16749707732539" lon="9.0021316668089"><ele>85.0</ele><time>2026-05-01T08:28:16.999Z</time></trkpt><trkpt lat="45.16749581976173" lon="9.00191385124455"><ele>85.0</ele><time>2026-05-01T08:28:17.999Z</time></trkpt><trkpt lat="45.16749795475324" lon="9.001698467008412"><ele>85.0</ele><time>2026-05-01T08:28:18.999Z</time></trkpt><trkpt lat="45.167496631541844" lon="9.001496536989745"><ele>85.0</ele><time>2026-05-01T08:28:19.999Z</time></trkpt><trkpt lat="45.167498162216944" lon="9.001294816971281"><ele>85.0</ele><time>2026-05-01T08:28:20.999Z</time></trkpt><trkpt lat="45.167499216014505" lon="9.001111658720484"><ele>85.0</ele><time>2026-05-01T08:28:21.999Z</time></trkpt><trkpt lat="45.167509055353925" lon="9.000909403280938"><ele>85.0</ele><time>2026-05-01T08:28:22.999Z</time></trkpt><trkpt lat="45.16751507447451" lon="9.000715215946732"><ele>85.0</ele><time>2026-05-01T08:28:23.999Z</time></trkpt><trkpt lat="45.1675036621266" lon="9.00050984434856"><ele>84.66666666666666</ele><time>2026-05-01T08:28:24.999Z</time></trkpt><trkpt lat="45.16748963349052" lon="9.000223808378657"><ele>84.33333333333333</ele><time>2026-05-01T08:28:25.999Z</time></trkpt><trkpt lat="45.16749110184948" lon="8.999989657747177"><ele>84.0</ele><time>2026-05-01T08:28:26.999Z</time></trkpt><trkpt lat="45.167489160989554" lon="8.999758685237989"><ele>84.0</ele><time>2026-05-01T08:28:27.999Z</time></trkpt><trkpt lat="45.16748582842153" lon="8.999517947440578"><ele>84.0</ele><time>2026-05-01T08:28:28.999Z</time></trkpt><trkpt lat="45.16748104141217" lon="8.999286559165585"><ele>84.0</ele><time>2026-05-01T08:28:29.999Z</time></trkpt><trkpt lat="45.16747894403708" lon="8.999046916243822"><ele>84.33333333333333</ele><time>2026-05-01T08:28:30.999Z</time></trkpt><trkpt lat="45.16747850928057" lon="8.998805457647991"><ele>84.66666666666666</ele><time>2026-05-01T08:28:31.999Z</time></trkpt><trkpt lat="45.167477559645896" lon="8.99856152014475"><ele>85.0</ele><time>2026-05-01T08:28:32.999Z</time></trkpt><trkpt lat="45.167476177860976" lon="8.998322234304629"><ele>85.0</ele><time>2026-05-01T08:28:33.999Z</time></trkpt><trkpt lat="45.167474119362" lon="8.998077267072826"><ele>85.0</ele><time>2026-05-01T08:28:34.997Z</time></trkpt><trkpt lat="45.167472913291306" lon="8.997828720698188"><ele>85.0</ele><time>2026-05-01T08:28:35.997Z</time></trkpt><trkpt lat="45.167470977381484" lon="8.997578743590072"><ele>85.0</ele><time>2026-05-01T08:28:36.997Z</time></trkpt><trkpt lat="45.16746859504779" lon="8.997334747553843"><ele>85.0</ele><time>2026-05-01T08:28:37.997Z</time></trkpt><trkpt lat="45.16746424759591" lon="8.997102993417997"><ele>85.0</ele><time>2026-05-01T08:28:38.998Z</time></trkpt><trkpt lat="45.16746075361773" lon="8.996867741422909"><ele>85.0</ele><time>2026-05-01T08:28:39.998Z</time></trkpt><trkpt lat="45.16746033416485" lon="8.996630289405875"><ele>85.0</ele><time>2026-05-01T08:28:40.998Z</time></trkpt><trkpt lat="45.167458921444876" lon="8.996401870793333"><ele>85.0</ele><time>2026-05-01T08:28:41.998Z</time></trkpt><trkpt lat="45.16745978121871" lon="8.996176187402122"><ele>85.0</ele><time>2026-05-01T08:28:42.998Z</time></trkpt><trkpt lat="45.16745461384195" lon="8.995721584368754"><ele>85.0</ele><time>2026-05-01T08:28:44.998Z</time></trkpt><trkpt lat="45.1674566990004" lon="8.995506915214643"><ele>85.0</ele><time>2026-05-01T08:28:45.998Z</time></trkpt><trkpt lat="45.16745487595669" lon="8.995292692363144"><ele>85.0</ele><time>2026-05-01T08:28:46.998Z</time></trkpt><trkpt lat="45.16745221624164" lon="8.995079129421004"><ele>85.0</ele><time>2026-05-01T08:28:47.998Z</time></trkpt><trkpt lat="45.167449023750954" lon="8.994862087218953"><ele>85.66666666666666</ele><time>2026-05-01T08:28:48.998Z</time></trkpt><trkpt lat="45.16744452826809" lon="8.99464332934004"><ele>86.33333333333333</ele><time>2026-05-01T08:28:49.998Z</time></trkpt><trkpt lat="45.167447777877456" lon="8.994421832881532"><ele>87.0</ele><time>2026-05-01T08:28:50.998Z</time></trkpt><trkpt lat="45.16744198989782" lon="8.99419662841388"><ele>87.33333333333333</ele><time>2026-05-01T08:28:51.998Z</time></trkpt><trkpt lat="45.16744044947897" lon="8.993973560628465"><ele>87.66666666666666</ele><time>2026-05-01T08:28:52.998Z</time></trkpt><trkpt lat="45.167439097369304" lon="8.993756103530815"><ele>88.0</ele><time>2026-05-01T08:28:53.998Z</time></trkpt><trkpt lat="45.16744165696613" lon="8.993551177473105"><ele>88.0</ele><time>2026-05-01T08:28:54.998Z</time></trkpt><trkpt lat="45.1674415736972" lon="8.993347108748491"><ele>88.0</ele><time>2026-05-01T08:28:55.998Z</time></trkpt><trkpt lat="45.16744200391983" lon="8.993141285643725"><ele>88.0</ele><time>2026-05-01T08:28:56.998Z</time></trkpt><trkpt lat="45.16744233053109" lon="8.992929324377197"><ele>88.0</ele><time>2026-05-01T08:28:57.998Z</time></trkpt><trkpt lat="45.16744380482759" lon="8.992731657935977"><ele>87.25</ele><time>2026-05-01T08:28:58.998Z</time></trkpt><trkpt lat="45.16744242400077" lon="8.992551512451467"><ele>86.5</ele><time>2026-05-01T08:28:59.998Z</time></trkpt><trkpt lat="45.16743894952832" lon="8.99238055071957"><ele>85.75</ele><time>2026-05-01T08:29:00.998Z</time></trkpt><trkpt lat="45.167434555363315" lon="8.992198741085195"><ele>85.0</ele><time>2026-05-01T08:29:01.998Z</time></trkpt><trkpt lat="45.16743538727518" lon="8.992011930272449"><ele>85.0</ele><time>2026-05-01T08:29:02.998Z</time></trkpt><trkpt lat="45.16743759510202" lon="8.991824844317323"><ele>85.0</ele><time>2026-05-01T08:29:03.998Z</time></trkpt><trkpt lat="45.16744175398835" lon="8.991635087688913"><ele>85.0</ele><time>2026-05-01T08:29:04.998Z</time></trkpt><trkpt lat="45.16744585563906" lon="8.991445426828287"><ele>85.0</ele><time>2026-05-01T08:29:05.998Z</time></trkpt><trkpt lat="45.16744829986045" lon="8.991260105972172"><ele>85.25</ele><time>2026-05-01T08:29:06.998Z</time></trkpt><trkpt lat="45.1674492492223" lon="8.9910714999102"><ele>85.5</ele><time>2026-05-01T08:29:07.998Z</time></trkpt><trkpt lat="45.16745630354025" lon="8.990880471304399"><ele>85.75</ele><time>2026-05-01T08:29:08.998Z</time></trkpt><trkpt lat="45.16746927036215" lon="8.990680774800087"><ele>86.0</ele><time>2026-05-01T08:29:09.998Z</time></trkpt><trkpt lat="45.167487030709545" lon="8.99048716868631"><ele>86.0</ele><time>2026-05-01T08:29:10.998Z</time></trkpt><trkpt lat="45.16751184250073" lon="8.990293444134787"><ele>86.0</ele><time>2026-05-01T08:29:11.998Z</time></trkpt><trkpt lat="45.167537232083674" lon="8.990106588948004"><ele>86.0</ele><time>2026-05-01T08:29:12.998Z</time></trkpt><trkpt lat="45.16756238387883" lon="8.989928163983453"><ele>86.0</ele><time>2026-05-01T08:29:13.998Z</time></trkpt><trkpt lat="45.167587796921204" lon="8.989755748985115"><ele>86.0</ele><time>2026-05-01T08:29:14.998Z</time></trkpt><trkpt lat="45.16761131463112" lon="8.989595726024934"><ele>86.0</ele><time>2026-05-01T08:29:15.998Z</time></trkpt><trkpt lat="45.16763246051657" lon="8.989446501068205"><ele>86.0</ele><time>2026-05-01T08:29:16.998Z</time></trkpt><trkpt lat="45.167654255540526" lon="8.989303569292975"><ele>86.0</ele><time>2026-05-01T08:29:17.998Z</time></trkpt><trkpt lat="45.16767273944666" lon="8.9891619595131"><ele>86.0</ele><time>2026-05-01T08:29:18.998Z</time></trkpt><trkpt lat="45.16769087567283" lon="8.989023063843641"><ele>86.0</ele><time>2026-05-01T08:29:19.998Z</time></trkpt><trkpt lat="45.16771131323607" lon="8.988888594819633"><ele>86.0</ele><time>2026-05-01T08:29:20.998Z</time></trkpt><trkpt lat="45.16773167627263" lon="8.988758958404928"><ele>86.0</ele><time>2026-05-01T08:29:21.998Z</time></trkpt><trkpt lat="45.16774989433806" lon="8.988631653717459"><ele>86.0</ele><time>2026-05-01T08:29:22.998Z</time></trkpt><trkpt lat="45.167755342439094" lon="8.988502968583953"><ele>86.0</ele><time>2026-05-01T08:29:23.998Z</time></trkpt><trkpt lat="45.16775187938054" lon="8.98837201400627"><ele>86.19999999999999</ele><time>2026-05-01T08:29:24.998Z</time></trkpt><trkpt lat="45.167718238916876" lon="8.988245894286358"><ele>86.39999999999999</ele><time>2026-05-01T08:29:25.998Z</time></trkpt><trkpt lat="45.167715789104996" lon="8.9880989918125"><ele>86.6</ele><time>2026-05-01T08:29:26.998Z</time></trkpt><trkpt lat="45.16769680474652" lon="8.987963368486085"><ele>86.8</ele><time>2026-05-01T08:29:27.998Z</time></trkpt><trkpt lat="45.16768717462985" lon="8.987816574033745"><ele>87.0</ele><time>2026-05-01T08:29:28.998Z</time></trkpt><trkpt lat="45.167677114121204" lon="8.987663196531406"><ele>86.8</ele><time>2026-05-01T08:29:29.998Z</time></trkpt><trkpt lat="45.167666119320835" lon="8.987506858600426"><ele>86.6</ele><time>2026-05-01T08:29:30.998Z</time></trkpt><trkpt lat="45.16765007245666" lon="8.987350777639248"><ele>86.39999999999999</ele><time>2026-05-01T08:29:31.998Z</time></trkpt><trkpt lat="45.16763328355479" lon="8.987193119160551"><ele>86.19999999999999</ele><time>2026-05-01T08:29:32.998Z</time></trkpt><trkpt lat="45.167618074304244" lon="8.98704697843948"><ele>86.0</ele><time>2026-05-01T08:29:33.998Z</time></trkpt><trkpt lat="45.167606373065034" lon="8.986890851017453"><ele>86.0</ele><time>2026-05-01T08:29:34.998Z</time></trkpt><trkpt lat="45.167595416472395" lon="8.98674031067683"><ele>86.0</ele><time>2026-05-01T08:29:35.998Z</time></trkpt><trkpt lat="45.16758751064151" lon="8.986584163769427"><ele>86.0</ele><time>2026-05-01T08:29:36.998Z</time></trkpt><trkpt lat="45.16757892595652" lon="8.986410273468634"><ele>86.0</ele><time>2026-05-01T08:29:37.998Z</time></trkpt><trkpt lat="45.16757535232143" lon="8.986208147209533"><ele>86.0</ele><time>2026-05-01T08:29:38.998Z</time></trkpt><trkpt lat="45.167576724052545" lon="8.985983561301387"><ele>86.0</ele><time>2026-05-01T08:29:39.998Z</time></trkpt><trkpt lat="45.16757925001141" lon="8.985743104451371"><ele>86.0</ele><time>2026-05-01T08:29:40.998Z</time></trkpt><trkpt lat="45.16758960683459" lon="8.985476611996178"><ele>86.0</ele><time>2026-05-01T08:29:41.998Z</time></trkpt><trkpt lat="45.167597837100864" lon="8.985197757444274"><ele>86.0</ele><time>2026-05-01T08:29:42.998Z</time></trkpt><trkpt lat="45.1676075982819" lon="8.984912394229882"><ele>86.0</ele><time>2026-05-01T08:29:43.998Z</time></trkpt><trkpt lat="45.1676183284069" lon="8.984641270871617"><ele>85.66666666666667</ele><time>2026-05-01T08:29:44.998Z</time></trkpt><trkpt lat="45.16763615419443" lon="8.984370498527106"><ele>85.33333333333333</ele><time>2026-05-01T08:29:45.998Z</time></trkpt><trkpt lat="45.167659315255506" lon="8.984102235649392"><ele>85.0</ele><time>2026-05-01T08:29:46.998Z</time></trkpt><trkpt lat="45.1676845726902" lon="8.983834361819161"><ele>85.0</ele><time>2026-05-01T08:29:47.998Z</time></trkpt><trkpt lat="45.16771669165971" lon="8.983567220732132"><ele>85.0</ele><time>2026-05-01T08:29:48.998Z</time></trkpt><trkpt lat="45.167754170230246" lon="8.983298453728546"><ele>85.0</ele><time>2026-05-01T08:29:49.998Z</time></trkpt><trkpt lat="45.16779840455855" lon="8.983037164135437"><ele>84.66666666666666</ele><time>2026-05-01T08:29:50.998Z</time></trkpt><trkpt lat="45.16784720412994" lon="8.982777344554714"><ele>84.33333333333333</ele><time>2026-05-01T08:29:51.998Z</time></trkpt><trkpt lat="45.16790282916862" lon="8.982521812053541"><ele>84.0</ele><time>2026-05-01T08:29:52.998Z</time></trkpt><trkpt lat="45.1679629259887" lon="8.982264983696128"><ele>84.0</ele><time>2026-05-01T08:29:53.998Z</time></trkpt><trkpt lat="45.16802955907828" lon="8.982011894995994"><ele>84.0</ele><time>2026-05-01T08:29:54.998Z</time></trkpt><trkpt lat="45.168098223232505" lon="8.981763088970082"><ele>84.0</ele><time>2026-05-01T08:29:55.998Z</time></trkpt><trkpt lat="45.1681666717124" lon="8.981513952594128"><ele>84.33333333333333</ele><time>2026-05-01T08:29:56.998Z</time></trkpt><trkpt lat="45.16824447473158" lon="8.981269947111443"><ele>84.66666666666666</ele><time>2026-05-01T08:29:57.998Z</time></trkpt><trkpt lat="45.16832268844574" lon="8.981026377169249"><ele>85.0</ele><time>2026-05-01T08:29:58.998Z</time></trkpt><trkpt lat="45.168406913533005" lon="8.98078559596061"><ele>85.33333333333333</ele><time>2026-05-01T08:29:59.998Z</time></trkpt><trkpt lat="45.168496817437536" lon="8.980552223463896"><ele>85.66666666666667</ele><time>2026-05-01T08:30:00.998Z</time></trkpt><trkpt lat="45.1685933573231" lon="8.980323617202588"><ele>86.0</ele><time>2026-05-01T08:30:01.998Z</time></trkpt><trkpt lat="45.16869504395948" lon="8.980099420108973"><ele>85.66666666666667</ele><time>2026-05-01T08:30:02.998Z</time></trkpt><trkpt lat="45.16879764493311" lon="8.979877455226378"><ele>85.33333333333333</ele><time>2026-05-01T08:30:03.998Z</time></trkpt><trkpt lat="45.168901641343275" lon="8.979656115886222"><ele>85.0</ele><time>2026-05-01T08:30:04.998Z</time></trkpt><trkpt lat="45.169013216540556" lon="8.97944136147697"><ele>85.33333333333333</ele><time>2026-05-01T08:30:05.999Z</time></trkpt><trkpt lat="45.1691279472404" lon="8.979232331017263"><ele>85.66666666666667</ele><time>2026-05-01T08:30:06.999Z</time></trkpt><trkpt lat="45.169249039596494" lon="8.979030941391576"><ele>86.0</ele><time>2026-05-01T08:30:07.999Z</time></trkpt><trkpt lat="45.16937478503453" lon="8.978837857343462"><ele>86.33333333333334</ele><time>2026-05-01T08:30:08.999Z</time></trkpt><trkpt lat="45.16949984286293" lon="8.978648823819704"><ele>86.66666666666667</ele><time>2026-05-01T08:30:09.999Z</time></trkpt><trkpt lat="45.169624195390064" lon="8.97846253209794"><ele>87.0</ele><time>2026-05-01T08:30:10.999Z</time></trkpt><trkpt lat="45.16975378337896" lon="8.97828523861917"><ele>86.33333333333333</ele><time>2026-05-01T08:30:11.999Z</time></trkpt><trkpt lat="45.169883126271976" lon="8.978110008015491"><ele>85.66666666666666</ele><time>2026-05-01T08:30:12.999Z</time></trkpt><trkpt lat="45.170015286513525" lon="8.977941517283641"><ele>85.0</ele><time>2026-05-01T08:30:13.999Z</time></trkpt><trkpt lat="45.17015161348056" lon="8.977785799745577"><ele>85.0</ele><time>2026-05-01T08:30:14.999Z</time></trkpt><trkpt lat="45.17029162673925" lon="8.977635836938635"><ele>85.0</ele><time>2026-05-01T08:30:15.999Z</time></trkpt><trkpt lat="45.17043196091885" lon="8.97747845864409"><ele>85.0</ele><time>2026-05-01T08:30:16.999Z</time></trkpt><trkpt lat="45.17057085144529" lon="8.977319163564104"><ele>85.33333333333333</ele><time>2026-05-01T08:30:17.999Z</time></trkpt><trkpt lat="45.17071288866431" lon="8.977163485791687"><ele>85.66666666666667</ele><time>2026-05-01T08:30:18.999Z</time></trkpt><trkpt lat="45.17085441528193" lon="8.977000785033107"><ele>86.0</ele><time>2026-05-01T08:30:19.999Z</time></trkpt><trkpt lat="45.17099550156343" lon="8.976836429179375"><ele>86.33333333333334</ele><time>2026-05-01T08:30:20.999Z</time></trkpt><trkpt lat="45.17113531642065" lon="8.976677377978676"><ele>86.66666666666667</ele><time>2026-05-01T08:30:21.999Z</time></trkpt><trkpt lat="45.171275061008494" lon="8.97651851727042"><ele>87.0</ele><time>2026-05-01T08:30:22.999Z</time></trkpt><trkpt lat="45.17141692308999" lon="8.976359593075033"><ele>87.0</ele><time>2026-05-01T08:30:23.999Z</time></trkpt><trkpt lat="45.171559136142434" lon="8.976197817945868"><ele>87.0</ele><time>2026-05-01T08:30:24.999Z</time></trkpt><trkpt lat="45.171701064430685" lon="8.976037516749594"><ele>87.0</ele><time>2026-05-01T08:30:25.999Z</time></trkpt><trkpt lat="45.171841726879514" lon="8.975878651039995"><ele>87.0</ele><time>2026-05-01T08:30:26.999Z</time></trkpt><trkpt lat="45.17198579972966" lon="8.975715692865586"><ele>87.0</ele><time>2026-05-01T08:30:27.999Z</time></trkpt><trkpt lat="45.17212934729991" lon="8.975553128423497"><ele>87.0</ele><time>2026-05-01T08:30:28.999Z</time></trkpt><trkpt lat="45.17227141253406" lon="8.975389709199389"><ele>86.66666666666667</ele><time>2026-05-01T08:30:29.999Z</time></trkpt><trkpt lat="45.17241458517608" lon="8.975227763299113"><ele>86.33333333333334</ele><time>2026-05-01T08:30:30.999Z</time></trkpt><trkpt lat="45.17255722266776" lon="8.975064812654454"><ele>86.0</ele><time>2026-05-01T08:30:31.999Z</time></trkpt><trkpt lat="45.17270065052526" lon="8.974901729970595"><ele>86.0</ele><time>2026-05-01T08:30:32.999Z</time></trkpt><trkpt lat="45.17284356636922" lon="8.974739060935098"><ele>86.0</ele><time>2026-05-01T08:30:33.999Z</time></trkpt><trkpt lat="45.17298879443003" lon="8.974574812621794"><ele>86.0</ele><time>2026-05-01T08:30:34.999Z</time></trkpt><trkpt lat="45.17313374348032" lon="8.974412961207944"><ele>86.0</ele><time>2026-05-01T08:30:35.999Z</time></trkpt><trkpt lat="45.17328060082542" lon="8.974245873599012"><ele>86.0</ele><time>2026-05-01T08:30:36.999Z</time></trkpt><trkpt lat="45.17342890355651" lon="8.974081970005129"><ele>86.0</ele><time>2026-05-01T08:30:37.999Z</time></trkpt><trkpt lat="45.173576716713015" lon="8.973914344361246"><ele>86.0</ele><time>2026-05-01T08:30:38.999Z</time></trkpt><trkpt lat="45.17372327870697" lon="8.973743263248135"><ele>86.0</ele><time>2026-05-01T08:30:39.999Z</time></trkpt><trkpt lat="45.173869358762055" lon="8.973574287104427"><ele>86.0</ele><time>2026-05-01T08:30:40.996Z</time></trkpt><trkpt lat="45.17401527013436" lon="8.973406742593315"><ele>86.66666666666667</ele><time>2026-05-01T08:30:41.996Z</time></trkpt><trkpt lat="45.17416239818051" lon="8.973239245529557"><ele>87.33333333333333</ele><time>2026-05-01T08:30:42.996Z</time></trkpt><trkpt lat="45.174309694490205" lon="8.973070300113253"><ele>88.0</ele><time>2026-05-01T08:30:43.996Z</time></trkpt><trkpt lat="45.174456381593146" lon="8.97290338128052"><ele>88.0</ele><time>2026-05-01T08:30:44.997Z</time></trkpt><trkpt lat="45.17460304800511" lon="8.972735714058507"><ele>88.0</ele><time>2026-05-01T08:30:45.997Z</time></trkpt><trkpt lat="45.174748311468825" lon="8.972569263865871"><ele>88.0</ele><time>2026-05-01T08:30:46.997Z</time></trkpt><trkpt lat="45.174888908815326" lon="8.972402922878102"><ele>88.33333333333333</ele><time>2026-05-01T08:30:47.997Z</time></trkpt><trkpt lat="45.17503033447779" lon="8.972240559320616"><ele>88.66666666666667</ele><time>2026-05-01T08:30:48.997Z</time></trkpt><trkpt lat="45.175163470358136" lon="8.972080135733382"><ele>89.0</ele><time>2026-05-01T08:30:49.997Z</time></trkpt><trkpt lat="45.17530763152934" lon="8.971922340453197"><ele>89.0</ele><time>2026-05-01T08:30:50.997Z</time></trkpt><trkpt lat="45.17544984908548" lon="8.971758654993845"><ele>89.0</ele><time>2026-05-01T08:30:51.997Z</time></trkpt><trkpt lat="45.17560156794831" lon="8.971600662714335"><ele>89.0</ele><time>2026-05-01T08:30:52.997Z</time></trkpt><trkpt lat="45.17574520694631" lon="8.971440043117532"><ele>89.66666666666667</ele><time>2026-05-01T08:30:53.997Z</time></trkpt><trkpt lat="45.175890535690456" lon="8.971273702838637"><ele>90.33333333333333</ele><time>2026-05-01T08:30:54.997Z</time></trkpt><trkpt lat="45.176037219133086" lon="8.97110886420418"><ele>91.0</ele><time>2026-05-01T08:30:55.998Z</time></trkpt><trkpt lat="45.17618209636231" lon="8.970943664109985"><ele>90.33333333333333</ele><time>2026-05-01T08:30:56.998Z</time></trkpt><trkpt lat="45.17632808421471" lon="8.9707784574605"><ele>89.66666666666667</ele><time>2026-05-01T08:30:57.998Z</time></trkpt><trkpt lat="45.17647581304626" lon="8.97061461821327"><ele>89.0</ele><time>2026-05-01T08:30:58.998Z</time></trkpt><trkpt lat="45.17662385311057" lon="8.970451357460671"><ele>89.33333333333334</ele><time>2026-05-01T08:30:59.998Z</time></trkpt><trkpt lat="45.176770165564065" lon="8.970289454615328"><ele>89.66666666666667</ele><time>2026-05-01T08:31:00.998Z</time></trkpt><trkpt lat="45.176916976190554" lon="8.970127192105238"><ele>90.0</ele><time>2026-05-01T08:31:01.998Z</time></trkpt><trkpt lat="45.177057411484604" lon="8.9699661603537"><ele>90.0</ele><time>2026-05-01T08:31:02.998Z</time></trkpt><trkpt lat="45.177190510743614" lon="8.96980429368635"><ele>90.0</ele><time>2026-05-01T08:31:03.998Z</time></trkpt><trkpt lat="45.1773228479665" lon="8.969656458667094"><ele>90.0</ele><time>2026-05-01T08:31:04.998Z</time></trkpt><trkpt lat="45.17745424494438" lon="8.969521411305573"><ele>90.66666666666667</ele><time>2026-05-01T08:31:05.998Z</time></trkpt><trkpt lat="45.1775869849755" lon="8.969381439811983"><ele>91.33333333333334</ele><time>2026-05-01T08:31:06.998Z</time></trkpt><trkpt lat="45.17771613601571" lon="8.969238286709007"><ele>92.0</ele><time>2026-05-01T08:31:07.998Z</time></trkpt><trkpt lat="45.177842611469366" lon="8.969089629156821"><ele>91.0</ele><time>2026-05-01T08:31:08.998Z</time></trkpt><trkpt lat="45.177974315329735" lon="8.968954597408828"><ele>90.0</ele><time>2026-05-01T08:31:09.998Z</time></trkpt><trkpt lat="45.178110595414694" lon="8.968824202845575"><ele>89.0</ele><time>2026-05-01T08:31:10.999Z</time></trkpt><trkpt lat="45.17824566741936" lon="8.968682577894342"><ele>89.0</ele><time>2026-05-01T08:31:11.999Z</time></trkpt><trkpt lat="45.1783826265781" lon="8.968543369573664"><ele>89.0</ele><time>2026-05-01T08:31:12.999Z</time></trkpt><trkpt lat="45.178520934949695" lon="8.968404352237371"><ele>89.0</ele><time>2026-05-01T08:31:13.999Z</time></trkpt><trkpt lat="45.17866154687209" lon="8.96826605097525"><ele>88.66666666666667</ele><time>2026-05-01T08:31:14.999Z</time></trkpt><trkpt lat="45.178807557098224" lon="8.968131016312594"><ele>88.33333333333333</ele><time>2026-05-01T08:31:15.999Z</time></trkpt><trkpt lat="45.17895386241595" lon="8.968001538950796"><ele>88.0</ele><time>2026-05-01T08:31:16.999Z</time></trkpt><trkpt lat="45.17910554420269" lon="8.96787473481602"><ele>88.0</ele><time>2026-05-01T08:31:17.999Z</time></trkpt><trkpt lat="45.17925963335376" lon="8.967734947692739"><ele>88.0</ele><time>2026-05-01T08:31:18.999Z</time></trkpt><trkpt lat="45.17941375663054" lon="8.967608746682348"><ele>88.0</ele><time>2026-05-01T08:31:19.999Z</time></trkpt><trkpt lat="45.1795623745959" lon="8.967472335557023"><ele>88.33333333333333</ele><time>2026-05-01T08:31:20.999Z</time></trkpt><trkpt lat="45.17970967901353" lon="8.967333642434637"><ele>88.66666666666667</ele><time>2026-05-01T08:31:21.999Z</time></trkpt><trkpt lat="45.17985855235622" lon="8.96719678128306"><ele>89.0</ele><time>2026-05-01T08:31:22.999Z</time></trkpt><trkpt lat="45.18000408316546" lon="8.96706604795949"><ele>88.33333333333334</ele><time>2026-05-01T08:31:23.999Z</time></trkpt><trkpt lat="45.18014514312392" lon="8.966940236048833"><ele>87.66666666666667</ele><time>2026-05-01T08:31:24.999Z</time></trkpt><trkpt lat="45.18028908669064" lon="8.966830156513879"><ele>87.0</ele><time>2026-05-01T08:31:25.999Z</time></trkpt><trkpt lat="45.180431628481564" lon="8.966741854656613"><ele>87.5</ele><time>2026-05-01T08:31:26.999Z</time></trkpt><trkpt lat="45.180573926859374" lon="8.966677398292239"><ele>88.0</ele><time>2026-05-01T08:31:27.999Z</time></trkpt><trkpt lat="45.18071798086291" lon="8.966631557660554"><ele>88.5</ele><time>2026-05-01T08:31:28.999Z</time></trkpt><trkpt lat="45.18085983363453" lon="8.96660080336405"><ele>89.0</ele><time>2026-05-01T08:31:29.999Z</time></trkpt><trkpt lat="45.1809973271579" lon="8.966582198750059"><ele>89.5</ele><time>2026-05-01T08:31:30.999Z</time></trkpt><trkpt lat="45.1811288768286" lon="8.966579186060974"><ele>90.0</ele><time>2026-05-01T08:31:31.999Z</time></trkpt><trkpt lat="45.18125901485808" lon="8.96659352288439"><ele>90.5</ele><time>2026-05-01T08:31:32.999Z</time></trkpt><trkpt lat="45.1813749671245" lon="8.966588601067146"><ele>91.0</ele><time>2026-05-01T08:31:33.999Z</time></trkpt><trkpt lat="45.18149675724137" lon="8.966652820996114"><ele>91.25</ele><time>2026-05-01T08:31:34.999Z</time></trkpt><trkpt lat="45.18162241177327" lon="8.96667795752126"><ele>91.5</ele><time>2026-05-01T08:31:35.999Z</time></trkpt><trkpt lat="45.18175162398045" lon="8.96670101072947"><ele>91.75</ele><time>2026-05-01T08:31:36.999Z</time></trkpt><trkpt lat="45.18188080907372" lon="8.966732958405697"><ele>92.0</ele><time>2026-05-01T08:31:37.999Z</time></trkpt><trkpt lat="45.18201037246428" lon="8.966770317723752"><ele>91.5</ele><time>2026-05-01T08:31:38.999Z</time></trkpt><trkpt lat="45.182136497938714" lon="8.966805364487293"><ele>91.0</ele><time>2026-05-01T08:31:39.999Z</time></trkpt><trkpt lat="45.18226277610988" lon="8.966846103206814"><ele>90.5</ele><time>2026-05-01T08:31:40.999Z</time></trkpt><trkpt lat="45.18239338073141" lon="8.966878572224328"><ele>90.0</ele><time>2026-05-01T08:31:41.999Z</time></trkpt><trkpt lat="45.18252199312266" lon="8.966910179732585"><ele>90.0</ele><time>2026-05-01T08:31:42.999Z</time></trkpt><trkpt lat="45.182652841976406" lon="8.966937279825515"><ele>90.0</ele><time>2026-05-01T08:31:43.999Z</time></trkpt><trkpt lat="45.18278454827154" lon="8.966956058917786"><ele>90.0</ele><time>2026-05-01T08:31:44.999Z</time></trkpt><trkpt lat="45.18290995588907" lon="8.966964794151474"><ele>90.0</ele><time>2026-05-01T08:31:45.999Z</time></trkpt><trkpt lat="45.18303444821689" lon="8.966957968649744"><ele>90.0</ele><time>2026-05-01T08:31:46.999Z</time></trkpt><trkpt lat="45.18315277058097" lon="8.966955714317145"><ele>90.0</ele><time>2026-05-01T08:31:47.999Z</time></trkpt><trkpt lat="45.18326750108212" lon="8.966954451522886"><ele>90.0</ele><time>2026-05-01T08:31:48.999Z</time></trkpt><trkpt lat="45.18337802312308" lon="8.966950232526221"><ele>90.0</ele><time>2026-05-01T08:31:49.999Z</time></trkpt><trkpt lat="45.18348559398626" lon="8.966955205462625"><ele>89.83333333333333</ele><time>2026-05-01T08:31:50.999Z</time></trkpt><trkpt lat="45.1835808621645" lon="8.966977766063902"><ele>89.66666666666667</ele><time>2026-05-01T08:31:51.999Z</time></trkpt><trkpt lat="45.1836529569732" lon="8.96701777394408"><ele>89.5</ele><time>2026-05-01T08:31:52.999Z</time></trkpt><trkpt lat="45.18372821121404" lon="8.96710206244172"><ele>89.33333333333334</ele><time>2026-05-01T08:31:54.999Z</time></trkpt><trkpt lat="45.18379187189379" lon="8.96721979588154"><ele>89.16666666666667</ele><time>2026-05-01T08:31:56.999Z</time></trkpt><trkpt lat="45.183842321140226" lon="8.967281775182087"><ele>89.0</ele><time>2026-05-01T08:31:57.999Z</time></trkpt><trkpt lat="45.183880223065685" lon="8.967356978112571"><ele>88.80000000000001</ele><time>2026-05-01T08:31:58.999Z</time></trkpt><trkpt lat="45.183790542616485" lon="8.967546591872674"><ele>88.60000000000001</ele><time>2026-05-01T08:31:59.999Z</time></trkpt><trkpt lat="45.1837516253685" lon="8.96767077470765"><ele>88.4</ele><time>2026-05-01T08:32:00.999Z</time></trkpt><trkpt lat="45.18370832758437" lon="8.967790514652783"><ele>88.2</ele><time>2026-05-01T08:32:02Z</time></trkpt><trkpt lat="45.183691395133216" lon="8.967918679458739"><ele>88.0</ele><time>2026-05-01T08:32:03Z</time></trkpt><trkpt lat="45.18362846251541" lon="8.968040927664578"><ele>88.0</ele><time>2026-05-01T08:32:04Z</time></trkpt><trkpt lat="45.18358466906113" lon="8.9681897394819"><ele>88.0</ele><time>2026-05-01T08:32:05Z</time></trkpt><trkpt lat="45.183539302733344" lon="8.968352675209745"><ele>88.0</ele><time>2026-05-01T08:32:06Z</time></trkpt><trkpt lat="45.183491297451376" lon="8.96852739827332"><ele>88.0</ele><time>2026-05-01T08:32:07Z</time></trkpt><trkpt lat="45.183441361649045" lon="8.968706687633405"><ele>88.0</ele><time>2026-05-01T08:32:08Z</time></trkpt><trkpt lat="45.183391918436236" lon="8.968882640662661"><ele>88.0</ele><time>2026-05-01T08:32:09Z</time></trkpt><trkpt lat="45.183346207811674" lon="8.969057880566314"><ele>88.0</ele><time>2026-05-01T08:32:10Z</time></trkpt><trkpt lat="45.1832993653953" lon="8.969234079814042"><ele>88.0</ele><time>2026-05-01T08:32:11Z</time></trkpt><trkpt lat="45.18325341393716" lon="8.9694149201116"><ele>88.0</ele><time>2026-05-01T08:32:12Z</time></trkpt><trkpt lat="45.18320651887032" lon="8.969599135830517"><ele>88.0</ele><time>2026-05-01T08:32:13Z</time></trkpt><trkpt lat="45.18315898189532" lon="8.969775249563037"><ele>88.0</ele><time>2026-05-01T08:32:14Z</time></trkpt><trkpt lat="45.18311354270295" lon="8.969935962855933"><ele>88.0</ele><time>2026-05-01T08:32:15Z</time></trkpt><trkpt lat="45.18306942210688" lon="8.97009637407437"><ele>88.0</ele><time>2026-05-01T08:32:16Z</time></trkpt><trkpt lat="45.18302471655539" lon="8.970264295431356"><ele>88.0</ele><time>2026-05-01T08:32:17Z</time></trkpt><trkpt lat="45.18297677915507" lon="8.970440164990581"><ele>88.0</ele><time>2026-05-01T08:32:18Z</time></trkpt><trkpt lat="45.182925493379294" lon="8.970626375146578"><ele>88.0</ele><time>2026-05-01T08:32:19Z</time></trkpt><trkpt lat="45.18287407329713" lon="8.970817627903372"><ele>88.66666666666666</ele><time>2026-05-01T08:32:20Z</time></trkpt><trkpt lat="45.18281973491767" lon="8.971017561150768"><ele>89.33333333333333</ele><time>2026-05-01T08:32:21Z</time></trkpt><trkpt lat="45.182766254542045" lon="8.971222846734076"><ele>90.0</ele><time>2026-05-01T08:32:22Z</time></trkpt><trkpt lat="45.18271067641923" lon="8.97143013822816"><ele>90.0</ele><time>2026-05-01T08:32:23Z</time></trkpt><trkpt lat="45.1826560844991" lon="8.971632160132083"><ele>90.0</ele><time>2026-05-01T08:32:24Z</time></trkpt><trkpt lat="45.18260473461806" lon="8.971830264197504"><ele>90.0</ele><time>2026-05-01T08:32:25Z</time></trkpt><trkpt lat="45.182552756197985" lon="8.97202207475344"><ele>90.0</ele><time>2026-05-01T08:32:26Z</time></trkpt><trkpt lat="45.182502380722674" lon="8.97220984042525"><ele>90.25</ele><time>2026-05-01T08:32:27Z</time></trkpt><trkpt lat="45.1824511623953" lon="8.972396532439992"><ele>90.5</ele><time>2026-05-01T08:32:28Z</time></trkpt><trkpt lat="45.18239872894874" lon="8.97259207326544"><ele>90.75</ele><time>2026-05-01T08:32:29Z</time></trkpt><trkpt lat="45.18234434897502" lon="8.97279149777733"><ele>91.0</ele><time>2026-05-01T08:32:30Z</time></trkpt><trkpt lat="45.18229019399114" lon="8.972996846825371"><ele>90.66666666666666</ele><time>2026-05-01T08:32:31Z</time></trkpt><trkpt lat="45.18223453595575" lon="8.97320886551167"><ele>90.33333333333333</ele><time>2026-05-01T08:32:32Z</time></trkpt><trkpt lat="45.18217166963036" lon="8.973424961643794"><ele>90.0</ele><time>2026-05-01T08:32:33Z</time></trkpt><trkpt lat="45.18211055949652" lon="8.973650241648805"><ele>90.0</ele><time>2026-05-01T08:32:34Z</time></trkpt><trkpt lat="45.18204967403062" lon="8.97387953906615"><ele>90.0</ele><time>2026-05-01T08:32:35Z</time></trkpt><trkpt lat="45.18198941680016" lon="8.974101709093759"><ele>90.0</ele><time>2026-05-01T08:32:36Z</time></trkpt><trkpt lat="45.18192877164365" lon="8.9743160954902"><ele>90.0</ele><time>2026-05-01T08:32:37Z</time></trkpt><trkpt lat="45.18186892647683" lon="8.974532500529726"><ele>90.0</ele><time>2026-05-01T08:32:38Z</time></trkpt><trkpt lat="45.181811800473" lon="8.97474888129516"><ele>90.0</ele><time>2026-05-01T08:32:39Z</time></trkpt><trkpt lat="45.18175413326044" lon="8.974961970135091"><ele>89.33333333333333</ele><time>2026-05-01T08:32:40Z</time></trkpt><trkpt lat="45.181696286617395" lon="8.975172000821415"><ele>88.66666666666666</ele><time>2026-05-01T08:32:41Z</time></trkpt><trkpt lat="45.18164038528689" lon="8.975377370410655"><ele>88.0</ele><time>2026-05-01T08:32:42Z</time></trkpt><trkpt lat="45.18158647481014" lon="8.975576814776165"><ele>88.0</ele><time>2026-05-01T08:32:43Z</time></trkpt><trkpt lat="45.18153711276802" lon="8.975783848865488"><ele>88.0</ele><time>2026-05-01T08:32:44Z</time></trkpt><trkpt lat="45.181481772406954" lon="8.97598849236117"><ele>88.0</ele><time>2026-05-01T08:32:45Z</time></trkpt><trkpt lat="45.181424302376676" lon="8.97619548848473"><ele>88.33333333333333</ele><time>2026-05-01T08:32:46Z</time></trkpt><trkpt lat="45.18136769796559" lon="8.976405602160794"><ele>88.66666666666667</ele><time>2026-05-01T08:32:46.997Z</time></trkpt><trkpt lat="45.18131056606081" lon="8.976614696131739"><ele>89.0</ele><time>2026-05-01T08:32:47.997Z</time></trkpt><trkpt lat="45.18125161877312" lon="8.976824473859484"><ele>89.0</ele><time>2026-05-01T08:32:48.997Z</time></trkpt><trkpt lat="45.181192697374804" lon="8.977036280744976"><ele>89.0</ele><time>2026-05-01T08:32:49.997Z</time></trkpt><trkpt lat="45.181134511689834" lon="8.977247069349511"><ele>89.0</ele><time>2026-05-01T08:32:50.997Z</time></trkpt><trkpt lat="45.181077842951055" lon="8.977459839654674"><ele>88.33333333333334</ele><time>2026-05-01T08:32:51.998Z</time></trkpt><trkpt lat="45.18102158859604" lon="8.977672417080825"><ele>87.66666666666667</ele><time>2026-05-01T08:32:52.998Z</time></trkpt><trkpt lat="45.180967057310895" lon="8.97787735695702"><ele>87.0</ele><time>2026-05-01T08:32:53.998Z</time></trkpt><trkpt lat="45.18091489235858" lon="8.978072502222382"><ele>87.0</ele><time>2026-05-01T08:32:54.998Z</time></trkpt><trkpt lat="45.18086206765623" lon="8.978263684058994"><ele>87.0</ele><time>2026-05-01T08:32:55.998Z</time></trkpt><trkpt lat="45.18080999734346" lon="8.978454013264852"><ele>87.0</ele><time>2026-05-01T08:32:56.998Z</time></trkpt><trkpt lat="45.18075836221274" lon="8.978641858216278"><ele>87.0</ele><time>2026-05-01T08:32:57.998Z</time></trkpt><trkpt lat="45.18070718383527" lon="8.978828832148068"><ele>86.75</ele><time>2026-05-01T08:32:58.998Z</time></trkpt><trkpt lat="45.180656863087286" lon="8.979020429506845"><ele>86.5</ele><time>2026-05-01T08:32:59.998Z</time></trkpt><trkpt lat="45.18060512655643" lon="8.979219154578802"><ele>86.25</ele><time>2026-05-01T08:33:00.998Z</time></trkpt><trkpt lat="45.18055410305101" lon="8.979411851287294"><ele>86.0</ele><time>2026-05-01T08:33:01.998Z</time></trkpt><trkpt lat="45.18045294817894" lon="8.97977757086344"><ele>86.75</ele><time>2026-05-01T08:33:03.998Z</time></trkpt><trkpt lat="45.180408184466245" lon="8.979952537275642"><ele>87.5</ele><time>2026-05-01T08:33:04.998Z</time></trkpt><trkpt lat="45.18036381934818" lon="8.98011022413601"><ele>88.25</ele><time>2026-05-01T08:33:05.998Z</time></trkpt><trkpt lat="45.18031739191154" lon="8.9802774872256"><ele>89.0</ele><time>2026-05-01T08:33:06.998Z</time></trkpt><trkpt lat="45.180273309269545" lon="8.98044737462252"><ele>89.0</ele><time>2026-05-01T08:33:07.999Z</time></trkpt><trkpt lat="45.18023022065349" lon="8.980620503727827"><ele>89.0</ele><time>2026-05-01T08:33:08.999Z</time></trkpt><trkpt lat="45.18018185778446" lon="8.980796290464026"><ele>89.0</ele><time>2026-05-01T08:33:09.999Z</time></trkpt><trkpt lat="45.180132933949935" lon="8.980975823421861"><ele>89.0</ele><time>2026-05-01T08:33:10.999Z</time></trkpt><trkpt lat="45.180083941691464" lon="8.98115294222054"><ele>88.5</ele><time>2026-05-01T08:33:11.999Z</time></trkpt><trkpt lat="45.180035645759936" lon="8.981328750146066"><ele>88.0</ele><time>2026-05-01T08:33:12.999Z</time></trkpt><trkpt lat="45.17998442526949" lon="8.981503403569493"><ele>87.5</ele><time>2026-05-01T08:33:13.999Z</time></trkpt><trkpt lat="45.17993509255158" lon="8.98168082735841"><ele>87.0</ele><time>2026-05-01T08:33:14.999Z</time></trkpt><trkpt lat="45.17988476713619" lon="8.981866258236137"><ele>87.0</ele><time>2026-05-01T08:33:15.999Z</time></trkpt><trkpt lat="45.17983637872725" lon="8.982047161751668"><ele>87.0</ele><time>2026-05-01T08:33:16.999Z</time></trkpt><trkpt lat="45.179791107688494" lon="8.982210982211004"><ele>87.0</ele><time>2026-05-01T08:33:17.999Z</time></trkpt><trkpt lat="45.179748904633385" lon="8.982362957001056"><ele>87.0</ele><time>2026-05-01T08:33:18.999Z</time></trkpt><trkpt lat="45.179704825271784" lon="8.982519430205626"><ele>87.25</ele><time>2026-05-01T08:33:19.999Z</time></trkpt><trkpt lat="45.179661527802715" lon="8.982681917041235"><ele>87.5</ele><time>2026-05-01T08:33:20.999Z</time></trkpt><trkpt lat="45.17961538883515" lon="8.982849433710268"><ele>87.75</ele><time>2026-05-01T08:33:21.999Z</time></trkpt><trkpt lat="45.179569656862945" lon="8.983023600405282"><ele>88.0</ele><time>2026-05-01T08:33:22.999Z</time></trkpt><trkpt lat="45.17952356715879" lon="8.983194163999368"><ele>88.2</ele><time>2026-05-01T08:33:23.999Z</time></trkpt><trkpt lat="45.179485235714104" lon="8.98335151330707"><ele>88.4</ele><time>2026-05-01T08:33:24.999Z</time></trkpt><trkpt lat="45.17944499821009" lon="8.983495158138147"><ele>88.60000000000001</ele><time>2026-05-01T08:33:25.999Z</time></trkpt><trkpt lat="45.179401872576584" lon="8.983631880991853"><ele>88.80000000000001</ele><time>2026-05-01T08:33:26.999Z</time></trkpt><trkpt lat="45.17935972148893" lon="8.983773617672147"><ele>89.0</ele><time>2026-05-01T08:33:27.999Z</time></trkpt><trkpt lat="45.17931862394803" lon="8.9839191860967"><ele>89.0</ele><time>2026-05-01T08:33:28.999Z</time></trkpt><trkpt lat="45.17927294527041" lon="8.984070266678867"><ele>89.0</ele><time>2026-05-01T08:33:29.999Z</time></trkpt><trkpt lat="45.17923064109697" lon="8.98422813349881"><ele>89.0</ele><time>2026-05-01T08:33:30.999Z</time></trkpt><trkpt lat="45.179194005570956" lon="8.98437543046836"><ele>89.0</ele><time>2026-05-01T08:33:31.999Z</time></trkpt><trkpt lat="45.17916198960831" lon="8.984536936393859"><ele>89.0</ele><time>2026-05-01T08:33:32.999Z</time></trkpt><trkpt lat="45.179119827238026" lon="8.984696158131552"><ele>89.0</ele><time>2026-05-01T08:33:33.999Z</time></trkpt><trkpt lat="45.17907322990312" lon="8.984857783203175"><ele>89.0</ele><time>2026-05-01T08:33:34.999Z</time></trkpt><trkpt lat="45.1790326625506" lon="8.98502102506397"><ele>89.0</ele><time>2026-05-01T08:33:36Z</time></trkpt><trkpt lat="45.17898873746637" lon="8.985184464987382"><ele>89.0</ele><time>2026-05-01T08:33:37Z</time></trkpt><trkpt lat="45.178939782694805" lon="8.985353241315693"><ele>89.0</ele><time>2026-05-01T08:33:38Z</time></trkpt><trkpt lat="45.178896062703224" lon="8.985525105110312"><ele>89.0</ele><time>2026-05-01T08:33:39Z</time></trkpt><trkpt lat="45.17885416294693" lon="8.985694130384374"><ele>89.0</ele><time>2026-05-01T08:33:40Z</time></trkpt><trkpt lat="45.178812385124125" lon="8.985860785535385"><ele>89.0</ele><time>2026-05-01T08:33:41Z</time></trkpt><trkpt lat="45.17877014367172" lon="8.986023648000812"><ele>89.0</ele><time>2026-05-01T08:33:42Z</time></trkpt><trkpt lat="45.17872161398074" lon="8.986182417227388"><ele>89.0</ele><time>2026-05-01T08:33:43Z</time></trkpt><trkpt lat="45.17867908533487" lon="8.986345037000278"><ele>89.0</ele><time>2026-05-01T08:33:44Z</time></trkpt><trkpt lat="45.178638298023515" lon="8.986502442251192"><ele>89.0</ele><time>2026-05-01T08:33:45Z</time></trkpt><trkpt lat="45.17859763173686" lon="8.98665662297997"><ele>89.0</ele><time>2026-05-01T08:33:46Z</time></trkpt><trkpt lat="45.17855747380728" lon="8.986805291695283"><ele>89.0</ele><time>2026-05-01T08:33:47Z</time></trkpt><trkpt lat="45.17851743609439" lon="8.986951714738135"><ele>89.0</ele><time>2026-05-01T08:33:48Z</time></trkpt><trkpt lat="45.17847842521015" lon="8.987100644069818"><ele>89.25</ele><time>2026-05-01T08:33:49Z</time></trkpt><trkpt lat="45.178440523815965" lon="8.98725076033417"><ele>89.5</ele><time>2026-05-01T08:33:50Z</time></trkpt><trkpt lat="45.17839988458756" lon="8.987401448463899"><ele>89.75</ele><time>2026-05-01T08:33:51Z</time></trkpt><trkpt lat="45.17835963636358" lon="8.987551504046174"><ele>90.0</ele><time>2026-05-01T08:33:52Z</time></trkpt><trkpt lat="45.178311639518235" lon="8.987705920621636"><ele>90.0</ele><time>2026-05-01T08:33:53Z</time></trkpt><trkpt lat="45.17826765655035" lon="8.987865275388232"><ele>90.0</ele><time>2026-05-01T08:33:54Z</time></trkpt><trkpt lat="45.17822228899618" lon="8.988030585053293"><ele>90.0</ele><time>2026-05-01T08:33:55Z</time></trkpt><trkpt lat="45.178180478418994" lon="8.98819273059065"><ele>90.0</ele><time>2026-05-01T08:33:56Z</time></trkpt><trkpt lat="45.17813876180348" lon="8.98835724137224"><ele>90.0</ele><time>2026-05-01T08:33:57Z</time></trkpt><trkpt lat="45.17809037898528" lon="8.988517655642063"><ele>90.0</ele><time>2026-05-01T08:33:58Z</time></trkpt><trkpt lat="45.17804946725677" lon="8.9886846144022"><ele>90.0</ele><time>2026-05-01T08:33:59Z</time></trkpt><trkpt lat="45.17800861692331" lon="8.988851891521948"><ele>90.0</ele><time>2026-05-01T08:34:00Z</time></trkpt><trkpt lat="45.17796843122033" lon="8.989016629795309"><ele>90.5</ele><time>2026-05-01T08:34:01Z</time></trkpt><trkpt lat="45.177926957790916" lon="8.989179571434514"><ele>91.0</ele><time>2026-05-01T08:34:02Z</time></trkpt><trkpt lat="45.177874131930565" lon="8.989329705078601"><ele>91.5</ele><time>2026-05-01T08:34:03Z</time></trkpt><trkpt lat="45.17783769958138" lon="8.989475945459048"><ele>92.0</ele><time>2026-05-01T08:34:04Z</time></trkpt><trkpt lat="45.177804812989535" lon="8.98961350311782"><ele>92.0</ele><time>2026-05-01T08:34:05Z</time></trkpt><trkpt lat="45.17778413870645" lon="8.98974889509676"><ele>92.0</ele><time>2026-05-01T08:34:06Z</time></trkpt><trkpt lat="45.17773877132993" lon="8.989885959625449"><ele>92.0</ele><time>2026-05-01T08:34:07Z</time></trkpt><trkpt lat="45.17769273604276" lon="8.990016180055342"><ele>92.0</ele><time>2026-05-01T08:34:08Z</time></trkpt><trkpt lat="45.17762453485786" lon="8.990106755202431"><ele>92.0</ele><time>2026-05-01T08:34:09Z</time></trkpt><trkpt lat="45.17756661439703" lon="8.990227457709166"><ele>91.8</ele><time>2026-05-01T08:34:10Z</time></trkpt><trkpt lat="45.177522180565155" lon="8.99036260406632"><ele>91.6</ele><time>2026-05-01T08:34:11Z</time></trkpt><trkpt lat="45.177484838532" lon="8.990487576406073"><ele>91.39999999999999</ele><time>2026-05-01T08:34:12Z</time></trkpt><trkpt lat="45.17744870392372" lon="8.990612169100077"><ele>91.19999999999999</ele><time>2026-05-01T08:34:13Z</time></trkpt><trkpt lat="45.177415030859734" lon="8.990730011288079"><ele>91.0</ele><time>2026-05-01T08:34:14Z</time></trkpt><trkpt lat="45.17737964755748" lon="8.990853714771326"><ele>90.85714285714286</ele><time>2026-05-01T08:34:15Z</time></trkpt><trkpt lat="45.17734562912286" lon="8.990972097375224"><ele>90.71428571428572</ele><time>2026-05-01T08:34:16Z</time></trkpt><trkpt lat="45.1773155590501" lon="8.991076739907196"><ele>90.57142857142857</ele><time>2026-05-01T08:34:17Z</time></trkpt><trkpt lat="45.177291546029345" lon="8.991162285951214"><ele>90.42857142857143</ele><time>2026-05-01T08:34:18Z</time></trkpt><trkpt lat="45.17726887901392" lon="8.991247275495754"><ele>90.28571428571429</ele><time>2026-05-01T08:34:19Z</time></trkpt><trkpt lat="45.17724381571789" lon="8.991341250283712"><ele>90.14285714285714</ele><time>2026-05-01T08:34:20Z</time></trkpt><trkpt lat="45.17721866849023" lon="8.991427574380324"><ele>90.0</ele><time>2026-05-01T08:34:21Z</time></trkpt><trkpt lat="45.17719111468805" lon="8.991512698668195"><ele>90.0</ele><time>2026-05-01T08:34:22Z</time></trkpt><trkpt lat="45.17716026166313" lon="8.991605457541977"><ele>90.0</ele><time>2026-05-01T08:34:23Z</time></trkpt><trkpt lat="45.1771288447714" lon="8.991693277045833"><ele>90.0</ele><time>2026-05-01T08:34:24Z</time></trkpt><trkpt lat="45.17709653548287" lon="8.991784928175388"><ele>90.0</ele><time>2026-05-01T08:34:25Z</time></trkpt><trkpt lat="45.17706252387408" lon="8.99188140952044"><ele>90.0</ele><time>2026-05-01T08:34:26Z</time></trkpt><trkpt lat="45.17702668350746" lon="8.991974674679067"><ele>90.0</ele><time>2026-05-01T08:34:27Z</time></trkpt><trkpt lat="45.176987580230865" lon="8.992074501078754"><ele>90.0</ele><time>2026-05-01T08:34:28Z</time></trkpt><trkpt lat="45.17694985526214" lon="8.992170809319054"><ele>90.0</ele><time>2026-05-01T08:34:29Z</time></trkpt><trkpt lat="45.17691002055525" lon="8.992265337409464"><ele>90.0</ele><time>2026-05-01T08:34:30Z</time></trkpt><trkpt lat="45.176867357363456" lon="8.9923643561966"><ele>90.0</ele><time>2026-05-01T08:34:31.001Z</time></trkpt><trkpt lat="45.176822949441636" lon="8.992460353957558"><ele>90.0</ele><time>2026-05-01T08:34:32.001Z</time></trkpt><trkpt lat="45.176774172467304" lon="8.992562636149957"><ele>90.0</ele><time>2026-05-01T08:34:33.001Z</time></trkpt><trkpt lat="45.17672008105461" lon="8.992668613011881"><ele>90.0</ele><time>2026-05-01T08:34:34.001Z</time></trkpt><trkpt lat="45.17666486935953" lon="8.992779274056065"><ele>89.6</ele><time>2026-05-01T08:34:35.001Z</time></trkpt><trkpt lat="45.17660850855785" lon="8.992892239161389"><ele>89.2</ele><time>2026-05-01T08:34:36.001Z</time></trkpt><trkpt lat="45.17655232036578" lon="8.993005804396002"><ele>88.80000000000001</ele><time>2026-05-01T08:34:37.001Z</time></trkpt><trkpt lat="45.176495769213886" lon="8.993118264743163"><ele>88.4</ele><time>2026-05-01T08:34:38.001Z</time></trkpt><trkpt lat="45.176440571115016" lon="8.99323046271722"><ele>88.0</ele><time>2026-05-01T08:34:39.001Z</time></trkpt><trkpt lat="45.17638494091947" lon="8.993344101639073"><ele>88.0</ele><time>2026-05-01T08:34:40.001Z</time></trkpt><trkpt lat="45.176338319112624" lon="8.993462816163898"><ele>88.0</ele><time>2026-05-01T08:34:41.001Z</time></trkpt><trkpt lat="45.17628045652347" lon="8.993553958179671"><ele>88.0</ele><time>2026-05-01T08:34:42.001Z</time></trkpt><trkpt lat="45.176219322397806" lon="8.993630020190196"><ele>88.0</ele><time>2026-05-01T08:34:43.001Z</time></trkpt><trkpt lat="45.176168041256666" lon="8.99370494247372"><ele>88.0</ele><time>2026-05-01T08:34:44.001Z</time></trkpt><trkpt lat="45.17612589093161" lon="8.993781518505227"><ele>88.0</ele><time>2026-05-01T08:34:45.001Z</time></trkpt><trkpt lat="45.176080539600456" lon="8.993854117138692"><ele>88.0</ele><time>2026-05-01T08:34:46.001Z</time></trkpt><trkpt lat="45.17602186551203" lon="8.993988430463952"><ele>88.0</ele><time>2026-05-01T08:34:48.001Z</time></trkpt><trkpt lat="45.17596294021122" lon="8.994112876677706"><ele>88.0</ele><time>2026-05-01T08:34:50.001Z</time></trkpt><trkpt lat="45.175950212091166" lon="8.994245467440631"><ele>88.0</ele><time>2026-05-01T08:34:51.001Z</time></trkpt><trkpt lat="45.17591379273524" lon="8.994322239317498"><ele>88.0</ele><time>2026-05-01T08:34:52.001Z</time></trkpt><trkpt lat="45.175859985522564" lon="8.994436195001427"><ele>87.80000000000001</ele><time>2026-05-01T08:34:53.998Z</time></trkpt><trkpt lat="45.17583789358733" lon="8.99452231849385"><ele>87.6</ele><time>2026-05-01T08:34:57.998Z</time></trkpt><trkpt lat="45.17576926665394" lon="8.99462820665722"><ele>87.4</ele><time>2026-05-01T08:35:00.998Z</time></trkpt><trkpt lat="45.175711911546045" lon="8.994750080483163"><ele>87.19999999999999</ele><time>2026-05-01T08:35:02.998Z</time></trkpt><trkpt lat="45.17565556725311" lon="8.994869968270935"><ele>87.0</ele><time>2026-05-01T08:35:04.999Z</time></trkpt><trkpt lat="45.17559054639278" lon="8.995007366422097"><ele>86.83333333333333</ele><time>2026-05-01T08:35:06.999Z</time></trkpt><trkpt lat="45.175550734458646" lon="8.995091592504759"><ele>86.66666666666667</ele><time>2026-05-01T08:35:07.999Z</time></trkpt><trkpt lat="45.175503464056554" lon="8.995191509868658"><ele>86.5</ele><time>2026-05-01T08:35:08.999Z</time></trkpt><trkpt lat="45.1754501955153" lon="8.995304119062595"><ele>86.33333333333334</ele><time>2026-05-01T08:35:09.999Z</time></trkpt><trkpt lat="45.17539883457345" lon="8.99541269575285"><ele>86.16666666666667</ele><time>2026-05-01T08:35:10.999Z</time></trkpt><trkpt lat="45.17535797709954" lon="8.99549906813718"><ele>86.0</ele><time>2026-05-01T08:35:11.999Z</time></trkpt><trkpt lat="45.17532226013201" lon="8.995574573437501"><ele>86.0</ele><time>2026-05-01T08:35:12.999Z</time></trkpt><trkpt lat="45.17527987144833" lon="8.995664183841814"><ele>86.0</ele><time>2026-05-01T08:35:13.999Z</time></trkpt><trkpt lat="45.17523255306985" lon="8.995763717570952"><ele>86.0</ele><time>2026-05-01T08:35:14.999Z</time></trkpt><trkpt lat="45.175177888552284" lon="8.995878941277034"><ele>86.0</ele><time>2026-05-01T08:35:15.999Z</time></trkpt><trkpt lat="45.17513077195554" lon="8.99597825519618"><ele>86.0</ele><time>2026-05-01T08:35:16.999Z</time></trkpt><trkpt lat="45.17507944808771" lon="8.996088025704694"><ele>86.0</ele><time>2026-05-01T08:35:17.999Z</time></trkpt><trkpt lat="45.175031887617926" lon="8.996190317812182"><ele>86.0</ele><time>2026-05-01T08:35:18.999Z</time></trkpt><trkpt lat="45.17498879193094" lon="8.996283007551783"><ele>86.0</ele><time>2026-05-01T08:35:19.999Z</time></trkpt><trkpt lat="45.17495966597214" lon="8.996372757054592"><ele>86.0</ele><time>2026-05-01T08:35:20.999Z</time></trkpt><trkpt lat="45.174903182561614" lon="8.996440794907137"><ele>86.0</ele><time>2026-05-01T08:35:21.999Z</time></trkpt><trkpt lat="45.17484722983456" lon="8.996491665335034"><ele>86.0</ele><time>2026-05-01T08:35:22.999Z</time></trkpt><trkpt lat="45.17478727737262" lon="8.996539182554509"><ele>86.0</ele><time>2026-05-01T08:35:23.999Z</time></trkpt><trkpt lat="45.174693124450364" lon="8.996595790668906"><ele>86.0</ele><time>2026-05-01T08:35:25Z</time></trkpt><trkpt lat="45.174598360299186" lon="8.996614744745992"><ele>86.0</ele><time>2026-05-01T08:35:26Z</time></trkpt><trkpt lat="45.174518262137966" lon="8.99663051964538"><ele>86.0</ele><time>2026-05-01T08:35:27Z</time></trkpt><trkpt lat="45.17445074428868" lon="8.996640791717784"><ele>86.0</ele><time>2026-05-01T08:35:28Z</time></trkpt><trkpt lat="45.1743655631951" lon="8.996639088448028"><ele>86.0</ele><time>2026-05-01T08:35:29Z</time></trkpt><trkpt lat="45.17426072268056" lon="8.996620893284597"><ele>86.0</ele><time>2026-05-01T08:35:30Z</time></trkpt><trkpt lat="45.174133880250565" lon="8.99656461208609"><ele>86.19999999999999</ele><time>2026-05-01T08:35:31Z</time></trkpt><trkpt lat="45.17402129406449" lon="8.99652512184286"><ele>86.39999999999999</ele><time>2026-05-01T08:35:32Z</time></trkpt><trkpt lat="45.17392406749154" lon="8.996491640162851"><ele>86.6</ele><time>2026-05-01T08:35:33Z</time></trkpt><trkpt lat="45.17381897364738" lon="8.996450434816772"><ele>86.8</ele><time>2026-05-01T08:35:34Z</time></trkpt><trkpt lat="45.173711338334215" lon="8.996396266985602"><ele>87.0</ele><time>2026-05-01T08:35:35Z</time></trkpt><trkpt lat="45.173597344657786" lon="8.996337575468955"><ele>87.0</ele><time>2026-05-01T08:35:36Z</time></trkpt><trkpt lat="45.17347294628628" lon="8.996277502299593"><ele>87.0</ele><time>2026-05-01T08:35:37Z</time></trkpt><trkpt lat="45.173354818389974" lon="8.996214076985243"><ele>87.0</ele><time>2026-05-01T08:35:38Z</time></trkpt><trkpt lat="45.17324934361588" lon="8.99613713206181"><ele>87.0</ele><time>2026-05-01T08:35:39Z</time></trkpt><trkpt lat="45.17313297719028" lon="8.996081500000583"><ele>86.75</ele><time>2026-05-01T08:35:40Z</time></trkpt><trkpt lat="45.17302223295448" lon="8.996039671616632"><ele>86.5</ele><time>2026-05-01T08:35:41Z</time></trkpt><trkpt lat="45.17290246469381" lon="8.996005246264641"><ele>86.25</ele><time>2026-05-01T08:35:42Z</time></trkpt><trkpt lat="45.172773022393564" lon="8.995989585024768"><ele>86.0</ele><time>2026-05-01T08:35:43Z</time></trkpt><trkpt lat="45.172641305586616" lon="8.995977662330962"><ele>86.0</ele><time>2026-05-01T08:35:44Z</time></trkpt><trkpt lat="45.1725149322363" lon="8.995954223685711"><ele>86.0</ele><time>2026-05-01T08:35:45Z</time></trkpt><trkpt lat="45.172375850111465" lon="8.995909132713784"><ele>86.0</ele><time>2026-05-01T08:35:46Z</time></trkpt><trkpt lat="45.172242581034176" lon="8.99586368005797"><ele>86.0</ele><time>2026-05-01T08:35:47Z</time></trkpt><trkpt lat="45.17211136515355" lon="8.995806351293819"><ele>86.25</ele><time>2026-05-01T08:35:48Z</time></trkpt><trkpt lat="45.1719910421745" lon="8.995753417143396"><ele>86.5</ele><time>2026-05-01T08:35:49Z</time></trkpt><trkpt lat="45.171878306068805" lon="8.995700801852777"><ele>86.75</ele><time>2026-05-01T08:35:50Z</time></trkpt><trkpt lat="45.17176202897552" lon="8.995655571668244"><ele>87.0</ele><time>2026-05-01T08:35:51Z</time></trkpt><trkpt lat="45.17164484028915" lon="8.995622351673735"><ele>86.5</ele><time>2026-05-01T08:35:52Z</time></trkpt><trkpt lat="45.17151945220987" lon="8.995597091392025"><ele>86.0</ele><time>2026-05-01T08:35:53Z</time></trkpt><trkpt lat="45.171377989124075" lon="8.99557709766957"><ele>85.5</ele><time>2026-05-01T08:35:54Z</time></trkpt><trkpt lat="45.17123101598304" lon="8.995551937903015"><ele>85.0</ele><time>2026-05-01T08:35:55Z</time></trkpt><trkpt lat="45.171073492747546" lon="8.99550651461222"><ele>85.0</ele><time>2026-05-01T08:35:56Z</time></trkpt><trkpt lat="45.17091174749634" lon="8.99546742087019"><ele>85.0</ele><time>2026-05-01T08:35:57Z</time></trkpt><trkpt lat="45.170759500355395" lon="8.995435697268665"><ele>85.0</ele><time>2026-05-01T08:35:58Z</time></trkpt><trkpt lat="45.170605683637035" lon="8.995418473807465"><ele>85.0</ele><time>2026-05-01T08:35:59Z</time></trkpt><trkpt lat="45.170446078214724" lon="8.995418114462462"><ele>85.0</ele><time>2026-05-01T08:36:00Z</time></trkpt><trkpt lat="45.17027917811132" lon="8.995424094155757"><ele>85.0</ele><time>2026-05-01T08:36:01Z</time></trkpt><trkpt lat="45.170109344423366" lon="8.995425933448995"><ele>85.0</ele><time>2026-05-01T08:36:02Z</time></trkpt><trkpt lat="45.169940020400425" lon="8.99542151023599"><ele>85.0</ele><time>2026-05-01T08:36:03.001Z</time></trkpt><trkpt lat="45.16976286668638" lon="8.995413316500693"><ele>85.0</ele><time>2026-05-01T08:36:04.001Z</time></trkpt><trkpt lat="45.16958774702084" lon="8.995403073810685"><ele>85.33333333333333</ele><time>2026-05-01T08:36:05.001Z</time></trkpt><trkpt lat="45.16940796577798" lon="8.995401809243084"><ele>85.66666666666667</ele><time>2026-05-01T08:36:06.001Z</time></trkpt><trkpt lat="45.16922585556535" lon="8.995393190048457"><ele>86.0</ele><time>2026-05-01T08:36:07.001Z</time></trkpt><trkpt lat="45.16903893508191" lon="8.995366032523085"><ele>85.66666666666667</ele><time>2026-05-01T08:36:08.001Z</time></trkpt><trkpt lat="45.168828846257455" lon="8.995329677732775"><ele>85.33333333333333</ele><time>2026-05-01T08:36:09.001Z</time></trkpt><trkpt lat="45.168641955559984" lon="8.995263467953208"><ele>85.0</ele><time>2026-05-01T08:36:10.001Z</time></trkpt><trkpt lat="45.16843519812467" lon="8.995194514737856"><ele>85.0</ele><time>2026-05-01T08:36:11.001Z</time></trkpt><trkpt lat="45.16822574531842" lon="8.995128501368312"><ele>85.0</ele><time>2026-05-01T08:36:12.001Z</time></trkpt><trkpt lat="45.16803509181529" lon="8.995076528816897"><ele>85.0</ele><time>2026-05-01T08:36:13.001Z</time></trkpt><trkpt lat="45.167849962908676" lon="8.995025336129022"><ele>85.0</ele><time>2026-05-01T08:36:14.001Z</time></trkpt><trkpt lat="45.16766906910883" lon="8.994974119183055"><ele>85.0</ele><time>2026-05-01T08:36:15.001Z</time></trkpt><trkpt lat="45.167507254906745" lon="8.994927489161684"><ele>85.0</ele><time>2026-05-01T08:36:16.001Z</time></trkpt><trkpt lat="45.167359001005856" lon="8.994882550839122"><ele>85.0</ele><time>2026-05-01T08:36:17.001Z</time></trkpt><trkpt lat="45.16721940902235" lon="8.994839921611678"><ele>85.0</ele><time>2026-05-01T08:36:18.001Z</time></trkpt><trkpt lat="45.16708699356887" lon="8.994799748277648"><ele>85.0</ele><time>2026-05-01T08:36:19.001Z</time></trkpt><trkpt lat="45.1669569687195" lon="8.994759770735184"><ele>85.0</ele><time>2026-05-01T08:36:20.001Z</time></trkpt><trkpt lat="45.166834486711245" lon="8.994718797803898"><ele>85.0</ele><time>2026-05-01T08:36:21.001Z</time></trkpt><trkpt lat="45.166708544647754" lon="8.994678961624093"><ele>85.0</ele><time>2026-05-01T08:36:22.001Z</time></trkpt><trkpt lat="45.16658122570433" lon="8.99464042256216"><ele>85.0</ele><time>2026-05-01T08:36:23.001Z</time></trkpt><trkpt lat="45.166454554209075" lon="8.994599916174723"><ele>85.0</ele><time>2026-05-01T08:36:24.001Z</time></trkpt><trkpt lat="45.1663411745366" lon="8.994573319549685"><ele>85.0</ele><time>2026-05-01T08:36:25.001Z</time></trkpt><trkpt lat="45.166232968133045" lon="8.994557210685242"><ele>85.0</ele><time>2026-05-01T08:36:26.001Z</time></trkpt><trkpt lat="45.166126081202094" lon="8.994557075987304"><ele>85.0</ele><time>2026-05-01T08:36:27.001Z</time></trkpt><trkpt lat="45.16602047382736" lon="8.99456449813848"><ele>85.0</ele><time>2026-05-01T08:36:28.001Z</time></trkpt><trkpt lat="45.16590917464846" lon="8.994576282706344"><ele>85.0</ele><time>2026-05-01T08:36:29.001Z</time></trkpt><trkpt lat="45.16579201327727" lon="8.994583463473557"><ele>85.25</ele><time>2026-05-01T08:36:30.001Z</time></trkpt><trkpt lat="45.165668147555664" lon="8.994590813957029"><ele>85.5</ele><time>2026-05-01T08:36:31.001Z</time></trkpt><trkpt lat="45.16553517284991" lon="8.994595302684514"><ele>85.75</ele><time>2026-05-01T08:36:32.001Z</time></trkpt><trkpt lat="45.16539463703998" lon="8.994594509541777"><ele>86.0</ele><time>2026-05-01T08:36:33.001Z</time></trkpt><trkpt lat="45.165249041776036" lon="8.99459507749064"><ele>86.0</ele><time>2026-05-01T08:36:34.001Z</time></trkpt><trkpt lat="45.16510237336384" lon="8.994597625931632"><ele>86.0</ele><time>2026-05-01T08:36:35.001Z</time></trkpt><trkpt lat="45.16496576785788" lon="8.994602646762246"><ele>86.0</ele><time>2026-05-01T08:36:36.001Z</time></trkpt><trkpt lat="45.16483546016482" lon="8.994610211164003"><ele>86.0</ele><time>2026-05-01T08:36:37.001Z</time></trkpt><trkpt lat="45.16471720260589" lon="8.994614567676338"><ele>86.0</ele><time>2026-05-01T08:36:38.001Z</time></trkpt><trkpt lat="45.16461890689078" lon="8.994621883181878"><ele>86.0</ele><time>2026-05-01T08:36:39.001Z</time></trkpt><trkpt lat="45.1645390506733" lon="8.994637855375766"><ele>86.0</ele><time>2026-05-01T08:36:40.001Z</time></trkpt><trkpt lat="45.16445559040517" lon="8.994641454758423"><ele>86.0</ele><time>2026-05-01T08:36:42.001Z</time></trkpt><trkpt lat="45.16444391345239" lon="8.994817076875005"><ele>86.0</ele><time>2026-05-01T08:36:44.001Z</time></trkpt><trkpt lat="45.164457988234936" lon="8.995029730094597"><ele>86.0</ele><time>2026-05-01T08:36:46.001Z</time></trkpt><trkpt lat="45.16446788126491" lon="8.995179928048026"><ele>86.0</ele><time>2026-05-01T08:36:47.001Z</time></trkpt><trkpt lat="45.164481847137836" lon="8.995332189470787"><ele>86.0</ele><time>2026-05-01T08:36:48.001Z</time></trkpt><trkpt lat="45.16449841974375" lon="8.995512870657752"><ele>86.0</ele><time>2026-05-01T08:36:49.002Z</time></trkpt><trkpt lat="45.164516291253165" lon="8.995707712972344"><ele>86.0</ele><time>2026-05-01T08:36:50.002Z</time></trkpt><trkpt lat="45.164533212707866" lon="8.995900939634376"><ele>86.0</ele><time>2026-05-01T08:36:51.002Z</time></trkpt><trkpt lat="45.16455062137837" lon="8.99609391565704"><ele>86.0</ele><time>2026-05-01T08:36:52.002Z</time></trkpt><trkpt lat="45.164588531946166" lon="8.996293968964967"><ele>86.0</ele><time>2026-05-01T08:36:53.002Z</time></trkpt><trkpt lat="45.16461294769807" lon="8.996497566998935"><ele>86.0</ele><time>2026-05-01T08:36:54.002Z</time></trkpt><trkpt lat="45.16463821807359" lon="8.99670604966701"><ele>86.0</ele><time>2026-05-01T08:36:55.002Z</time></trkpt><trkpt lat="45.164661974443455" lon="8.996910786551899"><ele>86.0</ele><time>2026-05-01T08:36:56.002Z</time></trkpt><trkpt lat="45.16468005836155" lon="8.997082075194248"><ele>86.0</ele><time>2026-05-01T08:36:57.002Z</time></trkpt><trkpt lat="45.16467825205572" lon="8.99724956869897"><ele>86.0</ele><time>2026-05-01T08:36:58.002Z</time></trkpt><trkpt lat="45.16469393207779" lon="8.997437318964812"><ele>86.0</ele><time>2026-05-01T08:36:59Z</time></trkpt><trkpt lat="45.16471379996291" lon="8.997634828916716"><ele>86.0</ele><time>2026-05-01T08:37:00Z</time></trkpt><trkpt lat="45.164733613097475" lon="8.997829697281325"><ele>86.0</ele><time>2026-05-01T08:37:01Z</time></trkpt><trkpt lat="45.164754241910046" lon="8.998017992493901"><ele>86.25</ele><time>2026-05-01T08:37:02Z</time></trkpt><trkpt lat="45.164788807220916" lon="8.998189670000283"><ele>86.5</ele><time>2026-05-01T08:37:03Z</time></trkpt><trkpt lat="45.16480372188934" lon="8.998366779723698"><ele>86.75</ele><time>2026-05-01T08:37:04Z</time></trkpt><trkpt lat="45.16482421765975" lon="8.998539491835583"><ele>87.0</ele><time>2026-05-01T08:37:05Z</time></trkpt><trkpt lat="45.16482997486076" lon="8.998699060590468"><ele>87.19999999999999</ele><time>2026-05-01T08:37:06Z</time></trkpt><trkpt lat="45.164837237945186" lon="8.998834612488348"><ele>87.4</ele><time>2026-05-01T08:37:07Z</time></trkpt><trkpt lat="45.164834306563996" lon="8.998947741860352"><ele>87.6</ele><time>2026-05-01T08:37:08Z</time></trkpt><trkpt lat="45.164820282865634" lon="8.99907309997055"><ele>87.80000000000001</ele><time>2026-05-01T08:37:09Z</time></trkpt><trkpt lat="45.16479626943838" lon="8.9991943619192"><ele>88.0</ele><time>2026-05-01T08:37:10Z</time></trkpt><trkpt lat="45.164766732243514" lon="8.999336040954887"><ele>87.60000000000001</ele><time>2026-05-01T08:37:11Z</time></trkpt><trkpt lat="45.1647378123234" lon="8.999471838285475"><ele>87.2</ele><time>2026-05-01T08:37:12Z</time></trkpt><trkpt lat="45.164709286159464" lon="8.99959036282141"><ele>86.8</ele><time>2026-05-01T08:37:13Z</time></trkpt><trkpt lat="45.16467813162816" lon="8.999716979477357"><ele>86.4</ele><time>2026-05-01T08:37:14Z</time></trkpt><trkpt lat="45.16464754951587" lon="8.999838117408617"><ele>86.0</ele><time>2026-05-01T08:37:15Z</time></trkpt><trkpt lat="45.16461578122356" lon="8.999960693410467"><ele>86.0</ele><time>2026-05-01T08:37:16Z</time></trkpt><trkpt lat="45.164586508731865" lon="9.00007859321097"><ele>86.0</ele><time>2026-05-01T08:37:17Z</time></trkpt><trkpt lat="45.164560699312275" lon="9.000212843079785"><ele>86.0</ele><time>2026-05-01T08:37:18Z</time></trkpt><trkpt lat="45.16454276502006" lon="9.000358688575707"><ele>86.0</ele><time>2026-05-01T08:37:19Z</time></trkpt><trkpt lat="45.164529881802274" lon="9.000528487887589"><ele>86.0</ele><time>2026-05-01T08:37:20Z</time></trkpt><trkpt lat="45.16452212598409" lon="9.000700039990926"><ele>86.0</ele><time>2026-05-01T08:37:21Z</time></trkpt><trkpt lat="45.164517677133176" lon="9.000860828147216"><ele>86.0</ele><time>2026-05-01T08:37:22Z</time></trkpt><trkpt lat="45.1645177730034" lon="9.001009436935096"><ele>86.0</ele><time>2026-05-01T08:37:23Z</time></trkpt><trkpt lat="45.16451950157563" lon="9.001151772707836"><ele>86.0</ele><time>2026-05-01T08:37:24Z</time></trkpt><trkpt lat="45.16453858369755" lon="9.00129376401863"><ele>86.0</ele><time>2026-05-01T08:37:25Z</time></trkpt><trkpt lat="45.16452623993155" lon="9.001432011954936"><ele>86.0</ele><time>2026-05-01T08:37:26Z</time></trkpt><trkpt lat="45.164531253722735" lon="9.001569684954323"><ele>86.0</ele><time>2026-05-01T08:37:27Z</time></trkpt><trkpt lat="45.164552326500015" lon="9.001708001948636"><ele>86.0</ele><time>2026-05-01T08:37:28Z</time></trkpt><trkpt lat="45.164541629168525" lon="9.001846594174966"><ele>86.0</ele><time>2026-05-01T08:37:29Z</time></trkpt><trkpt lat="45.164564998917605" lon="9.001946398832466"><ele>86.0</ele><time>2026-05-01T08:37:30.001Z</time></trkpt><trkpt lat="45.16457304152635" lon="9.00205419505647"><ele>86.0</ele><time>2026-05-01T08:37:31.001Z</time></trkpt><trkpt lat="45.16458538996058" lon="9.00215111959163"><ele>85.66666666666667</ele><time>2026-05-01T08:37:32.001Z</time></trkpt><trkpt lat="45.16456637055013" lon="9.00227593558021"><ele>85.33333333333334</ele><time>2026-05-01T08:37:34.001Z</time></trkpt><trkpt lat="45.16452300863747" lon="9.002343695304612"><ele>85.0</ele><time>2026-05-01T08:37:36.001Z</time></trkpt><trkpt lat="45.16444582478454" lon="9.002303871997603"><ele>84.66666666666667</ele><time>2026-05-01T08:37:38.001Z</time></trkpt><trkpt lat="45.164377686332486" lon="9.002318363341548"><ele>84.33333333333333</ele><time>2026-05-01T08:37:40.001Z</time></trkpt><trkpt lat="45.16429161443029" lon="9.002336668720874"><ele>84.0</ele><time>2026-05-01T08:37:42.001Z</time></trkpt><trkpt lat="45.16417811662809" lon="9.002360806872147"><ele>84.0</ele><time>2026-05-01T08:37:44.001Z</time></trkpt><trkpt lat="45.164058992356864" lon="9.002394793112819"><ele>84.0</ele><time>2026-05-01T08:37:46.001Z</time></trkpt><trkpt lat="45.16399914219016" lon="9.00242290552682"><ele>84.0</ele><time>2026-05-01T08:37:47.001Z</time></trkpt><trkpt lat="45.163925808062615" lon="9.002476923366453"><ele>84.0</ele><time>2026-05-01T08:37:48.001Z</time></trkpt><trkpt lat="45.163859108969476" lon="9.002542541340151"><ele>84.0</ele><time>2026-05-01T08:37:49.001Z</time></trkpt><trkpt lat="45.16380090341234" lon="9.002613720797788"><ele>84.0</ele><time>2026-05-01T08:37:50.001Z</time></trkpt><trkpt lat="45.16375126899219" lon="9.0026791203757"><ele>84.5</ele><time>2026-05-01T08:37:51.001Z</time></trkpt><trkpt lat="45.16370064759011" lon="9.00274631820173"><ele>85.0</ele><time>2026-05-01T08:37:52.001Z</time></trkpt><trkpt lat="45.163644371820375" lon="9.002821021876342"><ele>85.5</ele><time>2026-05-01T08:37:53.001Z</time></trkpt><trkpt lat="45.163583302279235" lon="9.002903672266978"><ele>86.0</ele><time>2026-05-01T08:37:54.001Z</time></trkpt><trkpt lat="45.16351519765434" lon="9.003013333683375"><ele>86.5</ele><time>2026-05-01T08:37:55.001Z</time></trkpt><trkpt lat="45.16345251998033" lon="9.003123834883054"><ele>87.0</ele><time>2026-05-01T08:37:56.001Z</time></trkpt><trkpt lat="45.16340165219346" lon="9.003216345142766"><ele>87.0</ele><time>2026-05-01T08:37:57.001Z</time></trkpt><trkpt lat="45.16335904956311" lon="9.0032984114797"><ele>87.0</ele><time>2026-05-01T08:37:58.001Z</time></trkpt><trkpt lat="45.163302844563475" lon="9.003424939855572"><ele>87.0</ele><time>2026-05-01T08:38:00.001Z</time></trkpt><trkpt lat="45.16326119434473" lon="9.003502429172029"><ele>87.0</ele><time>2026-05-01T08:38:16.001Z</time></trkpt><trkpt lat="45.16319715438535" lon="9.003644425659125"><ele>87.0</ele><time>2026-05-01T08:38:18.002Z</time></trkpt><trkpt lat="45.16315603921051" lon="9.00373728368234"><ele>87.0</ele><time>2026-05-01T08:38:19.002Z</time></trkpt><trkpt lat="45.1631127723878" lon="9.003835001079032"><ele>87.0</ele><time>2026-05-01T08:38:20.002Z</time></trkpt><trkpt lat="45.16307364702041" lon="9.00392336522716"><ele>87.0</ele><time>2026-05-01T08:38:21.002Z</time></trkpt><trkpt lat="45.163055047555524" lon="9.004012565840004"><ele>87.0</ele><time>2026-05-01T08:38:22.002Z</time></trkpt><trkpt lat="45.16299881976475" lon="9.004143087636887"><ele>87.0</ele><time>2026-05-01T08:38:24.002Z</time></trkpt><trkpt lat="45.16292925300475" lon="9.0042963955924"><ele>87.0</ele><time>2026-05-01T08:38:26.002Z</time></trkpt><trkpt lat="45.1628844809111" lon="9.004380457303997"><ele>87.0</ele><time>2026-05-01T08:38:27.002Z</time></trkpt><trkpt lat="45.162824811071076" lon="9.004470975502299"><ele>87.0</ele><time>2026-05-01T08:38:28.002Z</time></trkpt><trkpt lat="45.16274823266998" lon="9.004568682867413"><ele>87.0</ele><time>2026-05-01T08:38:29.002Z</time></trkpt><trkpt lat="45.162661719218264" lon="9.004673205625538"><ele>87.0</ele><time>2026-05-01T08:38:30.002Z</time></trkpt><trkpt lat="45.1625784223426" lon="9.00476597309891"><ele>87.0</ele><time>2026-05-01T08:38:31.002Z</time></trkpt><trkpt lat="45.162489005407345" lon="9.0048667257126"><ele>87.0</ele><time>2026-05-01T08:38:32.002Z</time></trkpt><trkpt lat="45.16238464930725" lon="9.004961864056783"><ele>87.0</ele><time>2026-05-01T08:38:33.002Z</time></trkpt><trkpt lat="45.1622791629449" lon="9.005062170313762"><ele>87.0</ele><time>2026-05-01T08:38:34.002Z</time></trkpt><trkpt lat="45.16216441848238" lon="9.00515919642931"><ele>87.0</ele><time>2026-05-01T08:38:35.002Z</time></trkpt><trkpt lat="45.16204345620162" lon="9.005243730054469"><ele>86.25</ele><time>2026-05-01T08:38:36.002Z</time></trkpt><trkpt lat="45.16191386646422" lon="9.005316670494059"><ele>85.5</ele><time>2026-05-01T08:38:37.002Z</time></trkpt><trkpt lat="45.16178023418632" lon="9.005378025888085"><ele>84.75</ele><time>2026-05-01T08:38:38.002Z</time></trkpt><trkpt lat="45.161641182793325" lon="9.005418092415763"><ele>84.0</ele><time>2026-05-01T08:38:39.002Z</time></trkpt><trkpt lat="45.161501338678015" lon="9.005477066692029"><ele>84.0</ele><time>2026-05-01T08:38:40.002Z</time></trkpt><trkpt lat="45.161364957045066" lon="9.00556177046786"><ele>84.0</ele><time>2026-05-01T08:38:41.002Z</time></trkpt><trkpt lat="45.16122377969378" lon="9.005630155785328"><ele>84.0</ele><time>2026-05-01T08:38:42.002Z</time></trkpt><trkpt lat="45.16108815174437" lon="9.005696059698248"><ele>84.0</ele><time>2026-05-01T08:38:43.002Z</time></trkpt><trkpt lat="45.160970156033095" lon="9.005765350032352"><ele>84.0</ele><time>2026-05-01T08:38:44.002Z</time></trkpt><trkpt lat="45.16084043925949" lon="9.005816324414418"><ele>84.0</ele><time>2026-05-01T08:38:45.002Z</time></trkpt><trkpt lat="45.16072055557344" lon="9.005891315414203"><ele>84.0</ele><time>2026-05-01T08:38:46.002Z</time></trkpt><trkpt lat="45.16061555050796" lon="9.005952756548378"><ele>84.0</ele><time>2026-05-01T08:38:47.002Z</time></trkpt><trkpt lat="45.16051274460519" lon="9.006015123222602"><ele>83.80000000000001</ele><time>2026-05-01T08:38:48.002Z</time></trkpt><trkpt lat="45.16042014574035" lon="9.006103884901739"><ele>83.60000000000001</ele><time>2026-05-01T08:38:49.002Z</time></trkpt><trkpt lat="45.16032932335349" lon="9.006185297475254"><ele>83.4</ele><time>2026-05-01T08:38:50.002Z</time></trkpt><trkpt lat="45.16025046411897" lon="9.006284498744394"><ele>83.2</ele><time>2026-05-01T08:38:51.002Z</time></trkpt><trkpt lat="45.160177540526526" lon="9.00640265634669"><ele>83.0</ele><time>2026-05-01T08:38:52.002Z</time></trkpt><trkpt lat="45.16011000970145" lon="9.006544001856382"><ele>83.5</ele><time>2026-05-01T08:38:53.002Z</time></trkpt><trkpt lat="45.16004270528" lon="9.006701551094206"><ele>84.0</ele><time>2026-05-01T08:38:54.002Z</time></trkpt><trkpt lat="45.159974029002036" lon="9.006868637616318"><ele>84.5</ele><time>2026-05-01T08:38:55.002Z</time></trkpt><trkpt lat="45.15990845882401" lon="9.007016576754895"><ele>85.0</ele><time>2026-05-01T08:38:56.002Z</time></trkpt><trkpt lat="45.15984545044765" lon="9.00713963478837"><ele>85.0</ele><time>2026-05-01T08:38:57.002Z</time></trkpt><trkpt lat="45.159797451246064" lon="9.007257673252168"><ele>85.0</ele><time>2026-05-01T08:38:58.002Z</time></trkpt><trkpt lat="45.159755224023954" lon="9.00735672472344"><ele>85.0</ele><time>2026-05-01T08:38:59.002Z</time></trkpt><trkpt lat="45.159716640675406" lon="9.007428201447517"><ele>85.0</ele><time>2026-05-01T08:39:00.002Z</time></trkpt><trkpt lat="45.15963250250328" lon="9.007471223365016"><ele>85.0</ele><time>2026-05-01T08:39:02.002Z</time></trkpt><trkpt lat="45.15956872701161" lon="9.007422969887497"><ele>85.0</ele><time>2026-05-01T08:39:03.002Z</time></trkpt><trkpt lat="45.15948582959902" lon="9.007402728021832"><ele>85.0</ele><time>2026-05-01T08:39:04.002Z</time></trkpt><trkpt lat="45.15937212288699" lon="9.0073833556338"><ele>85.0</ele><time>2026-05-01T08:39:05.001Z</time></trkpt><trkpt lat="45.159234018335056" lon="9.007377541360515"><ele>85.0</ele><time>2026-05-01T08:39:06.001Z</time></trkpt><trkpt lat="45.15912048486975" lon="9.0073482708446"><ele>85.0</ele><time>2026-05-01T08:39:07.001Z</time></trkpt><trkpt lat="45.15900863892333" lon="9.007331325238889"><ele>84.75</ele><time>2026-05-01T08:39:08.001Z</time></trkpt><trkpt lat="45.1588918637899" lon="9.007315677433667"><ele>84.5</ele><time>2026-05-01T08:39:09.001Z</time></trkpt><trkpt lat="45.15877381413432" lon="9.007276165635535"><ele>84.25</ele><time>2026-05-01T08:39:10.001Z</time></trkpt><trkpt lat="45.158654556875675" lon="9.007278371448663"><ele>84.0</ele><time>2026-05-01T08:39:11.001Z</time></trkpt><trkpt lat="45.15854119310885" lon="9.007251536674099"><ele>84.0</ele><time>2026-05-01T08:39:12.001Z</time></trkpt><trkpt lat="45.158430472324255" lon="9.00723858179378"><ele>84.0</ele><time>2026-05-01T08:39:13.001Z</time></trkpt><trkpt lat="45.15833033870789" lon="9.007220202164742"><ele>84.0</ele><time>2026-05-01T08:39:14.001Z</time></trkpt><trkpt lat="45.15822934132128" lon="9.007198272303757"><ele>84.0</ele><time>2026-05-01T08:39:15.001Z</time></trkpt><trkpt lat="45.158140021788604" lon="9.0071843887178"><ele>84.0</ele><time>2026-05-01T08:39:16.001Z</time></trkpt><trkpt lat="45.15804918790832" lon="9.007176763313572"><ele>84.0</ele><time>2026-05-01T08:39:17.001Z</time></trkpt><trkpt lat="45.1579564462664" lon="9.007155580776107"><ele>84.0</ele><time>2026-05-01T08:39:18.001Z</time></trkpt><trkpt lat="45.157859594307546" lon="9.007149220998912"><ele>84.0</ele><time>2026-05-01T08:39:19.001Z</time></trkpt><trkpt lat="45.15776469013113" lon="9.007138949463176"><ele>84.0</ele><time>2026-05-01T08:39:20.001Z</time></trkpt><trkpt lat="45.15767036163161" lon="9.007123130528223"><ele>84.0</ele><time>2026-05-01T08:39:21.001Z</time></trkpt><trkpt lat="45.15758306861945" lon="9.007121571048355"><ele>84.0</ele><time>2026-05-01T08:39:22.001Z</time></trkpt><trkpt lat="45.157511663290386" lon="9.007113837781446"><ele>84.0</ele><time>2026-05-01T08:39:23.001Z</time></trkpt><trkpt lat="45.15744700867415" lon="9.007104200211888"><ele>84.0</ele><time>2026-05-01T08:39:24.001Z</time></trkpt><trkpt lat="45.15733504979879" lon="9.007087095608385"><ele>84.0</ele><time>2026-05-01T08:39:26.001Z</time></trkpt><trkpt lat="45.15726505405663" lon="9.007092087205612"><ele>84.0</ele><time>2026-05-01T08:39:27.001Z</time></trkpt><trkpt lat="45.15718754679095" lon="9.007083622400277"><ele>84.0</ele><time>2026-05-01T08:39:28.001Z</time></trkpt><trkpt lat="45.15710794966705" lon="9.007068252500353"><ele>84.33333333333333</ele><time>2026-05-01T08:39:29.001Z</time></trkpt><trkpt lat="45.157024543904896" lon="9.007070072685305"><ele>84.66666666666667</ele><time>2026-05-01T08:39:30.001Z</time></trkpt><trkpt lat="45.15693802087699" lon="9.007051000695977"><ele>85.0</ele><time>2026-05-01T08:39:31.001Z</time></trkpt><trkpt lat="45.156847114458685" lon="9.007063144232147"><ele>85.33333333333334</ele><time>2026-05-01T08:39:32.001Z</time></trkpt><trkpt lat="45.15675265966514" lon="9.007045299415813"><ele>85.66666666666667</ele><time>2026-05-01T08:39:33.001Z</time></trkpt><trkpt lat="45.15666729722302" lon="9.007070875681165"><ele>86.0</ele><time>2026-05-01T08:39:34.001Z</time></trkpt><trkpt lat="45.156583179202975" lon="9.007076353819638"><ele>85.83333333333334</ele><time>2026-05-01T08:39:35.001Z</time></trkpt><trkpt lat="45.15650842865191" lon="9.007087170553257"><ele>85.66666666666667</ele><time>2026-05-01T08:39:36.001Z</time></trkpt><trkpt lat="45.156437483261485" lon="9.007091886435111"><ele>85.5</ele><time>2026-05-01T08:39:37.001Z</time></trkpt><trkpt lat="45.15635270068233" lon="9.007111362585482"><ele>85.33333333333333</ele><time>2026-05-01T08:39:38.001Z</time></trkpt><trkpt lat="45.15626110759806" lon="9.007137150759016"><ele>85.16666666666666</ele><time>2026-05-01T08:39:39.001Z</time></trkpt><trkpt lat="45.156175774902266" lon="9.007139278962702"><ele>85.0</ele><time>2026-05-01T08:39:40.001Z</time></trkpt><trkpt lat="45.15605999225436" lon="9.007181446191328"><ele>85.0</ele><time>2026-05-01T08:39:41.001Z</time></trkpt><trkpt lat="45.15596605129895" lon="9.007211478227337"><ele>85.0</ele><time>2026-05-01T08:39:42.001Z</time></trkpt><trkpt lat="45.15588556918361" lon="9.007229382679087"><ele>85.0</ele><time>2026-05-01T08:39:43.001Z</time></trkpt><trkpt lat="45.155778053431874" lon="9.007263476658222"><ele>85.0</ele><time>2026-05-01T08:39:44.001Z</time></trkpt><trkpt lat="45.15567287931894" lon="9.00727540309232"><ele>85.0</ele><time>2026-05-01T08:39:45.001Z</time></trkpt><trkpt lat="45.15556847208818" lon="9.007283315210891"><ele>85.0</ele><time>2026-05-01T08:39:46.001Z</time></trkpt><trkpt lat="45.15546519365569" lon="9.007308150987047"><ele>85.0</ele><time>2026-05-01T08:39:47.001Z</time></trkpt><trkpt lat="45.15536449477148" lon="9.007339123324975"><ele>85.0</ele><time>2026-05-01T08:39:48.001Z</time></trkpt><trkpt lat="45.155260307413535" lon="9.00736364852279"><ele>85.0</ele><time>2026-05-01T08:39:49.001Z</time></trkpt><trkpt lat="45.15514062268924" lon="9.007389729953953"><ele>85.0</ele><time>2026-05-01T08:39:50.001Z</time></trkpt><trkpt lat="45.155019796094905" lon="9.007424130114893"><ele>85.0</ele><time>2026-05-01T08:39:51.001Z</time></trkpt><trkpt lat="45.154896807058336" lon="9.007459700399842"><ele>85.0</ele><time>2026-05-01T08:39:52.001Z</time></trkpt><trkpt lat="45.15477127628041" lon="9.007494804596481"><ele>85.0</ele><time>2026-05-01T08:39:53.001Z</time></trkpt><trkpt lat="45.1546478546728" lon="9.007530350006192"><ele>85.0</ele><time>2026-05-01T08:39:54.001Z</time></trkpt><trkpt lat="45.15451618236233" lon="9.00756233309018"><ele>85.0</ele><time>2026-05-01T08:39:55.001Z</time></trkpt><trkpt lat="45.15438422568126" lon="9.00758793960182"><ele>85.0</ele><time>2026-05-01T08:39:56.001Z</time></trkpt><trkpt lat="45.154262555581035" lon="9.00760844035774"><ele>85.0</ele><time>2026-05-01T08:39:57.001Z</time></trkpt><trkpt lat="45.154142996541225" lon="9.007611217499546"><ele>85.0</ele><time>2026-05-01T08:39:58.001Z</time></trkpt><trkpt lat="45.15402071725948" lon="9.007615550490387"><ele>85.0</ele><time>2026-05-01T08:39:59.001Z</time></trkpt><trkpt lat="45.15389758686868" lon="9.007621875515268"><ele>85.0</ele><time>2026-05-01T08:40:00.001Z</time></trkpt><trkpt lat="45.15377139183546" lon="9.007632587216136"><ele>85.0</ele><time>2026-05-01T08:40:01.001Z</time></trkpt><trkpt lat="45.15363953225745" lon="9.00763925084446"><ele>85.0</ele><time>2026-05-01T08:40:02.001Z</time></trkpt><trkpt lat="45.15350877696554" lon="9.007652874912846"><ele>85.0</ele><time>2026-05-01T08:40:03.001Z</time></trkpt><trkpt lat="45.153380857625464" lon="9.007664379806872"><ele>85.0</ele><time>2026-05-01T08:40:04.001Z</time></trkpt><trkpt lat="45.15325407622895" lon="9.007674188523847"><ele>85.0</ele><time>2026-05-01T08:40:05.001Z</time></trkpt><trkpt lat="45.15312833112398" lon="9.007675843714482"><ele>85.0</ele><time>2026-05-01T08:40:06.001Z</time></trkpt><trkpt lat="45.15300639222091" lon="9.00769799163531"><ele>84.75</ele><time>2026-05-01T08:40:07.001Z</time></trkpt><trkpt lat="45.15287615046177" lon="9.007703571775611"><ele>84.5</ele><time>2026-05-01T08:40:08.001Z</time></trkpt><trkpt lat="45.15275259594279" lon="9.007713359043583"><ele>84.25</ele><time>2026-05-01T08:40:09.001Z</time></trkpt><trkpt lat="45.15262031787537" lon="9.007715454689551"><ele>84.0</ele><time>2026-05-01T08:40:10.001Z</time></trkpt><trkpt lat="45.15248935413179" lon="9.007723638268596"><ele>84.2</ele><time>2026-05-01T08:40:11.001Z</time></trkpt><trkpt lat="45.152366195596066" lon="9.007717768844127"><ele>84.4</ele><time>2026-05-01T08:40:12.001Z</time></trkpt><trkpt lat="45.15225017892324" lon="9.007728978691919"><ele>84.6</ele><time>2026-05-01T08:40:13.001Z</time></trkpt><trkpt lat="45.15214518942204" lon="9.007719061548643"><ele>84.8</ele><time>2026-05-01T08:40:14.001Z</time></trkpt><trkpt lat="45.15204509820204" lon="9.00773075554016"><ele>85.0</ele><time>2026-05-01T08:40:15.001Z</time></trkpt><trkpt lat="45.151949550636445" lon="9.00771397395112"><ele>85.0</ele><time>2026-05-01T08:40:16.001Z</time></trkpt><trkpt lat="45.15186142604042" lon="9.007735500215565"><ele>85.0</ele><time>2026-05-01T08:40:17.001Z</time></trkpt><trkpt lat="45.151784747637336" lon="9.007723009554638"><ele>85.0</ele><time>2026-05-01T08:40:18.002Z</time></trkpt><trkpt lat="45.15168258002002" lon="9.00768477842852"><ele>85.0</ele><time>2026-05-01T08:40:20.002Z</time></trkpt><trkpt lat="45.15156758315336" lon="9.00770246292944"><ele>85.0</ele><time>2026-05-01T08:40:22.002Z</time></trkpt><trkpt lat="45.15144819750911" lon="9.00770155512167"><ele>85.28571428571429</ele><time>2026-05-01T08:40:24.002Z</time></trkpt><trkpt lat="45.15138359785222" lon="9.007695459708755"><ele>85.57142857142857</ele><time>2026-05-01T08:40:25.002Z</time></trkpt><trkpt lat="45.15131994532245" lon="9.007692345803068"><ele>85.85714285714286</ele><time>2026-05-01T08:40:26.002Z</time></trkpt><trkpt lat="45.15125849912806" lon="9.007662434337313"><ele>86.14285714285714</ele><time>2026-05-01T08:40:27.002Z</time></trkpt><trkpt lat="45.151191807753044" lon="9.007654031507316"><ele>86.42857142857143</ele><time>2026-05-01T08:40:28.002Z</time></trkpt><trkpt lat="45.151123043723636" lon="9.007643565185973"><ele>86.71428571428571</ele><time>2026-05-01T08:40:29.002Z</time></trkpt><trkpt lat="45.151055871454844" lon="9.007649169560295"><ele>87.0</ele><time>2026-05-01T08:40:30.002Z</time></trkpt><trkpt lat="45.150994459977575" lon="9.007625961569651"><ele>87.0</ele><time>2026-05-01T08:40:31.002Z</time></trkpt><trkpt lat="45.1508688851408" lon="9.007602825157097"><ele>87.0</ele><time>2026-05-01T08:40:33.002Z</time></trkpt><trkpt lat="45.150802135584094" lon="9.007594844419113"><ele>87.0</ele><time>2026-05-01T08:40:34.002Z</time></trkpt><trkpt lat="45.15073825041817" lon="9.007588234167105"><ele>87.0</ele><time>2026-05-01T08:40:35.002Z</time></trkpt><trkpt lat="45.15066764679488" lon="9.007593615068117"><ele>87.0</ele><time>2026-05-01T08:40:36.002Z</time></trkpt><trkpt lat="45.150593361771364" lon="9.007577185621322"><ele>87.0</ele><time>2026-05-01T08:40:37.002Z</time></trkpt><trkpt lat="45.150516069730116" lon="9.007585845916527"><ele>86.83333333333333</ele><time>2026-05-01T08:40:38.002Z</time></trkpt><trkpt lat="45.150443894615755" lon="9.007619946728544"><ele>86.66666666666667</ele><time>2026-05-01T08:40:39.002Z</time></trkpt><trkpt lat="45.15036865308918" lon="9.007629064895362"><ele>86.5</ele><time>2026-05-01T08:40:40.002Z</time></trkpt><trkpt lat="45.15030075987262" lon="9.007650533405931"><ele>86.33333333333334</ele><time>2026-05-01T08:40:41.002Z</time></trkpt><trkpt lat="45.150189802395715" lon="9.007669697521154"><ele>86.16666666666667</ele><time>2026-05-01T08:40:43.002Z</time></trkpt><trkpt lat="45.15011838012299" lon="9.007667154535842"><ele>86.0</ele><time>2026-05-01T08:40:45.002Z</time></trkpt><trkpt lat="45.150100196576524" lon="9.008059523056978"><ele>86.0</ele><time>2026-05-01T08:40:48.002Z</time></trkpt><trkpt lat="45.150101770408526" lon="9.008205375526423"><ele>86.0</ele><time>2026-05-01T08:40:49.002Z</time></trkpt><trkpt lat="45.15009840299893" lon="9.00836082836036"><ele>86.0</ele><time>2026-05-01T08:40:50.002Z</time></trkpt><trkpt lat="45.15009251498305" lon="9.008516632357749"><ele>86.0</ele><time>2026-05-01T08:40:51.002Z</time></trkpt><trkpt lat="45.15008411357229" lon="9.008692067587766"><ele>86.0</ele><time>2026-05-01T08:40:52.002Z</time></trkpt><trkpt lat="45.15007805616318" lon="9.00885810988693"><ele>85.8</ele><time>2026-05-01T08:40:53.002Z</time></trkpt><trkpt lat="45.15007101781006" lon="9.009010527352109"><ele>85.6</ele><time>2026-05-01T08:40:54.002Z</time></trkpt><trkpt lat="45.15006030044848" lon="9.009153725407913"><ele>85.4</ele><time>2026-05-01T08:40:55.002Z</time></trkpt><trkpt lat="45.1500564796941" lon="9.009283249316516"><ele>85.2</ele><time>2026-05-01T08:40:56.002Z</time></trkpt><trkpt lat="45.150050195690156" lon="9.009403621327088"><ele>85.0</ele><time>2026-05-01T08:40:57.002Z</time></trkpt><trkpt lat="45.15004385942747" lon="9.009505285167515"><ele>84.6</ele><time>2026-05-01T08:40:58.002Z</time></trkpt><trkpt lat="45.150026285272304" lon="9.009664901521528"><ele>84.2</ele><time>2026-05-01T08:41:00.002Z</time></trkpt><trkpt lat="45.149973842337225" lon="9.009747808812847"><ele>83.80000000000001</ele><time>2026-05-01T08:41:02.002Z</time></trkpt><trkpt lat="45.149868242434685" lon="9.009751845895629"><ele>83.4</ele><time>2026-05-01T08:41:04.002Z</time></trkpt><trkpt lat="45.149784328407534" lon="9.009742411162527"><ele>83.0</ele><time>2026-05-01T08:41:05.002Z</time></trkpt><trkpt lat="45.14966367792869" lon="9.009725022043536"><ele>82.75</ele><time>2026-05-01T08:41:06.002Z</time></trkpt><trkpt lat="45.149522741749195" lon="9.009718119680773"><ele>82.5</ele><time>2026-05-01T08:41:07.002Z</time></trkpt><trkpt lat="45.14938596427238" lon="9.009714535718498"><ele>82.25</ele><time>2026-05-01T08:41:08.002Z</time></trkpt><trkpt lat="45.149248764584414" lon="9.009714416522577"><ele>82.0</ele><time>2026-05-01T08:41:09.002Z</time></trkpt><trkpt lat="45.14909835244456" lon="9.009714222488459"><ele>82.33333333333333</ele><time>2026-05-01T08:41:10.002Z</time></trkpt><trkpt lat="45.14894478832595" lon="9.009717992077583"><ele>82.66666666666667</ele><time>2026-05-01T08:41:11.001Z</time></trkpt><trkpt lat="45.14878406474709" lon="9.009720779364182"><ele>83.0</ele><time>2026-05-01T08:41:12.001Z</time></trkpt><trkpt lat="45.148626959173335" lon="9.009721153758617"><ele>83.0</ele><time>2026-05-01T08:41:13.001Z</time></trkpt><trkpt lat="45.14847938006396" lon="9.009725905737465"><ele>83.0</ele><time>2026-05-01T08:41:14.001Z</time></trkpt><trkpt lat="45.14834543394993" lon="9.009724479357914"><ele>83.0</ele><time>2026-05-01T08:41:15.001Z</time></trkpt><trkpt lat="45.14823235155484" lon="9.009723536094521"><ele>83.0</ele><time>2026-05-01T08:41:16.001Z</time></trkpt><trkpt lat="45.14813046606299" lon="9.009721055203173"><ele>83.0</ele><time>2026-05-01T08:41:17.001Z</time></trkpt><trkpt lat="45.148033306936135" lon="9.009723599309494"><ele>83.0</ele><time>2026-05-01T08:41:18Z</time></trkpt><trkpt lat="45.147930440684036" lon="9.009753698306385"><ele>83.0</ele><time>2026-05-01T08:41:19.001Z</time></trkpt><trkpt lat="45.14781961380768" lon="9.009788041609509"><ele>83.0</ele><time>2026-05-01T08:41:20Z</time></trkpt><trkpt lat="45.147713668742" lon="9.009821705697895"><ele>83.0</ele><time>2026-05-01T08:41:21Z</time></trkpt><trkpt lat="45.147606118620715" lon="9.009858062013876"><ele>83.0</ele><time>2026-05-01T08:41:22Z</time></trkpt><trkpt lat="45.14748965837652" lon="9.009892136325034"><ele>83.0</ele><time>2026-05-01T08:41:23Z</time></trkpt><trkpt lat="45.14736021678653" lon="9.009928148048044"><ele>83.0</ele><time>2026-05-01T08:41:24Z</time></trkpt><trkpt lat="45.147228508179424" lon="9.009969505747081"><ele>83.0</ele><time>2026-05-01T08:41:25Z</time></trkpt><trkpt lat="45.14708775684698" lon="9.010009517323233"><ele>83.0</ele><time>2026-05-01T08:41:26Z</time></trkpt><trkpt lat="45.14694068652272" lon="9.0100474053559"><ele>83.0</ele><time>2026-05-01T08:41:27Z</time></trkpt><trkpt lat="45.14678841764432" lon="9.010085041096977"><ele>83.0</ele><time>2026-05-01T08:41:28Z</time></trkpt><trkpt lat="45.146632483138795" lon="9.010126597346996"><ele>83.0</ele><time>2026-05-01T08:41:29Z</time></trkpt><trkpt lat="45.14647506797282" lon="9.010172043120786"><ele>83.0</ele><time>2026-05-01T08:41:30Z</time></trkpt><trkpt lat="45.146315832442916" lon="9.010215319031605"><ele>83.0</ele><time>2026-05-01T08:41:31Z</time></trkpt><trkpt lat="45.14615714505105" lon="9.010258420021072"><ele>83.0</ele><time>2026-05-01T08:41:32Z</time></trkpt><trkpt lat="45.14599647215371" lon="9.010302671079314"><ele>83.0</ele><time>2026-05-01T08:41:33Z</time></trkpt><trkpt lat="45.14583813584657" lon="9.010347255862952"><ele>83.0</ele><time>2026-05-01T08:41:34Z</time></trkpt><trkpt lat="45.14567981101411" lon="9.010387984165096"><ele>83.25</ele><time>2026-05-01T08:41:35Z</time></trkpt><trkpt lat="45.14553795197227" lon="9.010426938201645"><ele>83.5</ele><time>2026-05-01T08:41:36Z</time></trkpt><trkpt lat="45.145410359355225" lon="9.01046512374051"><ele>83.75</ele><time>2026-05-01T08:41:37Z</time></trkpt><trkpt lat="45.145296933016766" lon="9.01049836574954"><ele>84.0</ele><time>2026-05-01T08:41:38Z</time></trkpt><trkpt lat="45.14519076066802" lon="9.01052760336357"><ele>84.0</ele><time>2026-05-01T08:41:39.001Z</time></trkpt><trkpt lat="45.145102731042954" lon="9.010555152759483"><ele>84.0</ele><time>2026-05-01T08:41:40.001Z</time></trkpt><trkpt lat="45.14503630825527" lon="9.010573630694912"><ele>84.0</ele><time>2026-05-01T08:41:41.001Z</time></trkpt><trkpt lat="45.14496871057587" lon="9.01058873063832"><ele>84.0</ele><time>2026-05-01T08:41:43.001Z</time></trkpt><trkpt lat="45.14490408131415" lon="9.010600089471788"><ele>84.0</ele><time>2026-05-01T08:41:48.001Z</time></trkpt><trkpt lat="45.14483211120277" lon="9.010619482221284"><ele>84.0</ele><time>2026-05-01T08:42:33.001Z</time></trkpt><trkpt lat="45.14476585328168" lon="9.010632222373534"><ele>84.0</ele><time>2026-05-01T08:42:34.001Z</time></trkpt><trkpt lat="45.1446771060459" lon="9.010647031115937"><ele>84.0</ele><time>2026-05-01T08:42:35.001Z</time></trkpt><trkpt lat="45.14460359423012" lon="9.01066185884972"><ele>84.0</ele><time>2026-05-01T08:42:36.001Z</time></trkpt><trkpt lat="45.14452243209441" lon="9.010682301631455"><ele>84.0</ele><time>2026-05-01T08:42:37.001Z</time></trkpt><trkpt lat="45.1444223108574" lon="9.010712267090142"><ele>84.0</ele><time>2026-05-01T08:42:38.001Z</time></trkpt><trkpt lat="45.14431938034698" lon="9.0107387295673"><ele>84.0</ele><time>2026-05-01T08:42:39.001Z</time></trkpt><trkpt lat="45.14422603644519" lon="9.01076141508873"><ele>84.0</ele><time>2026-05-01T08:42:40.001Z</time></trkpt><trkpt lat="45.14413760294265" lon="9.01078438045818"><ele>84.0</ele><time>2026-05-01T08:42:41.002Z</time></trkpt><trkpt lat="45.144038984098415" lon="9.010808409661418"><ele>84.0</ele><time>2026-05-01T08:42:42.002Z</time></trkpt><trkpt lat="45.14393605435669" lon="9.010837860351755"><ele>84.0</ele><time>2026-05-01T08:42:43.002Z</time></trkpt><trkpt lat="45.143827813363146" lon="9.010866769360637"><ele>84.0</ele><time>2026-05-01T08:42:44.002Z</time></trkpt><trkpt lat="45.143716499313996" lon="9.010895808625248"><ele>84.0</ele><time>2026-05-01T08:42:45.002Z</time></trkpt><trkpt lat="45.14360303815326" lon="9.010926262077653"><ele>84.0</ele><time>2026-05-01T08:42:46.002Z</time></trkpt><trkpt lat="45.143484097125196" lon="9.010957477076895"><ele>84.0</ele><time>2026-05-01T08:42:47.002Z</time></trkpt><trkpt lat="45.143358692025984" lon="9.010989557877544"><ele>84.0</ele><time>2026-05-01T08:42:48.002Z</time></trkpt><trkpt lat="45.14323809889163" lon="9.011020710145372"><ele>83.75</ele><time>2026-05-01T08:42:49.002Z</time></trkpt><trkpt lat="45.143114131892865" lon="9.011056931811964"><ele>83.5</ele><time>2026-05-01T08:42:50.002Z</time></trkpt><trkpt lat="45.14298771616585" lon="9.011088669531215"><ele>83.25</ele><time>2026-05-01T08:42:51.002Z</time></trkpt><trkpt lat="45.142860883402605" lon="9.011119835668808"><ele>83.0</ele><time>2026-05-01T08:42:52.002Z</time></trkpt><trkpt lat="45.14273318171125" lon="9.011153926033165"><ele>83.0</ele><time>2026-05-01T08:42:53.002Z</time></trkpt><trkpt lat="45.142608631863474" lon="9.011187406520872"><ele>83.0</ele><time>2026-05-01T08:42:54.002Z</time></trkpt><trkpt lat="45.14248101898244" lon="9.011220702300939"><ele>83.0</ele><time>2026-05-01T08:42:55.002Z</time></trkpt><trkpt lat="45.14234722428405" lon="9.01125778180965"><ele>83.0</ele><time>2026-05-01T08:42:56.002Z</time></trkpt><trkpt lat="45.14221507702551" lon="9.011294437588282"><ele>83.25</ele><time>2026-05-01T08:42:57.002Z</time></trkpt><trkpt lat="45.14208804909657" lon="9.011326802801813"><ele>83.5</ele><time>2026-05-01T08:42:58.002Z</time></trkpt><trkpt lat="45.141970701547415" lon="9.011361590476126"><ele>83.75</ele><time>2026-05-01T08:42:59.002Z</time></trkpt><trkpt lat="45.14185105804098" lon="9.011390994154356"><ele>84.0</ele><time>2026-05-01T08:43:00.002Z</time></trkpt><trkpt lat="45.14173712183945" lon="9.011422708395827"><ele>84.0</ele><time>2026-05-01T08:43:01.002Z</time></trkpt><trkpt lat="45.141633529372776" lon="9.011452332462296"><ele>84.0</ele><time>2026-05-01T08:43:02.002Z</time></trkpt><trkpt lat="45.141531182488166" lon="9.011487090345668"><ele>84.0</ele><time>2026-05-01T08:43:03.002Z</time></trkpt><trkpt lat="45.1414391367105" lon="9.011518339911962"><ele>84.0</ele><time>2026-05-01T08:43:04.002Z</time></trkpt><trkpt lat="45.14135359511856" lon="9.011549052618335"><ele>84.0</ele><time>2026-05-01T08:43:05.002Z</time></trkpt><trkpt lat="45.141281662625275" lon="9.011575620600189"><ele>84.33333333333333</ele><time>2026-05-01T08:43:06.002Z</time></trkpt><trkpt lat="45.14119885564425" lon="9.011597589347796"><ele>84.66666666666667</ele><time>2026-05-01T08:43:08.002Z</time></trkpt><trkpt lat="45.141149049015546" lon="9.011519357134866"><ele>85.0</ele><time>2026-05-01T08:43:12.002Z</time></trkpt><trkpt lat="45.14111067984905" lon="9.011431299409248"><ele>85.33333333333334</ele><time>2026-05-01T08:43:22.001Z</time></trkpt><trkpt lat="45.14100452041268" lon="9.01144701916848"><ele>85.66666666666667</ele><time>2026-05-01T08:43:24.001Z</time></trkpt><trkpt lat="45.140907902949955" lon="9.011483569531602"><ele>86.0</ele><time>2026-05-01T08:43:25.001Z</time></trkpt><trkpt lat="45.14079741780163" lon="9.011519943292342"><ele>86.25</ele><time>2026-05-01T08:43:26.001Z</time></trkpt><trkpt lat="45.140675507751105" lon="9.01155190919"><ele>86.5</ele><time>2026-05-01T08:43:27.001Z</time></trkpt><trkpt lat="45.14053475303152" lon="9.01159364481443"><ele>86.75</ele><time>2026-05-01T08:43:28.001Z</time></trkpt><trkpt lat="45.1403778337789" lon="9.011637319429662"><ele>87.0</ele><time>2026-05-01T08:43:29.001Z</time></trkpt><trkpt lat="45.1402237239254" lon="9.011678958801642"><ele>87.33333333333333</ele><time>2026-05-01T08:43:30.001Z</time></trkpt><trkpt lat="45.140074860712616" lon="9.011725940192555"><ele>87.66666666666666</ele><time>2026-05-01T08:43:31.001Z</time></trkpt><trkpt lat="45.13992642690673" lon="9.011769665372135"><ele>88.0</ele><time>2026-05-01T08:43:32.001Z</time></trkpt><trkpt lat="45.139777649031075" lon="9.011815429185717"><ele>88.5</ele><time>2026-05-01T08:43:33.001Z</time></trkpt><trkpt lat="45.139637937159975" lon="9.011857812507092"><ele>89.0</ele><time>2026-05-01T08:43:34.001Z</time></trkpt><trkpt lat="45.13951149821671" lon="9.011892102799855"><ele>89.5</ele><time>2026-05-01T08:43:35.001Z</time></trkpt><trkpt lat="45.139391026241334" lon="9.011924875505716"><ele>90.0</ele><time>2026-05-01T08:43:36.001Z</time></trkpt><trkpt lat="45.13926548592062" lon="9.011960885964639"><ele>90.0</ele><time>2026-05-01T08:43:37.001Z</time></trkpt><trkpt lat="45.13913943365331" lon="9.011991143172354"><ele>90.0</ele><time>2026-05-01T08:43:38.001Z</time></trkpt><trkpt lat="45.139021054415025" lon="9.012010029381566"><ele>90.0</ele><time>2026-05-01T08:43:39.001Z</time></trkpt><trkpt lat="45.13889448063258" lon="9.012054012171136"><ele>90.0</ele><time>2026-05-01T08:43:40.001Z</time></trkpt><trkpt lat="45.13875965361711" lon="9.012072274150329"><ele>90.5</ele><time>2026-05-01T08:43:41.001Z</time></trkpt><trkpt lat="45.13862997645314" lon="9.012123423366571"><ele>91.0</ele><time>2026-05-01T08:43:42.001Z</time></trkpt><trkpt lat="45.138501666692896" lon="9.012157423717445"><ele>91.5</ele><time>2026-05-01T08:43:43.001Z</time></trkpt><trkpt lat="45.13836265013583" lon="9.012191257389901"><ele>92.0</ele><time>2026-05-01T08:43:44.001Z</time></trkpt><trkpt lat="45.13822132128226" lon="9.012225653814692"><ele>91.25</ele><time>2026-05-01T08:43:45.001Z</time></trkpt><trkpt lat="45.13808329577409" lon="9.012283142404673"><ele>90.5</ele><time>2026-05-01T08:43:46.001Z</time></trkpt><trkpt lat="45.13794398039569" lon="9.012316975919063"><ele>89.75</ele><time>2026-05-01T08:43:47.001Z</time></trkpt><trkpt lat="45.13780303178094" lon="9.01234369342726"><ele>89.0</ele><time>2026-05-01T08:43:48.001Z</time></trkpt><trkpt lat="45.13764874682794" lon="9.012388704926744"><ele>89.0</ele><time>2026-05-01T08:43:49.001Z</time></trkpt><trkpt lat="45.13747511704679" lon="9.012430597446079"><ele>89.0</ele><time>2026-05-01T08:43:50.001Z</time></trkpt><trkpt lat="45.13729857060434" lon="9.012471143830927"><ele>89.0</ele><time>2026-05-01T08:43:51.001Z</time></trkpt><trkpt lat="45.13713172497096" lon="9.01251377377554"><ele>88.66666666666667</ele><time>2026-05-01T08:43:52.001Z</time></trkpt><trkpt lat="45.136983438035806" lon="9.012553141336824"><ele>88.33333333333333</ele><time>2026-05-01T08:43:53.001Z</time></trkpt><trkpt lat="45.13683196681196" lon="9.01259848565414"><ele>88.0</ele><time>2026-05-01T08:43:54.001Z</time></trkpt><trkpt lat="45.13667816891123" lon="9.012632204646845"><ele>87.33333333333333</ele><time>2026-05-01T08:43:55.001Z</time></trkpt><trkpt lat="45.13652624974413" lon="9.012668435787486"><ele>86.66666666666667</ele><time>2026-05-01T08:43:56.001Z</time></trkpt><trkpt lat="45.136358406835285" lon="9.012705098195894"><ele>86.0</ele><time>2026-05-01T08:43:57.001Z</time></trkpt><trkpt lat="45.13617801673856" lon="9.012748924759698"><ele>86.0</ele><time>2026-05-01T08:43:58.001Z</time></trkpt><trkpt lat="45.13598841361917" lon="9.012793332277521"><ele>86.0</ele><time>2026-05-01T08:43:59.001Z</time></trkpt><trkpt lat="45.13578940438737" lon="9.012840421425475"><ele>86.0</ele><time>2026-05-01T08:44:00.001Z</time></trkpt><trkpt lat="45.135593470871676" lon="9.0128883648916"><ele>87.33333333333334</ele><time>2026-05-01T08:44:01.001Z</time></trkpt><trkpt lat="45.13540324023077" lon="9.01293577558671"><ele>88.66666666666667</ele><time>2026-05-01T08:44:02.001Z</time></trkpt><trkpt lat="45.135216216510344" lon="9.012979727293864"><ele>90.0</ele><time>2026-05-01T08:44:03.001Z</time></trkpt><trkpt lat="45.135026510880046" lon="9.013028440315473"><ele>90.66666666666667</ele><time>2026-05-01T08:44:04.001Z</time></trkpt><trkpt lat="45.13484245674377" lon="9.01306978022094"><ele>91.33333333333334</ele><time>2026-05-01T08:44:05.001Z</time></trkpt><trkpt lat="45.13465633039676" lon="9.013113535896146"><ele>92.0</ele><time>2026-05-01T08:44:06.001Z</time></trkpt><trkpt lat="45.13448043067227" lon="9.013162832048467"><ele>92.0</ele><time>2026-05-01T08:44:07.001Z</time></trkpt><trkpt lat="45.13431599313702" lon="9.013193957824457"><ele>92.0</ele><time>2026-05-01T08:44:08.001Z</time></trkpt><trkpt lat="45.1341682073132" lon="9.013227180453502"><ele>92.0</ele><time>2026-05-01T08:44:09.001Z</time></trkpt><trkpt lat="45.134027279477024" lon="9.01325385944441"><ele>91.75</ele><time>2026-05-01T08:44:10.001Z</time></trkpt><trkpt lat="45.13389129448094" lon="9.013277843273912"><ele>91.5</ele><time>2026-05-01T08:44:11.001Z</time></trkpt><trkpt lat="45.13375407781577" lon="9.013300694412752"><ele>91.25</ele><time>2026-05-01T08:44:12.001Z</time></trkpt><trkpt lat="45.13360648036617" lon="9.013325274465116"><ele>91.0</ele><time>2026-05-01T08:44:13.001Z</time></trkpt><trkpt lat="45.133444540751846" lon="9.013352243059773"><ele>91.0</ele><time>2026-05-01T08:44:14.001Z</time></trkpt><trkpt lat="45.13327126431438" lon="9.013381099631346"><ele>91.0</ele><time>2026-05-01T08:44:15.001Z</time></trkpt><trkpt lat="45.13309591657663" lon="9.013414109794796"><ele>91.0</ele><time>2026-05-01T08:44:16.001Z</time></trkpt><trkpt lat="45.13292661676301" lon="9.013526830643006"><ele>91.0</ele><time>2026-05-01T08:44:17.001Z</time></trkpt><trkpt lat="45.13275645777226" lon="9.013563913404939"><ele>91.0</ele><time>2026-05-01T08:44:18.001Z</time></trkpt><trkpt lat="45.132586658067915" lon="9.013605767355196"><ele>91.0</ele><time>2026-05-01T08:44:19.001Z</time></trkpt><trkpt lat="45.13241643005205" lon="9.013649848655808"><ele>90.0</ele><time>2026-05-01T08:44:20.001Z</time></trkpt><trkpt lat="45.13224995542561" lon="9.013688341894841"><ele>89.0</ele><time>2026-05-01T08:44:21.001Z</time></trkpt><trkpt lat="45.13207939780245" lon="9.013726744155598"><ele>88.0</ele><time>2026-05-01T08:44:22.001Z</time></trkpt><trkpt lat="45.13190575794169" lon="9.013763782955136"><ele>88.0</ele><time>2026-05-01T08:44:23.001Z</time></trkpt><trkpt lat="45.13173169137633" lon="9.013806352379632"><ele>88.0</ele><time>2026-05-01T08:44:24.001Z</time></trkpt><trkpt lat="45.131561154831346" lon="9.01384900418212"><ele>88.0</ele><time>2026-05-01T08:44:25.001Z</time></trkpt><trkpt lat="45.1313939668398" lon="9.013885549569228"><ele>86.66666666666666</ele><time>2026-05-01T08:44:26.001Z</time></trkpt><trkpt lat="45.1312309840745" lon="9.013930805883318"><ele>85.33333333333333</ele><time>2026-05-01T08:44:27.001Z</time></trkpt><trkpt lat="45.13106960438863" lon="9.013970340719927"><ele>84.0</ele><time>2026-05-01T08:44:28.001Z</time></trkpt><trkpt lat="45.13092148357918" lon="9.014008958199549"><ele>84.0</ele><time>2026-05-01T08:44:29.001Z</time></trkpt><trkpt lat="45.130782073952886" lon="9.014048383758935"><ele>84.0</ele><time>2026-05-01T08:44:30.001Z</time></trkpt><trkpt lat="45.13065734826335" lon="9.014080179402923"><ele>84.0</ele><time>2026-05-01T08:44:31.001Z</time></trkpt><trkpt lat="45.13055272248188" lon="9.014101916571606"><ele>84.0</ele><time>2026-05-01T08:44:32.001Z</time></trkpt><trkpt lat="45.130473524096864" lon="9.014121137077751"><ele>83.80000000000001</ele><time>2026-05-01T08:44:33.001Z</time></trkpt><trkpt lat="45.13037176523405" lon="9.0141318189351"><ele>83.60000000000001</ele><time>2026-05-01T08:44:35.001Z</time></trkpt><trkpt lat="45.1303112101885" lon="9.014051717139983"><ele>83.4</ele><time>2026-05-01T08:44:39.001Z</time></trkpt><trkpt lat="45.13027135406779" lon="9.01387984070029"><ele>83.2</ele><time>2026-05-01T08:44:41.001Z</time></trkpt><trkpt lat="45.13024833075734" lon="9.0137385639375"><ele>83.0</ele><time>2026-05-01T08:44:42.001Z</time></trkpt><trkpt lat="45.1302276617892" lon="9.013579118208662"><ele>83.0</ele><time>2026-05-01T08:44:43.001Z</time></trkpt><trkpt lat="45.13020179502377" lon="9.01337815191356"><ele>83.0</ele><time>2026-05-01T08:44:44.001Z</time></trkpt><trkpt lat="45.130178976001936" lon="9.013193890001517"><ele>83.0</ele><time>2026-05-01T08:44:45.001Z</time></trkpt><trkpt lat="45.130159549544686" lon="9.013006028532416"><ele>83.0</ele><time>2026-05-01T08:44:46.001Z</time></trkpt><trkpt lat="45.13013786661544" lon="9.012820222836458"><ele>83.0</ele><time>2026-05-01T08:44:47.001Z</time></trkpt><trkpt lat="45.130119504060694" lon="9.012666101420018"><ele>83.0</ele><time>2026-05-01T08:44:48.002Z</time></trkpt><trkpt lat="45.13010500016275" lon="9.012533061918054"><ele>83.0</ele><time>2026-05-01T08:44:49.002Z</time></trkpt><trkpt lat="45.13009233226485" lon="9.012411457610375"><ele>83.0</ele><time>2026-05-01T08:44:50.002Z</time></trkpt><trkpt lat="45.130085445834865" lon="9.012299195332597"><ele>83.0</ele><time>2026-05-01T08:44:51.002Z</time></trkpt><trkpt lat="45.130080471210846" lon="9.012208585178735"><ele>83.0</ele><time>2026-05-01T08:44:52.002Z</time></trkpt><trkpt lat="45.1300560646411" lon="9.012093779798139"><ele>82.80000000000001</ele><time>2026-05-01T08:44:54.002Z</time></trkpt><trkpt lat="45.12996451762003" lon="9.012050890232384"><ele>82.6</ele><time>2026-05-01T08:44:57.002Z</time></trkpt><trkpt lat="45.12986339829666" lon="9.012072015153985"><ele>82.4</ele><time>2026-05-01T08:44:59.002Z</time></trkpt><trkpt lat="45.129730753383384" lon="9.012088065299645"><ele>82.19999999999999</ele><time>2026-05-01T08:45:01.002Z</time></trkpt><trkpt lat="45.12965071673494" lon="9.012087416204603"><ele>82.0</ele><time>2026-05-01T08:45:02.002Z</time></trkpt><trkpt lat="45.129577306676524" lon="9.012088395302216"><ele>81.75</ele><time>2026-05-01T08:45:03.002Z</time></trkpt><trkpt lat="45.129489963339246" lon="9.012090515144656"><ele>81.5</ele><time>2026-05-01T08:45:04.002Z</time></trkpt><trkpt lat="45.129383885656225" lon="9.012095018345212"><ele>81.25</ele><time>2026-05-01T08:45:05.002Z</time></trkpt><trkpt lat="45.12925932511377" lon="9.012100183309562"><ele>81.0</ele><time>2026-05-01T08:45:06.002Z</time></trkpt><trkpt lat="45.12912275721811" lon="9.012104001177581"><ele>81.0</ele><time>2026-05-01T08:45:07.002Z</time></trkpt><trkpt lat="45.12899014605007" lon="9.012119445928562"><ele>81.0</ele><time>2026-05-01T08:45:08.002Z</time></trkpt><trkpt lat="45.12887509960078" lon="9.01212741079274"><ele>81.0</ele><time>2026-05-01T08:45:09.002Z</time></trkpt><trkpt lat="45.12876935854225" lon="9.012133994883785"><ele>81.0</ele><time>2026-05-01T08:45:10.002Z</time></trkpt><trkpt lat="45.12866777001019" lon="9.012142156463607"><ele>81.0</ele><time>2026-05-01T08:45:11.002Z</time></trkpt><trkpt lat="45.12857962117194" lon="9.012152775329358"><ele>81.0</ele><time>2026-05-01T08:45:12.002Z</time></trkpt><trkpt lat="45.12850470295741" lon="9.012164474150921"><ele>81.0</ele><time>2026-05-01T08:45:13.002Z</time></trkpt><trkpt lat="45.12843799203208" lon="9.01217669835691"><ele>81.0</ele><time>2026-05-01T08:45:14.002Z</time></trkpt><trkpt lat="45.12831397607399" lon="9.012192273237055"><ele>81.0</ele><time>2026-05-01T08:45:16.002Z</time></trkpt><trkpt lat="45.12823216748658" lon="9.012199825128057"><ele>81.0</ele><time>2026-05-01T08:45:17.002Z</time></trkpt><trkpt lat="45.12813194925982" lon="9.012203770275388"><ele>81.0</ele><time>2026-05-01T08:45:18.002Z</time></trkpt><trkpt lat="45.12802889260356" lon="9.012204265859237"><ele>81.0</ele><time>2026-05-01T08:45:19.002Z</time></trkpt><trkpt lat="45.12793332343734" lon="9.012205042527743"><ele>81.0</ele><time>2026-05-01T08:45:20.002Z</time></trkpt><trkpt lat="45.12782860098649" lon="9.012209475984436"><ele>81.0</ele><time>2026-05-01T08:45:21.002Z</time></trkpt><trkpt lat="45.12771511020498" lon="9.012216813681341"><ele>81.0</ele><time>2026-05-01T08:45:22.002Z</time></trkpt><trkpt lat="45.12759791721945" lon="9.012219043341691"><ele>81.0</ele><time>2026-05-01T08:45:23Z</time></trkpt><trkpt lat="45.12747814773751" lon="9.012222117641883"><ele>81.0</ele><time>2026-05-01T08:45:24Z</time></trkpt><trkpt lat="45.12735653782807" lon="9.012228041372847"><ele>81.0</ele><time>2026-05-01T08:45:25Z</time></trkpt><trkpt lat="45.1272390350741" lon="9.012233295672273"><ele>81.0</ele><time>2026-05-01T08:45:26Z</time></trkpt><trkpt lat="45.12713468083037" lon="9.012242715505453"><ele>81.0</ele><time>2026-05-01T08:45:27Z</time></trkpt><trkpt lat="45.12704562128446" lon="9.012250029886825"><ele>81.0</ele><time>2026-05-01T08:45:28Z</time></trkpt><trkpt lat="45.126969689385945" lon="9.01226585043936"><ele>81.0</ele><time>2026-05-01T08:45:29Z</time></trkpt><trkpt lat="45.12689588182427" lon="9.012273439468505"><ele>81.0</ele><time>2026-05-01T08:45:30Z</time></trkpt><trkpt lat="45.12682805221862" lon="9.012270122026054"><ele>81.0</ele><time>2026-05-01T08:45:31Z</time></trkpt><trkpt lat="45.126717591343365" lon="9.012226368622416"><ele>81.0</ele><time>2026-05-01T08:45:33Z</time></trkpt><trkpt lat="45.12663149686388" lon="9.01209414148014"><ele>81.0</ele><time>2026-05-01T08:45:35Z</time></trkpt><trkpt lat="45.12655862214851" lon="9.011968952929811"><ele>81.0</ele><time>2026-05-01T08:45:37Z</time></trkpt><trkpt lat="45.126447038868164" lon="9.011982815086377"><ele>81.0</ele><time>2026-05-01T08:45:39Z</time></trkpt><trkpt lat="45.12637996647714" lon="9.012003098178637"><ele>81.0</ele><time>2026-05-01T08:45:40Z</time></trkpt><trkpt lat="45.1262935130403" lon="9.012022427203252"><ele>81.0</ele><time>2026-05-01T08:45:41Z</time></trkpt><trkpt lat="45.126197074914224" lon="9.01203735024193"><ele>81.0</ele><time>2026-05-01T08:45:42Z</time></trkpt><trkpt lat="45.12610850792019" lon="9.012047607987833"><ele>81.0</ele><time>2026-05-01T08:45:43Z</time></trkpt><trkpt lat="45.12602282337412" lon="9.012062609876551"><ele>81.0</ele><time>2026-05-01T08:45:44Z</time></trkpt><trkpt lat="45.12594657518754" lon="9.012084808090238"><ele>81.0</ele><time>2026-05-01T08:45:45Z</time></trkpt><trkpt lat="45.125868446350694" lon="9.012124605137151"><ele>81.0</ele><time>2026-05-01T08:45:46Z</time></trkpt><trkpt lat="45.12580327459937" lon="9.012182686765964"><ele>81.0</ele><time>2026-05-01T08:45:47Z</time></trkpt><trkpt lat="45.12574645517948" lon="9.012254125535295"><ele>80.8</ele><time>2026-05-01T08:45:48Z</time></trkpt><trkpt lat="45.12569722698491" lon="9.01233417973997"><ele>80.6</ele><time>2026-05-01T08:45:49Z</time></trkpt><trkpt lat="45.125648679430086" lon="9.012415428957913"><ele>80.4</ele><time>2026-05-01T08:45:50Z</time></trkpt><trkpt lat="45.125606272215244" lon="9.012493931444563"><ele>80.2</ele><time>2026-05-01T08:45:51Z</time></trkpt><trkpt lat="45.12553841307613" lon="9.012624023934578"><ele>80.0</ele><time>2026-05-01T08:45:53Z</time></trkpt><trkpt lat="45.12545705478127" lon="9.012761195827132"><ele>80.0</ele><time>2026-05-01T08:45:55Z</time></trkpt><trkpt lat="45.12541864216647" lon="9.012836383506556"><ele>80.0</ele><time>2026-05-01T08:45:56.001Z</time></trkpt><trkpt lat="45.12536888924657" lon="9.012922041970672"><ele>80.0</ele><time>2026-05-01T08:45:57.001Z</time></trkpt><trkpt lat="45.12531521814098" lon="9.013007976628709"><ele>80.0</ele><time>2026-05-01T08:45:58.001Z</time></trkpt><trkpt lat="45.12526041085933" lon="9.013089051745986"><ele>80.0</ele><time>2026-05-01T08:45:59.001Z</time></trkpt><trkpt lat="45.12520858924362" lon="9.013169738861315"><ele>80.0</ele><time>2026-05-01T08:46:00.001Z</time></trkpt><trkpt lat="45.12515538227781" lon="9.013251058379812"><ele>80.16666666666667</ele><time>2026-05-01T08:46:01.001Z</time></trkpt><trkpt lat="45.12509937996252" lon="9.013333404555079"><ele>80.33333333333334</ele><time>2026-05-01T08:46:02.001Z</time></trkpt><trkpt lat="45.125041173459856" lon="9.013418125732592"><ele>80.5</ele><time>2026-05-01T08:46:03.001Z</time></trkpt><trkpt lat="45.12498582319397" lon="9.013511424936338"><ele>80.66666666666667</ele><time>2026-05-01T08:46:04.001Z</time></trkpt><trkpt lat="45.12492366866438" lon="9.013603181163008"><ele>80.83333333333333</ele><time>2026-05-01T08:46:05.001Z</time></trkpt><trkpt lat="45.124858057656105" lon="9.013685026230672"><ele>81.0</ele><time>2026-05-01T08:46:06.001Z</time></trkpt><trkpt lat="45.124797066808014" lon="9.013768197613679"><ele>81.19999999999999</ele><time>2026-05-01T08:46:07.001Z</time></trkpt><trkpt lat="45.124738776046165" lon="9.013834889532193"><ele>81.39999999999999</ele><time>2026-05-01T08:46:08.001Z</time></trkpt><trkpt lat="45.12464039145091" lon="9.013926594375238"><ele>81.6</ele><time>2026-05-01T08:46:10.001Z</time></trkpt><trkpt lat="45.124548110175596" lon="9.013970000370259"><ele>81.8</ele><time>2026-05-01T08:46:12.001Z</time></trkpt><trkpt lat="45.124463562652586" lon="9.013980875183847"><ele>82.0</ele><time>2026-05-01T08:46:14.001Z</time></trkpt><trkpt lat="45.12437618621942" lon="9.013984337830689"><ele>82.0</ele><time>2026-05-01T08:46:16.001Z</time></trkpt><trkpt lat="45.124293274691176" lon="9.014002633843713"><ele>82.0</ele><time>2026-05-01T08:46:18.001Z</time></trkpt><trkpt lat="45.12421227843251" lon="9.014003952319541"><ele>82.0</ele><time>2026-05-01T08:46:20.001Z</time></trkpt><trkpt lat="45.124140449841455" lon="9.014004502817741"><ele>82.0</ele><time>2026-05-01T08:46:22.001Z</time></trkpt><trkpt lat="45.12406394212088" lon="9.014012172676837"><ele>82.0</ele><time>2026-05-01T08:46:24.001Z</time></trkpt><trkpt lat="45.12399641457546" lon="9.014018061157854"><ele>82.0</ele><time>2026-05-01T08:46:26.001Z</time></trkpt><trkpt lat="45.123908230361906" lon="9.01402968624274"><ele>81.5</ele><time>2026-05-01T08:46:29.001Z</time></trkpt><trkpt lat="45.123834666116394" lon="9.014036905428306"><ele>81.0</ele><time>2026-05-01T08:46:32.001Z</time></trkpt><trkpt lat="45.12375868213077" lon="9.014022736392489"><ele>80.5</ele><time>2026-05-01T08:46:36.001Z</time></trkpt><trkpt lat="45.123733639676715" lon="9.014107818110835"><ele>80.0</ele><time>2026-05-01T08:46:39.001Z</time></trkpt><trkpt lat="45.123851484533155" lon="9.014108627643692"><ele>79.5</ele><time>2026-05-01T08:46:42.001Z</time></trkpt><trkpt lat="45.12393555331363" lon="9.014054693871111"><ele>79.0</ele><time>2026-05-01T08:46:43.001Z</time></trkpt><trkpt lat="45.124019465543014" lon="9.014032323647601"><ele>79.5</ele><time>2026-05-01T08:46:44.001Z</time></trkpt><trkpt lat="45.12411141360223" lon="9.014009789855898"><ele>80.0</ele><time>2026-05-01T08:46:45.001Z</time></trkpt><trkpt lat="45.12420890055518" lon="9.013989519805227"><ele>80.5</ele><time>2026-05-01T08:46:46.001Z</time></trkpt><trkpt lat="45.12429660600928" lon="9.013971415007779"><ele>81.0</ele><time>2026-05-01T08:46:47.001Z</time></trkpt><trkpt lat="45.12436899027834" lon="9.01395293951377"><ele>81.5</ele><time>2026-05-01T08:46:48.001Z</time></trkpt><trkpt lat="45.124437612526755" lon="9.013935523069597"><ele>82.0</ele><time>2026-05-01T08:46:49.001Z</time></trkpt><trkpt lat="45.124499057253495" lon="9.013910166723518"><ele>82.0</ele><time>2026-05-01T08:46:50.001Z</time></trkpt><trkpt lat="45.12458160017455" lon="9.013839366969863"><ele>82.0</ele><time>2026-05-01T08:46:52.001Z</time></trkpt><trkpt lat="45.124599540797995" lon="9.013739821465206"><ele>82.0</ele><time>2026-05-01T08:46:54.001Z</time></trkpt><trkpt lat="45.12457205109301" lon="9.013547975623815"><ele>82.0</ele><time>2026-05-01T08:46:56.001Z</time></trkpt><trkpt lat="45.124561485940234" lon="9.013408565906342"><ele>82.0</ele><time>2026-05-01T08:46:58.001Z</time></trkpt><trkpt lat="45.124513654445266" lon="9.013345351612204"><ele>82.0</ele><time>2026-05-01T08:47:00.001Z</time></trkpt><trkpt lat="45.124385124011724" lon="9.013353219182695"><ele>82.0</ele><time>2026-05-01T08:47:02.001Z</time></trkpt><trkpt lat="45.124286671894524" lon="9.01339624642788"><ele>82.0</ele><time>2026-05-01T08:47:03.001Z</time></trkpt><trkpt lat="45.124185754537145" lon="9.013423269341374"><ele>82.0</ele><time>2026-05-01T08:47:04.001Z</time></trkpt><trkpt lat="45.12409246778915" lon="9.013444044426512"><ele>82.0</ele><time>2026-05-01T08:47:05.001Z</time></trkpt><trkpt lat="45.12398349110203" lon="9.01346621214234"><ele>81.25</ele><time>2026-05-01T08:47:06.001Z</time></trkpt><trkpt lat="45.123867538092135" lon="9.013490251283942"><ele>80.5</ele><time>2026-05-01T08:47:07.001Z</time></trkpt><trkpt lat="45.12375536787305" lon="9.013494669550596"><ele>79.75</ele><time>2026-05-01T08:47:08.001Z</time></trkpt><trkpt lat="45.123644489405535" lon="9.013510759827279"><ele>79.0</ele><time>2026-05-01T08:47:09.001Z</time></trkpt><trkpt lat="45.12353269855446" lon="9.01353412778233"><ele>79.0</ele><time>2026-05-01T08:47:10.001Z</time></trkpt><trkpt lat="45.12343306098883" lon="9.01355937766857"><ele>79.0</ele><time>2026-05-01T08:47:11.001Z</time></trkpt><trkpt lat="45.12334363185628" lon="9.01357922943362"><ele>79.0</ele><time>2026-05-01T08:47:12.001Z</time></trkpt><trkpt lat="45.12325942218545" lon="9.0135958175857"><ele>79.0</ele><time>2026-05-01T08:47:13.001Z</time></trkpt><trkpt lat="45.12318678217479" lon="9.013612192534042"><ele>79.0</ele><time>2026-05-01T08:47:14.002Z</time></trkpt><trkpt lat="45.12309794975631" lon="9.013626080297232"><ele>79.0</ele><time>2026-05-01T08:47:16.002Z</time></trkpt><trkpt lat="45.123031174206425" lon="9.013643060440552"><ele>78.8</ele><time>2026-05-01T08:47:19.002Z</time></trkpt><trkpt lat="45.122973345852074" lon="9.013678818316894"><ele>78.60000000000001</ele><time>2026-05-01T08:47:26.002Z</time></trkpt><trkpt lat="45.12297175154814" lon="9.013858021842406"><ele>78.4</ele><time>2026-05-01T08:47:28.002Z</time></trkpt><trkpt lat="45.12297808601351" lon="9.014027282182226"><ele>78.2</ele><time>2026-05-01T08:47:29.999Z</time></trkpt><trkpt lat="45.12299172577958" lon="9.014134902631321"><ele>78.0</ele><time>2026-05-01T08:47:30.999Z</time></trkpt><trkpt lat="45.12300439105797" lon="9.014234834395037"><ele>78.0</ele><time>2026-05-01T08:47:31.999Z</time></trkpt><trkpt lat="45.1230190574817" lon="9.014349772477278"><ele>78.0</ele><time>2026-05-01T08:47:32.999Z</time></trkpt><trkpt lat="45.1230353942793" lon="9.01447801531996"><ele>78.0</ele><time>2026-05-01T08:47:34Z</time></trkpt><trkpt lat="45.12305327852684" lon="9.01461840561875"><ele>78.0</ele><time>2026-05-01T08:47:35Z</time></trkpt><trkpt lat="45.12307249698553" lon="9.014769269351632"><ele>78.0</ele><time>2026-05-01T08:47:36Z</time></trkpt><trkpt lat="45.12309293848986" lon="9.014929733944136"><ele>76.75</ele><time>2026-05-01T08:47:37Z</time></trkpt><trkpt lat="45.12311335332687" lon="9.015089989190962"><ele>75.5</ele><time>2026-05-01T08:47:38Z</time></trkpt><trkpt lat="45.123131973585366" lon="9.015236157092618"><ele>74.25</ele><time>2026-05-01T08:47:39Z</time></trkpt><trkpt lat="45.1231529712876" lon="9.01540098782462"><ele>73.0</ele><time>2026-05-01T08:47:40Z</time></trkpt><trkpt lat="45.12317453139942" lon="9.015571345537706"><ele>73.0</ele><time>2026-05-01T08:47:41Z</time></trkpt><trkpt lat="45.12319658927921" lon="9.015747447530078"><ele>73.0</ele><time>2026-05-01T08:47:42Z</time></trkpt><trkpt lat="45.12321926866119" lon="9.0159285113385"><ele>73.0</ele><time>2026-05-01T08:47:43Z</time></trkpt><trkpt lat="45.123256448051464" lon="9.016110058814707"><ele>73.0</ele><time>2026-05-01T08:47:44Z</time></trkpt><trkpt lat="45.12327761229915" lon="9.016300523172385"><ele>73.75</ele><time>2026-05-01T08:47:45Z</time></trkpt><trkpt lat="45.123300397369746" lon="9.016492164047362"><ele>74.5</ele><time>2026-05-01T08:47:46Z</time></trkpt><trkpt lat="45.123326794017" lon="9.016686584734126"><ele>75.25</ele><time>2026-05-01T08:47:47Z</time></trkpt><trkpt lat="45.12335057757049" lon="9.016884839341621"><ele>76.0</ele><time>2026-05-01T08:47:48Z</time></trkpt><trkpt lat="45.12337351995618" lon="9.017087255929269"><ele>76.0</ele><time>2026-05-01T08:47:49Z</time></trkpt><trkpt lat="45.12339891049804" lon="9.01729139707845"><ele>76.0</ele><time>2026-05-01T08:47:50Z</time></trkpt><trkpt lat="45.12342737297464" lon="9.017495605458192"><ele>76.0</ele><time>2026-05-01T08:47:51Z</time></trkpt><trkpt lat="45.12345304047554" lon="9.017686822335545"><ele>76.0</ele><time>2026-05-01T08:47:52Z</time></trkpt><trkpt lat="45.12348048913611" lon="9.01788368516051"><ele>75.25</ele><time>2026-05-01T08:47:53Z</time></trkpt><trkpt lat="45.12350584783533" lon="9.018083343307824"><ele>74.5</ele><time>2026-05-01T08:47:54Z</time></trkpt><trkpt lat="45.12353178837761" lon="9.018287791009106"><ele>73.75</ele><time>2026-05-01T08:47:55Z</time></trkpt><trkpt lat="45.12355527506481" lon="9.018492548631437"><ele>73.0</ele><time>2026-05-01T08:47:56Z</time></trkpt><trkpt lat="45.1235800209943" lon="9.01869978809765"><ele>73.0</ele><time>2026-05-01T08:47:57Z</time></trkpt><trkpt lat="45.12360698169938" lon="9.018907483881947"><ele>73.0</ele><time>2026-05-01T08:47:58Z</time></trkpt><trkpt lat="45.123633020871175" lon="9.019117734519051"><ele>73.0</ele><time>2026-05-01T08:47:59Z</time></trkpt><trkpt lat="45.123659475746045" lon="9.019327266286655"><ele>72.25</ele><time>2026-05-01T08:48:00Z</time></trkpt><trkpt lat="45.12368518006683" lon="9.019538590593102"><ele>71.5</ele><time>2026-05-01T08:48:01Z</time></trkpt><trkpt lat="45.123710135030954" lon="9.019746531746119"><ele>70.75</ele><time>2026-05-01T08:48:02Z</time></trkpt><trkpt lat="45.123736241842444" lon="9.019951537583163"><ele>70.0</ele><time>2026-05-01T08:48:03Z</time></trkpt><trkpt lat="45.12376182799428" lon="9.020154833061879"><ele>70.0</ele><time>2026-05-01T08:48:04Z</time></trkpt><trkpt lat="45.123789727340835" lon="9.020357818856077"><ele>70.0</ele><time>2026-05-01T08:48:05Z</time></trkpt><trkpt lat="45.123811348629474" lon="9.020558351673587"><ele>70.0</ele><time>2026-05-01T08:48:06Z</time></trkpt><trkpt lat="45.12383676238493" lon="9.020747801690876"><ele>70.0</ele><time>2026-05-01T08:48:07Z</time></trkpt><trkpt lat="45.12386219911459" lon="9.020941441358165"><ele>69.75</ele><time>2026-05-01T08:48:08Z</time></trkpt><trkpt lat="45.12388780111905" lon="9.021136094085868"><ele>69.5</ele><time>2026-05-01T08:48:09Z</time></trkpt><trkpt lat="45.12391363340474" lon="9.021327104773976"><ele>69.25</ele><time>2026-05-01T08:48:10Z</time></trkpt><trkpt lat="45.1239362532464" lon="9.021518329411466"><ele>69.0</ele><time>2026-05-01T08:48:11Z</time></trkpt><trkpt lat="45.123961043008535" lon="9.021709692640986"><ele>69.5</ele><time>2026-05-01T08:48:12Z</time></trkpt><trkpt lat="45.12398519063621" lon="9.021904590780103"><ele>70.0</ele><time>2026-05-01T08:48:13Z</time></trkpt><trkpt lat="45.12400877494525" lon="9.02209776476467"><ele>70.5</ele><time>2026-05-01T08:48:14Z</time></trkpt><trkpt lat="45.12403157429564" lon="9.02228949853342"><ele>71.0</ele><time>2026-05-01T08:48:15Z</time></trkpt><trkpt lat="45.12405456125594" lon="9.022473397866891"><ele>73.25</ele><time>2026-05-01T08:48:16Z</time></trkpt><trkpt lat="45.12407807101027" lon="9.022643382763041"><ele>75.5</ele><time>2026-05-01T08:48:17Z</time></trkpt><trkpt lat="45.124097935571776" lon="9.022811981629259"><ele>77.75</ele><time>2026-05-01T08:48:18Z</time></trkpt><trkpt lat="45.124125218261234" lon="9.02298308621534"><ele>80.0</ele><time>2026-05-01T08:48:19Z</time></trkpt><trkpt lat="45.12414910593916" lon="9.023168376705312"><ele>80.5</ele><time>2026-05-01T08:48:20Z</time></trkpt><trkpt lat="45.12417901559787" lon="9.023352001101427"><ele>81.0</ele><time>2026-05-01T08:48:21Z</time></trkpt><trkpt lat="45.12421082255523" lon="9.023533782998513"><ele>81.5</ele><time>2026-05-01T08:48:22Z</time></trkpt><trkpt lat="45.12424424029439" lon="9.023711267711054"><ele>82.0</ele><time>2026-05-01T08:48:23Z</time></trkpt><trkpt lat="45.124278966745855" lon="9.023878791228581"><ele>82.0</ele><time>2026-05-01T08:48:24Z</time></trkpt><trkpt lat="45.12431272128545" lon="9.024035912256302"><ele>82.0</ele><time>2026-05-01T08:48:25Z</time></trkpt><trkpt lat="45.12433497494851" lon="9.02418307652953"><ele>82.0</ele><time>2026-05-01T08:48:26Z</time></trkpt><trkpt lat="45.1243681301146" lon="9.02431941871122"><ele>82.0</ele><time>2026-05-01T08:48:27Z</time></trkpt><trkpt lat="45.124400792674" lon="9.024441530321635"><ele>82.0</ele><time>2026-05-01T08:48:28Z</time></trkpt><trkpt lat="45.12442871159554" lon="9.024556395498617"><ele>82.0</ele><time>2026-05-01T08:48:29Z</time></trkpt><trkpt lat="45.12445865524399" lon="9.02467118579813"><ele>82.0</ele><time>2026-05-01T08:48:30Z</time></trkpt><trkpt lat="45.124483990549976" lon="9.02481002916737"><ele>82.0</ele><time>2026-05-01T08:48:31Z</time></trkpt><trkpt lat="45.12451611574855" lon="9.024962104153309"><ele>82.0</ele><time>2026-05-01T08:48:32Z</time></trkpt><trkpt lat="45.12455896796849" lon="9.02511938283301"><ele>82.0</ele><time>2026-05-01T08:48:33Z</time></trkpt><trkpt lat="45.12460774807656" lon="9.025263689259171"><ele>82.0</ele><time>2026-05-01T08:48:34.001Z</time></trkpt><trkpt lat="45.12465067195487" lon="9.02539002000405"><ele>82.0</ele><time>2026-05-01T08:48:35.001Z</time></trkpt><trkpt lat="45.12468472142047" lon="9.025502494559396"><ele>82.0</ele><time>2026-05-01T08:48:36.001Z</time></trkpt><trkpt lat="45.12471289711957" lon="9.025587357796953"><ele>82.0</ele><time>2026-05-01T08:48:37.001Z</time></trkpt><trkpt lat="45.12472085051475" lon="9.025689917781454"><ele>82.0</ele><time>2026-05-01T08:48:39.001Z</time></trkpt><trkpt lat="45.124627141723195" lon="9.025785773447648"><ele>82.0</ele><time>2026-05-01T08:48:41.001Z</time></trkpt><trkpt lat="45.12455338205337" lon="9.025815365849091"><ele>81.6</ele><time>2026-05-01T08:48:42.001Z</time></trkpt><trkpt lat="45.12446637000488" lon="9.025858514900268"><ele>81.19999999999999</ele><time>2026-05-01T08:48:43.001Z</time></trkpt><trkpt lat="45.12437921659549" lon="9.025904300718606"><ele>80.8</ele><time>2026-05-01T08:48:44.001Z</time></trkpt><trkpt lat="45.12429492723347" lon="9.025973154302191"><ele>80.4</ele><time>2026-05-01T08:48:45.001Z</time></trkpt><trkpt lat="45.124202070682315" lon="9.026027980012767"><ele>80.0</ele><time>2026-05-01T08:48:46.001Z</time></trkpt><trkpt lat="45.12411539787008" lon="9.026078634995997"><ele>77.6</ele><time>2026-05-01T08:48:47.001Z</time></trkpt><trkpt lat="45.12404008475711" lon="9.026116102291585"><ele>75.2</ele><time>2026-05-01T08:48:48.001Z</time></trkpt><trkpt lat="45.123977223866106" lon="9.026147677930705"><ele>72.8</ele><time>2026-05-01T08:48:49.001Z</time></trkpt><trkpt lat="45.12388573354952" lon="9.026177809972285"><ele>70.4</ele><time>2026-05-01T08:48:51.001Z</time></trkpt><trkpt lat="45.12381080908872" lon="9.026250842415154"><ele>68.0</ele><time>2026-05-01T08:52:03.001Z</time></trkpt><trkpt lat="45.123693601222584" lon="9.026329014018932"><ele>68.0</ele><time>2026-05-01T08:52:05.001Z</time></trkpt><trkpt lat="45.12363239463025" lon="9.02636868763899"><ele>68.0</ele><time>2026-05-01T08:52:06.001Z</time></trkpt><trkpt lat="45.12356200991582" lon="9.026413926354481"><ele>68.0</ele><time>2026-05-01T08:52:07.001Z</time></trkpt><trkpt lat="45.123486011699924" lon="9.026464566400275"><ele>68.0</ele><time>2026-05-01T08:52:08.001Z</time></trkpt><trkpt lat="45.12340679240558" lon="9.02651164027672"><ele>68.0</ele><time>2026-05-01T08:52:09.001Z</time></trkpt><trkpt lat="45.123321447556094" lon="9.026560982947975"><ele>68.0</ele><time>2026-05-01T08:52:10.001Z</time></trkpt><trkpt lat="45.12322771034069" lon="9.026612526693565"><ele>68.0</ele><time>2026-05-01T08:52:11.001Z</time></trkpt><trkpt lat="45.12312829968247" lon="9.026660157309257"><ele>68.0</ele><time>2026-05-01T08:52:12.001Z</time></trkpt><trkpt lat="45.12303293509478" lon="9.026691920163922"><ele>68.0</ele><time>2026-05-01T08:52:13.001Z</time></trkpt><trkpt lat="45.1229398081471" lon="9.02671631344715"><ele>68.0</ele><time>2026-05-01T08:52:14.001Z</time></trkpt><trkpt lat="45.12283964968088" lon="9.02674250061387"><ele>68.0</ele><time>2026-05-01T08:52:15.001Z</time></trkpt><trkpt lat="45.12273698136573" lon="9.026758781265332"><ele>68.0</ele><time>2026-05-01T08:52:16.001Z</time></trkpt><trkpt lat="45.12263406527092" lon="9.026768787712667"><ele>68.0</ele><time>2026-05-01T08:52:17.001Z</time></trkpt><trkpt lat="45.12253153137554" lon="9.026764023655897"><ele>68.0</ele><time>2026-05-01T08:52:18.001Z</time></trkpt><trkpt lat="45.12243358597914" lon="9.02675440415984"><ele>68.0</ele><time>2026-05-01T08:52:19.001Z</time></trkpt><trkpt lat="45.122336112784545" lon="9.026739588830292"><ele>68.0</ele><time>2026-05-01T08:52:20.001Z</time></trkpt><trkpt lat="45.12224153157012" lon="9.026712360984265"><ele>67.33333333333334</ele><time>2026-05-01T08:52:21.001Z</time></trkpt><trkpt lat="45.1221516958097" lon="9.02668397399105"><ele>66.66666666666667</ele><time>2026-05-01T08:52:22.001Z</time></trkpt><trkpt lat="45.122069750027514" lon="9.026667608939654"><ele>66.0</ele><time>2026-05-01T08:52:23.001Z</time></trkpt><trkpt lat="45.12199972109351" lon="9.026654225658485"><ele>65.33333333333333</ele><time>2026-05-01T08:52:24.001Z</time></trkpt><trkpt lat="45.121936927107825" lon="9.026663360601447"><ele>64.66666666666666</ele><time>2026-05-01T08:52:25.001Z</time></trkpt><trkpt lat="45.12183514177845" lon="9.026731313742019"><ele>64.0</ele><time>2026-05-01T08:52:27.001Z</time></trkpt><trkpt lat="45.1217480257481" lon="9.02681287308286"><ele>64.0</ele><time>2026-05-01T08:52:29.001Z</time></trkpt><trkpt lat="45.1216579046486" lon="9.026938527104033"><ele>64.0</ele><time>2026-05-01T08:52:31.001Z</time></trkpt><trkpt lat="45.12162566296859" lon="9.027042246223488"><ele>64.0</ele><time>2026-05-01T08:52:32.001Z</time></trkpt><trkpt lat="45.12160160793627" lon="9.027164345717008"><ele>64.0</ele><time>2026-05-01T08:52:33.001Z</time></trkpt><trkpt lat="45.12158174008917" lon="9.0273083138454"><ele>64.0</ele><time>2026-05-01T08:52:34.001Z</time></trkpt><trkpt lat="45.121567994243385" lon="9.027454817555302"><ele>64.25</ele><time>2026-05-01T08:52:35.001Z</time></trkpt><trkpt lat="45.121564947690395" lon="9.027603489618155"><ele>64.5</ele><time>2026-05-01T08:52:36.001Z</time></trkpt><trkpt lat="45.12154228149814" lon="9.027777583756281"><ele>64.75</ele><time>2026-05-01T08:52:37.001Z</time></trkpt><trkpt lat="45.121508699131496" lon="9.027933957282615"><ele>65.0</ele><time>2026-05-01T08:52:38.001Z</time></trkpt><trkpt lat="45.12147734952071" lon="9.028099954149708"><ele>65.0</ele><time>2026-05-01T08:52:39.001Z</time></trkpt><trkpt lat="45.1214421209977" lon="9.028267994190996"><ele>65.0</ele><time>2026-05-01T08:52:40.001Z</time></trkpt><trkpt lat="45.12140749859071" lon="9.028430430885809"><ele>65.0</ele><time>2026-05-01T08:52:41.001Z</time></trkpt><trkpt lat="45.121368777251185" lon="9.028598978375577"><ele>65.0</ele><time>2026-05-01T08:52:42.001Z</time></trkpt><trkpt lat="45.121330180260934" lon="9.028755691567014"><ele>64.75</ele><time>2026-05-01T08:52:43.001Z</time></trkpt><trkpt lat="45.1212849755276" lon="9.02892561555949"><ele>64.5</ele><time>2026-05-01T08:52:44.001Z</time></trkpt><trkpt lat="45.121248743564664" lon="9.029085908867653"><ele>64.25</ele><time>2026-05-01T08:52:45.001Z</time></trkpt><trkpt lat="45.12119565503464" lon="9.029241745288534"><ele>64.0</ele><time>2026-05-01T08:52:46.001Z</time></trkpt><trkpt lat="45.121131982831585" lon="9.029391720935914"><ele>63.75</ele><time>2026-05-01T08:52:47.001Z</time></trkpt><trkpt lat="45.12104456493284" lon="9.029509378075508"><ele>63.5</ele><time>2026-05-01T08:52:48.001Z</time></trkpt><trkpt lat="45.12095103496827" lon="9.029637804724489"><ele>63.25</ele><time>2026-05-01T08:52:49.001Z</time></trkpt><trkpt lat="45.12084635449817" lon="9.02976528848397"><ele>63.0</ele><time>2026-05-01T08:52:50.001Z</time></trkpt><trkpt lat="45.12075852664871" lon="9.029887630708613"><ele>63.0</ele><time>2026-05-01T08:52:51.001Z</time></trkpt><trkpt lat="45.12067644221675" lon="9.030022617023542"><ele>63.0</ele><time>2026-05-01T08:52:52.001Z</time></trkpt><trkpt lat="45.12061802472386" lon="9.030169373780629"><ele>63.0</ele><time>2026-05-01T08:52:53.001Z</time></trkpt><trkpt lat="45.12055635204002" lon="9.030296433626475"><ele>63.0</ele><time>2026-05-01T08:52:54.001Z</time></trkpt><trkpt lat="45.12050331851239" lon="9.030441030830431"><ele>63.0</ele><time>2026-05-01T08:52:55.001Z</time></trkpt><trkpt lat="45.12043445309407" lon="9.030603340901934"><ele>63.0</ele><time>2026-05-01T08:52:56.001Z</time></trkpt><trkpt lat="45.12036865603632" lon="9.030770433663974"><ele>63.0</ele><time>2026-05-01T08:52:57.001Z</time></trkpt><trkpt lat="45.1202842352518" lon="9.030929462833473"><ele>63.0</ele><time>2026-05-01T08:52:58.001Z</time></trkpt><trkpt lat="45.12022015233991" lon="9.031103815396019"><ele>62.5</ele><time>2026-05-01T08:52:59.001Z</time></trkpt><trkpt lat="45.12015872842549" lon="9.031278635205974"><ele>62.0</ele><time>2026-05-01T08:53:00.001Z</time></trkpt><trkpt lat="45.120086819116466" lon="9.031438435670863"><ele>61.5</ele><time>2026-05-01T08:53:01.001Z</time></trkpt><trkpt lat="45.12002247715702" lon="9.03159903788252"><ele>61.0</ele><time>2026-05-01T08:53:02.001Z</time></trkpt><trkpt lat="45.11995640138101" lon="9.031745547923515"><ele>61.5</ele><time>2026-05-01T08:53:03.001Z</time></trkpt><trkpt lat="45.11988100111331" lon="9.031877266810248"><ele>62.0</ele><time>2026-05-01T08:53:04.001Z</time></trkpt><trkpt lat="45.119808255392854" lon="9.0320222092898"><ele>62.5</ele><time>2026-05-01T08:53:05.001Z</time></trkpt><trkpt lat="45.11973915774057" lon="9.032159641689764"><ele>63.0</ele><time>2026-05-01T08:53:06.001Z</time></trkpt><trkpt lat="45.119667851395924" lon="9.032300910700233"><ele>63.0</ele><time>2026-05-01T08:53:07.001Z</time></trkpt><trkpt lat="45.11959489597345" lon="9.032443416928496"><ele>63.0</ele><time>2026-05-01T08:53:08.001Z</time></trkpt><trkpt lat="45.11953542264538" lon="9.03259453370687"><ele>63.0</ele><time>2026-05-01T08:53:09.001Z</time></trkpt><trkpt lat="45.1194555687431" lon="9.03272288040824"><ele>63.0</ele><time>2026-05-01T08:53:10.001Z</time></trkpt><trkpt lat="45.119388028652786" lon="9.03287112805461"><ele>62.75</ele><time>2026-05-01T08:53:11.001Z</time></trkpt><trkpt lat="45.11931706897427" lon="9.033018794819181"><ele>62.5</ele><time>2026-05-01T08:53:12.001Z</time></trkpt><trkpt lat="45.119247788757875" lon="9.033167580733398"><ele>62.25</ele><time>2026-05-01T08:53:13.001Z</time></trkpt><trkpt lat="45.11916680382552" lon="9.033292245209788"><ele>62.0</ele><time>2026-05-01T08:53:14.001Z</time></trkpt><trkpt lat="45.11909590476354" lon="9.033432737375199"><ele>62.0</ele><time>2026-05-01T08:53:15.001Z</time></trkpt><trkpt lat="45.11902589173611" lon="9.03356956912085"><ele>62.0</ele><time>2026-05-01T08:53:16.001Z</time></trkpt><trkpt lat="45.11895423251009" lon="9.033709045938595"><ele>62.0</ele><time>2026-05-01T08:53:17.001Z</time></trkpt><trkpt lat="45.11888006436998" lon="9.033855196607186"><ele>62.0</ele><time>2026-05-01T08:53:18.001Z</time></trkpt><trkpt lat="45.11880453615438" lon="9.03401088342964"><ele>62.0</ele><time>2026-05-01T08:53:19.001Z</time></trkpt><trkpt lat="45.11873113429739" lon="9.034171107751485"><ele>62.0</ele><time>2026-05-01T08:53:20.001Z</time></trkpt><trkpt lat="45.118658865552604" lon="9.034329284251488"><ele>62.0</ele><time>2026-05-01T08:53:21.001Z</time></trkpt><trkpt lat="45.118587540299416" lon="9.034482169182143"><ele>62.0</ele><time>2026-05-01T08:53:22.001Z</time></trkpt><trkpt lat="45.11851497650256" lon="9.034635675841981"><ele>62.0</ele><time>2026-05-01T08:53:23.002Z</time></trkpt><trkpt lat="45.118442112183686" lon="9.034786494145091"><ele>62.0</ele><time>2026-05-01T08:53:24.002Z</time></trkpt><trkpt lat="45.11838204283627" lon="9.03494999108931"><ele>62.0</ele><time>2026-05-01T08:53:25.002Z</time></trkpt><trkpt lat="45.11831120864272" lon="9.035093728009471"><ele>62.0</ele><time>2026-05-01T08:53:26.002Z</time></trkpt><trkpt lat="45.118232785795165" lon="9.035245476043958"><ele>61.75</ele><time>2026-05-01T08:53:27.002Z</time></trkpt><trkpt lat="45.118159894204766" lon="9.035394457699578"><ele>61.5</ele><time>2026-05-01T08:53:28.002Z</time></trkpt><trkpt lat="45.1180824472139" lon="9.035536146390708"><ele>61.25</ele><time>2026-05-01T08:53:29.002Z</time></trkpt><trkpt lat="45.11801742332525" lon="9.035693529346204"><ele>61.0</ele><time>2026-05-01T08:53:30.002Z</time></trkpt><trkpt lat="45.11795130724015" lon="9.035858149289673"><ele>61.0</ele><time>2026-05-01T08:53:31.002Z</time></trkpt><trkpt lat="45.117871567901396" lon="9.036006175224834"><ele>61.0</ele><time>2026-05-01T08:53:32.002Z</time></trkpt><trkpt lat="45.11781843411512" lon="9.036178089282252"><ele>61.0</ele><time>2026-05-01T08:53:33.002Z</time></trkpt><trkpt lat="45.117750058485406" lon="9.036335149653457"><ele>61.0</ele><time>2026-05-01T08:53:34.002Z</time></trkpt><trkpt lat="45.117674872033206" lon="9.036475549363102"><ele>61.0</ele><time>2026-05-01T08:53:35.002Z</time></trkpt><trkpt lat="45.117601451695045" lon="9.03662061796866"><ele>61.0</ele><time>2026-05-01T08:53:36.002Z</time></trkpt><trkpt lat="45.117539074804455" lon="9.03676047563949"><ele>61.0</ele><time>2026-05-01T08:53:37.002Z</time></trkpt><trkpt lat="45.11746365235092" lon="9.036888824084762"><ele>61.0</ele><time>2026-05-01T08:53:38.002Z</time></trkpt><trkpt lat="45.117393115871366" lon="9.037017083009363"><ele>61.166666666666664</ele><time>2026-05-01T08:53:39.002Z</time></trkpt><trkpt lat="45.117329967518394" lon="9.037122365135255"><ele>61.33333333333333</ele><time>2026-05-01T08:53:40.002Z</time></trkpt><trkpt lat="45.11727283870377" lon="9.03721367601477"><ele>61.5</ele><time>2026-05-01T08:53:41.002Z</time></trkpt><trkpt lat="45.11723595231276" lon="9.037308497125515"><ele>61.66666666666667</ele><time>2026-05-01T08:53:42.002Z</time></trkpt><trkpt lat="45.117198704298765" lon="9.037392225308981"><ele>61.833333333333336</ele><time>2026-05-01T08:53:43.002Z</time></trkpt><trkpt lat="45.11712640080468" lon="9.037518536380274"><ele>62.0</ele><time>2026-05-01T08:53:45.002Z</time></trkpt><trkpt lat="45.11704913200643" lon="9.03766291529838"><ele>62.00000000000001</ele><time>2026-05-01T08:53:47Z</time></trkpt><trkpt lat="45.11704254455205" lon="9.037763875292235"><ele>62.0</ele><time>2026-05-01T08:53:48Z</time></trkpt><trkpt lat="45.117083556696194" lon="9.037852109970698"><ele>62.0</ele><time>2026-05-01T08:53:49Z</time></trkpt><trkpt lat="45.1171231120001" lon="9.038040757838035"><ele>62.0</ele><time>2026-05-01T08:53:51Z</time></trkpt><trkpt lat="45.11714294158466" lon="9.038159193826505"><ele>62.00000000000001</ele><time>2026-05-01T08:53:52Z</time></trkpt><trkpt lat="45.117163326068365" lon="9.038265693409219"><ele>62.0</ele><time>2026-05-01T08:53:53Z</time></trkpt><trkpt lat="45.117184144624225" lon="9.038374727720587"><ele>62.400000000000006</ele><time>2026-05-01T08:53:54Z</time></trkpt><trkpt lat="45.11720487903772" lon="9.038483321482085"><ele>62.800000000000004</ele><time>2026-05-01T08:53:55Z</time></trkpt><trkpt lat="45.11722529863485" lon="9.038592695227935"><ele>63.2</ele><time>2026-05-01T08:53:56Z</time></trkpt><trkpt lat="45.11724393415228" lon="9.03869429847598"><ele>63.6</ele><time>2026-05-01T08:53:57Z</time></trkpt><trkpt lat="45.117262729894435" lon="9.038813775971835"><ele>64.0</ele><time>2026-05-01T08:53:58Z</time></trkpt><trkpt lat="45.11726388737594" lon="9.039071307142363"><ele>64.4</ele><time>2026-05-01T08:53:59Z</time></trkpt><trkpt lat="45.117190994627485" lon="9.039295259374242"><ele>64.80000000000001</ele><time>2026-05-01T08:54:00Z</time></trkpt><trkpt lat="45.11715491458569" lon="9.039373832538075"><ele>65.19999999999999</ele><time>2026-05-01T08:54:01Z</time></trkpt><trkpt lat="45.117075881702036" lon="9.039517938883572"><ele>65.6</ele><time>2026-05-01T08:54:03Z</time></trkpt><trkpt lat="45.117023533239305" lon="9.039596340310727"><ele>66.0</ele><time>2026-05-01T08:54:04Z</time></trkpt><trkpt lat="45.116919303675594" lon="9.039742908102175"><ele>64.0</ele><time>2026-05-01T08:54:06Z</time></trkpt><trkpt lat="45.11630465887603" lon="9.039401640337598"><ele>64.0</ele><time>2026-05-01T08:54:07Z</time></trkpt><trkpt lat="45.11620146827954" lon="9.039504364451522"><ele>64.0</ele><time>2026-05-01T08:54:08Z</time></trkpt><trkpt lat="45.11609088770058" lon="9.03961624446645"><ele>64.0</ele><time>2026-05-01T08:54:09Z</time></trkpt><trkpt lat="45.115969851992915" lon="9.039734321643579"><ele>64.0</ele><time>2026-05-01T08:54:10Z</time></trkpt><trkpt lat="45.115856377431484" lon="9.039843909659504"><ele>64.0</ele><time>2026-05-01T08:54:11Z</time></trkpt><trkpt lat="45.115743424502156" lon="9.039948337801084"><ele>64.0</ele><time>2026-05-01T08:54:12Z</time></trkpt><trkpt lat="45.11563294498967" lon="9.04005015511186"><ele>64.0</ele><time>2026-05-01T08:54:13Z</time></trkpt><trkpt lat="45.11552122082708" lon="9.040162355611717"><ele>64.0</ele><time>2026-05-01T08:54:14Z</time></trkpt><trkpt lat="45.115405965732826" lon="9.04026775078467"><ele>63.0</ele><time>2026-05-01T08:54:15Z</time></trkpt><trkpt lat="45.11528449328593" lon="9.04038018665871"><ele>62.0</ele><time>2026-05-01T08:54:16Z</time></trkpt><trkpt lat="45.11516335116378" lon="9.04049963303306"><ele>61.0</ele><time>2026-05-01T08:54:17Z</time></trkpt><trkpt lat="45.11504428978697" lon="9.040609640421973"><ele>60.0</ele><time>2026-05-01T08:54:18Z</time></trkpt><trkpt lat="45.11493318026983" lon="9.040718254968674"><ele>60.5</ele><time>2026-05-01T08:54:19Z</time></trkpt><trkpt lat="45.11481457550503" lon="9.040830773767444"><ele>61.0</ele><time>2026-05-01T08:54:20Z</time></trkpt><trkpt lat="45.11469761566612" lon="9.040939732268608"><ele>61.5</ele><time>2026-05-01T08:54:21Z</time></trkpt><trkpt lat="45.11458566163527" lon="9.041043182969048"><ele>62.0</ele><time>2026-05-01T08:54:22Z</time></trkpt><trkpt lat="45.11447473977219" lon="9.041150457201846"><ele>62.0</ele><time>2026-05-01T08:54:23Z</time></trkpt><trkpt lat="45.11436485285968" lon="9.041267819397516"><ele>62.0</ele><time>2026-05-01T08:54:24Z</time></trkpt><trkpt lat="45.11425570297157" lon="9.041378432374914"><ele>62.0</ele><time>2026-05-01T08:54:25Z</time></trkpt><trkpt lat="45.11416540346474" lon="9.041474379903736"><ele>62.0</ele><time>2026-05-01T08:54:26Z</time></trkpt><trkpt lat="45.11408016444245" lon="9.041574711216725"><ele>61.8</ele><time>2026-05-01T08:54:27Z</time></trkpt><trkpt lat="45.11399202621565" lon="9.041683161958852"><ele>61.6</ele><time>2026-05-01T08:54:28Z</time></trkpt><trkpt lat="45.1139013186834" lon="9.041790521171905"><ele>61.39999999999999</ele><time>2026-05-01T08:54:29Z</time></trkpt><trkpt lat="45.113824096880926" lon="9.041881962510372"><ele>61.199999999999996</ele><time>2026-05-01T08:54:30Z</time></trkpt><trkpt lat="45.11375273953303" lon="9.041964572040664"><ele>61.0</ele><time>2026-05-01T08:54:31Z</time></trkpt><trkpt lat="45.113677818628176" lon="9.04205152567715"><ele>61.0</ele><time>2026-05-01T08:54:32.001Z</time></trkpt><trkpt lat="45.11359859478267" lon="9.04214020913525"><ele>61.0</ele><time>2026-05-01T08:54:33.001Z</time></trkpt><trkpt lat="45.11350856404933" lon="9.042244098023808"><ele>61.0</ele><time>2026-05-01T08:54:34.001Z</time></trkpt><trkpt lat="45.11341526056944" lon="9.042350442543109"><ele>61.0</ele><time>2026-05-01T08:54:35.001Z</time></trkpt><trkpt lat="45.11330354669216" lon="9.042442258533518"><ele>61.199999999999996</ele><time>2026-05-01T08:54:36.001Z</time></trkpt><trkpt lat="45.11319771794019" lon="9.042528811918494"><ele>61.39999999999999</ele><time>2026-05-01T08:54:37.001Z</time></trkpt><trkpt lat="45.113100770096" lon="9.042605952109392"><ele>61.6</ele><time>2026-05-01T08:54:38.001Z</time></trkpt><trkpt lat="45.113009640574774" lon="9.042671187067192"><ele>61.8</ele><time>2026-05-01T08:54:39.001Z</time></trkpt><trkpt lat="45.11292143043231" lon="9.042728561493862"><ele>62.0</ele><time>2026-05-01T08:54:40.001Z</time></trkpt><trkpt lat="45.11289201163366" lon="9.042964233736985"><ele>62.0</ele><time>2026-05-01T08:54:41.001Z</time></trkpt><trkpt lat="45.112828745747414" lon="9.043012181121863"><ele>62.0</ele><time>2026-05-01T08:54:42.001Z</time></trkpt><trkpt lat="45.11276012900459" lon="9.043073755743537"><ele>62.0</ele><time>2026-05-01T08:54:43.001Z</time></trkpt><trkpt lat="45.11266504689515" lon="9.043208669136447"><ele>62.0</ele><time>2026-05-01T08:54:45.001Z</time></trkpt><trkpt lat="45.11257976987792" lon="9.043382624781438"><ele>62.0</ele><time>2026-05-01T08:54:47.001Z</time></trkpt><trkpt lat="45.11252013049216" lon="9.04351512873357"><ele>62.25</ele><time>2026-05-01T08:54:48.001Z</time></trkpt><trkpt lat="45.11246368301275" lon="9.043652718789774"><ele>62.5</ele><time>2026-05-01T08:54:49.001Z</time></trkpt><trkpt lat="45.112407068000145" lon="9.043806112631986"><ele>62.75</ele><time>2026-05-01T08:54:50.001Z</time></trkpt><trkpt lat="45.11235101623055" lon="9.043963483671002"><ele>63.0</ele><time>2026-05-01T08:54:51.001Z</time></trkpt><trkpt lat="45.11229779508925" lon="9.044120149206396"><ele>62.5</ele><time>2026-05-01T08:54:52.001Z</time></trkpt><trkpt lat="45.112242303821425" lon="9.044282429889188"><ele>62.0</ele><time>2026-05-01T08:54:53.001Z</time></trkpt><trkpt lat="45.11218798510735" lon="9.044439001759933"><ele>61.5</ele><time>2026-05-01T08:54:54.001Z</time></trkpt><trkpt lat="45.11213529903399" lon="9.044590867651928"><ele>61.0</ele><time>2026-05-01T08:54:55.001Z</time></trkpt><trkpt lat="45.11208372763296" lon="9.044739520621015"><ele>61.0</ele><time>2026-05-01T08:54:56.001Z</time></trkpt><trkpt lat="45.11203544038243" lon="9.04487870695265"><ele>60.99999999999999</ele><time>2026-05-01T08:54:57.001Z</time></trkpt><trkpt lat="45.11198757614699" lon="9.045016674043232"><ele>60.99999999999999</ele><time>2026-05-01T08:54:58.001Z</time></trkpt><trkpt lat="45.11194218358732" lon="9.045147516603064"><ele>61.0</ele><time>2026-05-01T08:54:59.001Z</time></trkpt><trkpt lat="45.11189115086423" lon="9.045259980085703"><ele>61.0</ele><time>2026-05-01T08:55:00.001Z</time></trkpt><trkpt lat="45.11184485899546" lon="9.045348747392657"><ele>61.5</ele><time>2026-05-01T08:55:01.001Z</time></trkpt><trkpt lat="45.1117965846831" lon="9.045430066831434"><ele>62.0</ele><time>2026-05-01T08:55:02.001Z</time></trkpt><trkpt lat="45.11121565709843" lon="9.045140452688734"><ele>62.0</ele><time>2026-05-01T08:55:03.001Z</time></trkpt><trkpt lat="45.11109793706707" lon="9.045158524991434"><ele>62.0</ele><time>2026-05-01T08:55:04.001Z</time></trkpt><trkpt lat="45.110975297585185" lon="9.045159075052974"><ele>62.0</ele><time>2026-05-01T08:55:05.001Z</time></trkpt><trkpt lat="45.11084909205679" lon="9.045144796388149"><ele>62.0</ele><time>2026-05-01T08:55:06.001Z</time></trkpt><trkpt lat="45.110720592539714" lon="9.045124425023527"><ele>62.0</ele><time>2026-05-01T08:55:07.001Z</time></trkpt><trkpt lat="45.11059037843505" lon="9.045103963155832"><ele>62.0</ele><time>2026-05-01T08:55:08.001Z</time></trkpt><trkpt lat="45.11046457025306" lon="9.04508093782997"><ele>62.0</ele><time>2026-05-01T08:55:09.001Z</time></trkpt><trkpt lat="45.11034096565993" lon="9.04504678594685"><ele>62.0</ele><time>2026-05-01T08:55:10.001Z</time></trkpt><trkpt lat="45.11022185096036" lon="9.04500664011471"><ele>62.0</ele><time>2026-05-01T08:55:11.001Z</time></trkpt><trkpt lat="45.11011107490481" lon="9.044968457321616"><ele>62.0</ele><time>2026-05-01T08:55:12.001Z</time></trkpt><trkpt lat="45.11002114416075" lon="9.044942925824664"><ele>62.0</ele><time>2026-05-01T08:55:13.001Z</time></trkpt><trkpt lat="45.10994632682952" lon="9.044935617864372"><ele>62.0</ele><time>2026-05-01T08:55:14.001Z</time></trkpt><trkpt lat="45.10987807207549" lon="9.044946300401064"><ele>62.0</ele><time>2026-05-01T08:55:15.001Z</time></trkpt><trkpt lat="45.10978069709779" lon="9.045033637486046"><ele>61.8</ele><time>2026-05-01T08:55:17.001Z</time></trkpt><trkpt lat="45.10969294479378" lon="9.045166219086852"><ele>61.6</ele><time>2026-05-01T08:55:19.001Z</time></trkpt><trkpt lat="45.10962439876208" lon="9.04524055418002"><ele>61.39999999999999</ele><time>2026-05-01T08:55:20.001Z</time></trkpt><trkpt lat="45.10954096397059" lon="9.045318862555266"><ele>61.199999999999996</ele><time>2026-05-01T08:55:21.001Z</time></trkpt><trkpt lat="45.10944452034807" lon="9.045409373848296"><ele>61.0</ele><time>2026-05-01T08:55:22.001Z</time></trkpt><trkpt lat="45.10935066911674" lon="9.045502466686507"><ele>61.0</ele><time>2026-05-01T08:55:23.001Z</time></trkpt><trkpt lat="45.10926370238357" lon="9.04559222124334"><ele>61.0</ele><time>2026-05-01T08:55:24.001Z</time></trkpt><trkpt lat="45.109171781914796" lon="9.045684966864286"><ele>61.0</ele><time>2026-05-01T08:55:25.001Z</time></trkpt><trkpt lat="45.109074616169956" lon="9.045780622611266"><ele>61.0</ele><time>2026-05-01T08:55:26.001Z</time></trkpt><trkpt lat="45.1089769527351" lon="9.045881504186013"><ele>61.5</ele><time>2026-05-01T08:55:27.001Z</time></trkpt><trkpt lat="45.108876404269424" lon="9.045974110083975"><ele>62.0</ele><time>2026-05-01T08:55:28.001Z</time></trkpt><trkpt lat="45.10877878709946" lon="9.0460699467299"><ele>62.5</ele><time>2026-05-01T08:55:29.001Z</time></trkpt><trkpt lat="45.10868082919825" lon="9.04616974346428"><ele>63.0</ele><time>2026-05-01T08:55:30.001Z</time></trkpt><trkpt lat="45.10859002196175" lon="9.046261851071348"><ele>63.0</ele><time>2026-05-01T08:55:31.001Z</time></trkpt><trkpt lat="45.108509748519204" lon="9.046350738959676"><ele>63.0</ele><time>2026-05-01T08:55:32.001Z</time></trkpt><trkpt lat="45.108436623476045" lon="9.046432581282353"><ele>63.0</ele><time>2026-05-01T08:55:33.001Z</time></trkpt><trkpt lat="45.10836966251813" lon="9.04651013537329"><ele>63.0</ele><time>2026-05-01T08:55:34.001Z</time></trkpt><trkpt lat="45.10830500084327" lon="9.046599663207141"><ele>63.0</ele><time>2026-05-01T08:55:35.001Z</time></trkpt><trkpt lat="45.1082339504593" lon="9.046697705362922"><ele>62.5</ele><time>2026-05-01T08:55:36.001Z</time></trkpt><trkpt lat="45.10817025206552" lon="9.04680597299069"><ele>62.0</ele><time>2026-05-01T08:55:37.001Z</time></trkpt><trkpt lat="45.1081113985814" lon="9.04693155727127"><ele>61.5</ele><time>2026-05-01T08:55:38.001Z</time></trkpt><trkpt lat="45.10804801366259" lon="9.047077834587991"><ele>61.0</ele><time>2026-05-01T08:55:39.001Z</time></trkpt><trkpt lat="45.10797639495357" lon="9.047227097438087"><ele>61.0</ele><time>2026-05-01T08:55:40.001Z</time></trkpt><trkpt lat="45.1079029129253" lon="9.04738287831658"><ele>61.0</ele><time>2026-05-01T08:55:41.001Z</time></trkpt><trkpt lat="45.10782773136149" lon="9.047531429626332"><ele>61.0</ele><time>2026-05-01T08:55:42.001Z</time></trkpt><trkpt lat="45.107757829801905" lon="9.047667769961514"><ele>61.0</ele><time>2026-05-01T08:55:43.001Z</time></trkpt><trkpt lat="45.10770400390043" lon="9.047797254892245"><ele>61.25</ele><time>2026-05-01T08:55:44.001Z</time></trkpt><trkpt lat="45.10764104030601" lon="9.047925477218879"><ele>61.5</ele><time>2026-05-01T08:55:45.001Z</time></trkpt><trkpt lat="45.10756329912395" lon="9.04804836083712"><ele>61.75</ele><time>2026-05-01T08:55:46.001Z</time></trkpt><trkpt lat="45.107485971447375" lon="9.048168021069209"><ele>62.0</ele><time>2026-05-01T08:55:47.001Z</time></trkpt><trkpt lat="45.10740388449216" lon="9.048284255586676"><ele>62.5</ele><time>2026-05-01T08:55:48.002Z</time></trkpt><trkpt lat="45.107315323281874" lon="9.048404661257168"><ele>63.0</ele><time>2026-05-01T08:55:49.002Z</time></trkpt><trkpt lat="45.10723295088401" lon="9.048526016267436"><ele>63.5</ele><time>2026-05-01T08:55:50.002Z</time></trkpt><trkpt lat="45.107147700961406" lon="9.048649465837"><ele>64.0</ele><time>2026-05-01T08:55:51.002Z</time></trkpt><trkpt lat="45.107063841680116" lon="9.048775643512506"><ele>64.0</ele><time>2026-05-01T08:55:52.002Z</time></trkpt><trkpt lat="45.106975462854486" lon="9.048902479757347"><ele>64.0</ele><time>2026-05-01T08:55:53Z</time></trkpt><trkpt lat="45.10688672732943" lon="9.049032260291302"><ele>64.0</ele><time>2026-05-01T08:55:54Z</time></trkpt><trkpt lat="45.10679925827801" lon="9.049156743689686"><ele>64.0</ele><time>2026-05-01T08:55:55Z</time></trkpt><trkpt lat="45.106713471153725" lon="9.049279945994128"><ele>64.25</ele><time>2026-05-01T08:55:56Z</time></trkpt><trkpt lat="45.106630206527754" lon="9.049398483048614"><ele>64.5</ele><time>2026-05-01T08:55:57Z</time></trkpt><trkpt lat="45.10655332079732" lon="9.049516381954279"><ele>64.75</ele><time>2026-05-01T08:55:58Z</time></trkpt><trkpt lat="45.106474371906096" lon="9.049630363862963"><ele>65.0</ele><time>2026-05-01T08:55:59Z</time></trkpt><trkpt lat="45.10640189865507" lon="9.049742120502243"><ele>65.0</ele><time>2026-05-01T08:56:00Z</time></trkpt><trkpt lat="45.10633112607634" lon="9.049848888371491"><ele>65.0</ele><time>2026-05-01T08:56:01Z</time></trkpt><trkpt lat="45.106255859858344" lon="9.049957428603843"><ele>65.0</ele><time>2026-05-01T08:56:02Z</time></trkpt><trkpt lat="45.10618048298485" lon="9.050072209000543"><ele>65.0</ele><time>2026-05-01T08:56:03Z</time></trkpt><trkpt lat="45.10610475058931" lon="9.050189250759418"><ele>65.0</ele><time>2026-05-01T08:56:04Z</time></trkpt><trkpt lat="45.106030874591276" lon="9.050301288869724"><ele>65.0</ele><time>2026-05-01T08:56:05Z</time></trkpt><trkpt lat="45.105958630540975" lon="9.05041026799041"><ele>65.0</ele><time>2026-05-01T08:56:06Z</time></trkpt><trkpt lat="45.10588523499324" lon="9.050518224684597"><ele>65.0</ele><time>2026-05-01T08:56:07Z</time></trkpt><trkpt lat="45.10581827499444" lon="9.050620162238037"><ele>65.0</ele><time>2026-05-01T08:56:08Z</time></trkpt><trkpt lat="45.10575521299899" lon="9.05071988311305"><ele>65.0</ele><time>2026-05-01T08:56:09Z</time></trkpt><trkpt lat="45.10569703455788" lon="9.050829474707147"><ele>64.75</ele><time>2026-05-01T08:56:10Z</time></trkpt><trkpt lat="45.105643616013026" lon="9.050954600714526"><ele>64.5</ele><time>2026-05-01T08:56:11Z</time></trkpt><trkpt lat="45.10559192519044" lon="9.05109519059682"><ele>64.25</ele><time>2026-05-01T08:56:12Z</time></trkpt><trkpt lat="45.10554209921709" lon="9.051253019507165"><ele>64.0</ele><time>2026-05-01T08:56:13Z</time></trkpt><trkpt lat="45.105488959351995" lon="9.051421269518345"><ele>64.0</ele><time>2026-05-01T08:56:14Z</time></trkpt><trkpt lat="45.10543327314698" lon="9.051586266293576"><ele>64.0</ele><time>2026-05-01T08:56:15Z</time></trkpt><trkpt lat="45.105372924121546" lon="9.051752058905983"><ele>64.0</ele><time>2026-05-01T08:56:16Z</time></trkpt><trkpt lat="45.10530909221423" lon="9.051923081181389"><ele>64.0</ele><time>2026-05-01T08:56:17Z</time></trkpt><trkpt lat="45.10524757655354" lon="9.052089261977882"><ele>63.75</ele><time>2026-05-01T08:56:18Z</time></trkpt><trkpt lat="45.105188511578795" lon="9.052241986611419"><ele>63.5</ele><time>2026-05-01T08:56:19Z</time></trkpt><trkpt lat="45.10512846811237" lon="9.052398245417354"><ele>63.25</ele><time>2026-05-01T08:56:20Z</time></trkpt><trkpt lat="45.105072795770695" lon="9.052561645189863"><ele>63.0</ele><time>2026-05-01T08:56:21Z</time></trkpt><trkpt lat="45.105012967964406" lon="9.052712713292513"><ele>63.0</ele><time>2026-05-01T08:56:22Z</time></trkpt><trkpt lat="45.10496004749602" lon="9.052844652573441"><ele>63.0</ele><time>2026-05-01T08:56:23Z</time></trkpt><trkpt lat="45.10490826731184" lon="9.052980168644773"><ele>63.0</ele><time>2026-05-01T08:56:24Z</time></trkpt><trkpt lat="45.10486146353996" lon="9.053117557350248"><ele>63.0</ele><time>2026-05-01T08:56:25Z</time></trkpt><trkpt lat="45.104826777071686" lon="9.053257446356263"><ele>63.0</ele><time>2026-05-01T08:56:26Z</time></trkpt><trkpt lat="45.104799388636344" lon="9.053401870197519"><ele>63.0</ele><time>2026-05-01T08:56:27Z</time></trkpt><trkpt lat="45.104783360734466" lon="9.053555632462793"><ele>63.0</ele><time>2026-05-01T08:56:28Z</time></trkpt><trkpt lat="45.10477545052871" lon="9.053704586183187"><ele>63.0</ele><time>2026-05-01T08:56:29Z</time></trkpt><trkpt lat="45.1047775191388" lon="9.053836854634515"><ele>63.0</ele><time>2026-05-01T08:56:30Z</time></trkpt><trkpt lat="45.104780773531175" lon="9.053974926588902"><ele>63.0</ele><time>2026-05-01T08:56:31Z</time></trkpt><trkpt lat="45.104784113679884" lon="9.054117181464047"><ele>63.0</ele><time>2026-05-01T08:56:32Z</time></trkpt><trkpt lat="45.10480385839101" lon="9.054259883894726"><ele>63.0</ele><time>2026-05-01T08:56:33Z</time></trkpt><trkpt lat="45.10482806873423" lon="9.05441271960995"><ele>63.0</ele><time>2026-05-01T08:56:34Z</time></trkpt><trkpt lat="45.10485895058488" lon="9.054569900307728"><ele>63.0</ele><time>2026-05-01T08:56:35Z</time></trkpt><trkpt lat="45.10490023072766" lon="9.054720943483698"><ele>63.0</ele><time>2026-05-01T08:56:36Z</time></trkpt><trkpt lat="45.10494494931944" lon="9.054868413882987"><ele>62.75</ele><time>2026-05-01T08:56:37Z</time></trkpt><trkpt lat="45.10500050053173" lon="9.055008437408656"><ele>62.5</ele><time>2026-05-01T08:56:38Z</time></trkpt><trkpt lat="45.10506516961394" lon="9.05514676154151"><ele>62.25</ele><time>2026-05-01T08:56:39Z</time></trkpt><trkpt lat="45.105127140878395" lon="9.055275764150672"><ele>62.0</ele><time>2026-05-01T08:56:40Z</time></trkpt><trkpt lat="45.10519346623787" lon="9.055411909315653"><ele>62.0</ele><time>2026-05-01T08:56:41Z</time></trkpt><trkpt lat="45.105261897883544" lon="9.055544738495579"><ele>62.0</ele><time>2026-05-01T08:56:42Z</time></trkpt><trkpt lat="45.10533141971214" lon="9.055690893647789"><ele>62.0</ele><time>2026-05-01T08:56:43Z</time></trkpt><trkpt lat="45.105397600833115" lon="9.055844434039205"><ele>62.0</ele><time>2026-05-01T08:56:44Z</time></trkpt><trkpt lat="45.10552347927593" lon="9.055931207892694"><ele>62.0</ele><time>2026-05-01T08:56:45Z</time></trkpt><trkpt lat="45.10559707585353" lon="9.056078279601547"><ele>62.0</ele><time>2026-05-01T08:56:46Z</time></trkpt><trkpt lat="45.10567071414198" lon="9.056225428618825"><ele>62.0</ele><time>2026-05-01T08:56:47Z</time></trkpt><trkpt lat="45.105746852940726" lon="9.05637447265591"><ele>62.0</ele><time>2026-05-01T08:56:48Z</time></trkpt><trkpt lat="45.10582373493511" lon="9.056513742812005"><ele>62.25</ele><time>2026-05-01T08:56:49Z</time></trkpt><trkpt lat="45.10590802676594" lon="9.05661503271209"><ele>62.5</ele><time>2026-05-01T08:56:50Z</time></trkpt><trkpt lat="45.10600629742325" lon="9.05673931518251"><ele>62.75</ele><time>2026-05-01T08:56:51.001Z</time></trkpt><trkpt lat="45.106204297069674" lon="9.056760031638147"><ele>63.0</ele><time>2026-05-01T08:56:53.001Z</time></trkpt><trkpt lat="45.10633074237984" lon="9.05687086861014"><ele>63.0</ele><time>2026-05-01T08:56:54.001Z</time></trkpt><trkpt lat="45.10642789480828" lon="9.056974417417033"><ele>63.0</ele><time>2026-05-01T08:56:55.001Z</time></trkpt><trkpt lat="45.10651571659066" lon="9.057075864522915"><ele>63.0</ele><time>2026-05-01T08:56:56.001Z</time></trkpt><trkpt lat="45.10634074313802" lon="9.057913960480361"><ele>62.75</ele><time>2026-05-01T08:56:57.001Z</time></trkpt><trkpt lat="45.10642119397715" lon="9.058082323380633"><ele>62.5</ele><time>2026-05-01T08:56:58.001Z</time></trkpt><trkpt lat="45.10650343852581" lon="9.05825520684297"><ele>62.25</ele><time>2026-05-01T08:56:59.001Z</time></trkpt><trkpt lat="45.1065854020634" lon="9.058432145147949"><ele>62.0</ele><time>2026-05-01T08:57:00.001Z</time></trkpt><trkpt lat="45.106666361461755" lon="9.05860773383557"><ele>62.0</ele><time>2026-05-01T08:57:01.001Z</time></trkpt><trkpt lat="45.106749211681056" lon="9.058781857587064"><ele>62.0</ele><time>2026-05-01T08:57:02.001Z</time></trkpt><trkpt lat="45.106822386643465" lon="9.058943001238978"><ele>62.0</ele><time>2026-05-01T08:57:03.001Z</time></trkpt><trkpt lat="45.10689269465715" lon="9.059094032022807"><ele>62.0</ele><time>2026-05-01T08:57:04.001Z</time></trkpt><trkpt lat="45.10695812032728" lon="9.059234974912238"><ele>62.0</ele><time>2026-05-01T08:57:05.001Z</time></trkpt><trkpt lat="45.10702513084537" lon="9.059369957455527"><ele>62.0</ele><time>2026-05-01T08:57:06.001Z</time></trkpt><trkpt lat="45.10709062532546" lon="9.05951940293234"><ele>62.0</ele><time>2026-05-01T08:57:07.001Z</time></trkpt><trkpt lat="45.10715764155987" lon="9.059669626473836"><ele>62.0</ele><time>2026-05-01T08:57:08.001Z</time></trkpt><trkpt lat="45.10722476328443" lon="9.059814071604626"><ele>62.0</ele><time>2026-05-01T08:57:09.001Z</time></trkpt><trkpt lat="45.107293689136114" lon="9.05995642687398"><ele>62.0</ele><time>2026-05-01T08:57:10.001Z</time></trkpt><trkpt lat="45.10736473898355" lon="9.060101119638642"><ele>62.0</ele><time>2026-05-01T08:57:11.001Z</time></trkpt><trkpt lat="45.10742847967741" lon="9.060234103098338"><ele>62.0</ele><time>2026-05-01T08:57:12.001Z</time></trkpt><trkpt lat="45.107501246079885" lon="9.060359765773189"><ele>62.0</ele><time>2026-05-01T08:57:13.001Z</time></trkpt><trkpt lat="45.10756122518033" lon="9.060469538199316"><ele>62.0</ele><time>2026-05-01T08:57:14.001Z</time></trkpt><trkpt lat="45.10763085656504" lon="9.060577047472176"><ele>62.0</ele><time>2026-05-01T08:57:15.001Z</time></trkpt><trkpt lat="45.10770696939662" lon="9.060683925664579"><ele>62.0</ele><time>2026-05-01T08:57:16.001Z</time></trkpt><trkpt lat="45.1077990235985" lon="9.060792179781547"><ele>62.0</ele><time>2026-05-01T08:57:17.001Z</time></trkpt><trkpt lat="45.10790230404292" lon="9.060904852126974"><ele>61.75</ele><time>2026-05-01T08:57:18.001Z</time></trkpt><trkpt lat="45.108007973684984" lon="9.061020759912788"><ele>61.5</ele><time>2026-05-01T08:57:19.001Z</time></trkpt><trkpt lat="45.108113000976694" lon="9.061129379323525"><ele>61.25</ele><time>2026-05-01T08:57:20.001Z</time></trkpt><trkpt lat="45.10822216664426" lon="9.06124141725569"><ele>61.0</ele><time>2026-05-01T08:57:21.001Z</time></trkpt><trkpt lat="45.10832399519751" lon="9.061343296821867"><ele>61.5</ele><time>2026-05-01T08:57:22.001Z</time></trkpt><trkpt lat="45.108424657950366" lon="9.061451874091293"><ele>62.0</ele><time>2026-05-01T08:57:23.001Z</time></trkpt><trkpt lat="45.10852546973329" lon="9.061557929563072"><ele>62.5</ele><time>2026-05-01T08:57:24.001Z</time></trkpt><trkpt lat="45.10862344726218" lon="9.061673775600307"><ele>63.0</ele><time>2026-05-01T08:57:25.001Z</time></trkpt><trkpt lat="45.108721551856114" lon="9.06178415309055"><ele>63.0</ele><time>2026-05-01T08:57:26.001Z</time></trkpt><trkpt lat="45.10881964278842" lon="9.061891837868417"><ele>63.0</ele><time>2026-05-01T08:57:27.001Z</time></trkpt><trkpt lat="45.1089181615307" lon="9.061995804415764"><ele>63.0</ele><time>2026-05-01T08:57:28.001Z</time></trkpt><trkpt lat="45.10901297832316" lon="9.062103870347277"><ele>63.0</ele><time>2026-05-01T08:57:29.001Z</time></trkpt><trkpt lat="45.10910296461409" lon="9.062207316541128"><ele>63.0</ele><time>2026-05-01T08:57:30.001Z</time></trkpt><trkpt lat="45.109196338337064" lon="9.062298658326815"><ele>63.0</ele><time>2026-05-01T08:57:31.001Z</time></trkpt><trkpt lat="45.10929246969065" lon="9.062400544052363"><ele>63.0</ele><time>2026-05-01T08:57:32.001Z</time></trkpt><trkpt lat="45.10938707017294" lon="9.062503775113209"><ele>63.0</ele><time>2026-05-01T08:57:33.001Z</time></trkpt><trkpt lat="45.109476162536964" lon="9.062605577345991"><ele>63.0</ele><time>2026-05-01T08:57:34.001Z</time></trkpt><trkpt lat="45.10955619888563" lon="9.062692297644208"><ele>63.0</ele><time>2026-05-01T08:57:35.001Z</time></trkpt><trkpt lat="45.109631043623075" lon="9.062772462505032"><ele>63.0</ele><time>2026-05-01T08:57:36.001Z</time></trkpt><trkpt lat="45.10969883758763" lon="9.06284482584364"><ele>63.0</ele><time>2026-05-01T08:57:37.001Z</time></trkpt><trkpt lat="45.10976563658178" lon="9.062915879733694"><ele>63.0</ele><time>2026-05-01T08:57:38.001Z</time></trkpt><trkpt lat="45.109806869010384" lon="9.063040530605749"><ele>63.0</ele><time>2026-05-01T08:57:39.001Z</time></trkpt><trkpt lat="45.10987744975397" lon="9.063140465272634"><ele>63.0</ele><time>2026-05-01T08:57:40.001Z</time></trkpt><trkpt lat="45.109945846716165" lon="9.063244251198906"><ele>63.0</ele><time>2026-05-01T08:57:41.001Z</time></trkpt><trkpt lat="45.11001337817551" lon="9.063349115585678"><ele>63.0</ele><time>2026-05-01T08:57:42.001Z</time></trkpt><trkpt lat="45.11008187345317" lon="9.063457597082493"><ele>63.0</ele><time>2026-05-01T08:57:43.001Z</time></trkpt><trkpt lat="45.110153271021446" lon="9.063571347052726"><ele>63.0</ele><time>2026-05-01T08:57:44.001Z</time></trkpt><trkpt lat="45.11023406515662" lon="9.063699022557808"><ele>63.0</ele><time>2026-05-01T08:57:45.001Z</time></trkpt><trkpt lat="45.110317433387024" lon="9.063828050209418"><ele>63.0</ele><time>2026-05-01T08:57:46.001Z</time></trkpt><trkpt lat="45.11040787108161" lon="9.063969341512397"><ele>63.0</ele><time>2026-05-01T08:57:47.001Z</time></trkpt><trkpt lat="45.11050123270115" lon="9.06411835154559"><ele>63.0</ele><time>2026-05-01T08:57:48.001Z</time></trkpt><trkpt lat="45.11059743813901" lon="9.06427110347935"><ele>63.0</ele><time>2026-05-01T08:57:49.001Z</time></trkpt><trkpt lat="45.11069095992868" lon="9.064416728500618"><ele>63.0</ele><time>2026-05-01T08:57:50.001Z</time></trkpt><trkpt lat="45.11079118542591" lon="9.064571806398394"><ele>63.0</ele><time>2026-05-01T08:57:51.001Z</time></trkpt><trkpt lat="45.11089281111455" lon="9.06472733915243"><ele>63.0</ele><time>2026-05-01T08:57:52.001Z</time></trkpt><trkpt lat="45.11099510094576" lon="9.064883888402516"><ele>63.0</ele><time>2026-05-01T08:57:53.001Z</time></trkpt><trkpt lat="45.11109494533759" lon="9.06503949737779"><ele>63.0</ele><time>2026-05-01T08:57:54.001Z</time></trkpt><trkpt lat="45.11119077391279" lon="9.06519115203465"><ele>63.0</ele><time>2026-05-01T08:57:55.001Z</time></trkpt><trkpt lat="45.111278267051" lon="9.065329378627695"><ele>63.0</ele><time>2026-05-01T08:57:56.001Z</time></trkpt><trkpt lat="45.11136189368455" lon="9.065459750644292"><ele>63.0</ele><time>2026-05-01T08:57:57.001Z</time></trkpt><trkpt lat="45.11144785073805" lon="9.065592688337416"><ele>63.0</ele><time>2026-05-01T08:57:58.001Z</time></trkpt><trkpt lat="45.111534879050545" lon="9.065726597387771"><ele>63.0</ele><time>2026-05-01T08:57:59Z</time></trkpt><trkpt lat="45.111621789516114" lon="9.065859411304162"><ele>63.0</ele><time>2026-05-01T08:58:00Z</time></trkpt><trkpt lat="45.11170913480973" lon="9.065993413252015"><ele>63.0</ele><time>2026-05-01T08:58:01Z</time></trkpt><trkpt lat="45.11179526326225" lon="9.066126450537677"><ele>63.0</ele><time>2026-05-01T08:58:02Z</time></trkpt><trkpt lat="45.11187956473212" lon="9.066257034087952"><ele>63.0</ele><time>2026-05-01T08:58:03Z</time></trkpt><trkpt lat="45.11196430411504" lon="9.066390326008962"><ele>63.0</ele><time>2026-05-01T08:58:04Z</time></trkpt><trkpt lat="45.11204997967573" lon="9.066525898239677"><ele>63.0</ele><time>2026-05-01T08:58:05Z</time></trkpt><trkpt lat="45.11213447760632" lon="9.06665976092438"><ele>63.0</ele><time>2026-05-01T08:58:06Z</time></trkpt><trkpt lat="45.112216668985916" lon="9.066788187823901"><ele>63.0</ele><time>2026-05-01T08:58:07Z</time></trkpt><trkpt lat="45.11230030152648" lon="9.066918369583785"><ele>62.75</ele><time>2026-05-01T08:58:08Z</time></trkpt><trkpt lat="45.11238966487871" lon="9.067055107759316"><ele>62.5</ele><time>2026-05-01T08:58:09Z</time></trkpt><trkpt lat="45.11247481946097" lon="9.067186858903735"><ele>62.25</ele><time>2026-05-01T08:58:10Z</time></trkpt><trkpt lat="45.11256278613025" lon="9.067325441270002"><ele>62.0</ele><time>2026-05-01T08:58:11Z</time></trkpt><trkpt lat="45.11264871160398" lon="9.067461386356953"><ele>62.0</ele><time>2026-05-01T08:58:12Z</time></trkpt><trkpt lat="45.11273690336707" lon="9.067600916941522"><ele>62.0</ele><time>2026-05-01T08:58:13Z</time></trkpt><trkpt lat="45.11282501165203" lon="9.067740315451783"><ele>62.0</ele><time>2026-05-01T08:58:14Z</time></trkpt><trkpt lat="45.11291393714878" lon="9.067879528694034"><ele>62.0</ele><time>2026-05-01T08:58:15Z</time></trkpt><trkpt lat="45.11300437279545" lon="9.068021033479358"><ele>62.0</ele><time>2026-05-01T08:58:16Z</time></trkpt><trkpt lat="45.11309557743992" lon="9.068164167244005"><ele>62.0</ele><time>2026-05-01T08:58:17Z</time></trkpt><trkpt lat="45.113183574406534" lon="9.06830307437948"><ele>62.0</ele><time>2026-05-01T08:58:18Z</time></trkpt><trkpt lat="45.11326855919096" lon="9.068438106443743"><ele>62.0</ele><time>2026-05-01T08:58:19Z</time></trkpt><trkpt lat="45.113345488740165" lon="9.06856274528883"><ele>62.16666666666667</ele><time>2026-05-01T08:58:20Z</time></trkpt><trkpt lat="45.113414729089165" lon="9.068674831583449"><ele>62.333333333333336</ele><time>2026-05-01T08:58:21Z</time></trkpt><trkpt lat="45.113479742592034" lon="9.068776501004697"><ele>62.5</ele><time>2026-05-01T08:58:22Z</time></trkpt><trkpt lat="45.11353430560204" lon="9.068864619683806"><ele>62.66666666666667</ele><time>2026-05-01T08:58:23Z</time></trkpt><trkpt lat="45.113571388869666" lon="9.068939114080111"><ele>62.833333333333336</ele><time>2026-05-01T08:58:24Z</time></trkpt><trkpt lat="45.1136055745051" lon="9.06905692280742"><ele>63.0</ele><time>2026-05-01T08:58:26Z</time></trkpt><trkpt lat="45.11353767797443" lon="9.069157103713007"><ele>63.2</ele><time>2026-05-01T08:58:28Z</time></trkpt><trkpt lat="45.11348024392222" lon="9.069198750662933"><ele>63.4</ele><time>2026-05-01T08:58:29Z</time></trkpt><trkpt lat="45.11337973498135" lon="9.069247416196946"><ele>63.60000000000001</ele><time>2026-05-01T08:58:30Z</time></trkpt><trkpt lat="45.113266623671" lon="9.069318773695642"><ele>63.800000000000004</ele><time>2026-05-01T08:58:31Z</time></trkpt><trkpt lat="45.11312440816476" lon="9.06938675349933"><ele>64.0</ele><time>2026-05-01T08:58:32Z</time></trkpt><trkpt lat="45.11298258296452" lon="9.069457629171051"><ele>63.25</ele><time>2026-05-01T08:58:33Z</time></trkpt><trkpt lat="45.11285044594655" lon="9.069523506929244"><ele>62.5</ele><time>2026-05-01T08:58:34Z</time></trkpt><trkpt lat="45.11273033027062" lon="9.069586535867037"><ele>61.75</ele><time>2026-05-01T08:58:35Z</time></trkpt><trkpt lat="45.112612853288276" lon="9.069642389651001"><ele>61.0</ele><time>2026-05-01T08:58:36Z</time></trkpt><trkpt lat="45.11250750245139" lon="9.069695105201896"><ele>61.0</ele><time>2026-05-01T08:58:37Z</time></trkpt><trkpt lat="45.11240258368378" lon="9.06974756437937"><ele>60.99999999999999</ele><time>2026-05-01T08:58:38Z</time></trkpt><trkpt lat="45.112307519505215" lon="9.06979979438462"><ele>60.99999999999999</ele><time>2026-05-01T08:58:39Z</time></trkpt><trkpt lat="45.112213933737365" lon="9.06984614811501"><ele>61.0</ele><time>2026-05-01T08:58:40Z</time></trkpt><trkpt lat="45.11213155559258" lon="9.069903471919467"><ele>61.0</ele><time>2026-05-01T08:58:41Z</time></trkpt><trkpt lat="45.112055105412225" lon="9.069974325531346"><ele>61.0</ele><time>2026-05-01T08:58:42Z</time></trkpt><trkpt lat="45.111987082053346" lon="9.070075558509016"><ele>60.99999999999999</ele><time>2026-05-01T08:58:43Z</time></trkpt><trkpt lat="45.111916266382686" lon="9.070182663522667"><ele>60.99999999999999</ele><time>2026-05-01T08:58:44Z</time></trkpt><trkpt lat="45.111859508517824" lon="9.070288917994036"><ele>61.0</ele><time>2026-05-01T08:58:45Z</time></trkpt><trkpt lat="45.1118148640411" lon="9.070388924426746"><ele>61.0</ele><time>2026-05-01T08:58:46Z</time></trkpt><trkpt lat="45.111759705293984" lon="9.070487094223864"><ele>61.0</ele><time>2026-05-01T08:58:47Z</time></trkpt><trkpt lat="45.111731957412495" lon="9.070605665132943"><ele>60.99999999999999</ele><time>2026-05-01T08:58:48Z</time></trkpt><trkpt lat="45.11172519542207" lon="9.070731199606412"><ele>60.99999999999999</ele><time>2026-05-01T08:58:49Z</time></trkpt><trkpt lat="45.11175107574494" lon="9.070866631025437"><ele>61.0</ele><time>2026-05-01T08:58:50Z</time></trkpt><trkpt lat="45.11177366524315" lon="9.071015048387716"><ele>61.0</ele><time>2026-05-01T08:58:51.001Z</time></trkpt><trkpt lat="45.111802677792134" lon="9.071191758953711"><ele>61.0</ele><time>2026-05-01T08:58:52.001Z</time></trkpt><trkpt lat="45.111829754634186" lon="9.071339750733921"><ele>60.99999999999999</ele><time>2026-05-01T08:58:53.001Z</time></trkpt><trkpt lat="45.111847620608884" lon="9.071486770976469"><ele>60.99999999999999</ele><time>2026-05-01T08:58:54.001Z</time></trkpt><trkpt lat="45.11185330342209" lon="9.071630846849"><ele>61.0</ele><time>2026-05-01T08:58:55.001Z</time></trkpt><trkpt lat="45.11185049288883" lon="9.071763720544617"><ele>61.0</ele><time>2026-05-01T08:58:56.001Z</time></trkpt><trkpt lat="45.111840983707765" lon="9.071889392900323"><ele>61.0</ele><time>2026-05-01T08:58:57.001Z</time></trkpt><trkpt lat="45.11181384797058" lon="9.072023337270924"><ele>60.99999999999999</ele><time>2026-05-01T08:58:58.001Z</time></trkpt><trkpt lat="45.11176867112706" lon="9.072153895655385"><ele>60.99999999999999</ele><time>2026-05-01T08:58:59.001Z</time></trkpt><trkpt lat="45.11171367323856" lon="9.072276738245233"><ele>61.0</ele><time>2026-05-01T08:59:00.001Z</time></trkpt><trkpt lat="45.11164455649645" lon="9.072383109694325"><ele>61.0</ele><time>2026-05-01T08:59:01.001Z</time></trkpt><trkpt lat="45.11156865077651" lon="9.072471149708624"><ele>61.199999999999996</ele><time>2026-05-01T08:59:02.001Z</time></trkpt><trkpt lat="45.1114801019456" lon="9.072524118722052"><ele>61.39999999999999</ele><time>2026-05-01T08:59:03.001Z</time></trkpt><trkpt lat="45.11138362957286" lon="9.072568866683813"><ele>61.6</ele><time>2026-05-01T08:59:04.001Z</time></trkpt><trkpt lat="45.11128220235762" lon="9.07258518442533"><ele>61.8</ele><time>2026-05-01T08:59:05.001Z</time></trkpt><trkpt lat="45.11118038943738" lon="9.072593184652899"><ele>62.0</ele><time>2026-05-01T08:59:06.001Z</time></trkpt><trkpt lat="45.11108121374887" lon="9.072574923274592"><ele>62.00000000000001</ele><time>2026-05-01T08:59:07.001Z</time></trkpt><trkpt lat="45.1109815810825" lon="9.072540920370795"><ele>62.0</ele><time>2026-05-01T08:59:08.001Z</time></trkpt><trkpt lat="45.11089174802961" lon="9.072509644937009"><ele>62.0</ele><time>2026-05-01T08:59:09.001Z</time></trkpt><trkpt lat="45.11081275722898" lon="9.072493117888682"><ele>62.0</ele><time>2026-05-01T08:59:10.001Z</time></trkpt><trkpt lat="45.110742431147074" lon="9.072498195165014"><ele>62.00000000000001</ele><time>2026-05-01T08:59:11.001Z</time></trkpt><trkpt lat="45.11067373984877" lon="9.07252984205231"><ele>62.0</ele><time>2026-05-01T08:59:12.001Z</time></trkpt><trkpt lat="45.110616682282334" lon="9.072591370285954"><ele>62.0</ele><time>2026-05-01T08:59:13.001Z</time></trkpt><trkpt lat="45.11055634124699" lon="9.072682658588185"><ele>62.0</ele><time>2026-05-01T08:59:14.001Z</time></trkpt><trkpt lat="45.11049592714403" lon="9.07279344655653"><ele>62.0</ele><time>2026-05-01T08:59:15.001Z</time></trkpt><trkpt lat="45.11043158253969" lon="9.07291555265985"><ele>62.0</ele><time>2026-05-01T08:59:16.001Z</time></trkpt><trkpt lat="45.11035203644701" lon="9.073070841036733"><ele>62.0</ele><time>2026-05-01T08:59:17.001Z</time></trkpt><trkpt lat="45.11025689162048" lon="9.0732417223477"><ele>62.333333333333336</ele><time>2026-05-01T08:59:18.001Z</time></trkpt><trkpt lat="45.11015481983958" lon="9.073425784430095"><ele>62.66666666666667</ele><time>2026-05-01T08:59:19.001Z</time></trkpt><trkpt lat="45.110054589636285" lon="9.073612213634117"><ele>63.0</ele><time>2026-05-01T08:59:20.001Z</time></trkpt><trkpt lat="45.10996535986005" lon="9.073771128509117"><ele>62.75</ele><time>2026-05-01T08:59:21.001Z</time></trkpt><trkpt lat="45.10987483750047" lon="9.073933718803966"><ele>62.5</ele><time>2026-05-01T08:59:22.001Z</time></trkpt><trkpt lat="45.109780817821" lon="9.074095882231841"><ele>62.25</ele><time>2026-05-01T08:59:23.001Z</time></trkpt><trkpt lat="45.109693712048404" lon="9.074251133823822"><ele>62.0</ele><time>2026-05-01T08:59:24.001Z</time></trkpt><trkpt lat="45.109616571967614" lon="9.074398332380497"><ele>62.0</ele><time>2026-05-01T08:59:25.001Z</time></trkpt><trkpt lat="45.10954302558132" lon="9.074540475167147"><ele>62.0</ele><time>2026-05-01T08:59:26.001Z</time></trkpt><trkpt lat="45.109482014407796" lon="9.0746763542607"><ele>62.0</ele><time>2026-05-01T08:59:27.001Z</time></trkpt><trkpt lat="45.10941538097926" lon="9.074815870907216"><ele>62.0</ele><time>2026-05-01T08:59:28.001Z</time></trkpt><trkpt lat="45.109358918832974" lon="9.074966226470943"><ele>62.25</ele><time>2026-05-01T08:59:29.001Z</time></trkpt><trkpt lat="45.10931360152787" lon="9.07512202174137"><ele>62.5</ele><time>2026-05-01T08:59:30.001Z</time></trkpt><trkpt lat="45.10926663140103" lon="9.075280664328284"><ele>62.75</ele><time>2026-05-01T08:59:31.001Z</time></trkpt><trkpt lat="45.109222133835445" lon="9.075434240735609"><ele>63.0</ele><time>2026-05-01T08:59:32.001Z</time></trkpt><trkpt lat="45.10918649216852" lon="9.075592894706508"><ele>63.0</ele><time>2026-05-01T08:59:33.001Z</time></trkpt><trkpt lat="45.10915342396428" lon="9.075757733951406"><ele>63.0</ele><time>2026-05-01T08:59:34.001Z</time></trkpt><trkpt lat="45.10912215849184" lon="9.075924798250853"><ele>63.0</ele><time>2026-05-01T08:59:35.001Z</time></trkpt><trkpt lat="45.10908755633657" lon="9.076069753620585"><ele>63.0</ele><time>2026-05-01T08:59:36.001Z</time></trkpt><trkpt lat="45.10906643154362" lon="9.076233720660607"><ele>62.2</ele><time>2026-05-01T08:59:37.001Z</time></trkpt><trkpt lat="45.10904466679325" lon="9.076397194147438"><ele>61.4</ele><time>2026-05-01T08:59:38.001Z</time></trkpt><trkpt lat="45.109034231942374" lon="9.076554819743913"><ele>60.60000000000001</ele><time>2026-05-01T08:59:39.001Z</time></trkpt><trkpt lat="45.10901475515125" lon="9.076708008302525"><ele>59.800000000000004</ele><time>2026-05-01T08:59:40.001Z</time></trkpt><trkpt lat="45.10900462066114" lon="9.076862821841523"><ele>59.0</ele><time>2026-05-01T08:59:41.001Z</time></trkpt><trkpt lat="45.108988695649145" lon="9.077024875486577"><ele>59.0</ele><time>2026-05-01T08:59:42.001Z</time></trkpt><trkpt lat="45.10897367123573" lon="9.077177628828967"><ele>59.0</ele><time>2026-05-01T08:59:43.001Z</time></trkpt><trkpt lat="45.10895999808164" lon="9.07733609346305"><ele>59.0</ele><time>2026-05-01T08:59:44.001Z</time></trkpt><trkpt lat="45.10894515149979" lon="9.077496980111029"><ele>59.0</ele><time>2026-05-01T08:59:45.001Z</time></trkpt><trkpt lat="45.108931408304485" lon="9.077659358218417"><ele>59.0</ele><time>2026-05-01T08:59:46.001Z</time></trkpt><trkpt lat="45.10891995570774" lon="9.077830165388946"><ele>59.0</ele><time>2026-05-01T08:59:47.001Z</time></trkpt><trkpt lat="45.10890171177645" lon="9.077998093735776"><ele>59.0</ele><time>2026-05-01T08:59:48.001Z</time></trkpt><trkpt lat="45.108886072714455" lon="9.078168622305087"><ele>59.0</ele><time>2026-05-01T08:59:49.001Z</time></trkpt><trkpt lat="45.10887023734674" lon="9.078342868804006"><ele>59.0</ele><time>2026-05-01T08:59:50.001Z</time></trkpt><trkpt lat="45.10885466147404" lon="9.078519617835422"><ele>59.0</ele><time>2026-05-01T08:59:51.001Z</time></trkpt><trkpt lat="45.10883477576103" lon="9.07869879047228"><ele>59.0</ele><time>2026-05-01T08:59:52.001Z</time></trkpt><trkpt lat="45.10881990389173" lon="9.078884121738374"><ele>59.0</ele><time>2026-05-01T08:59:53.001Z</time></trkpt><trkpt lat="45.10879888379341" lon="9.079070401619578"><ele>59.5</ele><time>2026-05-01T08:59:54.001Z</time></trkpt><trkpt lat="45.108773624304824" lon="9.079253461107442"><ele>60.0</ele><time>2026-05-01T08:59:55.001Z</time></trkpt><trkpt lat="45.10875721863654" lon="9.079442166217373"><ele>60.5</ele><time>2026-05-01T08:59:56.001Z</time></trkpt><trkpt lat="45.10873720066521" lon="9.079624000358757"><ele>61.0</ele><time>2026-05-01T08:59:57.002Z</time></trkpt><trkpt lat="45.108722479005344" lon="9.079803714767474"><ele>61.0</ele><time>2026-05-01T08:59:58.002Z</time></trkpt><trkpt lat="45.108704713214074" lon="9.079995083317197"><ele>61.0</ele><time>2026-05-01T08:59:59.002Z</time></trkpt><trkpt lat="45.10869981195769" lon="9.0801777437314"><ele>61.0</ele><time>2026-05-01T09:00:00.002Z</time></trkpt><trkpt lat="45.10869351243408" lon="9.080353658220913"><ele>61.0</ele><time>2026-05-01T09:00:01.002Z</time></trkpt><trkpt lat="45.108685128696045" lon="9.080531127554664"><ele>61.0</ele><time>2026-05-01T09:00:02.002Z</time></trkpt><trkpt lat="45.108690747655594" lon="9.080709321254435"><ele>61.0</ele><time>2026-05-01T09:00:03.002Z</time></trkpt><trkpt lat="45.1086810239243" lon="9.080871021771996"><ele>61.0</ele><time>2026-05-01T09:00:04.002Z</time></trkpt><trkpt lat="45.10869526204955" lon="9.081022973034047"><ele>61.0</ele><time>2026-05-01T09:00:05Z</time></trkpt><trkpt lat="45.10871237692622" lon="9.081175485400207"><ele>61.0</ele><time>2026-05-01T09:00:06Z</time></trkpt><trkpt lat="45.10873920203419" lon="9.081335058875473"><ele>61.0</ele><time>2026-05-01T09:00:07Z</time></trkpt><trkpt lat="45.10878195091289" lon="9.081486102738312"><ele>61.0</ele><time>2026-05-01T09:00:08Z</time></trkpt><trkpt lat="45.10883525649447" lon="9.08163610510287"><ele>61.0</ele><time>2026-05-01T09:00:09Z</time></trkpt><trkpt lat="45.10890127001272" lon="9.081779826714303"><ele>61.5</ele><time>2026-05-01T09:00:10Z</time></trkpt><trkpt lat="45.1089551161518" lon="9.081919744117213"><ele>62.0</ele><time>2026-05-01T09:00:11Z</time></trkpt><trkpt lat="45.109036237418" lon="9.082038262998621"><ele>62.5</ele><time>2026-05-01T09:00:12Z</time></trkpt><trkpt lat="45.10913465741739" lon="9.082148248460813"><ele>63.0</ele><time>2026-05-01T09:00:13Z</time></trkpt><trkpt lat="45.1092373689029" lon="9.082245165611601"><ele>63.25</ele><time>2026-05-01T09:00:14Z</time></trkpt><trkpt lat="45.10935002845572" lon="9.082322727382026"><ele>63.5</ele><time>2026-05-01T09:00:15Z</time></trkpt><trkpt lat="45.10946747879425" lon="9.082383907144552"><ele>63.75</ele><time>2026-05-01T09:00:16Z</time></trkpt><trkpt lat="45.10960010766848" lon="9.082407302461556"><ele>64.0</ele><time>2026-05-01T09:00:17Z</time></trkpt><trkpt lat="45.10972731269356" lon="9.082473895175271"><ele>64.66666666666666</ele><time>2026-05-01T09:00:18Z</time></trkpt><trkpt lat="45.10987796609118" lon="9.082529834281766"><ele>65.33333333333333</ele><time>2026-05-01T09:00:19Z</time></trkpt><trkpt lat="45.110035090662905" lon="9.082589818017976"><ele>66.0</ele><time>2026-05-01T09:00:20Z</time></trkpt><trkpt lat="45.11019782185687" lon="9.08265129333387"><ele>64.66666666666667</ele><time>2026-05-01T09:00:21Z</time></trkpt><trkpt lat="45.110362592140994" lon="9.08271049513661"><ele>63.333333333333336</ele><time>2026-05-01T09:00:22Z</time></trkpt><trkpt lat="45.110519154946665" lon="9.082770408442181"><ele>62.0</ele><time>2026-05-01T09:00:23Z</time></trkpt><trkpt lat="45.11065645092384" lon="9.082825150858516"><ele>61.75</ele><time>2026-05-01T09:00:24Z</time></trkpt><trkpt lat="45.110791120379375" lon="9.082883055414415"><ele>61.5</ele><time>2026-05-01T09:00:25Z</time></trkpt><trkpt lat="45.110940290955476" lon="9.082938728457627"><ele>61.25</ele><time>2026-05-01T09:00:26Z</time></trkpt><trkpt lat="45.11108832126846" lon="9.082988503090233"><ele>61.0</ele><time>2026-05-01T09:00:27Z</time></trkpt><trkpt lat="45.11123526619601" lon="9.083041199123238"><ele>61.0</ele><time>2026-05-01T09:00:28Z</time></trkpt><trkpt lat="45.11137934918718" lon="9.083099838043248"><ele>61.0</ele><time>2026-05-01T09:00:29Z</time></trkpt><trkpt lat="45.11151430888998" lon="9.083156405087571"><ele>61.0</ele><time>2026-05-01T09:00:30Z</time></trkpt><trkpt lat="45.11163881902399" lon="9.083205281021943"><ele>61.0</ele><time>2026-05-01T09:00:31Z</time></trkpt><trkpt lat="45.11175321665171" lon="9.083247663988269"><ele>61.599999999999994</ele><time>2026-05-01T09:00:32Z</time></trkpt><trkpt lat="45.111858894827215" lon="9.08328483708819"><ele>62.199999999999996</ele><time>2026-05-01T09:00:33Z</time></trkpt><trkpt lat="45.111947294852385" lon="9.083325914215166"><ele>62.800000000000004</ele><time>2026-05-01T09:00:34Z</time></trkpt><trkpt lat="45.1120229168843" lon="9.083379875219117"><ele>63.400000000000006</ele><time>2026-05-01T09:00:35Z</time></trkpt><trkpt lat="45.112079849862816" lon="9.08345444101046"><ele>64.0</ele><time>2026-05-01T09:00:36Z</time></trkpt><trkpt lat="45.112147961752356" lon="9.08356053371267"><ele>64.0</ele><time>2026-05-01T09:00:37Z</time></trkpt><trkpt lat="45.1122223084016" lon="9.083683053174465"><ele>64.0</ele><time>2026-05-01T09:00:38Z</time></trkpt><trkpt lat="45.11229147539113" lon="9.083801684374563"><ele>64.0</ele><time>2026-05-01T09:00:39Z</time></trkpt><trkpt lat="45.1123579677319" lon="9.083920960923464"><ele>64.0</ele><time>2026-05-01T09:00:40Z</time></trkpt><trkpt lat="45.11243082447578" lon="9.084060719999167"><ele>64.0</ele><time>2026-05-01T09:00:41Z</time></trkpt><trkpt lat="45.11249577053195" lon="9.08418530414439"><ele>64.0</ele><time>2026-05-01T09:00:42Z</time></trkpt><trkpt lat="45.11255401860796" lon="9.0842952457605"><ele>64.0</ele><time>2026-05-01T09:00:43Z</time></trkpt><trkpt lat="45.11260644931476" lon="9.084389239052284"><ele>64.0</ele><time>2026-05-01T09:00:44Z</time></trkpt><trkpt lat="45.11266611870674" lon="9.084458830337127"><ele>64.0</ele><time>2026-05-01T09:00:45Z</time></trkpt><trkpt lat="45.11271785613657" lon="9.084563751033244"><ele>64.0</ele><time>2026-05-01T09:00:47Z</time></trkpt><trkpt lat="45.11277335689279" lon="9.084665762340459"><ele>64.0</ele><time>2026-05-01T09:00:50.001Z</time></trkpt><trkpt lat="45.11283555856707" lon="9.084766132977386"><ele>64.0</ele><time>2026-05-01T09:00:51.001Z</time></trkpt><trkpt lat="45.112897449105816" lon="9.08486891168584"><ele>64.0</ele><time>2026-05-01T09:00:52.001Z</time></trkpt><trkpt lat="45.11296093840737" lon="9.084983366517553"><ele>64.0</ele><time>2026-05-01T09:00:53.001Z</time></trkpt><trkpt lat="45.1130290671096" lon="9.085110456211638"><ele>63.800000000000004</ele><time>2026-05-01T09:00:54.001Z</time></trkpt><trkpt lat="45.113094588965" lon="9.085225077333272"><ele>63.60000000000001</ele><time>2026-05-01T09:00:55.001Z</time></trkpt><trkpt lat="45.11316288013514" lon="9.085329103791524"><ele>63.4</ele><time>2026-05-01T09:00:56.001Z</time></trkpt><trkpt lat="45.11322171398843" lon="9.085439165101935"><ele>63.2</ele><time>2026-05-01T09:00:57.001Z</time></trkpt><trkpt lat="45.11330551320456" lon="9.085509019892807"><ele>63.0</ele><time>2026-05-01T09:00:58.001Z</time></trkpt><trkpt lat="45.11340347214263" lon="9.085547815018694"><ele>63.0</ele><time>2026-05-01T09:00:59.001Z</time></trkpt><trkpt lat="45.11351149173471" lon="9.085591180863434"><ele>63.0</ele><time>2026-05-01T09:01:00.001Z</time></trkpt><trkpt lat="45.11363510174366" lon="9.085647382035583"><ele>63.0</ele><time>2026-05-01T09:01:01.001Z</time></trkpt><trkpt lat="45.113770987430605" lon="9.08570646466044"><ele>63.0</ele><time>2026-05-01T09:01:02.001Z</time></trkpt><trkpt lat="45.113901342920094" lon="9.085766082655313"><ele>62.75</ele><time>2026-05-01T09:01:03.001Z</time></trkpt><trkpt lat="45.11403247105374" lon="9.085822692567685"><ele>62.5</ele><time>2026-05-01T09:01:04.001Z</time></trkpt><trkpt lat="45.11416081724255" lon="9.085873316191416"><ele>62.25</ele><time>2026-05-01T09:01:05.001Z</time></trkpt><trkpt lat="45.114289684122156" lon="9.085921839081374"><ele>62.0</ele><time>2026-05-01T09:01:06.001Z</time></trkpt><trkpt lat="45.11440720410936" lon="9.085995161225517"><ele>62.0</ele><time>2026-05-01T09:01:07.001Z</time></trkpt><trkpt lat="45.11452547794399" lon="9.086049435421426"><ele>62.0</ele><time>2026-05-01T09:01:08.001Z</time></trkpt><trkpt lat="45.11463885930133" lon="9.086068383195302"><ele>62.0</ele><time>2026-05-01T09:01:09.001Z</time></trkpt><trkpt lat="45.1147405674159" lon="9.086116114514159"><ele>62.0</ele><time>2026-05-01T09:01:10.001Z</time></trkpt><trkpt lat="45.114830960592336" lon="9.08617272032312"><ele>62.0</ele><time>2026-05-01T09:01:11.001Z</time></trkpt><trkpt lat="45.11491333117862" lon="9.086233534415117"><ele>62.0</ele><time>2026-05-01T09:01:12.001Z</time></trkpt><trkpt lat="45.11497383606977" lon="9.086335344608004"><ele>62.0</ele><time>2026-05-01T09:01:13.001Z</time></trkpt><trkpt lat="45.11503541566598" lon="9.086447119574839"><ele>62.0</ele><time>2026-05-01T09:01:14.001Z</time></trkpt><trkpt lat="45.11510672057057" lon="9.086570844439716"><ele>62.0</ele><time>2026-05-01T09:01:15.001Z</time></trkpt><trkpt lat="45.115183331653505" lon="9.086703776428507"><ele>62.0</ele><time>2026-05-01T09:01:16.001Z</time></trkpt><trkpt lat="45.11526430384259" lon="9.08684427581242"><ele>62.0</ele><time>2026-05-01T09:01:17.001Z</time></trkpt><trkpt lat="45.11536098550222" lon="9.086977211900942"><ele>62.0</ele><time>2026-05-01T09:01:18.001Z</time></trkpt><trkpt lat="45.11544840386397" lon="9.087134397754339"><ele>62.0</ele><time>2026-05-01T09:01:19.001Z</time></trkpt><trkpt lat="45.11553598686784" lon="9.087286756216635"><ele>62.0</ele><time>2026-05-01T09:01:20.001Z</time></trkpt><trkpt lat="45.11561944732267" lon="9.087435142580873"><ele>61.75</ele><time>2026-05-01T09:01:21.001Z</time></trkpt><trkpt lat="45.1157043117802" lon="9.087579870124559"><ele>61.5</ele><time>2026-05-01T09:01:22.001Z</time></trkpt><trkpt lat="45.11579430325964" lon="9.087733897860039"><ele>61.25</ele><time>2026-05-01T09:01:23.001Z</time></trkpt><trkpt lat="45.11588340063768" lon="9.087887075931631"><ele>61.0</ele><time>2026-05-01T09:01:24.001Z</time></trkpt><trkpt lat="45.1159729832032" lon="9.088044826005223"><ele>61.0</ele><time>2026-05-01T09:01:25.001Z</time></trkpt><trkpt lat="45.11606494071466" lon="9.088202702961496"><ele>61.0</ele><time>2026-05-01T09:01:26.001Z</time></trkpt><trkpt lat="45.116157024821476" lon="9.088361160748413"><ele>61.0</ele><time>2026-05-01T09:01:27.001Z</time></trkpt><trkpt lat="45.116248264074535" lon="9.08851835687496"><ele>61.0</ele><time>2026-05-01T09:01:28.001Z</time></trkpt><trkpt lat="45.1163391817125" lon="9.088671956729895"><ele>61.0</ele><time>2026-05-01T09:01:29.001Z</time></trkpt><trkpt lat="45.11642782464284" lon="9.088823856731596"><ele>61.0</ele><time>2026-05-01T09:01:30.001Z</time></trkpt><trkpt lat="45.11650910447675" lon="9.08896536226452"><ele>61.0</ele><time>2026-05-01T09:01:31.001Z</time></trkpt><trkpt lat="45.11659258186303" lon="9.089111588982174"><ele>61.0</ele><time>2026-05-01T09:01:32.001Z</time></trkpt><trkpt lat="45.1166696614918" lon="9.089248803299466"><ele>60.8</ele><time>2026-05-01T09:01:33.001Z</time></trkpt><trkpt lat="45.116739789120864" lon="9.089370680988251"><ele>60.599999999999994</ele><time>2026-05-01T09:01:34.001Z</time></trkpt><trkpt lat="45.11680536575415" lon="9.089491270231713"><ele>60.4</ele><time>2026-05-01T09:01:35.001Z</time></trkpt><trkpt lat="45.116861276245736" lon="9.089614485499316"><ele>60.2</ele><time>2026-05-01T09:01:36.001Z</time></trkpt><trkpt lat="45.116877322514235" lon="9.089767826757905"><ele>60.0</ele><time>2026-05-01T09:01:37.001Z</time></trkpt><trkpt lat="45.11690419968949" lon="9.089918323554313"><ele>60.0</ele><time>2026-05-01T09:01:38.001Z</time></trkpt><trkpt lat="45.116931034729554" lon="9.090066844665202"><ele>60.0</ele><time>2026-05-01T09:01:39.001Z</time></trkpt><trkpt lat="45.11696744330442" lon="9.090217167100281"><ele>60.0</ele><time>2026-05-01T09:01:40.001Z</time></trkpt><trkpt lat="45.117028607030555" lon="9.090354377901098"><ele>60.0</ele><time>2026-05-01T09:01:41.001Z</time></trkpt><trkpt lat="45.11710567817698" lon="9.090482640045927"><ele>60.0</ele><time>2026-05-01T09:01:42.001Z</time></trkpt><trkpt lat="45.117191317525375" lon="9.09059820761247"><ele>60.0</ele><time>2026-05-01T09:01:43.001Z</time></trkpt><trkpt lat="45.11726423936586" lon="9.090737123599485"><ele>60.0</ele><time>2026-05-01T09:01:44.001Z</time></trkpt><trkpt lat="45.11735443020857" lon="9.090870392779781"><ele>60.0</ele><time>2026-05-01T09:01:45.001Z</time></trkpt><trkpt lat="45.11743919626047" lon="9.09100887106467"><ele>60.25</ele><time>2026-05-01T09:01:46.001Z</time></trkpt><trkpt lat="45.11752407550097" lon="9.091148996805895"><ele>60.5</ele><time>2026-05-01T09:01:47.001Z</time></trkpt><trkpt lat="45.11759039689654" lon="9.09130307316027"><ele>60.75</ele><time>2026-05-01T09:01:48.001Z</time></trkpt><trkpt lat="45.1176825226888" lon="9.091422210991752"><ele>61.0</ele><time>2026-05-01T09:01:49.001Z</time></trkpt><trkpt lat="45.11776393777239" lon="9.091561279579748"><ele>61.5</ele><time>2026-05-01T09:01:50.001Z</time></trkpt><trkpt lat="45.11784224551744" lon="9.0917099404361"><ele>62.0</ele><time>2026-05-01T09:01:51.001Z</time></trkpt><trkpt lat="45.11792130781533" lon="9.09186309643303"><ele>62.5</ele><time>2026-05-01T09:01:52.001Z</time></trkpt><trkpt lat="45.11799200866752" lon="9.092024155772908"><ele>63.0</ele><time>2026-05-01T09:01:53.002Z</time></trkpt><trkpt lat="45.118062676982845" lon="9.092192728512806"><ele>63.0</ele><time>2026-05-01T09:01:54.002Z</time></trkpt><trkpt lat="45.11812589253699" lon="9.092365505955998"><ele>63.0</ele><time>2026-05-01T09:01:55.002Z</time></trkpt><trkpt lat="45.11817326667828" lon="9.092539357512104"><ele>63.0</ele><time>2026-05-01T09:01:56.002Z</time></trkpt><trkpt lat="45.11822783653437" lon="9.092711808793375"><ele>63.0</ele><time>2026-05-01T09:01:57.002Z</time></trkpt><trkpt lat="45.11827278109053" lon="9.092890814818015"><ele>62.75</ele><time>2026-05-01T09:01:58.002Z</time></trkpt><trkpt lat="45.1183219652331" lon="9.093061064787497"><ele>62.5</ele><time>2026-05-01T09:01:59.002Z</time></trkpt><trkpt lat="45.1183511458534" lon="9.09324817668159"><ele>62.25</ele><time>2026-05-01T09:02:00.002Z</time></trkpt><trkpt lat="45.11839092964487" lon="9.09342757729516"><ele>62.0</ele><time>2026-05-01T09:02:01.002Z</time></trkpt><trkpt lat="45.118431949577754" lon="9.093611902667122"><ele>62.0</ele><time>2026-05-01T09:02:02.002Z</time></trkpt><trkpt lat="45.11847419698709" lon="9.093801743760476"><ele>62.0</ele><time>2026-05-01T09:02:03.002Z</time></trkpt><trkpt lat="45.11853319035178" lon="9.093993546867178"><ele>62.0</ele><time>2026-05-01T09:02:04.002Z</time></trkpt><trkpt lat="45.1185581600725" lon="9.09418212457058"><ele>62.0</ele><time>2026-05-01T09:02:05.002Z</time></trkpt><trkpt lat="45.11859363801914" lon="9.09438395919843"><ele>61.66666666666667</ele><time>2026-05-01T09:02:06.002Z</time></trkpt><trkpt lat="45.11862351101282" lon="9.094590206368876"><ele>61.33333333333333</ele><time>2026-05-01T09:02:07.002Z</time></trkpt><trkpt lat="45.118629765099875" lon="9.09480894754614"><ele>61.0</ele><time>2026-05-01T09:02:08.002Z</time></trkpt><trkpt lat="45.1186396049408" lon="9.095016214406861"><ele>61.0</ele><time>2026-05-01T09:02:09.002Z</time></trkpt><trkpt lat="45.11864398443106" lon="9.09521373608934"><ele>61.0</ele><time>2026-05-01T09:02:10.002Z</time></trkpt><trkpt lat="45.11865047979242" lon="9.095378805587009"><ele>61.0</ele><time>2026-05-01T09:02:11Z</time></trkpt><trkpt lat="45.11866042617792" lon="9.095568792864228"><ele>61.0</ele><time>2026-05-01T09:02:12Z</time></trkpt><trkpt lat="45.118692447665254" lon="9.095778875540189"><ele>60.666666666666664</ele><time>2026-05-01T09:02:13Z</time></trkpt><trkpt lat="45.11870453973607" lon="9.09599435750305"><ele>60.33333333333333</ele><time>2026-05-01T09:02:14Z</time></trkpt><trkpt lat="45.11871606384704" lon="9.096215761539646"><ele>60.0</ele><time>2026-05-01T09:02:15Z</time></trkpt><trkpt lat="45.11871819862324" lon="9.09643717564088"><ele>60.0</ele><time>2026-05-01T09:02:16Z</time></trkpt><trkpt lat="45.11871845285669" lon="9.096655096484948"><ele>60.0</ele><time>2026-05-01T09:02:17Z</time></trkpt><trkpt lat="45.11872414383047" lon="9.096861899447298"><ele>60.0</ele><time>2026-05-01T09:02:18Z</time></trkpt><trkpt lat="45.11872542113501" lon="9.097065288724755"><ele>60.0</ele><time>2026-05-01T09:02:19Z</time></trkpt><trkpt lat="45.11872846184078" lon="9.097262596714346"><ele>60.0</ele><time>2026-05-01T09:02:20Z</time></trkpt><trkpt lat="45.118734510091535" lon="9.09747260060379"><ele>60.0</ele><time>2026-05-01T09:02:21Z</time></trkpt><trkpt lat="45.11873798581651" lon="9.097683611624204"><ele>60.0</ele><time>2026-05-01T09:02:22Z</time></trkpt><trkpt lat="45.11874013826804" lon="9.097896172027907"><ele>60.0</ele><time>2026-05-01T09:02:23Z</time></trkpt><trkpt lat="45.11874462843745" lon="9.098107798830167"><ele>60.0</ele><time>2026-05-01T09:02:24Z</time></trkpt><trkpt lat="45.11875299174079" lon="9.098319747491278"><ele>60.0</ele><time>2026-05-01T09:02:25Z</time></trkpt><trkpt lat="45.11875672842871" lon="9.098532944834957"><ele>60.0</ele><time>2026-05-01T09:02:26Z</time></trkpt><trkpt lat="45.11875911333114" lon="9.098742969623828"><ele>60.0</ele><time>2026-05-01T09:02:27Z</time></trkpt><trkpt lat="45.11874958249491" lon="9.09896025550737"><ele>60.0</ele><time>2026-05-01T09:02:28Z</time></trkpt><trkpt lat="45.11875546199427" lon="9.099179655343898"><ele>60.0</ele><time>2026-05-01T09:02:29Z</time></trkpt><trkpt lat="45.118760817204375" lon="9.099400407483692"><ele>60.0</ele><time>2026-05-01T09:02:30Z</time></trkpt><trkpt lat="45.11876225362217" lon="9.099625893378676"><ele>60.0</ele><time>2026-05-01T09:02:31Z</time></trkpt><trkpt lat="45.11876162086852" lon="9.099845803662873"><ele>60.0</ele><time>2026-05-01T09:02:32Z</time></trkpt><trkpt lat="45.11876100188941" lon="9.100082159172928"><ele>60.0</ele><time>2026-05-01T09:02:33Z</time></trkpt><trkpt lat="45.11876553781547" lon="9.10031188000091"><ele>60.0</ele><time>2026-05-01T09:02:34Z</time></trkpt><trkpt lat="45.118769594693234" lon="9.10053803908711"><ele>60.0</ele><time>2026-05-01T09:02:35Z</time></trkpt><trkpt lat="45.1187731286319" lon="9.100761731456904"><ele>60.0</ele><time>2026-05-01T09:02:36Z</time></trkpt><trkpt lat="45.11877584712955" lon="9.100985100082001"><ele>59.66666666666667</ele><time>2026-05-01T09:02:37Z</time></trkpt><trkpt lat="45.11877749060105" lon="9.101203738639216"><ele>59.333333333333336</ele><time>2026-05-01T09:02:38Z</time></trkpt><trkpt lat="45.11877973562218" lon="9.10142020552009"><ele>59.0</ele><time>2026-05-01T09:02:39Z</time></trkpt><trkpt lat="45.118783890312656" lon="9.101622179660641"><ele>58.75</ele><time>2026-05-01T09:02:40Z</time></trkpt><trkpt lat="45.11879517060446" lon="9.101809071094856"><ele>58.5</ele><time>2026-05-01T09:02:41Z</time></trkpt><trkpt lat="45.11881397749373" lon="9.101996558765835"><ele>58.25</ele><time>2026-05-01T09:02:42Z</time></trkpt><trkpt lat="45.118852209970825" lon="9.102192640026336"><ele>58.0</ele><time>2026-05-01T09:02:43Z</time></trkpt><trkpt lat="45.11890026427579" lon="9.102385147335871"><ele>58.33333333333333</ele><time>2026-05-01T09:02:44Z</time></trkpt><trkpt lat="45.11895267450856" lon="9.10258306996221"><ele>58.66666666666667</ele><time>2026-05-01T09:02:45Z</time></trkpt><trkpt lat="45.11900608324202" lon="9.102788207546476"><ele>59.0</ele><time>2026-05-01T09:02:46Z</time></trkpt><trkpt lat="45.11905808733984" lon="9.1029886403161"><ele>59.5</ele><time>2026-05-01T09:02:47Z</time></trkpt><trkpt lat="45.1191099184598" lon="9.10319018656276"><ele>60.0</ele><time>2026-05-01T09:02:48Z</time></trkpt><trkpt lat="45.11916030537722" lon="9.103382870340813"><ele>60.5</ele><time>2026-05-01T09:02:49Z</time></trkpt><trkpt lat="45.119210674259534" lon="9.103555033548488"><ele>61.0</ele><time>2026-05-01T09:02:50Z</time></trkpt><trkpt lat="45.119273198029774" lon="9.103712740603106"><ele>61.0</ele><time>2026-05-01T09:02:51Z</time></trkpt><trkpt lat="45.11934430734792" lon="9.103862407240266"><ele>60.99999999999999</ele><time>2026-05-01T09:02:52Z</time></trkpt><trkpt lat="45.11941238508156" lon="9.103999347329703"><ele>60.99999999999999</ele><time>2026-05-01T09:02:53Z</time></trkpt><trkpt lat="45.11947434850863" lon="9.104114143984582"><ele>61.0</ele><time>2026-05-01T09:02:54Z</time></trkpt><trkpt lat="45.11953021001138" lon="9.104220565353014"><ele>61.0</ele><time>2026-05-01T09:02:55Z</time></trkpt><trkpt lat="45.1195765622626" lon="9.104311547179684"><ele>60.99999999999999</ele><time>2026-05-01T09:02:56Z</time></trkpt><trkpt lat="45.119628229729365" lon="9.104420772348425"><ele>61.0</ele><time>2026-05-01T09:02:58Z</time></trkpt><trkpt lat="45.119656186929284" lon="9.104538325822418"><ele>61.0</ele><time>2026-05-01T09:04:03.001Z</time></trkpt><trkpt lat="45.11960210104481" lon="9.104616128514445"><ele>61.0</ele><time>2026-05-01T09:04:04.001Z</time></trkpt><trkpt lat="45.11953594473303" lon="9.10468928385247"><ele>60.99999999999999</ele><time>2026-05-01T09:04:05.002Z</time></trkpt><trkpt lat="45.11946928013826" lon="9.104777164632331"><ele>61.0</ele><time>2026-05-01T09:04:06.002Z</time></trkpt><trkpt lat="45.119397257867746" lon="9.104841283973709"><ele>61.75</ele><time>2026-05-01T09:04:07.002Z</time></trkpt><trkpt lat="45.119323145478354" lon="9.1049446669569"><ele>62.5</ele><time>2026-05-01T09:04:08.002Z</time></trkpt><trkpt lat="45.11924533381878" lon="9.105072541461766"><ele>63.25</ele><time>2026-05-01T09:04:09.002Z</time></trkpt><trkpt lat="45.11916889165479" lon="9.105208288822325"><ele>64.0</ele><time>2026-05-01T09:04:10.002Z</time></trkpt><trkpt lat="45.11910504185004" lon="9.105337046889762"><ele>64.0</ele><time>2026-05-01T09:04:11.002Z</time></trkpt><trkpt lat="45.11904903228387" lon="9.105468420880513"><ele>64.0</ele><time>2026-05-01T09:04:12.002Z</time></trkpt><trkpt lat="45.118995390544065" lon="9.10561804690527"><ele>64.0</ele><time>2026-05-01T09:04:13.002Z</time></trkpt><trkpt lat="45.118946184793046" lon="9.105776285666332"><ele>64.0</ele><time>2026-05-01T09:04:14.002Z</time></trkpt><trkpt lat="45.118901347451086" lon="9.105942873841453"><ele>64.0</ele><time>2026-05-01T09:04:15.002Z</time></trkpt><trkpt lat="45.11886254468932" lon="9.10611993829186"><ele>64.0</ele><time>2026-05-01T09:04:16.002Z</time></trkpt><trkpt lat="45.11883425427496" lon="9.106305272687427"><ele>64.0</ele><time>2026-05-01T09:04:17Z</time></trkpt><trkpt lat="45.11881462993694" lon="9.106493740652494"><ele>64.0</ele><time>2026-05-01T09:04:18Z</time></trkpt><trkpt lat="45.11880406464721" lon="9.106671263890968"><ele>64.0</ele><time>2026-05-01T09:04:19Z</time></trkpt><trkpt lat="45.11880142170456" lon="9.106829764140905"><ele>64.0</ele><time>2026-05-01T09:04:20Z</time></trkpt><trkpt lat="45.118801053619954" lon="9.106984454056537"><ele>64.0</ele><time>2026-05-01T09:04:21Z</time></trkpt><trkpt lat="45.118818377519304" lon="9.107131051090319"><ele>64.0</ele><time>2026-05-01T09:04:22Z</time></trkpt><trkpt lat="45.11881576346399" lon="9.107259304498927"><ele>64.0</ele><time>2026-05-01T09:04:23Z</time></trkpt><trkpt lat="45.118825140445644" lon="9.107371851454461"><ele>64.0</ele><time>2026-05-01T09:04:24Z</time></trkpt><trkpt lat="45.11882722039228" lon="9.10747501780736"><ele>64.0</ele><time>2026-05-01T09:04:25Z</time></trkpt><trkpt lat="45.118887672123165" lon="9.107573275497561"><ele>64.0</ele><time>2026-05-01T09:04:26Z</time></trkpt><trkpt lat="45.11897634505566" lon="9.107632334896703"><ele>64.0</ele><time>2026-05-01T09:04:27Z</time></trkpt><trkpt lat="45.11907406510704" lon="9.107690240018876"><ele>64.0</ele><time>2026-05-01T09:04:28Z</time></trkpt><trkpt lat="45.11917257002732" lon="9.107747667521993"><ele>63.5</ele><time>2026-05-01T09:04:29Z</time></trkpt><trkpt lat="45.119282041127256" lon="9.107814143241923"><ele>63.0</ele><time>2026-05-01T09:04:30Z</time></trkpt><trkpt lat="45.11939068578817" lon="9.107894085589427"><ele>62.5</ele><time>2026-05-01T09:04:31Z</time></trkpt><trkpt lat="45.11949191414653" lon="9.107978225432097"><ele>62.0</ele><time>2026-05-01T09:04:32Z</time></trkpt><trkpt lat="45.11959193274437" lon="9.108082862787212"><ele>62.0</ele><time>2026-05-01T09:04:33Z</time></trkpt><trkpt lat="45.119700628434515" lon="9.108201156059089"><ele>62.0</ele><time>2026-05-01T09:04:34Z</time></trkpt><trkpt lat="45.1197691876792" lon="9.108379932675824"><ele>62.0</ele><time>2026-05-01T09:04:35Z</time></trkpt><trkpt lat="45.11983946906298" lon="9.1085689246305"><ele>62.0</ele><time>2026-05-01T09:04:36Z</time></trkpt><trkpt lat="45.1199117352013" lon="9.108771621635391"><ele>62.0</ele><time>2026-05-01T09:04:37Z</time></trkpt><trkpt lat="45.11999392764937" lon="9.108953841546434"><ele>62.0</ele><time>2026-05-01T09:04:38Z</time></trkpt><trkpt lat="45.12005162197777" lon="9.109130556571353"><ele>62.0</ele><time>2026-05-01T09:04:39Z</time></trkpt><trkpt lat="45.120118816813395" lon="9.109323943576374"><ele>62.0</ele><time>2026-05-01T09:04:40Z</time></trkpt><trkpt lat="45.12019189498017" lon="9.109524337174296"><ele>62.0</ele><time>2026-05-01T09:04:41Z</time></trkpt><trkpt lat="45.12026340118958" lon="9.109733175602777"><ele>62.0</ele><time>2026-05-01T09:04:42Z</time></trkpt><trkpt lat="45.12033583691121" lon="9.109948336561803"><ele>62.0</ele><time>2026-05-01T09:04:43Z</time></trkpt><trkpt lat="45.12040387106315" lon="9.110166609253646"><ele>61.66666666666667</ele><time>2026-05-01T09:04:44Z</time></trkpt><trkpt lat="45.12046826782009" lon="9.110390109891066"><ele>61.33333333333333</ele><time>2026-05-01T09:04:45Z</time></trkpt><trkpt lat="45.12053076784095" lon="9.110614935271546"><ele>61.0</ele><time>2026-05-01T09:04:46Z</time></trkpt><trkpt lat="45.12059825853084" lon="9.110838981859596"><ele>61.0</ele><time>2026-05-01T09:04:47Z</time></trkpt><trkpt lat="45.12066019944073" lon="9.111064735175297"><ele>61.0</ele><time>2026-05-01T09:04:48Z</time></trkpt><trkpt lat="45.12074214761376" lon="9.111280318202656"><ele>61.0</ele><time>2026-05-01T09:04:49Z</time></trkpt><trkpt lat="45.12082353579532" lon="9.111489823263042"><ele>61.0</ele><time>2026-05-01T09:04:50Z</time></trkpt><trkpt lat="45.120899866795746" lon="9.111689818281304"><ele>61.0</ele><time>2026-05-01T09:04:51Z</time></trkpt><trkpt lat="45.1209719859954" lon="9.111878777838964"><ele>61.0</ele><time>2026-05-01T09:04:52Z</time></trkpt><trkpt lat="45.12103610387736" lon="9.112052859242256"><ele>61.0</ele><time>2026-05-01T09:04:53Z</time></trkpt><trkpt lat="45.121101295840695" lon="9.112211518456649"><ele>61.0</ele><time>2026-05-01T09:04:54Z</time></trkpt><trkpt lat="45.12111984065788" lon="9.112395492533711"><ele>61.0</ele><time>2026-05-01T09:04:55Z</time></trkpt><trkpt lat="45.12113745391109" lon="9.112578382544184"><ele>61.0</ele><time>2026-05-01T09:04:56.001Z</time></trkpt><trkpt lat="45.12114662803217" lon="9.11275431683203"><ele>61.4</ele><time>2026-05-01T09:04:57.001Z</time></trkpt><trkpt lat="45.12115863774278" lon="9.112916888578477"><ele>61.8</ele><time>2026-05-01T09:04:58.001Z</time></trkpt><trkpt lat="45.121172645321465" lon="9.113061793471243"><ele>62.199999999999996</ele><time>2026-05-01T09:04:59.001Z</time></trkpt><trkpt lat="45.12120081431584" lon="9.113209972048875"><ele>62.599999999999994</ele><time>2026-05-01T09:05:00.001Z</time></trkpt><trkpt lat="45.12125561146104" lon="9.113355564834011"><ele>63.0</ele><time>2026-05-01T09:05:01.001Z</time></trkpt><trkpt lat="45.12134640674029" lon="9.113466906543568"><ele>63.0</ele><time>2026-05-01T09:05:02.001Z</time></trkpt><trkpt lat="45.12145289280854" lon="9.113518319724859"><ele>63.0</ele><time>2026-05-01T09:05:03.001Z</time></trkpt><trkpt lat="45.121567579163326" lon="9.11356788827881"><ele>63.0</ele><time>2026-05-01T09:05:04.001Z</time></trkpt><trkpt lat="45.12169110796854" lon="9.113626024275732"><ele>63.0</ele><time>2026-05-01T09:05:05.001Z</time></trkpt><trkpt lat="45.121821647015274" lon="9.11367447905948"><ele>62.25</ele><time>2026-05-01T09:05:06.001Z</time></trkpt><trkpt lat="45.12195439413653" lon="9.113718126765852"><ele>61.5</ele><time>2026-05-01T09:05:07.001Z</time></trkpt><trkpt lat="45.1220726282402" lon="9.113800408270171"><ele>60.75</ele><time>2026-05-01T09:05:08.001Z</time></trkpt><trkpt lat="45.12217898985354" lon="9.113918477741171"><ele>60.0</ele><time>2026-05-01T09:05:09.001Z</time></trkpt><trkpt lat="45.122259975070804" lon="9.114078798781161"><ele>59.75</ele><time>2026-05-01T09:05:10.001Z</time></trkpt><trkpt lat="45.12235893657235" lon="9.114226746894621"><ele>59.5</ele><time>2026-05-01T09:05:11.001Z</time></trkpt><trkpt lat="45.12244789453256" lon="9.114397660184064"><ele>59.25</ele><time>2026-05-01T09:05:12.001Z</time></trkpt><trkpt lat="45.12254553993196" lon="9.114567537365984"><ele>59.0</ele><time>2026-05-01T09:05:13.001Z</time></trkpt><trkpt lat="45.122629886109046" lon="9.114752574346111"><ele>59.0</ele><time>2026-05-01T09:05:14.001Z</time></trkpt><trkpt lat="45.12272532109525" lon="9.114928863984964"><ele>59.0</ele><time>2026-05-01T09:05:15.001Z</time></trkpt><trkpt lat="45.1228157447585" lon="9.115103110210695"><ele>59.0</ele><time>2026-05-01T09:05:16.001Z</time></trkpt><trkpt lat="45.122900561888095" lon="9.115280891609629"><ele>59.0</ele><time>2026-05-01T09:05:17.001Z</time></trkpt><trkpt lat="45.12297888794925" lon="9.115450759893644"><ele>59.0</ele><time>2026-05-01T09:05:18.001Z</time></trkpt><trkpt lat="45.12304866379618" lon="9.115606424162086"><ele>59.0</ele><time>2026-05-01T09:05:19.001Z</time></trkpt><trkpt lat="45.12310698833853" lon="9.115748262194126"><ele>59.0</ele><time>2026-05-01T09:05:20.001Z</time></trkpt><trkpt lat="45.12316266483656" lon="9.115869133828808"><ele>59.400000000000006</ele><time>2026-05-01T09:05:21.001Z</time></trkpt><trkpt lat="45.12316862391148" lon="9.116005398985397"><ele>59.800000000000004</ele><time>2026-05-01T09:05:22.001Z</time></trkpt><trkpt lat="45.123168427864584" lon="9.116131904770397"><ele>60.199999999999996</ele><time>2026-05-01T09:05:23.001Z</time></trkpt><trkpt lat="45.12313723346043" lon="9.116244650689541"><ele>60.599999999999994</ele><time>2026-05-01T09:05:24.001Z</time></trkpt><trkpt lat="45.12309235054459" lon="9.116364479631097"><ele>61.0</ele><time>2026-05-01T09:05:25.001Z</time></trkpt><trkpt lat="45.12299461162906" lon="9.116437946038353"><ele>61.0</ele><time>2026-05-01T09:05:26.001Z</time></trkpt><trkpt lat="45.12290675286281" lon="9.116538100976044"><ele>61.0</ele><time>2026-05-01T09:05:27.001Z</time></trkpt><trkpt lat="45.12280836722217" lon="9.116651229305338"><ele>61.0</ele><time>2026-05-01T09:05:28.001Z</time></trkpt><trkpt lat="45.12271578249155" lon="9.116764971234966"><ele>61.0</ele><time>2026-05-01T09:05:29.001Z</time></trkpt><trkpt lat="45.12264265608794" lon="9.116880414114053"><ele>60.99999999999999</ele><time>2026-05-01T09:05:30.001Z</time></trkpt><trkpt lat="45.12256769181587" lon="9.11695330417981"><ele>61.0</ele><time>2026-05-01T09:05:31.001Z</time></trkpt><trkpt lat="45.12250175202376" lon="9.116994315032237"><ele>61.0</ele><time>2026-05-01T09:05:32.001Z</time></trkpt><trkpt lat="45.1223954755771" lon="9.116999950415485"><ele>61.0</ele><time>2026-05-01T09:05:34.001Z</time></trkpt><trkpt lat="45.122326921504296" lon="9.116973895178758"><ele>60.99999999999999</ele><time>2026-05-01T09:05:36.001Z</time></trkpt><trkpt lat="45.122259676603015" lon="9.116959858445012"><ele>61.0</ele><time>2026-05-01T09:05:51.001Z</time></trkpt><trkpt lat="45.1221787118664" lon="9.116906747846304"><ele>61.0</ele><time>2026-05-01T09:05:53.001Z</time></trkpt><trkpt lat="45.12210222295318" lon="9.11683962030211"><ele>60.99999999999999</ele><time>2026-05-01T09:05:54.002Z</time></trkpt><trkpt lat="45.122034868635275" lon="9.116767315677652"><ele>60.99999999999999</ele><time>2026-05-01T09:05:55.002Z</time></trkpt><trkpt lat="45.121951390403346" lon="9.116682039167616"><ele>61.0</ele><time>2026-05-01T09:05:56.002Z</time></trkpt><trkpt lat="45.12185515146682" lon="9.11659040483278"><ele>61.0</ele><time>2026-05-01T09:05:57.002Z</time></trkpt><trkpt lat="45.121758291259134" lon="9.116494692206256"><ele>61.25</ele><time>2026-05-01T09:05:58.002Z</time></trkpt><trkpt lat="45.121666205540585" lon="9.116409559657512"><ele>61.5</ele><time>2026-05-01T09:05:59.002Z</time></trkpt><trkpt lat="45.121570956737706" lon="9.116321413948398"><ele>61.75</ele><time>2026-05-01T09:06:00.002Z</time></trkpt><trkpt lat="45.121471835867034" lon="9.11622459395682"><ele>62.0</ele><time>2026-05-01T09:06:01.002Z</time></trkpt><trkpt lat="45.12137113470899" lon="9.11612212156549"><ele>62.0</ele><time>2026-05-01T09:06:02.002Z</time></trkpt><trkpt lat="45.121267607641286" lon="9.116015141242938"><ele>62.0</ele><time>2026-05-01T09:06:03.002Z</time></trkpt><trkpt lat="45.12116074372775" lon="9.115905599715477"><ele>62.0</ele><time>2026-05-01T09:06:04.002Z</time></trkpt><trkpt lat="45.12105085205931" lon="9.115791770743261"><ele>62.0</ele><time>2026-05-01T09:06:05.002Z</time></trkpt><trkpt lat="45.12093355401191" lon="9.115674014793177"><ele>62.333333333333336</ele><time>2026-05-01T09:06:06.002Z</time></trkpt><trkpt lat="45.12081236563583" lon="9.115552012957608"><ele>62.66666666666667</ele><time>2026-05-01T09:06:07.002Z</time></trkpt><trkpt lat="45.12068989126526" lon="9.115426445921969"><ele>63.0</ele><time>2026-05-01T09:06:08.002Z</time></trkpt><trkpt lat="45.1205681556618" lon="9.115298349392978"><ele>63.0</ele><time>2026-05-01T09:06:09.002Z</time></trkpt><trkpt lat="45.1204554636594" lon="9.11517953607788"><ele>63.0</ele><time>2026-05-01T09:06:10.002Z</time></trkpt><trkpt lat="45.12034003259229" lon="9.115065489291528"><ele>63.0</ele><time>2026-05-01T09:06:11.002Z</time></trkpt><trkpt lat="45.120221145802994" lon="9.11494853477715"><ele>63.0</ele><time>2026-05-01T09:06:12.002Z</time></trkpt><trkpt lat="45.12009956730858" lon="9.114827707959188"><ele>63.25</ele><time>2026-05-01T09:06:13.002Z</time></trkpt><trkpt lat="45.119979773858276" lon="9.114706515982757"><ele>63.5</ele><time>2026-05-01T09:06:14.002Z</time></trkpt><trkpt lat="45.119861247823245" lon="9.114584408413688"><ele>63.75</ele><time>2026-05-01T09:06:15.002Z</time></trkpt><trkpt lat="45.119741336161916" lon="9.114464953432574"><ele>64.0</ele><time>2026-05-01T09:06:16.002Z</time></trkpt><trkpt lat="45.11961685140078" lon="9.114351865518996"><ele>63.5</ele><time>2026-05-01T09:06:17.002Z</time></trkpt><trkpt lat="45.11949407042232" lon="9.114247552858695"><ele>63.0</ele><time>2026-05-01T09:06:18.002Z</time></trkpt><trkpt lat="45.11936916939281" lon="9.114152216749059"><ele>62.5</ele><time>2026-05-01T09:06:19.002Z</time></trkpt><trkpt lat="45.11924282114862" lon="9.114067294036797"><ele>62.0</ele><time>2026-05-01T09:06:20.002Z</time></trkpt><trkpt lat="45.11911648365521" lon="9.113989314665302"><ele>62.25</ele><time>2026-05-01T09:06:21.002Z</time></trkpt><trkpt lat="45.11898873008399" lon="9.113923706671592"><ele>62.5</ele><time>2026-05-01T09:06:22.002Z</time></trkpt><trkpt lat="45.118860239865334" lon="9.113867617925981"><ele>62.75</ele><time>2026-05-01T09:06:23Z</time></trkpt><trkpt lat="45.11872758968294" lon="9.113815801130617"><ele>63.0</ele><time>2026-05-01T09:06:24Z</time></trkpt><trkpt lat="45.118596786132386" lon="9.113764016988293"><ele>63.0</ele><time>2026-05-01T09:06:25Z</time></trkpt><trkpt lat="45.11846439135151" lon="9.113719001512889"><ele>63.0</ele><time>2026-05-01T09:06:26Z</time></trkpt><trkpt lat="45.118334803477595" lon="9.11368436659839"><ele>63.0</ele><time>2026-05-01T09:06:27Z</time></trkpt><trkpt lat="45.1182118914642" lon="9.11365814166831"><ele>63.0</ele><time>2026-05-01T09:06:28Z</time></trkpt><trkpt lat="45.11809403144409" lon="9.113642174078404"><ele>63.2</ele><time>2026-05-01T09:06:29Z</time></trkpt><trkpt lat="45.11797685898132" lon="9.113635480892158"><ele>63.4</ele><time>2026-05-01T09:06:30Z</time></trkpt><trkpt lat="45.117862467376845" lon="9.11363712848125"><ele>63.60000000000001</ele><time>2026-05-01T09:06:31Z</time></trkpt><trkpt lat="45.11775794220599" lon="9.113639676864256"><ele>63.800000000000004</ele><time>2026-05-01T09:06:32Z</time></trkpt><trkpt lat="45.117666680424946" lon="9.11364255968973"><ele>64.0</ele><time>2026-05-01T09:06:33Z</time></trkpt><trkpt lat="45.117574807340844" lon="9.113649279663205"><ele>64.0</ele><time>2026-05-01T09:06:34Z</time></trkpt><trkpt lat="45.11747159123507" lon="9.113663333548542"><ele>64.0</ele><time>2026-05-01T09:06:35Z</time></trkpt><trkpt lat="45.11736979419378" lon="9.113671377568105"><ele>64.0</ele><time>2026-05-01T09:06:36Z</time></trkpt><trkpt lat="45.11726936733744" lon="9.113677427842331"><ele>64.0</ele><time>2026-05-01T09:06:37Z</time></trkpt><trkpt lat="45.11716537563493" lon="9.11368469366405"><ele>64.0</ele><time>2026-05-01T09:06:38Z</time></trkpt><trkpt lat="45.11705644147924" lon="9.11369733683739"><ele>63.6</ele><time>2026-05-01T09:06:39Z</time></trkpt><trkpt lat="45.11694993005373" lon="9.113715872075481"><ele>63.2</ele><time>2026-05-01T09:06:40Z</time></trkpt><trkpt lat="45.11684500580835" lon="9.113732248592777"><ele>62.800000000000004</ele><time>2026-05-01T09:06:41Z</time></trkpt><trkpt lat="45.11674361859549" lon="9.113756940665025"><ele>62.400000000000006</ele><time>2026-05-01T09:06:42Z</time></trkpt><trkpt lat="45.116635150201" lon="9.113759006002642"><ele>62.0</ele><time>2026-05-01T09:06:43Z</time></trkpt><trkpt lat="45.116526641132495" lon="9.113774319956223"><ele>61.75</ele><time>2026-05-01T09:06:44Z</time></trkpt><trkpt lat="45.116413471452915" lon="9.11379029165942"><ele>61.5</ele><time>2026-05-01T09:06:45Z</time></trkpt><trkpt lat="45.116297182148124" lon="9.113806980608334"><ele>61.25</ele><time>2026-05-01T09:06:46Z</time></trkpt><trkpt lat="45.11617601878506" lon="9.113824606974372"><ele>61.0</ele><time>2026-05-01T09:06:47Z</time></trkpt><trkpt lat="45.11605339308726" lon="9.113842446078166"><ele>61.0</ele><time>2026-05-01T09:06:48Z</time></trkpt><trkpt lat="45.11592490687945" lon="9.113861137752334"><ele>61.0</ele><time>2026-05-01T09:06:49Z</time></trkpt><trkpt lat="45.11579164927732" lon="9.113880612275375"><ele>61.0</ele><time>2026-05-01T09:06:50Z</time></trkpt><trkpt lat="45.11565547003531" lon="9.113900618202782"><ele>61.0</ele><time>2026-05-01T09:06:51Z</time></trkpt><trkpt lat="45.115515076111976" lon="9.113921243296401"><ele>61.25</ele><time>2026-05-01T09:06:52Z</time></trkpt><trkpt lat="45.115375949626234" lon="9.113941682200904"><ele>61.5</ele><time>2026-05-01T09:06:53Z</time></trkpt><trkpt lat="45.1152397183553" lon="9.113961695758267"><ele>61.75</ele><time>2026-05-01T09:06:54Z</time></trkpt><trkpt lat="45.115098826914334" lon="9.113981770852364"><ele>62.0</ele><time>2026-05-01T09:06:55Z</time></trkpt><trkpt lat="45.11496038709879" lon="9.114001132940562"><ele>61.75</ele><time>2026-05-01T09:06:56Z</time></trkpt><trkpt lat="45.11482890115859" lon="9.114019522450722"><ele>61.5</ele><time>2026-05-01T09:06:57Z</time></trkpt><trkpt lat="45.11469470133568" lon="9.114038291559094"><ele>61.25</ele><time>2026-05-01T09:06:58Z</time></trkpt><trkpt lat="45.11455957168148" lon="9.114057192650582"><ele>61.0</ele><time>2026-05-01T09:06:59Z</time></trkpt><trkpt lat="45.11442774336953" lon="9.114075630068335"><ele>61.0</ele><time>2026-05-01T09:07:00Z</time></trkpt><trkpt lat="45.11429104689393" lon="9.114094823588491"><ele>61.0</ele><time>2026-05-01T09:07:01Z</time></trkpt><trkpt lat="45.114149986134315" lon="9.114114700073685"><ele>61.0</ele><time>2026-05-01T09:07:02Z</time></trkpt><trkpt lat="45.11401772172403" lon="9.114133337100654"><ele>61.0</ele><time>2026-05-01T09:07:03Z</time></trkpt><trkpt lat="45.113884416188384" lon="9.114152120816982"><ele>61.5</ele><time>2026-05-01T09:07:04Z</time></trkpt><trkpt lat="45.11375062590472" lon="9.114170972839936"><ele>62.0</ele><time>2026-05-01T09:07:05Z</time></trkpt><trkpt lat="45.11361485872374" lon="9.114190103422283"><ele>62.5</ele><time>2026-05-01T09:07:06Z</time></trkpt><trkpt lat="45.1134770511997" lon="9.114209521504065"><ele>63.0</ele><time>2026-05-01T09:07:07Z</time></trkpt><trkpt lat="45.11333586916087" lon="9.114229415077366"><ele>63.5</ele><time>2026-05-01T09:07:08.001Z</time></trkpt><trkpt lat="45.11319323748124" lon="9.114249512917967"><ele>64.0</ele><time>2026-05-01T09:07:09.001Z</time></trkpt><trkpt lat="45.113054484418825" lon="9.114269064235003"><ele>64.5</ele><time>2026-05-01T09:07:10.001Z</time></trkpt><trkpt lat="45.1129167059951" lon="9.114288478212389"><ele>65.0</ele><time>2026-05-01T09:07:11.001Z</time></trkpt><trkpt lat="45.11278039020696" lon="9.114308689278548"><ele>65.0</ele><time>2026-05-01T09:07:12.001Z</time></trkpt><trkpt lat="45.11264504996414" lon="9.114329306206985"><ele>65.0</ele><time>2026-05-01T09:07:13.001Z</time></trkpt><trkpt lat="45.11250655055342" lon="9.114350065183613"><ele>65.0</ele><time>2026-05-01T09:07:14.001Z</time></trkpt><trkpt lat="45.11236460260154" lon="9.114370351752171"><ele>65.0</ele><time>2026-05-01T09:07:15.001Z</time></trkpt><trkpt lat="45.11222238815031" lon="9.114390777597638"><ele>64.5</ele><time>2026-05-01T09:07:16.001Z</time></trkpt><trkpt lat="45.112085624369165" lon="9.114410505278048"><ele>64.0</ele><time>2026-05-01T09:07:17.001Z</time></trkpt><trkpt lat="45.11195681894269" lon="9.114429084982758"><ele>63.5</ele><time>2026-05-01T09:07:18.001Z</time></trkpt><trkpt lat="45.11183230990305" lon="9.114447044968257"><ele>63.0</ele><time>2026-05-01T09:07:19.001Z</time></trkpt><trkpt lat="45.111707593048365" lon="9.11446503491316"><ele>63.0</ele><time>2026-05-01T09:07:20.001Z</time></trkpt><trkpt lat="45.11158267528762" lon="9.114482500604888"><ele>63.0</ele><time>2026-05-01T09:07:21.001Z</time></trkpt><trkpt lat="45.11145926726921" lon="9.114497315763323"><ele>63.0</ele><time>2026-05-01T09:07:22.001Z</time></trkpt><trkpt lat="45.111337648724906" lon="9.114507593366579"><ele>63.0</ele><time>2026-05-01T09:07:23.001Z</time></trkpt><trkpt lat="45.1112165019309" lon="9.114508592003004"><ele>63.75</ele><time>2026-05-01T09:07:24.001Z</time></trkpt><trkpt lat="45.11109639886029" lon="9.114495728486144"><ele>64.5</ele><time>2026-05-01T09:07:25.001Z</time></trkpt><trkpt lat="45.11097956699347" lon="9.11446230935978"><ele>65.25</ele><time>2026-05-01T09:07:26.001Z</time></trkpt><trkpt lat="45.11086121818932" lon="9.114448016866353"><ele>66.0</ele><time>2026-05-01T09:07:27.001Z</time></trkpt><trkpt lat="45.110750978048756" lon="9.114411268613281"><ele>65.6</ele><time>2026-05-01T09:07:28.001Z</time></trkpt><trkpt lat="45.110646793605135" lon="9.114373702192735"><ele>65.19999999999999</ele><time>2026-05-01T09:07:29.001Z</time></trkpt><trkpt lat="45.110549877691014" lon="9.114353738716403"><ele>64.80000000000001</ele><time>2026-05-01T09:07:30.001Z</time></trkpt><trkpt lat="45.110458360186165" lon="9.114351961965369"><ele>64.4</ele><time>2026-05-01T09:07:31.001Z</time></trkpt><trkpt lat="45.110370475697444" lon="9.114351909883005"><ele>64.0</ele><time>2026-05-01T09:07:32.001Z</time></trkpt><trkpt lat="45.11028357819955" lon="9.114371623717437"><ele>63.99999999999999</ele><time>2026-05-01T09:07:33.001Z</time></trkpt><trkpt lat="45.11020126615469" lon="9.114388935601225"><ele>64.0</ele><time>2026-05-01T09:07:34.001Z</time></trkpt><trkpt lat="45.11012225773152" lon="9.11440172166543"><ele>64.0</ele><time>2026-05-01T09:07:35.001Z</time></trkpt><trkpt lat="45.11003361901699" lon="9.114394645562239"><ele>64.0</ele><time>2026-05-01T09:07:36.001Z</time></trkpt><trkpt lat="45.109943492869" lon="9.114407580133319"><ele>63.99999999999999</ele><time>2026-05-01T09:07:37.001Z</time></trkpt><trkpt lat="45.1098523044372" lon="9.114420665168627"><ele>64.0</ele><time>2026-05-01T09:07:38.001Z</time></trkpt><trkpt lat="45.10976223516723" lon="9.114433589618507"><ele>63.49999999999999</ele><time>2026-05-01T09:07:39.001Z</time></trkpt><trkpt lat="45.10967134023086" lon="9.11444663254465"><ele>63.0</ele><time>2026-05-01T09:07:40.001Z</time></trkpt><trkpt lat="45.10958110603683" lon="9.11445958065361"><ele>62.5</ele><time>2026-05-01T09:07:41.001Z</time></trkpt><trkpt lat="45.10949422015872" lon="9.114472048298763"><ele>62.0</ele><time>2026-05-01T09:07:42.001Z</time></trkpt><trkpt lat="45.10941057196858" lon="9.114484051364798"><ele>61.49999999999999</ele><time>2026-05-01T09:07:43.001Z</time></trkpt><trkpt lat="45.10933320437692" lon="9.114495153178837"><ele>61.0</ele><time>2026-05-01T09:07:44.001Z</time></trkpt><trkpt lat="45.109267645821845" lon="9.114504560481821"><ele>61.0</ele><time>2026-05-01T09:07:45.001Z</time></trkpt><trkpt lat="45.10916520180079" lon="9.114519260637481"><ele>60.99999999999999</ele><time>2026-05-01T09:07:47.001Z</time></trkpt><trkpt lat="45.10906620176319" lon="9.114533466601111"><ele>60.99999999999999</ele><time>2026-05-01T09:07:49.001Z</time></trkpt><trkpt lat="45.108956273955194" lon="9.114549240641137"><ele>61.0</ele><time>2026-05-01T09:07:51.001Z</time></trkpt><trkpt lat="45.108855962683016" lon="9.114563634761566"><ele>61.0</ele><time>2026-05-01T09:07:53.001Z</time></trkpt><trkpt lat="45.10875136420572" lon="9.114578644072"><ele>60.99999999999999</ele><time>2026-05-01T09:07:55.001Z</time></trkpt><trkpt lat="45.10863790647052" lon="9.114594924630003"><ele>61.0</ele><time>2026-05-01T09:07:57.001Z</time></trkpt><trkpt lat="45.1085179211806" lon="9.1146121418661"><ele>61.0</ele><time>2026-05-01T09:07:59.001Z</time></trkpt><trkpt lat="45.10845305405149" lon="9.114621449943016"><ele>61.0</ele><time>2026-05-01T09:08:00.001Z</time></trkpt><trkpt lat="45.108389947283214" lon="9.11463050542031"><ele>60.99999999999999</ele><time>2026-05-01T09:08:01.001Z</time></trkpt><trkpt lat="45.10832123602749" lon="9.114640365105062"><ele>61.0</ele><time>2026-05-01T09:08:02.001Z</time></trkpt><trkpt lat="45.10825003001271" lon="9.114650582783794"><ele>60.83333333333333</ele><time>2026-05-01T09:08:03.001Z</time></trkpt><trkpt lat="45.10817415810249" lon="9.114661469991958"><ele>60.666666666666664</ele><time>2026-05-01T09:08:04.001Z</time></trkpt><trkpt lat="45.10809300612411" lon="9.114673114852616"><ele>60.5</ele><time>2026-05-01T09:08:05.001Z</time></trkpt><trkpt lat="45.10801271654989" lon="9.114684635961623"><ele>60.33333333333333</ele><time>2026-05-01T09:08:06.002Z</time></trkpt><trkpt lat="45.10792915724347" lon="9.114696626269048"><ele>60.166666666666664</ele><time>2026-05-01T09:08:07.002Z</time></trkpt><trkpt lat="45.10784240644834" lon="9.114709074534092"><ele>60.0</ele><time>2026-05-01T09:08:08.002Z</time></trkpt><trkpt lat="45.107758405183596" lon="9.114721128251249"><ele>60.0</ele><time>2026-05-01T09:08:09.002Z</time></trkpt><trkpt lat="45.10766268074766" lon="9.114734864180416"><ele>60.0</ele><time>2026-05-01T09:08:10.002Z</time></trkpt><trkpt lat="45.10756811605443" lon="9.114748433701704"><ele>60.0</ele><time>2026-05-01T09:08:11.002Z</time></trkpt><trkpt lat="45.10746617193969" lon="9.1147630621173"><ele>60.0</ele><time>2026-05-01T09:08:12.002Z</time></trkpt><trkpt lat="45.107385788378046" lon="9.114774596719048"><ele>60.0</ele><time>2026-05-01T09:08:14.002Z</time></trkpt><trkpt lat="45.10730767962069" lon="9.114785804896014"><ele>59.833333333333336</ele><time>2026-05-01T09:08:15.002Z</time></trkpt><trkpt lat="45.10723144387194" lon="9.114796744313752"><ele>59.66666666666667</ele><time>2026-05-01T09:08:16.002Z</time></trkpt><trkpt lat="45.10714985903872" lon="9.11480845129333"><ele>59.5</ele><time>2026-05-01T09:08:17.002Z</time></trkpt><trkpt lat="45.1070737326039" lon="9.114819375017127"><ele>59.333333333333336</ele><time>2026-05-01T09:08:18.002Z</time></trkpt><trkpt lat="45.10699312720856" lon="9.11483094145423"><ele>59.16666666666667</ele><time>2026-05-01T09:08:19.002Z</time></trkpt><trkpt lat="45.106916667365965" lon="9.114841913023115"><ele>59.0</ele><time>2026-05-01T09:08:20.002Z</time></trkpt><trkpt lat="45.10684665720327" lon="9.114851959097448"><ele>59.0</ele><time>2026-05-01T09:08:21.002Z</time></trkpt><trkpt lat="45.1067770445503" lon="9.114861948135234"><ele>59.0</ele><time>2026-05-01T09:08:22.002Z</time></trkpt><trkpt lat="45.106702823086785" lon="9.114872598506707"><ele>59.0</ele><time>2026-05-01T09:08:23.002Z</time></trkpt><trkpt lat="45.10662786220797" lon="9.114882431029748"><ele>59.0</ele><time>2026-05-01T09:08:24.002Z</time></trkpt><trkpt lat="45.106552277389234" lon="9.114893341503619"><ele>59.0</ele><time>2026-05-01T09:08:25.002Z</time></trkpt><trkpt lat="45.10648274173416" lon="9.114903378836212"><ele>59.0</ele><time>2026-05-01T09:08:26.002Z</time></trkpt><trkpt lat="45.10641239593657" lon="9.114913533076118"><ele>59.0</ele><time>2026-05-01T09:08:27.002Z</time></trkpt><trkpt lat="45.106343628561945" lon="9.114923459489383"><ele>57.857142857142854</ele><time>2026-05-01T09:08:28.002Z</time></trkpt><trkpt lat="45.10627610912617" lon="9.114933205758458"><ele>56.714285714285715</ele><time>2026-05-01T09:08:29Z</time></trkpt><trkpt lat="45.10620590188263" lon="9.11494334002106"><ele>55.57142857142857</ele><time>2026-05-01T09:08:30Z</time></trkpt><trkpt lat="45.10613456260117" lon="9.114953637660745"><ele>54.42857142857143</ele><time>2026-05-01T09:08:31Z</time></trkpt><trkpt lat="45.10606939645976" lon="9.1149630442514"><ele>53.28571428571429</ele><time>2026-05-01T09:08:32Z</time></trkpt><trkpt lat="45.105998296324174" lon="9.114973307385142"><ele>52.142857142857146</ele><time>2026-05-01T09:08:33Z</time></trkpt><trkpt lat="45.10592691867009" lon="9.114983610576475"><ele>51.0</ele><time>2026-05-01T09:08:34Z</time></trkpt><trkpt lat="45.10585930337479" lon="9.114993370683782"><ele>51.333333333333336</ele><time>2026-05-01T09:08:35Z</time></trkpt><trkpt lat="45.10573996365827" lon="9.11501059708972"><ele>51.66666666666667</ele><time>2026-05-01T09:08:37Z</time></trkpt><trkpt lat="45.1056243790266" lon="9.115027007684377"><ele>52.0</ele><time>2026-05-01T09:08:39Z</time></trkpt><trkpt lat="45.10555423068613" lon="9.115036895920175"><ele>52.333333333333336</ele><time>2026-05-01T09:08:40Z</time></trkpt><trkpt lat="45.10548888599463" lon="9.115046107027503"><ele>52.66666666666667</ele><time>2026-05-01T09:08:41Z</time></trkpt><trkpt lat="45.10542236299737" lon="9.115055484178422"><ele>53.0</ele><time>2026-05-01T09:08:42Z</time></trkpt><trkpt lat="45.10535335479375" lon="9.115065213586044"><ele>53.00000000000001</ele><time>2026-05-01T09:08:43Z</time></trkpt><trkpt lat="45.10527577481762" lon="9.115076149382284"><ele>53.0</ele><time>2026-05-01T09:08:44Z</time></trkpt><trkpt lat="45.10515061431353" lon="9.11509379220384"><ele>53.0</ele><time>2026-05-01T09:08:46Z</time></trkpt><trkpt lat="45.105084001148704" lon="9.115103182102125"><ele>53.0</ele><time>2026-05-01T09:08:47Z</time></trkpt><trkpt lat="45.10501694368599" lon="9.115112634626737"><ele>53.00000000000001</ele><time>2026-05-01T09:08:48Z</time></trkpt><trkpt lat="45.10494394575962" lon="9.115122924528446"><ele>53.0</ele><time>2026-05-01T09:08:49Z</time></trkpt><trkpt lat="45.10486929746536" lon="9.115133447072362"><ele>53.0</ele><time>2026-05-01T09:08:50Z</time></trkpt><trkpt lat="45.104796264200466" lon="9.11514374195418"><ele>53.0</ele><time>2026-05-01T09:08:51Z</time></trkpt><trkpt lat="45.10472788690173" lon="9.115153380526358"><ele>53.0</ele><time>2026-05-01T09:08:52Z</time></trkpt><trkpt lat="45.104659254462675" lon="9.115163055059872"><ele>53.0</ele><time>2026-05-01T09:08:53Z</time></trkpt><trkpt lat="45.104594213385255" lon="9.115172223354307"><ele>53.0</ele><time>2026-05-01T09:08:54Z</time></trkpt><trkpt lat="45.104525558905365" lon="9.115182003289046"><ele>53.0</ele><time>2026-05-01T09:08:55Z</time></trkpt><trkpt lat="45.10445732273862" lon="9.115191988242533"><ele>53.0</ele><time>2026-05-01T09:08:56Z</time></trkpt><trkpt lat="45.10439091395574" lon="9.115201705799029"><ele>53.00000000000001</ele><time>2026-05-01T09:08:57Z</time></trkpt><trkpt lat="45.10432356323938" lon="9.115211445512774"><ele>53.0</ele><time>2026-05-01T09:08:58Z</time></trkpt><trkpt lat="45.104250821374926" lon="9.115221657295546"><ele>53.0</ele><time>2026-05-01T09:08:59Z</time></trkpt><trkpt lat="45.10417224295072" lon="9.11523268843469"><ele>53.0</ele><time>2026-05-01T09:09:00Z</time></trkpt><trkpt lat="45.10409660893622" lon="9.115243306231728"><ele>53.00000000000001</ele><time>2026-05-01T09:09:01Z</time></trkpt><trkpt lat="45.104017919482814" lon="9.115254352958196"><ele>53.0</ele><time>2026-05-01T09:09:02Z</time></trkpt><trkpt lat="45.10393665492202" lon="9.115265761189297"><ele>54.50000000000001</ele><time>2026-05-01T09:09:03Z</time></trkpt><trkpt lat="45.103859111153184" lon="9.115276647082876"><ele>56.0</ele><time>2026-05-01T09:09:04Z</time></trkpt><trkpt lat="45.10378397888047" lon="9.115287194440851"><ele>57.5</ele><time>2026-05-01T09:09:05Z</time></trkpt><trkpt lat="45.10370722557053" lon="9.115297969366464"><ele>59.0</ele><time>2026-05-01T09:09:06Z</time></trkpt><trkpt lat="45.10362838613358" lon="9.11530903714787"><ele>60.50000000000001</ele><time>2026-05-01T09:09:07Z</time></trkpt><trkpt lat="45.10354505023647" lon="9.115322361995185"><ele>62.0</ele><time>2026-05-01T09:09:08Z</time></trkpt><trkpt lat="45.1034622336842" lon="9.115336541878003"><ele>62.00000000000001</ele><time>2026-05-01T09:09:09.001Z</time></trkpt><trkpt lat="45.1033782191311" lon="9.115351749189653"><ele>62.0</ele><time>2026-05-01T09:09:10.001Z</time></trkpt><trkpt lat="45.103296387901054" lon="9.115368621373033"><ele>62.0</ele><time>2026-05-01T09:09:11.001Z</time></trkpt><trkpt lat="45.10321428290219" lon="9.115390048748637"><ele>62.0</ele><time>2026-05-01T09:09:12.001Z</time></trkpt><trkpt lat="45.10313131862958" lon="9.115441489271182"><ele>62.00000000000001</ele><time>2026-05-01T09:09:13.001Z</time></trkpt><trkpt lat="45.10303916329632" lon="9.115461990670099"><ele>62.0</ele><time>2026-05-01T09:09:14.001Z</time></trkpt><trkpt lat="45.10295143849532" lon="9.115511415685855"><ele>62.6</ele><time>2026-05-01T09:09:15.001Z</time></trkpt><trkpt lat="45.102859451439386" lon="9.115564320726417"><ele>63.2</ele><time>2026-05-01T09:09:16.001Z</time></trkpt><trkpt lat="45.102762565954265" lon="9.115619135823138"><ele>63.8</ele><time>2026-05-01T09:09:17.001Z</time></trkpt><trkpt lat="45.10265674637732" lon="9.11568024931511"><ele>64.4</ele><time>2026-05-01T09:09:18.001Z</time></trkpt><trkpt lat="45.10254774788585" lon="9.115728254495469"><ele>65.0</ele><time>2026-05-01T09:09:19.001Z</time></trkpt><trkpt lat="45.10243565616317" lon="9.115763820099822"><ele>65.25</ele><time>2026-05-01T09:09:20.001Z</time></trkpt><trkpt lat="45.1023184289854" lon="9.115792428981083"><ele>65.5</ele><time>2026-05-01T09:09:21.001Z</time></trkpt><trkpt lat="45.10220418415026" lon="9.115815428061481"><ele>65.75</ele><time>2026-05-01T09:09:22.001Z</time></trkpt><trkpt lat="45.102092486050736" lon="9.11583464467881"><ele>66.0</ele><time>2026-05-01T09:09:23.001Z</time></trkpt><trkpt lat="45.10197627451784" lon="9.11585333149247"><ele>66.0</ele><time>2026-05-01T09:09:24.001Z</time></trkpt><trkpt lat="45.101846437761075" lon="9.115873212217116"><ele>66.0</ele><time>2026-05-01T09:09:25.001Z</time></trkpt><trkpt lat="45.10171785645964" lon="9.115891736219611"><ele>66.0</ele><time>2026-05-01T09:09:26.001Z</time></trkpt><trkpt lat="45.1015802884289" lon="9.115911202555138"><ele>66.0</ele><time>2026-05-01T09:09:27.001Z</time></trkpt><trkpt lat="45.10144300170216" lon="9.11593024280318"><ele>65.75</ele><time>2026-05-01T09:09:28.001Z</time></trkpt><trkpt lat="45.10130514086406" lon="9.115949362677034"><ele>65.5</ele><time>2026-05-01T09:09:29.001Z</time></trkpt><trkpt lat="45.10117445059198" lon="9.1159674880679"><ele>65.25</ele><time>2026-05-01T09:09:30.001Z</time></trkpt><trkpt lat="45.1010405410286" lon="9.115986059938777"><ele>65.0</ele><time>2026-05-01T09:09:31.001Z</time></trkpt><trkpt lat="45.10090130193116" lon="9.116005370963"><ele>65.0</ele><time>2026-05-01T09:09:32.001Z</time></trkpt><trkpt lat="45.10077045525911" lon="9.116023609623673"><ele>65.0</ele><time>2026-05-01T09:09:33.001Z</time></trkpt><trkpt lat="45.10064555150446" lon="9.116041149512156"><ele>65.0</ele><time>2026-05-01T09:09:34.001Z</time></trkpt><trkpt lat="45.100528477878214" lon="9.11605758983369"><ele>65.0</ele><time>2026-05-01T09:09:35.001Z</time></trkpt><trkpt lat="45.100420821850626" lon="9.116072707669282"><ele>65.0</ele><time>2026-05-01T09:09:36.001Z</time></trkpt><trkpt lat="45.10031675718533" lon="9.116087323145518"><ele>65.0</ele><time>2026-05-01T09:09:37.001Z</time></trkpt><trkpt lat="45.10022244476446" lon="9.116100677733858"><ele>65.0</ele><time>2026-05-01T09:09:38.001Z</time></trkpt><trkpt lat="45.10014393112647" lon="9.11611179452187"><ele>65.0</ele><time>2026-05-01T09:09:39.001Z</time></trkpt><trkpt lat="45.10003965687728" lon="9.116126558712303"><ele>65.0</ele><time>2026-05-01T09:09:41.001Z</time></trkpt><trkpt lat="45.10001956047514" lon="9.116338133932366"><ele>65.0</ele><time>2026-05-01T09:09:49.001Z</time></trkpt><trkpt lat="45.10005682907193" lon="9.116410075213802"><ele>65.0</ele><time>2026-05-01T09:10:27.002Z</time></trkpt><trkpt lat="45.10008854467828" lon="9.116499181953893"><ele>65.0</ele><time>2026-05-01T09:11:04Z</time></trkpt><trkpt lat="45.10018372531848" lon="9.116643015315049"><ele>65.0</ele><time>2026-05-01T09:11:06Z</time></trkpt><trkpt lat="45.100230388456076" lon="9.11673801404928"><ele>65.0</ele><time>2026-05-01T09:11:07Z</time></trkpt><trkpt lat="45.10028322179912" lon="9.116855565875806"><ele>64.75</ele><time>2026-05-01T09:11:08Z</time></trkpt><trkpt lat="45.100346650301006" lon="9.116983746016873"><ele>64.5</ele><time>2026-05-01T09:11:09Z</time></trkpt><trkpt lat="45.10041496345334" lon="9.117118797417533"><ele>64.25</ele><time>2026-05-01T09:11:10Z</time></trkpt><trkpt lat="45.100476997545975" lon="9.117256399932833"><ele>64.0</ele><time>2026-05-01T09:11:11Z</time></trkpt><trkpt lat="45.100545211471015" lon="9.117396952765167"><ele>64.0</ele><time>2026-05-01T09:11:12Z</time></trkpt><trkpt lat="45.10061745669102" lon="9.11754014509909"><ele>64.0</ele><time>2026-05-01T09:11:13Z</time></trkpt><trkpt lat="45.10069060091284" lon="9.11768817182732"><ele>64.0</ele><time>2026-05-01T09:11:14Z</time></trkpt><trkpt lat="45.10075934470499" lon="9.117829401466212"><ele>64.0</ele><time>2026-05-01T09:11:15Z</time></trkpt><trkpt lat="45.100821336228364" lon="9.117956395243677"><ele>64.0</ele><time>2026-05-01T09:11:16Z</time></trkpt><trkpt lat="45.100890382570185" lon="9.118088697294132"><ele>64.0</ele><time>2026-05-01T09:11:17Z</time></trkpt><trkpt lat="45.10095969457137" lon="9.118225374752601"><ele>64.0</ele><time>2026-05-01T09:11:18.001Z</time></trkpt><trkpt lat="45.1010309323927" lon="9.118366172969894"><ele>64.0</ele><time>2026-05-01T09:11:19.001Z</time></trkpt><trkpt lat="45.101092751364504" lon="9.118492804769906"><ele>63.6</ele><time>2026-05-01T09:11:20.001Z</time></trkpt><trkpt lat="45.101153042299785" lon="9.11861633524643"><ele>63.2</ele><time>2026-05-01T09:11:21.001Z</time></trkpt><trkpt lat="45.10121137734592" lon="9.118738378455015"><ele>62.800000000000004</ele><time>2026-05-01T09:11:22.001Z</time></trkpt><trkpt lat="45.101268916797046" lon="9.118859750671588"><ele>62.400000000000006</ele><time>2026-05-01T09:11:23.001Z</time></trkpt><trkpt lat="45.10132985280553" lon="9.11897335893028"><ele>62.0</ele><time>2026-05-01T09:11:24.001Z</time></trkpt><trkpt lat="45.10139117546673" lon="9.119090736421976"><ele>62.0</ele><time>2026-05-01T09:11:25.001Z</time></trkpt><trkpt lat="45.10145134765807" lon="9.119210101348694"><ele>62.0</ele><time>2026-05-01T09:11:26.001Z</time></trkpt><trkpt lat="45.1015199257566" lon="9.11933399247576"><ele>62.0</ele><time>2026-05-01T09:11:27.001Z</time></trkpt><trkpt lat="45.101599846656654" lon="9.119457717318474"><ele>62.0</ele><time>2026-05-01T09:11:28.001Z</time></trkpt><trkpt lat="45.10168769246339" lon="9.119591796272406"><ele>62.25</ele><time>2026-05-01T09:11:29.001Z</time></trkpt><trkpt lat="45.101774368750185" lon="9.119734011838002"><ele>62.5</ele><time>2026-05-01T09:11:30.001Z</time></trkpt><trkpt lat="45.10187132975514" lon="9.119876101926165"><ele>62.75</ele><time>2026-05-01T09:11:31.001Z</time></trkpt><trkpt lat="45.10195358872631" lon="9.12005509796252"><ele>63.0</ele><time>2026-05-01T09:11:32.001Z</time></trkpt><trkpt lat="45.10204825879475" lon="9.12018839309427"><ele>63.0</ele><time>2026-05-01T09:11:33.001Z</time></trkpt><trkpt lat="45.10214650667863" lon="9.12034628013608"><ele>63.0</ele><time>2026-05-01T09:11:34.001Z</time></trkpt><trkpt lat="45.10224257619584" lon="9.120505351862917"><ele>63.0</ele><time>2026-05-01T09:11:35.001Z</time></trkpt><trkpt lat="45.10233623692388" lon="9.120654406106215"><ele>63.0</ele><time>2026-05-01T09:11:36.001Z</time></trkpt><trkpt lat="45.10243061256865" lon="9.1208083516559"><ele>62.5</ele><time>2026-05-01T09:11:37.001Z</time></trkpt><trkpt lat="45.10252459159519" lon="9.120964168824448"><ele>62.0</ele><time>2026-05-01T09:11:38.001Z</time></trkpt><trkpt lat="45.10261837366894" lon="9.121119403645517"><ele>61.5</ele><time>2026-05-01T09:11:39.001Z</time></trkpt><trkpt lat="45.10271596977694" lon="9.121281309424221"><ele>61.0</ele><time>2026-05-01T09:11:40.001Z</time></trkpt><trkpt lat="45.102811605976726" lon="9.12144466348543"><ele>61.0</ele><time>2026-05-01T09:11:41.001Z</time></trkpt><trkpt lat="45.10291267986543" lon="9.121606231397458"><ele>61.0</ele><time>2026-05-01T09:11:42.001Z</time></trkpt><trkpt lat="45.10301466142262" lon="9.12176768940929"><ele>61.0</ele><time>2026-05-01T09:11:43.001Z</time></trkpt><trkpt lat="45.10311435035656" lon="9.121928336922188"><ele>61.0</ele><time>2026-05-01T09:11:44.001Z</time></trkpt><trkpt lat="45.1032170225053" lon="9.12209447828021"><ele>61.0</ele><time>2026-05-01T09:11:45.001Z</time></trkpt><trkpt lat="45.10331431572828" lon="9.122253313554879"><ele>61.0</ele><time>2026-05-01T09:11:46.001Z</time></trkpt><trkpt lat="45.10340952087846" lon="9.122416763781057"><ele>61.0</ele><time>2026-05-01T09:11:47.001Z</time></trkpt><trkpt lat="45.10350404535478" lon="9.122571685992911"><ele>61.0</ele><time>2026-05-01T09:11:48.001Z</time></trkpt><trkpt lat="45.1035973784635" lon="9.122725764486429"><ele>61.0</ele><time>2026-05-01T09:11:49.001Z</time></trkpt><trkpt lat="45.10369208783147" lon="9.122876646138184"><ele>61.0</ele><time>2026-05-01T09:11:50.001Z</time></trkpt><trkpt lat="45.1037870759828" lon="9.123031709645627"><ele>61.0</ele><time>2026-05-01T09:11:51.001Z</time></trkpt><trkpt lat="45.10388053370793" lon="9.123179856130141"><ele>61.0</ele><time>2026-05-01T09:11:52.001Z</time></trkpt><trkpt lat="45.103966139564605" lon="9.123326528740392"><ele>61.0</ele><time>2026-05-01T09:11:53.001Z</time></trkpt><trkpt lat="45.10404006941742" lon="9.123458328604906"><ele>61.0</ele><time>2026-05-01T09:11:54.001Z</time></trkpt><trkpt lat="45.104104251376285" lon="9.123594762620703"><ele>61.0</ele><time>2026-05-01T09:11:55.001Z</time></trkpt><trkpt lat="45.10415797813431" lon="9.123747360103442"><ele>61.0</ele><time>2026-05-01T09:11:56.001Z</time></trkpt><trkpt lat="45.10420481107295" lon="9.123916709592566"><ele>61.0</ele><time>2026-05-01T09:11:57.001Z</time></trkpt><trkpt lat="45.10424672602118" lon="9.124096469399735"><ele>61.0</ele><time>2026-05-01T09:11:58.001Z</time></trkpt><trkpt lat="45.10429333184315" lon="9.124273666304932"><ele>61.0</ele><time>2026-05-01T09:11:59.001Z</time></trkpt><trkpt lat="45.10433501652358" lon="9.124445725364772"><ele>61.0</ele><time>2026-05-01T09:12:00.001Z</time></trkpt><trkpt lat="45.104376102251024" lon="9.124605627974077"><ele>61.0</ele><time>2026-05-01T09:12:01.001Z</time></trkpt><trkpt lat="45.10441090026701" lon="9.124751942942812"><ele>61.0</ele><time>2026-05-01T09:12:02.001Z</time></trkpt><trkpt lat="45.10444583712687" lon="9.124884753198085"><ele>60.99999999999999</ele><time>2026-05-01T09:12:03.001Z</time></trkpt><trkpt lat="45.10448148780165" lon="9.125003270506928"><ele>61.0</ele><time>2026-05-01T09:12:04.001Z</time></trkpt><trkpt lat="45.104518855948214" lon="9.125116962680341"><ele>61.0</ele><time>2026-05-01T09:12:05.001Z</time></trkpt><trkpt lat="45.104553482399126" lon="9.125241212494563"><ele>61.0</ele><time>2026-05-01T09:12:06.001Z</time></trkpt><trkpt lat="45.10458448197398" lon="9.12535841250531"><ele>60.99999999999999</ele><time>2026-05-01T09:12:07.001Z</time></trkpt><trkpt lat="45.10461235160866" lon="9.125472919084425"><ele>61.0</ele><time>2026-05-01T09:12:08.001Z</time></trkpt><trkpt lat="45.10465017622851" lon="9.125604029725357"><ele>60.75</ele><time>2026-05-01T09:12:09.001Z</time></trkpt><trkpt lat="45.1047007865757" lon="9.125737380538698"><ele>60.5</ele><time>2026-05-01T09:12:10.001Z</time></trkpt><trkpt lat="45.10476126887634" lon="9.125878515888603"><ele>60.25</ele><time>2026-05-01T09:12:11.001Z</time></trkpt><trkpt lat="45.10482660475705" lon="9.126019884745485"><ele>60.0</ele><time>2026-05-01T09:12:12.001Z</time></trkpt><trkpt lat="45.104890911129736" lon="9.126155144920878"><ele>60.0</ele><time>2026-05-01T09:12:13.001Z</time></trkpt><trkpt lat="45.10495650952922" lon="9.126279059999183"><ele>60.0</ele><time>2026-05-01T09:12:14.001Z</time></trkpt><trkpt lat="45.10502244742969" lon="9.126408424957171"><ele>60.0</ele><time>2026-05-01T09:12:15.001Z</time></trkpt><trkpt lat="45.105084001004975" lon="9.126535846385725"><ele>60.0</ele><time>2026-05-01T09:12:16.001Z</time></trkpt><trkpt lat="45.105136035208474" lon="9.126644976773783"><ele>60.0</ele><time>2026-05-01T09:12:17.002Z</time></trkpt><trkpt lat="45.10519634805034" lon="9.126772953162245"><ele>59.75</ele><time>2026-05-01T09:12:18.002Z</time></trkpt><trkpt lat="45.10526234825132" lon="9.126910419401733"><ele>59.5</ele><time>2026-05-01T09:12:19.002Z</time></trkpt><trkpt lat="45.10533162935215" lon="9.127052773657736"><ele>59.25</ele><time>2026-05-01T09:12:20.002Z</time></trkpt><trkpt lat="45.10539700014153" lon="9.127194300794601"><ele>59.0</ele><time>2026-05-01T09:12:21.002Z</time></trkpt><trkpt lat="45.10545615609138" lon="9.127339972852198"><ele>59.0</ele><time>2026-05-01T09:12:22.002Z</time></trkpt><trkpt lat="45.10550598878585" lon="9.127489046138823"><ele>59.00000000000001</ele><time>2026-05-01T09:12:23.002Z</time></trkpt><trkpt lat="45.10554657189997" lon="9.12763296716722"><ele>59.00000000000001</ele><time>2026-05-01T09:12:24.002Z</time></trkpt><trkpt lat="45.1055847786359" lon="9.127770711431248"><ele>59.0</ele><time>2026-05-01T09:12:25.002Z</time></trkpt><trkpt lat="45.10561989532494" lon="9.12789996682608"><ele>59.0</ele><time>2026-05-01T09:12:26.002Z</time></trkpt><trkpt lat="45.10566053963959" lon="9.128034704915306"><ele>59.0</ele><time>2026-05-01T09:12:27.002Z</time></trkpt><trkpt lat="45.10570706271646" lon="9.128186407513503"><ele>59.0</ele><time>2026-05-01T09:12:28.002Z</time></trkpt><trkpt lat="45.10575303247138" lon="9.128341713337711"><ele>59.0</ele><time>2026-05-01T09:12:29.002Z</time></trkpt><trkpt lat="45.105800655133095" lon="9.128493378558439"><ele>59.0</ele><time>2026-05-01T09:12:30.002Z</time></trkpt><trkpt lat="45.10583892399666" lon="9.128625520436225"><ele>59.0</ele><time>2026-05-01T09:12:31.002Z</time></trkpt><trkpt lat="45.10586690914427" lon="9.128741519357039"><ele>59.00000000000001</ele><time>2026-05-01T09:12:32.002Z</time></trkpt><trkpt lat="45.10589532330577" lon="9.128855525765028"><ele>59.00000000000001</ele><time>2026-05-01T09:12:33.002Z</time></trkpt><trkpt lat="45.105931656127446" lon="9.128986474869702"><ele>59.0</ele><time>2026-05-01T09:12:34.002Z</time></trkpt><trkpt lat="45.10597641217787" lon="9.129132462971981"><ele>59.0</ele><time>2026-05-01T09:12:35.002Z</time></trkpt><trkpt lat="45.106024382992274" lon="9.129279751370696"><ele>58.75</ele><time>2026-05-01T09:12:36.002Z</time></trkpt><trkpt lat="45.10606845747839" lon="9.129427135647157"><ele>58.5</ele><time>2026-05-01T09:12:37.002Z</time></trkpt><trkpt lat="45.106114885790106" lon="9.129577253856812"><ele>58.25</ele><time>2026-05-01T09:12:38.002Z</time></trkpt><trkpt lat="45.106153503579776" lon="9.129729885453738"><ele>58.0</ele><time>2026-05-01T09:12:39.002Z</time></trkpt><trkpt lat="45.106189104585134" lon="9.129884116058882"><ele>58.5</ele><time>2026-05-01T09:12:40.002Z</time></trkpt><trkpt lat="45.106208866155946" lon="9.130047308947761"><ele>59.0</ele><time>2026-05-01T09:12:41Z</time></trkpt><trkpt lat="45.10622036384814" lon="9.130213356561775"><ele>59.5</ele><time>2026-05-01T09:12:42Z</time></trkpt><trkpt lat="45.10622919345391" lon="9.130379182668124"><ele>60.0</ele><time>2026-05-01T09:12:43Z</time></trkpt><trkpt lat="45.10624223509881" lon="9.130549858136979"><ele>60.2</ele><time>2026-05-01T09:12:44Z</time></trkpt><trkpt lat="45.10625777541301" lon="9.130727962481236"><ele>60.4</ele><time>2026-05-01T09:12:45Z</time></trkpt><trkpt lat="45.10627010480177" lon="9.130900492516052"><ele>60.599999999999994</ele><time>2026-05-01T09:12:46Z</time></trkpt><trkpt lat="45.10628136847229" lon="9.131051548723356"><ele>60.8</ele><time>2026-05-01T09:12:47Z</time></trkpt><trkpt lat="45.10629217920645" lon="9.131180482556461"><ele>61.0</ele><time>2026-05-01T09:12:48Z</time></trkpt><trkpt lat="45.10629896308351" lon="9.131302028240954"><ele>60.99999999999999</ele><time>2026-05-01T09:12:49Z</time></trkpt><trkpt lat="45.1063085394272" lon="9.131429150856627"><ele>61.0</ele><time>2026-05-01T09:12:50Z</time></trkpt><trkpt lat="45.106320739295704" lon="9.13155729527893"><ele>61.0</ele><time>2026-05-01T09:12:51Z</time></trkpt><trkpt lat="45.10633054015283" lon="9.131677392677046"><ele>61.0</ele><time>2026-05-01T09:12:52Z</time></trkpt><trkpt lat="45.10633582006899" lon="9.131774752188084"><ele>60.99999999999999</ele><time>2026-05-01T09:12:53Z</time></trkpt><trkpt lat="45.10631164914917" lon="9.131859684258677"><ele>61.0</ele><time>2026-05-01T09:13:36.001Z</time></trkpt><trkpt lat="45.10622745714433" lon="9.131912264100164"><ele>61.0</ele><time>2026-05-01T09:13:38.001Z</time></trkpt><trkpt lat="45.10614743172554" lon="9.131958237761436"><ele>60.99999999999999</ele><time>2026-05-01T09:13:39.001Z</time></trkpt><trkpt lat="45.106063343123154" lon="9.132019380096398"><ele>60.99999999999999</ele><time>2026-05-01T09:13:40.001Z</time></trkpt><trkpt lat="45.10595558870229" lon="9.132087037646865"><ele>61.0</ele><time>2026-05-01T09:13:41.001Z</time></trkpt><trkpt lat="45.105837449098026" lon="9.132164186825353"><ele>61.0</ele><time>2026-05-01T09:13:42.001Z</time></trkpt><trkpt lat="45.10571036421828" lon="9.13224400057852"><ele>60.666666666666664</ele><time>2026-05-01T09:13:43.001Z</time></trkpt><trkpt lat="45.10556431504324" lon="9.132333532091847"><ele>60.33333333333333</ele><time>2026-05-01T09:13:44.001Z</time></trkpt><trkpt lat="45.105418866718196" lon="9.132420253549618"><ele>60.0</ele><time>2026-05-01T09:13:45.001Z</time></trkpt><trkpt lat="45.10526654650309" lon="9.13251018345206"><ele>59.66666666666667</ele><time>2026-05-01T09:13:46.001Z</time></trkpt><trkpt lat="45.10511595890294" lon="9.132602211399712"><ele>59.333333333333336</ele><time>2026-05-01T09:13:47.001Z</time></trkpt><trkpt lat="45.10496607111179" lon="9.132692830739463"><ele>59.0</ele><time>2026-05-01T09:13:48.001Z</time></trkpt><trkpt lat="45.10481940234618" lon="9.1327816535285"><ele>59.0</ele><time>2026-05-01T09:13:49.001Z</time></trkpt><trkpt lat="45.10467643902253" lon="9.132869702552869"><ele>59.0</ele><time>2026-05-01T09:13:50.001Z</time></trkpt><trkpt lat="45.1045345129021" lon="9.132951073254668"><ele>59.0</ele><time>2026-05-01T09:13:51.001Z</time></trkpt><trkpt lat="45.10439339064141" lon="9.133033886176579"><ele>59.0</ele><time>2026-05-01T09:13:52.001Z</time></trkpt><trkpt lat="45.104253518742695" lon="9.133120205064216"><ele>59.0</ele><time>2026-05-01T09:13:53.001Z</time></trkpt><trkpt lat="45.10411606640314" lon="9.133200334391033"><ele>59.0</ele><time>2026-05-01T09:13:54.001Z</time></trkpt><trkpt lat="45.10397810587963" lon="9.13327257483461"><ele>59.0</ele><time>2026-05-01T09:13:55.001Z</time></trkpt><trkpt lat="45.10385911280344" lon="9.13333537623952"><ele>59.5</ele><time>2026-05-01T09:13:56.001Z</time></trkpt><trkpt lat="45.10374343887055" lon="9.13339994464922"><ele>60.0</ele><time>2026-05-01T09:13:57.001Z</time></trkpt><trkpt lat="45.10363550645776" lon="9.13346777437368"><ele>60.5</ele><time>2026-05-01T09:13:58.001Z</time></trkpt><trkpt lat="45.10352194739072" lon="9.133533804716041"><ele>61.0</ele><time>2026-05-01T09:13:59.001Z</time></trkpt><trkpt lat="45.103401372009316" lon="9.133599666924194"><ele>61.0</ele><time>2026-05-01T09:14:00.001Z</time></trkpt><trkpt lat="45.10328633829709" lon="9.133681382183553"><ele>61.0</ele><time>2026-05-01T09:14:01.001Z</time></trkpt><trkpt lat="45.103159794478344" lon="9.133764197902746"><ele>61.0</ele><time>2026-05-01T09:14:02.001Z</time></trkpt><trkpt lat="45.103016231154754" lon="9.133842752192676"><ele>61.0</ele><time>2026-05-01T09:14:03.001Z</time></trkpt><trkpt lat="45.10287277318242" lon="9.133923043254171"><ele>60.666666666666664</ele><time>2026-05-01T09:14:04.001Z</time></trkpt><trkpt lat="45.102733532275266" lon="9.134010262316991"><ele>60.33333333333333</ele><time>2026-05-01T09:14:05.001Z</time></trkpt><trkpt lat="45.10259753463999" lon="9.134093818146823"><ele>60.0</ele><time>2026-05-01T09:14:06.001Z</time></trkpt><trkpt lat="45.102451617338524" lon="9.134182822945625"><ele>59.33333333333333</ele><time>2026-05-01T09:14:07.001Z</time></trkpt><trkpt lat="45.10231217661241" lon="9.134269586484715"><ele>58.666666666666664</ele><time>2026-05-01T09:14:08.001Z</time></trkpt><trkpt lat="45.10216861924278" lon="9.134359247321186"><ele>58.0</ele><time>2026-05-01T09:14:09.001Z</time></trkpt><trkpt lat="45.102019069051835" lon="9.134448958783146"><ele>58.0</ele><time>2026-05-01T09:14:10.001Z</time></trkpt><trkpt lat="45.10187204466452" lon="9.13453014728353"><ele>58.0</ele><time>2026-05-01T09:14:11.001Z</time></trkpt><trkpt lat="45.101738626784964" lon="9.134614574736647"><ele>58.0</ele><time>2026-05-01T09:14:12.001Z</time></trkpt><trkpt lat="45.101603113556166" lon="9.134704339252178"><ele>58.25</ele><time>2026-05-01T09:14:13.001Z</time></trkpt><trkpt lat="45.101466022932435" lon="9.134790969482193"><ele>58.5</ele><time>2026-05-01T09:14:14.001Z</time></trkpt><trkpt lat="45.10133534492872" lon="9.134874239185406"><ele>58.75</ele><time>2026-05-01T09:14:15.001Z</time></trkpt><trkpt lat="45.10120811621829" lon="9.134958799116857"><ele>59.0</ele><time>2026-05-01T09:14:16.001Z</time></trkpt><trkpt lat="45.10108154582944" lon="9.13504034802295"><ele>59.0</ele><time>2026-05-01T09:14:17.001Z</time></trkpt><trkpt lat="45.100952302985036" lon="9.135118644279837"><ele>59.0</ele><time>2026-05-01T09:14:18.001Z</time></trkpt><trkpt lat="45.10082061294657" lon="9.13519736588531"><ele>59.0</ele><time>2026-05-01T09:14:19.002Z</time></trkpt><trkpt lat="45.100684275070726" lon="9.13528390433232"><ele>59.0</ele><time>2026-05-01T09:14:20.002Z</time></trkpt><trkpt lat="45.10054665999672" lon="9.135369147654272"><ele>59.333333333333336</ele><time>2026-05-01T09:14:21.002Z</time></trkpt><trkpt lat="45.100402725756915" lon="9.135449750759358"><ele>59.66666666666667</ele><time>2026-05-01T09:14:22.002Z</time></trkpt><trkpt lat="45.10026106269997" lon="9.1355408001308"><ele>60.0</ele><time>2026-05-01T09:14:23.002Z</time></trkpt><trkpt lat="45.10010493968293" lon="9.135625290915247"><ele>60.0</ele><time>2026-05-01T09:14:24.002Z</time></trkpt><trkpt lat="45.099953188392085" lon="9.135714787966725"><ele>60.0</ele><time>2026-05-01T09:14:25.002Z</time></trkpt><trkpt lat="45.09980361617102" lon="9.135803121410364"><ele>60.0</ele><time>2026-05-01T09:14:26.002Z</time></trkpt><trkpt lat="45.09965680294099" lon="9.135888899214288"><ele>60.0</ele><time>2026-05-01T09:14:27.002Z</time></trkpt><trkpt lat="45.099520661544304" lon="9.135970156439262"><ele>60.0</ele><time>2026-05-01T09:14:28.002Z</time></trkpt><trkpt lat="45.09938633087129" lon="9.13605047214543"><ele>60.0</ele><time>2026-05-01T09:14:29.002Z</time></trkpt><trkpt lat="45.09924987080105" lon="9.136124382464851"><ele>60.0</ele><time>2026-05-01T09:14:30.002Z</time></trkpt><trkpt lat="45.09911036105412" lon="9.13621452395782"><ele>59.66666666666667</ele><time>2026-05-01T09:14:31.002Z</time></trkpt><trkpt lat="45.09897084930014" lon="9.136305044488232"><ele>59.333333333333336</ele><time>2026-05-01T09:14:32.002Z</time></trkpt><trkpt lat="45.098822510636225" lon="9.136399102778315"><ele>59.0</ele><time>2026-05-01T09:14:33.002Z</time></trkpt><trkpt lat="45.09867446683726" lon="9.136492901828369"><ele>58.66666666666667</ele><time>2026-05-01T09:14:34.002Z</time></trkpt><trkpt lat="45.098521182814515" lon="9.136590651458315"><ele>58.33333333333333</ele><time>2026-05-01T09:14:35.002Z</time></trkpt><trkpt lat="45.09836741035061" lon="9.136680350340205"><ele>58.0</ele><time>2026-05-01T09:14:36.002Z</time></trkpt><trkpt lat="45.098223800536225" lon="9.136768819008498"><ele>58.0</ele><time>2026-05-01T09:14:37.002Z</time></trkpt><trkpt lat="45.09807903314081" lon="9.136853326095055"><ele>58.0</ele><time>2026-05-01T09:14:38.002Z</time></trkpt><trkpt lat="45.09792892004717" lon="9.136940270729243"><ele>58.0</ele><time>2026-05-01T09:14:39.002Z</time></trkpt><trkpt lat="45.097773537117625" lon="9.137036865926268"><ele>58.0</ele><time>2026-05-01T09:14:40.002Z</time></trkpt><trkpt lat="45.09761673420482" lon="9.13713393170702"><ele>58.0</ele><time>2026-05-01T09:14:41.002Z</time></trkpt><trkpt lat="45.09746415600891" lon="9.137227258876415"><ele>58.0</ele><time>2026-05-01T09:14:42.002Z</time></trkpt><trkpt lat="45.09730935868326" lon="9.13732772837722"><ele>58.5</ele><time>2026-05-01T09:14:43.002Z</time></trkpt><trkpt lat="45.09717901703794" lon="9.137400250987683"><ele>59.0</ele><time>2026-05-01T09:14:44.002Z</time></trkpt><trkpt lat="45.097061110027354" lon="9.137475886259576"><ele>59.5</ele><time>2026-05-01T09:14:45.002Z</time></trkpt><trkpt lat="45.09695533436496" lon="9.137548078458979"><ele>60.0</ele><time>2026-05-01T09:14:46.002Z</time></trkpt><trkpt lat="45.0968541132161" lon="9.13761197467008"><ele>60.0</ele><time>2026-05-01T09:14:47Z</time></trkpt><trkpt lat="45.09674404963801" lon="9.13767039133321"><ele>60.0</ele><time>2026-05-01T09:14:48Z</time></trkpt><trkpt lat="45.09663885987719" lon="9.137737235219248"><ele>60.0</ele><time>2026-05-01T09:14:49Z</time></trkpt><trkpt lat="45.096540399452756" lon="9.13779886933885"><ele>60.0</ele><time>2026-05-01T09:14:50Z</time></trkpt><trkpt lat="45.09644288265735" lon="9.137858995142876"><ele>60.0</ele><time>2026-05-01T09:14:51Z</time></trkpt><trkpt lat="45.09634519535492" lon="9.137911085799061"><ele>60.0</ele><time>2026-05-01T09:14:52Z</time></trkpt><trkpt lat="45.09625687843089" lon="9.13796604151106"><ele>60.0</ele><time>2026-05-01T09:14:53Z</time></trkpt><trkpt lat="45.09618634422835" lon="9.13800365089359"><ele>60.0</ele><time>2026-05-01T09:14:54Z</time></trkpt><trkpt lat="45.096125706509575" lon="9.13804068004688"><ele>60.0</ele><time>2026-05-01T09:14:55Z</time></trkpt><trkpt lat="45.095999661383935" lon="9.138103640101194"><ele>60.0</ele><time>2026-05-01T09:14:57Z</time></trkpt><trkpt lat="45.095933616670365" lon="9.138136820205856"><ele>60.0</ele><time>2026-05-01T09:14:58Z</time></trkpt><trkpt lat="45.09586348920298" lon="9.138184151047119"><ele>60.0</ele><time>2026-05-01T09:14:59Z</time></trkpt><trkpt lat="45.09579086378051" lon="9.138234663009378"><ele>60.0</ele><time>2026-05-01T09:15:00Z</time></trkpt><trkpt lat="45.09571572773006" lon="9.138283308310315"><ele>60.0</ele><time>2026-05-01T09:15:01Z</time></trkpt><trkpt lat="45.095630164559665" lon="9.138334257537574"><ele>60.0</ele><time>2026-05-01T09:15:02Z</time></trkpt><trkpt lat="45.095541867749894" lon="9.138381013287637"><ele>60.0</ele><time>2026-05-01T09:15:03Z</time></trkpt><trkpt lat="45.095454550173855" lon="9.138435412600684"><ele>60.0</ele><time>2026-05-01T09:15:04Z</time></trkpt><trkpt lat="45.09536508491685" lon="9.138487686995266"><ele>59.8</ele><time>2026-05-01T09:15:05Z</time></trkpt><trkpt lat="45.095273295504676" lon="9.138540431191625"><ele>59.6</ele><time>2026-05-01T09:15:06Z</time></trkpt><trkpt lat="45.0951829579124" lon="9.138594653316423"><ele>59.400000000000006</ele><time>2026-05-01T09:15:07Z</time></trkpt><trkpt lat="45.09509353699146" lon="9.138650938788444"><ele>59.2</ele><time>2026-05-01T09:15:08Z</time></trkpt><trkpt lat="45.09500915858984" lon="9.13870607489473"><ele>59.0</ele><time>2026-05-01T09:15:09Z</time></trkpt><trkpt lat="45.09492836173641" lon="9.138763007073683"><ele>59.333333333333336</ele><time>2026-05-01T09:15:10Z</time></trkpt><trkpt lat="45.094848751032856" lon="9.138810728078477"><ele>59.66666666666667</ele><time>2026-05-01T09:15:11Z</time></trkpt><trkpt lat="45.094776782944294" lon="9.138856836426221"><ele>60.0</ele><time>2026-05-01T09:15:12Z</time></trkpt><trkpt lat="45.09470983204302" lon="9.138890188869825"><ele>60.33333333333333</ele><time>2026-05-01T09:15:13Z</time></trkpt><trkpt lat="45.094649230480634" lon="9.138922847093077"><ele>60.666666666666664</ele><time>2026-05-01T09:15:14Z</time></trkpt><trkpt lat="45.09459023160212" lon="9.13895556092777"><ele>61.0</ele><time>2026-05-01T09:15:15Z</time></trkpt><trkpt lat="45.094492540767995" lon="9.139015239378267"><ele>61.14285714285714</ele><time>2026-05-01T09:15:17Z</time></trkpt><trkpt lat="45.09441248482357" lon="9.13906652767842"><ele>61.285714285714285</ele><time>2026-05-01T09:15:19Z</time></trkpt><trkpt lat="45.09434874846165" lon="9.13911514900513"><ele>61.42857142857143</ele><time>2026-05-01T09:15:21.001Z</time></trkpt><trkpt lat="45.09429654396482" lon="9.139181462146475"><ele>61.57142857142857</ele><time>2026-05-01T09:15:23.001Z</time></trkpt><trkpt lat="45.09424756717923" lon="9.139238400062254"><ele>61.71428571428572</ele><time>2026-05-01T09:15:41.001Z</time></trkpt><trkpt lat="45.09417199022394" lon="9.139225005439153"><ele>61.85714285714286</ele><time>2026-05-01T09:15:50.001Z</time></trkpt><trkpt lat="45.09411432944544" lon="9.139272341182926"><ele>62.0</ele><time>2026-05-01T09:16:05.001Z</time></trkpt><trkpt lat="45.09421223784824" lon="9.139446086678193"><ele>62.0</ele><time>2026-05-01T09:16:08.001Z</time></trkpt><trkpt lat="45.09425442452733" lon="9.13956699975588"><ele>62.0</ele><time>2026-05-01T09:16:09.001Z</time></trkpt><trkpt lat="45.09428855011923" lon="9.139684754474429"><ele>62.0</ele><time>2026-05-01T09:16:10.001Z</time></trkpt><trkpt lat="45.09432830461247" lon="9.13982764457807"><ele>62.0</ele><time>2026-05-01T09:16:11.001Z</time></trkpt><trkpt lat="45.09437586005508" lon="9.139989150263938"><ele>62.0</ele><time>2026-05-01T09:16:12.001Z</time></trkpt><trkpt lat="45.09442928431859" lon="9.140159264279617"><ele>61.75</ele><time>2026-05-01T09:16:13.001Z</time></trkpt><trkpt lat="45.094479776448395" lon="9.14032067288093"><ele>61.5</ele><time>2026-05-01T09:16:14.001Z</time></trkpt><trkpt lat="45.094535808893326" lon="9.140502806870641"><ele>61.25</ele><time>2026-05-01T09:16:15.001Z</time></trkpt><trkpt lat="45.09459561523896" lon="9.14069567766848"><ele>61.0</ele><time>2026-05-01T09:16:16.001Z</time></trkpt><trkpt lat="45.09465620607501" lon="9.140898836716824"><ele>61.0</ele><time>2026-05-01T09:16:17.001Z</time></trkpt><trkpt lat="45.09471857665602" lon="9.14111052016557"><ele>61.0</ele><time>2026-05-01T09:16:18.001Z</time></trkpt><trkpt lat="45.094780160758866" lon="9.141313555341169"><ele>61.0</ele><time>2026-05-01T09:16:19.001Z</time></trkpt><trkpt lat="45.09483565042284" lon="9.141513132770584"><ele>61.0</ele><time>2026-05-01T09:16:20.001Z</time></trkpt><trkpt lat="45.09488970184379" lon="9.141722301298412"><ele>61.0</ele><time>2026-05-01T09:16:21.002Z</time></trkpt><trkpt lat="45.094939512732026" lon="9.141933423689402"><ele>61.0</ele><time>2026-05-01T09:16:22.002Z</time></trkpt><trkpt lat="45.094984285815954" lon="9.142148550818153"><ele>61.0</ele><time>2026-05-01T09:16:23.002Z</time></trkpt><trkpt lat="45.09502297949511" lon="9.142355653465186"><ele>61.0</ele><time>2026-05-01T09:16:24.002Z</time></trkpt><trkpt lat="45.09503821325775" lon="9.142543002048333"><ele>61.0</ele><time>2026-05-01T09:16:25.002Z</time></trkpt><trkpt lat="45.09507568182676" lon="9.142729475797475"><ele>61.0</ele><time>2026-05-01T09:16:26.002Z</time></trkpt><trkpt lat="45.09512738191444" lon="9.142923412351577"><ele>61.0</ele><time>2026-05-01T09:16:27.002Z</time></trkpt><trkpt lat="45.09519724693648" lon="9.143111250986395"><ele>61.0</ele><time>2026-05-01T09:16:28.002Z</time></trkpt><trkpt lat="45.09528945065638" lon="9.143292165175286"><ele>61.0</ele><time>2026-05-01T09:16:29.002Z</time></trkpt><trkpt lat="45.09540110234792" lon="9.143478316654177"><ele>60.666666666666664</ele><time>2026-05-01T09:16:30.002Z</time></trkpt><trkpt lat="45.09552586707497" lon="9.143666734397504"><ele>60.33333333333333</ele><time>2026-05-01T09:16:31.002Z</time></trkpt><trkpt lat="45.095654288132046" lon="9.143855162858658"><ele>60.0</ele><time>2026-05-01T09:16:32.002Z</time></trkpt><trkpt lat="45.09578362958934" lon="9.144043363290473"><ele>60.0</ele><time>2026-05-01T09:16:33.002Z</time></trkpt><trkpt lat="45.095908625401876" lon="9.144223692776265"><ele>60.0</ele><time>2026-05-01T09:16:34.002Z</time></trkpt><trkpt lat="45.096043156764395" lon="9.14440657299488"><ele>60.0</ele><time>2026-05-01T09:16:35.002Z</time></trkpt><trkpt lat="45.09617975036894" lon="9.144583821021676"><ele>60.0</ele><time>2026-05-01T09:16:36.002Z</time></trkpt><trkpt lat="45.09632319269949" lon="9.14476332830851"><ele>60.0</ele><time>2026-05-01T09:16:37.002Z</time></trkpt><trkpt lat="45.0964786305225" lon="9.144927950715813"><ele>60.0</ele><time>2026-05-01T09:16:38.002Z</time></trkpt><trkpt lat="45.096636941647546" lon="9.145088977494147"><ele>60.0</ele><time>2026-05-01T09:16:39.002Z</time></trkpt><trkpt lat="45.09679869615045" lon="9.14524656966097"><ele>60.0</ele><time>2026-05-01T09:16:40.002Z</time></trkpt><trkpt lat="45.09696044272228" lon="9.145406133067278"><ele>60.0</ele><time>2026-05-01T09:16:41.002Z</time></trkpt><trkpt lat="45.097123249208764" lon="9.145566742020039"><ele>60.0</ele><time>2026-05-01T09:16:42.002Z</time></trkpt><trkpt lat="45.097284846126726" lon="9.145726157807104"><ele>60.0</ele><time>2026-05-01T09:16:43.002Z</time></trkpt><trkpt lat="45.09743633697871" lon="9.145872302312979"><ele>60.0</ele><time>2026-05-01T09:16:44.002Z</time></trkpt><trkpt lat="45.097580007212215" lon="9.146004606213594"><ele>59.33333333333333</ele><time>2026-05-01T09:16:45.002Z</time></trkpt><trkpt lat="45.09772788039585" lon="9.146127572649453"><ele>58.666666666666664</ele><time>2026-05-01T09:16:46.002Z</time></trkpt><trkpt lat="45.09788236668033" lon="9.146235712051629"><ele>58.0</ele><time>2026-05-01T09:16:47.002Z</time></trkpt><trkpt lat="45.09804421470646" lon="9.146329504642997"><ele>58.0</ele><time>2026-05-01T09:16:48.002Z</time></trkpt><trkpt lat="45.09821224941343" lon="9.146400001039494"><ele>58.0</ele><time>2026-05-01T09:16:49.002Z</time></trkpt><trkpt lat="45.0983831808404" lon="9.14646617601693"><ele>58.0</ele><time>2026-05-01T09:16:50.002Z</time></trkpt><trkpt lat="45.09855538356608" lon="9.146531827247216"><ele>59.0</ele><time>2026-05-01T09:16:51.002Z</time></trkpt><trkpt lat="45.09871419028841" lon="9.14659237133182"><ele>60.0</ele><time>2026-05-01T09:16:52.002Z</time></trkpt><trkpt lat="45.09886209702435" lon="9.146628041530114"><ele>61.0</ele><time>2026-05-01T09:16:53Z</time></trkpt><trkpt lat="45.0989951399445" lon="9.146690785183837"><ele>60.75</ele><time>2026-05-01T09:16:54Z</time></trkpt><trkpt lat="45.09912027233291" lon="9.14676357922464"><ele>60.5</ele><time>2026-05-01T09:16:55Z</time></trkpt><trkpt lat="45.09920549065675" lon="9.146887196521416"><ele>60.25</ele><time>2026-05-01T09:16:56Z</time></trkpt><trkpt lat="45.09929277677764" lon="9.147015284958371"><ele>60.0</ele><time>2026-05-01T09:16:57Z</time></trkpt><trkpt lat="45.099382842668994" lon="9.147151292996082"><ele>60.0</ele><time>2026-05-01T09:16:58Z</time></trkpt><trkpt lat="45.09947148558723" lon="9.147289412683126"><ele>60.0</ele><time>2026-05-01T09:16:59Z</time></trkpt><trkpt lat="45.09956807811083" lon="9.147408019166111"><ele>60.0</ele><time>2026-05-01T09:17:00Z</time></trkpt><trkpt lat="45.09964190726515" lon="9.147531286370214"><ele>60.0</ele><time>2026-05-01T09:17:01Z</time></trkpt><trkpt lat="45.0997186582262" lon="9.147655601028928"><ele>59.75</ele><time>2026-05-01T09:17:02Z</time></trkpt><trkpt lat="45.099803876647776" lon="9.147790263334047"><ele>59.5</ele><time>2026-05-01T09:17:03Z</time></trkpt><trkpt lat="45.09989479309919" lon="9.147936409474081"><ele>59.25</ele><time>2026-05-01T09:17:04Z</time></trkpt><trkpt lat="45.09998575930422" lon="9.148088933011072"><ele>59.0</ele><time>2026-05-01T09:17:05Z</time></trkpt><trkpt lat="45.100047208597765" lon="9.148271981326024"><ele>59.0</ele><time>2026-05-01T09:17:06Z</time></trkpt><trkpt lat="45.1001170003047" lon="9.148452444088091"><ele>59.0</ele><time>2026-05-01T09:17:07Z</time></trkpt><trkpt lat="45.10020045306532" lon="9.148634371926407"><ele>59.0</ele><time>2026-05-01T09:17:08Z</time></trkpt><trkpt lat="45.10027313671239" lon="9.148828879902341"><ele>59.0</ele><time>2026-05-01T09:17:09Z</time></trkpt><trkpt lat="45.10034626036971" lon="9.149024966387127"><ele>59.0</ele><time>2026-05-01T09:17:10Z</time></trkpt><trkpt lat="45.100414193262345" lon="9.149229354322324"><ele>59.0</ele><time>2026-05-01T09:17:11Z</time></trkpt><trkpt lat="45.100473095854845" lon="9.149439353447377"><ele>59.0</ele><time>2026-05-01T09:17:12Z</time></trkpt><trkpt lat="45.10052327070711" lon="9.149650594365868"><ele>59.0</ele><time>2026-05-01T09:17:13Z</time></trkpt><trkpt lat="45.10056449008115" lon="9.14985610297438"><ele>59.0</ele><time>2026-05-01T09:17:14Z</time></trkpt><trkpt lat="45.10060108755146" lon="9.150045772878695"><ele>59.0</ele><time>2026-05-01T09:17:15Z</time></trkpt><trkpt lat="45.100643311312176" lon="9.15022034457053"><ele>58.75</ele><time>2026-05-01T09:17:16Z</time></trkpt><trkpt lat="45.10067506152895" lon="9.150384069958404"><ele>58.5</ele><time>2026-05-01T09:17:17Z</time></trkpt><trkpt lat="45.1007171729196" lon="9.15052457760401"><ele>58.25</ele><time>2026-05-01T09:17:18Z</time></trkpt><trkpt lat="45.100781780981" lon="9.150652559634942"><ele>58.0</ele><time>2026-05-01T09:17:19Z</time></trkpt><trkpt lat="45.100871194607635" lon="9.150752030433036"><ele>58.5</ele><time>2026-05-01T09:17:20Z</time></trkpt><trkpt lat="45.10095459350053" lon="9.150865849029094"><ele>59.0</ele><time>2026-05-01T09:17:21Z</time></trkpt><trkpt lat="45.10104497270159" lon="9.150981366494191"><ele>59.5</ele><time>2026-05-01T09:17:22Z</time></trkpt><trkpt lat="45.101133773128275" lon="9.15109183528814"><ele>60.0</ele><time>2026-05-01T09:17:23Z</time></trkpt><trkpt lat="45.101206953854565" lon="9.151198505450658"><ele>60.0</ele><time>2026-05-01T09:17:24Z</time></trkpt><trkpt lat="45.101265117663395" lon="9.151288916814238"><ele>60.0</ele><time>2026-05-01T09:17:25Z</time></trkpt><trkpt lat="45.101313239514134" lon="9.151371053989134"><ele>60.0</ele><time>2026-05-01T09:17:26Z</time></trkpt><trkpt lat="45.10134922297088" lon="9.15144514303647"><ele>60.0</ele><time>2026-05-01T09:17:27Z</time></trkpt><trkpt lat="45.10138972087311" lon="9.15154093845953"><ele>60.0</ele><time>2026-05-01T09:17:29Z</time></trkpt><trkpt lat="45.101274317614966" lon="9.151653383797601"><ele>60.0</ele><time>2026-05-01T09:17:32Z</time></trkpt><trkpt lat="45.10120652835545" lon="9.151701113067796"><ele>60.0</ele><time>2026-05-01T09:17:33Z</time></trkpt><trkpt lat="45.10112619262323" lon="9.151715283015534"><ele>60.0</ele><time>2026-05-01T09:17:34Z</time></trkpt><trkpt lat="45.101054039897974" lon="9.151735235321505"><ele>60.0</ele><time>2026-05-01T09:17:35Z</time></trkpt><trkpt lat="45.100955655996515" lon="9.151769639896104"><ele>60.0</ele><time>2026-05-01T09:17:37Z</time></trkpt><trkpt lat="45.100888799676426" lon="9.15180218364933"><ele>60.0</ele><time>2026-05-01T09:17:40Z</time></trkpt><trkpt lat="45.100812517534095" lon="9.151838293261903"><ele>60.0</ele><time>2026-05-01T09:17:42.001Z</time></trkpt><trkpt lat="45.1007421531421" lon="9.151870792620924"><ele>60.0</ele><time>2026-05-01T09:17:43.001Z</time></trkpt><trkpt lat="45.1006617578517" lon="9.151901288950077"><ele>60.0</ele><time>2026-05-01T09:17:44.001Z</time></trkpt><trkpt lat="45.10057704450614" lon="9.151938471394685"><ele>60.0</ele><time>2026-05-01T09:17:45.001Z</time></trkpt><trkpt lat="45.10048107930288" lon="9.151981623101838"><ele>60.0</ele><time>2026-05-01T09:17:46.001Z</time></trkpt><trkpt lat="45.10038329503892" lon="9.152040649593134"><ele>60.0</ele><time>2026-05-01T09:17:47.001Z</time></trkpt><trkpt lat="45.10030014842455" lon="9.152119899674602"><ele>60.0</ele><time>2026-05-01T09:17:48.001Z</time></trkpt><trkpt lat="45.10021125230007" lon="9.152210662300186"><ele>60.0</ele><time>2026-05-01T09:17:49.001Z</time></trkpt><trkpt lat="45.10012566868088" lon="9.152329847386781"><ele>60.0</ele><time>2026-05-01T09:17:50.001Z</time></trkpt><trkpt lat="45.10002286928823" lon="9.152441728910315"><ele>60.0</ele><time>2026-05-01T09:17:51.001Z</time></trkpt><trkpt lat="45.09992217631674" lon="9.152565841960989"><ele>60.25</ele><time>2026-05-01T09:17:52.001Z</time></trkpt><trkpt lat="45.09981441752209" lon="9.152683052398684"><ele>60.5</ele><time>2026-05-01T09:17:53.001Z</time></trkpt><trkpt lat="45.09970824952078" lon="9.152804855294406"><ele>60.75</ele><time>2026-05-01T09:17:54.001Z</time></trkpt><trkpt lat="45.099604129756926" lon="9.1529243919022"><ele>61.0</ele><time>2026-05-01T09:17:55.001Z</time></trkpt><trkpt lat="45.099500543310036" lon="9.153039718519915"><ele>61.0</ele><time>2026-05-01T09:17:56.001Z</time></trkpt><trkpt lat="45.09940570810897" lon="9.153148865044608"><ele>61.0</ele><time>2026-05-01T09:17:57.001Z</time></trkpt><trkpt lat="45.09931680292504" lon="9.153248529993832"><ele>61.0</ele><time>2026-05-01T09:17:58.001Z</time></trkpt><trkpt lat="45.09921987172327" lon="9.153342845302419"><ele>61.0</ele><time>2026-05-01T09:17:59.001Z</time></trkpt><trkpt lat="45.09911688056258" lon="9.153428414436465"><ele>60.75</ele><time>2026-05-01T09:18:00.001Z</time></trkpt><trkpt lat="45.09900331190064" lon="9.153519394442663"><ele>60.5</ele><time>2026-05-01T09:18:01.001Z</time></trkpt><trkpt lat="45.09888583475827" lon="9.153612239355086"><ele>60.25</ele><time>2026-05-01T09:18:02.001Z</time></trkpt><trkpt lat="45.09876977893529" lon="9.153702116714527"><ele>60.0</ele><time>2026-05-01T09:18:03.001Z</time></trkpt><trkpt lat="45.09865203568608" lon="9.153790598354334"><ele>60.0</ele><time>2026-05-01T09:18:04.001Z</time></trkpt><trkpt lat="45.09854428225885" lon="9.153885218283465"><ele>60.0</ele><time>2026-05-01T09:18:05.001Z</time></trkpt><trkpt lat="45.098428499042186" lon="9.153981781152956"><ele>60.0</ele><time>2026-05-01T09:18:06.001Z</time></trkpt><trkpt lat="45.098311937143016" lon="9.154077387564126"><ele>60.0</ele><time>2026-05-01T09:18:07.001Z</time></trkpt><trkpt lat="45.09819203210675" lon="9.154172565846308"><ele>60.25</ele><time>2026-05-01T09:18:08.001Z</time></trkpt><trkpt lat="45.098066895240216" lon="9.154273682781499"><ele>60.5</ele><time>2026-05-01T09:18:09.001Z</time></trkpt><trkpt lat="45.09794067218819" lon="9.154378809840505"><ele>60.75</ele><time>2026-05-01T09:18:10.001Z</time></trkpt><trkpt lat="45.097811220707044" lon="9.154489271518402"><ele>61.0</ele><time>2026-05-01T09:18:11.001Z</time></trkpt><trkpt lat="45.09768023809185" lon="9.154600284043415"><ele>61.0</ele><time>2026-05-01T09:18:12.001Z</time></trkpt><trkpt lat="45.097548633891556" lon="9.154707193508068"><ele>61.0</ele><time>2026-05-01T09:18:13.001Z</time></trkpt><trkpt lat="45.09742388675714" lon="9.154806196266494"><ele>61.0</ele><time>2026-05-01T09:18:14.001Z</time></trkpt><trkpt lat="45.097302211147685" lon="9.15491284109479"><ele>61.0</ele><time>2026-05-01T09:18:15.001Z</time></trkpt><trkpt lat="45.09717931773676" lon="9.15502125073065"><ele>61.0</ele><time>2026-05-01T09:18:16.001Z</time></trkpt><trkpt lat="45.09705377352585" lon="9.155128176015287"><ele>61.0</ele><time>2026-05-01T09:18:17.001Z</time></trkpt><trkpt lat="45.09693041011719" lon="9.155232201779812"><ele>61.0</ele><time>2026-05-01T09:18:18.001Z</time></trkpt><trkpt lat="45.09680420205569" lon="9.155335515446128"><ele>61.0</ele><time>2026-05-01T09:18:19.001Z</time></trkpt><trkpt lat="45.0966782549827" lon="9.15544469313886"><ele>60.5</ele><time>2026-05-01T09:18:20.001Z</time></trkpt><trkpt lat="45.09655079339157" lon="9.155549625354016"><ele>60.0</ele><time>2026-05-01T09:18:21.001Z</time></trkpt><trkpt lat="45.096421692505274" lon="9.15564570387179"><ele>59.5</ele><time>2026-05-01T09:18:22.001Z</time></trkpt><trkpt lat="45.09628970137134" lon="9.155746332754564"><ele>59.0</ele><time>2026-05-01T09:18:23.001Z</time></trkpt><trkpt lat="45.09615481002205" lon="9.15584132841026"><ele>59.0</ele><time>2026-05-01T09:18:24.001Z</time></trkpt><trkpt lat="45.09603208987037" lon="9.155925806890053"><ele>59.0</ele><time>2026-05-01T09:18:25.001Z</time></trkpt><trkpt lat="45.09589886860812" lon="9.156010307157475"><ele>59.0</ele><time>2026-05-01T09:18:26.001Z</time></trkpt><trkpt lat="45.095763059014764" lon="9.156093482869538"><ele>59.0</ele><time>2026-05-01T09:18:27.001Z</time></trkpt><trkpt lat="45.09562596684184" lon="9.156178038400373"><ele>59.25</ele><time>2026-05-01T09:18:28.001Z</time></trkpt><trkpt lat="45.095496017143624" lon="9.156262154402935"><ele>59.5</ele><time>2026-05-01T09:18:29.001Z</time></trkpt><trkpt lat="45.09536238824447" lon="9.1563427919333"><ele>59.75</ele><time>2026-05-01T09:18:30.001Z</time></trkpt><trkpt lat="45.09522786273342" lon="9.156418497239533"><ele>60.0</ele><time>2026-05-01T09:18:31.001Z</time></trkpt><trkpt lat="45.09509201397404" lon="9.156480477082383"><ele>60.0</ele><time>2026-05-01T09:18:32.001Z</time></trkpt><trkpt lat="45.09495747816574" lon="9.1565294093662"><ele>60.0</ele><time>2026-05-01T09:18:33.001Z</time></trkpt><trkpt lat="45.0948161739995" lon="9.156574299659479"><ele>60.0</ele><time>2026-05-01T09:18:34.001Z</time></trkpt><trkpt lat="45.094672191501935" lon="9.156616807824848"><ele>60.0</ele><time>2026-05-01T09:18:35.001Z</time></trkpt><trkpt lat="45.09452684261998" lon="9.156663997140948"><ele>60.0</ele><time>2026-05-01T09:18:36.001Z</time></trkpt><trkpt lat="45.09437931845746" lon="9.156711217502721"><ele>60.0</ele><time>2026-05-01T09:18:37.001Z</time></trkpt><trkpt lat="45.0942297145924" lon="9.156754976170769"><ele>60.0</ele><time>2026-05-01T09:18:38.001Z</time></trkpt><trkpt lat="45.094079733373974" lon="9.15679956210128"><ele>60.0</ele><time>2026-05-01T09:18:39.002Z</time></trkpt><trkpt lat="45.09393202848491" lon="9.156840679492042"><ele>60.0</ele><time>2026-05-01T09:18:40.002Z</time></trkpt><trkpt lat="45.09378330067562" lon="9.156887962219685"><ele>60.0</ele><time>2026-05-01T09:18:41.002Z</time></trkpt><trkpt lat="45.09363359860031" lon="9.15692817607284"><ele>60.0</ele><time>2026-05-01T09:18:42.002Z</time></trkpt><trkpt lat="45.09348886741018" lon="9.156974296467203"><ele>60.0</ele><time>2026-05-01T09:18:43.002Z</time></trkpt><trkpt lat="45.09334007202428" lon="9.157009043080958"><ele>60.0</ele><time>2026-05-01T09:18:44.002Z</time></trkpt><trkpt lat="45.09318772285206" lon="9.157041809910337"><ele>60.33333333333333</ele><time>2026-05-01T09:18:45.002Z</time></trkpt><trkpt lat="45.09302862099062" lon="9.157069926483288"><ele>60.666666666666664</ele><time>2026-05-01T09:18:46.002Z</time></trkpt><trkpt lat="45.09287346716972" lon="9.157092510495662"><ele>61.0</ele><time>2026-05-01T09:18:47.002Z</time></trkpt><trkpt lat="45.09272017142967" lon="9.157111324317144"><ele>61.0</ele><time>2026-05-01T09:18:48.002Z</time></trkpt><trkpt lat="45.092573266749085" lon="9.157122707262904"><ele>61.0</ele><time>2026-05-01T09:18:49.002Z</time></trkpt><trkpt lat="45.092433863344915" lon="9.15713622342697"><ele>61.0</ele><time>2026-05-01T09:18:50.002Z</time></trkpt><trkpt lat="45.09231013619928" lon="9.157154645092445"><ele>61.0</ele><time>2026-05-01T09:18:51.002Z</time></trkpt><trkpt lat="45.092190392608295" lon="9.157173975787439"><ele>60.75</ele><time>2026-05-01T09:18:52.002Z</time></trkpt><trkpt lat="45.09207004192131" lon="9.157189897579082"><ele>60.5</ele><time>2026-05-01T09:18:53.002Z</time></trkpt><trkpt lat="45.09194739715453" lon="9.157192000984308"><ele>60.25</ele><time>2026-05-01T09:18:54.002Z</time></trkpt><trkpt lat="45.09182766606069" lon="9.157168384814867"><ele>60.0</ele><time>2026-05-01T09:18:55.002Z</time></trkpt><trkpt lat="45.0917051898309" lon="9.1571197589143"><ele>59.75</ele><time>2026-05-01T09:18:56.002Z</time></trkpt><trkpt lat="45.09157925134241" lon="9.157054275603048"><ele>59.5</ele><time>2026-05-01T09:18:57.002Z</time></trkpt><trkpt lat="45.091450966941984" lon="9.156988318745432"><ele>59.25</ele><time>2026-05-01T09:18:58.002Z</time></trkpt><trkpt lat="45.09131356585023" lon="9.15692336874676"><ele>59.0</ele><time>2026-05-01T09:18:58.999Z</time></trkpt><trkpt lat="45.09116975304879" lon="9.156855413472591"><ele>59.0</ele><time>2026-05-01T09:18:59.999Z</time></trkpt><trkpt lat="45.09102618270756" lon="9.15678597597588"><ele>59.0</ele><time>2026-05-01T09:19:01Z</time></trkpt><trkpt lat="45.090880007948144" lon="9.156715069009161"><ele>59.0</ele><time>2026-05-01T09:19:02Z</time></trkpt><trkpt lat="45.09073339633254" lon="9.156644020185201"><ele>59.0</ele><time>2026-05-01T09:19:03Z</time></trkpt><trkpt lat="45.09058982759958" lon="9.156575449345478"><ele>59.0</ele><time>2026-05-01T09:19:04Z</time></trkpt><trkpt lat="45.090447461091294" lon="9.156509695900231"><ele>59.0</ele><time>2026-05-01T09:19:05Z</time></trkpt><trkpt lat="45.09030847454263" lon="9.156441913221268"><ele>59.0</ele><time>2026-05-01T09:19:06Z</time></trkpt><trkpt lat="45.09017793958445" lon="9.156376034083015"><ele>59.0</ele><time>2026-05-01T09:19:07Z</time></trkpt><trkpt lat="45.09004684972395" lon="9.156311493190335"><ele>59.0</ele><time>2026-05-01T09:19:08Z</time></trkpt><trkpt lat="45.08991170619186" lon="9.156249957616915"><ele>59.0</ele><time>2026-05-01T09:19:09Z</time></trkpt><trkpt lat="45.08978015852067" lon="9.156187934573225"><ele>59.0</ele><time>2026-05-01T09:19:10Z</time></trkpt><trkpt lat="45.089654264459455" lon="9.156128217115631"><ele>59.5</ele><time>2026-05-01T09:19:11Z</time></trkpt><trkpt lat="45.08951700404161" lon="9.15606168449458"><ele>60.0</ele><time>2026-05-01T09:19:12Z</time></trkpt><trkpt lat="45.08938151934684" lon="9.15599235718731"><ele>60.5</ele><time>2026-05-01T09:19:13Z</time></trkpt><trkpt lat="45.08924508384305" lon="9.155919893744846"><ele>61.0</ele><time>2026-05-01T09:19:14Z</time></trkpt><trkpt lat="45.089108714327324" lon="9.155841214698057"><ele>61.0</ele><time>2026-05-01T09:19:15Z</time></trkpt><trkpt lat="45.088978001669815" lon="9.15575286295362"><ele>61.0</ele><time>2026-05-01T09:19:16Z</time></trkpt><trkpt lat="45.08884693141823" lon="9.155656832084215"><ele>61.0</ele><time>2026-05-01T09:19:17Z</time></trkpt><trkpt lat="45.08871771203978" lon="9.155563204058291"><ele>61.0</ele><time>2026-05-01T09:19:18Z</time></trkpt><trkpt lat="45.088585718018194" lon="9.155465580629619"><ele>61.0</ele><time>2026-05-01T09:19:19Z</time></trkpt><trkpt lat="45.088452905879215" lon="9.15537009247339"><ele>61.0</ele><time>2026-05-01T09:19:20Z</time></trkpt><trkpt lat="45.08831808106107" lon="9.15526702974204"><ele>61.0</ele><time>2026-05-01T09:19:21Z</time></trkpt><trkpt lat="45.08818496113001" lon="9.155170272144368"><ele>61.0</ele><time>2026-05-01T09:19:22Z</time></trkpt><trkpt lat="45.08804755720929" lon="9.155070216966523"><ele>61.0</ele><time>2026-05-01T09:19:23Z</time></trkpt><trkpt lat="45.08791965626942" lon="9.154977513778983"><ele>61.0</ele><time>2026-05-01T09:19:24Z</time></trkpt><trkpt lat="45.0877945009888" lon="9.154894443416756"><ele>61.0</ele><time>2026-05-01T09:19:25Z</time></trkpt><trkpt lat="45.08767065540342" lon="9.154800870366262"><ele>61.0</ele><time>2026-05-01T09:19:26Z</time></trkpt><trkpt lat="45.08754510908727" lon="9.154709765018648"><ele>61.0</ele><time>2026-05-01T09:19:27Z</time></trkpt><trkpt lat="45.087419640544404" lon="9.154621552443372"><ele>61.0</ele><time>2026-05-01T09:19:28Z</time></trkpt><trkpt lat="45.08729669273455" lon="9.154529598994078"><ele>61.0</ele><time>2026-05-01T09:19:29Z</time></trkpt><trkpt lat="45.08717310857338" lon="9.154440249550325"><ele>61.0</ele><time>2026-05-01T09:19:30Z</time></trkpt><trkpt lat="45.08704979743992" lon="9.154353276605448"><ele>61.0</ele><time>2026-05-01T09:19:31Z</time></trkpt><trkpt lat="45.08692302711735" lon="9.154263844094926"><ele>61.0</ele><time>2026-05-01T09:19:32Z</time></trkpt><trkpt lat="45.08679005138845" lon="9.154172070290977"><ele>61.0</ele><time>2026-05-01T09:19:33Z</time></trkpt><trkpt lat="45.08665702765145" lon="9.154084798074226"><ele>61.25</ele><time>2026-05-01T09:19:34Z</time></trkpt><trkpt lat="45.086525707909104" lon="9.1539936172694"><ele>61.5</ele><time>2026-05-01T09:19:35Z</time></trkpt><trkpt lat="45.08639798339044" lon="9.153899132877388"><ele>61.75</ele><time>2026-05-01T09:19:36Z</time></trkpt><trkpt lat="45.08626765661309" lon="9.153802908035981"><ele>62.0</ele><time>2026-05-01T09:19:37Z</time></trkpt><trkpt lat="45.08613703340928" lon="9.1537101827237"><ele>62.0</ele><time>2026-05-01T09:19:38Z</time></trkpt><trkpt lat="45.08600597613717" lon="9.15362152586043"><ele>62.0</ele><time>2026-05-01T09:19:39Z</time></trkpt><trkpt lat="45.085875467653985" lon="9.15352833568478"><ele>62.0</ele><time>2026-05-01T09:19:40Z</time></trkpt><trkpt lat="45.08574582792931" lon="9.153433438786983"><ele>62.0</ele><time>2026-05-01T09:19:41Z</time></trkpt><trkpt lat="45.0856159781822" lon="9.153341492569705"><ele>61.75</ele><time>2026-05-01T09:19:42Z</time></trkpt><trkpt lat="45.085489434371524" lon="9.153257390794339"><ele>61.5</ele><time>2026-05-01T09:19:43Z</time></trkpt><trkpt lat="45.085365603666894" lon="9.15317081220493"><ele>61.25</ele><time>2026-05-01T09:19:44Z</time></trkpt><trkpt lat="45.08524483278009" lon="9.153090624141216"><ele>61.0</ele><time>2026-05-01T09:19:45Z</time></trkpt><trkpt lat="45.08513433957448" lon="9.15301097098682"><ele>61.0</ele><time>2026-05-01T09:19:46Z</time></trkpt><trkpt lat="45.08501272288567" lon="9.152952785009859"><ele>61.0</ele><time>2026-05-01T09:19:47Z</time></trkpt><trkpt lat="45.08488779379057" lon="9.152901464463115"><ele>61.0</ele><time>2026-05-01T09:19:48Z</time></trkpt><trkpt lat="45.08476035510755" lon="9.152859490477422"><ele>61.0</ele><time>2026-05-01T09:19:49.001Z</time></trkpt><trkpt lat="45.084642059403784" lon="9.15282116394117"><ele>61.5</ele><time>2026-05-01T09:19:50.001Z</time></trkpt><trkpt lat="45.08452556672835" lon="9.152792784792402"><ele>62.0</ele><time>2026-05-01T09:19:51.001Z</time></trkpt><trkpt lat="45.08440870166553" lon="9.15276569143785"><ele>62.5</ele><time>2026-05-01T09:19:52.001Z</time></trkpt><trkpt lat="45.084288611683064" lon="9.152761293400077"><ele>63.0</ele><time>2026-05-01T09:19:53.001Z</time></trkpt><trkpt lat="45.084176691534935" lon="9.152763029038933"><ele>63.166666666666664</ele><time>2026-05-01T09:19:54.001Z</time></trkpt><trkpt lat="45.084079716113585" lon="9.152761819556222"><ele>63.33333333333333</ele><time>2026-05-01T09:19:55.001Z</time></trkpt><trkpt lat="45.08399333399788" lon="9.152758578279968"><ele>63.5</ele><time>2026-05-01T09:19:56.001Z</time></trkpt><trkpt lat="45.083922601123895" lon="9.152761409667933"><ele>63.666666666666664</ele><time>2026-05-01T09:19:57.001Z</time></trkpt><trkpt lat="45.0838093005337" lon="9.152757079877794"><ele>63.83333333333333</ele><time>2026-05-01T09:19:59.001Z</time></trkpt><trkpt lat="45.083740721921494" lon="9.15270101774428"><ele>64.0</ele><time>2026-05-01T09:20:01.001Z</time></trkpt><trkpt lat="45.08364471039045" lon="9.15256738716237"><ele>64.0</ele><time>2026-05-01T09:20:03.001Z</time></trkpt><trkpt lat="45.08357761609531" lon="9.152465187538857"><ele>64.0</ele><time>2026-05-01T09:20:04.001Z</time></trkpt><trkpt lat="45.08349638244918" lon="9.15235334977431"><ele>64.0</ele><time>2026-05-01T09:20:05.001Z</time></trkpt><trkpt lat="45.08341384791743" lon="9.152238226312306"><ele>64.0</ele><time>2026-05-01T09:20:06.001Z</time></trkpt><trkpt lat="45.0833319025245" lon="9.152135440117492"><ele>64.0</ele><time>2026-05-01T09:20:07.001Z</time></trkpt><trkpt lat="45.08324119099187" lon="9.152034705726251"><ele>63.75</ele><time>2026-05-01T09:20:08.001Z</time></trkpt><trkpt lat="45.083137295585495" lon="9.151935267925941"><ele>63.5</ele><time>2026-05-01T09:20:09.001Z</time></trkpt><trkpt lat="45.08301773219319" lon="9.15184076765285"><ele>63.25</ele><time>2026-05-01T09:20:10.001Z</time></trkpt><trkpt lat="45.082892485035266" lon="9.151759243497755"><ele>63.0</ele><time>2026-05-01T09:20:11.001Z</time></trkpt><trkpt lat="45.08275353276777" lon="9.151689737077332"><ele>63.0</ele><time>2026-05-01T09:20:12.001Z</time></trkpt><trkpt lat="45.08260965602832" lon="9.151629628320455"><ele>63.0</ele><time>2026-05-01T09:20:13.001Z</time></trkpt><trkpt lat="45.08247511190729" lon="9.151567110958894"><ele>63.0</ele><time>2026-05-01T09:20:14.001Z</time></trkpt><trkpt lat="45.08233696304474" lon="9.151503702873956"><ele>63.0</ele><time>2026-05-01T09:20:15.001Z</time></trkpt><trkpt lat="45.08219310480524" lon="9.151438733152968"><ele>62.33333333333333</ele><time>2026-05-01T09:20:16.001Z</time></trkpt><trkpt lat="45.082040279128115" lon="9.151371631629717"><ele>61.666666666666664</ele><time>2026-05-01T09:20:17.001Z</time></trkpt><trkpt lat="45.08188422289258" lon="9.151305605782122"><ele>61.0</ele><time>2026-05-01T09:20:18.001Z</time></trkpt><trkpt lat="45.08172111937532" lon="9.151232345801178"><ele>61.33333333333333</ele><time>2026-05-01T09:20:19.001Z</time></trkpt><trkpt lat="45.08155122062017" lon="9.151155378539112"><ele>61.66666666666667</ele><time>2026-05-01T09:20:20.001Z</time></trkpt><trkpt lat="45.081383382565605" lon="9.151080044375378"><ele>62.0</ele><time>2026-05-01T09:20:21.001Z</time></trkpt><trkpt lat="45.081215793231074" lon="9.151006526751239"><ele>62.0</ele><time>2026-05-01T09:20:22.001Z</time></trkpt><trkpt lat="45.08104039381857" lon="9.150928895463094"><ele>62.0</ele><time>2026-05-01T09:20:23.001Z</time></trkpt><trkpt lat="45.08086339201851" lon="9.150850624616307"><ele>62.0</ele><time>2026-05-01T09:20:24.001Z</time></trkpt><trkpt lat="45.08068310490309" lon="9.150768408075429"><ele>62.0</ele><time>2026-05-01T09:20:25.001Z</time></trkpt><trkpt lat="45.08049668282223" lon="9.1506816623908"><ele>62.0</ele><time>2026-05-01T09:20:26.001Z</time></trkpt><trkpt lat="45.080307791830805" lon="9.150594848428323"><ele>62.0</ele><time>2026-05-01T09:20:27.001Z</time></trkpt><trkpt lat="45.08011324353342" lon="9.150508840573472"><ele>61.333333333333336</ele><time>2026-05-01T09:20:28.001Z</time></trkpt><trkpt lat="45.079916948856244" lon="9.150420692848398"><ele>60.66666666666667</ele><time>2026-05-01T09:20:29.001Z</time></trkpt><trkpt lat="45.07971799752828" lon="9.150331050596963"><ele>60.0</ele><time>2026-05-01T09:20:30.001Z</time></trkpt><trkpt lat="45.079524965878946" lon="9.150244624429165"><ele>60.0</ele><time>2026-05-01T09:20:31.001Z</time></trkpt><trkpt lat="45.07934155024368" lon="9.150168945046662"><ele>60.0</ele><time>2026-05-01T09:20:32.001Z</time></trkpt><trkpt lat="45.07915258456125" lon="9.150085274713268"><ele>60.0</ele><time>2026-05-01T09:20:33.001Z</time></trkpt><trkpt lat="45.07896281970615" lon="9.149996088911202"><ele>60.33333333333333</ele><time>2026-05-01T09:20:34.001Z</time></trkpt><trkpt lat="45.07877450776733" lon="9.149909115382696"><ele>60.666666666666664</ele><time>2026-05-01T09:20:35.001Z</time></trkpt><trkpt lat="45.07858388521381" lon="9.149819967781495"><ele>61.0</ele><time>2026-05-01T09:20:36.001Z</time></trkpt><trkpt lat="45.07839447803478" lon="9.1497313352963"><ele>61.33333333333333</ele><time>2026-05-01T09:20:37.001Z</time></trkpt><trkpt lat="45.07820383584308" lon="9.149642765080833"><ele>61.66666666666667</ele><time>2026-05-01T09:20:38.001Z</time></trkpt><trkpt lat="45.0780171059321" lon="9.149557463821045"><ele>62.0</ele><time>2026-05-01T09:20:39.001Z</time></trkpt><trkpt lat="45.077831311931206" lon="9.149473973455104"><ele>62.0</ele><time>2026-05-01T09:20:40.001Z</time></trkpt><trkpt lat="45.0776447655815" lon="9.14938660880089"><ele>62.0</ele><time>2026-05-01T09:20:41.001Z</time></trkpt><trkpt lat="45.077457571679076" lon="9.149297648063927"><ele>62.0</ele><time>2026-05-01T09:20:42.002Z</time></trkpt><trkpt lat="45.077273513399525" lon="9.149210287544724"><ele>62.0</ele><time>2026-05-01T09:20:43.002Z</time></trkpt><trkpt lat="45.077091993215326" lon="9.149124859397007"><ele>62.0</ele><time>2026-05-01T09:20:44.002Z</time></trkpt><trkpt lat="45.07690984927219" lon="9.14903240262031"><ele>62.0</ele><time>2026-05-01T09:20:45.002Z</time></trkpt><trkpt lat="45.076727027891984" lon="9.148938622767355"><ele>62.0</ele><time>2026-05-01T09:20:46.002Z</time></trkpt><trkpt lat="45.076542265206385" lon="9.148843078506403"><ele>62.0</ele><time>2026-05-01T09:20:47.002Z</time></trkpt><trkpt lat="45.076356303762815" lon="9.148749410200375"><ele>62.0</ele><time>2026-05-01T09:20:48.002Z</time></trkpt><trkpt lat="45.07616891123632" lon="9.148651074723801"><ele>62.0</ele><time>2026-05-01T09:20:49.002Z</time></trkpt><trkpt lat="45.0759820616413" lon="9.148554589642039"><ele>62.0</ele><time>2026-05-01T09:20:50.002Z</time></trkpt><trkpt lat="45.0758077208292" lon="9.148459712322497"><ele>62.0</ele><time>2026-05-01T09:20:51.002Z</time></trkpt><trkpt lat="45.07564301967189" lon="9.148375910809463"><ele>62.333333333333336</ele><time>2026-05-01T09:20:52.002Z</time></trkpt><trkpt lat="45.075486663996834" lon="9.148295517055034"><ele>62.66666666666667</ele><time>2026-05-01T09:20:53.002Z</time></trkpt><trkpt lat="45.0753363633718" lon="9.148232686107661"><ele>63.0</ele><time>2026-05-01T09:20:54.002Z</time></trkpt><trkpt lat="45.075182315515505" lon="9.148202519250104"><ele>63.0</ele><time>2026-05-01T09:20:55.002Z</time></trkpt><trkpt lat="45.075015103385965" lon="9.148187527127039"><ele>63.0</ele><time>2026-05-01T09:20:56.002Z</time></trkpt><trkpt lat="45.07484014209428" lon="9.148175929478993"><ele>63.0</ele><time>2026-05-01T09:20:57.002Z</time></trkpt><trkpt lat="45.07466786934581" lon="9.148147321838845"><ele>62.33333333333333</ele><time>2026-05-01T09:20:58.002Z</time></trkpt><trkpt lat="45.07449455847779" lon="9.14811807774434"><ele>61.666666666666664</ele><time>2026-05-01T09:20:59.002Z</time></trkpt><trkpt lat="45.07432253987668" lon="9.148092092900043"><ele>61.0</ele><time>2026-05-01T09:21:00.002Z</time></trkpt><trkpt lat="45.0741525476676" lon="9.148066985140261"><ele>61.666666666666664</ele><time>2026-05-01T09:21:01.002Z</time></trkpt><trkpt lat="45.073983730314474" lon="9.148042645202624"><ele>62.33333333333333</ele><time>2026-05-01T09:21:02.002Z</time></trkpt><trkpt lat="45.073817631744035" lon="9.148020732872537"><ele>63.0</ele><time>2026-05-01T09:21:03.002Z</time></trkpt><trkpt lat="45.073657400152804" lon="9.147999610817616"><ele>63.0</ele><time>2026-05-01T09:21:04.002Z</time></trkpt><trkpt lat="45.073510451620855" lon="9.147987285702134"><ele>63.0</ele><time>2026-05-01T09:21:05Z</time></trkpt><trkpt lat="45.07337166003475" lon="9.147972633410548"><ele>63.0</ele><time>2026-05-01T09:21:05.999Z</time></trkpt><trkpt lat="45.07323692621001" lon="9.147956445661096"><ele>63.0</ele><time>2026-05-01T09:21:07Z</time></trkpt><trkpt lat="45.07311414276281" lon="9.147940172497108"><ele>63.2</ele><time>2026-05-01T09:21:07.999Z</time></trkpt><trkpt lat="45.073008458721056" lon="9.147923398259984"><ele>63.4</ele><time>2026-05-01T09:21:08.999Z</time></trkpt><trkpt lat="45.07293026562087" lon="9.147904684974767"><ele>63.60000000000001</ele><time>2026-05-01T09:21:10Z</time></trkpt><trkpt lat="45.07284638426477" lon="9.147845097400632"><ele>63.800000000000004</ele><time>2026-05-01T09:21:12Z</time></trkpt><trkpt lat="45.072811480334586" lon="9.147766831435957"><ele>64.0</ele><time>2026-05-01T09:21:15Z</time></trkpt><trkpt lat="45.07268231212328" lon="9.147793702274672"><ele>64.0</ele><time>2026-05-01T09:21:18Z</time></trkpt><trkpt lat="45.072580369294435" lon="9.147899402032888"><ele>64.0</ele><time>2026-05-01T09:21:20Z</time></trkpt><trkpt lat="45.07252372162889" lon="9.14811720484198"><ele>64.0</ele><time>2026-05-01T09:21:22Z</time></trkpt><trkpt lat="45.072519297057966" lon="9.148255665933133"><ele>64.0</ele><time>2026-05-01T09:21:23Z</time></trkpt><trkpt lat="45.07252926292606" lon="9.14841566046179"><ele>64.0</ele><time>2026-05-01T09:21:24Z</time></trkpt><trkpt lat="45.072540414209904" lon="9.148581577138998"><ele>64.0</ele><time>2026-05-01T09:21:25Z</time></trkpt><trkpt lat="45.0725497768711" lon="9.148736497700648"><ele>64.0</ele><time>2026-05-01T09:21:26Z</time></trkpt><trkpt lat="45.072559684821975" lon="9.148892272689958"><ele>64.0</ele><time>2026-05-01T09:21:27Z</time></trkpt><trkpt lat="45.072569445799566" lon="9.149033097683018"><ele>64.0</ele><time>2026-05-01T09:21:28Z</time></trkpt><trkpt lat="45.072579503774556" lon="9.149170098356349"><ele>64.0</ele><time>2026-05-01T09:21:29Z</time></trkpt><trkpt lat="45.07259878230294" lon="9.149281449866903"><ele>64.0</ele><time>2026-05-01T09:21:30Z</time></trkpt><trkpt lat="45.07260519334793" lon="9.149379255665119"><ele>64.0</ele><time>2026-05-01T09:21:31Z</time></trkpt><trkpt lat="45.07261378575658" lon="9.14954941150676"><ele>64.0</ele><time>2026-05-01T09:21:33Z</time></trkpt><trkpt lat="45.07262855635407" lon="9.149717101998396"><ele>64.0</ele><time>2026-05-01T09:21:35Z</time></trkpt><trkpt lat="45.07263256376562" lon="9.14981085379074"><ele>64.2</ele><time>2026-05-01T09:21:36Z</time></trkpt><trkpt lat="45.07263183375536" lon="9.149913360207185"><ele>64.4</ele><time>2026-05-01T09:21:37Z</time></trkpt><trkpt lat="45.07263341700367" lon="9.150048806851187"><ele>64.6</ele><time>2026-05-01T09:21:38Z</time></trkpt><trkpt lat="45.072632173703695" lon="9.150198919765154"><ele>64.8</ele><time>2026-05-01T09:21:39Z</time></trkpt><trkpt lat="45.07262722035173" lon="9.15035479986596"><ele>65.0</ele><time>2026-05-01T09:21:40Z</time></trkpt><trkpt lat="45.072619013966765" lon="9.150518331893645"><ele>65.0</ele><time>2026-05-01T09:21:41Z</time></trkpt><trkpt lat="45.072600481432914" lon="9.150693769121464"><ele>65.0</ele><time>2026-05-01T09:21:42Z</time></trkpt><trkpt lat="45.072578333412054" lon="9.150869437048451"><ele>65.0</ele><time>2026-05-01T09:21:43Z</time></trkpt><trkpt lat="45.07255135865293" lon="9.151061554740078"><ele>65.0</ele><time>2026-05-01T09:21:44Z</time></trkpt><trkpt lat="45.07252269245017" lon="9.151254616673812"><ele>64.75</ele><time>2026-05-01T09:21:45Z</time></trkpt><trkpt lat="45.07249668520083" lon="9.151443170413637"><ele>64.5</ele><time>2026-05-01T09:21:46Z</time></trkpt><trkpt lat="45.072469589663534" lon="9.151642497914496"><ele>64.25</ele><time>2026-05-01T09:21:47Z</time></trkpt><trkpt lat="45.07244571900834" lon="9.151849127695773"><ele>64.0</ele><time>2026-05-01T09:21:48Z</time></trkpt><trkpt lat="45.072418862864005" lon="9.15205905331218"><ele>64.0</ele><time>2026-05-01T09:21:49Z</time></trkpt><trkpt lat="45.07238560418903" lon="9.152277385304814"><ele>64.0</ele><time>2026-05-01T09:21:50Z</time></trkpt><trkpt lat="45.07235820700283" lon="9.152498644921037"><ele>64.0</ele><time>2026-05-01T09:21:51Z</time></trkpt><trkpt lat="45.072329161449055" lon="9.152725787665178"><ele>63.666666666666664</ele><time>2026-05-01T09:21:52Z</time></trkpt><trkpt lat="45.07229960816828" lon="9.152954283057076"><ele>63.33333333333333</ele><time>2026-05-01T09:21:53Z</time></trkpt><trkpt lat="45.072267787034214" lon="9.153187618869072"><ele>63.0</ele><time>2026-05-01T09:21:54Z</time></trkpt><trkpt lat="45.07223433640713" lon="9.153414500059453"><ele>63.0</ele><time>2026-05-01T09:21:55Z</time></trkpt><trkpt lat="45.07220189304222" lon="9.153629263041802"><ele>63.0</ele><time>2026-05-01T09:21:56.001Z</time></trkpt><trkpt lat="45.07217323992009" lon="9.153849705642294"><ele>63.0</ele><time>2026-05-01T09:21:57.001Z</time></trkpt><trkpt lat="45.07214523481165" lon="9.154068757767737"><ele>63.0</ele><time>2026-05-01T09:21:58.001Z</time></trkpt><trkpt lat="45.07211247019577" lon="9.154285863366903"><ele>63.0</ele><time>2026-05-01T09:21:59.001Z</time></trkpt><trkpt lat="45.072082962266144" lon="9.154501187929323"><ele>63.0</ele><time>2026-05-01T09:22:00.001Z</time></trkpt><trkpt lat="45.07205470913177" lon="9.154718600725467"><ele>63.0</ele><time>2026-05-01T09:22:01.001Z</time></trkpt><trkpt lat="45.07202761052636" lon="9.154936269642773"><ele>63.0</ele><time>2026-05-01T09:22:02.001Z</time></trkpt><trkpt lat="45.07200083649273" lon="9.155150719879503"><ele>63.0</ele><time>2026-05-01T09:22:03.001Z</time></trkpt><trkpt lat="45.07197243259811" lon="9.155362983769452"><ele>63.0</ele><time>2026-05-01T09:22:04.001Z</time></trkpt><trkpt lat="45.07193680417272" lon="9.155584596283665"><ele>63.0</ele><time>2026-05-01T09:22:05.001Z</time></trkpt><trkpt lat="45.07190885511865" lon="9.15581033102593"><ele>63.0</ele><time>2026-05-01T09:22:06.001Z</time></trkpt><trkpt lat="45.07188446678014" lon="9.156040121489603"><ele>63.0</ele><time>2026-05-01T09:22:07.001Z</time></trkpt><trkpt lat="45.07185969446168" lon="9.15627729586826"><ele>63.0</ele><time>2026-05-01T09:22:08.001Z</time></trkpt><trkpt lat="45.07183804961156" lon="9.156515021009815"><ele>63.0</ele><time>2026-05-01T09:22:09.001Z</time></trkpt><trkpt lat="45.071813587756296" lon="9.156749793367947"><ele>63.0</ele><time>2026-05-01T09:22:10.001Z</time></trkpt><trkpt lat="45.07178886097208" lon="9.156969066491211"><ele>63.0</ele><time>2026-05-01T09:22:11.001Z</time></trkpt><trkpt lat="45.07175787353451" lon="9.157184861288735"><ele>63.0</ele><time>2026-05-01T09:22:12.001Z</time></trkpt><trkpt lat="45.07173328534138" lon="9.157396751876627"><ele>63.0</ele><time>2026-05-01T09:22:13.001Z</time></trkpt><trkpt lat="45.07170004173238" lon="9.157605343317545"><ele>63.0</ele><time>2026-05-01T09:22:14.001Z</time></trkpt><trkpt lat="45.07165862043625" lon="9.157795994304784"><ele>63.0</ele><time>2026-05-01T09:22:15.001Z</time></trkpt><trkpt lat="45.07160423277494" lon="9.157985520307165"><ele>63.0</ele><time>2026-05-01T09:22:16.001Z</time></trkpt><trkpt lat="45.07153082543201" lon="9.158174498548716"><ele>63.0</ele><time>2026-05-01T09:22:17.001Z</time></trkpt><trkpt lat="45.07145625128011" lon="9.158349953110607"><ele>63.0</ele><time>2026-05-01T09:22:18.001Z</time></trkpt><trkpt lat="45.071376664969335" lon="9.158540922778993"><ele>63.0</ele><time>2026-05-01T09:22:19.001Z</time></trkpt><trkpt lat="45.07130733437451" lon="9.158732632521922"><ele>63.0</ele><time>2026-05-01T09:22:20.001Z</time></trkpt><trkpt lat="45.071248668064634" lon="9.158933118846415"><ele>63.0</ele><time>2026-05-01T09:22:21.001Z</time></trkpt><trkpt lat="45.07119925051721" lon="9.159138687109419"><ele>63.0</ele><time>2026-05-01T09:22:22.001Z</time></trkpt><trkpt lat="45.07116424107902" lon="9.159354337094355"><ele>63.0</ele><time>2026-05-01T09:22:23.001Z</time></trkpt><trkpt lat="45.071141126723575" lon="9.159582101052905"><ele>63.0</ele><time>2026-05-01T09:22:24.001Z</time></trkpt><trkpt lat="45.071118383166095" lon="9.159811582743705"><ele>63.0</ele><time>2026-05-01T09:22:25.001Z</time></trkpt><trkpt lat="45.07107356080464" lon="9.160037850551694"><ele>63.33333333333333</ele><time>2026-05-01T09:22:26.001Z</time></trkpt><trkpt lat="45.07104305269311" lon="9.160265705501795"><ele>63.666666666666664</ele><time>2026-05-01T09:22:27.001Z</time></trkpt><trkpt lat="45.07102560634006" lon="9.16050209371798"><ele>64.0</ele><time>2026-05-01T09:22:28.001Z</time></trkpt><trkpt lat="45.07099560039652" lon="9.160729867123313"><ele>64.0</ele><time>2026-05-01T09:22:29.001Z</time></trkpt><trkpt lat="45.07096300358472" lon="9.160959374957569"><ele>64.0</ele><time>2026-05-01T09:22:30.001Z</time></trkpt><trkpt lat="45.07093360702317" lon="9.16118984298382"><ele>64.0</ele><time>2026-05-01T09:22:31.001Z</time></trkpt><trkpt lat="45.07090923804508" lon="9.161416359877066"><ele>64.0</ele><time>2026-05-01T09:22:32.001Z</time></trkpt><trkpt lat="45.07088993086892" lon="9.161630443499371"><ele>64.0</ele><time>2026-05-01T09:22:33.001Z</time></trkpt><trkpt lat="45.07087904810128" lon="9.161845963795885"><ele>64.0</ele><time>2026-05-01T09:22:34.001Z</time></trkpt><trkpt lat="45.070875059780995" lon="9.162067668993014"><ele>64.0</ele><time>2026-05-01T09:22:35.001Z</time></trkpt><trkpt lat="45.07087439088224" lon="9.162291762858747"><ele>64.0</ele><time>2026-05-01T09:22:36.001Z</time></trkpt><trkpt lat="45.07087666422688" lon="9.16250338600576"><ele>64.0</ele><time>2026-05-01T09:22:37.001Z</time></trkpt><trkpt lat="45.07087696524313" lon="9.162713948249824"><ele>64.0</ele><time>2026-05-01T09:22:38.001Z</time></trkpt><trkpt lat="45.07087576498308" lon="9.162924252096445"><ele>64.0</ele><time>2026-05-01T09:22:39.001Z</time></trkpt><trkpt lat="45.07087408873662" lon="9.163136730121392"><ele>64.0</ele><time>2026-05-01T09:22:40.001Z</time></trkpt><trkpt lat="45.07085773141469" lon="9.163345612696254"><ele>64.0</ele><time>2026-05-01T09:22:41.001Z</time></trkpt><trkpt lat="45.0708256714595" lon="9.163551559541961"><ele>64.0</ele><time>2026-05-01T09:22:42.001Z</time></trkpt><trkpt lat="45.070779632202566" lon="9.16375005824069"><ele>64.0</ele><time>2026-05-01T09:22:43.001Z</time></trkpt><trkpt lat="45.07071360209987" lon="9.16394123656046"><ele>64.0</ele><time>2026-05-01T09:22:44.001Z</time></trkpt><trkpt lat="45.070631020526676" lon="9.164119218004558"><ele>64.0</ele><time>2026-05-01T09:22:45.002Z</time></trkpt><trkpt lat="45.07053552482474" lon="9.164281695077682"><ele>64.0</ele><time>2026-05-01T09:22:46.002Z</time></trkpt><trkpt lat="45.07043361386651" lon="9.164435711608851"><ele>64.0</ele><time>2026-05-01T09:22:47.002Z</time></trkpt><trkpt lat="45.070334023578546" lon="9.16458867792336"><ele>64.0</ele><time>2026-05-01T09:22:48.002Z</time></trkpt><trkpt lat="45.07023947205983" lon="9.164743073187802"><ele>64.0</ele><time>2026-05-01T09:22:49.002Z</time></trkpt><trkpt lat="45.0701516731112" lon="9.164892198487811"><ele>64.0</ele><time>2026-05-01T09:22:50.002Z</time></trkpt><trkpt lat="45.07006479647168" lon="9.165043279294002"><ele>64.0</ele><time>2026-05-01T09:22:51.002Z</time></trkpt><trkpt lat="45.069963852943744" lon="9.165175983738223"><ele>64.0</ele><time>2026-05-01T09:22:52.002Z</time></trkpt><trkpt lat="45.06987167129862" lon="9.165323762219522"><ele>64.0</ele><time>2026-05-01T09:22:53.002Z</time></trkpt><trkpt lat="45.069779672090846" lon="9.165471243795421"><ele>64.0</ele><time>2026-05-01T09:22:54.002Z</time></trkpt><trkpt lat="45.06970085101852" lon="9.165642155460882"><ele>64.0</ele><time>2026-05-01T09:22:55.002Z</time></trkpt><trkpt lat="45.06960350500648" lon="9.165792961005831"><ele>64.0</ele><time>2026-05-01T09:22:56.002Z</time></trkpt><trkpt lat="45.0695077971132" lon="9.165947706822996"><ele>64.0</ele><time>2026-05-01T09:22:57.002Z</time></trkpt><trkpt lat="45.06941645519066" lon="9.166105172661394"><ele>64.0</ele><time>2026-05-01T09:22:58.002Z</time></trkpt><trkpt lat="45.06932375902551" lon="9.166258350611344"><ele>64.0</ele><time>2026-05-01T09:22:59.002Z</time></trkpt><trkpt lat="45.0692337882975" lon="9.166413389733947"><ele>64.0</ele><time>2026-05-01T09:23:00.002Z</time></trkpt><trkpt lat="45.06914630928424" lon="9.166565078345377"><ele>64.0</ele><time>2026-05-01T09:23:01.002Z</time></trkpt><trkpt lat="45.0690604744557" lon="9.166715492687116"><ele>64.5</ele><time>2026-05-01T09:23:02.002Z</time></trkpt><trkpt lat="45.06897067850166" lon="9.166857377614754"><ele>65.0</ele><time>2026-05-01T09:23:03.002Z</time></trkpt><trkpt lat="45.06888561565847" lon="9.166996350699552"><ele>65.5</ele><time>2026-05-01T09:23:04.002Z</time></trkpt><trkpt lat="45.06879676636504" lon="9.167121448888965"><ele>66.0</ele><time>2026-05-01T09:23:05.002Z</time></trkpt><trkpt lat="45.06871941237762" lon="9.167244739052636"><ele>66.0</ele><time>2026-05-01T09:23:06.002Z</time></trkpt><trkpt lat="45.06865290992753" lon="9.167352298649362"><ele>66.0</ele><time>2026-05-01T09:23:07.002Z</time></trkpt><trkpt lat="45.06859007831969" lon="9.167450017479274"><ele>66.0</ele><time>2026-05-01T09:23:08.002Z</time></trkpt><trkpt lat="45.068537525660986" lon="9.167524508651727"><ele>66.0</ele><time>2026-05-01T09:23:09.002Z</time></trkpt><trkpt lat="45.068479827553865" lon="9.167625470342207"><ele>66.0</ele><time>2026-05-01T09:23:10.999Z</time></trkpt><trkpt lat="45.068407300955734" lon="9.167735983605485"><ele>66.0</ele><time>2026-05-01T09:23:34Z</time></trkpt><trkpt lat="45.06836804686663" lon="9.167818411896889"><ele>66.0</ele><time>2026-05-01T09:23:35Z</time></trkpt><trkpt lat="45.06833799666889" lon="9.16789939057091"><ele>66.0</ele><time>2026-05-01T09:23:36Z</time></trkpt><trkpt lat="45.06829399314007" lon="9.168003026085472"><ele>66.0</ele><time>2026-05-01T09:23:38Z</time></trkpt><trkpt lat="45.06812988300923" lon="9.167960499056528"><ele>66.0</ele><time>2026-05-01T09:23:40Z</time></trkpt><trkpt lat="45.068058162156255" lon="9.167905442300004"><ele>66.0</ele><time>2026-05-01T09:23:41Z</time></trkpt><trkpt lat="45.06797641282734" lon="9.167847594218568"><ele>66.0</ele><time>2026-05-01T09:23:42Z</time></trkpt><trkpt lat="45.067886203280466" lon="9.16778930024176"><ele>66.0</ele><time>2026-05-01T09:23:43Z</time></trkpt><trkpt lat="45.06779986032802" lon="9.167745498724727"><ele>66.0</ele><time>2026-05-01T09:23:44Z</time></trkpt><trkpt lat="45.067717901948114" lon="9.167702951658748"><ele>66.0</ele><time>2026-05-01T09:23:45Z</time></trkpt><trkpt lat="45.067623385069226" lon="9.167648455172788"><ele>66.0</ele><time>2026-05-01T09:23:46Z</time></trkpt><trkpt lat="45.06751615003448" lon="9.167585266670846"><ele>66.0</ele><time>2026-05-01T09:23:47Z</time></trkpt><trkpt lat="45.0674172103349" lon="9.16753420335471"><ele>66.0</ele><time>2026-05-01T09:23:48Z</time></trkpt><trkpt lat="45.06730559011417" lon="9.167473205052334"><ele>66.0</ele><time>2026-05-01T09:23:49Z</time></trkpt><trkpt lat="45.06719104739703" lon="9.167411287114344"><ele>66.25</ele><time>2026-05-01T09:23:50Z</time></trkpt><trkpt lat="45.0670727154392" lon="9.167346650745332"><ele>66.5</ele><time>2026-05-01T09:23:51Z</time></trkpt><trkpt lat="45.06695381886269" lon="9.167272384900413"><ele>66.75</ele><time>2026-05-01T09:23:52Z</time></trkpt><trkpt lat="45.06683322997228" lon="9.167200046929649"><ele>67.0</ele><time>2026-05-01T09:23:53Z</time></trkpt><trkpt lat="45.066713989235325" lon="9.16713557327514"><ele>67.0</ele><time>2026-05-01T09:23:54Z</time></trkpt><trkpt lat="45.06659605461449" lon="9.167071601489015"><ele>67.0</ele><time>2026-05-01T09:23:55Z</time></trkpt><trkpt lat="45.06647777520913" lon="9.167012901621971"><ele>67.0</ele><time>2026-05-01T09:23:56Z</time></trkpt><trkpt lat="45.06636549093947" lon="9.166959345645699"><ele>67.0</ele><time>2026-05-01T09:23:57Z</time></trkpt><trkpt lat="45.066253457908736" lon="9.166896871150719"><ele>67.0</ele><time>2026-05-01T09:23:58.001Z</time></trkpt><trkpt lat="45.066147387067" lon="9.166831159777805"><ele>67.0</ele><time>2026-05-01T09:23:59.001Z</time></trkpt><trkpt lat="45.066047641127994" lon="9.166772622441009"><ele>67.0</ele><time>2026-05-01T09:24:00.001Z</time></trkpt><trkpt lat="45.06594905559246" lon="9.166716428979866"><ele>67.0</ele><time>2026-05-01T09:24:01.001Z</time></trkpt><trkpt lat="45.06584509848845" lon="9.166645634716708"><ele>67.0</ele><time>2026-05-01T09:24:02.001Z</time></trkpt><trkpt lat="45.0657400121296" lon="9.166575625876735"><ele>67.0</ele><time>2026-05-01T09:24:03.001Z</time></trkpt><trkpt lat="45.06563249770293" lon="9.166503078384656"><ele>67.0</ele><time>2026-05-01T09:24:04.001Z</time></trkpt><trkpt lat="45.065525823062806" lon="9.166432306034482"><ele>67.0</ele><time>2026-05-01T09:24:05.001Z</time></trkpt><trkpt lat="45.06540997187001" lon="9.166372990191768"><ele>67.0</ele><time>2026-05-01T09:24:06.001Z</time></trkpt><trkpt lat="45.065294301270306" lon="9.166312372105303"><ele>67.0</ele><time>2026-05-01T09:24:07.001Z</time></trkpt><trkpt lat="45.0651639117394" lon="9.166244384505985"><ele>67.0</ele><time>2026-05-01T09:24:08.001Z</time></trkpt><trkpt lat="45.065010490459265" lon="9.16616669466302"><ele>67.0</ele><time>2026-05-01T09:24:09.001Z</time></trkpt><trkpt lat="45.06485509671505" lon="9.166092644337947"><ele>66.66666666666666</ele><time>2026-05-01T09:24:10.001Z</time></trkpt><trkpt lat="45.06470636917239" lon="9.16602423151922"><ele>66.33333333333333</ele><time>2026-05-01T09:24:11.001Z</time></trkpt><trkpt lat="45.06455348470291" lon="9.165954891374158"><ele>66.0</ele><time>2026-05-01T09:24:12.001Z</time></trkpt><trkpt lat="45.06438808545847" lon="9.165879155423125"><ele>66.0</ele><time>2026-05-01T09:24:13.001Z</time></trkpt><trkpt lat="45.06422205089093" lon="9.165797363149228"><ele>66.0</ele><time>2026-05-01T09:24:14.001Z</time></trkpt><trkpt lat="45.06405181383488" lon="9.165727993139297"><ele>66.0</ele><time>2026-05-01T09:24:15.001Z</time></trkpt><trkpt lat="45.063878591949134" lon="9.165654716912375"><ele>66.33333333333333</ele><time>2026-05-01T09:24:16.001Z</time></trkpt><trkpt lat="45.06370308126513" lon="9.165583782022983"><ele>66.66666666666666</ele><time>2026-05-01T09:24:17.001Z</time></trkpt><trkpt lat="45.06352302032769" lon="9.16551160688016"><ele>67.0</ele><time>2026-05-01T09:24:18.001Z</time></trkpt><trkpt lat="45.06334846014231" lon="9.165440819489554"><ele>67.0</ele><time>2026-05-01T09:24:19.001Z</time></trkpt><trkpt lat="45.06318351554371" lon="9.165382415111504"><ele>67.0</ele><time>2026-05-01T09:24:20.001Z</time></trkpt><trkpt lat="45.06301311855219" lon="9.165325080318155"><ele>67.0</ele><time>2026-05-01T09:24:21.001Z</time></trkpt><trkpt lat="45.06284532199355" lon="9.165267481751693"><ele>67.0</ele><time>2026-05-01T09:24:22.001Z</time></trkpt><trkpt lat="45.06268595323785" lon="9.165214725097258"><ele>67.0</ele><time>2026-05-01T09:24:23.001Z</time></trkpt><trkpt lat="45.06252905732185" lon="9.165163494835387"><ele>67.0</ele><time>2026-05-01T09:24:24.001Z</time></trkpt><trkpt lat="45.06237396730836" lon="9.165115589108316"><ele>66.75</ele><time>2026-05-01T09:24:25.001Z</time></trkpt><trkpt lat="45.062225734466516" lon="9.165076502247139"><ele>66.5</ele><time>2026-05-01T09:24:26.001Z</time></trkpt><trkpt lat="45.06208691414016" lon="9.165045306125206"><ele>66.25</ele><time>2026-05-01T09:24:27.001Z</time></trkpt><trkpt lat="45.06195697249768" lon="9.165031613310568"><ele>66.0</ele><time>2026-05-01T09:24:28.001Z</time></trkpt><trkpt lat="45.06183323610246" lon="9.165001910108636"><ele>66.0</ele><time>2026-05-01T09:24:29.001Z</time></trkpt><trkpt lat="45.06171618807064" lon="9.16503352029115"><ele>66.0</ele><time>2026-05-01T09:24:30.001Z</time></trkpt><trkpt lat="45.06159541937653" lon="9.165041978875827"><ele>66.0</ele><time>2026-05-01T09:24:31.001Z</time></trkpt><trkpt lat="45.061478516433425" lon="9.165048769086178"><ele>66.0</ele><time>2026-05-01T09:24:32.001Z</time></trkpt><trkpt lat="45.06135844744597" lon="9.165059550018137"><ele>66.25</ele><time>2026-05-01T09:24:33.001Z</time></trkpt><trkpt lat="45.06123006998477" lon="9.165066441460016"><ele>66.5</ele><time>2026-05-01T09:24:34.001Z</time></trkpt><trkpt lat="45.061095689919235" lon="9.165066524826013"><ele>66.75</ele><time>2026-05-01T09:24:35.001Z</time></trkpt><trkpt lat="45.06095997286596" lon="9.165052307454667"><ele>67.0</ele><time>2026-05-01T09:24:36.001Z</time></trkpt><trkpt lat="45.0608204150914" lon="9.165011759500139"><ele>67.0</ele><time>2026-05-01T09:24:37.001Z</time></trkpt><trkpt lat="45.06068277783318" lon="9.164930499452565"><ele>67.0</ele><time>2026-05-01T09:24:38.001Z</time></trkpt><trkpt lat="45.060550139507995" lon="9.164846861872293"><ele>67.0</ele><time>2026-05-01T09:24:39.001Z</time></trkpt><trkpt lat="45.06042908838769" lon="9.164780236188795"><ele>67.0</ele><time>2026-05-01T09:24:40.001Z</time></trkpt><trkpt lat="45.060290054714905" lon="9.164724033604562"><ele>67.0</ele><time>2026-05-01T09:24:41.002Z</time></trkpt><trkpt lat="45.06015696896124" lon="9.164683779501019"><ele>67.0</ele><time>2026-05-01T09:24:42.002Z</time></trkpt><trkpt lat="45.06002039450322" lon="9.164666822358646"><ele>67.0</ele><time>2026-05-01T09:24:43.002Z</time></trkpt><trkpt lat="45.059884859447045" lon="9.164674540828942"><ele>67.0</ele><time>2026-05-01T09:24:44.002Z</time></trkpt><trkpt lat="45.05973819885534" lon="9.16468519356363"><ele>67.0</ele><time>2026-05-01T09:24:45.002Z</time></trkpt><trkpt lat="45.05960190879447" lon="9.164675110307655"><ele>67.0</ele><time>2026-05-01T09:24:46.002Z</time></trkpt><trkpt lat="45.059464317465704" lon="9.164661611559321"><ele>67.0</ele><time>2026-05-01T09:24:47.002Z</time></trkpt><trkpt lat="45.059338690807415" lon="9.164644549881228"><ele>67.0</ele><time>2026-05-01T09:24:48.002Z</time></trkpt><trkpt lat="45.05920930039361" lon="9.164621094645181"><ele>66.75</ele><time>2026-05-01T09:24:49.002Z</time></trkpt><trkpt lat="45.059076263802474" lon="9.16459170727331"><ele>66.5</ele><time>2026-05-01T09:24:50.002Z</time></trkpt><trkpt lat="45.05894117803003" lon="9.164561487838231"><ele>66.25</ele><time>2026-05-01T09:24:51.002Z</time></trkpt><trkpt lat="45.05880539088652" lon="9.164526509654381"><ele>66.0</ele><time>2026-05-01T09:24:52.002Z</time></trkpt><trkpt lat="45.05865106070153" lon="9.164496931938263"><ele>66.0</ele><time>2026-05-01T09:24:53.002Z</time></trkpt><trkpt lat="45.05849366441857" lon="9.164459399146894"><ele>66.0</ele><time>2026-05-01T09:24:54.002Z</time></trkpt><trkpt lat="45.058336238174746" lon="9.164414299558237"><ele>66.0</ele><time>2026-05-01T09:24:55.002Z</time></trkpt><trkpt lat="45.0581766682622" lon="9.164370641508532"><ele>66.66666666666667</ele><time>2026-05-01T09:24:56.002Z</time></trkpt><trkpt lat="45.058011809067835" lon="9.164321035987962"><ele>67.33333333333334</ele><time>2026-05-01T09:24:57.002Z</time></trkpt><trkpt lat="45.05784431178732" lon="9.164266841020979"><ele>68.0</ele><time>2026-05-01T09:24:58.002Z</time></trkpt><trkpt lat="45.057678698917016" lon="9.164215087937325"><ele>68.0</ele><time>2026-05-01T09:24:59.002Z</time></trkpt><trkpt lat="45.05751101261717" lon="9.164166204541043"><ele>68.0</ele><time>2026-05-01T09:25:00.002Z</time></trkpt><trkpt lat="45.05734844007663" lon="9.16411678406143"><ele>68.0</ele><time>2026-05-01T09:25:01.002Z</time></trkpt><trkpt lat="45.05719513604622" lon="9.164068320030166"><ele>67.66666666666667</ele><time>2026-05-01T09:25:02.002Z</time></trkpt><trkpt lat="45.05703807482412" lon="9.16402044656678"><ele>67.33333333333333</ele><time>2026-05-01T09:25:03.002Z</time></trkpt><trkpt lat="45.05688764486134" lon="9.163972181647987"><ele>67.0</ele><time>2026-05-01T09:25:04.002Z</time></trkpt><trkpt lat="45.05674778853985" lon="9.163924222945223"><ele>67.5</ele><time>2026-05-01T09:25:05.002Z</time></trkpt><trkpt lat="45.056619226425475" lon="9.163877698940073"><ele>68.0</ele><time>2026-05-01T09:25:06.002Z</time></trkpt><trkpt lat="45.05650221704923" lon="9.163828193214446"><ele>68.5</ele><time>2026-05-01T09:25:07.002Z</time></trkpt><trkpt lat="45.05639458640776" lon="9.16378076584455"><ele>69.0</ele><time>2026-05-01T09:25:08.002Z</time></trkpt><trkpt lat="45.05629405863546" lon="9.163739614019903"><ele>69.0</ele><time>2026-05-01T09:25:09.002Z</time></trkpt><trkpt lat="45.056197508259565" lon="9.163699493648467"><ele>69.0</ele><time>2026-05-01T09:25:10.002Z</time></trkpt><trkpt lat="45.056106851257944" lon="9.163657714051423"><ele>69.0</ele><time>2026-05-01T09:25:11.002Z</time></trkpt><trkpt lat="45.056014237360074" lon="9.163609614622859"><ele>69.0</ele><time>2026-05-01T09:25:12.002Z</time></trkpt><trkpt lat="45.055923175896574" lon="9.163560915185844"><ele>69.0</ele><time>2026-05-01T09:25:13.002Z</time></trkpt><trkpt lat="45.055829339327936" lon="9.163510860812636"><ele>69.25</ele><time>2026-05-01T09:25:14.002Z</time></trkpt><trkpt lat="45.055730674544144" lon="9.16345562528818"><ele>69.5</ele><time>2026-05-01T09:25:15.002Z</time></trkpt><trkpt lat="45.0556204815936" lon="9.16340113774505"><ele>69.75</ele><time>2026-05-01T09:25:16.002Z</time></trkpt><trkpt lat="45.05550082280428" lon="9.163346861622776"><ele>70.0</ele><time>2026-05-01T09:25:17Z</time></trkpt><trkpt lat="45.05537293137446" lon="9.163293644440136"><ele>70.0</ele><time>2026-05-01T09:25:18Z</time></trkpt><trkpt lat="45.05524397017765" lon="9.163226392203747"><ele>70.0</ele><time>2026-05-01T09:25:19Z</time></trkpt><trkpt lat="45.055112114436014" lon="9.163174320369459"><ele>70.0</ele><time>2026-05-01T09:25:20Z</time></trkpt><trkpt lat="45.05497869118683" lon="9.1631304240506"><ele>70.0</ele><time>2026-05-01T09:25:21Z</time></trkpt><trkpt lat="45.05484599583936" lon="9.163081937138609"><ele>69.5</ele><time>2026-05-01T09:25:22Z</time></trkpt><trkpt lat="45.054715105361815" lon="9.163032874546401"><ele>69.0</ele><time>2026-05-01T09:25:23Z</time></trkpt><trkpt lat="45.05459063173492" lon="9.16297962002841"><ele>68.5</ele><time>2026-05-01T09:25:24Z</time></trkpt><trkpt lat="45.054461087449916" lon="9.162933878418352"><ele>68.0</ele><time>2026-05-01T09:25:25Z</time></trkpt><trkpt lat="45.0543339564137" lon="9.162891124151553"><ele>68.0</ele><time>2026-05-01T09:25:26Z</time></trkpt><trkpt lat="45.05421889946339" lon="9.162849633194996"><ele>68.0</ele><time>2026-05-01T09:25:27Z</time></trkpt><trkpt lat="45.054103807594636" lon="9.162814556559772"><ele>68.0</ele><time>2026-05-01T09:25:28Z</time></trkpt><trkpt lat="45.053997532619285" lon="9.162776461702347"><ele>68.0</ele><time>2026-05-01T09:25:29Z</time></trkpt><trkpt lat="45.05390847368596" lon="9.162756830582392"><ele>68.0</ele><time>2026-05-01T09:25:30Z</time></trkpt><trkpt lat="45.05383105167467" lon="9.162750911702876"><ele>68.0</ele><time>2026-05-01T09:25:31Z</time></trkpt><trkpt lat="45.05375711599873" lon="9.162777014988084"><ele>68.0</ele><time>2026-05-01T09:25:32Z</time></trkpt><trkpt lat="45.05368884398957" lon="9.162841901485528"><ele>68.0</ele><time>2026-05-01T09:25:33Z</time></trkpt><trkpt lat="45.05363786834484" lon="9.162953832736047"><ele>68.0</ele><time>2026-05-01T09:25:34Z</time></trkpt><trkpt lat="45.053581659454785" lon="9.163028601500939"><ele>68.0</ele><time>2026-05-01T09:25:35Z</time></trkpt><trkpt lat="45.05350941452534" lon="9.163066847901652"><ele>68.0</ele><time>2026-05-01T09:25:36Z</time></trkpt><trkpt lat="45.05342443986213" lon="9.163074970990452"><ele>68.0</ele><time>2026-05-01T09:25:37Z</time></trkpt><trkpt lat="45.05332931751613" lon="9.163048039791645"><ele>68.0</ele><time>2026-05-01T09:25:38Z</time></trkpt><trkpt lat="45.053231312383396" lon="9.162994773273795"><ele>68.0</ele><time>2026-05-01T09:25:39Z</time></trkpt><trkpt lat="45.0531191575635" lon="9.162925296314475"><ele>68.0</ele><time>2026-05-01T09:25:40Z</time></trkpt><trkpt lat="45.05299420141002" lon="9.162855992939955"><ele>67.75</ele><time>2026-05-01T09:25:41Z</time></trkpt><trkpt lat="45.05286392034909" lon="9.162782762572833"><ele>67.5</ele><time>2026-05-01T09:25:42Z</time></trkpt><trkpt lat="45.052728133081835" lon="9.162700677111575"><ele>67.25</ele><time>2026-05-01T09:25:43Z</time></trkpt><trkpt lat="45.05258841663524" lon="9.16261545289783"><ele>67.0</ele><time>2026-05-01T09:25:44Z</time></trkpt><trkpt lat="45.0524558891982" lon="9.162534599477116"><ele>66.75</ele><time>2026-05-01T09:25:45Z</time></trkpt><trkpt lat="45.052323109241854" lon="9.16246310378379"><ele>66.5</ele><time>2026-05-01T09:25:46Z</time></trkpt><trkpt lat="45.052186411124815" lon="9.162386343749631"><ele>66.25</ele><time>2026-05-01T09:25:47Z</time></trkpt><trkpt lat="45.05205211757369" lon="9.162308496060865"><ele>66.0</ele><time>2026-05-01T09:25:48Z</time></trkpt><trkpt lat="45.05191831369552" lon="9.162232667331585"><ele>66.5</ele><time>2026-05-01T09:25:49Z</time></trkpt><trkpt lat="45.05178451542461" lon="9.162159015303487"><ele>67.0</ele><time>2026-05-01T09:25:50Z</time></trkpt><trkpt lat="45.051649483971566" lon="9.16207814915374"><ele>67.5</ele><time>2026-05-01T09:25:51Z</time></trkpt><trkpt lat="45.051514972431534" lon="9.161998122253818"><ele>68.0</ele><time>2026-05-01T09:25:52Z</time></trkpt><trkpt lat="45.05137864438428" lon="9.161920340235213"><ele>68.0</ele><time>2026-05-01T09:25:53Z</time></trkpt><trkpt lat="45.0512415985757" lon="9.161842155195899"><ele>68.0</ele><time>2026-05-01T09:25:54Z</time></trkpt><trkpt lat="45.0511050337329" lon="9.161758562710707"><ele>68.0</ele><time>2026-05-01T09:25:55Z</time></trkpt><trkpt lat="45.05097234531672" lon="9.161674782644768"><ele>68.0</ele><time>2026-05-01T09:25:56Z</time></trkpt><trkpt lat="45.050841141026126" lon="9.161596212937306"><ele>68.75</ele><time>2026-05-01T09:25:57Z</time></trkpt><trkpt lat="45.05070915468078" lon="9.161526154735377"><ele>69.5</ele><time>2026-05-01T09:25:58Z</time></trkpt><trkpt lat="45.05057700170035" lon="9.161455036550652"><ele>70.25</ele><time>2026-05-01T09:25:59Z</time></trkpt><trkpt lat="45.05043901898975" lon="9.161382344309542"><ele>71.0</ele><time>2026-05-01T09:26:00Z</time></trkpt><trkpt lat="45.050306483762355" lon="9.161316501264539"><ele>71.0</ele><time>2026-05-01T09:26:01Z</time></trkpt><trkpt lat="45.050185626998754" lon="9.161257146468943"><ele>71.0</ele><time>2026-05-01T09:26:02Z</time></trkpt><trkpt lat="45.050066085762964" lon="9.161199340942206"><ele>71.0</ele><time>2026-05-01T09:26:03.001Z</time></trkpt><trkpt lat="45.04994611718835" lon="9.161146636334893"><ele>71.0</ele><time>2026-05-01T09:26:04.001Z</time></trkpt><trkpt lat="45.04981972537073" lon="9.16109228938673"><ele>71.25</ele><time>2026-05-01T09:26:05.001Z</time></trkpt><trkpt lat="45.04969322948418" lon="9.161029148152808"><ele>71.5</ele><time>2026-05-01T09:26:06.001Z</time></trkpt><trkpt lat="45.049561336334634" lon="9.160964914751931"><ele>71.75</ele><time>2026-05-01T09:26:07.001Z</time></trkpt><trkpt lat="45.049421051710425" lon="9.160900107356785"><ele>72.0</ele><time>2026-05-01T09:26:08.001Z</time></trkpt><trkpt lat="45.04928016730593" lon="9.160832324104126"><ele>72.0</ele><time>2026-05-01T09:26:09.001Z</time></trkpt><trkpt lat="45.04914271830794" lon="9.160763330589242"><ele>72.0</ele><time>2026-05-01T09:26:10.001Z</time></trkpt><trkpt lat="45.04900160197989" lon="9.160698852994658"><ele>72.0</ele><time>2026-05-01T09:26:11.001Z</time></trkpt><trkpt lat="45.04887096448453" lon="9.160639606573195"><ele>72.0</ele><time>2026-05-01T09:26:12.001Z</time></trkpt><trkpt lat="45.04874413577281" lon="9.160588323231362"><ele>71.25</ele><time>2026-05-01T09:26:13.001Z</time></trkpt><trkpt lat="45.0486198145129" lon="9.160550718909379"><ele>70.5</ele><time>2026-05-01T09:26:14.001Z</time></trkpt><trkpt lat="45.048490862992445" lon="9.160530300412756"><ele>69.75</ele><time>2026-05-01T09:26:15.001Z</time></trkpt><trkpt lat="45.04835511029621" lon="9.160533851278249"><ele>69.0</ele><time>2026-05-01T09:26:16.001Z</time></trkpt><trkpt lat="45.048214078626465" lon="9.160547990930251"><ele>69.0</ele><time>2026-05-01T09:26:17.001Z</time></trkpt><trkpt lat="45.04807324592734" lon="9.16055554857156"><ele>69.0</ele><time>2026-05-01T09:26:18.001Z</time></trkpt><trkpt lat="45.047936884307646" lon="9.16055818556097"><ele>69.0</ele><time>2026-05-01T09:26:19.001Z</time></trkpt><trkpt lat="45.04780530320034" lon="9.160554953830765"><ele>69.0</ele><time>2026-05-01T09:26:20.001Z</time></trkpt><trkpt lat="45.04767394672665" lon="9.160548308454922"><ele>69.0</ele><time>2026-05-01T09:26:21.001Z</time></trkpt><trkpt lat="45.047557539162824" lon="9.160532951789868"><ele>69.0</ele><time>2026-05-01T09:26:22.001Z</time></trkpt><trkpt lat="45.04743686031539" lon="9.160495032231518"><ele>69.0</ele><time>2026-05-01T09:26:23.001Z</time></trkpt><trkpt lat="45.04732165284534" lon="9.160434740594903"><ele>69.0</ele><time>2026-05-01T09:26:24.001Z</time></trkpt><trkpt lat="45.04721432990876" lon="9.160351086416295"><ele>69.75</ele><time>2026-05-01T09:26:25.001Z</time></trkpt><trkpt lat="45.04710422956306" lon="9.160263718902007"><ele>70.5</ele><time>2026-05-01T09:26:26.001Z</time></trkpt><trkpt lat="45.04699004421331" lon="9.160178503864964"><ele>71.25</ele><time>2026-05-01T09:26:27.001Z</time></trkpt><trkpt lat="45.0468753382462" lon="9.160100926312566"><ele>72.0</ele><time>2026-05-01T09:26:28.001Z</time></trkpt><trkpt lat="45.04676084254747" lon="9.160020182277947"><ele>72.0</ele><time>2026-05-01T09:26:29.001Z</time></trkpt><trkpt lat="45.04663479211739" lon="9.159925506164724"><ele>72.0</ele><time>2026-05-01T09:26:30.001Z</time></trkpt><trkpt lat="45.04649841993881" lon="9.159819748901526"><ele>72.0</ele><time>2026-05-01T09:26:31.001Z</time></trkpt><trkpt lat="45.04637024151824" lon="9.159722271106647"><ele>72.0</ele><time>2026-05-01T09:26:32.001Z</time></trkpt><trkpt lat="45.04625601054659" lon="9.159649565055194"><ele>72.0</ele><time>2026-05-01T09:26:33.001Z</time></trkpt><trkpt lat="45.046143051071525" lon="9.159600893083924"><ele>72.0</ele><time>2026-05-01T09:26:34.001Z</time></trkpt><trkpt lat="45.04602878638192" lon="9.159583088331244"><ele>72.0</ele><time>2026-05-01T09:26:35.001Z</time></trkpt><trkpt lat="45.045907918606005" lon="9.159606286354931"><ele>72.0</ele><time>2026-05-01T09:26:36.001Z</time></trkpt><trkpt lat="45.045790717416295" lon="9.15965797401039"><ele>72.0</ele><time>2026-05-01T09:26:37.001Z</time></trkpt><trkpt lat="45.04566157967791" lon="9.159718425957035"><ele>72.0</ele><time>2026-05-01T09:26:38.001Z</time></trkpt><trkpt lat="45.045543339308345" lon="9.159813837365055"><ele>72.0</ele><time>2026-05-01T09:26:39.001Z</time></trkpt><trkpt lat="45.04541479543067" lon="9.159887911725127"><ele>72.0</ele><time>2026-05-01T09:26:40.001Z</time></trkpt><trkpt lat="45.045287847410826" lon="9.159959883204198"><ele>72.0</ele><time>2026-05-01T09:26:41.001Z</time></trkpt><trkpt lat="45.045163775428826" lon="9.160031202200763"><ele>72.0</ele><time>2026-05-01T09:26:42.001Z</time></trkpt><trkpt lat="45.045040268076136" lon="9.160096193207606"><ele>72.0</ele><time>2026-05-01T09:26:43.001Z</time></trkpt><trkpt lat="45.04491789571421" lon="9.16013500965063"><ele>72.0</ele><time>2026-05-01T09:26:44.001Z</time></trkpt><trkpt lat="45.04479116602491" lon="9.160138339355461"><ele>72.0</ele><time>2026-05-01T09:26:45.001Z</time></trkpt><trkpt lat="45.04466211469648" lon="9.160111943880445"><ele>72.0</ele><time>2026-05-01T09:26:46.001Z</time></trkpt><trkpt lat="45.04453694467178" lon="9.16005210926342"><ele>72.0</ele><time>2026-05-01T09:26:47.001Z</time></trkpt><trkpt lat="45.044412392505514" lon="9.159960164290341"><ele>72.0</ele><time>2026-05-01T09:26:48.002Z</time></trkpt><trkpt lat="45.04428487107957" lon="9.15985115147937"><ele>72.0</ele><time>2026-05-01T09:26:49.002Z</time></trkpt><trkpt lat="45.044155038322096" lon="9.159738237057452"><ele>72.0</ele><time>2026-05-01T09:26:50.002Z</time></trkpt><trkpt lat="45.04402871700435" lon="9.15963068888797"><ele>72.0</ele><time>2026-05-01T09:26:51.002Z</time></trkpt><trkpt lat="45.04390816703465" lon="9.159538468923897"><ele>72.0</ele><time>2026-05-01T09:26:52.002Z</time></trkpt><trkpt lat="45.04378270057873" lon="9.159458468071758"><ele>72.0</ele><time>2026-05-01T09:26:53.002Z</time></trkpt><trkpt lat="45.04364908981352" lon="9.159382782077442"><ele>72.0</ele><time>2026-05-01T09:26:54.002Z</time></trkpt><trkpt lat="45.04350729352537" lon="9.159326763200474"><ele>72.0</ele><time>2026-05-01T09:26:55.002Z</time></trkpt><trkpt lat="45.04335955549877" lon="9.15928018733436"><ele>72.0</ele><time>2026-05-01T09:26:56.002Z</time></trkpt><trkpt lat="45.043207684662285" lon="9.159236030083864"><ele>72.0</ele><time>2026-05-01T09:26:57.002Z</time></trkpt><trkpt lat="45.0430510055912" lon="9.159187666745368"><ele>72.0</ele><time>2026-05-01T09:26:58.002Z</time></trkpt><trkpt lat="45.042891618822814" lon="9.159141663195577"><ele>72.0</ele><time>2026-05-01T09:26:59.002Z</time></trkpt><trkpt lat="45.042731442088105" lon="9.159099967839396"><ele>72.0</ele><time>2026-05-01T09:27:00.002Z</time></trkpt><trkpt lat="45.04256746630929" lon="9.159061691526835"><ele>72.0</ele><time>2026-05-01T09:27:01.002Z</time></trkpt><trkpt lat="45.04240320393178" lon="9.159028286659987"><ele>72.0</ele><time>2026-05-01T09:27:02.002Z</time></trkpt><trkpt lat="45.04223742062337" lon="9.159004845284418"><ele>71.33333333333333</ele><time>2026-05-01T09:27:03.002Z</time></trkpt><trkpt lat="45.04206787193555" lon="9.15899091860004"><ele>70.66666666666666</ele><time>2026-05-01T09:27:04.002Z</time></trkpt><trkpt lat="45.04189632589996" lon="9.158988998822217"><ele>70.0</ele><time>2026-05-01T09:27:05.002Z</time></trkpt><trkpt lat="45.04172593961665" lon="9.158995411995106"><ele>70.33333333333333</ele><time>2026-05-01T09:27:06.002Z</time></trkpt><trkpt lat="45.041553882452284" lon="9.159008123287192"><ele>70.66666666666667</ele><time>2026-05-01T09:27:07.002Z</time></trkpt><trkpt lat="45.04138124231461" lon="9.159029775219636"><ele>71.0</ele><time>2026-05-01T09:27:08.002Z</time></trkpt><trkpt lat="45.04121404033814" lon="9.159057602442239"><ele>70.75</ele><time>2026-05-01T09:27:09.002Z</time></trkpt><trkpt lat="45.04105452883582" lon="9.159084473306244"><ele>70.5</ele><time>2026-05-01T09:27:10.002Z</time></trkpt><trkpt lat="45.040908868498306" lon="9.159100276622505"><ele>70.25</ele><time>2026-05-01T09:27:11.002Z</time></trkpt><trkpt lat="45.04077565716517" lon="9.159106166231446"><ele>70.0</ele><time>2026-05-01T09:27:12.002Z</time></trkpt><trkpt lat="45.04063980540615" lon="9.159106587379112"><ele>70.0</ele><time>2026-05-01T09:27:13.002Z</time></trkpt><trkpt lat="45.04049943686392" lon="9.159091649620551"><ele>70.0</ele><time>2026-05-01T09:27:14.002Z</time></trkpt><trkpt lat="45.040357565220525" lon="9.159054938894405"><ele>70.0</ele><time>2026-05-01T09:27:15.002Z</time></trkpt><trkpt lat="45.040210281114184" lon="9.159013509850878"><ele>70.0</ele><time>2026-05-01T09:27:16.002Z</time></trkpt><trkpt lat="45.04006272402164" lon="9.158964924144971"><ele>70.33333333333333</ele><time>2026-05-01T09:27:17.002Z</time></trkpt><trkpt lat="45.03991569023622" lon="9.158906943249434"><ele>70.66666666666667</ele><time>2026-05-01T09:27:18.002Z</time></trkpt><trkpt lat="45.03977435732069" lon="9.158837999264994"><ele>71.0</ele><time>2026-05-01T09:27:19.002Z</time></trkpt><trkpt lat="45.039636012675274" lon="9.158758023106051"><ele>71.0</ele><time>2026-05-01T09:27:20.002Z</time></trkpt><trkpt lat="45.0395131215686" lon="9.158670504377415"><ele>71.0</ele><time>2026-05-01T09:27:21.002Z</time></trkpt><trkpt lat="45.03939937306926" lon="9.158585573560789"><ele>71.0</ele><time>2026-05-01T09:27:22.002Z</time></trkpt><trkpt lat="45.03929551501449" lon="9.158511285627457"><ele>71.0</ele><time>2026-05-01T09:27:22.998Z</time></trkpt><trkpt lat="45.03919259301359" lon="9.1584572075954"><ele>71.16666666666667</ele><time>2026-05-01T09:27:23.998Z</time></trkpt><trkpt lat="45.03910164245465" lon="9.158403943159566"><ele>71.33333333333334</ele><time>2026-05-01T09:27:24.998Z</time></trkpt><trkpt lat="45.03903390913387" lon="9.158335780057776"><ele>71.5</ele><time>2026-05-01T09:27:25.998Z</time></trkpt><trkpt lat="45.03900061117733" lon="9.158245820070649"><ele>71.66666666666667</ele><time>2026-05-01T09:27:26.998Z</time></trkpt><trkpt lat="45.03899285019579" lon="9.158137634338821"><ele>71.83333333333333</ele><time>2026-05-01T09:27:27.999Z</time></trkpt><trkpt lat="45.03900957095123" lon="9.158023484708124"><ele>72.0</ele><time>2026-05-01T09:27:28.999Z</time></trkpt><trkpt lat="45.039036146383786" lon="9.157891105977008"><ele>72.25</ele><time>2026-05-01T09:27:29.999Z</time></trkpt><trkpt lat="45.03906137914157" lon="9.157751665938525"><ele>72.5</ele><time>2026-05-01T09:27:30.999Z</time></trkpt><trkpt lat="45.03909281776346" lon="9.157599842809597"><ele>72.75</ele><time>2026-05-01T09:27:31.999Z</time></trkpt><trkpt lat="45.039129534152515" lon="9.15743511104786"><ele>73.0</ele><time>2026-05-01T09:27:32.999Z</time></trkpt><trkpt lat="45.03917074931819" lon="9.157261509251713"><ele>73.0</ele><time>2026-05-01T09:27:33.999Z</time></trkpt><trkpt lat="45.039214038599766" lon="9.157092968379947"><ele>73.0</ele><time>2026-05-01T09:27:34.999Z</time></trkpt><trkpt lat="45.039256868445094" lon="9.156927830672318"><ele>73.0</ele><time>2026-05-01T09:27:35.999Z</time></trkpt><trkpt lat="45.03929666070789" lon="9.156773112586466"><ele>73.0</ele><time>2026-05-01T09:27:36.999Z</time></trkpt><trkpt lat="45.03934070554903" lon="9.156650967534054"><ele>73.0</ele><time>2026-05-01T09:27:37.999Z</time></trkpt><trkpt lat="45.03936967385222" lon="9.156546443673095"><ele>73.0</ele><time>2026-05-01T09:27:38.999Z</time></trkpt><trkpt lat="45.0393909234267" lon="9.156443599524627"><ele>73.0</ele><time>2026-05-01T09:27:40.999Z</time></trkpt><trkpt lat="45.03924114091534" lon="9.156394513347818"><ele>73.0</ele><time>2026-05-01T09:27:44.999Z</time></trkpt><trkpt lat="45.03914984071565" lon="9.156426599609938"><ele>73.0</ele><time>2026-05-01T09:27:45.999Z</time></trkpt><trkpt lat="45.03905132900016" lon="9.156450392336355"><ele>72.75</ele><time>2026-05-01T09:27:46.999Z</time></trkpt><trkpt lat="45.03895870490737" lon="9.156476116132565"><ele>72.5</ele><time>2026-05-01T09:27:47.999Z</time></trkpt><trkpt lat="45.038851762139906" lon="9.156520893553816"><ele>72.25</ele><time>2026-05-01T09:27:49Z</time></trkpt><trkpt lat="45.03874006627644" lon="9.15658812278128"><ele>72.0</ele><time>2026-05-01T09:27:50Z</time></trkpt><trkpt lat="45.03862494679485" lon="9.156667105049944"><ele>72.25</ele><time>2026-05-01T09:27:51Z</time></trkpt><trkpt lat="45.03850977411566" lon="9.156752736993987"><ele>72.5</ele><time>2026-05-01T09:27:52Z</time></trkpt><trkpt lat="45.03839729663844" lon="9.156844988101797"><ele>72.75</ele><time>2026-05-01T09:27:53Z</time></trkpt><trkpt lat="45.03829348453401" lon="9.156932062722483"><ele>73.0</ele><time>2026-05-01T09:27:54Z</time></trkpt><trkpt lat="45.03817780256897" lon="9.157003718401064"><ele>73.0</ele><time>2026-05-01T09:27:55Z</time></trkpt><trkpt lat="45.038050351378445" lon="9.157040735122893"><ele>73.0</ele><time>2026-05-01T09:27:56Z</time></trkpt><trkpt lat="45.037913358071435" lon="9.1570424042766"><ele>73.0</ele><time>2026-05-01T09:27:57Z</time></trkpt><trkpt lat="45.03777322817039" lon="9.157031587490543"><ele>73.0</ele><time>2026-05-01T09:27:58Z</time></trkpt><trkpt lat="45.03762665678065" lon="9.1570289054285"><ele>73.0</ele><time>2026-05-01T09:27:59Z</time></trkpt><trkpt lat="45.0374770792014" lon="9.157028306838065"><ele>73.0</ele><time>2026-05-01T09:28:00Z</time></trkpt><trkpt lat="45.03732440191325" lon="9.157028858199762"><ele>73.0</ele><time>2026-05-01T09:28:01Z</time></trkpt><trkpt lat="45.03718182723839" lon="9.157024011130192"><ele>73.0</ele><time>2026-05-01T09:28:02Z</time></trkpt><trkpt lat="45.03705279926497" lon="9.157020808405788"><ele>73.25</ele><time>2026-05-01T09:28:03Z</time></trkpt><trkpt lat="45.03693000180525" lon="9.15701349291997"><ele>73.5</ele><time>2026-05-01T09:28:04Z</time></trkpt><trkpt lat="45.03680868750027" lon="9.156989824076676"><ele>73.75</ele><time>2026-05-01T09:28:05Z</time></trkpt><trkpt lat="45.036682517173844" lon="9.15694050112406"><ele>74.0</ele><time>2026-05-01T09:28:06Z</time></trkpt><trkpt lat="45.03655338862006" lon="9.156873686729131"><ele>74.33333333333334</ele><time>2026-05-01T09:28:07Z</time></trkpt><trkpt lat="45.036413735329944" lon="9.15680691435145"><ele>74.66666666666667</ele><time>2026-05-01T09:28:08Z</time></trkpt><trkpt lat="45.03626327021286" lon="9.156738578442395"><ele>75.0</ele><time>2026-05-01T09:28:09Z</time></trkpt><trkpt lat="45.03611000451215" lon="9.156671019489917"><ele>75.0</ele><time>2026-05-01T09:28:10Z</time></trkpt><trkpt lat="45.03595353842657" lon="9.156611324494671"><ele>75.0</ele><time>2026-05-01T09:28:11Z</time></trkpt><trkpt lat="45.03580132239543" lon="9.156568038211093"><ele>75.0</ele><time>2026-05-01T09:28:12Z</time></trkpt><trkpt lat="45.03564909181459" lon="9.156544166776907"><ele>75.33333333333333</ele><time>2026-05-01T09:28:13Z</time></trkpt><trkpt lat="45.0354903658084" lon="9.156536093890669"><ele>75.66666666666666</ele><time>2026-05-01T09:28:14Z</time></trkpt><trkpt lat="45.03533232236132" lon="9.156542350623372"><ele>76.0</ele><time>2026-05-01T09:28:15Z</time></trkpt><trkpt lat="45.035173098222266" lon="9.156566250449165"><ele>76.0</ele><time>2026-05-01T09:28:16Z</time></trkpt><trkpt lat="45.03501572413777" lon="9.15660704648906"><ele>76.0</ele><time>2026-05-01T09:28:17Z</time></trkpt><trkpt lat="45.034861854118624" lon="9.156663355737551"><ele>76.0</ele><time>2026-05-01T09:28:18.001Z</time></trkpt><trkpt lat="45.034709862834134" lon="9.156728329718703"><ele>76.0</ele><time>2026-05-01T09:28:19.001Z</time></trkpt><trkpt lat="45.034558891525194" lon="9.156793592804224"><ele>76.0</ele><time>2026-05-01T09:28:20.001Z</time></trkpt><trkpt lat="45.03440688936007" lon="9.156850697338312"><ele>76.0</ele><time>2026-05-01T09:28:21.001Z</time></trkpt><trkpt lat="45.0342523260756" lon="9.156897890252544"><ele>76.0</ele><time>2026-05-01T09:28:22.001Z</time></trkpt><trkpt lat="45.03409637769151" lon="9.156932402423312"><ele>76.0</ele><time>2026-05-01T09:28:23.001Z</time></trkpt><trkpt lat="45.03394000434866" lon="9.156957155495926"><ele>76.0</ele><time>2026-05-01T09:28:24.001Z</time></trkpt><trkpt lat="45.033780546429476" lon="9.156967012202713"><ele>76.0</ele><time>2026-05-01T09:28:25.001Z</time></trkpt><trkpt lat="45.03362060088519" lon="9.15696469403778"><ele>76.0</ele><time>2026-05-01T09:28:26.001Z</time></trkpt><trkpt lat="45.03345766484562" lon="9.15695227730807"><ele>76.0</ele><time>2026-05-01T09:28:27.001Z</time></trkpt><trkpt lat="45.03329706345221" lon="9.15693348850795"><ele>77.33333333333333</ele><time>2026-05-01T09:28:28.001Z</time></trkpt><trkpt lat="45.03313308927329" lon="9.156904975766752"><ele>78.66666666666667</ele><time>2026-05-01T09:28:29.001Z</time></trkpt><trkpt lat="45.0329709392803" lon="9.156871380253943"><ele>80.0</ele><time>2026-05-01T09:28:30.001Z</time></trkpt><trkpt lat="45.03280928228959" lon="9.156827978443474"><ele>80.0</ele><time>2026-05-01T09:28:31.001Z</time></trkpt><trkpt lat="45.03264788768233" lon="9.156781339860522"><ele>80.0</ele><time>2026-05-01T09:28:32.001Z</time></trkpt><trkpt lat="45.03248464885074" lon="9.156738065484005"><ele>80.0</ele><time>2026-05-01T09:28:33.001Z</time></trkpt><trkpt lat="45.03231712516684" lon="9.156693279107955"><ele>79.66666666666667</ele><time>2026-05-01T09:28:34.001Z</time></trkpt><trkpt lat="45.03214436453883" lon="9.156652577997304"><ele>79.33333333333333</ele><time>2026-05-01T09:28:35.001Z</time></trkpt><trkpt lat="45.031967958036674" lon="9.156610868818488"><ele>79.0</ele><time>2026-05-01T09:28:36.001Z</time></trkpt><trkpt lat="45.03178685886047" lon="9.156584970720267"><ele>79.0</ele><time>2026-05-01T09:28:37.001Z</time></trkpt><trkpt lat="45.03160279203971" lon="9.156560194561926"><ele>79.0</ele><time>2026-05-01T09:28:38.001Z</time></trkpt><trkpt lat="45.03141665437548" lon="9.156536040206085"><ele>79.0</ele><time>2026-05-01T09:28:39.001Z</time></trkpt><trkpt lat="45.031231790279804" lon="9.156516450839469"><ele>79.0</ele><time>2026-05-01T09:28:40.001Z</time></trkpt><trkpt lat="45.03104488704231" lon="9.156496456714503"><ele>79.0</ele><time>2026-05-01T09:28:41.001Z</time></trkpt><trkpt lat="45.030856695789886" lon="9.156481694080773"><ele>79.0</ele><time>2026-05-01T09:28:42.001Z</time></trkpt><trkpt lat="45.030667622165566" lon="9.15647031569561"><ele>79.0</ele><time>2026-05-01T09:28:43.001Z</time></trkpt><trkpt lat="45.03047922144297" lon="9.15646226845392"><ele>79.0</ele><time>2026-05-01T09:28:44.001Z</time></trkpt><trkpt lat="45.03029362532611" lon="9.15645175657898"><ele>79.0</ele><time>2026-05-01T09:28:45.001Z</time></trkpt><trkpt lat="45.03012155570743" lon="9.156443018929657"><ele>80.0</ele><time>2026-05-01T09:28:46.001Z</time></trkpt><trkpt lat="45.029953098823135" lon="9.15643442785248"><ele>81.0</ele><time>2026-05-01T09:28:47.001Z</time></trkpt><trkpt lat="45.02979097346577" lon="9.156426769946059"><ele>82.0</ele><time>2026-05-01T09:28:48.001Z</time></trkpt><trkpt lat="45.02963329949339" lon="9.156418652244323"><ele>82.0</ele><time>2026-05-01T09:28:49.001Z</time></trkpt><trkpt lat="45.02947788915717" lon="9.156410624559976"><ele>82.0</ele><time>2026-05-01T09:28:50.001Z</time></trkpt><trkpt lat="45.029323070602345" lon="9.156405245573124"><ele>82.0</ele><time>2026-05-01T09:28:51.001Z</time></trkpt><trkpt lat="45.02916673345352" lon="9.15639882668289"><ele>82.0</ele><time>2026-05-01T09:28:52.001Z</time></trkpt><trkpt lat="45.02900675430674" lon="9.156383931637608"><ele>82.0</ele><time>2026-05-01T09:28:53.001Z</time></trkpt><trkpt lat="45.0288464691613" lon="9.156361420528766"><ele>82.0</ele><time>2026-05-01T09:28:54.002Z</time></trkpt><trkpt lat="45.02868181729439" lon="9.15632971236036"><ele>82.0</ele><time>2026-05-01T09:28:55.002Z</time></trkpt><trkpt lat="45.02851728164665" lon="9.156293098951274"><ele>82.0</ele><time>2026-05-01T09:28:56.002Z</time></trkpt><trkpt lat="45.02835369228099" lon="9.156255176658552"><ele>82.0</ele><time>2026-05-01T09:28:57.002Z</time></trkpt><trkpt lat="45.02820055511827" lon="9.156216973342651"><ele>82.5</ele><time>2026-05-01T09:28:58.002Z</time></trkpt><trkpt lat="45.02805779759526" lon="9.156177563497558"><ele>83.0</ele><time>2026-05-01T09:28:59.002Z</time></trkpt><trkpt lat="45.027926642191055" lon="9.156146240961547"><ele>83.5</ele><time>2026-05-01T09:29:00.002Z</time></trkpt><trkpt lat="45.027801719980374" lon="9.15612587903452"><ele>84.0</ele><time>2026-05-01T09:29:01.002Z</time></trkpt><trkpt lat="45.02768252879717" lon="9.156113610124528"><ele>84.0</ele><time>2026-05-01T09:29:02.002Z</time></trkpt><trkpt lat="45.02756782608045" lon="9.15609814949774"><ele>84.0</ele><time>2026-05-01T09:29:03.002Z</time></trkpt><trkpt lat="45.027450460238605" lon="9.156088505423911"><ele>84.0</ele><time>2026-05-01T09:29:04.002Z</time></trkpt><trkpt lat="45.027328043681166" lon="9.156080326358435"><ele>84.0</ele><time>2026-05-01T09:29:05.002Z</time></trkpt><trkpt lat="45.027206162101415" lon="9.156081987876243"><ele>84.75</ele><time>2026-05-01T09:29:06.002Z</time></trkpt><trkpt lat="45.0270833113868" lon="9.156092523395191"><ele>85.5</ele><time>2026-05-01T09:29:07.002Z</time></trkpt><trkpt lat="45.026960979467546" lon="9.156109700298696"><ele>86.25</ele><time>2026-05-01T09:29:08.002Z</time></trkpt><trkpt lat="45.02683885727389" lon="9.156134165781435"><ele>87.0</ele><time>2026-05-01T09:29:09.002Z</time></trkpt><trkpt lat="45.02671803470029" lon="9.156169288994718"><ele>88.0</ele><time>2026-05-01T09:29:10.002Z</time></trkpt><trkpt lat="45.02658267551648" lon="9.156197711801369"><ele>89.0</ele><time>2026-05-01T09:29:11.002Z</time></trkpt><trkpt lat="45.026451796816005" lon="9.15622502947268"><ele>90.0</ele><time>2026-05-01T09:29:12.002Z</time></trkpt><trkpt lat="45.026322284233004" lon="9.156253951151498"><ele>91.0</ele><time>2026-05-01T09:29:13.002Z</time></trkpt><trkpt lat="45.02619331900044" lon="9.156282676964196"><ele>91.0</ele><time>2026-05-01T09:29:14.002Z</time></trkpt><trkpt lat="45.026072146528435" lon="9.156308702237025"><ele>91.0</ele><time>2026-05-01T09:29:15.002Z</time></trkpt><trkpt lat="45.02596340793933" lon="9.156327609994323"><ele>91.0</ele><time>2026-05-01T09:29:16.002Z</time></trkpt><trkpt lat="45.02585246767291" lon="9.156347687650262"><ele>91.0</ele><time>2026-05-01T09:29:17.002Z</time></trkpt><trkpt lat="45.02575895803532" lon="9.156375035647697"><ele>91.0</ele><time>2026-05-01T09:29:18.002Z</time></trkpt><trkpt lat="45.025687334503466" lon="9.156390017912715"><ele>91.8</ele><time>2026-05-01T09:29:19.002Z</time></trkpt><trkpt lat="45.02558879598418" lon="9.156398701034144"><ele>92.6</ele><time>2026-05-01T09:29:21.002Z</time></trkpt><trkpt lat="45.02551716177981" lon="9.156392327172748"><ele>93.4</ele><time>2026-05-01T09:29:25.002Z</time></trkpt><trkpt lat="45.025486029544645" lon="9.15619325843226"><ele>94.2</ele><time>2026-05-01T09:29:26.002Z</time></trkpt><trkpt lat="45.02545424491083" lon="9.156079138165655"><ele>95.0</ele><time>2026-05-01T09:29:27.002Z</time></trkpt><trkpt lat="45.02542539292513" lon="9.155968704174619"><ele>95.0</ele><time>2026-05-01T09:29:28.002Z</time></trkpt><trkpt lat="45.02539118364772" lon="9.155838962085252"><ele>95.0</ele><time>2026-05-01T09:29:29Z</time></trkpt><trkpt lat="45.0253539304442" lon="9.15570036801126"><ele>95.0</ele><time>2026-05-01T09:29:30Z</time></trkpt><trkpt lat="45.02531494083303" lon="9.155549178201245"><ele>95.0</ele><time>2026-05-01T09:29:31Z</time></trkpt><trkpt lat="45.02527470912006" lon="9.155407682415762"><ele>95.0</ele><time>2026-05-01T09:29:32Z</time></trkpt><trkpt lat="45.025232676653374" lon="9.155263775737549"><ele>94.25</ele><time>2026-05-01T09:29:33Z</time></trkpt><trkpt lat="45.025186177733886" lon="9.155110633887944"><ele>93.5</ele><time>2026-05-01T09:29:34Z</time></trkpt><trkpt lat="45.025141435537805" lon="9.154950822003782"><ele>92.75</ele><time>2026-05-01T09:29:35Z</time></trkpt><trkpt lat="45.02509838301369" lon="9.154786631114348"><ele>92.0</ele><time>2026-05-01T09:29:36Z</time></trkpt><trkpt lat="45.025052743511615" lon="9.154619583093009"><ele>92.0</ele><time>2026-05-01T09:29:37Z</time></trkpt><trkpt lat="45.025004276564424" lon="9.154451154321702"><ele>92.0</ele><time>2026-05-01T09:29:38Z</time></trkpt><trkpt lat="45.024956723383255" lon="9.15428159477086"><ele>92.0</ele><time>2026-05-01T09:29:39Z</time></trkpt><trkpt lat="45.02490788391227" lon="9.15411252130599"><ele>92.0</ele><time>2026-05-01T09:29:40Z</time></trkpt><trkpt lat="45.02486016658172" lon="9.153940935736133"><ele>91.5</ele><time>2026-05-01T09:29:41Z</time></trkpt><trkpt lat="45.024811644221245" lon="9.15377096919307"><ele>91.0</ele><time>2026-05-01T09:29:42Z</time></trkpt><trkpt lat="45.02476710715281" lon="9.153599088448418"><ele>90.5</ele><time>2026-05-01T09:29:43Z</time></trkpt><trkpt lat="45.02472231344485" lon="9.15343683152459"><ele>90.0</ele><time>2026-05-01T09:29:44Z</time></trkpt><trkpt lat="45.024677315679384" lon="9.153283597809498"><ele>90.0</ele><time>2026-05-01T09:29:45Z</time></trkpt><trkpt lat="45.02463533859173" lon="9.153131333402206"><ele>90.0</ele><time>2026-05-01T09:29:46Z</time></trkpt><trkpt lat="45.02459565705393" lon="9.152987275423456"><ele>90.0</ele><time>2026-05-01T09:29:47Z</time></trkpt><trkpt lat="45.02455639075002" lon="9.152847546969625"><ele>90.0</ele><time>2026-05-01T09:29:48Z</time></trkpt><trkpt lat="45.02451624671289" lon="9.152710633720636"><ele>90.0</ele><time>2026-05-01T09:29:49Z</time></trkpt><trkpt lat="45.02447572066378" lon="9.152573902621624"><ele>90.0</ele><time>2026-05-01T09:29:50Z</time></trkpt><trkpt lat="45.024434796337104" lon="9.152426815719899"><ele>90.0</ele><time>2026-05-01T09:29:51Z</time></trkpt><trkpt lat="45.02439611207688" lon="9.15228035884387"><ele>90.0</ele><time>2026-05-01T09:29:52Z</time></trkpt><trkpt lat="45.02435504530309" lon="9.15213482335874"><ele>90.0</ele><time>2026-05-01T09:29:53Z</time></trkpt><trkpt lat="45.02431772662972" lon="9.152000201969233"><ele>90.0</ele><time>2026-05-01T09:29:54Z</time></trkpt><trkpt lat="45.02428241728807" lon="9.15187820131071"><ele>90.0</ele><time>2026-05-01T09:29:55Z</time></trkpt><trkpt lat="45.024251308636" lon="9.151773352516352"><ele>90.0</ele><time>2026-05-01T09:29:56Z</time></trkpt><trkpt lat="45.02422360681167" lon="9.151681551232691"><ele>90.0</ele><time>2026-05-01T09:29:57Z</time></trkpt><trkpt lat="45.02419607921006" lon="9.15159830110791"><ele>90.0</ele><time>2026-05-01T09:29:58Z</time></trkpt><trkpt lat="45.02415247280663" lon="9.15144268374334"><ele>90.0</ele><time>2026-05-01T09:30:00Z</time></trkpt><trkpt lat="45.02411410097178" lon="9.151280380680081"><ele>90.0</ele><time>2026-05-01T09:30:02Z</time></trkpt><trkpt lat="45.024073220427624" lon="9.15113630452515"><ele>90.0</ele><time>2026-05-01T09:30:04Z</time></trkpt><trkpt lat="45.02405287402294" lon="9.151051919926735"><ele>90.0</ele><time>2026-05-01T09:30:05Z</time></trkpt><trkpt lat="45.02403119542865" lon="9.150962735556245"><ele>90.0</ele><time>2026-05-01T09:30:06Z</time></trkpt><trkpt lat="45.02400686534083" lon="9.150865049125434"><ele>90.0</ele><time>2026-05-01T09:30:07.001Z</time></trkpt><trkpt lat="45.023979283062815" lon="9.150762572398978"><ele>90.0</ele><time>2026-05-01T09:30:08.001Z</time></trkpt><trkpt lat="45.02394750538872" lon="9.150652822589407"><ele>90.0</ele><time>2026-05-01T09:30:09.001Z</time></trkpt><trkpt lat="45.023910446012174" lon="9.150534272473669"><ele>90.0</ele><time>2026-05-01T09:30:10.001Z</time></trkpt><trkpt lat="45.023873788349135" lon="9.150410588331244"><ele>90.0</ele><time>2026-05-01T09:30:11.001Z</time></trkpt><trkpt lat="45.023837073861976" lon="9.150274184125518"><ele>90.0</ele><time>2026-05-01T09:30:12.001Z</time></trkpt><trkpt lat="45.02379507774474" lon="9.150137590917023"><ele>90.0</ele><time>2026-05-01T09:30:13.001Z</time></trkpt><trkpt lat="45.02375359760874" lon="9.149996687255426"><ele>89.6</ele><time>2026-05-01T09:30:14.001Z</time></trkpt><trkpt lat="45.02371319649572" lon="9.149851807022097"><ele>89.2</ele><time>2026-05-01T09:30:15.001Z</time></trkpt><trkpt lat="45.023675896439094" lon="9.149702196006839"><ele>88.80000000000001</ele><time>2026-05-01T09:30:16.001Z</time></trkpt><trkpt lat="45.023635816103685" lon="9.149559615045398"><ele>88.4</ele><time>2026-05-01T09:30:17.001Z</time></trkpt><trkpt lat="45.02360054887545" lon="9.14941198225301"><ele>88.0</ele><time>2026-05-01T09:30:18.001Z</time></trkpt><trkpt lat="45.02356129621041" lon="9.149274442876042"><ele>88.0</ele><time>2026-05-01T09:30:19.001Z</time></trkpt><trkpt lat="45.023525317411845" lon="9.149144890206271"><ele>88.0</ele><time>2026-05-01T09:30:20.001Z</time></trkpt><trkpt lat="45.023500081606066" lon="9.14904029521782"><ele>88.0</ele><time>2026-05-01T09:30:21.001Z</time></trkpt><trkpt lat="45.02345662848129" lon="9.148926866428113"><ele>88.0</ele><time>2026-05-01T09:30:23.001Z</time></trkpt><trkpt lat="45.02342611519613" lon="9.148833498130239"><ele>88.0</ele><time>2026-05-01T09:30:31.001Z</time></trkpt><trkpt lat="45.02332652339556" lon="9.148878903533328"><ele>88.0</ele><time>2026-05-01T09:30:32.001Z</time></trkpt><trkpt lat="45.02325642261557" lon="9.148925154856155"><ele>87.83333333333333</ele><time>2026-05-01T09:30:33.001Z</time></trkpt><trkpt lat="45.02318696583924" lon="9.14894631647606"><ele>87.66666666666666</ele><time>2026-05-01T09:30:34.001Z</time></trkpt><trkpt lat="45.0231081022962" lon="9.148967509096464"><ele>87.5</ele><time>2026-05-01T09:30:35.001Z</time></trkpt><trkpt lat="45.0230173455311" lon="9.14898659213724"><ele>87.33333333333333</ele><time>2026-05-01T09:30:36.001Z</time></trkpt><trkpt lat="45.02292879826057" lon="9.1490024654967"><ele>87.16666666666667</ele><time>2026-05-01T09:30:37.001Z</time></trkpt><trkpt lat="45.02284850561311" lon="9.148998100759737"><ele>87.0</ele><time>2026-05-01T09:30:38.001Z</time></trkpt><trkpt lat="45.02276463155839" lon="9.148977167226642"><ele>87.0</ele><time>2026-05-01T09:30:39.001Z</time></trkpt><trkpt lat="45.022667828875186" lon="9.14893797612806"><ele>87.0</ele><time>2026-05-01T09:30:40.001Z</time></trkpt><trkpt lat="45.02256233250211" lon="9.148899083246878"><ele>87.0</ele><time>2026-05-01T09:30:41.001Z</time></trkpt><trkpt lat="45.022462484091314" lon="9.148865973369766"><ele>87.0</ele><time>2026-05-01T09:30:42.002Z</time></trkpt><trkpt lat="45.0223575009034" lon="9.148841378972065"><ele>87.0</ele><time>2026-05-01T09:30:43.002Z</time></trkpt><trkpt lat="45.022248772594075" lon="9.148832737033187"><ele>87.39999999999999</ele><time>2026-05-01T09:30:44.002Z</time></trkpt><trkpt lat="45.02214029755171" lon="9.148832109846676"><ele>87.8</ele><time>2026-05-01T09:30:45.002Z</time></trkpt><trkpt lat="45.022032602626275" lon="9.148842870611155"><ele>88.2</ele><time>2026-05-01T09:30:46.002Z</time></trkpt><trkpt lat="45.02192334539452" lon="9.148855441136652"><ele>88.6</ele><time>2026-05-01T09:30:47.002Z</time></trkpt><trkpt lat="45.0218091998016" lon="9.148889322448914"><ele>89.0</ele><time>2026-05-01T09:30:48.002Z</time></trkpt><trkpt lat="45.02169752440025" lon="9.148943380810218"><ele>89.0</ele><time>2026-05-01T09:30:49.002Z</time></trkpt><trkpt lat="45.021591859690886" lon="9.149013097736628"><ele>89.0</ele><time>2026-05-01T09:30:50.002Z</time></trkpt><trkpt lat="45.0214917700191" lon="9.149074541526804"><ele>89.0</ele><time>2026-05-01T09:30:51.002Z</time></trkpt><trkpt lat="45.02138298989074" lon="9.149126023412244"><ele>89.0</ele><time>2026-05-01T09:30:52.002Z</time></trkpt><trkpt lat="45.021268395131216" lon="9.149161174653713"><ele>89.25</ele><time>2026-05-01T09:30:53.002Z</time></trkpt><trkpt lat="45.02114447383086" lon="9.14918241481962"><ele>89.5</ele><time>2026-05-01T09:30:54.002Z</time></trkpt><trkpt lat="45.02101906652313" lon="9.149199361883653"><ele>89.75</ele><time>2026-05-01T09:30:55.002Z</time></trkpt><trkpt lat="45.020893035125354" lon="9.149208744324172"><ele>90.0</ele><time>2026-05-01T09:30:56.002Z</time></trkpt><trkpt lat="45.02076730114069" lon="9.149221399770536"><ele>90.5</ele><time>2026-05-01T09:30:57.002Z</time></trkpt><trkpt lat="45.020646735582105" lon="9.149234236158573"><ele>91.0</ele><time>2026-05-01T09:30:58.002Z</time></trkpt><trkpt lat="45.020525956826226" lon="9.149232453691928"><ele>91.5</ele><time>2026-05-01T09:30:59.002Z</time></trkpt><trkpt lat="45.02040163876634" lon="9.149209650164181"><ele>92.0</ele><time>2026-05-01T09:31:00.002Z</time></trkpt><trkpt lat="45.020273899540975" lon="9.149181573464586"><ele>92.0</ele><time>2026-05-01T09:31:01.002Z</time></trkpt><trkpt lat="45.02014282465604" lon="9.149153840899121"><ele>92.0</ele><time>2026-05-01T09:31:02.002Z</time></trkpt><trkpt lat="45.020018170605255" lon="9.149131386871003"><ele>92.0</ele><time>2026-05-01T09:31:03.002Z</time></trkpt><trkpt lat="45.01990710753677" lon="9.149114185315916"><ele>92.0</ele><time>2026-05-01T09:31:04.002Z</time></trkpt><trkpt lat="45.01979159323563" lon="9.149096809405432"><ele>93.19999999999999</ele><time>2026-05-01T09:31:05.002Z</time></trkpt><trkpt lat="45.019682063331075" lon="9.149081750659835"><ele>94.4</ele><time>2026-05-01T09:31:06.002Z</time></trkpt><trkpt lat="45.01957259586968" lon="9.14906680196945"><ele>95.6</ele><time>2026-05-01T09:31:07.002Z</time></trkpt><trkpt lat="45.01946837195615" lon="9.14905392704404"><ele>96.80000000000001</ele><time>2026-05-01T09:31:08.002Z</time></trkpt><trkpt lat="45.01938273754928" lon="9.149060924789648"><ele>98.0</ele><time>2026-05-01T09:31:09.002Z</time></trkpt><trkpt lat="45.01927410784857" lon="9.149061038310979"><ele>98.0</ele><time>2026-05-01T09:31:11.002Z</time></trkpt><trkpt lat="45.01920342220071" lon="9.14907464867733"><ele>98.0</ele><time>2026-05-01T09:31:13.002Z</time></trkpt><trkpt lat="45.019164345100585" lon="9.149312491558456"><ele>98.0</ele><time>2026-05-01T09:31:14.002Z</time></trkpt><trkpt lat="45.01909229213142" lon="9.149420071434642"><ele>98.0</ele><time>2026-05-01T09:31:15.002Z</time></trkpt><trkpt lat="45.01903006461789" lon="9.149558708613528"><ele>97.25</ele><time>2026-05-01T09:31:16.002Z</time></trkpt><trkpt lat="45.01895896879525" lon="9.149711710539847"><ele>96.5</ele><time>2026-05-01T09:31:17.003Z</time></trkpt><trkpt lat="45.018891047895714" lon="9.149864955291012"><ele>95.75</ele><time>2026-05-01T09:31:18.003Z</time></trkpt><trkpt lat="45.01882106964311" lon="9.150025000714985"><ele>95.0</ele><time>2026-05-01T09:31:19.003Z</time></trkpt><trkpt lat="45.018746528842215" lon="9.150190030198626"><ele>95.0</ele><time>2026-05-01T09:31:20.003Z</time></trkpt><trkpt lat="45.018673433249106" lon="9.150354944815719"><ele>95.0</ele><time>2026-05-01T09:31:21.003Z</time></trkpt><trkpt lat="45.018600267033186" lon="9.1505257044375"><ele>95.0</ele><time>2026-05-01T09:31:22.003Z</time></trkpt><trkpt lat="45.018526317931375" lon="9.150695533145388"><ele>95.0</ele><time>2026-05-01T09:31:23.003Z</time></trkpt><trkpt lat="45.0184541910487" lon="9.150857586101365"><ele>95.2</ele><time>2026-05-01T09:31:24.003Z</time></trkpt><trkpt lat="45.018398988280886" lon="9.151026305207951"><ele>95.4</ele><time>2026-05-01T09:31:25.003Z</time></trkpt><trkpt lat="45.018336981497555" lon="9.151165020359304"><ele>95.6</ele><time>2026-05-01T09:31:26.003Z</time></trkpt><trkpt lat="45.0182830481787" lon="9.15129179642829"><ele>95.8</ele><time>2026-05-01T09:31:27.003Z</time></trkpt><trkpt lat="45.018228162886906" lon="9.151395171346602"><ele>96.0</ele><time>2026-05-01T09:31:28.003Z</time></trkpt><trkpt lat="45.018172357205955" lon="9.15146318356683"><ele>96.0</ele><time>2026-05-01T09:31:29.003Z</time></trkpt><trkpt lat="45.018051068843185" lon="9.151477134933417"><ele>96.0</ele><time>2026-05-01T09:31:31.003Z</time></trkpt><trkpt lat="45.01797158961425" lon="9.151420963648286"><ele>96.0</ele><time>2026-05-01T09:31:32.003Z</time></trkpt><trkpt lat="45.017877485402224" lon="9.151371219243032"><ele>96.0</ele><time>2026-05-01T09:31:33.003Z</time></trkpt><trkpt lat="45.01778894091797" lon="9.151328719721626"><ele>96.0</ele><time>2026-05-01T09:31:34.003Z</time></trkpt><trkpt lat="45.01771197894489" lon="9.151297930069285"><ele>96.0</ele><time>2026-05-01T09:31:35Z</time></trkpt><trkpt lat="45.017640533360414" lon="9.151274232101933"><ele>96.0</ele><time>2026-05-01T09:31:36Z</time></trkpt><trkpt lat="45.01757255565068" lon="9.151255463087155"><ele>96.0</ele><time>2026-05-01T09:31:37Z</time></trkpt><trkpt lat="45.017510045985006" lon="9.151226387965359"><ele>96.0</ele><time>2026-05-01T09:31:38Z</time></trkpt><trkpt lat="45.01743918347559" lon="9.151182718675773"><ele>96.0</ele><time>2026-05-01T09:31:39Z</time></trkpt><trkpt lat="45.017355698267664" lon="9.15112644722702"><ele>96.0</ele><time>2026-05-01T09:31:40Z</time></trkpt><trkpt lat="45.01727199965093" lon="9.151071551525181"><ele>96.0</ele><time>2026-05-01T09:31:41Z</time></trkpt><trkpt lat="45.017183839436115" lon="9.151026821435089"><ele>96.0</ele><time>2026-05-01T09:31:42Z</time></trkpt><trkpt lat="45.01708208576277" lon="9.150996144976459"><ele>96.0</ele><time>2026-05-01T09:31:43Z</time></trkpt><trkpt lat="45.016963947481905" lon="9.15097561895961"><ele>96.0</ele><time>2026-05-01T09:31:44Z</time></trkpt><trkpt lat="45.016843334560235" lon="9.150958482237371"><ele>96.0</ele><time>2026-05-01T09:31:45Z</time></trkpt><trkpt lat="45.01671991003564" lon="9.15093360322022"><ele>97.0</ele><time>2026-05-01T09:31:46Z</time></trkpt><trkpt lat="45.01659265805704" lon="9.150898856260964"><ele>98.0</ele><time>2026-05-01T09:31:47Z</time></trkpt><trkpt lat="45.01646656776186" lon="9.15085336532135"><ele>99.0</ele><time>2026-05-01T09:31:48Z</time></trkpt><trkpt lat="45.016340992536016" lon="9.150799393869637"><ele>100.0</ele><time>2026-05-01T09:31:49Z</time></trkpt><trkpt lat="45.01621536260517" lon="9.15074637654433"><ele>99.2</ele><time>2026-05-01T09:31:50Z</time></trkpt><trkpt lat="45.01609690435922" lon="9.150676075786452"><ele>98.4</ele><time>2026-05-01T09:31:51Z</time></trkpt><trkpt lat="45.0159971587972" lon="9.150618058143237"><ele>97.6</ele><time>2026-05-01T09:31:52Z</time></trkpt><trkpt lat="45.015910301125636" lon="9.150572002867138"><ele>96.8</ele><time>2026-05-01T09:31:53Z</time></trkpt><trkpt lat="45.015842863334036" lon="9.15052070040892"><ele>96.0</ele><time>2026-05-01T09:31:54Z</time></trkpt><trkpt lat="45.0157611363573" lon="9.15044983798298"><ele>95.8</ele><time>2026-05-01T09:31:55Z</time></trkpt><trkpt lat="45.0156934905279" lon="9.150355104589897"><ele>95.6</ele><time>2026-05-01T09:31:56Z</time></trkpt><trkpt lat="45.0156249018039" lon="9.150285349263982"><ele>95.4</ele><time>2026-05-01T09:31:57Z</time></trkpt><trkpt lat="45.01555145633" lon="9.150213937346408"><ele>95.2</ele><time>2026-05-01T09:31:58Z</time></trkpt><trkpt lat="45.015459300218126" lon="9.15017226834065"><ele>95.0</ele><time>2026-05-01T09:31:59Z</time></trkpt><trkpt lat="45.01535732879387" lon="9.150150850982817"><ele>95.0</ele><time>2026-05-01T09:32:00Z</time></trkpt><trkpt lat="45.01525015018314" lon="9.15013929780547"><ele>95.0</ele><time>2026-05-01T09:32:01Z</time></trkpt><trkpt lat="45.015154245257165" lon="9.150118627613786"><ele>95.0</ele><time>2026-05-01T09:32:02Z</time></trkpt><trkpt lat="45.01506152819843" lon="9.150057517643754"><ele>95.0</ele><time>2026-05-01T09:32:03Z</time></trkpt><trkpt lat="45.01497675951856" lon="9.149966423421573"><ele>95.0</ele><time>2026-05-01T09:32:04Z</time></trkpt><trkpt lat="45.01490536943616" lon="9.149867880397945"><ele>96.2</ele><time>2026-05-01T09:32:05Z</time></trkpt><trkpt lat="45.01483888364461" lon="9.14979607617092"><ele>97.4</ele><time>2026-05-01T09:32:06Z</time></trkpt><trkpt lat="45.01476324760513" lon="9.149751728485723"><ele>98.6</ele><time>2026-05-01T09:32:07Z</time></trkpt><trkpt lat="45.014668014253765" lon="9.149732903436059"><ele>99.8</ele><time>2026-05-01T09:32:08Z</time></trkpt><trkpt lat="45.01456946938867" lon="9.149733168615793"><ele>101.0</ele><time>2026-05-01T09:32:09Z</time></trkpt><trkpt lat="45.01446475661961" lon="9.149743587865517"><ele>101.0</ele><time>2026-05-01T09:32:10Z</time></trkpt><trkpt lat="45.0143590279581" lon="9.149754066455516"><ele>101.0</ele><time>2026-05-01T09:32:11Z</time></trkpt><trkpt lat="45.01424795580746" lon="9.149769001907694"><ele>101.0</ele><time>2026-05-01T09:32:12Z</time></trkpt><trkpt lat="45.014137007471895" lon="9.149771597295974"><ele>101.0</ele><time>2026-05-01T09:32:13.001Z</time></trkpt><trkpt lat="45.01402298295067" lon="9.149772103223187"><ele>101.0</ele><time>2026-05-01T09:32:14.001Z</time></trkpt><trkpt lat="45.013914105073034" lon="9.149771869163523"><ele>100.99999999999999</ele><time>2026-05-01T09:32:15.001Z</time></trkpt><trkpt lat="45.013817508611226" lon="9.149772846434512"><ele>101.0</ele><time>2026-05-01T09:32:16.001Z</time></trkpt><trkpt lat="45.01372573811043" lon="9.149776439664707"><ele>101.0</ele><time>2026-05-01T09:32:17.001Z</time></trkpt><trkpt lat="45.01363968978287" lon="9.149748357813017"><ele>101.0</ele><time>2026-05-01T09:32:18.001Z</time></trkpt><trkpt lat="45.0135555881449" lon="9.149756577335546"><ele>100.99999999999999</ele><time>2026-05-01T09:32:19.001Z</time></trkpt><trkpt lat="45.0134808689058" lon="9.149747568094085"><ele>101.0</ele><time>2026-05-01T09:32:20.001Z</time></trkpt><trkpt lat="45.01341261496532" lon="9.14971273799127"><ele>101.0</ele><time>2026-05-01T09:32:21.001Z</time></trkpt><trkpt lat="45.01333596414746" lon="9.14969936506108"><ele>101.0</ele><time>2026-05-01T09:32:22.001Z</time></trkpt><trkpt lat="45.01326543838283" lon="9.149692262472907"><ele>101.0</ele><time>2026-05-01T09:32:23.001Z</time></trkpt><trkpt lat="45.01319130974066" lon="9.149685128379028"><ele>101.0</ele><time>2026-05-01T09:32:24.001Z</time></trkpt><trkpt lat="45.013118919550124" lon="9.14967900733605"><ele>101.0</ele><time>2026-05-01T09:32:25.001Z</time></trkpt><trkpt lat="45.01304415932017" lon="9.1496828863771"><ele>101.0</ele><time>2026-05-01T09:32:26.001Z</time></trkpt><trkpt lat="45.01296799794631" lon="9.149669889634978"><ele>101.0</ele><time>2026-05-01T09:32:27.001Z</time></trkpt><trkpt lat="45.0128857830624" lon="9.149651862492147"><ele>101.19999999999999</ele><time>2026-05-01T09:32:28.001Z</time></trkpt><trkpt lat="45.01279015950958" lon="9.14962640075731"><ele>101.39999999999999</ele><time>2026-05-01T09:32:29.001Z</time></trkpt><trkpt lat="45.0126952169284" lon="9.149605581496528"><ele>101.6</ele><time>2026-05-01T09:32:30.001Z</time></trkpt><trkpt lat="45.01260308379816" lon="9.14958246466623"><ele>101.8</ele><time>2026-05-01T09:32:31.001Z</time></trkpt><trkpt lat="45.012506749016055" lon="9.149549040529664"><ele>102.0</ele><time>2026-05-01T09:32:32.001Z</time></trkpt><trkpt lat="45.01241173562958" lon="9.149519660900614"><ele>103.39999999999999</ele><time>2026-05-01T09:32:33.001Z</time></trkpt><trkpt lat="45.01230650033414" lon="9.149483434579965"><ele>104.8</ele><time>2026-05-01T09:32:34.001Z</time></trkpt><trkpt lat="45.01219695293543" lon="9.149449627332501"><ele>106.2</ele><time>2026-05-01T09:32:35.001Z</time></trkpt><trkpt lat="45.01208722309657" lon="9.149403255913862"><ele>107.6</ele><time>2026-05-01T09:32:36.001Z</time></trkpt><trkpt lat="45.01197861900395" lon="9.149361532439311"><ele>109.0</ele><time>2026-05-01T09:32:37.001Z</time></trkpt><trkpt lat="45.01186754185901" lon="9.149311050091624"><ele>109.0</ele><time>2026-05-01T09:32:38.001Z</time></trkpt><trkpt lat="45.01176207909887" lon="9.14925707123899"><ele>109.0</ele><time>2026-05-01T09:32:39.001Z</time></trkpt><trkpt lat="45.01165737875173" lon="9.14920621971021"><ele>109.0</ele><time>2026-05-01T09:32:40.001Z</time></trkpt><trkpt lat="45.01155323156615" lon="9.149172163825124"><ele>109.0</ele><time>2026-05-01T09:32:41.001Z</time></trkpt><trkpt lat="45.011452862887865" lon="9.149140182545134"><ele>109.0</ele><time>2026-05-01T09:32:42.001Z</time></trkpt><trkpt lat="45.011344803202036" lon="9.149115199501988"><ele>109.0</ele><time>2026-05-01T09:32:43.001Z</time></trkpt><trkpt lat="45.01123013047038" lon="9.14910757140994"><ele>109.0</ele><time>2026-05-01T09:32:44.001Z</time></trkpt><trkpt lat="45.01111013802205" lon="9.14908548684007"><ele>109.0</ele><time>2026-05-01T09:32:45.001Z</time></trkpt><trkpt lat="45.01098673375223" lon="9.149090998293147"><ele>109.0</ele><time>2026-05-01T09:32:46.001Z</time></trkpt><trkpt lat="45.01086868628392" lon="9.149094622294953"><ele>109.0</ele><time>2026-05-01T09:32:47.001Z</time></trkpt><trkpt lat="45.010754323997006" lon="9.149101564462473"><ele>109.0</ele><time>2026-05-01T09:32:48.002Z</time></trkpt><trkpt lat="45.01063947594567" lon="9.149115867853064"><ele>109.0</ele><time>2026-05-01T09:32:49.002Z</time></trkpt><trkpt lat="45.01052849644415" lon="9.149145552698661"><ele>109.0</ele><time>2026-05-01T09:32:50.002Z</time></trkpt><trkpt lat="45.01041175319089" lon="9.149174256438664"><ele>109.0</ele><time>2026-05-01T09:32:51.002Z</time></trkpt><trkpt lat="45.01029157563708" lon="9.149232933964036"><ele>109.0</ele><time>2026-05-01T09:32:52.002Z</time></trkpt><trkpt lat="45.01016743703604" lon="9.149291288950414"><ele>109.0</ele><time>2026-05-01T09:32:53.002Z</time></trkpt><trkpt lat="45.01004570668123" lon="9.149355349261082"><ele>109.0</ele><time>2026-05-01T09:32:54.002Z</time></trkpt><trkpt lat="45.009925048521815" lon="9.149411681802686"><ele>108.4</ele><time>2026-05-01T09:32:55.002Z</time></trkpt><trkpt lat="45.00981787224063" lon="9.149452934539596"><ele>107.80000000000001</ele><time>2026-05-01T09:32:56.002Z</time></trkpt><trkpt lat="45.00971662863899" lon="9.149486357109435"><ele>107.19999999999999</ele><time>2026-05-01T09:32:57.002Z</time></trkpt><trkpt lat="45.00961247656782" lon="9.149529504326587"><ele>106.6</ele><time>2026-05-01T09:32:58.002Z</time></trkpt><trkpt lat="45.00950090592212" lon="9.149582205628663"><ele>106.0</ele><time>2026-05-01T09:32:59.002Z</time></trkpt><trkpt lat="45.009388467060546" lon="9.149620341950174"><ele>106.0</ele><time>2026-05-01T09:33:00.002Z</time></trkpt><trkpt lat="45.00927681256333" lon="9.149663842801711"><ele>106.0</ele><time>2026-05-01T09:33:01.002Z</time></trkpt><trkpt lat="45.009162432628834" lon="9.149702824032495"><ele>106.0</ele><time>2026-05-01T09:33:02.002Z</time></trkpt><trkpt lat="45.00904900625459" lon="9.149761220931335"><ele>106.0</ele><time>2026-05-01T09:33:03.002Z</time></trkpt><trkpt lat="45.00893340468504" lon="9.14981422328101"><ele>105.75</ele><time>2026-05-01T09:33:04.002Z</time></trkpt><trkpt lat="45.008817546654925" lon="9.149874578760196"><ele>105.5</ele><time>2026-05-01T09:33:05.002Z</time></trkpt><trkpt lat="45.008696460170576" lon="9.149937422885207"><ele>105.25</ele><time>2026-05-01T09:33:06.002Z</time></trkpt><trkpt lat="45.00857802803516" lon="9.149998871383177"><ele>105.0</ele><time>2026-05-01T09:33:07.002Z</time></trkpt><trkpt lat="45.00845708459458" lon="9.150064585697487"><ele>105.5</ele><time>2026-05-01T09:33:08.002Z</time></trkpt><trkpt lat="45.00833466119484" lon="9.150130325035564"><ele>106.0</ele><time>2026-05-01T09:33:09.002Z</time></trkpt><trkpt lat="45.00821027517012" lon="9.150180481121144"><ele>106.5</ele><time>2026-05-01T09:33:10.002Z</time></trkpt><trkpt lat="45.008091864196494" lon="9.150241420855068"><ele>107.0</ele><time>2026-05-01T09:33:11.002Z</time></trkpt><trkpt lat="45.007970628228705" lon="9.15030611259293"><ele>107.0</ele><time>2026-05-01T09:33:12.002Z</time></trkpt><trkpt lat="45.00785059648399" lon="9.150372397870283"><ele>107.0</ele><time>2026-05-01T09:33:13.002Z</time></trkpt><trkpt lat="45.007728443627244" lon="9.150433146487504"><ele>107.0</ele><time>2026-05-01T09:33:14.002Z</time></trkpt><trkpt lat="45.00760616827502" lon="9.150491961966507"><ele>107.0</ele><time>2026-05-01T09:33:15.002Z</time></trkpt><trkpt lat="45.007492237325586" lon="9.150545701490985"><ele>107.75</ele><time>2026-05-01T09:33:16.002Z</time></trkpt><trkpt lat="45.00738520332416" lon="9.150600942770557"><ele>108.5</ele><time>2026-05-01T09:33:17.002Z</time></trkpt><trkpt lat="45.00728246630509" lon="9.15067127314468"><ele>109.25</ele><time>2026-05-01T09:33:18.002Z</time></trkpt><trkpt lat="45.00717477374356" lon="9.150741537914433"><ele>110.0</ele><time>2026-05-01T09:33:19.002Z</time></trkpt><trkpt lat="45.00706673955535" lon="9.15081289671973"><ele>110.0</ele><time>2026-05-01T09:33:20.002Z</time></trkpt><trkpt lat="45.00696913212635" lon="9.150886503148973"><ele>110.0</ele><time>2026-05-01T09:33:21.002Z</time></trkpt><trkpt lat="45.0068804353905" lon="9.150967265625585"><ele>110.0</ele><time>2026-05-01T09:33:22.002Z</time></trkpt><trkpt lat="45.0068127433212" lon="9.151045627637908"><ele>110.0</ele><time>2026-05-01T09:33:23.003Z</time></trkpt><trkpt lat="45.006761957172785" lon="9.151103989216564"><ele>110.0</ele><time>2026-05-01T09:33:24.003Z</time></trkpt><trkpt lat="45.00667323375886" lon="9.151214089802302"><ele>109.99999999999999</ele><time>2026-05-01T09:33:26.003Z</time></trkpt><trkpt lat="45.00661616451153" lon="9.151286159986373"><ele>110.0</ele><time>2026-05-01T09:33:27.003Z</time></trkpt><trkpt lat="45.00657367535624" lon="9.151356936719596"><ele>110.0</ele><time>2026-05-01T09:33:28.003Z</time></trkpt><trkpt lat="45.00652497042158" lon="9.151435267633257"><ele>110.0</ele><time>2026-05-01T09:33:29.003Z</time></trkpt><trkpt lat="45.00648590059594" lon="9.151508974900237"><ele>110.0</ele><time>2026-05-01T09:33:30.003Z</time></trkpt><trkpt lat="45.00643201636827" lon="9.151586573489505"><ele>109.99999999999999</ele><time>2026-05-01T09:33:31.003Z</time></trkpt><trkpt lat="45.00638804440644" lon="9.15168322010695"><ele>110.0</ele><time>2026-05-01T09:33:32.003Z</time></trkpt><trkpt lat="45.00633987567134" lon="9.15176817824209"><ele>109.99999999999999</ele><time>2026-05-01T09:33:33.003Z</time></trkpt><trkpt lat="45.00629190714709" lon="9.151861145469908"><ele>110.0</ele><time>2026-05-01T09:33:34.003Z</time></trkpt><trkpt lat="45.00624845668619" lon="9.151958415313052"><ele>110.0</ele><time>2026-05-01T09:33:35.003Z</time></trkpt><trkpt lat="45.00619037281377" lon="9.152050663318601"><ele>110.0</ele><time>2026-05-01T09:33:36.003Z</time></trkpt><trkpt lat="45.00613373346794" lon="9.152151472440533"><ele>109.99999999999999</ele><time>2026-05-01T09:33:37.003Z</time></trkpt><trkpt lat="45.006073580510765" lon="9.152249014097496"><ele>110.0</ele><time>2026-05-01T09:33:38.003Z</time></trkpt><trkpt lat="45.00601033858486" lon="9.152344070941679"><ele>110.6</ele><time>2026-05-01T09:33:39.003Z</time></trkpt><trkpt lat="45.00595267374344" lon="9.152420161417623"><ele>111.2</ele><time>2026-05-01T09:33:40.003Z</time></trkpt><trkpt lat="45.005890396520876" lon="9.15250188153451"><ele>111.80000000000001</ele><time>2026-05-01T09:33:41Z</time></trkpt><trkpt lat="45.00582401175369" lon="9.152597763805252"><ele>112.4</ele><time>2026-05-01T09:33:42Z</time></trkpt><trkpt lat="45.00575189614855" lon="9.15269281701424"><ele>113.0</ele><time>2026-05-01T09:33:43Z</time></trkpt><trkpt lat="45.00567365902835" lon="9.152782885984788"><ele>113.0</ele><time>2026-05-01T09:33:44Z</time></trkpt><trkpt lat="45.005602532498905" lon="9.152884835173493"><ele>113.00000000000001</ele><time>2026-05-01T09:33:45Z</time></trkpt><trkpt lat="45.0055379708763" lon="9.152960227776138"><ele>113.00000000000001</ele><time>2026-05-01T09:33:46Z</time></trkpt><trkpt lat="45.00546867213353" lon="9.15304560030931"><ele>113.0</ele><time>2026-05-01T09:33:47Z</time></trkpt><trkpt lat="45.00540761539092" lon="9.153141351678071"><ele>113.0</ele><time>2026-05-01T09:33:48Z</time></trkpt><trkpt lat="45.005355402657756" lon="9.153244091026805"><ele>113.16666666666666</ele><time>2026-05-01T09:33:49Z</time></trkpt><trkpt lat="45.00531491889697" lon="9.153374677583242"><ele>113.33333333333333</ele><time>2026-05-01T09:33:50Z</time></trkpt><trkpt lat="45.00527968361307" lon="9.153505795504085"><ele>113.5</ele><time>2026-05-01T09:33:51Z</time></trkpt><trkpt lat="45.00525672086203" lon="9.153630646853259"><ele>113.66666666666666</ele><time>2026-05-01T09:33:52Z</time></trkpt><trkpt lat="45.00520516294569" lon="9.15371994067023"><ele>113.83333333333333</ele><time>2026-05-01T09:33:53Z</time></trkpt><trkpt lat="45.00516536334324" lon="9.153792458509036"><ele>114.0</ele><time>2026-05-01T09:33:54Z</time></trkpt><trkpt lat="45.00509020449624" lon="9.153870580222172"><ele>114.0</ele><time>2026-05-01T09:33:55Z</time></trkpt><trkpt lat="45.00499950059454" lon="9.15394841981232"><ele>114.0</ele><time>2026-05-01T09:33:56Z</time></trkpt><trkpt lat="45.00491526587148" lon="9.154039801803464"><ele>114.0</ele><time>2026-05-01T09:33:57Z</time></trkpt><trkpt lat="45.00483762060604" lon="9.154142650439358"><ele>114.0</ele><time>2026-05-01T09:33:58Z</time></trkpt><trkpt lat="45.004774981070945" lon="9.154244639792642"><ele>114.0</ele><time>2026-05-01T09:33:59Z</time></trkpt><trkpt lat="45.00470397352149" lon="9.154354948611525"><ele>114.2</ele><time>2026-05-01T09:34:00Z</time></trkpt><trkpt lat="45.004624419750066" lon="9.154459976928022"><ele>114.4</ele><time>2026-05-01T09:34:01.001Z</time></trkpt><trkpt lat="45.00454904153241" lon="9.154574446257506"><ele>114.6</ele><time>2026-05-01T09:34:02.001Z</time></trkpt><trkpt lat="45.0044687910308" lon="9.154680110897152"><ele>114.8</ele><time>2026-05-01T09:34:03.001Z</time></trkpt><trkpt lat="45.00438699185454" lon="9.15476639993871"><ele>115.0</ele><time>2026-05-01T09:34:04.001Z</time></trkpt><trkpt lat="45.00432125131248" lon="9.154874424908574"><ele>115.4</ele><time>2026-05-01T09:34:05.001Z</time></trkpt><trkpt lat="45.00425082773076" lon="9.154968032652738"><ele>115.8</ele><time>2026-05-01T09:34:06.001Z</time></trkpt><trkpt lat="45.00418476645714" lon="9.15508090169475"><ele>116.19999999999999</ele><time>2026-05-01T09:34:07.001Z</time></trkpt><trkpt lat="45.004114728460195" lon="9.155198203531052"><ele>116.6</ele><time>2026-05-01T09:34:08.001Z</time></trkpt><trkpt lat="45.00405383325452" lon="9.155333574488688"><ele>117.0</ele><time>2026-05-01T09:34:09.001Z</time></trkpt><trkpt lat="45.003985357226824" lon="9.155484601903067"><ele>117.0</ele><time>2026-05-01T09:34:10.001Z</time></trkpt><trkpt lat="45.00393310602995" lon="9.15563648372058"><ele>117.0</ele><time>2026-05-01T09:34:11.001Z</time></trkpt><trkpt lat="45.003868486750136" lon="9.155796134383545"><ele>117.0</ele><time>2026-05-01T09:34:12.001Z</time></trkpt><trkpt lat="45.00380343877757" lon="9.155949778336364"><ele>117.0</ele><time>2026-05-01T09:34:13.001Z</time></trkpt><trkpt lat="45.00372671525333" lon="9.156100250078271"><ele>117.5</ele><time>2026-05-01T09:34:14.001Z</time></trkpt><trkpt lat="45.00366485107011" lon="9.15624647727401"><ele>118.0</ele><time>2026-05-01T09:34:15.001Z</time></trkpt><trkpt lat="45.003608606705896" lon="9.156383295398998"><ele>118.5</ele><time>2026-05-01T09:34:16.001Z</time></trkpt><trkpt lat="45.00353620702483" lon="9.156514118989607"><ele>119.0</ele><time>2026-05-01T09:34:17.001Z</time></trkpt><trkpt lat="45.003464475290194" lon="9.156616950696185"><ele>119.80000000000001</ele><time>2026-05-01T09:34:18.001Z</time></trkpt><trkpt lat="45.003399476886614" lon="9.156712727646045"><ele>120.60000000000001</ele><time>2026-05-01T09:34:19.001Z</time></trkpt><trkpt lat="45.003318111238436" lon="9.156767912186666"><ele>121.4</ele><time>2026-05-01T09:34:20.001Z</time></trkpt><trkpt lat="45.003242412652895" lon="9.156866542602637"><ele>122.2</ele><time>2026-05-01T09:34:21.001Z</time></trkpt><trkpt lat="45.003166128000125" lon="9.156926424611955"><ele>123.0</ele><time>2026-05-01T09:34:22.001Z</time></trkpt><trkpt lat="45.00307174230834" lon="9.156991709077076"><ele>123.2</ele><time>2026-05-01T09:34:23.001Z</time></trkpt><trkpt lat="45.002987048177296" lon="9.157070813371897"><ele>123.4</ele><time>2026-05-01T09:34:24.001Z</time></trkpt><trkpt lat="45.00290178319066" lon="9.157118027258718"><ele>123.60000000000001</ele><time>2026-05-01T09:34:25.001Z</time></trkpt><trkpt lat="45.002813990563844" lon="9.157193471418287"><ele>123.80000000000001</ele><time>2026-05-01T09:34:26.001Z</time></trkpt><trkpt lat="45.00272498926577" lon="9.157250970221073"><ele>124.0</ele><time>2026-05-01T09:34:27.001Z</time></trkpt><trkpt lat="45.002640165554304" lon="9.157301690352012"><ele>123.4</ele><time>2026-05-01T09:34:28.001Z</time></trkpt><trkpt lat="45.00256451263351" lon="9.157400707488385"><ele>122.80000000000001</ele><time>2026-05-01T09:34:29.001Z</time></trkpt><trkpt lat="45.00249940436464" lon="9.157502284994921"><ele>122.19999999999999</ele><time>2026-05-01T09:34:30.001Z</time></trkpt><trkpt lat="45.0024363235376" lon="9.157628272808557"><ele>121.6</ele><time>2026-05-01T09:34:31.001Z</time></trkpt><trkpt lat="45.00237789129614" lon="9.157754092617573"><ele>121.0</ele><time>2026-05-01T09:34:32.001Z</time></trkpt><trkpt lat="45.00233243520193" lon="9.157856382387035"><ele>122.6</ele><time>2026-05-01T09:34:33.001Z</time></trkpt><trkpt lat="45.00229134978629" lon="9.15797223378445"><ele>124.19999999999999</ele><time>2026-05-01T09:34:34.001Z</time></trkpt><trkpt lat="45.00224848923979" lon="9.158110750411076"><ele>125.80000000000001</ele><time>2026-05-01T09:34:35.001Z</time></trkpt><trkpt lat="45.00222663848803" lon="9.158249755701954"><ele>127.4</ele><time>2026-05-01T09:34:36.001Z</time></trkpt><trkpt lat="45.00220109024904" lon="9.158396400002562"><ele>129.0</ele><time>2026-05-01T09:34:37.001Z</time></trkpt><trkpt lat="45.00220399740173" lon="9.158543696328762"><ele>129.0</ele><time>2026-05-01T09:34:38.001Z</time></trkpt><trkpt lat="45.00218233448547" lon="9.158691639455409"><ele>129.0</ele><time>2026-05-01T09:34:39.001Z</time></trkpt><trkpt lat="45.00217283598779" lon="9.158842624055072"><ele>129.0</ele><time>2026-05-01T09:34:40.001Z</time></trkpt><trkpt lat="45.002149927183154" lon="9.159000523370956"><ele>129.0</ele><time>2026-05-01T09:34:41.002Z</time></trkpt><trkpt lat="45.00213048719895" lon="9.159152696146311"><ele>129.0</ele><time>2026-05-01T09:34:42.002Z</time></trkpt><trkpt lat="45.002107704231186" lon="9.159290344683528"><ele>127.80000000000001</ele><time>2026-05-01T09:34:43.002Z</time></trkpt><trkpt lat="45.00209387460725" lon="9.159442293558374"><ele>126.60000000000001</ele><time>2026-05-01T09:34:44.002Z</time></trkpt><trkpt lat="45.00208297214616" lon="9.159587708468244"><ele>125.4</ele><time>2026-05-01T09:34:45.002Z</time></trkpt><trkpt lat="45.00205217877537" lon="9.159744980600914"><ele>124.2</ele><time>2026-05-01T09:34:46.002Z</time></trkpt><trkpt lat="45.002025524253284" lon="9.159899071538426"><ele>123.0</ele><time>2026-05-01T09:34:47.002Z</time></trkpt><trkpt lat="45.00200558469409" lon="9.160057356543033"><ele>123.0</ele><time>2026-05-01T09:34:48.002Z</time></trkpt><trkpt lat="45.0019594579312" lon="9.160203111884075"><ele>123.0</ele><time>2026-05-01T09:34:49.002Z</time></trkpt><trkpt lat="45.00192509253285" lon="9.160363957166906"><ele>123.0</ele><time>2026-05-01T09:34:50.002Z</time></trkpt><trkpt lat="45.00187996402385" lon="9.160523445207058"><ele>123.0</ele><time>2026-05-01T09:34:51.002Z</time></trkpt><trkpt lat="45.001838240563046" lon="9.160688538094202"><ele>123.75</ele><time>2026-05-01T09:34:52.002Z</time></trkpt><trkpt lat="45.001808876262984" lon="9.160853306407459"><ele>124.5</ele><time>2026-05-01T09:34:53.002Z</time></trkpt><trkpt lat="45.0017627214422" lon="9.161018799619956"><ele>125.25</ele><time>2026-05-01T09:34:54.002Z</time></trkpt><trkpt lat="45.001736003034395" lon="9.161179711430707"><ele>126.0</ele><time>2026-05-01T09:34:55.002Z</time></trkpt><trkpt lat="45.001697878291004" lon="9.161347585694488"><ele>127.25</ele><time>2026-05-01T09:34:56.002Z</time></trkpt><trkpt lat="45.00166203512805" lon="9.16151309125234"><ele>128.5</ele><time>2026-05-01T09:34:57.002Z</time></trkpt><trkpt lat="45.0016131756613" lon="9.16167716865164"><ele>129.75</ele><time>2026-05-01T09:34:58.002Z</time></trkpt><trkpt lat="45.00157412654804" lon="9.161860103702017"><ele>131.0</ele><time>2026-05-01T09:34:59.002Z</time></trkpt><trkpt lat="45.00154059412939" lon="9.162052596101896"><ele>131.0</ele><time>2026-05-01T09:35:00.002Z</time></trkpt><trkpt lat="45.00150328277697" lon="9.16227320967252"><ele>131.0</ele><time>2026-05-01T09:35:01.002Z</time></trkpt><trkpt lat="45.0014570549368" lon="9.162505299858276"><ele>131.0</ele><time>2026-05-01T09:35:02.002Z</time></trkpt><trkpt lat="45.0014150028814" lon="9.162704375729845"><ele>131.0</ele><time>2026-05-01T09:35:03.002Z</time></trkpt><trkpt lat="45.00137814399827" lon="9.162888961770388"><ele>131.0</ele><time>2026-05-01T09:35:04.002Z</time></trkpt><trkpt lat="45.00134117183749" lon="9.16306610126292"><ele>131.0</ele><time>2026-05-01T09:35:05.002Z</time></trkpt><trkpt lat="45.001302621677254" lon="9.163241172981726"><ele>131.0</ele><time>2026-05-01T09:35:06.002Z</time></trkpt><trkpt lat="45.00125564095841" lon="9.163419512757798"><ele>131.0</ele><time>2026-05-01T09:35:07.002Z</time></trkpt><trkpt lat="45.00120869956685" lon="9.163590147427936"><ele>131.0</ele><time>2026-05-01T09:35:08.002Z</time></trkpt><trkpt lat="45.00116415334308" lon="9.163763923253336"><ele>131.0</ele><time>2026-05-01T09:35:09.002Z</time></trkpt><trkpt lat="45.00112037217773" lon="9.163938745382774"><ele>131.0</ele><time>2026-05-01T09:35:10.002Z</time></trkpt><trkpt lat="45.00107370467704" lon="9.164111688056318"><ele>130.2</ele><time>2026-05-01T09:35:11.002Z</time></trkpt><trkpt lat="45.00103626225901" lon="9.16426430888412"><ele>129.39999999999998</ele><time>2026-05-01T09:35:12.002Z</time></trkpt><trkpt lat="45.00101921284393" lon="9.164424070263623"><ele>128.6</ele><time>2026-05-01T09:35:13.002Z</time></trkpt><trkpt lat="45.000995242376824" lon="9.164564284354478"><ele>127.8</ele><time>2026-05-01T09:35:14.002Z</time></trkpt><trkpt lat="45.00098398882151" lon="9.164690156139061"><ele>127.0</ele><time>2026-05-01T09:35:15.002Z</time></trkpt><trkpt lat="45.000960982955874" lon="9.164808324541312"><ele>126.6</ele><time>2026-05-01T09:35:16.002Z</time></trkpt><trkpt lat="45.000903089536976" lon="9.164932783841259"><ele>126.19999999999999</ele><time>2026-05-01T09:35:17.002Z</time></trkpt><trkpt lat="45.000876709366125" lon="9.165032590291796"><ele>125.8</ele><time>2026-05-01T09:35:18.003Z</time></trkpt><trkpt lat="45.000834968398024" lon="9.165114157553687"><ele>125.4</ele><time>2026-05-01T09:35:19.003Z</time></trkpt><trkpt lat="45.000734676175014" lon="9.165235538898571"><ele>125.0</ele><time>2026-05-01T09:35:20.003Z</time></trkpt><trkpt lat="45.00063457888271" lon="9.16534597538708"><ele>126.5</ele><time>2026-05-01T09:35:21.003Z</time></trkpt><trkpt lat="45.00053340544926" lon="9.165455372972403"><ele>128.0</ele><time>2026-05-01T09:35:22.003Z</time></trkpt><trkpt lat="45.00044580799494" lon="9.165581523131804"><ele>129.5</ele><time>2026-05-01T09:35:23.003Z</time></trkpt><trkpt lat="45.000357626864286" lon="9.165727920781519"><ele>131.0</ele><time>2026-05-01T09:35:24.003Z</time></trkpt><trkpt lat="45.00026875403937" lon="9.165911431541009"><ele>131.0</ele><time>2026-05-01T09:35:25.003Z</time></trkpt><trkpt lat="45.00019166737552" lon="9.166060223927259"><ele>131.0</ele><time>2026-05-01T09:35:26.003Z</time></trkpt><trkpt lat="45.0001224963289" lon="9.166187196907199"><ele>131.0</ele><time>2026-05-01T09:35:27.003Z</time></trkpt><trkpt lat="45.00006284878104" lon="9.166303938037998"><ele>131.0</ele><time>2026-05-01T09:35:28.003Z</time></trkpt><trkpt lat="45.00000002531774" lon="9.16643252435926"><ele>130.66666666666666</ele><time>2026-05-01T09:35:29.003Z</time></trkpt><trkpt lat="44.99992891567919" lon="9.166548230481716"><ele>130.33333333333331</ele><time>2026-05-01T09:35:30.003Z</time></trkpt><trkpt lat="44.999866836431686" lon="9.166645529453447"><ele>130.0</ele><time>2026-05-01T09:35:31.003Z</time></trkpt><trkpt lat="44.99980366034685" lon="9.166716126229828"><ele>129.66666666666666</ele><time>2026-05-01T09:35:32.003Z</time></trkpt><trkpt lat="44.99973989028113" lon="9.166782275126128"><ele>129.33333333333334</ele><time>2026-05-01T09:35:33.003Z</time></trkpt><trkpt lat="44.999679278554105" lon="9.166812419483806"><ele>129.0</ele><time>2026-05-01T09:35:34.003Z</time></trkpt><trkpt lat="44.999566590140155" lon="9.16689916291836"><ele>129.0</ele><time>2026-05-01T09:35:36.003Z</time></trkpt><trkpt lat="44.999522314800345" lon="9.16700018242136"><ele>129.0</ele><time>2026-05-01T09:35:37.003Z</time></trkpt><trkpt lat="44.99947997081845" lon="9.167111391558132"><ele>129.0</ele><time>2026-05-01T09:35:38.003Z</time></trkpt><trkpt lat="44.9994536614845" lon="9.167219635787939"><ele>129.0</ele><time>2026-05-01T09:35:39.003Z</time></trkpt><trkpt lat="44.99942696876889" lon="9.167339776907863"><ele>129.0</ele><time>2026-05-01T09:35:40.003Z</time></trkpt><trkpt lat="44.99939375790615" lon="9.167468701250085"><ele>129.0</ele><time>2026-05-01T09:35:41.003Z</time></trkpt><trkpt lat="44.999363214006706" lon="9.167570710877948"><ele>129.0</ele><time>2026-05-01T09:35:42.003Z</time></trkpt><trkpt lat="44.99930109008424" lon="9.167701247395664"><ele>129.0</ele><time>2026-05-01T09:35:43.003Z</time></trkpt><trkpt lat="44.99925310320879" lon="9.16781170028549"><ele>129.0</ele><time>2026-05-01T09:35:44.003Z</time></trkpt><trkpt lat="44.99918952566141" lon="9.167902909454108"><ele>129.0</ele><time>2026-05-01T09:35:45.003Z</time></trkpt><trkpt lat="44.99910603456112" lon="9.167993422641405"><ele>129.0</ele><time>2026-05-01T09:35:46.003Z</time></trkpt><trkpt lat="44.999014872218766" lon="9.168076420658252"><ele>129.6</ele><time>2026-05-01T09:35:47.001Z</time></trkpt><trkpt lat="44.99891882889358" lon="9.168146407262574"><ele>130.2</ele><time>2026-05-01T09:35:48.001Z</time></trkpt><trkpt lat="44.998822337327866" lon="9.168218226412346"><ele>130.79999999999998</ele><time>2026-05-01T09:35:49.001Z</time></trkpt><trkpt lat="44.998726964553946" lon="9.168289907323372"><ele>131.4</ele><time>2026-05-01T09:35:50.001Z</time></trkpt><trkpt lat="44.99863001605923" lon="9.168363034853321"><ele>132.0</ele><time>2026-05-01T09:35:51.001Z</time></trkpt><trkpt lat="44.99853727190218" lon="9.16844020489352"><ele>132.0</ele><time>2026-05-01T09:35:52.001Z</time></trkpt><trkpt lat="44.99844281235422" lon="9.168524122780342"><ele>132.0</ele><time>2026-05-01T09:35:53.001Z</time></trkpt><trkpt lat="44.99834827451835" lon="9.168609109847301"><ele>132.0</ele><time>2026-05-01T09:35:54.001Z</time></trkpt><trkpt lat="44.99825825317498" lon="9.168698160292795"><ele>132.0</ele><time>2026-05-01T09:35:55.001Z</time></trkpt><trkpt lat="44.99817323019056" lon="9.168793218827025"><ele>132.0</ele><time>2026-05-01T09:35:56.001Z</time></trkpt><trkpt lat="44.99808679230221" lon="9.168898699539245"><ele>132.5</ele><time>2026-05-01T09:35:57.001Z</time></trkpt><trkpt lat="44.9980056795497" lon="9.169014539149323"><ele>133.0</ele><time>2026-05-01T09:35:58.001Z</time></trkpt><trkpt lat="44.99792910585684" lon="9.169135898139338"><ele>133.5</ele><time>2026-05-01T09:35:59.001Z</time></trkpt><trkpt lat="44.997856832679105" lon="9.169258091033191"><ele>134.0</ele><time>2026-05-01T09:36:00.001Z</time></trkpt><trkpt lat="44.99778828451588" lon="9.169392739184964"><ele>134.0</ele><time>2026-05-01T09:36:01.001Z</time></trkpt><trkpt lat="44.997726211140204" lon="9.16953809346587"><ele>134.0</ele><time>2026-05-01T09:36:02.001Z</time></trkpt><trkpt lat="44.997662118380845" lon="9.169682932501155"><ele>134.0</ele><time>2026-05-01T09:36:03.001Z</time></trkpt><trkpt lat="44.99760617856961" lon="9.169834236115747"><ele>134.0</ele><time>2026-05-01T09:36:04.001Z</time></trkpt><trkpt lat="44.99753912930882" lon="9.170004545039445"><ele>136.0</ele><time>2026-05-01T09:36:05.001Z</time></trkpt><trkpt lat="44.997483061226596" lon="9.170153995800272"><ele>138.0</ele><time>2026-05-01T09:36:06.001Z</time></trkpt><trkpt lat="44.99741950239402" lon="9.170299778739825"><ele>140.0</ele><time>2026-05-01T09:36:07.001Z</time></trkpt><trkpt lat="44.99734230261923" lon="9.170457659784216"><ele>142.0</ele><time>2026-05-01T09:36:08.001Z</time></trkpt><trkpt lat="44.99725367518001" lon="9.170610818944434"><ele>140.5</ele><time>2026-05-01T09:36:09.001Z</time></trkpt><trkpt lat="44.99716066729592" lon="9.170766028276821"><ele>139.0</ele><time>2026-05-01T09:36:10.001Z</time></trkpt><trkpt lat="44.99706007048134" lon="9.170908129872817"><ele>137.5</ele><time>2026-05-01T09:36:11.001Z</time></trkpt><trkpt lat="44.996960960784975" lon="9.171050940900132"><ele>136.0</ele><time>2026-05-01T09:36:12.001Z</time></trkpt><trkpt lat="44.996858908787964" lon="9.171192530661282"><ele>136.0</ele><time>2026-05-01T09:36:13.001Z</time></trkpt><trkpt lat="44.996754230727724" lon="9.171327851344431"><ele>136.0</ele><time>2026-05-01T09:36:14.001Z</time></trkpt><trkpt lat="44.996646531795555" lon="9.17145269061654"><ele>136.0</ele><time>2026-05-01T09:36:15.001Z</time></trkpt><trkpt lat="44.99653999714265" lon="9.171558446785705"><ele>136.0</ele><time>2026-05-01T09:36:16.001Z</time></trkpt><trkpt lat="44.99643494133565" lon="9.17165230401491"><ele>137.2</ele><time>2026-05-01T09:36:17.001Z</time></trkpt><trkpt lat="44.99633422094223" lon="9.171741593984052"><ele>138.39999999999998</ele><time>2026-05-01T09:36:18.001Z</time></trkpt><trkpt lat="44.99625775122197" lon="9.171828938220356"><ele>139.6</ele><time>2026-05-01T09:36:19.001Z</time></trkpt><trkpt lat="44.99618715980886" lon="9.171935878148469"><ele>140.79999999999998</ele><time>2026-05-01T09:36:20.001Z</time></trkpt><trkpt lat="44.996130730302184" lon="9.172034760829167"><ele>142.0</ele><time>2026-05-01T09:36:21.001Z</time></trkpt><trkpt lat="44.99608891941004" lon="9.17213908547965"><ele>142.0</ele><time>2026-05-01T09:36:22.001Z</time></trkpt><trkpt lat="44.99606074136351" lon="9.172228218147989"><ele>142.0</ele><time>2026-05-01T09:36:23.001Z</time></trkpt><trkpt lat="44.996039314034114" lon="9.172338680538617"><ele>142.0</ele><time>2026-05-01T09:36:24.001Z</time></trkpt><trkpt lat="44.99601823166993" lon="9.172472213249094"><ele>142.0</ele><time>2026-05-01T09:36:25.001Z</time></trkpt><trkpt lat="44.99600825392019" lon="9.17262279405646"><ele>142.0</ele><time>2026-05-01T09:36:26.001Z</time></trkpt><trkpt lat="44.996002654135346" lon="9.17278283126166"><ele>141.6</ele><time>2026-05-01T09:36:27.001Z</time></trkpt><trkpt lat="44.99600206132196" lon="9.172944707879152"><ele>141.2</ele><time>2026-05-01T09:36:28.001Z</time></trkpt><trkpt lat="44.99599617208793" lon="9.173087794050385"><ele>140.8</ele><time>2026-05-01T09:36:29.001Z</time></trkpt><trkpt lat="44.99599057002767" lon="9.173218162663002"><ele>140.4</ele><time>2026-05-01T09:36:30.001Z</time></trkpt><trkpt lat="44.99597890821464" lon="9.173346626740317"><ele>140.0</ele><time>2026-05-01T09:36:31.001Z</time></trkpt><trkpt lat="44.99594251770996" lon="9.173469862601904"><ele>140.0</ele><time>2026-05-01T09:36:32.001Z</time></trkpt><trkpt lat="44.99588688901557" lon="9.173588611565327"><ele>140.0</ele><time>2026-05-01T09:36:33.001Z</time></trkpt><trkpt lat="44.99581486729461" lon="9.173700463213933"><ele>140.0</ele><time>2026-05-01T09:36:34.001Z</time></trkpt><trkpt lat="44.99573526745952" lon="9.173811960818336"><ele>140.0</ele><time>2026-05-01T09:36:35.001Z</time></trkpt><trkpt lat="44.99564925321996" lon="9.173907132374401"><ele>140.0</ele><time>2026-05-01T09:36:36.001Z</time></trkpt><trkpt lat="44.99556630780651" lon="9.173992716405444"><ele>140.33333333333331</ele><time>2026-05-01T09:36:37.001Z</time></trkpt><trkpt lat="44.99550592067397" lon="9.174089007440228"><ele>140.66666666666666</ele><time>2026-05-01T09:36:38.002Z</time></trkpt><trkpt lat="44.995453948916484" lon="9.174169930026952"><ele>141.0</ele><time>2026-05-01T09:36:39.002Z</time></trkpt><trkpt lat="44.995391666973305" lon="9.17426994576071"><ele>141.33333333333334</ele><time>2026-05-01T09:36:41.002Z</time></trkpt><trkpt lat="44.995315889675716" lon="9.174352911235287"><ele>141.66666666666669</ele><time>2026-05-01T09:37:11.002Z</time></trkpt><trkpt lat="44.99525482641997" lon="9.174377013552602"><ele>142.0</ele><time>2026-05-01T09:37:12.002Z</time></trkpt><trkpt lat="44.995172316730546" lon="9.174392585891168"><ele>142.0</ele><time>2026-05-01T09:37:13.002Z</time></trkpt><trkpt lat="44.995094806440775" lon="9.174391913196732"><ele>142.0</ele><time>2026-05-01T09:37:14.002Z</time></trkpt><trkpt lat="44.99501083613881" lon="9.174397736874921"><ele>142.0</ele><time>2026-05-01T09:37:15.002Z</time></trkpt><trkpt lat="44.99491283443759" lon="9.174405385945828"><ele>142.0</ele><time>2026-05-01T09:37:16.002Z</time></trkpt><trkpt lat="44.99480746303988" lon="9.174414504354067"><ele>142.0</ele><time>2026-05-01T09:37:17.002Z</time></trkpt><trkpt lat="44.99469709873286" lon="9.174419555214614"><ele>143.2</ele><time>2026-05-01T09:37:18.002Z</time></trkpt><trkpt lat="44.9945969252616" lon="9.174420257437465"><ele>144.39999999999998</ele><time>2026-05-01T09:37:19.002Z</time></trkpt><trkpt lat="44.99449795537244" lon="9.1744219901034"><ele>145.60000000000002</ele><time>2026-05-01T09:37:20.002Z</time></trkpt><trkpt lat="44.99439142684868" lon="9.1744294724944"><ele>146.8</ele><time>2026-05-01T09:37:21.002Z</time></trkpt><trkpt lat="44.99428385260224" lon="9.174437839289725"><ele>148.0</ele><time>2026-05-01T09:37:22.003Z</time></trkpt><trkpt lat="44.99417654076898" lon="9.174446817163608"><ele>147.66666666666669</ele><time>2026-05-01T09:37:23.003Z</time></trkpt><trkpt lat="44.99408139728184" lon="9.174458172124442"><ele>147.33333333333334</ele><time>2026-05-01T09:37:24.003Z</time></trkpt><trkpt lat="44.99399662225026" lon="9.17446598725196"><ele>147.0</ele><time>2026-05-01T09:37:25.003Z</time></trkpt><trkpt lat="44.99392445341961" lon="9.174475559087536"><ele>146.66666666666666</ele><time>2026-05-01T09:37:26.003Z</time></trkpt><trkpt lat="44.99385685167463" lon="9.174478773036903"><ele>146.33333333333331</ele><time>2026-05-01T09:37:27.003Z</time></trkpt><trkpt lat="44.99378963436745" lon="9.17448687733223"><ele>146.0</ele><time>2026-05-01T09:37:28.003Z</time></trkpt><trkpt lat="44.993715097929496" lon="9.174504378686452"><ele>146.0</ele><time>2026-05-01T09:37:29.003Z</time></trkpt><trkpt lat="44.99363173269855" lon="9.174521669103916"><ele>146.0</ele><time>2026-05-01T09:37:30.003Z</time></trkpt><trkpt lat="44.99352647203123" lon="9.17452421873788"><ele>146.0</ele><time>2026-05-01T09:37:31.003Z</time></trkpt><trkpt lat="44.99341143637567" lon="9.174524400292986"><ele>146.0</ele><time>2026-05-01T09:37:32.003Z</time></trkpt><trkpt lat="44.99329170998036" lon="9.174533542538347"><ele>146.0</ele><time>2026-05-01T09:37:33.003Z</time></trkpt><trkpt lat="44.99316017924715" lon="9.174552594775568"><ele>146.5</ele><time>2026-05-01T09:37:34.003Z</time></trkpt><trkpt lat="44.99302447759024" lon="9.174585567692903"><ele>147.0</ele><time>2026-05-01T09:37:35.003Z</time></trkpt><trkpt lat="44.99289099205085" lon="9.174622541454898"><ele>147.5</ele><time>2026-05-01T09:37:36.003Z</time></trkpt><trkpt lat="44.992770706236946" lon="9.174660066546359"><ele>148.0</ele><time>2026-05-01T09:37:37.003Z</time></trkpt><trkpt lat="44.99266673519995" lon="9.174684729195262"><ele>148.0</ele><time>2026-05-01T09:37:38.003Z</time></trkpt><trkpt lat="44.9925709691223" lon="9.17468995542947"><ele>148.0</ele><time>2026-05-01T09:37:39.003Z</time></trkpt><trkpt lat="44.9924770509922" lon="9.17468010021097"><ele>148.0</ele><time>2026-05-01T09:37:40.003Z</time></trkpt><trkpt lat="44.99238613008128" lon="9.174626488782069"><ele>148.0</ele><time>2026-05-01T09:37:41.003Z</time></trkpt><trkpt lat="44.9922988619984" lon="9.174544008002512"><ele>148.0</ele><time>2026-05-01T09:37:42.003Z</time></trkpt><trkpt lat="44.992212353888135" lon="9.174448297825865"><ele>148.5</ele><time>2026-05-01T09:37:43.003Z</time></trkpt><trkpt lat="44.992118964946414" lon="9.174354776973322"><ele>149.0</ele><time>2026-05-01T09:37:44.003Z</time></trkpt><trkpt lat="44.992013712521256" lon="9.174276172047708"><ele>149.5</ele><time>2026-05-01T09:37:45.003Z</time></trkpt><trkpt lat="44.99189910085235" lon="9.174212220925114"><ele>150.0</ele><time>2026-05-01T09:37:46.003Z</time></trkpt><trkpt lat="44.99177967772578" lon="9.17415478605532"><ele>151.75</ele><time>2026-05-01T09:37:47.003Z</time></trkpt><trkpt lat="44.99165989863446" lon="9.17409288752378"><ele>153.5</ele><time>2026-05-01T09:37:48.003Z</time></trkpt><trkpt lat="44.99153424951297" lon="9.174057445938471"><ele>155.25</ele><time>2026-05-01T09:37:49.003Z</time></trkpt><trkpt lat="44.991407691301" lon="9.174047181506833"><ele>157.0</ele><time>2026-05-01T09:37:50.003Z</time></trkpt><trkpt lat="44.991288278480695" lon="9.174050580606426"><ele>157.0</ele><time>2026-05-01T09:37:51.003Z</time></trkpt><trkpt lat="44.99118651618587" lon="9.174055817687762"><ele>157.0</ele><time>2026-05-01T09:37:52.003Z</time></trkpt><trkpt lat="44.9910965253002" lon="9.174044187016696"><ele>157.0</ele><time>2026-05-01T09:37:53.002Z</time></trkpt><trkpt lat="44.99100837301182" lon="9.174010120887106"><ele>157.0</ele><time>2026-05-01T09:37:54.002Z</time></trkpt><trkpt lat="44.99091418960587" lon="9.173942395446666"><ele>157.0</ele><time>2026-05-01T09:37:55.002Z</time></trkpt><trkpt lat="44.99081579896594" lon="9.173853828826498"><ele>162.75</ele><time>2026-05-01T09:37:56.002Z</time></trkpt><trkpt lat="44.9907118931513" lon="9.173761982701206"><ele>168.5</ele><time>2026-05-01T09:37:57.002Z</time></trkpt><trkpt lat="44.990601883893554" lon="9.173679957379495"><ele>174.25</ele><time>2026-05-01T09:37:58.002Z</time></trkpt><trkpt lat="44.99049157049757" lon="9.173611261359866"><ele>180.0</ele><time>2026-05-01T09:37:59.002Z</time></trkpt><trkpt lat="44.9903882581179" lon="9.173549874379992"><ele>180.0</ele><time>2026-05-01T09:38:00.002Z</time></trkpt><trkpt lat="44.99029887431095" lon="9.173485764221823"><ele>180.0</ele><time>2026-05-01T09:38:01.002Z</time></trkpt><trkpt lat="44.99021262355249" lon="9.173405260081836"><ele>180.0</ele><time>2026-05-01T09:38:02.002Z</time></trkpt><trkpt lat="44.990131958069384" lon="9.173310466146738"><ele>180.0</ele><time>2026-05-01T09:38:03.002Z</time></trkpt><trkpt lat="44.990065793327446" lon="9.173198043166256"><ele>180.0</ele><time>2026-05-01T09:38:04.002Z</time></trkpt><trkpt lat="44.990013923637" lon="9.173064530338275"><ele>182.75</ele><time>2026-05-01T09:38:05.002Z</time></trkpt><trkpt lat="44.9899662664497" lon="9.172915332053659"><ele>185.5</ele><time>2026-05-01T09:38:06.002Z</time></trkpt><trkpt lat="44.98991583682779" lon="9.172757798471489"><ele>188.25</ele><time>2026-05-01T09:38:07.001Z</time></trkpt><trkpt lat="44.98986194955693" lon="9.172596648294077"><ele>191.0</ele><time>2026-05-01T09:38:08.001Z</time></trkpt><trkpt lat="44.98981062828865" lon="9.17243771987321"><ele>194.16666666666666</ele><time>2026-05-01T09:38:09.001Z</time></trkpt><trkpt lat="44.98976262127832" lon="9.172287141411338"><ele>197.33333333333331</ele><time>2026-05-01T09:38:10.001Z</time></trkpt><trkpt lat="44.98972169171066" lon="9.172166345450588"><ele>200.5</ele><time>2026-05-01T09:38:11.001Z</time></trkpt><trkpt lat="44.989684849499966" lon="9.172067242126507"><ele>203.66666666666666</ele><time>2026-05-01T09:38:12.001Z</time></trkpt><trkpt lat="44.989635029905095" lon="9.171983626478905"><ele>206.83333333333334</ele><time>2026-05-01T09:38:13.001Z</time></trkpt><trkpt lat="44.98957200919979" lon="9.17191668269755"><ele>210.0</ele><time>2026-05-01T09:38:14.001Z</time></trkpt><trkpt lat="44.98948815841329" lon="9.17186414336626"><ele>210.0</ele><time>2026-05-01T09:38:15.001Z</time></trkpt><trkpt lat="44.98937997821256" lon="9.171832681114317"><ele>210.0</ele><time>2026-05-01T09:38:16.001Z</time></trkpt><trkpt lat="44.98926646737413" lon="9.171783185098791"><ele>210.0</ele><time>2026-05-01T09:38:17.001Z</time></trkpt><trkpt lat="44.98914511570453" lon="9.17177709750827"><ele>210.0</ele><time>2026-05-01T09:38:18.001Z</time></trkpt><trkpt lat="44.989020783701115" lon="9.171771571643285"><ele>207.75</ele><time>2026-05-01T09:38:19.001Z</time></trkpt><trkpt lat="44.98888789137683" lon="9.171766605289093"><ele>205.5</ele><time>2026-05-01T09:38:20.001Z</time></trkpt><trkpt lat="44.98874752823247" lon="9.171787208178591"><ele>203.25</ele><time>2026-05-01T09:38:21.001Z</time></trkpt><trkpt lat="44.98860418795936" lon="9.17177097842432"><ele>201.0</ele><time>2026-05-01T09:38:22.001Z</time></trkpt><trkpt lat="44.988472646408425" lon="9.171785921138664"><ele>201.0</ele><time>2026-05-01T09:38:23.001Z</time></trkpt><trkpt lat="44.988344469825755" lon="9.171788170428202"><ele>201.0</ele><time>2026-05-01T09:38:24.001Z</time></trkpt><trkpt lat="44.98822055048262" lon="9.17178579530175"><ele>201.0</ele><time>2026-05-01T09:38:25.001Z</time></trkpt><trkpt lat="44.98811880997523" lon="9.171774414670992"><ele>201.0</ele><time>2026-05-01T09:38:26.001Z</time></trkpt><trkpt lat="44.98803222652365" lon="9.171742275022432"><ele>201.0</ele><time>2026-05-01T09:38:27.001Z</time></trkpt><trkpt lat="44.9879531026441" lon="9.171687607673551"><ele>201.0</ele><time>2026-05-01T09:38:28.001Z</time></trkpt><trkpt lat="44.987869760121676" lon="9.17160843930906"><ele>201.0</ele><time>2026-05-01T09:38:29.001Z</time></trkpt><trkpt lat="44.98777794353039" lon="9.171525039301581"><ele>201.0</ele><time>2026-05-01T09:38:30.001Z</time></trkpt><trkpt lat="44.98768630683505" lon="9.171424477516434"><ele>201.0</ele><time>2026-05-01T09:38:31.001Z</time></trkpt><trkpt lat="44.98758150877782" lon="9.171355720419129"><ele>201.0</ele><time>2026-05-01T09:38:32.001Z</time></trkpt><trkpt lat="44.98747798675243" lon="9.171300393080102"><ele>203.16666666666666</ele><time>2026-05-01T09:38:33.001Z</time></trkpt><trkpt lat="44.98739112437108" lon="9.17121956190941"><ele>205.33333333333331</ele><time>2026-05-01T09:38:34.001Z</time></trkpt><trkpt lat="44.98731878080485" lon="9.171145535301692"><ele>207.5</ele><time>2026-05-01T09:38:35.001Z</time></trkpt><trkpt lat="44.9872726809369" lon="9.1710617415935"><ele>209.66666666666666</ele><time>2026-05-01T09:38:36.001Z</time></trkpt><trkpt lat="44.987262441871636" lon="9.170904794500665"><ele>211.83333333333331</ele><time>2026-05-01T09:38:38.001Z</time></trkpt><trkpt lat="44.98732449458471" lon="9.1708709041618"><ele>214.0</ele><time>2026-05-01T09:38:39.001Z</time></trkpt><trkpt lat="44.98744746285462" lon="9.170788212823867"><ele>214.39999999999998</ele><time>2026-05-01T09:38:41.001Z</time></trkpt><trkpt lat="44.98751507425242" lon="9.170755842558"><ele>214.79999999999998</ele><time>2026-05-01T09:38:42.001Z</time></trkpt><trkpt lat="44.98758560729976" lon="9.170625296191469"><ele>215.20000000000002</ele><time>2026-05-01T09:38:44.002Z</time></trkpt><trkpt lat="44.987548415319004" lon="9.170447669811104"><ele>215.60000000000002</ele><time>2026-05-01T09:38:46.002Z</time></trkpt><trkpt lat="44.98752587917573" lon="9.170361468943211"><ele>216.0</ele><time>2026-05-01T09:38:47.002Z</time></trkpt><trkpt lat="44.98742335504877" lon="9.170284605655574"><ele>218.16666666666666</ele><time>2026-05-01T09:38:49.002Z</time></trkpt><trkpt lat="44.98735089404934" lon="9.170298098201174"><ele>220.33333333333331</ele><time>2026-05-01T09:38:50.002Z</time></trkpt><trkpt lat="44.98727109205757" lon="9.170336540287593"><ele>222.5</ele><time>2026-05-01T09:38:51.002Z</time></trkpt><trkpt lat="44.98719249312992" lon="9.170356102866597"><ele>224.66666666666666</ele><time>2026-05-01T09:38:52.002Z</time></trkpt><trkpt lat="44.987113031520316" lon="9.17036550659178"><ele>226.83333333333331</ele><time>2026-05-01T09:38:53.002Z</time></trkpt><trkpt lat="44.98702712427562" lon="9.170376668809148"><ele>229.0</ele><time>2026-05-01T09:38:54.002Z</time></trkpt><trkpt lat="44.98694168614499" lon="9.17036848886851"><ele>229.0</ele><time>2026-05-01T09:38:55.002Z</time></trkpt><trkpt lat="44.98684894089433" lon="9.170343496987474"><ele>228.99999999999997</ele><time>2026-05-01T09:38:56.002Z</time></trkpt><trkpt lat="44.986762554932575" lon="9.170282470756021"><ele>228.99999999999997</ele><time>2026-05-01T09:38:57.002Z</time></trkpt><trkpt lat="44.98665387542006" lon="9.170236509496638"><ele>229.0</ele><time>2026-05-01T09:38:58.002Z</time></trkpt><trkpt lat="44.98656023756287" lon="9.170152165199354"><ele>229.0</ele><time>2026-05-01T09:38:59.002Z</time></trkpt><trkpt lat="44.986458830564324" lon="9.17006993311883"><ele>229.79999999999998</ele><time>2026-05-01T09:39:00.002Z</time></trkpt><trkpt lat="44.986381329520626" lon="9.170001580450263"><ele>230.59999999999997</ele><time>2026-05-01T09:39:01.002Z</time></trkpt><trkpt lat="44.98629784353552" lon="9.169928284198308"><ele>231.4</ele><time>2026-05-01T09:39:02.002Z</time></trkpt><trkpt lat="44.98620615700118" lon="9.16987714095765"><ele>232.2</ele><time>2026-05-01T09:39:03.002Z</time></trkpt><trkpt lat="44.9861175608875" lon="9.16985183038484"><ele>233.0</ele><time>2026-05-01T09:39:04.002Z</time></trkpt><trkpt lat="44.98601687018385" lon="9.169830342393471"><ele>236.0</ele><time>2026-05-01T09:39:05.002Z</time></trkpt><trkpt lat="44.98590315566995" lon="9.16980022070274"><ele>239.0</ele><time>2026-05-01T09:39:06.002Z</time></trkpt><trkpt lat="44.98578195975011" lon="9.169773858439012"><ele>242.0</ele><time>2026-05-01T09:39:07.002Z</time></trkpt><trkpt lat="44.98565659872549" lon="9.16977591402355"><ele>245.0</ele><time>2026-05-01T09:39:08.002Z</time></trkpt><trkpt lat="44.985536735608946" lon="9.169796242041114"><ele>245.25</ele><time>2026-05-01T09:39:09.002Z</time></trkpt><trkpt lat="44.985414851512274" lon="9.169835042654526"><ele>245.5</ele><time>2026-05-01T09:39:10.002Z</time></trkpt><trkpt lat="44.98528418330231" lon="9.169846917336065"><ele>245.75</ele><time>2026-05-01T09:39:11.002Z</time></trkpt><trkpt lat="44.98518373328241" lon="9.169852384151215"><ele>246.0</ele><time>2026-05-01T09:39:12.002Z</time></trkpt><trkpt lat="44.98508496198483" lon="9.169886440050838"><ele>245.4</ele><time>2026-05-01T09:39:13.002Z</time></trkpt><trkpt lat="44.9849806119324" lon="9.169944356324105"><ele>244.8</ele><time>2026-05-01T09:39:14.002Z</time></trkpt><trkpt lat="44.98488584187138" lon="9.170002216816732"><ele>244.20000000000002</ele><time>2026-05-01T09:39:15.002Z</time></trkpt><trkpt lat="44.984806878463964" lon="9.170033844709216"><ele>243.60000000000002</ele><time>2026-05-01T09:39:16.002Z</time></trkpt><trkpt lat="44.98472034252562" lon="9.170024918355315"><ele>243.0</ele><time>2026-05-01T09:39:17.002Z</time></trkpt><trkpt lat="44.984632834819976" lon="9.169951847663256"><ele>243.0</ele><time>2026-05-01T09:39:18.002Z</time></trkpt><trkpt lat="44.98454701521613" lon="9.169872221306386"><ele>243.0</ele><time>2026-05-01T09:39:19.002Z</time></trkpt><trkpt lat="44.984455934472805" lon="9.169762328400509"><ele>243.0</ele><time>2026-05-01T09:39:20.002Z</time></trkpt><trkpt lat="44.9843500278911" lon="9.169646637841165"><ele>243.0</ele><time>2026-05-01T09:39:21.002Z</time></trkpt><trkpt lat="44.98424780652939" lon="9.169510193289517"><ele>246.25</ele><time>2026-05-01T09:39:22.002Z</time></trkpt><trkpt lat="44.984146519652455" lon="9.169377723328498"><ele>249.5</ele><time>2026-05-01T09:39:23.002Z</time></trkpt><trkpt lat="44.9840527989045" lon="9.16926024127158"><ele>252.75</ele><time>2026-05-01T09:39:24.002Z</time></trkpt><trkpt lat="44.983975749660935" lon="9.169159966690485"><ele>256.0</ele><time>2026-05-01T09:39:25.002Z</time></trkpt><trkpt lat="44.9838986957397" lon="9.169078578733664"><ele>256.6</ele><time>2026-05-01T09:39:26.002Z</time></trkpt><trkpt lat="44.98381071122668" lon="9.169020712361466"><ele>257.20000000000005</ele><time>2026-05-01T09:39:27.002Z</time></trkpt><trkpt lat="44.983713338533434" lon="9.16896946622919"><ele>257.79999999999995</ele><time>2026-05-01T09:39:28.002Z</time></trkpt><trkpt lat="44.98362149093534" lon="9.168917061821755"><ele>258.4</ele><time>2026-05-01T09:39:29.002Z</time></trkpt><trkpt lat="44.98352281804738" lon="9.168877887064978"><ele>259.0</ele><time>2026-05-01T09:39:30.002Z</time></trkpt><trkpt lat="44.98342113852377" lon="9.16886460370834"><ele>260.59999999999997</ele><time>2026-05-01T09:39:31.002Z</time></trkpt><trkpt lat="44.98331897149951" lon="9.168888727585534"><ele>262.2</ele><time>2026-05-01T09:39:32.002Z</time></trkpt><trkpt lat="44.98321669978782" lon="9.168945724920807"><ele>263.79999999999995</ele><time>2026-05-01T09:39:33.002Z</time></trkpt><trkpt lat="44.98311962971833" lon="9.169005096198783"><ele>265.4</ele><time>2026-05-01T09:39:34.002Z</time></trkpt><trkpt lat="44.983036292467304" lon="9.169063644179875"><ele>267.0</ele><time>2026-05-01T09:39:35.002Z</time></trkpt><trkpt lat="44.982971495110014" lon="9.169110878935806"><ele>267.0</ele><time>2026-05-01T09:39:36.002Z</time></trkpt><trkpt lat="44.9828573198911" lon="9.169130211660802"><ele>267.0</ele><time>2026-05-01T09:39:38.002Z</time></trkpt><trkpt lat="44.98276520301858" lon="9.169164766910333"><ele>267.0</ele><time>2026-05-01T09:40:13Z</time></trkpt><trkpt lat="44.98270074884415" lon="9.169142344938496"><ele>267.0</ele><time>2026-05-01T09:40:15Z</time></trkpt><trkpt lat="44.982633680924884" lon="9.169143478753318"><ele>267.0</ele><time>2026-05-01T09:40:17Z</time></trkpt><trkpt lat="44.982559317229295" lon="9.169122825395814"><ele>267.0</ele><time>2026-05-01T09:40:20Z</time></trkpt><trkpt lat="44.98249822255124" lon="9.169038956692289"><ele>268.0</ele><time>2026-05-01T09:40:22Z</time></trkpt><trkpt lat="44.98244592186165" lon="9.168859810001274"><ele>269.0</ele><time>2026-05-01T09:40:24Z</time></trkpt><trkpt lat="44.98243068865327" lon="9.168746347424998"><ele>270.0</ele><time>2026-05-01T09:40:25Z</time></trkpt><trkpt lat="44.98241474441169" lon="9.168621588535144"><ele>271.0</ele><time>2026-05-01T09:40:26Z</time></trkpt><trkpt lat="44.982385764768885" lon="9.168487299768408"><ele>272.0</ele><time>2026-05-01T09:40:27Z</time></trkpt><trkpt lat="44.982362076776624" lon="9.168348360309734"><ele>272.0</ele><time>2026-05-01T09:40:28.001Z</time></trkpt><trkpt lat="44.982336325129936" lon="9.168213167199891"><ele>272.0</ele><time>2026-05-01T09:40:29.001Z</time></trkpt><trkpt lat="44.982305829202986" lon="9.168065915319078"><ele>272.0</ele><time>2026-05-01T09:40:30.001Z</time></trkpt><trkpt lat="44.982277928729125" lon="9.16790180531379"><ele>272.0</ele><time>2026-05-01T09:40:31.001Z</time></trkpt><trkpt lat="44.98224347125461" lon="9.167741534873164"><ele>272.0</ele><time>2026-05-01T09:40:32.001Z</time></trkpt><trkpt lat="44.98221757308213" lon="9.167570221904441"><ele>272.2</ele><time>2026-05-01T09:40:33.001Z</time></trkpt><trkpt lat="44.98219365618799" lon="9.167415254459689"><ele>272.4</ele><time>2026-05-01T09:40:34.001Z</time></trkpt><trkpt lat="44.9821623371599" lon="9.167273832151773"><ele>272.6</ele><time>2026-05-01T09:40:35.001Z</time></trkpt><trkpt lat="44.98210885906947" lon="9.167146889840817"><ele>272.8</ele><time>2026-05-01T09:40:36.001Z</time></trkpt><trkpt lat="44.982029640256876" lon="9.167025888938564"><ele>273.0</ele><time>2026-05-01T09:40:37.001Z</time></trkpt><trkpt lat="44.98192440847901" lon="9.166919774220197"><ele>273.0</ele><time>2026-05-01T09:40:38.001Z</time></trkpt><trkpt lat="44.981804294419206" lon="9.166807113093077"><ele>273.0</ele><time>2026-05-01T09:40:39.001Z</time></trkpt><trkpt lat="44.98167989759365" lon="9.166695174698114"><ele>273.0</ele><time>2026-05-01T09:40:40.001Z</time></trkpt><trkpt lat="44.981565085356344" lon="9.166582313676654"><ele>273.0</ele><time>2026-05-01T09:40:41.001Z</time></trkpt><trkpt lat="44.98144223910034" lon="9.16645525878972"><ele>270.0</ele><time>2026-05-01T09:40:42.001Z</time></trkpt><trkpt lat="44.98133283603084" lon="9.166311269934338"><ele>267.0</ele><time>2026-05-01T09:40:43.001Z</time></trkpt><trkpt lat="44.981233747780124" lon="9.166167378760411"><ele>264.0</ele><time>2026-05-01T09:40:44.001Z</time></trkpt><trkpt lat="44.981137491259915" lon="9.166025807305155"><ele>261.0</ele><time>2026-05-01T09:40:45.001Z</time></trkpt><trkpt lat="44.98105517424815" lon="9.165907155275967"><ele>261.0</ele><time>2026-05-01T09:40:46.001Z</time></trkpt><trkpt lat="44.98098391521947" lon="9.16580856478259"><ele>261.0</ele><time>2026-05-01T09:40:47.001Z</time></trkpt><trkpt lat="44.980925386080465" lon="9.165730874869896"><ele>261.0</ele><time>2026-05-01T09:40:48.001Z</time></trkpt><trkpt lat="44.98084251796441" lon="9.165614607070102"><ele>261.0</ele><time>2026-05-01T09:40:50.001Z</time></trkpt><trkpt lat="44.9807860323343" lon="9.165529490676679"><ele>261.0</ele><time>2026-05-01T09:40:52.001Z</time></trkpt><trkpt lat="44.98072884707959" lon="9.165472010193517"><ele>261.0</ele><time>2026-05-01T09:40:56.001Z</time></trkpt><trkpt lat="44.980654690757966" lon="9.165471804007197"><ele>259.8333333333333</ele><time>2026-05-01T09:41:58.002Z</time></trkpt><trkpt lat="44.9805950483985" lon="9.16550094984057"><ele>258.6666666666667</ele><time>2026-05-01T09:42:01.002Z</time></trkpt><trkpt lat="44.98051531901228" lon="9.165586141842589"><ele>257.5</ele><time>2026-05-01T09:42:04.002Z</time></trkpt><trkpt lat="44.98046678921864" lon="9.165694619051745"><ele>256.33333333333337</ele><time>2026-05-01T09:42:06.001Z</time></trkpt><trkpt lat="44.980418524973835" lon="9.165811028321363"><ele>255.16666666666669</ele><time>2026-05-01T09:42:08.001Z</time></trkpt><trkpt lat="44.980368664545956" lon="9.165928264182657"><ele>254.0</ele><time>2026-05-01T09:42:10.001Z</time></trkpt><trkpt lat="44.98030553007568" lon="9.166047038915217"><ele>253.0</ele><time>2026-05-01T09:42:12.001Z</time></trkpt><trkpt lat="44.98022813904484" lon="9.166169495788536"><ele>251.99999999999997</ele><time>2026-05-01T09:42:14.001Z</time></trkpt><trkpt lat="44.9801453316231" lon="9.166279202539169"><ele>250.99999999999997</ele><time>2026-05-01T09:42:16.001Z</time></trkpt><trkpt lat="44.980039071619665" lon="9.166365039564788"><ele>250.0</ele><time>2026-05-01T09:42:18.001Z</time></trkpt><trkpt lat="44.97998000326888" lon="9.166398426634812"><ele>249.0</ele><time>2026-05-01T09:42:19.001Z</time></trkpt><trkpt lat="44.979875790544725" lon="9.16644550350161"><ele>247.79999999999998</ele><time>2026-05-01T09:42:21.001Z</time></trkpt><trkpt lat="44.9797834090174" lon="9.166488396097094"><ele>246.59999999999997</ele><time>2026-05-01T09:42:23.001Z</time></trkpt><trkpt lat="44.97968420877281" lon="9.166534143531162"><ele>245.4</ele><time>2026-05-01T09:42:25.001Z</time></trkpt><trkpt lat="44.979575265875624" lon="9.16657599099955"><ele>244.2</ele><time>2026-05-01T09:42:27.001Z</time></trkpt><trkpt lat="44.97950808903095" lon="9.1665946234328"><ele>243.0</ele><time>2026-05-01T09:42:28.001Z</time></trkpt><trkpt lat="44.97943813613246" lon="9.166605140538387"><ele>242.16666666666666</ele><time>2026-05-01T09:42:29.001Z</time></trkpt><trkpt lat="44.97932988848198" lon="9.166614110402685"><ele>241.33333333333331</ele><time>2026-05-01T09:42:31.001Z</time></trkpt><trkpt lat="44.97922167041113" lon="9.166574450655327"><ele>240.5</ele><time>2026-05-01T09:42:33.001Z</time></trkpt><trkpt lat="44.97916310236581" lon="9.16653222369471"><ele>239.66666666666666</ele><time>2026-05-01T09:42:34.001Z</time></trkpt><trkpt lat="44.97910408116187" lon="9.166489996423069"><ele>238.83333333333331</ele><time>2026-05-01T09:42:35.001Z</time></trkpt><trkpt lat="44.97904660330537" lon="9.166439268480781"><ele>238.0</ele><time>2026-05-01T09:42:36.001Z</time></trkpt><trkpt lat="44.97898827035745" lon="9.166377297410982"><ele>237.8</ele><time>2026-05-01T09:42:37.001Z</time></trkpt><trkpt lat="44.97889671006099" lon="9.166263190119599"><ele>237.60000000000002</ele><time>2026-05-01T09:42:39.001Z</time></trkpt><trkpt lat="44.97881310053007" lon="9.166187920625157"><ele>237.39999999999998</ele><time>2026-05-01T09:42:41.001Z</time></trkpt><trkpt lat="44.97873781054481" lon="9.166215362050755"><ele>237.2</ele><time>2026-05-01T09:42:43.001Z</time></trkpt><trkpt lat="44.978715615097784" lon="9.166377919748687"><ele>237.0</ele><time>2026-05-01T09:42:46.001Z</time></trkpt><trkpt lat="44.97873284765534" lon="9.166514554679551"><ele>236.25</ele><time>2026-05-01T09:42:48.001Z</time></trkpt><trkpt lat="44.97876057277664" lon="9.16665693378427"><ele>235.5</ele><time>2026-05-01T09:42:50.001Z</time></trkpt><trkpt lat="44.97879199961686" lon="9.166818423545656"><ele>234.75</ele><time>2026-05-01T09:42:52.001Z</time></trkpt><trkpt lat="44.978844090559924" lon="9.166969551738505"><ele>234.0</ele><time>2026-05-01T09:42:54.001Z</time></trkpt><trkpt lat="44.978890920366645" lon="9.16713299298242"><ele>234.0</ele><time>2026-05-01T09:42:56.001Z</time></trkpt><trkpt lat="44.978921237005586" lon="9.167214854091805"><ele>234.0</ele><time>2026-05-01T09:42:57.001Z</time></trkpt><trkpt lat="44.978955051820655" lon="9.16730165036637"><ele>234.0</ele><time>2026-05-01T09:42:58.001Z</time></trkpt><trkpt lat="44.97898383386238" lon="9.167390685354844"><ele>234.0</ele><time>2026-05-01T09:42:59.001Z</time></trkpt><trkpt lat="44.979006025680825" lon="9.167476827541662"><ele>234.0</ele><time>2026-05-01T09:43:00.001Z</time></trkpt><trkpt lat="44.979007633067674" lon="9.167652765328498"><ele>234.0</ele><time>2026-05-01T09:43:02.001Z</time></trkpt><trkpt lat="44.97900081553297" lon="9.167743188605133"><ele>233.0</ele><time>2026-05-01T09:43:03.001Z</time></trkpt><trkpt lat="44.978986250850795" lon="9.167836771576322"><ele>232.00000000000003</ele><time>2026-05-01T09:43:04.001Z</time></trkpt><trkpt lat="44.978964851419484" lon="9.16792160445962"><ele>231.0</ele><time>2026-05-01T09:43:05.001Z</time></trkpt><trkpt lat="44.97893320120038" lon="9.16800743346539"><ele>230.0</ele><time>2026-05-01T09:43:06.001Z</time></trkpt><trkpt lat="44.97887088368528" lon="9.168123877758418"><ele>229.00000000000003</ele><time>2026-05-01T09:43:08.001Z</time></trkpt><trkpt lat="44.97882484688159" lon="9.168194537175005"><ele>228.0</ele><time>2026-05-01T09:43:10.001Z</time></trkpt><trkpt lat="44.97877477429235" lon="9.168259746134623"><ele>227.0</ele><time>2026-05-01T09:43:14.001Z</time></trkpt><trkpt lat="44.97869351497917" lon="9.16830889393272"><ele>226.00000000000003</ele><time>2026-05-01T09:46:14.002Z</time></trkpt><trkpt lat="44.97862595921884" lon="9.1683382853754"><ele>225.0</ele><time>2026-05-01T09:46:15.002Z</time></trkpt><trkpt lat="44.97855374376608" lon="9.168371145615948"><ele>224.0</ele><time>2026-05-01T09:46:16.002Z</time></trkpt><trkpt lat="44.97846325674972" lon="9.168399650968198"><ele>223.0</ele><time>2026-05-01T09:46:17.001Z</time></trkpt><trkpt lat="44.978362921196144" lon="9.168410792012494"><ele>222.00000000000003</ele><time>2026-05-01T09:46:18.001Z</time></trkpt><trkpt lat="44.97825585564711" lon="9.168421339210207"><ele>221.0</ele><time>2026-05-01T09:46:19.001Z</time></trkpt><trkpt lat="44.97814621707239" lon="9.1684361244216"><ele>219.0</ele><time>2026-05-01T09:46:20.001Z</time></trkpt><trkpt lat="44.978032612070976" lon="9.168445659324439"><ele>217.0</ele><time>2026-05-01T09:46:21.001Z</time></trkpt><trkpt lat="44.97791471021948" lon="9.168457579516023"><ele>215.0</ele><time>2026-05-01T09:46:22.001Z</time></trkpt><trkpt lat="44.97779556236298" lon="9.168471126783391"><ele>213.0</ele><time>2026-05-01T09:46:23.001Z</time></trkpt><trkpt lat="44.97768137476443" lon="9.16848313018975"><ele>213.0</ele><time>2026-05-01T09:46:24.001Z</time></trkpt><trkpt lat="44.97756955855741" lon="9.168495924291514"><ele>213.0</ele><time>2026-05-01T09:46:25.001Z</time></trkpt><trkpt lat="44.977462410866465" lon="9.168505142156679"><ele>213.0</ele><time>2026-05-01T09:46:26.001Z</time></trkpt><trkpt lat="44.97735700141133" lon="9.16851359118639"><ele>213.0</ele><time>2026-05-01T09:46:27.001Z</time></trkpt><trkpt lat="44.977245119337525" lon="9.168514447203641"><ele>213.0</ele><time>2026-05-01T09:46:28.001Z</time></trkpt><trkpt lat="44.97713165997149" lon="9.168507156049179"><ele>210.60000000000002</ele><time>2026-05-01T09:46:29.001Z</time></trkpt><trkpt lat="44.977021408550726" lon="9.168486042445341"><ele>208.20000000000002</ele><time>2026-05-01T09:46:30.001Z</time></trkpt><trkpt lat="44.976917700226636" lon="9.168453333570595"><ele>205.8</ele><time>2026-05-01T09:46:31.001Z</time></trkpt><trkpt lat="44.97681775068313" lon="9.168422241871669"><ele>203.4</ele><time>2026-05-01T09:46:32.001Z</time></trkpt><trkpt lat="44.97671659790401" lon="9.16841053694526"><ele>201.0</ele><time>2026-05-01T09:46:33.001Z</time></trkpt><trkpt lat="44.97659760499805" lon="9.168406424310835"><ele>198.25</ele><time>2026-05-01T09:46:34.001Z</time></trkpt><trkpt lat="44.97646699275154" lon="9.168409534913215"><ele>195.5</ele><time>2026-05-01T09:46:35.001Z</time></trkpt><trkpt lat="44.97632251888795" lon="9.168414175576379"><ele>192.75</ele><time>2026-05-01T09:46:36.001Z</time></trkpt><trkpt lat="44.97617274112854" lon="9.168418171315054"><ele>190.0</ele><time>2026-05-01T09:46:37.001Z</time></trkpt><trkpt lat="44.97602818848918" lon="9.168419832027007"><ele>190.0</ele><time>2026-05-01T09:46:38.001Z</time></trkpt><trkpt lat="44.975879043869185" lon="9.168427205001123"><ele>190.0</ele><time>2026-05-01T09:46:39.001Z</time></trkpt><trkpt lat="44.975730295208955" lon="9.168437513954467"><ele>190.0</ele><time>2026-05-01T09:46:40.001Z</time></trkpt><trkpt lat="44.97558228216802" lon="9.168445862096272"><ele>190.0</ele><time>2026-05-01T09:46:41.001Z</time></trkpt><trkpt lat="44.975440543530034" lon="9.16845580424583"><ele>187.25</ele><time>2026-05-01T09:46:42.001Z</time></trkpt><trkpt lat="44.975296513963464" lon="9.168460332871053"><ele>184.5</ele><time>2026-05-01T09:46:43.001Z</time></trkpt><trkpt lat="44.9751549403231" lon="9.168464718598612"><ele>181.75</ele><time>2026-05-01T09:46:44.001Z</time></trkpt><trkpt lat="44.97500845895698" lon="9.168465689371411"><ele>179.0</ele><time>2026-05-01T09:46:45.001Z</time></trkpt><trkpt lat="44.97486384439827" lon="9.168464143985615"><ele>177.0</ele><time>2026-05-01T09:46:46.001Z</time></trkpt><trkpt lat="44.97472193431571" lon="9.16845811290567"><ele>175.0</ele><time>2026-05-01T09:46:47.001Z</time></trkpt><trkpt lat="44.97458079567134" lon="9.16844489421977"><ele>173.0</ele><time>2026-05-01T09:46:48.001Z</time></trkpt><trkpt lat="44.97444620861494" lon="9.16842638062505"><ele>171.0</ele><time>2026-05-01T09:46:49.001Z</time></trkpt><trkpt lat="44.97431143663116" lon="9.168405419773823"><ele>168.5</ele><time>2026-05-01T09:46:50.001Z</time></trkpt><trkpt lat="44.97417208760256" lon="9.1683830746876"><ele>166.0</ele><time>2026-05-01T09:46:51.001Z</time></trkpt><trkpt lat="44.97403045036527" lon="9.16835787605849"><ele>163.5</ele><time>2026-05-01T09:46:52.001Z</time></trkpt><trkpt lat="44.97388568304923" lon="9.168330449065612"><ele>161.0</ele><time>2026-05-01T09:46:53.001Z</time></trkpt><trkpt lat="44.97373275681011" lon="9.168299347640842"><ele>161.0</ele><time>2026-05-01T09:46:54.001Z</time></trkpt><trkpt lat="44.97357448392164" lon="9.168262985653943"><ele>161.0</ele><time>2026-05-01T09:46:55.001Z</time></trkpt><trkpt lat="44.97341049902321" lon="9.168222756164273"><ele>161.0</ele><time>2026-05-01T09:46:56.001Z</time></trkpt><trkpt lat="44.97324523610603" lon="9.168177503433752"><ele>159.5</ele><time>2026-05-01T09:46:57.001Z</time></trkpt><trkpt lat="44.97309075543627" lon="9.16813456139354"><ele>158.0</ele><time>2026-05-01T09:46:58.001Z</time></trkpt><trkpt lat="44.97294481359492" lon="9.168093142939618"><ele>156.5</ele><time>2026-05-01T09:46:59.001Z</time></trkpt><trkpt lat="44.97280535880828" lon="9.168051200781113"><ele>155.0</ele><time>2026-05-01T09:47:00.001Z</time></trkpt><trkpt lat="44.972675625771096" lon="9.168010769894403"><ele>155.0</ele><time>2026-05-01T09:47:01.001Z</time></trkpt><trkpt lat="44.97255430150964" lon="9.167968121971581"><ele>155.0</ele><time>2026-05-01T09:47:02.001Z</time></trkpt><trkpt lat="44.97244035963864" lon="9.16792846134441"><ele>155.0</ele><time>2026-05-01T09:47:03.001Z</time></trkpt><trkpt lat="44.9723473971261" lon="9.167897677613917"><ele>155.0</ele><time>2026-05-01T09:47:04.001Z</time></trkpt><trkpt lat="44.97226932933857" lon="9.167862973490594"><ele>155.0</ele><time>2026-05-01T09:47:05.001Z</time></trkpt><trkpt lat="44.97220838172631" lon="9.167839452713801"><ele>154.2</ele><time>2026-05-01T09:47:06.001Z</time></trkpt><trkpt lat="44.97213789007895" lon="9.167754814562365"><ele>153.4</ele><time>2026-05-01T09:47:08.001Z</time></trkpt><trkpt lat="44.972142853880136" lon="9.167589277469855"><ele>152.6</ele><time>2026-05-01T09:47:10.001Z</time></trkpt><trkpt lat="44.97217704993546" lon="9.16747734862064"><ele>151.8</ele><time>2026-05-01T09:47:11.001Z</time></trkpt><trkpt lat="44.97221671406484" lon="9.16735076304608"><ele>151.0</ele><time>2026-05-01T09:47:12.001Z</time></trkpt><trkpt lat="44.972260771396755" lon="9.167208071244238"><ele>150.5</ele><time>2026-05-01T09:47:13.001Z</time></trkpt><trkpt lat="44.97230600628908" lon="9.167059126362135"><ele>150.0</ele><time>2026-05-01T09:47:14.001Z</time></trkpt><trkpt lat="44.9723515442507" lon="9.166909204936147"><ele>149.5</ele><time>2026-05-01T09:47:15.001Z</time></trkpt><trkpt lat="44.97240340663882" lon="9.166757041962484"><ele>149.0</ele><time>2026-05-01T09:47:16.001Z</time></trkpt><trkpt lat="44.97245087707986" lon="9.166592064445569"><ele>149.0</ele><time>2026-05-01T09:47:17.001Z</time></trkpt><trkpt lat="44.97250232790748" lon="9.16642185570509"><ele>149.0</ele><time>2026-05-01T09:47:18.001Z</time></trkpt><trkpt lat="44.972554087155764" lon="9.1662444023286"><ele>149.0</ele><time>2026-05-01T09:47:19.001Z</time></trkpt><trkpt lat="44.97260894413334" lon="9.166066481917381"><ele>149.0</ele><time>2026-05-01T09:47:20.001Z</time></trkpt><trkpt lat="44.97266513010149" lon="9.16588645970581"><ele>149.0</ele><time>2026-05-01T09:47:21.001Z</time></trkpt><trkpt lat="44.97271827927007" lon="9.165715795787296"><ele>149.0</ele><time>2026-05-01T09:47:22.001Z</time></trkpt><trkpt lat="44.97276840780305" lon="9.1655558353786"><ele>149.0</ele><time>2026-05-01T09:47:23.001Z</time></trkpt><trkpt lat="44.972821073856174" lon="9.165397622190675"><ele>149.0</ele><time>2026-05-01T09:47:24.001Z</time></trkpt><trkpt lat="44.97287273598509" lon="9.165234979899987"><ele>149.0</ele><time>2026-05-01T09:47:25.001Z</time></trkpt><trkpt lat="44.97292438805849" lon="9.165068401160127"><ele>149.0</ele><time>2026-05-01T09:47:26.001Z</time></trkpt><trkpt lat="44.972976008704364" lon="9.164902111325373"><ele>149.0</ele><time>2026-05-01T09:47:27.001Z</time></trkpt><trkpt lat="44.97303140071669" lon="9.164733610200374"><ele>149.0</ele><time>2026-05-01T09:47:28.001Z</time></trkpt><trkpt lat="44.97308468947911" lon="9.164563365507789"><ele>149.5</ele><time>2026-05-01T09:47:29.001Z</time></trkpt><trkpt lat="44.973141526149064" lon="9.164394291869318"><ele>150.0</ele><time>2026-05-01T09:47:30.001Z</time></trkpt><trkpt lat="44.97319957136672" lon="9.164220969020208"><ele>150.5</ele><time>2026-05-01T09:47:31.001Z</time></trkpt><trkpt lat="44.973251055130824" lon="9.164052064362798"><ele>151.0</ele><time>2026-05-01T09:47:32.001Z</time></trkpt><trkpt lat="44.97330659373167" lon="9.16388537539142"><ele>153.5</ele><time>2026-05-01T09:47:33.001Z</time></trkpt><trkpt lat="44.97335579444654" lon="9.163721989015931"><ele>156.0</ele><time>2026-05-01T09:47:34.001Z</time></trkpt><trkpt lat="44.97338476822517" lon="9.163555611291294"><ele>158.5</ele><time>2026-05-01T09:47:35.001Z</time></trkpt><trkpt lat="44.97339926131638" lon="9.163378911418896"><ele>161.0</ele><time>2026-05-01T09:47:36.001Z</time></trkpt><trkpt lat="44.97339539687643" lon="9.16319886438661"><ele>161.0</ele><time>2026-05-01T09:47:37.001Z</time></trkpt><trkpt lat="44.97337267204555" lon="9.16300572187463"><ele>161.0</ele><time>2026-05-01T09:47:38.001Z</time></trkpt><trkpt lat="44.97334779113994" lon="9.16281246888959"><ele>161.0</ele><time>2026-05-01T09:47:39.001Z</time></trkpt><trkpt lat="44.97331973009878" lon="9.162618274887294"><ele>161.0</ele><time>2026-05-01T09:47:40.001Z</time></trkpt><trkpt lat="44.97328877334165" lon="9.162414824531057"><ele>158.0</ele><time>2026-05-01T09:47:41.001Z</time></trkpt><trkpt lat="44.973261793373766" lon="9.162212708286257"><ele>155.0</ele><time>2026-05-01T09:47:42.001Z</time></trkpt><trkpt lat="44.97323438797087" lon="9.162010583331464"><ele>152.0</ele><time>2026-05-01T09:47:43.001Z</time></trkpt><trkpt lat="44.97320998219655" lon="9.161803489708692"><ele>149.0</ele><time>2026-05-01T09:47:44.001Z</time></trkpt><trkpt lat="44.97318529865619" lon="9.161596948585128"><ele>148.75</ele><time>2026-05-01T09:47:45.001Z</time></trkpt><trkpt lat="44.973160466608476" lon="9.16140619725026"><ele>148.5</ele><time>2026-05-01T09:47:46.001Z</time></trkpt><trkpt lat="44.97313530703877" lon="9.161227026792327"><ele>148.25</ele><time>2026-05-01T09:47:47.001Z</time></trkpt><trkpt lat="44.97311191024918" lon="9.161054458496057"><ele>148.0</ele><time>2026-05-01T09:47:48.001Z</time></trkpt><trkpt lat="44.97308516332986" lon="9.160892904577869"><ele>148.0</ele><time>2026-05-01T09:47:49.001Z</time></trkpt><trkpt lat="44.97305654540076" lon="9.160733713232254"><ele>148.0</ele><time>2026-05-01T09:47:50.001Z</time></trkpt><trkpt lat="44.973010388579716" lon="9.16057146108857"><ele>148.0</ele><time>2026-05-01T09:47:51.001Z</time></trkpt><trkpt lat="44.97295425070395" lon="9.160418556862272"><ele>148.0</ele><time>2026-05-01T09:47:52.001Z</time></trkpt><trkpt lat="44.97289190499704" lon="9.160268117126881"><ele>147.75</ele><time>2026-05-01T09:47:53.002Z</time></trkpt><trkpt lat="44.97282023109474" lon="9.160121434968612"><ele>147.5</ele><time>2026-05-01T09:47:54.002Z</time></trkpt><trkpt lat="44.97274573431304" lon="9.159972366336264"><ele>147.25</ele><time>2026-05-01T09:47:55.002Z</time></trkpt><trkpt lat="44.97266946293929" lon="9.159815011684136"><ele>147.0</ele><time>2026-05-01T09:47:56.002Z</time></trkpt><trkpt lat="44.972591203381405" lon="9.159657435144478"><ele>147.25</ele><time>2026-05-01T09:47:57.002Z</time></trkpt><trkpt lat="44.97251346802088" lon="9.159493513667757"><ele>147.5</ele><time>2026-05-01T09:47:58.002Z</time></trkpt><trkpt lat="44.972435690148146" lon="9.159326088678549"><ele>147.75</ele><time>2026-05-01T09:47:59.002Z</time></trkpt><trkpt lat="44.972358155397586" lon="9.159157083973277"><ele>148.0</ele><time>2026-05-01T09:48:00.002Z</time></trkpt><trkpt lat="44.97227895465426" lon="9.158991371255548"><ele>148.0</ele><time>2026-05-01T09:48:01.002Z</time></trkpt><trkpt lat="44.97220102313934" lon="9.158829473075802"><ele>148.0</ele><time>2026-05-01T09:48:02.002Z</time></trkpt><trkpt lat="44.97212712906849" lon="9.158668955640477"><ele>148.0</ele><time>2026-05-01T09:48:03.002Z</time></trkpt><trkpt lat="44.972057116163604" lon="9.158516629009394"><ele>148.0</ele><time>2026-05-01T09:48:04.002Z</time></trkpt><trkpt lat="44.9719873675047" lon="9.158377961260951"><ele>148.0</ele><time>2026-05-01T09:48:05.002Z</time></trkpt><trkpt lat="44.9719110997587" lon="9.158253042235081"><ele>148.0</ele><time>2026-05-01T09:48:06.002Z</time></trkpt><trkpt lat="44.97182304824922" lon="9.158149451543618"><ele>148.0</ele><time>2026-05-01T09:48:07.002Z</time></trkpt><trkpt lat="44.971726283057905" lon="9.158064021134624"><ele>148.0</ele><time>2026-05-01T09:48:08.002Z</time></trkpt><trkpt lat="44.971614979092536" lon="9.158006703179035"><ele>146.5</ele><time>2026-05-01T09:48:09.002Z</time></trkpt><trkpt lat="44.97149705861145" lon="9.157967804785129"><ele>145.0</ele><time>2026-05-01T09:48:10.002Z</time></trkpt><trkpt lat="44.97137806208711" lon="9.157942661384947"><ele>143.5</ele><time>2026-05-01T09:48:11.002Z</time></trkpt><trkpt lat="44.971263622407285" lon="9.157934861957798"><ele>142.0</ele><time>2026-05-01T09:48:12.002Z</time></trkpt><trkpt lat="44.9711583817245" lon="9.15792727406916"><ele>142.0</ele><time>2026-05-01T09:48:13.002Z</time></trkpt><trkpt lat="44.97106214623745" lon="9.157915522018474"><ele>142.0</ele><time>2026-05-01T09:48:14.002Z</time></trkpt><trkpt lat="44.97096371978391" lon="9.157900738952698"><ele>142.0</ele><time>2026-05-01T09:48:15.002Z</time></trkpt><trkpt lat="44.97087163163436" lon="9.157865841871992"><ele>142.0</ele><time>2026-05-01T09:48:16.002Z</time></trkpt><trkpt lat="44.9707897957808" lon="9.1578061162105"><ele>142.0</ele><time>2026-05-01T09:48:17.002Z</time></trkpt><trkpt lat="44.97071996037801" lon="9.157715504667607"><ele>142.25</ele><time>2026-05-01T09:48:18.002Z</time></trkpt><trkpt lat="44.97066068524385" lon="9.157599179741942"><ele>142.5</ele><time>2026-05-01T09:48:19.002Z</time></trkpt><trkpt lat="44.97061863151544" lon="9.157460168197929"><ele>142.75</ele><time>2026-05-01T09:48:20.002Z</time></trkpt><trkpt lat="44.97058262590001" lon="9.157299870036637"><ele>143.0</ele><time>2026-05-01T09:48:21.002Z</time></trkpt><trkpt lat="44.97054297902754" lon="9.157130592742412"><ele>142.5</ele><time>2026-05-01T09:48:22.002Z</time></trkpt><trkpt lat="44.97050920720755" lon="9.15695724785672"><ele>142.0</ele><time>2026-05-01T09:48:23Z</time></trkpt><trkpt lat="44.97047674167961" lon="9.156788313616152"><ele>141.5</ele><time>2026-05-01T09:48:24Z</time></trkpt><trkpt lat="44.97044955151084" lon="9.156622053416186"><ele>141.0</ele><time>2026-05-01T09:48:25Z</time></trkpt><trkpt lat="44.97042862220794" lon="9.15645973293633"><ele>141.0</ele><time>2026-05-01T09:48:26Z</time></trkpt><trkpt lat="44.970429483090996" lon="9.156287533437496"><ele>141.0</ele><time>2026-05-01T09:48:26.999Z</time></trkpt><trkpt lat="44.97044057194228" lon="9.156111852253698"><ele>141.0</ele><time>2026-05-01T09:48:28Z</time></trkpt><trkpt lat="44.97046151938406" lon="9.15593187365908"><ele>141.0</ele><time>2026-05-01T09:48:29Z</time></trkpt><trkpt lat="44.97048699011347" lon="9.155748906964067"><ele>141.75</ele><time>2026-05-01T09:48:29.999Z</time></trkpt><trkpt lat="44.970507293673194" lon="9.155571303155776"><ele>142.5</ele><time>2026-05-01T09:48:31Z</time></trkpt><trkpt lat="44.97051209208998" lon="9.155392378422059"><ele>143.25</ele><time>2026-05-01T09:48:32Z</time></trkpt><trkpt lat="44.970495140288804" lon="9.155213302551296"><ele>144.0</ele><time>2026-05-01T09:48:33Z</time></trkpt><trkpt lat="44.97045826571355" lon="9.15503160908262"><ele>144.0</ele><time>2026-05-01T09:48:34Z</time></trkpt><trkpt lat="44.97040433665201" lon="9.154853796919598"><ele>144.0</ele><time>2026-05-01T09:48:35Z</time></trkpt><trkpt lat="44.97034416469699" lon="9.154667609383607"><ele>144.0</ele><time>2026-05-01T09:48:36Z</time></trkpt><trkpt lat="44.9702804657768" lon="9.154479603783155"><ele>144.0</ele><time>2026-05-01T09:48:37Z</time></trkpt><trkpt lat="44.97021756853356" lon="9.154289909152494"><ele>144.0</ele><time>2026-05-01T09:48:38Z</time></trkpt><trkpt lat="44.97015432801423" lon="9.154108428903978"><ele>144.0</ele><time>2026-05-01T09:48:39Z</time></trkpt><trkpt lat="44.97009565419883" lon="9.153933489290493"><ele>144.0</ele><time>2026-05-01T09:48:40Z</time></trkpt><trkpt lat="44.97004231747848" lon="9.153773901535653"><ele>144.0</ele><time>2026-05-01T09:48:41Z</time></trkpt><trkpt lat="44.96998797014664" lon="9.153624682939892"><ele>144.5</ele><time>2026-05-01T09:48:42Z</time></trkpt><trkpt lat="44.969921025963956" lon="9.153472134176685"><ele>145.0</ele><time>2026-05-01T09:48:43Z</time></trkpt><trkpt lat="44.96983981912294" lon="9.153321332940397"><ele>145.5</ele><time>2026-05-01T09:48:44Z</time></trkpt><trkpt lat="44.969745006278906" lon="9.153175341768101"><ele>146.0</ele><time>2026-05-01T09:48:45Z</time></trkpt><trkpt lat="44.969641670385776" lon="9.153026345882846"><ele>146.0</ele><time>2026-05-01T09:48:46Z</time></trkpt><trkpt lat="44.969532393200915" lon="9.152881136881945"><ele>146.0</ele><time>2026-05-01T09:48:47Z</time></trkpt><trkpt lat="44.96942010898164" lon="9.152733145602296"><ele>146.0</ele><time>2026-05-01T09:48:48Z</time></trkpt><trkpt lat="44.969302743084036" lon="9.152580911736026"><ele>145.33333333333331</ele><time>2026-05-01T09:48:49Z</time></trkpt><trkpt lat="44.9691905594225" lon="9.152432484614561"><ele>144.66666666666666</ele><time>2026-05-01T09:48:50Z</time></trkpt><trkpt lat="44.96907701885599" lon="9.152279617939477"><ele>144.0</ele><time>2026-05-01T09:48:51Z</time></trkpt><trkpt lat="44.96896877702686" lon="9.152129077092704"><ele>143.0</ele><time>2026-05-01T09:48:52Z</time></trkpt><trkpt lat="44.968864650791936" lon="9.151987750898401"><ele>142.0</ele><time>2026-05-01T09:48:53Z</time></trkpt><trkpt lat="44.968763149083195" lon="9.151851279570865"><ele>141.0</ele><time>2026-05-01T09:48:54Z</time></trkpt><trkpt lat="44.96866035199702" lon="9.151716609287433"><ele>140.0</ele><time>2026-05-01T09:48:55Z</time></trkpt><trkpt lat="44.96855631763592" lon="9.15158103681133"><ele>139.75</ele><time>2026-05-01T09:48:56Z</time></trkpt><trkpt lat="44.96845319299156" lon="9.151445354329189"><ele>139.5</ele><time>2026-05-01T09:48:57Z</time></trkpt><trkpt lat="44.96835700757518" lon="9.151309438175401"><ele>139.25</ele><time>2026-05-01T09:48:58Z</time></trkpt><trkpt lat="44.96827184670115" lon="9.151176941986922"><ele>139.0</ele><time>2026-05-01T09:48:59Z</time></trkpt><trkpt lat="44.96819826361028" lon="9.151033194451207"><ele>139.0</ele><time>2026-05-01T09:49:00Z</time></trkpt><trkpt lat="44.96813396466179" lon="9.150880610448333"><ele>139.0</ele><time>2026-05-01T09:49:01Z</time></trkpt><trkpt lat="44.96808479701212" lon="9.150712894267143"><ele>139.0</ele><time>2026-05-01T09:49:02Z</time></trkpt><trkpt lat="44.96803742966169" lon="9.150529334383162"><ele>139.0</ele><time>2026-05-01T09:49:03Z</time></trkpt><trkpt lat="44.967997984892214" lon="9.150343077874485"><ele>138.5</ele><time>2026-05-01T09:49:04Z</time></trkpt><trkpt lat="44.96796106345692" lon="9.150159033719486"><ele>138.0</ele><time>2026-05-01T09:49:05Z</time></trkpt><trkpt lat="44.96792196810839" lon="9.149970470178447"><ele>137.5</ele><time>2026-05-01T09:49:06Z</time></trkpt><trkpt lat="44.96788120003962" lon="9.149783910528273"><ele>137.0</ele><time>2026-05-01T09:49:07Z</time></trkpt><trkpt lat="44.967836036380994" lon="9.149592132793494"><ele>136.75</ele><time>2026-05-01T09:49:08Z</time></trkpt><trkpt lat="44.9677917817749" lon="9.14939403709473"><ele>136.5</ele><time>2026-05-01T09:49:09Z</time></trkpt><trkpt lat="44.96775238029012" lon="9.14920869163529"><ele>136.25</ele><time>2026-05-01T09:49:10Z</time></trkpt><trkpt lat="44.96771684098744" lon="9.149026204250585"><ele>136.0</ele><time>2026-05-01T09:49:11Z</time></trkpt><trkpt lat="44.967678943026286" lon="9.148852837596618"><ele>136.0</ele><time>2026-05-01T09:49:12Z</time></trkpt><trkpt lat="44.96764516030299" lon="9.148683278320782"><ele>136.0</ele><time>2026-05-01T09:49:13Z</time></trkpt><trkpt lat="44.967606166860904" lon="9.148525712736705"><ele>136.0</ele><time>2026-05-01T09:49:14Z</time></trkpt><trkpt lat="44.96757792564203" lon="9.148366606457769"><ele>136.0</ele><time>2026-05-01T09:49:15Z</time></trkpt><trkpt lat="44.96752092133219" lon="9.148218769750402"><ele>135.5</ele><time>2026-05-01T09:49:16Z</time></trkpt><trkpt lat="44.96744455787867" lon="9.148080930877047"><ele>135.0</ele><time>2026-05-01T09:49:17Z</time></trkpt><trkpt lat="44.96735219818497" lon="9.147955784211945"><ele>134.5</ele><time>2026-05-01T09:49:18Z</time></trkpt><trkpt lat="44.96724904996862" lon="9.147844472560182"><ele>134.0</ele><time>2026-05-01T09:49:19Z</time></trkpt><trkpt lat="44.96713550045982" lon="9.147756602047046"><ele>134.0</ele><time>2026-05-01T09:49:20Z</time></trkpt><trkpt lat="44.96704111256797" lon="9.147639056402951"><ele>134.0</ele><time>2026-05-01T09:49:21Z</time></trkpt><trkpt lat="44.96694846661855" lon="9.1475442003202"><ele>134.0</ele><time>2026-05-01T09:49:22Z</time></trkpt><trkpt lat="44.96685445623369" lon="9.147455928737477"><ele>134.0</ele><time>2026-05-01T09:49:23Z</time></trkpt><trkpt lat="44.96678467015587" lon="9.147334528218343"><ele>134.2</ele><time>2026-05-01T09:49:24Z</time></trkpt><trkpt lat="44.9667281679531" lon="9.147205420518855"><ele>134.4</ele><time>2026-05-01T09:49:25Z</time></trkpt><trkpt lat="44.96668571869769" lon="9.147053050987518"><ele>134.6</ele><time>2026-05-01T09:49:26Z</time></trkpt><trkpt lat="44.9666732265062" lon="9.146893606192767"><ele>134.8</ele><time>2026-05-01T09:49:27Z</time></trkpt><trkpt lat="44.96664458066295" lon="9.146784981842973"><ele>135.0</ele><time>2026-05-01T09:49:28Z</time></trkpt><trkpt lat="44.966642001554675" lon="9.146650782942373"><ele>135.0</ele><time>2026-05-01T09:49:30Z</time></trkpt><trkpt lat="44.96662053433521" lon="9.146546621846902"><ele>135.0</ele><time>2026-05-01T09:52:02.001Z</time></trkpt><trkpt lat="44.966585265482735" lon="9.146433279074145"><ele>135.0</ele><time>2026-05-01T09:52:04.001Z</time></trkpt><trkpt lat="44.9665586286814" lon="9.146348065195912"><ele>135.0</ele><time>2026-05-01T09:52:05.001Z</time></trkpt><trkpt lat="44.96653662840548" lon="9.146251233114995"><ele>135.0</ele><time>2026-05-01T09:52:06.001Z</time></trkpt><trkpt lat="44.96653537339261" lon="9.14616046780245"><ele>135.0</ele><time>2026-05-01T09:52:07.001Z</time></trkpt><trkpt lat="44.96650571768449" lon="9.146059498391645"><ele>135.0</ele><time>2026-05-01T09:52:08.001Z</time></trkpt><trkpt lat="44.966482345100104" lon="9.145954531741413"><ele>135.0</ele><time>2026-05-01T09:52:09.001Z</time></trkpt><trkpt lat="44.96645774991043" lon="9.145841614207114"><ele>135.0</ele><time>2026-05-01T09:52:10.001Z</time></trkpt><trkpt lat="44.96643662943048" lon="9.145736923106284"><ele>135.0</ele><time>2026-05-01T09:52:11.001Z</time></trkpt><trkpt lat="44.966422684789194" lon="9.145642453086838"><ele>135.0</ele><time>2026-05-01T09:52:12.001Z</time></trkpt><trkpt lat="44.96639680706965" lon="9.145557762150627"><ele>135.0</ele><time>2026-05-01T09:52:13.001Z</time></trkpt><trkpt lat="44.96634777915106" lon="9.145476957972036"><ele>135.0</ele><time>2026-05-01T09:52:14.001Z</time></trkpt><trkpt lat="44.96635783098367" lon="9.14531739646099"><ele>135.0</ele><time>2026-05-01T09:52:15.001Z</time></trkpt><trkpt lat="44.966333196232554" lon="9.145167710759864"><ele>135.0</ele><time>2026-05-01T09:52:16.001Z</time></trkpt><trkpt lat="44.966303965305634" lon="9.145024220890118"><ele>135.0</ele><time>2026-05-01T09:52:17.001Z</time></trkpt><trkpt lat="44.9662768729943" lon="9.144894297350104"><ele>135.0</ele><time>2026-05-01T09:52:18.001Z</time></trkpt><trkpt lat="44.96624608102271" lon="9.144756814529499"><ele>135.0</ele><time>2026-05-01T09:52:19.001Z</time></trkpt><trkpt lat="44.9662098607887" lon="9.144607853374184"><ele>135.0</ele><time>2026-05-01T09:52:20.001Z</time></trkpt><trkpt lat="44.96617950019223" lon="9.144449176183551"><ele>135.0</ele><time>2026-05-01T09:52:21.001Z</time></trkpt><trkpt lat="44.966155437284904" lon="9.144291367969744"><ele>135.0</ele><time>2026-05-01T09:52:22.001Z</time></trkpt><trkpt lat="44.96614152936706" lon="9.144135533134044"><ele>135.0</ele><time>2026-05-01T09:52:23.001Z</time></trkpt><trkpt lat="44.96614745957377" lon="9.143974188516273"><ele>135.25</ele><time>2026-05-01T09:52:24.001Z</time></trkpt><trkpt lat="44.9661788469255" lon="9.143807078566793"><ele>135.5</ele><time>2026-05-01T09:52:25.001Z</time></trkpt><trkpt lat="44.96623357850886" lon="9.143650563774822"><ele>135.75</ele><time>2026-05-01T09:52:26.001Z</time></trkpt><trkpt lat="44.96630517046193" lon="9.143485546877661"><ele>136.0</ele><time>2026-05-01T09:52:27.001Z</time></trkpt><trkpt lat="44.966386018636356" lon="9.143304473794963"><ele>137.0</ele><time>2026-05-01T09:52:28.001Z</time></trkpt><trkpt lat="44.96646392045405" lon="9.143112604541656"><ele>138.0</ele><time>2026-05-01T09:52:29.001Z</time></trkpt><trkpt lat="44.966534384119804" lon="9.142938759611063"><ele>139.0</ele><time>2026-05-01T09:52:30.001Z</time></trkpt><trkpt lat="44.96660951949076" lon="9.142765240116637"><ele>140.0</ele><time>2026-05-01T09:52:31.001Z</time></trkpt><trkpt lat="44.96668655305199" lon="9.142578490578453"><ele>138.33333333333331</ele><time>2026-05-01T09:52:32.001Z</time></trkpt><trkpt lat="44.96676725452656" lon="9.142384598093498"><ele>136.66666666666666</ele><time>2026-05-01T09:52:33.001Z</time></trkpt><trkpt lat="44.96684690287606" lon="9.142182269482836"><ele>135.0</ele><time>2026-05-01T09:52:34.001Z</time></trkpt><trkpt lat="44.9669328185984" lon="9.14197486231835"><ele>135.0</ele><time>2026-05-01T09:52:35Z</time></trkpt><trkpt lat="44.96702303390009" lon="9.141766017843032"><ele>135.0</ele><time>2026-05-01T09:52:36Z</time></trkpt><trkpt lat="44.96711345968944" lon="9.141551995233344"><ele>135.0</ele><time>2026-05-01T09:52:37Z</time></trkpt><trkpt lat="44.96720729804411" lon="9.141333469804149"><ele>135.33333333333334</ele><time>2026-05-01T09:52:38Z</time></trkpt><trkpt lat="44.9673004232144" lon="9.141122894405264"><ele>135.66666666666669</ele><time>2026-05-01T09:52:39Z</time></trkpt><trkpt lat="44.967387267520465" lon="9.140921418691837"><ele>136.0</ele><time>2026-05-01T09:52:40Z</time></trkpt><trkpt lat="44.967473679381804" lon="9.140722075821255"><ele>134.66666666666669</ele><time>2026-05-01T09:52:41Z</time></trkpt><trkpt lat="44.96755551623914" lon="9.140519365561023"><ele>133.33333333333334</ele><time>2026-05-01T09:52:42Z</time></trkpt><trkpt lat="44.96763567728329" lon="9.14031487745522"><ele>132.0</ele><time>2026-05-01T09:52:43Z</time></trkpt><trkpt lat="44.96771979896025" lon="9.140112210176719"><ele>132.0</ele><time>2026-05-01T09:52:44Z</time></trkpt><trkpt lat="44.96780831408576" lon="9.139908332761046"><ele>132.0</ele><time>2026-05-01T09:52:45Z</time></trkpt><trkpt lat="44.967898175125676" lon="9.139695308509244"><ele>132.0</ele><time>2026-05-01T09:52:46Z</time></trkpt><trkpt lat="44.96798857501886" lon="9.139476905279896"><ele>134.0</ele><time>2026-05-01T09:52:47Z</time></trkpt><trkpt lat="44.96808289443429" lon="9.139253011480726"><ele>136.0</ele><time>2026-05-01T09:52:48Z</time></trkpt><trkpt lat="44.968181467922385" lon="9.139023735768522"><ele>138.0</ele><time>2026-05-01T09:52:49Z</time></trkpt><trkpt lat="44.968282675416624" lon="9.138791567967875"><ele>135.66666666666666</ele><time>2026-05-01T09:52:50Z</time></trkpt><trkpt lat="44.96837804216887" lon="9.138563247716114"><ele>133.33333333333331</ele><time>2026-05-01T09:52:51Z</time></trkpt><trkpt lat="44.96846986090654" lon="9.138342763415297"><ele>131.0</ele><time>2026-05-01T09:52:52Z</time></trkpt><trkpt lat="44.96856198323089" lon="9.138114432041549"><ele>131.0</ele><time>2026-05-01T09:52:53Z</time></trkpt><trkpt lat="44.96865966154092" lon="9.137884614482727"><ele>131.0</ele><time>2026-05-01T09:52:54Z</time></trkpt><trkpt lat="44.96876311018767" lon="9.13765416557347"><ele>131.0</ele><time>2026-05-01T09:52:55Z</time></trkpt><trkpt lat="44.96886630752667" lon="9.137414361681179"><ele>132.33333333333331</ele><time>2026-05-01T09:52:56Z</time></trkpt><trkpt lat="44.968968540295016" lon="9.137168692735125"><ele>133.66666666666666</ele><time>2026-05-01T09:52:57Z</time></trkpt><trkpt lat="44.969072008915795" lon="9.136917635910011"><ele>135.0</ele><time>2026-05-01T09:52:58Z</time></trkpt><trkpt lat="44.969178852243495" lon="9.13666600940455"><ele>132.66666666666666</ele><time>2026-05-01T09:52:59Z</time></trkpt><trkpt lat="44.96928532850591" lon="9.136413389085147"><ele>130.33333333333331</ele><time>2026-05-01T09:53:00Z</time></trkpt><trkpt lat="44.96939309899899" lon="9.136160042622128"><ele>128.0</ele><time>2026-05-01T09:53:01Z</time></trkpt><trkpt lat="44.96950187232695" lon="9.135902783799697"><ele>129.0</ele><time>2026-05-01T09:53:02Z</time></trkpt><trkpt lat="44.9696114684271" lon="9.135650232077673"><ele>130.0</ele><time>2026-05-01T09:53:03Z</time></trkpt><trkpt lat="44.969720538751375" lon="9.135396902115184"><ele>131.0</ele><time>2026-05-01T09:53:04Z</time></trkpt><trkpt lat="44.96982623570763" lon="9.135142017157223"><ele>131.0</ele><time>2026-05-01T09:53:05Z</time></trkpt><trkpt lat="44.96993057791407" lon="9.134888976274192"><ele>131.0</ele><time>2026-05-01T09:53:06Z</time></trkpt><trkpt lat="44.9700344763579" lon="9.13463988690539"><ele>131.0</ele><time>2026-05-01T09:53:07Z</time></trkpt><trkpt lat="44.970135527601165" lon="9.134397890950922"><ele>131.0</ele><time>2026-05-01T09:53:08Z</time></trkpt><trkpt lat="44.97023406576575" lon="9.134167599043074"><ele>131.0</ele><time>2026-05-01T09:53:09Z</time></trkpt><trkpt lat="44.970331235432994" lon="9.13393817726273"><ele>131.0</ele><time>2026-05-01T09:53:10Z</time></trkpt><trkpt lat="44.970427620582214" lon="9.13371054098198"><ele>132.0</ele><time>2026-05-01T09:53:11Z</time></trkpt><trkpt lat="44.970524289921315" lon="9.133482096632084"><ele>133.0</ele><time>2026-05-01T09:53:12Z</time></trkpt><trkpt lat="44.970620869721806" lon="9.133251655600569"><ele>134.0</ele><time>2026-05-01T09:53:13Z</time></trkpt><trkpt lat="44.97072280767643" lon="9.133016365301144"><ele>134.33333333333331</ele><time>2026-05-01T09:53:14Z</time></trkpt><trkpt lat="44.97082355243517" lon="9.132777007981487"><ele>134.66666666666666</ele><time>2026-05-01T09:53:15Z</time></trkpt><trkpt lat="44.97092347285681" lon="9.132538669464802"><ele>135.0</ele><time>2026-05-01T09:53:16Z</time></trkpt><trkpt lat="44.97102421830781" lon="9.132303334479584"><ele>132.0</ele><time>2026-05-01T09:53:17Z</time></trkpt><trkpt lat="44.97112453641612" lon="9.13207115072204"><ele>129.0</ele><time>2026-05-01T09:53:18Z</time></trkpt><trkpt lat="44.97122371586799" lon="9.131836631888119"><ele>126.0</ele><time>2026-05-01T09:53:19Z</time></trkpt><trkpt lat="44.97132289004857" lon="9.13159829125915"><ele>127.66666666666666</ele><time>2026-05-01T09:53:20Z</time></trkpt><trkpt lat="44.97142380453939" lon="9.131359636089762"><ele>129.33333333333331</ele><time>2026-05-01T09:53:21Z</time></trkpt><trkpt lat="44.97152477416975" lon="9.131116083440538"><ele>131.0</ele><time>2026-05-01T09:53:22Z</time></trkpt><trkpt lat="44.971630856201905" lon="9.130870920799664"><ele>129.0</ele><time>2026-05-01T09:53:23Z</time></trkpt><trkpt lat="44.97173804282273" lon="9.130628374586376"><ele>127.0</ele><time>2026-05-01T09:53:24Z</time></trkpt><trkpt lat="44.971848498190575" lon="9.13039046577041"><ele>125.0</ele><time>2026-05-01T09:53:25Z</time></trkpt><trkpt lat="44.97196578281665" lon="9.130154487974803"><ele>125.0</ele><time>2026-05-01T09:53:26Z</time></trkpt><trkpt lat="44.97208719648383" lon="9.12992291375223"><ele>125.0</ele><time>2026-05-01T09:53:27Z</time></trkpt><trkpt lat="44.97221013455768" lon="9.129698383977942"><ele>125.0</ele><time>2026-05-01T09:53:28Z</time></trkpt><trkpt lat="44.972335814516185" lon="9.129477933770842"><ele>125.0</ele><time>2026-05-01T09:53:29Z</time></trkpt><trkpt lat="44.972466914406155" lon="9.129257329838309"><ele>125.0</ele><time>2026-05-01T09:53:30Z</time></trkpt><trkpt lat="44.97260175840144" lon="9.129041399698018"><ele>125.0</ele><time>2026-05-01T09:53:31Z</time></trkpt><trkpt lat="44.97273781918753" lon="9.12882795215146"><ele>125.0</ele><time>2026-05-01T09:53:32Z</time></trkpt><trkpt lat="44.97287471050453" lon="9.12861803477556"><ele>125.0</ele><time>2026-05-01T09:53:33.001Z</time></trkpt><trkpt lat="44.9730124215733" lon="9.128406649179139"><ele>125.0</ele><time>2026-05-01T09:53:34.001Z</time></trkpt><trkpt lat="44.97314250538194" lon="9.128203855627449"><ele>125.66666666666666</ele><time>2026-05-01T09:53:35.001Z</time></trkpt><trkpt lat="44.97326380251354" lon="9.128010947762801"><ele>126.33333333333334</ele><time>2026-05-01T09:53:36.001Z</time></trkpt><trkpt lat="44.973379645441604" lon="9.127827793920257"><ele>127.0</ele><time>2026-05-01T09:53:37.001Z</time></trkpt><trkpt lat="44.97348875515728" lon="9.127657992683389"><ele>126.25</ele><time>2026-05-01T09:53:38.001Z</time></trkpt><trkpt lat="44.973591049519285" lon="9.127499809378959"><ele>125.5</ele><time>2026-05-01T09:53:39.001Z</time></trkpt><trkpt lat="44.973688342435885" lon="9.127347564322406"><ele>124.75</ele><time>2026-05-01T09:53:40.001Z</time></trkpt><trkpt lat="44.973781600815336" lon="9.127202963671"><ele>124.0</ele><time>2026-05-01T09:53:41.001Z</time></trkpt><trkpt lat="44.97386837374252" lon="9.1270657385013"><ele>124.0</ele><time>2026-05-01T09:53:42.001Z</time></trkpt><trkpt lat="44.973947661041976" lon="9.12693156017461"><ele>124.0</ele><time>2026-05-01T09:53:43.001Z</time></trkpt><trkpt lat="44.97402130877531" lon="9.12680607580319"><ele>124.0</ele><time>2026-05-01T09:53:44.001Z</time></trkpt><trkpt lat="44.974102960016324" lon="9.126705259304694"><ele>124.0</ele><time>2026-05-01T09:53:45.001Z</time></trkpt><trkpt lat="44.97416315979614" lon="9.126611212146537"><ele>124.0</ele><time>2026-05-01T09:53:46.001Z</time></trkpt><trkpt lat="44.97420463947959" lon="9.126528426117698"><ele>123.50000000000001</ele><time>2026-05-01T09:53:47.001Z</time></trkpt><trkpt lat="44.97427510082593" lon="9.126421876631692"><ele>123.0</ele><time>2026-05-01T09:53:49.001Z</time></trkpt><trkpt lat="44.97431996240115" lon="9.126352750141189"><ele>122.5</ele><time>2026-05-01T09:53:51.001Z</time></trkpt><trkpt lat="44.97436631886232" lon="9.12629129868381"><ele>122.0</ele><time>2026-05-01T09:54:00.001Z</time></trkpt><trkpt lat="44.974432135809124" lon="9.126190378708667"><ele>121.50000000000001</ele><time>2026-05-01T09:54:02.001Z</time></trkpt><trkpt lat="44.97451036563293" lon="9.126065995263751"><ele>121.0</ele><time>2026-05-01T09:54:04.001Z</time></trkpt><trkpt lat="44.974557515071254" lon="9.125994022709708"><ele>121.0</ele><time>2026-05-01T09:54:05.001Z</time></trkpt><trkpt lat="44.97460997964142" lon="9.125909153845258"><ele>121.0</ele><time>2026-05-01T09:54:06.001Z</time></trkpt><trkpt lat="44.974667780671155" lon="9.125814139492375"><ele>121.0</ele><time>2026-05-01T09:54:07.001Z</time></trkpt><trkpt lat="44.97473368582363" lon="9.125713023662218"><ele>121.0</ele><time>2026-05-01T09:54:08.001Z</time></trkpt><trkpt lat="44.9748082094687" lon="9.12561118166625"><ele>121.0</ele><time>2026-05-01T09:54:09.001Z</time></trkpt><trkpt lat="44.974876037506284" lon="9.125507557724772"><ele>121.4</ele><time>2026-05-01T09:54:10.001Z</time></trkpt><trkpt lat="44.974939101258606" lon="9.125402775670977"><ele>121.8</ele><time>2026-05-01T09:54:11.001Z</time></trkpt><trkpt lat="44.97500797830435" lon="9.125290966984753"><ele>122.20000000000002</ele><time>2026-05-01T09:54:12.001Z</time></trkpt><trkpt lat="44.975080197267964" lon="9.12517498356845"><ele>122.60000000000001</ele><time>2026-05-01T09:54:13.001Z</time></trkpt><trkpt lat="44.975154431129305" lon="9.125054970425301"><ele>123.0</ele><time>2026-05-01T09:54:14.001Z</time></trkpt><trkpt lat="44.975230543701954" lon="9.124934093606186"><ele>122.25</ele><time>2026-05-01T09:54:15.001Z</time></trkpt><trkpt lat="44.97530039388187" lon="9.124801690813669"><ele>121.5</ele><time>2026-05-01T09:54:16.001Z</time></trkpt><trkpt lat="44.975360536525315" lon="9.124653671138631"><ele>120.75</ele><time>2026-05-01T09:54:17.001Z</time></trkpt><trkpt lat="44.97541532125333" lon="9.124486703139244"><ele>120.0</ele><time>2026-05-01T09:54:18.001Z</time></trkpt><trkpt lat="44.975474782167176" lon="9.12430956773698"><ele>120.0</ele><time>2026-05-01T09:54:19.001Z</time></trkpt><trkpt lat="44.97552229540667" lon="9.124133933389981"><ele>120.0</ele><time>2026-05-01T09:54:20.001Z</time></trkpt><trkpt lat="44.9755686648845" lon="9.123963653827225"><ele>120.0</ele><time>2026-05-01T09:54:21.001Z</time></trkpt><trkpt lat="44.97562113434436" lon="9.123789379028445"><ele>120.0</ele><time>2026-05-01T09:54:22.001Z</time></trkpt><trkpt lat="44.97568086063917" lon="9.123616373830188"><ele>120.25</ele><time>2026-05-01T09:54:23.001Z</time></trkpt><trkpt lat="44.975747520033835" lon="9.123448540086818"><ele>120.5</ele><time>2026-05-01T09:54:24.001Z</time></trkpt><trkpt lat="44.97582076779247" lon="9.1232861347596"><ele>120.75</ele><time>2026-05-01T09:54:25.001Z</time></trkpt><trkpt lat="44.97590394184331" lon="9.123135158130385"><ele>121.0</ele><time>2026-05-01T09:54:26.002Z</time></trkpt><trkpt lat="44.97599822801838" lon="9.122995886344015"><ele>120.25</ele><time>2026-05-01T09:54:27.002Z</time></trkpt><trkpt lat="44.97610390378485" lon="9.122860505328108"><ele>119.5</ele><time>2026-05-01T09:54:28.002Z</time></trkpt><trkpt lat="44.97621313367761" lon="9.122726821776837"><ele>118.75</ele><time>2026-05-01T09:54:29.002Z</time></trkpt><trkpt lat="44.97631938270534" lon="9.122589505638691"><ele>118.0</ele><time>2026-05-01T09:54:30.002Z</time></trkpt><trkpt lat="44.97642282397203" lon="9.122443870273852"><ele>117.75</ele><time>2026-05-01T09:54:31.002Z</time></trkpt><trkpt lat="44.97651738660055" lon="9.122280660227792"><ele>117.5</ele><time>2026-05-01T09:54:32.002Z</time></trkpt><trkpt lat="44.97659995931444" lon="9.122108798102404"><ele>117.25</ele><time>2026-05-01T09:54:33.002Z</time></trkpt><trkpt lat="44.97666675597207" lon="9.121922283354873"><ele>117.0</ele><time>2026-05-01T09:54:34.002Z</time></trkpt><trkpt lat="44.976730881394936" lon="9.121737269118462"><ele>117.0</ele><time>2026-05-01T09:54:35.002Z</time></trkpt><trkpt lat="44.97679706399596" lon="9.121553041210111"><ele>117.0</ele><time>2026-05-01T09:54:36.002Z</time></trkpt><trkpt lat="44.97686351569227" lon="9.121370536744209"><ele>117.0</ele><time>2026-05-01T09:54:37.002Z</time></trkpt><trkpt lat="44.97693595376005" lon="9.121191170451144"><ele>117.0</ele><time>2026-05-01T09:54:38.002Z</time></trkpt><trkpt lat="44.97701775905644" lon="9.121020982164948"><ele>117.0</ele><time>2026-05-01T09:54:39.002Z</time></trkpt><trkpt lat="44.97711143347022" lon="9.120870503112233"><ele>117.0</ele><time>2026-05-01T09:54:40.002Z</time></trkpt><trkpt lat="44.977204909782365" lon="9.120738703295054"><ele>117.0</ele><time>2026-05-01T09:54:40.998Z</time></trkpt><trkpt lat="44.977294615628246" lon="9.120613982640169"><ele>117.0</ele><time>2026-05-01T09:54:41.998Z</time></trkpt><trkpt lat="44.97737965138222" lon="9.120495982759866"><ele>117.0</ele><time>2026-05-01T09:54:42.998Z</time></trkpt><trkpt lat="44.97744722434843" lon="9.120396804438258"><ele>116.99999999999999</ele><time>2026-05-01T09:54:43.998Z</time></trkpt><trkpt lat="44.97749521980696" lon="9.120318553388941"><ele>116.99999999999999</ele><time>2026-05-01T09:54:44.998Z</time></trkpt><trkpt lat="44.97755724323375" lon="9.120259701068694"><ele>117.0</ele><time>2026-05-01T09:54:46.998Z</time></trkpt><trkpt lat="44.97747522941307" lon="9.120123271703509"><ele>117.0</ele><time>2026-05-01T09:54:48.998Z</time></trkpt><trkpt lat="44.97735150523147" lon="9.12004580839267"><ele>117.39999999999999</ele><time>2026-05-01T09:54:50.998Z</time></trkpt><trkpt lat="44.97727247477682" lon="9.119975577936705"><ele>117.79999999999998</ele><time>2026-05-01T09:54:51.998Z</time></trkpt><trkpt lat="44.97718106264239" lon="9.119887403671505"><ele>118.2</ele><time>2026-05-01T09:54:52.998Z</time></trkpt><trkpt lat="44.97708080233339" lon="9.119794221567023"><ele>118.6</ele><time>2026-05-01T09:54:53.998Z</time></trkpt><trkpt lat="44.97699206596357" lon="9.119712263781297"><ele>119.0</ele><time>2026-05-01T09:54:54.998Z</time></trkpt><trkpt lat="44.9768908848369" lon="9.119624166364462"><ele>119.0</ele><time>2026-05-01T09:54:55.998Z</time></trkpt><trkpt lat="44.97678414517007" lon="9.11953075913634"><ele>119.0</ele><time>2026-05-01T09:54:56.999Z</time></trkpt><trkpt lat="44.97668057628198" lon="9.11942785783298"><ele>119.0</ele><time>2026-05-01T09:54:57.999Z</time></trkpt><trkpt lat="44.976573827372086" lon="9.11932881152405"><ele>119.0</ele><time>2026-05-01T09:54:58.999Z</time></trkpt><trkpt lat="44.97646877396265" lon="9.119236994419978"><ele>120.4</ele><time>2026-05-01T09:54:59.999Z</time></trkpt><trkpt lat="44.97637354976516" lon="9.119152744374011"><ele>121.80000000000001</ele><time>2026-05-01T09:55:00.999Z</time></trkpt><trkpt lat="44.976287978218714" lon="9.119076042513866"><ele>123.19999999999999</ele><time>2026-05-01T09:55:01.999Z</time></trkpt><trkpt lat="44.976212557762" lon="9.119008405452169"><ele>124.6</ele><time>2026-05-01T09:55:02.999Z</time></trkpt><trkpt lat="44.97614664304712" lon="9.11894404573479"><ele>126.0</ele><time>2026-05-01T09:55:03.999Z</time></trkpt><trkpt lat="44.976065593171285" lon="9.118836316149935"><ele>126.6</ele><time>2026-05-01T09:55:05.999Z</time></trkpt><trkpt lat="44.976061278928796" lon="9.118683983080714"><ele>127.19999999999999</ele><time>2026-05-01T09:55:07.999Z</time></trkpt><trkpt lat="44.97608039411412" lon="9.118570707213932"><ele>127.80000000000001</ele><time>2026-05-01T09:55:08.999Z</time></trkpt><trkpt lat="44.976093480842785" lon="9.11843276308005"><ele>128.4</ele><time>2026-05-01T09:55:09.999Z</time></trkpt><trkpt lat="44.97610222005771" lon="9.118275021704966"><ele>129.0</ele><time>2026-05-01T09:55:10.999Z</time></trkpt><trkpt lat="44.9761097866207" lon="9.118105006881983"><ele>129.75</ele><time>2026-05-01T09:55:11.999Z</time></trkpt><trkpt lat="44.97610817918182" lon="9.117922583291358"><ele>130.5</ele><time>2026-05-01T09:55:12.999Z</time></trkpt><trkpt lat="44.976110251141044" lon="9.117732176581839"><ele>131.25</ele><time>2026-05-01T09:55:13.999Z</time></trkpt><trkpt lat="44.97611802304419" lon="9.117550432387482"><ele>132.0</ele><time>2026-05-01T09:55:14.999Z</time></trkpt><trkpt lat="44.976127673872355" lon="9.11738804440811"><ele>132.5</ele><time>2026-05-01T09:55:16Z</time></trkpt><trkpt lat="44.976143484530624" lon="9.117227197669381"><ele>133.0</ele><time>2026-05-01T09:55:17Z</time></trkpt><trkpt lat="44.97617183064505" lon="9.117078468737358"><ele>133.5</ele><time>2026-05-01T09:55:18Z</time></trkpt><trkpt lat="44.97621449360423" lon="9.116924682488515"><ele>134.0</ele><time>2026-05-01T09:55:19Z</time></trkpt><trkpt lat="44.976270808292625" lon="9.116753239359433"><ele>134.0</ele><time>2026-05-01T09:55:20Z</time></trkpt><trkpt lat="44.97634033345333" lon="9.116571908907543"><ele>134.0</ele><time>2026-05-01T09:55:21Z</time></trkpt><trkpt lat="44.976405478709246" lon="9.11640502516341"><ele>134.0</ele><time>2026-05-01T09:55:22Z</time></trkpt><trkpt lat="44.97646835681427" lon="9.116242978068227"><ele>134.0</ele><time>2026-05-01T09:55:23Z</time></trkpt><trkpt lat="44.97653135745138" lon="9.116083138651414"><ele>134.4</ele><time>2026-05-01T09:55:24Z</time></trkpt><trkpt lat="44.97658541083816" lon="9.115936166183971"><ele>134.8</ele><time>2026-05-01T09:55:25Z</time></trkpt><trkpt lat="44.97662605071322" lon="9.115804858562592"><ele>135.2</ele><time>2026-05-01T09:55:26Z</time></trkpt><trkpt lat="44.97665322709931" lon="9.115688454483507"><ele>135.6</ele><time>2026-05-01T09:55:27Z</time></trkpt><trkpt lat="44.97668133430573" lon="9.115587359331748"><ele>136.0</ele><time>2026-05-01T09:55:28Z</time></trkpt><trkpt lat="44.97668499781027" lon="9.115476199779799"><ele>136.6</ele><time>2026-05-01T09:55:29Z</time></trkpt><trkpt lat="44.976679669162955" lon="9.115342259881535"><ele>137.2</ele><time>2026-05-01T09:55:30Z</time></trkpt><trkpt lat="44.9766657217512" lon="9.115196555627312"><ele>137.8</ele><time>2026-05-01T09:55:31Z</time></trkpt><trkpt lat="44.97668333018628" lon="9.115045742435875"><ele>138.4</ele><time>2026-05-01T09:55:32Z</time></trkpt><trkpt lat="44.97670905585663" lon="9.114898609315079"><ele>139.0</ele><time>2026-05-01T09:55:33Z</time></trkpt><trkpt lat="44.97672963894921" lon="9.114750587078472"><ele>139.0</ele><time>2026-05-01T09:55:34Z</time></trkpt><trkpt lat="44.976736066014226" lon="9.11459961861073"><ele>139.0</ele><time>2026-05-01T09:55:35Z</time></trkpt><trkpt lat="44.97672807019338" lon="9.114445890934187"><ele>139.0</ele><time>2026-05-01T09:55:36Z</time></trkpt><trkpt lat="44.97671018216559" lon="9.114284268422844"><ele>139.0</ele><time>2026-05-01T09:55:37Z</time></trkpt><trkpt lat="44.976690353562525" lon="9.11411439466844"><ele>141.25</ele><time>2026-05-01T09:55:38Z</time></trkpt><trkpt lat="44.976674790740596" lon="9.113938509526106"><ele>143.5</ele><time>2026-05-01T09:55:39Z</time></trkpt><trkpt lat="44.97666373832203" lon="9.11375664643862"><ele>145.75</ele><time>2026-05-01T09:55:40Z</time></trkpt><trkpt lat="44.976652772422945" lon="9.113568332396111"><ele>148.0</ele><time>2026-05-01T09:55:41Z</time></trkpt><trkpt lat="44.976639341367914" lon="9.113370073854247"><ele>147.75</ele><time>2026-05-01T09:55:42Z</time></trkpt><trkpt lat="44.976625560004294" lon="9.113171951122686"><ele>147.5</ele><time>2026-05-01T09:55:43Z</time></trkpt><trkpt lat="44.97661207268654" lon="9.112966365401189"><ele>147.25</ele><time>2026-05-01T09:55:44Z</time></trkpt><trkpt lat="44.976596439001334" lon="9.112753748453512"><ele>147.0</ele><time>2026-05-01T09:55:45Z</time></trkpt><trkpt lat="44.976581500215495" lon="9.112535076299071"><ele>146.33333333333334</ele><time>2026-05-01T09:55:46Z</time></trkpt><trkpt lat="44.976566148631996" lon="9.11232166726018"><ele>145.66666666666669</ele><time>2026-05-01T09:55:47Z</time></trkpt><trkpt lat="44.97654951378867" lon="9.112101716387967"><ele>145.0</ele><time>2026-05-01T09:55:48Z</time></trkpt><trkpt lat="44.97653389852727" lon="9.111874333481168"><ele>145.0</ele><time>2026-05-01T09:55:49Z</time></trkpt><trkpt lat="44.97651978675326" lon="9.111642799769365"><ele>145.0</ele><time>2026-05-01T09:55:50.001Z</time></trkpt><trkpt lat="44.97650389254643" lon="9.111413473818235"><ele>145.0</ele><time>2026-05-01T09:55:51.001Z</time></trkpt><trkpt lat="44.97648296447771" lon="9.111185558518617"><ele>144.0</ele><time>2026-05-01T09:55:52.001Z</time></trkpt><trkpt lat="44.97646622459287" lon="9.110954150835301"><ele>143.0</ele><time>2026-05-01T09:55:53.001Z</time></trkpt><trkpt lat="44.97645041345644" lon="9.110726578425465"><ele>142.0</ele><time>2026-05-01T09:55:54.001Z</time></trkpt><trkpt lat="44.976434831167126" lon="9.110511268931125"><ele>141.0</ele><time>2026-05-01T09:55:55.001Z</time></trkpt><trkpt lat="44.97642243149151" lon="9.11030332489507"><ele>140.0</ele><time>2026-05-01T09:55:56.001Z</time></trkpt><trkpt lat="44.976405753457406" lon="9.110094938278646"><ele>139.0</ele><time>2026-05-01T09:55:57.001Z</time></trkpt><trkpt lat="44.97638973533014" lon="9.109885442434518"><ele>138.0</ele><time>2026-05-01T09:55:58.001Z</time></trkpt><trkpt lat="44.9763741403731" lon="9.109680057052723"><ele>136.5</ele><time>2026-05-01T09:55:59.001Z</time></trkpt><trkpt lat="44.97636317164911" lon="9.109481317512165"><ele>135.0</ele><time>2026-05-01T09:56:00.001Z</time></trkpt><trkpt lat="44.976350127678806" lon="9.109287546879614"><ele>133.5</ele><time>2026-05-01T09:56:01.001Z</time></trkpt><trkpt lat="44.97633861039599" lon="9.109114731413017"><ele>132.0</ele><time>2026-05-01T09:56:02.001Z</time></trkpt><trkpt lat="44.976319992117205" lon="9.10895663703071"><ele>130.5</ele><time>2026-05-01T09:56:03.001Z</time></trkpt><trkpt lat="44.9762776789482" lon="9.108805087193344"><ele>129.0</ele><time>2026-05-01T09:56:04.001Z</time></trkpt><trkpt lat="44.976216086761475" lon="9.10865375413754"><ele>127.5</ele><time>2026-05-01T09:56:05.001Z</time></trkpt><trkpt lat="44.976143936878486" lon="9.108493745325351"><ele>126.0</ele><time>2026-05-01T09:56:06.001Z</time></trkpt><trkpt lat="44.97607324700266" lon="9.108342298369397"><ele>125.0</ele><time>2026-05-01T09:56:07.001Z</time></trkpt><trkpt lat="44.97602091714191" lon="9.108192122729108"><ele>124.0</ele><time>2026-05-01T09:56:08.001Z</time></trkpt><trkpt lat="44.975985642214454" lon="9.108059430118077"><ele>123.0</ele><time>2026-05-01T09:56:09.001Z</time></trkpt><trkpt lat="44.9759657581078" lon="9.10791843397162"><ele>122.0</ele><time>2026-05-01T09:56:10.001Z</time></trkpt><trkpt lat="44.97595659202667" lon="9.107753357717284"><ele>121.0</ele><time>2026-05-01T09:56:11.001Z</time></trkpt><trkpt lat="44.975954542928854" lon="9.107570703654632"><ele>120.25</ele><time>2026-05-01T09:56:12.001Z</time></trkpt><trkpt lat="44.97595057180066" lon="9.107372052822258"><ele>119.5</ele><time>2026-05-01T09:56:13.001Z</time></trkpt><trkpt lat="44.9759465773049" lon="9.107160532304546"><ele>118.75</ele><time>2026-05-01T09:56:14.001Z</time></trkpt><trkpt lat="44.97594015188566" lon="9.106941586400898"><ele>118.0</ele><time>2026-05-01T09:56:15.001Z</time></trkpt><trkpt lat="44.97593497602469" lon="9.106714948726127"><ele>119.0</ele><time>2026-05-01T09:56:16.001Z</time></trkpt><trkpt lat="44.97593341712213" lon="9.106497503044949"><ele>120.0</ele><time>2026-05-01T09:56:17.001Z</time></trkpt><trkpt lat="44.97593353451873" lon="9.106293611241494"><ele>121.0</ele><time>2026-05-01T09:56:18.001Z</time></trkpt><trkpt lat="44.975930902640094" lon="9.106104878229868"><ele>122.0</ele><time>2026-05-01T09:56:19.001Z</time></trkpt><trkpt lat="44.975928907585654" lon="9.105940585328868"><ele>122.0</ele><time>2026-05-01T09:56:20.001Z</time></trkpt><trkpt lat="44.97592779916505" lon="9.105798646560292"><ele>121.99999999999999</ele><time>2026-05-01T09:56:21.001Z</time></trkpt><trkpt lat="44.975932644711236" lon="9.105670632554636"><ele>121.99999999999999</ele><time>2026-05-01T09:56:22.001Z</time></trkpt><trkpt lat="44.97595286321737" lon="9.10556290164063"><ele>122.0</ele><time>2026-05-01T09:56:23.001Z</time></trkpt><trkpt lat="44.97599533937053" lon="9.105435677224841"><ele>122.0</ele><time>2026-05-01T09:56:25.001Z</time></trkpt><trkpt lat="44.97605971611044" lon="9.10529414074258"><ele>122.16666666666666</ele><time>2026-05-01T09:56:28.001Z</time></trkpt><trkpt lat="44.97608631418228" lon="9.105191547685033"><ele>122.33333333333333</ele><time>2026-05-01T09:56:29.001Z</time></trkpt><trkpt lat="44.97609588864243" lon="9.105064274370667"><ele>122.5</ele><time>2026-05-01T09:56:30.001Z</time></trkpt><trkpt lat="44.97610783829529" lon="9.104936899280084"><ele>122.66666666666666</ele><time>2026-05-01T09:56:31.001Z</time></trkpt><trkpt lat="44.9761398625494" lon="9.104826426284971"><ele>122.83333333333333</ele><time>2026-05-01T09:56:32.002Z</time></trkpt><trkpt lat="44.976155895270026" lon="9.104699984077097"><ele>123.0</ele><time>2026-05-01T09:56:33.002Z</time></trkpt><trkpt lat="44.97615605119323" lon="9.104572524179629"><ele>123.60000000000001</ele><time>2026-05-01T09:56:34.002Z</time></trkpt><trkpt lat="44.97612421330622" lon="9.104448821310742"><ele>124.20000000000002</ele><time>2026-05-01T09:56:35.002Z</time></trkpt><trkpt lat="44.976055303070765" lon="9.10435327418833"><ele>124.8</ele><time>2026-05-01T09:56:36.002Z</time></trkpt><trkpt lat="44.975970959745155" lon="9.104259363023786"><ele>125.4</ele><time>2026-05-01T09:56:37.002Z</time></trkpt><trkpt lat="44.975871571323204" lon="9.104183699142263"><ele>126.0</ele><time>2026-05-01T09:56:38.002Z</time></trkpt><trkpt lat="44.97576521911676" lon="9.104095575626793"><ele>130.0</ele><time>2026-05-01T09:56:39.002Z</time></trkpt><trkpt lat="44.975658344003655" lon="9.10400806294336"><ele>134.0</ele><time>2026-05-01T09:56:40.002Z</time></trkpt><trkpt lat="44.97556422080139" lon="9.103930316461524"><ele>138.0</ele><time>2026-05-01T09:56:41.002Z</time></trkpt><trkpt lat="44.97546089730535" lon="9.103846529596844"><ele>142.0</ele><time>2026-05-01T09:56:42.002Z</time></trkpt><trkpt lat="44.975359814839415" lon="9.103748905752601"><ele>142.0</ele><time>2026-05-01T09:56:43.002Z</time></trkpt><trkpt lat="44.97524543107396" lon="9.103690366752948"><ele>142.0</ele><time>2026-05-01T09:56:44.002Z</time></trkpt><trkpt lat="44.97513162883423" lon="9.103638689917185"><ele>142.0</ele><time>2026-05-01T09:56:45.002Z</time></trkpt><trkpt lat="44.97502021144711" lon="9.103604715965625"><ele>142.0</ele><time>2026-05-01T09:56:46.002Z</time></trkpt><trkpt lat="44.97492352919295" lon="9.1035769597425"><ele>141.83333333333334</ele><time>2026-05-01T09:56:46.998Z</time></trkpt><trkpt lat="44.97484498897934" lon="9.10354650312472"><ele>141.66666666666669</ele><time>2026-05-01T09:56:47.998Z</time></trkpt><trkpt lat="44.97478253013327" lon="9.103501567899675"><ele>141.5</ele><time>2026-05-01T09:56:48.998Z</time></trkpt><trkpt lat="44.97473680265261" lon="9.103354214021632"><ele>141.33333333333334</ele><time>2026-05-01T09:56:50.998Z</time></trkpt><trkpt lat="44.974792177209714" lon="9.103271540422924"><ele>141.16666666666666</ele><time>2026-05-01T09:56:52.998Z</time></trkpt><trkpt lat="44.97485591738282" lon="9.103301395814924"><ele>141.0</ele><time>2026-05-01T09:56:53.998Z</time></trkpt><trkpt lat="44.97493047246322" lon="9.103331575090545"><ele>141.25</ele><time>2026-05-01T09:56:54.998Z</time></trkpt><trkpt lat="44.97507044625651" lon="9.103378134992974"><ele>141.5</ele><time>2026-05-01T09:56:56.998Z</time></trkpt><trkpt lat="44.97519161054184" lon="9.103411810403927"><ele>141.75</ele><time>2026-05-01T09:56:57.998Z</time></trkpt><trkpt lat="44.975310621766276" lon="9.103413274149963"><ele>142.0</ele><time>2026-05-01T09:56:58.998Z</time></trkpt><trkpt lat="44.97541123627456" lon="9.103420614865682"><ele>142.0</ele><time>2026-05-01T09:56:59.998Z</time></trkpt><trkpt lat="44.975520124000596" lon="9.103439438246216"><ele>142.0</ele><time>2026-05-01T09:57:00.998Z</time></trkpt><trkpt lat="44.975620580094315" lon="9.103401962774988"><ele>142.0</ele><time>2026-05-01T09:57:01.998Z</time></trkpt><trkpt lat="44.97570989578426" lon="9.103369449292897"><ele>142.0</ele><time>2026-05-01T09:57:02.998Z</time></trkpt><trkpt lat="44.97579706019112" lon="9.10331428415127"><ele>142.0</ele><time>2026-05-01T09:57:03.999Z</time></trkpt><trkpt lat="44.97587797722042" lon="9.103235320566792"><ele>145.0</ele><time>2026-05-01T09:57:04.999Z</time></trkpt><trkpt lat="44.9759529570264" lon="9.103130172322064"><ele>148.0</ele><time>2026-05-01T09:57:05.999Z</time></trkpt><trkpt lat="44.97602644720283" lon="9.103023756619883"><ele>151.0</ele><time>2026-05-01T09:57:06.999Z</time></trkpt><trkpt lat="44.97609466295621" lon="9.10293165837641"><ele>154.0</ele><time>2026-05-01T09:57:07.999Z</time></trkpt><trkpt lat="44.976173490067566" lon="9.10290739812296"><ele>157.0</ele><time>2026-05-01T09:57:08.999Z</time></trkpt><trkpt lat="44.97625267489009" lon="9.102877458809656"><ele>157.0</ele><time>2026-05-01T09:57:09.999Z</time></trkpt><trkpt lat="44.97634064857453" lon="9.10286751313455"><ele>157.0</ele><time>2026-05-01T09:57:10.999Z</time></trkpt><trkpt lat="44.97642528821364" lon="9.102838215793117"><ele>157.0</ele><time>2026-05-01T09:57:11.999Z</time></trkpt><trkpt lat="44.97650677522259" lon="9.102799661355927"><ele>157.0</ele><time>2026-05-01T09:57:12.999Z</time></trkpt><trkpt lat="44.97656376363351" lon="9.102729906872046"><ele>157.0</ele><time>2026-05-01T09:57:13.999Z</time></trkpt><trkpt lat="44.97660567699723" lon="9.102659262623781"><ele>157.0</ele><time>2026-05-01T09:57:14.999Z</time></trkpt><trkpt lat="44.976635973296865" lon="9.102577284716627"><ele>157.0</ele><time>2026-05-01T09:57:15.999Z</time></trkpt><trkpt lat="44.97658980179606" lon="9.102429687916285"><ele>157.0</ele><time>2026-05-01T09:57:17.999Z</time></trkpt><trkpt lat="44.97648064167901" lon="9.102374498153297"><ele>157.0</ele><time>2026-05-01T09:57:18.999Z</time></trkpt><trkpt lat="44.976392833033294" lon="9.102357460135346"><ele>157.0</ele><time>2026-05-01T09:57:19.999Z</time></trkpt><trkpt lat="44.976296865528724" lon="9.10236167364786"><ele>157.0</ele><time>2026-05-01T09:57:20.999Z</time></trkpt><trkpt lat="44.97619597196714" lon="9.102387146065709"><ele>157.0</ele><time>2026-05-01T09:57:22Z</time></trkpt><trkpt lat="44.976099933003006" lon="9.102431204581553"><ele>157.0</ele><time>2026-05-01T09:57:23Z</time></trkpt><trkpt lat="44.97601193838633" lon="9.1025054826923"><ele>157.0</ele><time>2026-05-01T09:57:24Z</time></trkpt><trkpt lat="44.97592589683027" lon="9.102575600002638"><ele>157.0</ele><time>2026-05-01T09:57:25Z</time></trkpt><trkpt lat="44.97583435297312" lon="9.102610922506377"><ele>157.0</ele><time>2026-05-01T09:57:26Z</time></trkpt><trkpt lat="44.97573812104915" lon="9.102639239327711"><ele>157.5</ele><time>2026-05-01T09:57:27Z</time></trkpt><trkpt lat="44.975623629567416" lon="9.102631490205244"><ele>158.0</ele><time>2026-05-01T09:57:28Z</time></trkpt><trkpt lat="44.97548951852882" lon="9.102621439603608"><ele>158.5</ele><time>2026-05-01T09:57:29Z</time></trkpt><trkpt lat="44.975360644156645" lon="9.102611166692318"><ele>159.0</ele><time>2026-05-01T09:57:30Z</time></trkpt><trkpt lat="44.97524209530141" lon="9.102614758678389"><ele>159.0</ele><time>2026-05-01T09:57:31Z</time></trkpt><trkpt lat="44.975127689635805" lon="9.102591380197083"><ele>159.0</ele><time>2026-05-01T09:57:32Z</time></trkpt><trkpt lat="44.97502180886429" lon="9.102529600822796"><ele>159.0</ele><time>2026-05-01T09:57:33Z</time></trkpt><trkpt lat="44.974902667048866" lon="9.102481033713559"><ele>159.0</ele><time>2026-05-01T09:57:34Z</time></trkpt><trkpt lat="44.97479321491082" lon="9.102409696622004"><ele>162.6</ele><time>2026-05-01T09:57:35Z</time></trkpt><trkpt lat="44.97469533129048" lon="9.102367142416458"><ele>166.2</ele><time>2026-05-01T09:57:36Z</time></trkpt><trkpt lat="44.97459118229842" lon="9.102338422169934"><ele>169.79999999999998</ele><time>2026-05-01T09:57:37Z</time></trkpt><trkpt lat="44.974481674681336" lon="9.102323728875925"><ele>173.4</ele><time>2026-05-01T09:57:38Z</time></trkpt><trkpt lat="44.97436634076032" lon="9.10234860256823"><ele>177.0</ele><time>2026-05-01T09:57:39Z</time></trkpt><trkpt lat="44.974266473140396" lon="9.10235229138549"><ele>177.0</ele><time>2026-05-01T09:57:40Z</time></trkpt><trkpt lat="44.974191948387755" lon="9.102333113888285"><ele>177.0</ele><time>2026-05-01T09:57:41Z</time></trkpt><trkpt lat="44.97416745518381" lon="9.10224712689038"><ele>177.0</ele><time>2026-05-01T09:57:42Z</time></trkpt><trkpt lat="44.97418725179787" lon="9.102156002033402"><ele>177.0</ele><time>2026-05-01T09:57:44Z</time></trkpt><trkpt lat="44.97430835496158" lon="9.102128337404634"><ele>177.0</ele><time>2026-05-01T09:57:46Z</time></trkpt><trkpt lat="44.974388246410975" lon="9.102140582411185"><ele>177.0</ele><time>2026-05-01T09:57:47Z</time></trkpt><trkpt lat="44.97449250097169" lon="9.102148292827748"><ele>177.0</ele><time>2026-05-01T09:57:48Z</time></trkpt><trkpt lat="44.97461400963627" lon="9.102159194126843"><ele>177.0</ele><time>2026-05-01T09:57:49.001Z</time></trkpt><trkpt lat="44.97473188884297" lon="9.102146862347029"><ele>177.0</ele><time>2026-05-01T09:57:50.001Z</time></trkpt><trkpt lat="44.974831486439705" lon="9.102163604121408"><ele>177.0</ele><time>2026-05-01T09:57:51.001Z</time></trkpt><trkpt lat="44.97492879008897" lon="9.102181779912627"><ele>177.0</ele><time>2026-05-01T09:57:52.001Z</time></trkpt><trkpt lat="44.97502534235967" lon="9.102195590415276"><ele>176.33333333333334</ele><time>2026-05-01T09:57:53.001Z</time></trkpt><trkpt lat="44.975114257024565" lon="9.102211771190243"><ele>175.66666666666666</ele><time>2026-05-01T09:57:54.001Z</time></trkpt><trkpt lat="44.97519992706289" lon="9.102209293743641"><ele>175.0</ele><time>2026-05-01T09:57:55.001Z</time></trkpt><trkpt lat="44.975276014644415" lon="9.102189175744329"><ele>174.33333333333331</ele><time>2026-05-01T09:57:56.001Z</time></trkpt><trkpt lat="44.97533846093459" lon="9.102124002021116"><ele>173.66666666666666</ele><time>2026-05-01T09:57:57.001Z</time></trkpt><trkpt lat="44.9753936162946" lon="9.102037428593876"><ele>173.0</ele><time>2026-05-01T09:57:58.001Z</time></trkpt><trkpt lat="44.97543018812006" lon="9.101907951737688"><ele>173.0</ele><time>2026-05-01T09:57:59.001Z</time></trkpt><trkpt lat="44.97544552254643" lon="9.10176473830766"><ele>173.0</ele><time>2026-05-01T09:58:00.001Z</time></trkpt><trkpt lat="44.97544358411235" lon="9.101637953668076"><ele>173.0</ele><time>2026-05-01T09:58:01.001Z</time></trkpt><trkpt lat="44.97544114613614" lon="9.101507176818687"><ele>173.0</ele><time>2026-05-01T09:58:02.001Z</time></trkpt><trkpt lat="44.97543983940293" lon="9.101378872638815"><ele>173.0</ele><time>2026-05-01T09:58:03.001Z</time></trkpt><trkpt lat="44.97543098537613" lon="9.101261740442547"><ele>173.16666666666666</ele><time>2026-05-01T09:58:04.001Z</time></trkpt><trkpt lat="44.97540242051588" lon="9.10116562832568"><ele>173.33333333333331</ele><time>2026-05-01T09:58:05.001Z</time></trkpt><trkpt lat="44.97535751988119" lon="9.101066244305514"><ele>173.5</ele><time>2026-05-01T09:58:06.001Z</time></trkpt><trkpt lat="44.97530780305779" lon="9.100956646954957"><ele>173.66666666666666</ele><time>2026-05-01T09:58:07.001Z</time></trkpt><trkpt lat="44.97526169439699" lon="9.100837295734417"><ele>173.83333333333334</ele><time>2026-05-01T09:58:08.001Z</time></trkpt><trkpt lat="44.97520321783947" lon="9.100716909507156"><ele>174.0</ele><time>2026-05-01T09:58:09.001Z</time></trkpt><trkpt lat="44.97514987285602" lon="9.100591240216332"><ele>174.0</ele><time>2026-05-01T09:58:10.001Z</time></trkpt><trkpt lat="44.97510558237897" lon="9.10044927876354"><ele>174.0</ele><time>2026-05-01T09:58:11.001Z</time></trkpt><trkpt lat="44.97507596863659" lon="9.10029299789285"><ele>174.0</ele><time>2026-05-01T09:58:12.001Z</time></trkpt><trkpt lat="44.975087835303704" lon="9.100125010881309"><ele>174.0</ele><time>2026-05-01T09:58:13.001Z</time></trkpt><trkpt lat="44.97510377062224" lon="9.099949737579907"><ele>173.75</ele><time>2026-05-01T09:58:14.001Z</time></trkpt><trkpt lat="44.97512684434609" lon="9.099759963368635"><ele>173.5</ele><time>2026-05-01T09:58:15.001Z</time></trkpt><trkpt lat="44.97514836222886" lon="9.099552364040246"><ele>173.25</ele><time>2026-05-01T09:58:16.001Z</time></trkpt><trkpt lat="44.97517951291676" lon="9.09933548642511"><ele>173.0</ele><time>2026-05-01T09:58:17.001Z</time></trkpt><trkpt lat="44.975204936818024" lon="9.099145497673998"><ele>173.0</ele><time>2026-05-01T09:58:18.001Z</time></trkpt><trkpt lat="44.97523177917849" lon="9.098948139577447"><ele>173.0</ele><time>2026-05-01T09:58:19.001Z</time></trkpt><trkpt lat="44.975258743991624" lon="9.098739484876182"><ele>173.0</ele><time>2026-05-01T09:58:20.001Z</time></trkpt><trkpt lat="44.9752872234726" lon="9.09852876904811"><ele>173.0</ele><time>2026-05-01T09:58:21.001Z</time></trkpt><trkpt lat="44.975314041481724" lon="9.09831782789438"><ele>173.0</ele><time>2026-05-01T09:58:22.001Z</time></trkpt><trkpt lat="44.97535496293764" lon="9.09811581111779"><ele>173.0</ele><time>2026-05-01T09:58:23.002Z</time></trkpt><trkpt lat="44.9753735761246" lon="9.097904558763334"><ele>173.0</ele><time>2026-05-01T09:58:24.002Z</time></trkpt><trkpt lat="44.9753965905873" lon="9.097698163246347"><ele>173.0</ele><time>2026-05-01T09:58:25.002Z</time></trkpt><trkpt lat="44.97542893398446" lon="9.097486688124942"><ele>173.0</ele><time>2026-05-01T09:58:26.002Z</time></trkpt><trkpt lat="44.975453871492945" lon="9.09727461053319"><ele>173.0</ele><time>2026-05-01T09:58:27.002Z</time></trkpt><trkpt lat="44.97548396961932" lon="9.097067025627105"><ele>173.0</ele><time>2026-05-01T09:58:28.002Z</time></trkpt><trkpt lat="44.975510095108255" lon="9.096870174234418"><ele>173.0</ele><time>2026-05-01T09:58:29.002Z</time></trkpt><trkpt lat="44.97553561438202" lon="9.096675193425785"><ele>172.0</ele><time>2026-05-01T09:58:30.002Z</time></trkpt><trkpt lat="44.97556259036916" lon="9.096494371196146"><ele>171.0</ele><time>2026-05-01T09:58:31.002Z</time></trkpt><trkpt lat="44.97558384895755" lon="9.096320990636348"><ele>170.0</ele><time>2026-05-01T09:58:32.002Z</time></trkpt><trkpt lat="44.97559620664231" lon="9.096153228413296"><ele>169.0</ele><time>2026-05-01T09:58:33.002Z</time></trkpt><trkpt lat="44.975595475064964" lon="9.095994177153782"><ele>169.0</ele><time>2026-05-01T09:58:34.002Z</time></trkpt><trkpt lat="44.97558674424106" lon="9.095833103800274"><ele>169.0</ele><time>2026-05-01T09:58:35.002Z</time></trkpt><trkpt lat="44.97557920710981" lon="9.095701968054835"><ele>169.0</ele><time>2026-05-01T09:58:36.002Z</time></trkpt><trkpt lat="44.97556208999672" lon="9.095605358533074"><ele>169.0</ele><time>2026-05-01T09:58:37.002Z</time></trkpt><trkpt lat="44.9754534085174" lon="9.095553319274352"><ele>169.0</ele><time>2026-05-01T09:58:39.002Z</time></trkpt><trkpt lat="44.975391430116666" lon="9.095608142921355"><ele>169.0</ele><time>2026-05-01T09:58:40.002Z</time></trkpt><trkpt lat="44.975340664239866" lon="9.09570640654032"><ele>169.0</ele><time>2026-05-01T09:58:41.002Z</time></trkpt><trkpt lat="44.975296140524094" lon="9.095825111632577"><ele>169.0</ele><time>2026-05-01T09:58:42.002Z</time></trkpt><trkpt lat="44.97523808293511" lon="9.095953903403663"><ele>169.0</ele><time>2026-05-01T09:58:43.002Z</time></trkpt><trkpt lat="44.97516343121924" lon="9.096069740503212"><ele>169.0</ele><time>2026-05-01T09:58:44.002Z</time></trkpt><trkpt lat="44.97510169656581" lon="9.096187458040346"><ele>169.0</ele><time>2026-05-01T09:58:45.002Z</time></trkpt><trkpt lat="44.97504975808384" lon="9.09629452852827"><ele>169.0</ele><time>2026-05-01T09:58:46.002Z</time></trkpt><trkpt lat="44.97498730594018" lon="9.096376563522936"><ele>169.0</ele><time>2026-05-01T09:58:47.002Z</time></trkpt><trkpt lat="44.97490628824445" lon="9.096438869907063"><ele>169.0</ele><time>2026-05-01T09:58:49.002Z</time></trkpt><trkpt lat="44.97484424926114" lon="9.096285216822395"><ele>169.0</ele><time>2026-05-01T09:58:51.002Z</time></trkpt><trkpt lat="44.97488630495311" lon="9.096174587943587"><ele>166.75</ele><time>2026-05-01T09:58:52.002Z</time></trkpt><trkpt lat="44.974901914109964" lon="9.096039342676832"><ele>164.5</ele><time>2026-05-01T09:58:52.998Z</time></trkpt><trkpt lat="44.97491357421107" lon="9.095879369730934"><ele>162.25</ele><time>2026-05-01T09:58:53.998Z</time></trkpt><trkpt lat="44.97493528281683" lon="9.095710898562057"><ele>160.0</ele><time>2026-05-01T09:58:54.998Z</time></trkpt><trkpt lat="44.97494868040302" lon="9.095545383263627"><ele>159.0</ele><time>2026-05-01T09:58:55.998Z</time></trkpt><trkpt lat="44.974955922257536" lon="9.095387697853305"><ele>158.0</ele><time>2026-05-01T09:58:56.998Z</time></trkpt><trkpt lat="44.974946313461984" lon="9.095228332447636"><ele>157.0</ele><time>2026-05-01T09:58:57.998Z</time></trkpt><trkpt lat="44.97491834658036" lon="9.095044199817403"><ele>156.0</ele><time>2026-05-01T09:58:58.998Z</time></trkpt><trkpt lat="44.97487407896034" lon="9.09485495195659"><ele>154.75</ele><time>2026-05-01T09:58:59.998Z</time></trkpt><trkpt lat="44.97483014448227" lon="9.094673023529657"><ele>153.5</ele><time>2026-05-01T09:59:00.998Z</time></trkpt><trkpt lat="44.97479359451004" lon="9.094496242048871"><ele>152.25</ele><time>2026-05-01T09:59:01.998Z</time></trkpt><trkpt lat="44.97476758851818" lon="9.094321095564345"><ele>151.0</ele><time>2026-05-01T09:59:02.998Z</time></trkpt><trkpt lat="44.97473689056221" lon="9.094157937890241"><ele>149.8</ele><time>2026-05-01T09:59:03.998Z</time></trkpt><trkpt lat="44.97472003895482" lon="9.093997274876452"><ele>148.6</ele><time>2026-05-01T09:59:04.998Z</time></trkpt><trkpt lat="44.97472678029879" lon="9.093843210269942"><ele>147.4</ele><time>2026-05-01T09:59:05.998Z</time></trkpt><trkpt lat="44.97476837615978" lon="9.093704560636457"><ele>146.2</ele><time>2026-05-01T09:59:06.998Z</time></trkpt><trkpt lat="44.9747969889047" lon="9.093553030188378"><ele>145.0</ele><time>2026-05-01T09:59:07.998Z</time></trkpt><trkpt lat="44.97485986094091" lon="9.093386176474082"><ele>143.75</ele><time>2026-05-01T09:59:08.998Z</time></trkpt><trkpt lat="44.9749277673065" lon="9.093214526505417"><ele>142.5</ele><time>2026-05-01T09:59:09.998Z</time></trkpt><trkpt lat="44.97499364064752" lon="9.093048953047695"><ele>141.25</ele><time>2026-05-01T09:59:10.999Z</time></trkpt><trkpt lat="44.97504511358582" lon="9.092897946274554"><ele>140.0</ele><time>2026-05-01T09:59:11.999Z</time></trkpt><trkpt lat="44.97509641669651" lon="9.092761737540966"><ele>140.0</ele><time>2026-05-01T09:59:12.999Z</time></trkpt><trkpt lat="44.97516902159305" lon="9.092679796947127"><ele>140.0</ele><time>2026-05-01T09:59:13.999Z</time></trkpt><trkpt lat="44.9752444518706" lon="9.092622462914857"><ele>140.0</ele><time>2026-05-01T09:59:14.999Z</time></trkpt><trkpt lat="44.975324293774065" lon="9.092561987969107"><ele>140.0</ele><time>2026-05-01T09:59:15.999Z</time></trkpt><trkpt lat="44.975387666839474" lon="9.092477047892377"><ele>140.0</ele><time>2026-05-01T09:59:16.999Z</time></trkpt><trkpt lat="44.97543579447789" lon="9.092391207127815"><ele>140.0</ele><time>2026-05-01T09:59:17.999Z</time></trkpt><trkpt lat="44.97545905281622" lon="9.092283688518163"><ele>139.6</ele><time>2026-05-01T09:59:18.999Z</time></trkpt><trkpt lat="44.97546151597738" lon="9.092154016324688"><ele>139.2</ele><time>2026-05-01T09:59:19.999Z</time></trkpt><trkpt lat="44.97546517544575" lon="9.092017775553499"><ele>138.8</ele><time>2026-05-01T09:59:20.999Z</time></trkpt><trkpt lat="44.97547558332233" lon="9.091867994209043"><ele>138.4</ele><time>2026-05-01T09:59:21.999Z</time></trkpt><trkpt lat="44.9754870506768" lon="9.091721449886412"><ele>138.0</ele><time>2026-05-01T09:59:22.999Z</time></trkpt><trkpt lat="44.97549475217795" lon="9.091570425329735"><ele>139.75</ele><time>2026-05-01T09:59:23.999Z</time></trkpt><trkpt lat="44.97550370432681" lon="9.091414287676303"><ele>141.5</ele><time>2026-05-01T09:59:24.999Z</time></trkpt><trkpt lat="44.97552147294908" lon="9.091255884289007"><ele>143.25</ele><time>2026-05-01T09:59:25.999Z</time></trkpt><trkpt lat="44.975547583898646" lon="9.091093812195114"><ele>145.0</ele><time>2026-05-01T09:59:27Z</time></trkpt><trkpt lat="44.97559625224482" lon="9.09093772491362"><ele>145.0</ele><time>2026-05-01T09:59:28Z</time></trkpt><trkpt lat="44.97567761866387" lon="9.090784301715033"><ele>145.0</ele><time>2026-05-01T09:59:29Z</time></trkpt><trkpt lat="44.97575796567574" lon="9.090646196703421"><ele>145.0</ele><time>2026-05-01T09:59:30Z</time></trkpt><trkpt lat="44.975843837780765" lon="9.09052797646236"><ele>145.0</ele><time>2026-05-01T09:59:31Z</time></trkpt><trkpt lat="44.97592954572397" lon="9.090424476658415"><ele>146.8</ele><time>2026-05-01T09:59:32Z</time></trkpt><trkpt lat="44.97599714739063" lon="9.090344092825273"><ele>148.6</ele><time>2026-05-01T09:59:33Z</time></trkpt><trkpt lat="44.97605093918087" lon="9.090260182452386"><ele>150.4</ele><time>2026-05-01T09:59:34Z</time></trkpt><trkpt lat="44.97610070973511" lon="9.090157633629866"><ele>152.2</ele><time>2026-05-01T09:59:35Z</time></trkpt><trkpt lat="44.976116730264614" lon="9.090025402720126"><ele>154.0</ele><time>2026-05-01T09:59:36Z</time></trkpt><trkpt lat="44.97611336611203" lon="9.08988027878315"><ele>154.8</ele><time>2026-05-01T09:59:37Z</time></trkpt><trkpt lat="44.976083366704756" lon="9.089737112929168"><ele>155.60000000000002</ele><time>2026-05-01T09:59:38Z</time></trkpt><trkpt lat="44.976038632121096" lon="9.089586159175889"><ele>156.4</ele><time>2026-05-01T09:59:39Z</time></trkpt><trkpt lat="44.976007821850345" lon="9.089431594190641"><ele>157.20000000000002</ele><time>2026-05-01T09:59:40Z</time></trkpt><trkpt lat="44.975974943735" lon="9.089281339732828"><ele>158.0</ele><time>2026-05-01T09:59:41Z</time></trkpt><trkpt lat="44.975946456231554" lon="9.089129128345933"><ele>158.0</ele><time>2026-05-01T09:59:42Z</time></trkpt><trkpt lat="44.9759189069023" lon="9.088981236394735"><ele>158.0</ele><time>2026-05-01T09:59:43Z</time></trkpt><trkpt lat="44.97589770832372" lon="9.088824639697552"><ele>158.0</ele><time>2026-05-01T09:59:44Z</time></trkpt><trkpt lat="44.97587823827892" lon="9.08867036677309"><ele>158.0</ele><time>2026-05-01T09:59:45Z</time></trkpt><trkpt lat="44.97586551353182" lon="9.0885161082436"><ele>158.0</ele><time>2026-05-01T09:59:46Z</time></trkpt><trkpt lat="44.97585446570111" lon="9.08838056125606"><ele>158.0</ele><time>2026-05-01T09:59:47Z</time></trkpt><trkpt lat="44.975843426167884" lon="9.088247051285808"><ele>158.0</ele><time>2026-05-01T09:59:48Z</time></trkpt><trkpt lat="44.97583514095838" lon="9.088132142833837"><ele>158.0</ele><time>2026-05-01T09:59:49Z</time></trkpt><trkpt lat="44.97583350724704" lon="9.087998740342673"><ele>158.0</ele><time>2026-05-01T09:59:51Z</time></trkpt><trkpt lat="44.975858912401605" lon="9.087903844953678"><ele>158.0</ele><time>2026-05-01T09:59:54.001Z</time></trkpt><trkpt lat="44.97591624775171" lon="9.087798558948714"><ele>158.0</ele><time>2026-05-01T09:59:56.001Z</time></trkpt><trkpt lat="44.97592028898559" lon="9.087700872939994"><ele>158.0</ele><time>2026-05-01T10:00:00.001Z</time></trkpt><trkpt lat="44.9758408923608" lon="9.087579859809576"><ele>158.0</ele><time>2026-05-01T10:00:01.001Z</time></trkpt><trkpt lat="44.97584303848302" lon="9.087397338132014"><ele>158.0</ele><time>2026-05-01T10:00:03.001Z</time></trkpt><trkpt lat="44.97584226557535" lon="9.087295666921252"><ele>158.0</ele><time>2026-05-01T10:00:04.001Z</time></trkpt><trkpt lat="44.975865791020375" lon="9.087191113797978"><ele>158.0</ele><time>2026-05-01T10:00:05.001Z</time></trkpt><trkpt lat="44.97588932546947" lon="9.087076651363311"><ele>156.8</ele><time>2026-05-01T10:00:06.001Z</time></trkpt><trkpt lat="44.97591417769007" lon="9.086957545855682"><ele>155.60000000000002</ele><time>2026-05-01T10:00:07.001Z</time></trkpt><trkpt lat="44.975942067395124" lon="9.086832652694827"><ele>154.39999999999998</ele><time>2026-05-01T10:00:08.001Z</time></trkpt><trkpt lat="44.975969106433205" lon="9.086705049720731"><ele>153.2</ele><time>2026-05-01T10:00:09.001Z</time></trkpt><trkpt lat="44.976001130987584" lon="9.086579804413475"><ele>152.0</ele><time>2026-05-01T10:00:10.001Z</time></trkpt><trkpt lat="44.97602306248146" lon="9.086461654984705"><ele>151.79999999999998</ele><time>2026-05-01T10:00:11.001Z</time></trkpt><trkpt lat="44.97604547225153" lon="9.086335564370424"><ele>151.6</ele><time>2026-05-01T10:00:12.001Z</time></trkpt><trkpt lat="44.9760717417465" lon="9.086205119947536"><ele>151.39999999999998</ele><time>2026-05-01T10:00:13.001Z</time></trkpt><trkpt lat="44.976100790544436" lon="9.086073128923326"><ele>151.2</ele><time>2026-05-01T10:00:14.001Z</time></trkpt><trkpt lat="44.976135168058434" lon="9.085936147320732"><ele>151.0</ele><time>2026-05-01T10:00:15.001Z</time></trkpt><trkpt lat="44.97616911803069" lon="9.08578746816689"><ele>150.25</ele><time>2026-05-01T10:00:16.001Z</time></trkpt><trkpt lat="44.9762036628446" lon="9.085632402401712"><ele>149.5</ele><time>2026-05-01T10:00:17.001Z</time></trkpt><trkpt lat="44.97623928809323" lon="9.085469933257897"><ele>148.75</ele><time>2026-05-01T10:00:18.001Z</time></trkpt><trkpt lat="44.97627337519514" lon="9.08530303421186"><ele>148.0</ele><time>2026-05-01T10:00:19.001Z</time></trkpt><trkpt lat="44.976312346026546" lon="9.085139626493355"><ele>148.0</ele><time>2026-05-01T10:00:20.001Z</time></trkpt><trkpt lat="44.97636863301345" lon="9.084982454996583"><ele>148.0</ele><time>2026-05-01T10:00:21.001Z</time></trkpt><trkpt lat="44.97641657726109" lon="9.084811351086916"><ele>148.0</ele><time>2026-05-01T10:00:22.001Z</time></trkpt><trkpt lat="44.97645383275271" lon="9.084634252187548"><ele>148.0</ele><time>2026-05-01T10:00:23.001Z</time></trkpt><trkpt lat="44.97650991130374" lon="9.084476761785503"><ele>147.25</ele><time>2026-05-01T10:00:24.002Z</time></trkpt><trkpt lat="44.97657304725152" lon="9.084307092666956"><ele>146.5</ele><time>2026-05-01T10:00:25.002Z</time></trkpt><trkpt lat="44.97663950448721" lon="9.084133259055122"><ele>145.75</ele><time>2026-05-01T10:00:26.002Z</time></trkpt><trkpt lat="44.976705397609784" lon="9.08395788675481"><ele>145.0</ele><time>2026-05-01T10:00:27.002Z</time></trkpt><trkpt lat="44.976772198366966" lon="9.083778389051124"><ele>143.5</ele><time>2026-05-01T10:00:28.002Z</time></trkpt><trkpt lat="44.9768397334108" lon="9.083597046687778"><ele>142.0</ele><time>2026-05-01T10:00:29.002Z</time></trkpt><trkpt lat="44.976920789167295" lon="9.08343054948727"><ele>140.5</ele><time>2026-05-01T10:00:30.002Z</time></trkpt><trkpt lat="44.97698935095615" lon="9.083250843607917"><ele>139.0</ele><time>2026-05-01T10:00:31.002Z</time></trkpt><trkpt lat="44.97705730271834" lon="9.083072736690406"><ele>138.75</ele><time>2026-05-01T10:00:32.002Z</time></trkpt><trkpt lat="44.97712486370037" lon="9.082895427639887"><ele>138.5</ele><time>2026-05-01T10:00:33.002Z</time></trkpt><trkpt lat="44.97719168090365" lon="9.082719639458038"><ele>138.25</ele><time>2026-05-01T10:00:34.002Z</time></trkpt><trkpt lat="44.9772583483812" lon="9.08254424499974"><ele>138.0</ele><time>2026-05-01T10:00:35.002Z</time></trkpt><trkpt lat="44.977325146166905" lon="9.08236583772447"><ele>138.0</ele><time>2026-05-01T10:00:36.002Z</time></trkpt><trkpt lat="44.97739082978913" lon="9.082187025424522"><ele>138.0</ele><time>2026-05-01T10:00:37.002Z</time></trkpt><trkpt lat="44.97744070517713" lon="9.081998929665245"><ele>138.0</ele><time>2026-05-01T10:00:38.002Z</time></trkpt><trkpt lat="44.97750690184994" lon="9.08182428678663"><ele>138.0</ele><time>2026-05-01T10:00:39.002Z</time></trkpt><trkpt lat="44.977565238078064" lon="9.08164348813873"><ele>137.0</ele><time>2026-05-01T10:00:40.002Z</time></trkpt><trkpt lat="44.977617544910466" lon="9.081461814065733"><ele>136.0</ele><time>2026-05-01T10:00:41.002Z</time></trkpt><trkpt lat="44.97768332094681" lon="9.081280201127683"><ele>135.0</ele><time>2026-05-01T10:00:42.002Z</time></trkpt><trkpt lat="44.97772690062071" lon="9.081089587662401"><ele>134.0</ele><time>2026-05-01T10:00:43.002Z</time></trkpt><trkpt lat="44.97775301397981" lon="9.08089562002069"><ele>133.75</ele><time>2026-05-01T10:00:44.002Z</time></trkpt><trkpt lat="44.97779211655494" lon="9.080705912444168"><ele>133.5</ele><time>2026-05-01T10:00:45.002Z</time></trkpt><trkpt lat="44.9778195695504" lon="9.080511757511358"><ele>133.25</ele><time>2026-05-01T10:00:46.002Z</time></trkpt><trkpt lat="44.97784373461109" lon="9.080307844630441"><ele>133.0</ele><time>2026-05-01T10:00:47.002Z</time></trkpt><trkpt lat="44.97786050924484" lon="9.080096999296432"><ele>133.0</ele><time>2026-05-01T10:00:48.002Z</time></trkpt><trkpt lat="44.977871159515054" lon="9.07988462421477"><ele>133.0</ele><time>2026-05-01T10:00:49.002Z</time></trkpt><trkpt lat="44.97787514193857" lon="9.079678221606466"><ele>133.0</ele><time>2026-05-01T10:00:50.002Z</time></trkpt><trkpt lat="44.97788142590228" lon="9.079482761733782"><ele>133.0</ele><time>2026-05-01T10:00:51.002Z</time></trkpt><trkpt lat="44.97788875847624" lon="9.079297657810391"><ele>133.0</ele><time>2026-05-01T10:00:52.002Z</time></trkpt><trkpt lat="44.97790036275718" lon="9.079122242194043"><ele>133.0</ele><time>2026-05-01T10:00:53.002Z</time></trkpt><trkpt lat="44.97791431680413" lon="9.078957629253305"><ele>133.0</ele><time>2026-05-01T10:00:54.002Z</time></trkpt><trkpt lat="44.977939928429116" lon="9.078804164611775"><ele>133.0</ele><time>2026-05-01T10:00:55.002Z</time></trkpt><trkpt lat="44.977982804312994" lon="9.078663748562125"><ele>132.25</ele><time>2026-05-01T10:00:56.002Z</time></trkpt><trkpt lat="44.97805498496123" lon="9.07854540694611"><ele>131.5</ele><time>2026-05-01T10:00:57.002Z</time></trkpt><trkpt lat="44.97813672319967" lon="9.078441688833887"><ele>130.75</ele><time>2026-05-01T10:00:58.003Z</time></trkpt><trkpt lat="44.97822995538008" lon="9.078325253818845"><ele>130.0</ele><time>2026-05-01T10:00:58.996Z</time></trkpt><trkpt lat="44.9783230251497" lon="9.078198941380762"><ele>128.5</ele><time>2026-05-01T10:00:59.996Z</time></trkpt><trkpt lat="44.97841646325417" lon="9.078049287700194"><ele>127.0</ele><time>2026-05-01T10:01:00.996Z</time></trkpt><trkpt lat="44.97848492828054" lon="9.077892268435788"><ele>125.5</ele><time>2026-05-01T10:01:01.996Z</time></trkpt><trkpt lat="44.978572761229714" lon="9.077774973332243"><ele>124.0</ele><time>2026-05-01T10:01:02.996Z</time></trkpt><trkpt lat="44.9786300253225" lon="9.077639573435924"><ele>124.00000000000001</ele><time>2026-05-01T10:01:03.997Z</time></trkpt><trkpt lat="44.97869712076339" lon="9.077536109481898"><ele>124.0</ele><time>2026-05-01T10:01:04.997Z</time></trkpt><trkpt lat="44.978733152823175" lon="9.077452339116885"><ele>124.0</ele><time>2026-05-01T10:01:05.997Z</time></trkpt><trkpt lat="44.97879439444348" lon="9.077320920379822"><ele>124.0</ele><time>2026-05-01T10:01:07.997Z</time></trkpt><trkpt lat="44.97878552609509" lon="9.077184616745479"><ele>124.00000000000001</ele><time>2026-05-01T10:01:09.998Z</time></trkpt><trkpt lat="44.97873330987708" lon="9.07712134458154"><ele>124.0</ele><time>2026-05-01T10:01:10.998Z</time></trkpt><trkpt lat="44.97866417019386" lon="9.077059168466763"><ele>123.80000000000001</ele><time>2026-05-01T10:01:11.998Z</time></trkpt><trkpt lat="44.97859775041829" lon="9.076968809159437"><ele>123.60000000000001</ele><time>2026-05-01T10:01:12.998Z</time></trkpt><trkpt lat="44.97853175912572" lon="9.07682865319044"><ele>123.4</ele><time>2026-05-01T10:01:13.998Z</time></trkpt><trkpt lat="44.978471945931275" lon="9.076710773383333"><ele>123.2</ele><time>2026-05-01T10:01:14.998Z</time></trkpt><trkpt lat="44.97841896980119" lon="9.076585932583404"><ele>123.0</ele><time>2026-05-01T10:01:15.998Z</time></trkpt><trkpt lat="44.978356588180105" lon="9.076440974475709"><ele>122.25</ele><time>2026-05-01T10:01:16.999Z</time></trkpt><trkpt lat="44.97829019163744" lon="9.076312938947199"><ele>121.5</ele><time>2026-05-01T10:01:17.999Z</time></trkpt><trkpt lat="44.97822471660512" lon="9.076184069580696"><ele>120.75</ele><time>2026-05-01T10:01:18.999Z</time></trkpt><trkpt lat="44.97816503370691" lon="9.076040897557707"><ele>120.0</ele><time>2026-05-01T10:01:19.999Z</time></trkpt><trkpt lat="44.978108855419244" lon="9.075897863654685"><ele>119.6</ele><time>2026-05-01T10:01:20.999Z</time></trkpt><trkpt lat="44.97805107840048" lon="9.075745698010904"><ele>119.2</ele><time>2026-05-01T10:01:21.999Z</time></trkpt><trkpt lat="44.977998591335556" lon="9.075602851136974"><ele>118.80000000000001</ele><time>2026-05-01T10:01:22.999Z</time></trkpt><trkpt lat="44.977956058918494" lon="9.075467856347075"><ele>118.4</ele><time>2026-05-01T10:01:23.999Z</time></trkpt><trkpt lat="44.97792293582492" lon="9.075333847288057"><ele>118.0</ele><time>2026-05-01T10:01:24.999Z</time></trkpt><trkpt lat="44.97790034543651" lon="9.07520158894086"><ele>118.00000000000001</ele><time>2026-05-01T10:01:26Z</time></trkpt><trkpt lat="44.97788108689868" lon="9.07510878728739"><ele>118.0</ele><time>2026-05-01T10:01:27Z</time></trkpt><trkpt lat="44.97786841422963" lon="9.075004209682623"><ele>118.0</ele><time>2026-05-01T10:01:29Z</time></trkpt><trkpt lat="44.977730376953396" lon="9.074999763313258"><ele>118.0</ele><time>2026-05-01T10:01:33Z</time></trkpt><trkpt lat="44.97767172986126" lon="9.075061118777786"><ele>118.00000000000001</ele><time>2026-05-01T10:01:34Z</time></trkpt><trkpt lat="44.97760099931024" lon="9.07510381920622"><ele>118.0</ele><time>2026-05-01T10:01:35Z</time></trkpt><trkpt lat="44.977536580492064" lon="9.075139232084458"><ele>118.80000000000001</ele><time>2026-05-01T10:01:36Z</time></trkpt><trkpt lat="44.97746071507413" lon="9.075177116702132"><ele>119.60000000000001</ele><time>2026-05-01T10:01:37Z</time></trkpt><trkpt lat="44.97737078442117" lon="9.075220714219553"><ele>120.39999999999999</ele><time>2026-05-01T10:01:38Z</time></trkpt><trkpt lat="44.97727370975677" lon="9.075264678665185"><ele>121.19999999999999</ele><time>2026-05-01T10:01:39Z</time></trkpt><trkpt lat="44.9771658909892" lon="9.075314789528534"><ele>122.0</ele><time>2026-05-01T10:01:40.001Z</time></trkpt><trkpt lat="44.97707072195067" lon="9.075364758378177"><ele>122.0</ele><time>2026-05-01T10:01:41.001Z</time></trkpt><trkpt lat="44.97698083725477" lon="9.075409165409763"><ele>121.99999999999999</ele><time>2026-05-01T10:01:42.001Z</time></trkpt><trkpt lat="44.976875486300614" lon="9.075454135457608"><ele>121.99999999999999</ele><time>2026-05-01T10:01:43.001Z</time></trkpt><trkpt lat="44.976765919508644" lon="9.07550784016252"><ele>122.0</ele><time>2026-05-01T10:01:44.001Z</time></trkpt><trkpt lat="44.976651948104774" lon="9.075564194186803"><ele>122.0</ele><time>2026-05-01T10:01:45.001Z</time></trkpt><trkpt lat="44.97653477625945" lon="9.075621437296213"><ele>121.75</ele><time>2026-05-01T10:01:46.001Z</time></trkpt><trkpt lat="44.97642088883524" lon="9.07567332756182"><ele>121.5</ele><time>2026-05-01T10:01:47.001Z</time></trkpt><trkpt lat="44.97630869034699" lon="9.075723994491788"><ele>121.25</ele><time>2026-05-01T10:01:48.001Z</time></trkpt><trkpt lat="44.976203368822816" lon="9.07577562962949"><ele>121.0</ele><time>2026-05-01T10:01:49.001Z</time></trkpt><trkpt lat="44.97610154478346" lon="9.075826354638876"><ele>121.0</ele><time>2026-05-01T10:01:50.001Z</time></trkpt><trkpt lat="44.97599729746449" lon="9.075876982423187"><ele>121.0</ele><time>2026-05-01T10:01:51.001Z</time></trkpt><trkpt lat="44.975886369280104" lon="9.075928367873678"><ele>121.0</ele><time>2026-05-01T10:01:52.001Z</time></trkpt><trkpt lat="44.97577293955108" lon="9.075983449696942"><ele>121.0</ele><time>2026-05-01T10:01:53.001Z</time></trkpt><trkpt lat="44.97565329401245" lon="9.076039027106674"><ele>122.0</ele><time>2026-05-01T10:01:54.001Z</time></trkpt><trkpt lat="44.97552969269397" lon="9.076096973237076"><ele>123.0</ele><time>2026-05-01T10:01:55.001Z</time></trkpt><trkpt lat="44.975402518193384" lon="9.076157820321315"><ele>124.0</ele><time>2026-05-01T10:01:56.001Z</time></trkpt><trkpt lat="44.97527994670856" lon="9.07621717369241"><ele>125.0</ele><time>2026-05-01T10:01:57.001Z</time></trkpt><trkpt lat="44.975164790500635" lon="9.076271267304978"><ele>125.0</ele><time>2026-05-01T10:01:58.001Z</time></trkpt><trkpt lat="44.97505573773103" lon="9.07631953873175"><ele>125.0</ele><time>2026-05-01T10:01:59.001Z</time></trkpt><trkpt lat="44.97494726379628" lon="9.076369036542014"><ele>125.0</ele><time>2026-05-01T10:02:00.001Z</time></trkpt><trkpt lat="44.974825919211476" lon="9.076427786958071"><ele>125.0</ele><time>2026-05-01T10:02:01.001Z</time></trkpt><trkpt lat="44.974700186687144" lon="9.076485747319644"><ele>125.25</ele><time>2026-05-01T10:02:02.001Z</time></trkpt><trkpt lat="44.97456906888178" lon="9.076547623052958"><ele>125.5</ele><time>2026-05-01T10:02:03.002Z</time></trkpt><trkpt lat="44.974435553437246" lon="9.076615689044798"><ele>125.75</ele><time>2026-05-01T10:02:04.002Z</time></trkpt><trkpt lat="44.9743025479259" lon="9.076677169250162"><ele>126.0</ele><time>2026-05-01T10:02:05.002Z</time></trkpt><trkpt lat="44.97417474823798" lon="9.076733991777582"><ele>126.0</ele><time>2026-05-01T10:02:06.002Z</time></trkpt><trkpt lat="44.9740556344788" lon="9.076792958919565"><ele>126.0</ele><time>2026-05-01T10:02:07.002Z</time></trkpt><trkpt lat="44.973948396934865" lon="9.076846030162713"><ele>126.0</ele><time>2026-05-01T10:02:08.002Z</time></trkpt><trkpt lat="44.97384818741647" lon="9.076893217640908"><ele>126.0</ele><time>2026-05-01T10:02:09.002Z</time></trkpt><trkpt lat="44.97375427078115" lon="9.076935191997656"><ele>126.0</ele><time>2026-05-01T10:02:10.002Z</time></trkpt><trkpt lat="44.973681712189844" lon="9.076966960390596"><ele>126.0</ele><time>2026-05-01T10:02:11.002Z</time></trkpt><trkpt lat="44.97359360992008" lon="9.077002731018"><ele>126.0</ele><time>2026-05-01T10:02:13.002Z</time></trkpt><trkpt lat="44.973561483851384" lon="9.076779413576281"><ele>126.0</ele><time>2026-05-01T10:02:17.002Z</time></trkpt><trkpt lat="44.97355408088869" lon="9.07666293557089"><ele>126.0</ele><time>2026-05-01T10:02:18.002Z</time></trkpt><trkpt lat="44.97355046454873" lon="9.076533365788745"><ele>126.0</ele><time>2026-05-01T10:02:19.002Z</time></trkpt><trkpt lat="44.97354299139539" lon="9.076386511422124"><ele>126.19999999999999</ele><time>2026-05-01T10:02:20.002Z</time></trkpt><trkpt lat="44.97353968173771" lon="9.076227490429222"><ele>126.39999999999999</ele><time>2026-05-01T10:02:21.002Z</time></trkpt><trkpt lat="44.97353914363493" lon="9.076087390529539"><ele>126.6</ele><time>2026-05-01T10:02:22.002Z</time></trkpt><trkpt lat="44.97353657655313" lon="9.075937548757581"><ele>126.8</ele><time>2026-05-01T10:02:23.002Z</time></trkpt><trkpt lat="44.973532863823955" lon="9.075782391735896"><ele>127.0</ele><time>2026-05-01T10:02:24.002Z</time></trkpt><trkpt lat="44.97352580814822" lon="9.075628458622504"><ele>127.0</ele><time>2026-05-01T10:02:25.002Z</time></trkpt><trkpt lat="44.973519044402344" lon="9.07548020020671"><ele>126.99999999999999</ele><time>2026-05-01T10:02:26.002Z</time></trkpt><trkpt lat="44.97350729465345" lon="9.07532618910337"><ele>126.99999999999999</ele><time>2026-05-01T10:02:27.002Z</time></trkpt><trkpt lat="44.97349342041951" lon="9.075170679066428"><ele>127.0</ele><time>2026-05-01T10:02:28.002Z</time></trkpt><trkpt lat="44.97347971195691" lon="9.075029147970739"><ele>127.0</ele><time>2026-05-01T10:02:29.002Z</time></trkpt><trkpt lat="44.97346255795404" lon="9.074898123842123"><ele>127.0</ele><time>2026-05-01T10:02:30.002Z</time></trkpt><trkpt lat="44.9734313547899" lon="9.074775500498532"><ele>126.99999999999999</ele><time>2026-05-01T10:02:31.002Z</time></trkpt><trkpt lat="44.973379169814" lon="9.074675049358763"><ele>126.99999999999999</ele><time>2026-05-01T10:02:32.002Z</time></trkpt><trkpt lat="44.97330479176653" lon="9.074602025038715"><ele>127.0</ele><time>2026-05-01T10:02:33.002Z</time></trkpt><trkpt lat="44.973223059265464" lon="9.074571640916075"><ele>127.0</ele><time>2026-05-01T10:02:34.003Z</time></trkpt><trkpt lat="44.973126089646414" lon="9.074570005789676"><ele>127.0</ele><time>2026-05-01T10:02:35.003Z</time></trkpt><trkpt lat="44.97301715158585" lon="9.07457382906604"><ele>126.99999999999999</ele><time>2026-05-01T10:02:36.003Z</time></trkpt><trkpt lat="44.9729121812933" lon="9.074569118770405"><ele>126.99999999999999</ele><time>2026-05-01T10:02:37.003Z</time></trkpt><trkpt lat="44.97281805411018" lon="9.074553476811934"><ele>127.0</ele><time>2026-05-01T10:02:38.003Z</time></trkpt><trkpt lat="44.97273080344882" lon="9.074515050399327"><ele>127.0</ele><time>2026-05-01T10:02:39.003Z</time></trkpt><trkpt lat="44.97265822629134" lon="9.074451276014326"><ele>127.0</ele><time>2026-05-01T10:02:40.003Z</time></trkpt><trkpt lat="44.972589902434194" lon="9.074359973243595"><ele>126.99999999999999</ele><time>2026-05-01T10:02:41.003Z</time></trkpt><trkpt lat="44.97253416945902" lon="9.074247000954905"><ele>126.99999999999999</ele><time>2026-05-01T10:02:42.003Z</time></trkpt><trkpt lat="44.97248018622778" lon="9.07412042513239"><ele>127.0</ele><time>2026-05-01T10:02:43.003Z</time></trkpt><trkpt lat="44.97240959813955" lon="9.07399689298278"><ele>127.0</ele><time>2026-05-01T10:02:44.003Z</time></trkpt><trkpt lat="44.97231694555208" lon="9.073878189438318"><ele>127.5</ele><time>2026-05-01T10:02:45.003Z</time></trkpt><trkpt lat="44.97221444081618" lon="9.073759196016102"><ele>128.0</ele><time>2026-05-01T10:02:46.003Z</time></trkpt><trkpt lat="44.97210598160721" lon="9.073642742055323"><ele>128.5</ele><time>2026-05-01T10:02:47.003Z</time></trkpt><trkpt lat="44.97199388669777" lon="9.073526134877273"><ele>129.0</ele><time>2026-05-01T10:02:48.003Z</time></trkpt><trkpt lat="44.97188547479283" lon="9.073414359961749"><ele>129.0</ele><time>2026-05-01T10:02:49.003Z</time></trkpt><trkpt lat="44.97178428492571" lon="9.073315794648972"><ele>129.0</ele><time>2026-05-01T10:02:50.003Z</time></trkpt><trkpt lat="44.971692169694805" lon="9.073211556564175"><ele>129.0</ele><time>2026-05-01T10:02:51.003Z</time></trkpt><trkpt lat="44.97161280946273" lon="9.073100269689602"><ele>129.0</ele><time>2026-05-01T10:02:52.003Z</time></trkpt><trkpt lat="44.971547202557055" lon="9.072989512895594"><ele>128.8</ele><time>2026-05-01T10:02:53.003Z</time></trkpt><trkpt lat="44.97147984581468" lon="9.0728875934245"><ele>128.60000000000002</ele><time>2026-05-01T10:02:54.003Z</time></trkpt><trkpt lat="44.9713964365369" lon="9.072806309426772"><ele>128.4</ele><time>2026-05-01T10:02:55.003Z</time></trkpt><trkpt lat="44.971293491909655" lon="9.072742142126689"><ele>128.20000000000002</ele><time>2026-05-01T10:02:56.003Z</time></trkpt><trkpt lat="44.971178398421564" lon="9.072672282939877"><ele>128.0</ele><time>2026-05-01T10:02:57.003Z</time></trkpt><trkpt lat="44.971057462801426" lon="9.072605714258772"><ele>128.0</ele><time>2026-05-01T10:02:58.003Z</time></trkpt><trkpt lat="44.970933740312184" lon="9.07253861428338"><ele>128.0</ele><time>2026-05-01T10:02:59.003Z</time></trkpt><trkpt lat="44.97080236855471" lon="9.072461510566125"><ele>128.0</ele><time>2026-05-01T10:03:00.003Z</time></trkpt><trkpt lat="44.97066929465037" lon="9.072378990455"><ele>128.0</ele><time>2026-05-01T10:03:01.003Z</time></trkpt><trkpt lat="44.970540665680964" lon="9.072286112176046"><ele>128.0</ele><time>2026-05-01T10:03:02.003Z</time></trkpt><trkpt lat="44.97041954598763" lon="9.072189611794647"><ele>128.0</ele><time>2026-05-01T10:03:03.003Z</time></trkpt><trkpt lat="44.97031038905052" lon="9.072089348169051"><ele>128.0</ele><time>2026-05-01T10:03:04.003Z</time></trkpt><trkpt lat="44.970210579206544" lon="9.07198973226073"><ele>128.0</ele><time>2026-05-01T10:03:04.997Z</time></trkpt><trkpt lat="44.970127209650414" lon="9.071883586877686"><ele>128.0</ele><time>2026-05-01T10:03:05.997Z</time></trkpt><trkpt lat="44.9700646280017" lon="9.071759185721731"><ele>128.0</ele><time>2026-05-01T10:03:06.997Z</time></trkpt><trkpt lat="44.97001706298806" lon="9.071596054986857"><ele>128.0</ele><time>2026-05-01T10:03:07.997Z</time></trkpt><trkpt lat="44.96997366097648" lon="9.071410325034185"><ele>128.0</ele><time>2026-05-01T10:03:08.997Z</time></trkpt><trkpt lat="44.96992953213259" lon="9.071221386039813"><ele>128.5</ele><time>2026-05-01T10:03:09.997Z</time></trkpt><trkpt lat="44.96988234553329" lon="9.071028997591796"><ele>129.0</ele><time>2026-05-01T10:03:10.998Z</time></trkpt><trkpt lat="44.9698356193346" lon="9.070835948911663"><ele>129.5</ele><time>2026-05-01T10:03:11.998Z</time></trkpt><trkpt lat="44.96978887036298" lon="9.070638736145522"><ele>130.0</ele><time>2026-05-01T10:03:12.998Z</time></trkpt><trkpt lat="44.969739707002915" lon="9.070449023455517"><ele>131.25</ele><time>2026-05-01T10:03:13.998Z</time></trkpt><trkpt lat="44.96969601647282" lon="9.070255218661758"><ele>132.5</ele><time>2026-05-01T10:03:14.998Z</time></trkpt><trkpt lat="44.96964587866333" lon="9.070067758529563"><ele>133.75</ele><time>2026-05-01T10:03:15.998Z</time></trkpt><trkpt lat="44.96959656479579" lon="9.069883056370266"><ele>135.0</ele><time>2026-05-01T10:03:16.998Z</time></trkpt><trkpt lat="44.96955133402117" lon="9.069705856157348"><ele>135.2</ele><time>2026-05-01T10:03:17.998Z</time></trkpt><trkpt lat="44.969517909606395" lon="9.069531048598233"><ele>135.4</ele><time>2026-05-01T10:03:18.998Z</time></trkpt><trkpt lat="44.96949541032604" lon="9.06937818652118"><ele>135.6</ele><time>2026-05-01T10:03:19.999Z</time></trkpt><trkpt lat="44.96948979728999" lon="9.069258609566756"><ele>135.8</ele><time>2026-05-01T10:03:20.999Z</time></trkpt><trkpt lat="44.96948081162611" lon="9.069156899544497"><ele>136.0</ele><time>2026-05-01T10:03:21.999Z</time></trkpt><trkpt lat="44.96944262384749" lon="9.069057417290527"><ele>136.0</ele><time>2026-05-01T10:03:22.999Z</time></trkpt><trkpt lat="44.969381676670785" lon="9.068947451009594"><ele>136.0</ele><time>2026-05-01T10:03:23.999Z</time></trkpt><trkpt lat="44.969314011281256" lon="9.068818348416192"><ele>136.0</ele><time>2026-05-01T10:03:24.999Z</time></trkpt><trkpt lat="44.96924454099498" lon="9.068675894701972"><ele>136.0</ele><time>2026-05-01T10:03:25.999Z</time></trkpt><trkpt lat="44.96916727680794" lon="9.06852846994489"><ele>136.0</ele><time>2026-05-01T10:03:26.999Z</time></trkpt><trkpt lat="44.96907827995135" lon="9.06837631544497"><ele>136.0</ele><time>2026-05-01T10:03:27.999Z</time></trkpt><trkpt lat="44.96898415531268" lon="9.068222597549413"><ele>136.0</ele><time>2026-05-01T10:03:28.999Z</time></trkpt><trkpt lat="44.96888707169734" lon="9.068059663956461"><ele>136.0</ele><time>2026-05-01T10:03:30Z</time></trkpt><trkpt lat="44.96879146353473" lon="9.067904533034321"><ele>135.25</ele><time>2026-05-01T10:03:31Z</time></trkpt><trkpt lat="44.9686950605865" lon="9.067749967266705"><ele>134.5</ele><time>2026-05-01T10:03:32Z</time></trkpt><trkpt lat="44.968602655199554" lon="9.06759776481671"><ele>133.75</ele><time>2026-05-01T10:03:33Z</time></trkpt><trkpt lat="44.96851151387373" lon="9.06745864532598"><ele>133.0</ele><time>2026-05-01T10:03:34Z</time></trkpt><trkpt lat="44.96842439870534" lon="9.067336116006611"><ele>132.25</ele><time>2026-05-01T10:03:35Z</time></trkpt><trkpt lat="44.96834427090044" lon="9.067209333565824"><ele>131.5</ele><time>2026-05-01T10:03:36Z</time></trkpt><trkpt lat="44.968256233851434" lon="9.0671035592846"><ele>130.75</ele><time>2026-05-01T10:03:37Z</time></trkpt><trkpt lat="44.968163514503296" lon="9.066992703242473"><ele>130.0</ele><time>2026-05-01T10:03:38Z</time></trkpt><trkpt lat="44.96807702214376" lon="9.066892581642499"><ele>130.0</ele><time>2026-05-01T10:03:39Z</time></trkpt><trkpt lat="44.96799772421383" lon="9.066794477778737"><ele>130.0</ele><time>2026-05-01T10:03:40Z</time></trkpt><trkpt lat="44.967931071999544" lon="9.066697713296886"><ele>130.0</ele><time>2026-05-01T10:03:41Z</time></trkpt><trkpt lat="44.967875061308945" lon="9.066577580585912"><ele>130.0</ele><time>2026-05-01T10:03:42Z</time></trkpt><trkpt lat="44.967826062892655" lon="9.066445237617144"><ele>130.0</ele><time>2026-05-01T10:03:43Z</time></trkpt><trkpt lat="44.96779508664003" lon="9.066276165052273"><ele>130.0</ele><time>2026-05-01T10:03:44Z</time></trkpt><trkpt lat="44.967761594073" lon="9.066092909670122"><ele>130.0</ele><time>2026-05-01T10:03:45Z</time></trkpt><trkpt lat="44.96773192257194" lon="9.065903585560866"><ele>130.0</ele><time>2026-05-01T10:03:46Z</time></trkpt><trkpt lat="44.96769800147203" lon="9.065713631921122"><ele>130.0</ele><time>2026-05-01T10:03:47.001Z</time></trkpt><trkpt lat="44.96765946926853" lon="9.065525878417445"><ele>130.0</ele><time>2026-05-01T10:03:48.001Z</time></trkpt><trkpt lat="44.96761132472951" lon="9.065344511373135"><ele>130.0</ele><time>2026-05-01T10:03:49.001Z</time></trkpt><trkpt lat="44.96755926467252" lon="9.065162828117149"><ele>130.0</ele><time>2026-05-01T10:03:50.001Z</time></trkpt><trkpt lat="44.96751491817966" lon="9.06497675804118"><ele>130.0</ele><time>2026-05-01T10:03:51.001Z</time></trkpt><trkpt lat="44.96747770544549" lon="9.064779860382444"><ele>130.0</ele><time>2026-05-01T10:03:52.001Z</time></trkpt><trkpt lat="44.96744085348541" lon="9.064582977430332"><ele>130.0</ele><time>2026-05-01T10:03:53.001Z</time></trkpt><trkpt lat="44.96740837596662" lon="9.064394325897702"><ele>130.0</ele><time>2026-05-01T10:03:54.001Z</time></trkpt><trkpt lat="44.96737616090088" lon="9.064212166278583"><ele>130.0</ele><time>2026-05-01T10:03:55.001Z</time></trkpt><trkpt lat="44.96734637044316" lon="9.064038369417668"><ele>130.0</ele><time>2026-05-01T10:03:56.001Z</time></trkpt><trkpt lat="44.96732339434152" lon="9.063863491681582"><ele>130.0</ele><time>2026-05-01T10:03:57.001Z</time></trkpt><trkpt lat="44.967306348954544" lon="9.063678875278722"><ele>130.0</ele><time>2026-05-01T10:03:58.001Z</time></trkpt><trkpt lat="44.96729353145619" lon="9.063487510800018"><ele>130.0</ele><time>2026-05-01T10:03:59.001Z</time></trkpt><trkpt lat="44.967285842975386" lon="9.063291034887742"><ele>130.25</ele><time>2026-05-01T10:04:00.001Z</time></trkpt><trkpt lat="44.967287484455554" lon="9.063090289564533"><ele>130.5</ele><time>2026-05-01T10:04:01.001Z</time></trkpt><trkpt lat="44.967292496467785" lon="9.06289140964429"><ele>130.75</ele><time>2026-05-01T10:04:02.001Z</time></trkpt><trkpt lat="44.96729837991787" lon="9.06269375667475"><ele>131.0</ele><time>2026-05-01T10:04:03.001Z</time></trkpt><trkpt lat="44.96730009265632" lon="9.062502328688815"><ele>131.5</ele><time>2026-05-01T10:04:04.001Z</time></trkpt><trkpt lat="44.96730226408576" lon="9.062319890593077"><ele>132.0</ele><time>2026-05-01T10:04:05.001Z</time></trkpt><trkpt lat="44.96730154386516" lon="9.062135559652274"><ele>132.5</ele><time>2026-05-01T10:04:06.001Z</time></trkpt><trkpt lat="44.96729878965522" lon="9.06195025424299"><ele>133.0</ele><time>2026-05-01T10:04:07.001Z</time></trkpt><trkpt lat="44.967303129537996" lon="9.061764553000533"><ele>133.25</ele><time>2026-05-01T10:04:08.001Z</time></trkpt><trkpt lat="44.96730831197145" lon="9.061580863020907"><ele>133.5</ele><time>2026-05-01T10:04:09.001Z</time></trkpt><trkpt lat="44.96731458335241" lon="9.06139486248907"><ele>133.75</ele><time>2026-05-01T10:04:10.001Z</time></trkpt><trkpt lat="44.96732059354697" lon="9.061208580353977"><ele>134.0</ele><time>2026-05-01T10:04:11.001Z</time></trkpt><trkpt lat="44.967326349441905" lon="9.061028741436605"><ele>134.0</ele><time>2026-05-01T10:04:12.001Z</time></trkpt><trkpt lat="44.96733109888297" lon="9.060858206502235"><ele>134.0</ele><time>2026-05-01T10:04:13.002Z</time></trkpt><trkpt lat="44.96733418042092" lon="9.060706821759494"><ele>134.0</ele><time>2026-05-01T10:04:14.002Z</time></trkpt><trkpt lat="44.967339330754875" lon="9.060589108704951"><ele>134.0</ele><time>2026-05-01T10:04:15.002Z</time></trkpt><trkpt lat="44.96734325684047" lon="9.060499148044325"><ele>134.0</ele><time>2026-05-01T10:04:16.002Z</time></trkpt><trkpt lat="44.967348613458405" lon="9.060401432646664"><ele>134.0</ele><time>2026-05-01T10:04:18.002Z</time></trkpt><trkpt lat="44.96727750124562" lon="9.060313031131383"><ele>133.8</ele><time>2026-05-01T10:04:25.002Z</time></trkpt><trkpt lat="44.96715274901243" lon="9.060313040522782"><ele>133.60000000000002</ele><time>2026-05-01T10:04:27.002Z</time></trkpt><trkpt lat="44.96707037847183" lon="9.060309590733494"><ele>133.4</ele><time>2026-05-01T10:04:28.002Z</time></trkpt><trkpt lat="44.96700051114215" lon="9.06029547218434"><ele>133.20000000000002</ele><time>2026-05-01T10:04:29.002Z</time></trkpt><trkpt lat="44.966913347037014" lon="9.060281189966345"><ele>133.0</ele><time>2026-05-01T10:04:30.002Z</time></trkpt><trkpt lat="44.96681878985187" lon="9.060264554655083"><ele>133.0</ele><time>2026-05-01T10:04:31.002Z</time></trkpt><trkpt lat="44.96671891509017" lon="9.060249611305544"><ele>133.0</ele><time>2026-05-01T10:04:32.002Z</time></trkpt><trkpt lat="44.966618574631596" lon="9.060233262147593"><ele>133.0</ele><time>2026-05-01T10:04:33.002Z</time></trkpt><trkpt lat="44.96652273025052" lon="9.060221545274612"><ele>133.0</ele><time>2026-05-01T10:04:34.002Z</time></trkpt><trkpt lat="44.96642912196079" lon="9.060208860252661"><ele>133.0</ele><time>2026-05-01T10:04:35.002Z</time></trkpt><trkpt lat="44.96633367935621" lon="9.060197012700693"><ele>133.8</ele><time>2026-05-01T10:04:36.002Z</time></trkpt><trkpt lat="44.96623843718705" lon="9.06018183225386"><ele>134.60000000000002</ele><time>2026-05-01T10:04:37.002Z</time></trkpt><trkpt lat="44.9661439002014" lon="9.060134604989416"><ele>135.39999999999998</ele><time>2026-05-01T10:04:38.002Z</time></trkpt><trkpt lat="44.966043616512955" lon="9.060119815974753"><ele>136.2</ele><time>2026-05-01T10:04:39.002Z</time></trkpt><trkpt lat="44.96595977897713" lon="9.060077191238976"><ele>137.0</ele><time>2026-05-01T10:04:40.002Z</time></trkpt><trkpt lat="44.96588691875444" lon="9.060040024114473"><ele>137.33333333333331</ele><time>2026-05-01T10:04:41.002Z</time></trkpt><trkpt lat="44.96580448199525" lon="9.06001211837162"><ele>137.66666666666666</ele><time>2026-05-01T10:04:42.002Z</time></trkpt><trkpt lat="44.96572120016795" lon="9.059978657201624"><ele>138.0</ele><time>2026-05-01T10:04:43.002Z</time></trkpt><trkpt lat="44.96563412923796" lon="9.059948494985095"><ele>138.33333333333334</ele><time>2026-05-01T10:04:44.002Z</time></trkpt><trkpt lat="44.9655438391814" lon="9.05991649873303"><ele>138.66666666666669</ele><time>2026-05-01T10:04:45.003Z</time></trkpt><trkpt lat="44.96545611117927" lon="9.059877226221937"><ele>139.0</ele><time>2026-05-01T10:04:46.003Z</time></trkpt><trkpt lat="44.96536019270735" lon="9.059848326418711"><ele>139.2</ele><time>2026-05-01T10:04:47.003Z</time></trkpt><trkpt lat="44.96526752698759" lon="9.059812711089467"><ele>139.4</ele><time>2026-05-01T10:04:48.003Z</time></trkpt><trkpt lat="44.965175007487716" lon="9.059773814903451"><ele>139.6</ele><time>2026-05-01T10:04:49.003Z</time></trkpt><trkpt lat="44.96508477182524" lon="9.059739505736607"><ele>139.8</ele><time>2026-05-01T10:04:50.003Z</time></trkpt><trkpt lat="44.96499776370809" lon="9.059708900814524"><ele>140.0</ele><time>2026-05-01T10:04:51.003Z</time></trkpt><trkpt lat="44.964921221229744" lon="9.059677536537976"><ele>140.83333333333331</ele><time>2026-05-01T10:04:52.003Z</time></trkpt><trkpt lat="44.96485269393162" lon="9.0596489432916"><ele>141.66666666666666</ele><time>2026-05-01T10:04:53.003Z</time></trkpt><trkpt lat="44.964747821465494" lon="9.059600271009597"><ele>142.5</ele><time>2026-05-01T10:04:55.003Z</time></trkpt><trkpt lat="44.96467489603839" lon="9.059554903498897"><ele>143.33333333333334</ele><time>2026-05-01T10:04:57.003Z</time></trkpt><trkpt lat="44.96459771099842" lon="9.059541098022041"><ele>144.16666666666669</ele><time>2026-05-01T10:04:59.003Z</time></trkpt><trkpt lat="44.96454149766437" lon="9.059487832325678"><ele>145.0</ele><time>2026-05-01T10:05:01.003Z</time></trkpt><trkpt lat="44.96447638431741" lon="9.059470797594514"><ele>145.0</ele><time>2026-05-01T10:05:31.999Z</time></trkpt><trkpt lat="44.964391645853134" lon="9.059589676172244"><ele>145.0</ele><time>2026-05-01T10:05:35Z</time></trkpt><trkpt lat="44.96444277710881" lon="9.05950461745039"><ele>145.0</ele><time>2026-05-01T10:05:56.001Z</time></trkpt><trkpt lat="44.9645209435161" lon="9.059484883416514"><ele>145.0</ele><time>2026-05-01T10:06:15.001Z</time></trkpt><trkpt lat="44.964582774906056" lon="9.059513078428868"><ele>145.0</ele><time>2026-05-01T10:06:18.002Z</time></trkpt><trkpt lat="44.964642729948466" lon="9.05954029940503"><ele>145.0</ele><time>2026-05-01T10:06:26.002Z</time></trkpt><trkpt lat="44.96456461638157" lon="9.059640414194556"><ele>145.0</ele><time>2026-05-01T10:13:44.001Z</time></trkpt><trkpt lat="44.96457498757685" lon="9.0597396885403"><ele>145.0</ele><time>2026-05-01T10:13:47.001Z</time></trkpt><trkpt lat="44.96428854714949" lon="9.059792936632576"><ele>145.0</ele><time>2026-05-01T10:13:48.001Z</time></trkpt><trkpt lat="44.96452439385773" lon="9.059710510025319"><ele>145.0</ele><time>2026-05-01T10:13:51.001Z</time></trkpt><trkpt lat="44.964529649118425" lon="9.05982991404981"><ele>145.0</ele><time>2026-05-01T10:14:11.001Z</time></trkpt><trkpt lat="44.964653684361096" lon="9.060012535497984"><ele>145.0</ele><time>2026-05-01T10:14:18.001Z</time></trkpt><trkpt lat="44.96453166559266" lon="9.05983564767419"><ele>145.0</ele><time>2026-05-01T10:14:22.001Z</time></trkpt><trkpt lat="44.96427444279656" lon="9.060045657687876"><ele>145.0</ele><time>2026-05-01T10:14:42.001Z</time></trkpt><trkpt lat="44.96420313728895" lon="9.060074632382955"><ele>145.0</ele><time>2026-05-01T10:14:45.001Z</time></trkpt><trkpt lat="44.96425059628228" lon="9.06000391581008"><ele>145.0</ele><time>2026-05-01T10:14:55.001Z</time></trkpt><trkpt lat="44.96457470912716" lon="9.059894181860303"><ele>145.0</ele><time>2026-05-01T10:14:56.001Z</time></trkpt></trkseg><trkseg><trkpt lat="44.96465439446759" lon="9.060050603010746"><ele>144.0</ele><time>2026-05-01T11:42:12Z</time></trkpt><trkpt lat="44.96490685678249" lon="9.060140767063418"><ele>144.0</ele><time>2026-05-01T11:42:19Z</time></trkpt><trkpt lat="44.964831913459086" lon="9.06016674940585"><ele>144.0</ele><time>2026-05-01T11:42:24Z</time></trkpt><trkpt lat="44.964654436377096" lon="9.060050603010746"><ele>144.0</ele><time>2026-05-01T11:42:32Z</time></trkpt><trkpt lat="44.96485452692757" lon="9.060023732810915"><ele>144.0</ele><time>2026-05-01T11:42:37Z</time></trkpt><trkpt lat="44.96479128338118" lon="9.059958402841492"><ele>144.0</ele><time>2026-05-01T11:42:38Z</time></trkpt><trkpt lat="44.964740845135516" lon="9.059676452100977"><ele>144.0</ele><time>2026-05-01T11:42:39Z</time></trkpt><trkpt lat="44.9646306526929" lon="9.05952327202007"><ele>144.0</ele><time>2026-05-01T11:42:41Z</time></trkpt><trkpt lat="44.96465439446758" lon="9.060050519191714"><ele>144.33333333333334</ele><time>2026-05-01T11:42:50Z</time></trkpt><trkpt lat="44.96464132910708" lon="9.059615528797767"><ele>144.66666666666669</ele><time>2026-05-01T11:42:53Z</time></trkpt><trkpt lat="44.96471485432048" lon="9.059602091428255"><ele>145.0</ele><time>2026-05-01T11:43:26Z</time></trkpt><trkpt lat="44.96462388434004" lon="9.059354821228478"><ele>145.0</ele><time>2026-05-01T11:43:59Z</time></trkpt><trkpt lat="44.96464913789767" lon="9.059510273307334"><ele>145.0</ele><time>2026-05-01T11:44:06Z</time></trkpt><trkpt lat="44.96466900086028" lon="9.059600534585485"><ele>145.0</ele><time>2026-05-01T11:44:07Z</time></trkpt><trkpt lat="44.964601047037654" lon="9.059575074082368"><ele>145.0</ele><time>2026-05-01T11:44:32Z</time></trkpt><trkpt lat="44.964649288871335" lon="9.059648621788538"><ele>145.0</ele><time>2026-05-01T11:49:17.999Z</time></trkpt><trkpt lat="44.96471664600725" lon="9.059667167205957"><ele>145.0</ele><time>2026-05-01T11:49:19.999Z</time></trkpt><trkpt lat="44.96480703339892" lon="9.059712113150903"><ele>145.0</ele><time>2026-05-01T11:49:22.999Z</time></trkpt><trkpt lat="44.964882460851555" lon="9.059753872536772"><ele>145.0</ele><time>2026-05-01T11:49:25.999Z</time></trkpt><trkpt lat="44.96491333672101" lon="9.059665015138341"><ele>145.0</ele><time>2026-05-01T11:49:29.999Z</time></trkpt><trkpt lat="44.964840989415585" lon="9.059657821419519"><ele>145.0</ele><time>2026-05-01T11:49:31.999Z</time></trkpt><trkpt lat="44.96476443940114" lon="9.059676885146546"><ele>145.0</ele><time>2026-05-01T11:49:33.999Z</time></trkpt><trkpt lat="44.96470043836267" lon="9.05963796847059"><ele>145.0</ele><time>2026-05-01T11:49:36.999Z</time></trkpt><trkpt lat="44.964627643317186" lon="9.059658342107861"><ele>145.0</ele><time>2026-05-01T11:50:14.997Z</time></trkpt><trkpt lat="44.96456796219628" lon="9.059625688449367"><ele>145.0</ele><time>2026-05-01T11:50:16.997Z</time></trkpt><trkpt lat="44.96449479441214" lon="9.059573784199788"><ele>145.0</ele><time>2026-05-01T11:50:18.997Z</time></trkpt><trkpt lat="44.96442640743756" lon="9.059527356404832"><ele>145.0</ele><time>2026-05-01T11:50:20.997Z</time></trkpt><trkpt lat="44.96434706152253" lon="9.05950241657817"><ele>145.0</ele><time>2026-05-01T11:50:22.997Z</time></trkpt><trkpt lat="44.964266383895" lon="9.059470858880633"><ele>145.0</ele><time>2026-05-01T11:50:24.997Z</time></trkpt><trkpt lat="44.964197204597426" lon="9.05944153172274"><ele>145.0</ele><time>2026-05-01T11:50:26.998Z</time></trkpt><trkpt lat="44.96412913991742" lon="9.059406456581327"><ele>145.16666666666669</ele><time>2026-05-01T11:50:28.998Z</time></trkpt><trkpt lat="44.96405165419079" lon="9.059388085115385"><ele>145.33333333333334</ele><time>2026-05-01T11:50:30.998Z</time></trkpt><trkpt lat="44.96397884779986" lon="9.059346725026687"><ele>145.5</ele><time>2026-05-01T11:50:32.998Z</time></trkpt><trkpt lat="44.963904370941925" lon="9.059309722355046"><ele>145.66666666666666</ele><time>2026-05-01T11:50:35.998Z</time></trkpt><trkpt lat="44.96380975113819" lon="9.05933446756588"><ele>145.83333333333331</ele><time>2026-05-01T11:51:22.999Z</time></trkpt><trkpt lat="44.963704140055675" lon="9.059264588084602"><ele>146.0</ele><time>2026-05-01T11:51:24.999Z</time></trkpt><trkpt lat="44.963641441328036" lon="9.059191000675755"><ele>146.0</ele><time>2026-05-01T11:51:25.999Z</time></trkpt><trkpt lat="44.96356391709399" lon="9.059163919100465"><ele>146.0</ele><time>2026-05-01T11:51:26.999Z</time></trkpt><trkpt lat="44.96349308686362" lon="9.059140105933862"><ele>146.0</ele><time>2026-05-01T11:51:27.999Z</time></trkpt><trkpt lat="44.963426241397904" lon="9.059118668047812"><ele>146.0</ele><time>2026-05-01T11:51:28.999Z</time></trkpt><trkpt lat="44.96335448632015" lon="9.059119947415207"><ele>146.0</ele><time>2026-05-01T11:51:29.999Z</time></trkpt><trkpt lat="44.963253424074544" lon="9.059084814078442"><ele>146.0</ele><time>2026-05-01T11:51:31.999Z</time></trkpt><trkpt lat="44.96318072554875" lon="9.05908967495222"><ele>146.6</ele><time>2026-05-01T11:51:33.999Z</time></trkpt><trkpt lat="44.963152326307046" lon="9.05898083457257"><ele>147.2</ele><time>2026-05-01T11:51:34.999Z</time></trkpt><trkpt lat="44.96315580961557" lon="9.058799489177936"><ele>147.8</ele><time>2026-05-01T11:51:36.999Z</time></trkpt><trkpt lat="44.963168665312686" lon="9.058694257428854"><ele>148.4</ele><time>2026-05-01T11:51:37.999Z</time></trkpt><trkpt lat="44.963176663530895" lon="9.058598198958801"><ele>149.0</ele><time>2026-05-01T11:51:38.999Z</time></trkpt><trkpt lat="44.9631871250012" lon="9.058450229227967"><ele>149.0</ele><time>2026-05-01T11:51:40.999Z</time></trkpt><trkpt lat="44.96318949555794" lon="9.058325243061521"><ele>149.0</ele><time>2026-05-01T11:51:42.999Z</time></trkpt><trkpt lat="44.96320742409554" lon="9.058204539234426"><ele>149.0</ele><time>2026-05-01T11:51:44.999Z</time></trkpt><trkpt lat="44.96318096433996" lon="9.058079428114658"><ele>149.0</ele><time>2026-05-01T11:51:46.999Z</time></trkpt><trkpt lat="44.963114126954686" lon="9.057967672718451"><ele>149.0</ele><time>2026-05-01T11:51:48.999Z</time></trkpt><trkpt lat="44.9630179795609" lon="9.057897997367709"><ele>149.0</ele><time>2026-05-01T11:51:50.999Z</time></trkpt><trkpt lat="44.96295410135398" lon="9.057878307928378"><ele>149.0</ele><time>2026-05-01T11:51:51.999Z</time></trkpt><trkpt lat="44.962886728140596" lon="9.057860426188405"><ele>149.0</ele><time>2026-05-01T11:51:52.999Z</time></trkpt><trkpt lat="44.962810351193035" lon="9.057842068373981"><ele>149.0</ele><time>2026-05-01T11:51:53.999Z</time></trkpt><trkpt lat="44.96272428796322" lon="9.0578239746741"><ele>149.0</ele><time>2026-05-01T11:51:54.999Z</time></trkpt><trkpt lat="44.96263771451959" lon="9.057805922437659"><ele>149.0</ele><time>2026-05-01T11:51:55.999Z</time></trkpt><trkpt lat="44.96255646946903" lon="9.057781623992758"><ele>149.0</ele><time>2026-05-01T11:51:56.999Z</time></trkpt><trkpt lat="44.96248560429341" lon="9.057737437597169"><ele>149.0</ele><time>2026-05-01T11:51:58.999Z</time></trkpt><trkpt lat="44.96245870633143" lon="9.057655545075107"><ele>149.0</ele><time>2026-05-01T11:52:00.999Z</time></trkpt><trkpt lat="44.96245865588989" lon="9.057559656645093"><ele>149.0</ele><time>2026-05-01T11:52:01.999Z</time></trkpt><trkpt lat="44.96246672746691" lon="9.057449201283902"><ele>149.0</ele><time>2026-05-01T11:52:02.999Z</time></trkpt><trkpt lat="44.96248379565701" lon="9.057322617678793"><ele>149.0</ele><time>2026-05-01T11:52:03.999Z</time></trkpt><trkpt lat="44.96250566133626" lon="9.05718785433235"><ele>149.0</ele><time>2026-05-01T11:52:04.999Z</time></trkpt><trkpt lat="44.962529890689964" lon="9.057047233951845"><ele>149.0</ele><time>2026-05-01T11:52:05.999Z</time></trkpt><trkpt lat="44.962553747189475" lon="9.056898035632916"><ele>149.0</ele><time>2026-05-01T11:52:06.999Z</time></trkpt><trkpt lat="44.9625756539291" lon="9.056755078193067"><ele>149.0</ele><time>2026-05-01T11:52:07.999Z</time></trkpt><trkpt lat="44.96259806658034" lon="9.056608819037184"><ele>149.0</ele><time>2026-05-01T11:52:08.999Z</time></trkpt><trkpt lat="44.96261325915177" lon="9.05646290265456"><ele>148.6</ele><time>2026-05-01T11:52:09.999Z</time></trkpt><trkpt lat="44.962633375234766" lon="9.056340363991483"><ele>148.2</ele><time>2026-05-01T11:52:10.999Z</time></trkpt><trkpt lat="44.962653252799036" lon="9.05623626604516"><ele>147.79999999999998</ele><time>2026-05-01T11:52:11.999Z</time></trkpt><trkpt lat="44.96267326748275" lon="9.056108156914851"><ele>147.4</ele><time>2026-05-01T11:52:13.999Z</time></trkpt><trkpt lat="44.962569954198976" lon="9.055996997123598"><ele>147.0</ele><time>2026-05-01T11:52:15.999Z</time></trkpt><trkpt lat="44.96249771810523" lon="9.055968612338186"><ele>147.0</ele><time>2026-05-01T11:52:16.995Z</time></trkpt><trkpt lat="44.9624170235894" lon="9.055933870815561"><ele>147.0</ele><time>2026-05-01T11:52:17.995Z</time></trkpt><trkpt lat="44.96232450972743" lon="9.055894040647278"><ele>147.0</ele><time>2026-05-01T11:52:18.995Z</time></trkpt><trkpt lat="44.96222097664233" lon="9.05584946639453"><ele>147.0</ele><time>2026-05-01T11:52:19.995Z</time></trkpt><trkpt lat="44.962117301767655" lon="9.055804831010148"><ele>147.0</ele><time>2026-05-01T11:52:20.995Z</time></trkpt><trkpt lat="44.96201764764427" lon="9.055761185979827"><ele>146.6</ele><time>2026-05-01T11:52:21.995Z</time></trkpt><trkpt lat="44.9619120465102" lon="9.055713805774229"><ele>146.2</ele><time>2026-05-01T11:52:22.995Z</time></trkpt><trkpt lat="44.96181067135326" lon="9.055668171610025"><ele>145.8</ele><time>2026-05-01T11:52:23.995Z</time></trkpt><trkpt lat="44.9617183435199" lon="9.055626610087637"><ele>145.4</ele><time>2026-05-01T11:52:24.995Z</time></trkpt><trkpt lat="44.96162980159424" lon="9.055586752737831"><ele>145.0</ele><time>2026-05-01T11:52:25.995Z</time></trkpt><trkpt lat="44.96153962189986" lon="9.055546158246832"><ele>145.0</ele><time>2026-05-01T11:52:26.995Z</time></trkpt><trkpt lat="44.961449438815514" lon="9.055505387852314"><ele>145.0</ele><time>2026-05-01T11:52:27.995Z</time></trkpt><trkpt lat="44.961361476180166" lon="9.055465537646842"><ele>145.0</ele><time>2026-05-01T11:52:28.996Z</time></trkpt><trkpt lat="44.96127178980747" lon="9.055424906503646"><ele>145.0</ele><time>2026-05-01T11:52:29.996Z</time></trkpt><trkpt lat="44.96118284187829" lon="9.055384611751448"><ele>145.0</ele><time>2026-05-01T11:52:30.996Z</time></trkpt><trkpt lat="44.96109509186049" lon="9.055344867619867"><ele>145.0</ele><time>2026-05-01T11:52:31.996Z</time></trkpt><trkpt lat="44.96100987128557" lon="9.055306378845673"><ele>145.0</ele><time>2026-05-01T11:52:32.996Z</time></trkpt><trkpt lat="44.96092798612892" lon="9.055290674707898"><ele>145.0</ele><time>2026-05-01T11:52:33.996Z</time></trkpt><trkpt lat="44.96085591605478" lon="9.055239412460537"><ele>145.0</ele><time>2026-05-01T11:52:34.996Z</time></trkpt><trkpt lat="44.96078977400847" lon="9.055197531086183"><ele>145.0</ele><time>2026-05-01T11:52:35.996Z</time></trkpt><trkpt lat="44.960729422759236" lon="9.0551708676172"><ele>145.0</ele><time>2026-05-01T11:52:36.997Z</time></trkpt><trkpt lat="44.960659838247594" lon="9.055119503449005"><ele>145.2</ele><time>2026-05-01T11:52:38.997Z</time></trkpt><trkpt lat="44.96064399075378" lon="9.054937640348912"><ele>145.4</ele><time>2026-05-01T11:52:41.997Z</time></trkpt><trkpt lat="44.960649109552115" lon="9.054823128601663"><ele>145.6</ele><time>2026-05-01T11:52:42.997Z</time></trkpt><trkpt lat="44.96065033743669" lon="9.054688067068493"><ele>145.8</ele><time>2026-05-01T11:52:43.997Z</time></trkpt><trkpt lat="44.960647461276054" lon="9.054536866546291"><ele>146.0</ele><time>2026-05-01T11:52:44.997Z</time></trkpt><trkpt lat="44.960649872454866" lon="9.054376004890393"><ele>146.0</ele><time>2026-05-01T11:52:45.997Z</time></trkpt><trkpt lat="44.96066009370616" lon="9.05421471778108"><ele>146.0</ele><time>2026-05-01T11:52:46.997Z</time></trkpt><trkpt lat="44.96067124907832" lon="9.05406005476104"><ele>146.0</ele><time>2026-05-01T11:52:47.998Z</time></trkpt><trkpt lat="44.96068203487641" lon="9.053917497631248"><ele>146.0</ele><time>2026-05-01T11:52:48.998Z</time></trkpt><trkpt lat="44.96067549999195" lon="9.053792757393275"><ele>146.0</ele><time>2026-05-01T11:52:49.998Z</time></trkpt><trkpt lat="44.96068108603276" lon="9.053676227639139"><ele>145.71428571428572</ele><time>2026-05-01T11:52:50.998Z</time></trkpt><trkpt lat="44.96068165223045" lon="9.053586916255671"><ele>145.42857142857144</ele><time>2026-05-01T11:52:51.998Z</time></trkpt><trkpt lat="44.960677242323676" lon="9.05349246959366"><ele>145.14285714285717</ele><time>2026-05-01T11:52:52.998Z</time></trkpt><trkpt lat="44.960669731352475" lon="9.0534022458434"><ele>144.85714285714286</ele><time>2026-05-01T11:52:53.998Z</time></trkpt><trkpt lat="44.96065243138316" lon="9.053306070452606"><ele>144.57142857142858</ele><time>2026-05-01T11:52:54.998Z</time></trkpt><trkpt lat="44.960617442524736" lon="9.053208730664815"><ele>144.2857142857143</ele><time>2026-05-01T11:52:55.998Z</time></trkpt><trkpt lat="44.960579963137256" lon="9.053117679968421"><ele>144.0</ele><time>2026-05-01T11:52:56.998Z</time></trkpt><trkpt lat="44.96053179919295" lon="9.053025362196175"><ele>143.4</ele><time>2026-05-01T11:52:57.998Z</time></trkpt><trkpt lat="44.96048259597698" lon="9.052935218116014"><ele>142.8</ele><time>2026-05-01T11:52:58.998Z</time></trkpt><trkpt lat="44.96042384717321" lon="9.052835463367344"><ele>142.2</ele><time>2026-05-01T11:52:59.998Z</time></trkpt><trkpt lat="44.960358220093376" lon="9.052705557978355"><ele>141.6</ele><time>2026-05-01T11:53:00.998Z</time></trkpt><trkpt lat="44.96029866280142" lon="9.052574794719883"><ele>141.0</ele><time>2026-05-01T11:53:01.998Z</time></trkpt><trkpt lat="44.960254811927264" lon="9.052454671802776"><ele>140.6</ele><time>2026-05-01T11:53:02.998Z</time></trkpt><trkpt lat="44.96022777129452" lon="9.052309496626867"><ele>140.2</ele><time>2026-05-01T11:53:03.998Z</time></trkpt><trkpt lat="44.96018900647789" lon="9.052161474394774"><ele>139.8</ele><time>2026-05-01T11:53:04.998Z</time></trkpt><trkpt lat="44.96016075828859" lon="9.052011845684575"><ele>139.4</ele><time>2026-05-01T11:53:05.998Z</time></trkpt><trkpt lat="44.96013307869328" lon="9.05188236810239"><ele>139.0</ele><time>2026-05-01T11:53:06.998Z</time></trkpt><trkpt lat="44.960109032755824" lon="9.051765230713283"><ele>139.0</ele><time>2026-05-01T11:53:07.998Z</time></trkpt><trkpt lat="44.960079642120945" lon="9.051654901853427"><ele>139.0</ele><time>2026-05-01T11:53:08.998Z</time></trkpt><trkpt lat="44.96005693761804" lon="9.051547004886597"><ele>139.0</ele><time>2026-05-01T11:53:09.999Z</time></trkpt><trkpt lat="44.96003551573432" lon="9.051450250699878"><ele>139.0</ele><time>2026-05-01T11:53:10.999Z</time></trkpt><trkpt lat="44.96001510800228" lon="9.051358765679964"><ele>139.0</ele><time>2026-05-01T11:53:11.999Z</time></trkpt><trkpt lat="44.95999917870672" lon="9.051272562667517"><ele>139.0</ele><time>2026-05-01T11:53:12.999Z</time></trkpt><trkpt lat="44.95995925420575" lon="9.05118580090818"><ele>139.0</ele><time>2026-05-01T11:53:13.999Z</time></trkpt><trkpt lat="44.959908577286704" lon="9.05109723560312"><ele>138.75</ele><time>2026-05-01T11:53:14.999Z</time></trkpt><trkpt lat="44.95983753305823" lon="9.051010404299582"><ele>138.5</ele><time>2026-05-01T11:53:15.999Z</time></trkpt><trkpt lat="44.959744743184984" lon="9.050915047886619"><ele>138.25</ele><time>2026-05-01T11:53:16.999Z</time></trkpt><trkpt lat="44.9596586179173" lon="9.050798117217212"><ele>138.0</ele><time>2026-05-01T11:53:17.999Z</time></trkpt><trkpt lat="44.95955765975765" lon="9.050680621620714"><ele>138.25</ele><time>2026-05-01T11:53:18.999Z</time></trkpt><trkpt lat="44.95945445862672" lon="9.050561959090318"><ele>138.5</ele><time>2026-05-01T11:53:19.999Z</time></trkpt><trkpt lat="44.9593529036976" lon="9.05044671464591"><ele>138.75</ele><time>2026-05-01T11:53:20.999Z</time></trkpt><trkpt lat="44.95925880030365" lon="9.050345645315108"><ele>139.0</ele><time>2026-05-01T11:53:21.999Z</time></trkpt><trkpt lat="44.95916860997567" lon="9.050264880271637"><ele>139.0</ele><time>2026-05-01T11:53:22.999Z</time></trkpt><trkpt lat="44.95908202619277" lon="9.050190669609037"><ele>139.0</ele><time>2026-05-01T11:53:23.999Z</time></trkpt><trkpt lat="44.958994426063924" lon="9.050128575000022"><ele>139.0</ele><time>2026-05-01T11:53:24.999Z</time></trkpt><trkpt lat="44.958894345004175" lon="9.050078814028483"><ele>139.0</ele><time>2026-05-01T11:53:25.999Z</time></trkpt><trkpt lat="44.95879126157481" lon="9.050038250747013"><ele>139.0</ele><time>2026-05-01T11:53:26.999Z</time></trkpt><trkpt lat="44.95868238059744" lon="9.05000005793112"><ele>139.0</ele><time>2026-05-01T11:53:27.999Z</time></trkpt><trkpt lat="44.95858988461443" lon="9.049966787940068"><ele>139.0</ele><time>2026-05-01T11:53:28.999Z</time></trkpt><trkpt lat="44.9585075256187" lon="9.049893541900964"><ele>139.0</ele><time>2026-05-01T11:53:29.999Z</time></trkpt><trkpt lat="44.95840888354721" lon="9.04983316553829"><ele>139.0</ele><time>2026-05-01T11:53:30.999Z</time></trkpt><trkpt lat="44.95830673620353" lon="9.049788217096252"><ele>139.0</ele><time>2026-05-01T11:53:31.999Z</time></trkpt><trkpt lat="44.95821277976695" lon="9.049717602644881"><ele>138.8</ele><time>2026-05-01T11:53:32.999Z</time></trkpt><trkpt lat="44.95811724896634" lon="9.049651194166433"><ele>138.60000000000002</ele><time>2026-05-01T11:53:33.999Z</time></trkpt><trkpt lat="44.95802539419861" lon="9.049585450301787"><ele>138.4</ele><time>2026-05-01T11:53:34.999Z</time></trkpt><trkpt lat="44.957946629433835" lon="9.049525282931366"><ele>138.20000000000002</ele><time>2026-05-01T11:53:35.999Z</time></trkpt><trkpt lat="44.957889119969956" lon="9.049449394620854"><ele>138.0</ele><time>2026-05-01T11:53:36.999Z</time></trkpt><trkpt lat="44.95783560526918" lon="9.049378423959263"><ele>138.0</ele><time>2026-05-01T11:53:37.999Z</time></trkpt><trkpt lat="44.957798114982694" lon="9.049296374789929"><ele>138.0</ele><time>2026-05-01T11:53:38.999Z</time></trkpt><trkpt lat="44.95777593726854" lon="9.04920914956555"><ele>138.0</ele><time>2026-05-01T11:53:39.999Z</time></trkpt><trkpt lat="44.95776167892472" lon="9.049067980061917"><ele>138.0</ele><time>2026-05-01T11:53:41.999Z</time></trkpt><trkpt lat="44.957736314240606" lon="9.048903309249315"><ele>138.0</ele><time>2026-05-01T11:53:43.999Z</time></trkpt><trkpt lat="44.95772041151488" lon="9.048800065497097"><ele>138.0</ele><time>2026-05-01T11:53:44.999Z</time></trkpt><trkpt lat="44.957642112577865" lon="9.048656811799768"><ele>138.0</ele><time>2026-05-01T11:53:46.999Z</time></trkpt><trkpt lat="44.957616543391545" lon="9.048550599328506"><ele>138.0</ele><time>2026-05-01T11:53:47.999Z</time></trkpt><trkpt lat="44.95759164387241" lon="9.048437084939787"><ele>138.0</ele><time>2026-05-01T11:53:48.999Z</time></trkpt><trkpt lat="44.95791474196749" lon="9.048104220708472"><ele>138.16666666666666</ele><time>2026-05-01T11:53:49.999Z</time></trkpt><trkpt lat="44.95793111398645" lon="9.04798040174366"><ele>138.33333333333334</ele><time>2026-05-01T11:53:51Z</time></trkpt><trkpt lat="44.95794911023879" lon="9.047878652317792"><ele>138.5</ele><time>2026-05-01T11:53:52Z</time></trkpt><trkpt lat="44.957961339546166" lon="9.047704201502961"><ele>138.66666666666669</ele><time>2026-05-01T11:53:54Z</time></trkpt><trkpt lat="44.957969087891364" lon="9.04760997229027"><ele>138.83333333333334</ele><time>2026-05-01T11:53:55Z</time></trkpt><trkpt lat="44.95797883565211" lon="9.047516031997258"><ele>139.0</ele><time>2026-05-01T11:53:56Z</time></trkpt><trkpt lat="44.957987974971765" lon="9.047423495752437"><ele>139.0</ele><time>2026-05-01T11:53:57Z</time></trkpt><trkpt lat="44.95799298852665" lon="9.04733384783189"><ele>139.0</ele><time>2026-05-01T11:53:58Z</time></trkpt><trkpt lat="44.95798610852156" lon="9.047240784486917"><ele>139.0</ele><time>2026-05-01T11:53:59Z</time></trkpt><trkpt lat="44.957998510662016" lon="9.047141325555817"><ele>139.0</ele><time>2026-05-01T12:01:15.001Z</time></trkpt><trkpt lat="44.95801478178958" lon="9.047020189955532"><ele>139.0</ele><time>2026-05-01T12:01:17.001Z</time></trkpt><trkpt lat="44.958031978819164" lon="9.046862987280722"><ele>139.0</ele><time>2026-05-01T12:01:19.001Z</time></trkpt><trkpt lat="44.95805623311624" lon="9.04670299705388"><ele>139.0</ele><time>2026-05-01T12:01:21.001Z</time></trkpt><trkpt lat="44.95807012788117" lon="9.046615198563668"><ele>139.0</ele><time>2026-05-01T12:01:22.001Z</time></trkpt><trkpt lat="44.958084626933655" lon="9.046526464141651"><ele>139.0</ele><time>2026-05-01T12:01:23.001Z</time></trkpt><trkpt lat="44.95810848917529" lon="9.046350785196363"><ele>139.0</ele><time>2026-05-01T12:01:25.001Z</time></trkpt><trkpt lat="44.95812091447866" lon="9.046252230547143"><ele>139.0</ele><time>2026-05-01T12:01:26.001Z</time></trkpt><trkpt lat="44.958133231455825" lon="9.046155744220597"><ele>139.0</ele><time>2026-05-01T12:01:27.001Z</time></trkpt><trkpt lat="44.95814534325246" lon="9.046061197051841"><ele>139.0</ele><time>2026-05-01T12:01:28.001Z</time></trkpt><trkpt lat="44.95815594025658" lon="9.045968726195344"><ele>139.0</ele><time>2026-05-01T12:01:29.001Z</time></trkpt><trkpt lat="44.95817857274711" lon="9.045820638335949"><ele>139.0</ele><time>2026-05-01T12:01:31.001Z</time></trkpt><trkpt lat="44.95818215557855" lon="9.045705482128572"><ele>139.0</ele><time>2026-05-01T12:01:33.001Z</time></trkpt><trkpt lat="44.958126383558124" lon="9.045641015632079"><ele>139.0</ele><time>2026-05-01T12:01:35.001Z</time></trkpt><trkpt lat="44.95803180411512" lon="9.045641532052304"><ele>139.0</ele><time>2026-05-01T12:01:37.001Z</time></trkpt><trkpt lat="44.95792605113189" lon="9.04564211000166"><ele>138.83333333333334</ele><time>2026-05-01T12:01:39.001Z</time></trkpt><trkpt lat="44.95785543419218" lon="9.045635624974246"><ele>138.66666666666669</ele><time>2026-05-01T12:01:40.001Z</time></trkpt><trkpt lat="44.95778213074198" lon="9.045633182461588"><ele>138.5</ele><time>2026-05-01T12:01:41.001Z</time></trkpt><trkpt lat="44.957717179895326" lon="9.045631028824529"><ele>138.33333333333334</ele><time>2026-05-01T12:01:42.001Z</time></trkpt><trkpt lat="44.957577871775875" lon="9.045624722669256"><ele>138.16666666666666</ele><time>2026-05-01T12:01:44.001Z</time></trkpt><trkpt lat="44.95749373754848" lon="9.04561708986559"><ele>138.0</ele><time>2026-05-01T12:01:45.001Z</time></trkpt><trkpt lat="44.95740257293604" lon="9.04561263232001"><ele>138.5</ele><time>2026-05-01T12:01:46.001Z</time></trkpt><trkpt lat="44.957319374101445" lon="9.045606011304365"><ele>139.0</ele><time>2026-05-01T12:01:47.002Z</time></trkpt><trkpt lat="44.95723133966293" lon="9.045599315599326"><ele>139.5</ele><time>2026-05-01T12:01:48.002Z</time></trkpt><trkpt lat="44.95714534057222" lon="9.045594710878865"><ele>140.0</ele><time>2026-05-01T12:01:49.002Z</time></trkpt><trkpt lat="44.95706105870199" lon="9.045587459406626"><ele>140.5</ele><time>2026-05-01T12:01:50.002Z</time></trkpt><trkpt lat="44.956980794043965" lon="9.045576099636511"><ele>141.0</ele><time>2026-05-01T12:01:51.002Z</time></trkpt><trkpt lat="44.95690257271886" lon="9.045570244168193"><ele>141.0</ele><time>2026-05-01T12:01:52.002Z</time></trkpt><trkpt lat="44.95682581672725" lon="9.045559502699728"><ele>141.0</ele><time>2026-05-01T12:01:53.002Z</time></trkpt><trkpt lat="44.95675587796129" lon="9.045544323997373"><ele>141.0</ele><time>2026-05-01T12:01:54.002Z</time></trkpt><trkpt lat="44.95668153701096" lon="9.045523902460886"><ele>141.0</ele><time>2026-05-01T12:01:55.002Z</time></trkpt><trkpt lat="44.956598354561756" lon="9.045497249069"><ele>141.0</ele><time>2026-05-01T12:01:56.002Z</time></trkpt><trkpt lat="44.95651141104795" lon="9.045475022008311"><ele>141.0</ele><time>2026-05-01T12:01:57.002Z</time></trkpt><trkpt lat="44.95642734295779" lon="9.045455123303677"><ele>141.4</ele><time>2026-05-01T12:01:58.002Z</time></trkpt><trkpt lat="44.956339869225445" lon="9.04543048590804"><ele>141.8</ele><time>2026-05-01T12:01:59.002Z</time></trkpt><trkpt lat="44.95626124822673" lon="9.045400746427234"><ele>142.20000000000002</ele><time>2026-05-01T12:02:00.002Z</time></trkpt><trkpt lat="44.956183148536745" lon="9.045372101938911"><ele>142.6</ele><time>2026-05-01T12:02:01.002Z</time></trkpt><trkpt lat="44.95611535934425" lon="9.045352991219975"><ele>143.0</ele><time>2026-05-01T12:02:02.002Z</time></trkpt><trkpt lat="44.95598953221589" lon="9.045310307120186"><ele>143.0</ele><time>2026-05-01T12:02:04.002Z</time></trkpt><trkpt lat="44.95591985869714" lon="9.045287091056032"><ele>143.0</ele><time>2026-05-01T12:02:05.002Z</time></trkpt><trkpt lat="44.955854367020166" lon="9.04526753869569"><ele>143.0</ele><time>2026-05-01T12:02:06.002Z</time></trkpt><trkpt lat="44.9557759807185" lon="9.0452391190433"><ele>143.0</ele><time>2026-05-01T12:02:07.002Z</time></trkpt><trkpt lat="44.95568718283336" lon="9.045208829297703"><ele>143.0</ele><time>2026-05-01T12:02:08.002Z</time></trkpt><trkpt lat="44.95560279555432" lon="9.045181258372265"><ele>143.0</ele><time>2026-05-01T12:02:09.002Z</time></trkpt><trkpt lat="44.95551745983911" lon="9.045152088893119"><ele>143.33333333333331</ele><time>2026-05-01T12:02:10.002Z</time></trkpt><trkpt lat="44.95543112514805" lon="9.045116748574147"><ele>143.66666666666666</ele><time>2026-05-01T12:02:11.002Z</time></trkpt><trkpt lat="44.955344442681195" lon="9.045084618140843"><ele>144.0</ele><time>2026-05-01T12:02:12.002Z</time></trkpt><trkpt lat="44.95526241164164" lon="9.045046522834683"><ele>144.33333333333334</ele><time>2026-05-01T12:02:13.002Z</time></trkpt><trkpt lat="44.95518599795489" lon="9.045006745282487"><ele>144.66666666666669</ele><time>2026-05-01T12:02:14.002Z</time></trkpt><trkpt lat="44.955112558251926" lon="9.044964424142758"><ele>145.0</ele><time>2026-05-01T12:02:15.002Z</time></trkpt><trkpt lat="44.95503888593957" lon="9.044917096577786"><ele>145.5</ele><time>2026-05-01T12:02:16.002Z</time></trkpt><trkpt lat="44.95497527009318" lon="9.044864285712409"><ele>146.0</ele><time>2026-05-01T12:02:17.002Z</time></trkpt><trkpt lat="44.95492290202491" lon="9.044812666316052"><ele>146.5</ele><time>2026-05-01T12:02:18.002Z</time></trkpt><trkpt lat="44.95481328574284" lon="9.044723869125265"><ele>147.0</ele><time>2026-05-01T12:02:20.002Z</time></trkpt><trkpt lat="44.954748463493004" lon="9.044673276994834"><ele>147.5</ele><time>2026-05-01T12:02:21.002Z</time></trkpt><trkpt lat="44.95467412816883" lon="9.04462032467776"><ele>148.0</ele><time>2026-05-01T12:02:22.002Z</time></trkpt><trkpt lat="44.954596918379345" lon="9.04456591961964"><ele>148.0</ele><time>2026-05-01T12:02:23.002Z</time></trkpt><trkpt lat="44.95451182074747" lon="9.044504795690873"><ele>148.0</ele><time>2026-05-01T12:02:24.002Z</time></trkpt><trkpt lat="44.954421359412" lon="9.044436814616638"><ele>148.0</ele><time>2026-05-01T12:02:25.002Z</time></trkpt><trkpt lat="44.954334087300566" lon="9.044374521798266"><ele>148.0</ele><time>2026-05-01T12:02:26.002Z</time></trkpt><trkpt lat="44.95425123610918" lon="9.044314772701192"><ele>148.0</ele><time>2026-05-01T12:02:27.002Z</time></trkpt><trkpt lat="44.95416906477335" lon="9.044250593987961"><ele>148.20000000000002</ele><time>2026-05-01T12:02:28.002Z</time></trkpt><trkpt lat="44.95408401592548" lon="9.044190897319021"><ele>148.4</ele><time>2026-05-01T12:02:29.002Z</time></trkpt><trkpt lat="44.95400347777267" lon="9.04413353820793"><ele>148.60000000000002</ele><time>2026-05-01T12:02:30.002Z</time></trkpt><trkpt lat="44.95392510227652" lon="9.044079513355836"><ele>148.8</ele><time>2026-05-01T12:02:31.002Z</time></trkpt><trkpt lat="44.95384058285993" lon="9.044017180926883"><ele>149.0</ele><time>2026-05-01T12:02:32.002Z</time></trkpt><trkpt lat="44.953754149530056" lon="9.043954941980784"><ele>149.0</ele><time>2026-05-01T12:02:33.002Z</time></trkpt><trkpt lat="44.95366071227727" lon="9.043892327349132"><ele>149.0</ele><time>2026-05-01T12:02:34.002Z</time></trkpt><trkpt lat="44.9535682775482" lon="9.043825496330506"><ele>149.0</ele><time>2026-05-01T12:02:35.002Z</time></trkpt><trkpt lat="44.95347966093795" lon="9.04376286838892"><ele>149.0</ele><time>2026-05-01T12:02:36.003Z</time></trkpt><trkpt lat="44.95339485040881" lon="9.04370306296936"><ele>149.0</ele><time>2026-05-01T12:02:37.003Z</time></trkpt><trkpt lat="44.953310084485274" lon="9.043644208515843"><ele>149.8</ele><time>2026-05-01T12:02:38.003Z</time></trkpt><trkpt lat="44.95322264730248" lon="9.043586490912157"><ele>150.60000000000002</ele><time>2026-05-01T12:02:39.003Z</time></trkpt><trkpt lat="44.95314006898275" lon="9.043528268988709"><ele>151.4</ele><time>2026-05-01T12:02:40.003Z</time></trkpt><trkpt lat="44.95305659657091" lon="9.043471071814936"><ele>152.20000000000002</ele><time>2026-05-01T12:02:41.003Z</time></trkpt><trkpt lat="44.952968788646096" lon="9.043411936000746"><ele>153.0</ele><time>2026-05-01T12:02:42.003Z</time></trkpt><trkpt lat="44.95288472039919" lon="9.043354499365844"><ele>153.0</ele><time>2026-05-01T12:02:43.003Z</time></trkpt><trkpt lat="44.95281548437222" lon="9.043307795986"><ele>153.0</ele><time>2026-05-01T12:02:44.003Z</time></trkpt><trkpt lat="44.95275277288014" lon="9.043260270846133"><ele>153.0</ele><time>2026-05-01T12:02:45.003Z</time></trkpt><trkpt lat="44.95268147449199" lon="9.043211014457802"><ele>153.0</ele><time>2026-05-01T12:02:46.003Z</time></trkpt><trkpt lat="44.95261589281465" lon="9.043160772121054"><ele>153.0</ele><time>2026-05-01T12:02:46.999Z</time></trkpt><trkpt lat="44.95255245134594" lon="9.043114603209144"><ele>153.0</ele><time>2026-05-01T12:02:47.999Z</time></trkpt><trkpt lat="44.95248124301722" lon="9.043075761306298"><ele>153.5</ele><time>2026-05-01T12:02:48.999Z</time></trkpt><trkpt lat="44.95240439356279" lon="9.043042887894986"><ele>154.0</ele><time>2026-05-01T12:02:49.999Z</time></trkpt><trkpt lat="44.952334146095374" lon="9.043009440344369"><ele>154.5</ele><time>2026-05-01T12:02:50.999Z</time></trkpt><trkpt lat="44.95226142612265" lon="9.04297444099357"><ele>155.0</ele><time>2026-05-01T12:02:51.999Z</time></trkpt><trkpt lat="44.95218026873419" lon="9.042934317571168"><ele>155.5</ele><time>2026-05-01T12:02:52.999Z</time></trkpt><trkpt lat="44.95209136329673" lon="9.042890878097998"><ele>156.0</ele><time>2026-05-01T12:02:53.999Z</time></trkpt><trkpt lat="44.95199970159453" lon="9.04285077701883"><ele>156.0</ele><time>2026-05-01T12:02:54.999Z</time></trkpt><trkpt lat="44.951905760601626" lon="9.042808724033605"><ele>156.0</ele><time>2026-05-01T12:02:55.999Z</time></trkpt><trkpt lat="44.95181044109074" lon="9.042764077385563"><ele>156.0</ele><time>2026-05-01T12:02:56.999Z</time></trkpt><trkpt lat="44.95171707808959" lon="9.042719404453939"><ele>156.0</ele><time>2026-05-01T12:02:57.999Z</time></trkpt><trkpt lat="44.95161944920981" lon="9.042677151639966"><ele>156.0</ele><time>2026-05-01T12:02:58.999Z</time></trkpt><trkpt lat="44.951523110790454" lon="9.042634008021874"><ele>156.2</ele><time>2026-05-01T12:02:59.999Z</time></trkpt><trkpt lat="44.951426660932405" lon="9.042591352409326"><ele>156.39999999999998</ele><time>2026-05-01T12:03:00.999Z</time></trkpt><trkpt lat="44.951333512763576" lon="9.042546313405886"><ele>156.6</ele><time>2026-05-01T12:03:01.999Z</time></trkpt><trkpt lat="44.95123817265105" lon="9.04250225217541"><ele>156.79999999999998</ele><time>2026-05-01T12:03:02.999Z</time></trkpt><trkpt lat="44.95113708352678" lon="9.04245704057112"><ele>157.0</ele><time>2026-05-01T12:03:03.999Z</time></trkpt><trkpt lat="44.95104026377971" lon="9.042410057296056"><ele>157.0</ele><time>2026-05-01T12:03:04.999Z</time></trkpt><trkpt lat="44.95094327968579" lon="9.042362830493156"><ele>157.0</ele><time>2026-05-01T12:03:05.999Z</time></trkpt><trkpt lat="44.95083939331482" lon="9.042314545924295"><ele>157.0</ele><time>2026-05-01T12:03:06.999Z</time></trkpt><trkpt lat="44.950736930545354" lon="9.042264668515417"><ele>157.0</ele><time>2026-05-01T12:03:07.999Z</time></trkpt><trkpt lat="44.95063238796108" lon="9.042214690333477"><ele>157.0</ele><time>2026-05-01T12:03:08.999Z</time></trkpt><trkpt lat="44.95053069238166" lon="9.042163573419499"><ele>157.6</ele><time>2026-05-01T12:03:09.999Z</time></trkpt><trkpt lat="44.950429651674156" lon="9.042111249533574"><ele>158.2</ele><time>2026-05-01T12:03:11Z</time></trkpt><trkpt lat="44.95032326592865" lon="9.042060847925725"><ele>158.8</ele><time>2026-05-01T12:03:12Z</time></trkpt><trkpt lat="44.95021756482561" lon="9.042010366215177"><ele>159.4</ele><time>2026-05-01T12:03:13Z</time></trkpt><trkpt lat="44.95011382537678" lon="9.041957607701072"><ele>160.0</ele><time>2026-05-01T12:03:14Z</time></trkpt><trkpt lat="44.950014684380314" lon="9.041906355964482"><ele>160.5</ele><time>2026-05-01T12:03:15Z</time></trkpt><trkpt lat="44.94992235685989" lon="9.041861762120597"><ele>161.0</ele><time>2026-05-01T12:03:16Z</time></trkpt><trkpt lat="44.94983656848042" lon="9.041823673218243"><ele>161.5</ele><time>2026-05-01T12:03:17Z</time></trkpt><trkpt lat="44.94975198441888" lon="9.041789674147104"><ele>162.0</ele><time>2026-05-01T12:03:18Z</time></trkpt><trkpt lat="44.94966979227687" lon="9.041758790411526"><ele>162.5</ele><time>2026-05-01T12:03:19Z</time></trkpt><trkpt lat="44.94959501989088" lon="9.041724582140818"><ele>163.0</ele><time>2026-05-01T12:03:20Z</time></trkpt><trkpt lat="44.94952538466215" lon="9.041685179711939"><ele>163.0</ele><time>2026-05-01T12:03:21Z</time></trkpt><trkpt lat="44.94943123561813" lon="9.04163760884017"><ele>163.0</ele><time>2026-05-01T12:03:22Z</time></trkpt><trkpt lat="44.94933176449709" lon="9.041592475468235"><ele>163.0</ele><time>2026-05-01T12:03:23Z</time></trkpt><trkpt lat="44.94923313980953" lon="9.041543270684512"><ele>163.0</ele><time>2026-05-01T12:03:24Z</time></trkpt><trkpt lat="44.94913365917348" lon="9.041488273384402"><ele>163.0</ele><time>2026-05-01T12:03:25Z</time></trkpt><trkpt lat="44.94904146689955" lon="9.041424377297114"><ele>162.83333333333334</ele><time>2026-05-01T12:03:26Z</time></trkpt><trkpt lat="44.94896376101039" lon="9.041343997736703"><ele>162.66666666666669</ele><time>2026-05-01T12:03:27Z</time></trkpt><trkpt lat="44.9488985091648" lon="9.041256448482288"><ele>162.5</ele><time>2026-05-01T12:03:28Z</time></trkpt><trkpt lat="44.948839791882406" lon="9.041175155670343"><ele>162.33333333333334</ele><time>2026-05-01T12:03:29Z</time></trkpt><trkpt lat="44.94879007854157" lon="9.041098412920872"><ele>162.16666666666666</ele><time>2026-05-01T12:03:30Z</time></trkpt><trkpt lat="44.9487509098067" lon="9.04101031671138"><ele>162.0</ele><time>2026-05-01T12:03:31Z</time></trkpt><trkpt lat="44.94872858012602" lon="9.040920526526014"><ele>162.0</ele><time>2026-05-01T12:03:32Z</time></trkpt><trkpt lat="44.94859921397839" lon="9.040825115703923"><ele>162.0</ele><time>2026-05-01T12:03:34Z</time></trkpt><trkpt lat="44.948551055182485" lon="9.040731049564734"><ele>162.0</ele><time>2026-05-01T12:03:35Z</time></trkpt><trkpt lat="44.948492892401774" lon="9.040661410529957"><ele>162.0</ele><time>2026-05-01T12:03:36Z</time></trkpt><trkpt lat="44.94841728975296" lon="9.040608216497697"><ele>162.0</ele><time>2026-05-01T12:03:37Z</time></trkpt><trkpt lat="44.948356388326744" lon="9.040532805666473"><ele>163.0</ele><time>2026-05-01T12:03:38Z</time></trkpt><trkpt lat="44.94830182692901" lon="9.040484446277054"><ele>164.0</ele><time>2026-05-01T12:03:39Z</time></trkpt><trkpt lat="44.94821004853834" lon="9.040404817921262"><ele>165.0</ele><time>2026-05-01T12:03:41Z</time></trkpt><trkpt lat="44.948070925169006" lon="9.040372802824738"><ele>166.0</ele><time>2026-05-01T12:03:48.001Z</time></trkpt><trkpt lat="44.94800138286287" lon="9.040415196986654"><ele>167.0</ele><time>2026-05-01T12:03:49.001Z</time></trkpt><trkpt lat="44.9479406031001" lon="9.040451097558803"><ele>167.0</ele><time>2026-05-01T12:03:50.001Z</time></trkpt><trkpt lat="44.94787124871516" lon="9.040491241694864"><ele>167.0</ele><time>2026-05-01T12:03:51.001Z</time></trkpt><trkpt lat="44.947797089803515" lon="9.040534166822287"><ele>167.0</ele><time>2026-05-01T12:03:52.001Z</time></trkpt><trkpt lat="44.947709416848035" lon="9.04058413501317"><ele>167.0</ele><time>2026-05-01T12:03:53.001Z</time></trkpt><trkpt lat="44.94761551879258" lon="9.040637528016193"><ele>167.0</ele><time>2026-05-01T12:03:54.001Z</time></trkpt><trkpt lat="44.94751556935241" lon="9.04069436289879"><ele>167.6</ele><time>2026-05-01T12:03:55.001Z</time></trkpt><trkpt lat="44.94741534404986" lon="9.040750989056416"><ele>168.2</ele><time>2026-05-01T12:03:56.001Z</time></trkpt><trkpt lat="44.94732740192869" lon="9.04080078376587"><ele>168.8</ele><time>2026-05-01T12:03:57.001Z</time></trkpt><trkpt lat="44.947238934496745" lon="9.040850876949039"><ele>169.4</ele><time>2026-05-01T12:03:58.001Z</time></trkpt><trkpt lat="44.94714680196961" lon="9.040902568569535"><ele>170.0</ele><time>2026-05-01T12:03:59.001Z</time></trkpt><trkpt lat="44.94705517614058" lon="9.04095548667392"><ele>170.25</ele><time>2026-05-01T12:04:00.001Z</time></trkpt><trkpt lat="44.94696100183202" lon="9.0410095318219"><ele>170.5</ele><time>2026-05-01T12:04:01.001Z</time></trkpt><trkpt lat="44.9468629762102" lon="9.041088058362869"><ele>170.75</ele><time>2026-05-01T12:04:02.001Z</time></trkpt><trkpt lat="44.94675017431247" lon="9.041148623085046"><ele>171.0</ele><time>2026-05-01T12:04:03.001Z</time></trkpt><trkpt lat="44.9466338181427" lon="9.04122208882526"><ele>172.0</ele><time>2026-05-01T12:04:04.001Z</time></trkpt><trkpt lat="44.94651748870517" lon="9.041286325519076"><ele>173.0</ele><time>2026-05-01T12:04:05.001Z</time></trkpt><trkpt lat="44.946388990868876" lon="9.041344979012758"><ele>174.0</ele><time>2026-05-01T12:04:06.001Z</time></trkpt><trkpt lat="44.94626967975394" lon="9.041414300740412"><ele>175.0</ele><time>2026-05-01T12:04:07.001Z</time></trkpt><trkpt lat="44.94615207618984" lon="9.041477116744474"><ele>175.0</ele><time>2026-05-01T12:04:08.001Z</time></trkpt><trkpt lat="44.94603861373039" lon="9.041543861277423"><ele>175.0</ele><time>2026-05-01T12:04:09.001Z</time></trkpt><trkpt lat="44.94592538565408" lon="9.041615187414651"><ele>175.0</ele><time>2026-05-01T12:04:10.001Z</time></trkpt><trkpt lat="44.94581479540249" lon="9.04168188983676"><ele>175.0</ele><time>2026-05-01T12:04:11.001Z</time></trkpt><trkpt lat="44.94570187122731" lon="9.041737052753904"><ele>175.2</ele><time>2026-05-01T12:04:12.001Z</time></trkpt><trkpt lat="44.945595421871836" lon="9.041796164642674"><ele>175.4</ele><time>2026-05-01T12:04:13.001Z</time></trkpt><trkpt lat="44.94548953794012" lon="9.041855096995073"><ele>175.60000000000002</ele><time>2026-05-01T12:04:14.001Z</time></trkpt><trkpt lat="44.94539853999487" lon="9.041911823422861"><ele>175.8</ele><time>2026-05-01T12:04:15.001Z</time></trkpt><trkpt lat="44.945316702269075" lon="9.041956194424445"><ele>176.0</ele><time>2026-05-01T12:04:16.001Z</time></trkpt><trkpt lat="44.94524940000405" lon="9.041997202287085"><ele>176.0</ele><time>2026-05-01T12:04:17.001Z</time></trkpt><trkpt lat="44.94517341843416" lon="9.042026831194857"><ele>176.0</ele><time>2026-05-01T12:04:19.001Z</time></trkpt><trkpt lat="44.94507268008032" lon="9.042073631790634"><ele>176.0</ele><time>2026-05-01T12:04:23.002Z</time></trkpt><trkpt lat="44.94499733676677" lon="9.042128906954181"><ele>176.0</ele><time>2026-05-01T12:04:25.002Z</time></trkpt><trkpt lat="44.94493588267012" lon="9.042064868996698"><ele>176.0</ele><time>2026-05-01T12:04:27.002Z</time></trkpt><trkpt lat="44.94488598977162" lon="9.042002283911533"><ele>176.0</ele><time>2026-05-01T12:04:28.002Z</time></trkpt><trkpt lat="44.94483647536184" lon="9.041937021179104"><ele>177.0</ele><time>2026-05-01T12:04:29.002Z</time></trkpt><trkpt lat="44.94477759706818" lon="9.041834208493066"><ele>178.0</ele><time>2026-05-01T12:04:31.002Z</time></trkpt><trkpt lat="44.944833983940015" lon="9.04169115886645"><ele>179.0</ele><time>2026-05-01T12:04:33.002Z</time></trkpt><trkpt lat="44.94488113393707" lon="9.041600912212987"><ele>180.0</ele><time>2026-05-01T12:04:34.002Z</time></trkpt><trkpt lat="44.94491594404672" lon="9.04147877644823"><ele>181.0</ele><time>2026-05-01T12:04:35.002Z</time></trkpt><trkpt lat="44.94496015806748" lon="9.041353144809984"><ele>181.0</ele><time>2026-05-01T12:04:36.002Z</time></trkpt><trkpt lat="44.9450015855112" lon="9.041236738139794"><ele>181.0</ele><time>2026-05-01T12:04:37.002Z</time></trkpt><trkpt lat="44.94503073737072" lon="9.041100816660299"><ele>181.0</ele><time>2026-05-01T12:04:38.002Z</time></trkpt><trkpt lat="44.94505574855503" lon="9.040979810769592"><ele>181.0</ele><time>2026-05-01T12:04:39.002Z</time></trkpt><trkpt lat="44.945066563173086" lon="9.040878752170306"><ele>181.0</ele><time>2026-05-01T12:04:40.002Z</time></trkpt><trkpt lat="44.945032418804715" lon="9.04071947196096"><ele>182.0</ele><time>2026-05-01T12:04:42.002Z</time></trkpt><trkpt lat="44.94492357176318" lon="9.040652414582814"><ele>183.0</ele><time>2026-05-01T12:04:44.002Z</time></trkpt><trkpt lat="44.94485081802859" lon="9.040672710863145"><ele>184.0</ele><time>2026-05-01T12:04:45.002Z</time></trkpt><trkpt lat="44.94477427394994" lon="9.040694992326763"><ele>185.0</ele><time>2026-05-01T12:04:46.002Z</time></trkpt><trkpt lat="44.944701670782564" lon="9.040705425628412"><ele>186.0</ele><time>2026-05-01T12:04:47.002Z</time></trkpt><trkpt lat="44.94463458610645" lon="9.04071633389123"><ele>187.0</ele><time>2026-05-01T12:04:48.002Z</time></trkpt><trkpt lat="44.94456970701715" lon="9.040725894064558"><ele>187.0</ele><time>2026-05-01T12:04:49.002Z</time></trkpt><trkpt lat="44.94446654566738" lon="9.0407219753499"><ele>187.0</ele><time>2026-05-01T12:04:51.002Z</time></trkpt><trkpt lat="44.944335029753375" lon="9.040672198122314"><ele>187.0</ele><time>2026-05-01T12:04:52.996Z</time></trkpt><trkpt lat="44.944260737951716" lon="9.040603562882954"><ele>187.0</ele><time>2026-05-01T12:04:53.996Z</time></trkpt><trkpt lat="44.94418883227618" lon="9.040509292762795"><ele>187.0</ele><time>2026-05-01T12:04:54.996Z</time></trkpt><trkpt lat="44.94411046483189" lon="9.040414505296894"><ele>188.6</ele><time>2026-05-01T12:04:55.996Z</time></trkpt><trkpt lat="44.944036618577364" lon="9.040327653374977"><ele>190.2</ele><time>2026-05-01T12:04:56.996Z</time></trkpt><trkpt lat="44.94395875009213" lon="9.040259607731453"><ele>191.8</ele><time>2026-05-01T12:04:57.996Z</time></trkpt><trkpt lat="44.94386720597599" lon="9.04021076989739"><ele>193.4</ele><time>2026-05-01T12:04:58.996Z</time></trkpt><trkpt lat="44.94376356311328" lon="9.040197051143616"><ele>195.0</ele><time>2026-05-01T12:04:59.996Z</time></trkpt><trkpt lat="44.9436620153874" lon="9.04017972861207"><ele>195.0</ele><time>2026-05-01T12:05:00.996Z</time></trkpt><trkpt lat="44.94356151451878" lon="9.040156257112825"><ele>195.0</ele><time>2026-05-01T12:05:01.997Z</time></trkpt><trkpt lat="44.94345752410098" lon="9.040133518424355"><ele>195.0</ele><time>2026-05-01T12:05:02.997Z</time></trkpt><trkpt lat="44.94335142548435" lon="9.04009970712879"><ele>195.0</ele><time>2026-05-01T12:05:03.997Z</time></trkpt><trkpt lat="44.94323958645655" lon="9.040064418661446"><ele>195.0</ele><time>2026-05-01T12:05:04.997Z</time></trkpt><trkpt lat="44.94312204309462" lon="9.040026814663907"><ele>194.5</ele><time>2026-05-01T12:05:05.997Z</time></trkpt><trkpt lat="44.942996667730085" lon="9.039985621405963"><ele>194.0</ele><time>2026-05-01T12:05:06.997Z</time></trkpt><trkpt lat="44.94286593062718" lon="9.039938797677305"><ele>193.5</ele><time>2026-05-01T12:05:07.997Z</time></trkpt><trkpt lat="44.942731657352326" lon="9.039884675370336"><ele>193.0</ele><time>2026-05-01T12:05:08.997Z</time></trkpt><trkpt lat="44.942606370207166" lon="9.039836471729824"><ele>194.5</ele><time>2026-05-01T12:05:09.997Z</time></trkpt><trkpt lat="44.94248453442984" lon="9.039788160776947"><ele>196.0</ele><time>2026-05-01T12:05:10.997Z</time></trkpt><trkpt lat="44.942356441711695" lon="9.039740105652719"><ele>197.5</ele><time>2026-05-01T12:05:11.998Z</time></trkpt><trkpt lat="44.94222545884312" lon="9.039696901921827"><ele>199.0</ele><time>2026-05-01T12:05:12.998Z</time></trkpt><trkpt lat="44.9420814908701" lon="9.03966040490205"><ele>199.0</ele><time>2026-05-01T12:05:13.998Z</time></trkpt><trkpt lat="44.941941381945945" lon="9.039600428912241"><ele>199.0</ele><time>2026-05-01T12:05:14.998Z</time></trkpt><trkpt lat="44.9418053893793" lon="9.03955031315326"><ele>199.0</ele><time>2026-05-01T12:05:15.998Z</time></trkpt><trkpt lat="44.941667672584344" lon="9.039501561141176"><ele>199.0</ele><time>2026-05-01T12:05:16.998Z</time></trkpt><trkpt lat="44.941532161114544" lon="9.039456693832358"><ele>201.0</ele><time>2026-05-01T12:05:17.998Z</time></trkpt><trkpt lat="44.941394689086685" lon="9.039407638661281"><ele>203.0</ele><time>2026-05-01T12:05:18.998Z</time></trkpt><trkpt lat="44.941261575514474" lon="9.039360928838908"><ele>205.0</ele><time>2026-05-01T12:05:19.998Z</time></trkpt><trkpt lat="44.94114265455747" lon="9.039316532529014"><ele>207.0</ele><time>2026-05-01T12:05:20.998Z</time></trkpt><trkpt lat="44.94104088929885" lon="9.039282744692512"><ele>207.0</ele><time>2026-05-01T12:05:21.998Z</time></trkpt><trkpt lat="44.940944678026554" lon="9.039263806142518"><ele>207.0</ele><time>2026-05-01T12:05:22.999Z</time></trkpt><trkpt lat="44.940843374675275" lon="9.039271150693468"><ele>207.0</ele><time>2026-05-01T12:05:23.999Z</time></trkpt><trkpt lat="44.940744956169844" lon="9.039301867051776"><ele>207.0</ele><time>2026-05-01T12:05:24.999Z</time></trkpt><trkpt lat="44.940642459584865" lon="9.039360038639948"><ele>207.0</ele><time>2026-05-01T12:05:25.999Z</time></trkpt><trkpt lat="44.94053778558455" lon="9.039439092023626"><ele>208.66666666666666</ele><time>2026-05-01T12:05:26.999Z</time></trkpt><trkpt lat="44.94045148310208" lon="9.039527012026511"><ele>210.33333333333331</ele><time>2026-05-01T12:05:27.999Z</time></trkpt><trkpt lat="44.940372012016304" lon="9.039588007038116"><ele>212.0</ele><time>2026-05-01T12:05:28.999Z</time></trkpt><trkpt lat="44.94030964756072" lon="9.039647669742719"><ele>213.66666666666666</ele><time>2026-05-01T12:05:29.999Z</time></trkpt><trkpt lat="44.94024153118373" lon="9.039682200311537"><ele>215.33333333333331</ele><time>2026-05-01T12:05:30.999Z</time></trkpt><trkpt lat="44.9401671009093" lon="9.039691741467335"><ele>217.0</ele><time>2026-05-01T12:05:31.999Z</time></trkpt><trkpt lat="44.940070947018576" lon="9.03969244097796"><ele>218.8</ele><time>2026-05-01T12:05:32.999Z</time></trkpt><trkpt lat="44.93997853624333" lon="9.039706088266309"><ele>220.6</ele><time>2026-05-01T12:05:33.999Z</time></trkpt><trkpt lat="44.93988870883555" lon="9.03971874965427"><ele>222.40000000000003</ele><time>2026-05-01T12:05:34.999Z</time></trkpt><trkpt lat="44.939796665529975" lon="9.03973060748748"><ele>224.20000000000002</ele><time>2026-05-01T12:05:35.999Z</time></trkpt><trkpt lat="44.93970380917979" lon="9.039743657056523"><ele>226.0</ele><time>2026-05-01T12:05:36.999Z</time></trkpt><trkpt lat="44.939612545309785" lon="9.03975307975608"><ele>226.0</ele><time>2026-05-01T12:05:37.999Z</time></trkpt><trkpt lat="44.93951397343242" lon="9.039766888986884"><ele>226.00000000000003</ele><time>2026-05-01T12:05:38.999Z</time></trkpt><trkpt lat="44.939411764504776" lon="9.039758573011786"><ele>226.00000000000003</ele><time>2026-05-01T12:05:39.999Z</time></trkpt><trkpt lat="44.93930442087982" lon="9.039771906515746"><ele>226.0</ele><time>2026-05-01T12:05:41Z</time></trkpt><trkpt lat="44.93919278591191" lon="9.039785773107916"><ele>226.0</ele><time>2026-05-01T12:05:42Z</time></trkpt><trkpt lat="44.93908328297511" lon="9.039799374784065"><ele>227.66666666666666</ele><time>2026-05-01T12:05:43Z</time></trkpt><trkpt lat="44.93898126834037" lon="9.039835171287775"><ele>229.33333333333331</ele><time>2026-05-01T12:05:44Z</time></trkpt><trkpt lat="44.93888024633548" lon="9.039833823035199"><ele>231.0</ele><time>2026-05-01T12:05:45Z</time></trkpt><trkpt lat="44.93880594172031" lon="9.039853436240461"><ele>232.66666666666669</ele><time>2026-05-01T12:05:46Z</time></trkpt><trkpt lat="44.93874650966377" lon="9.03989306708113"><ele>234.33333333333334</ele><time>2026-05-01T12:05:47Z</time></trkpt><trkpt lat="44.93868953510093" lon="9.039961169091233"><ele>236.0</ele><time>2026-05-01T12:05:48Z</time></trkpt><trkpt lat="44.938658437894226" lon="9.040064727677722"><ele>236.00000000000003</ele><time>2026-05-01T12:05:49Z</time></trkpt><trkpt lat="44.93858995561969" lon="9.04014990681264"><ele>236.0</ele><time>2026-05-01T12:05:50Z</time></trkpt><trkpt lat="44.93853260749338" lon="9.04023472787764"><ele>236.0</ele><time>2026-05-01T12:05:51Z</time></trkpt><trkpt lat="44.93847375007931" lon="9.040313462354856"><ele>236.0</ele><time>2026-05-01T12:05:52Z</time></trkpt><trkpt lat="44.938382255710884" lon="9.040347713372787"><ele>236.00000000000003</ele><time>2026-05-01T12:05:53Z</time></trkpt><trkpt lat="44.93828809744821" lon="9.040363299877193"><ele>236.0</ele><time>2026-05-01T12:05:54Z</time></trkpt><trkpt lat="44.938193945248386" lon="9.040395569078756"><ele>237.20000000000002</ele><time>2026-05-01T12:05:55Z</time></trkpt><trkpt lat="44.93811098510442" lon="9.040432205980544"><ele>238.40000000000003</ele><time>2026-05-01T12:05:56Z</time></trkpt><trkpt lat="44.937998236852756" lon="9.040489653465972"><ele>239.6</ele><time>2026-05-01T12:05:57Z</time></trkpt><trkpt lat="44.93789969754626" lon="9.040554018734777"><ele>240.8</ele><time>2026-05-01T12:05:58Z</time></trkpt><trkpt lat="44.93780638934557" lon="9.04062703005275"><ele>242.0</ele><time>2026-05-01T12:05:59Z</time></trkpt><trkpt lat="44.9377191504084" lon="9.040728519779456"><ele>242.0</ele><time>2026-05-01T12:06:00Z</time></trkpt><trkpt lat="44.93761804386035" lon="9.04078389854608"><ele>242.0</ele><time>2026-05-01T12:06:01Z</time></trkpt><trkpt lat="44.937520750053785" lon="9.04085745384685"><ele>242.0</ele><time>2026-05-01T12:06:02Z</time></trkpt><trkpt lat="44.937416098149995" lon="9.040917614819607"><ele>242.0</ele><time>2026-05-01T12:06:03Z</time></trkpt><trkpt lat="44.93730506673297" lon="9.040959489939768"><ele>242.0</ele><time>2026-05-01T12:06:04Z</time></trkpt><trkpt lat="44.93718542014335" lon="9.040983290878437"><ele>244.39999999999998</ele><time>2026-05-01T12:06:05Z</time></trkpt><trkpt lat="44.9370677151735" lon="9.041003250261387"><ele>246.79999999999998</ele><time>2026-05-01T12:06:06Z</time></trkpt><trkpt lat="44.93695349607022" lon="9.041028409244555"><ele>249.2</ele><time>2026-05-01T12:06:07Z</time></trkpt><trkpt lat="44.93685036411327" lon="9.041071069220102"><ele>251.6</ele><time>2026-05-01T12:06:08Z</time></trkpt><trkpt lat="44.93676275285284" lon="9.041124896210611"><ele>254.0</ele><time>2026-05-01T12:06:09.001Z</time></trkpt><trkpt lat="44.93668046205957" lon="9.041149818688417"><ele>255.6</ele><time>2026-05-01T12:06:10.001Z</time></trkpt><trkpt lat="44.93657735058753" lon="9.04105175484582"><ele>257.2</ele><time>2026-05-01T12:06:12.001Z</time></trkpt><trkpt lat="44.936470570687014" lon="9.0410112990135"><ele>258.79999999999995</ele><time>2026-05-01T12:06:14.001Z</time></trkpt><trkpt lat="44.93640862505678" lon="9.041070204950737"><ele>260.4</ele><time>2026-05-01T12:06:16.001Z</time></trkpt><trkpt lat="44.93639890303835" lon="9.041243756682357"><ele>262.0</ele><time>2026-05-01T12:06:19.001Z</time></trkpt><trkpt lat="44.936415805558134" lon="9.041332246977804"><ele>262.0</ele><time>2026-05-01T12:06:20.001Z</time></trkpt><trkpt lat="44.9364202661627" lon="9.041434641088667"><ele>262.0</ele><time>2026-05-01T12:06:21.001Z</time></trkpt><trkpt lat="44.93639696589981" lon="9.041607395777916"><ele>262.0</ele><time>2026-05-01T12:06:23.001Z</time></trkpt><trkpt lat="44.93637971822045" lon="9.04172301121735"><ele>262.0</ele><time>2026-05-01T12:06:24.001Z</time></trkpt><trkpt lat="44.93635859984089" lon="9.041854900598416"><ele>262.0</ele><time>2026-05-01T12:06:25.001Z</time></trkpt><trkpt lat="44.93634072105653" lon="9.041984420957522"><ele>262.6</ele><time>2026-05-01T12:06:26.001Z</time></trkpt><trkpt lat="44.93629285456957" lon="9.04210191948011"><ele>263.2</ele><time>2026-05-01T12:06:27.001Z</time></trkpt><trkpt lat="44.93623418823039" lon="9.042224881309744"><ele>263.8</ele><time>2026-05-01T12:06:28.001Z</time></trkpt><trkpt lat="44.93617565117844" lon="9.042359090035072"><ele>264.4</ele><time>2026-05-01T12:06:29.001Z</time></trkpt><trkpt lat="44.93612023368941" lon="9.042473811848758"><ele>265.0</ele><time>2026-05-01T12:06:30.001Z</time></trkpt><trkpt lat="44.93606659219751" lon="9.042604338731236"><ele>265.2</ele><time>2026-05-01T12:06:31.001Z</time></trkpt><trkpt lat="44.93602438248398" lon="9.042746663759246"><ele>265.4</ele><time>2026-05-01T12:06:32.001Z</time></trkpt><trkpt lat="44.935959402601235" lon="9.042871197673001"><ele>265.6</ele><time>2026-05-01T12:06:33.001Z</time></trkpt><trkpt lat="44.93588221773269" lon="9.042976864470408"><ele>265.8</ele><time>2026-05-01T12:06:34.001Z</time></trkpt><trkpt lat="44.93579653333523" lon="9.043075806075057"><ele>266.0</ele><time>2026-05-01T12:06:35.001Z</time></trkpt><trkpt lat="44.935694896981104" lon="9.043165106154865"><ele>268.25</ele><time>2026-05-01T12:06:36.001Z</time></trkpt><trkpt lat="44.93559379666574" lon="9.043254025837"><ele>270.5</ele><time>2026-05-01T12:06:37.001Z</time></trkpt><trkpt lat="44.93550043931488" lon="9.043342886772946"><ele>272.75</ele><time>2026-05-01T12:06:38.001Z</time></trkpt><trkpt lat="44.935405165081015" lon="9.04343748217166"><ele>275.0</ele><time>2026-05-01T12:06:39.001Z</time></trkpt><trkpt lat="44.93531294786975" lon="9.043540110842457"><ele>275.0</ele><time>2026-05-01T12:06:40.001Z</time></trkpt><trkpt lat="44.93521768838697" lon="9.043631638571286"><ele>275.0</ele><time>2026-05-01T12:06:41.002Z</time></trkpt><trkpt lat="44.93512344833775" lon="9.043732401311544"><ele>275.0</ele><time>2026-05-01T12:06:42.002Z</time></trkpt><trkpt lat="44.93503513608947" lon="9.043827913122442"><ele>275.0</ele><time>2026-05-01T12:06:43.002Z</time></trkpt><trkpt lat="44.93495259857" lon="9.043935353422514"><ele>277.25</ele><time>2026-05-01T12:06:44.002Z</time></trkpt><trkpt lat="44.93487528586275" lon="9.04403562871292"><ele>279.5</ele><time>2026-05-01T12:06:45.002Z</time></trkpt><trkpt lat="44.93480228672668" lon="9.044151333563976"><ele>281.75</ele><time>2026-05-01T12:06:46.002Z</time></trkpt><trkpt lat="44.934730934198825" lon="9.044298796174148"><ele>284.0</ele><time>2026-05-01T12:06:47.002Z</time></trkpt><trkpt lat="44.93467086610402" lon="9.044448263546926"><ele>284.0</ele><time>2026-05-01T12:06:48.002Z</time></trkpt><trkpt lat="44.934598684153826" lon="9.044588854003493"><ele>284.0</ele><time>2026-05-01T12:06:49.002Z</time></trkpt><trkpt lat="44.93452849645319" lon="9.044708789680016"><ele>284.0</ele><time>2026-05-01T12:06:50.002Z</time></trkpt><trkpt lat="44.93445547596603" lon="9.044802310038245"><ele>284.0</ele><time>2026-05-01T12:06:51.002Z</time></trkpt><trkpt lat="44.93438039257987" lon="9.044879143303772"><ele>284.0</ele><time>2026-05-01T12:06:52.002Z</time></trkpt><trkpt lat="44.93429017288514" lon="9.044950705952393"><ele>284.4</ele><time>2026-05-01T12:06:53.002Z</time></trkpt><trkpt lat="44.934191082912506" lon="9.044995741483687"><ele>284.79999999999995</ele><time>2026-05-01T12:06:54.002Z</time></trkpt><trkpt lat="44.93408842083318" lon="9.045039593444915"><ele>285.20000000000005</ele><time>2026-05-01T12:06:55.002Z</time></trkpt><trkpt lat="44.933990338650496" lon="9.045084557920198"><ele>285.6</ele><time>2026-05-01T12:06:56.002Z</time></trkpt><trkpt lat="44.93390951933306" lon="9.045123768178074"><ele>286.0</ele><time>2026-05-01T12:06:57.002Z</time></trkpt><trkpt lat="44.933845158149616" lon="9.045155545639703"><ele>286.0</ele><time>2026-05-01T12:06:58.002Z</time></trkpt><trkpt lat="44.93374859963982" lon="9.045208590110464"><ele>286.0</ele><time>2026-05-01T12:06:59.995Z</time></trkpt><trkpt lat="44.933653780528765" lon="9.045226654508054"><ele>286.0</ele><time>2026-05-01T12:07:02.995Z</time></trkpt><trkpt lat="44.93353166577972" lon="9.045202815873829"><ele>286.0</ele><time>2026-05-01T12:07:04.996Z</time></trkpt><trkpt lat="44.93345361696041" lon="9.04518557503551"><ele>286.0</ele><time>2026-05-01T12:07:05.996Z</time></trkpt><trkpt lat="44.93338081193305" lon="9.045170489983285"><ele>288.8333333333333</ele><time>2026-05-01T12:07:06.996Z</time></trkpt><trkpt lat="44.933299782804646" lon="9.045166828391952"><ele>291.66666666666663</ele><time>2026-05-01T12:07:07.997Z</time></trkpt><trkpt lat="44.93321494178059" lon="9.045167826437956"><ele>294.5</ele><time>2026-05-01T12:07:08.997Z</time></trkpt><trkpt lat="44.93312868523139" lon="9.045176148035374"><ele>297.3333333333333</ele><time>2026-05-01T12:07:09.997Z</time></trkpt><trkpt lat="44.93303806432783" lon="9.045201849128265"><ele>300.1666666666667</ele><time>2026-05-01T12:07:10.997Z</time></trkpt><trkpt lat="44.93295138846882" lon="9.045215125731307"><ele>303.0</ele><time>2026-05-01T12:07:11.997Z</time></trkpt><trkpt lat="44.93286220738849" lon="9.045241570668422"><ele>303.0</ele><time>2026-05-01T12:07:12.997Z</time></trkpt><trkpt lat="44.9327865858867" lon="9.045251556533897"><ele>303.0</ele><time>2026-05-01T12:07:13.997Z</time></trkpt><trkpt lat="44.93270041911186" lon="9.045258798737002"><ele>303.0</ele><time>2026-05-01T12:07:14.997Z</time></trkpt><trkpt lat="44.93257342957657" lon="9.04526519229917"><ele>303.0</ele><time>2026-05-01T12:07:16.997Z</time></trkpt><trkpt lat="44.93248259361507" lon="9.045251612207894"><ele>303.0</ele><time>2026-05-01T12:07:18.998Z</time></trkpt><trkpt lat="44.93239396126801" lon="9.045183829915667"><ele>305.3333333333333</ele><time>2026-05-01T12:07:20.998Z</time></trkpt><trkpt lat="44.932296781990814" lon="9.045131738253053"><ele>307.6666666666667</ele><time>2026-05-01T12:07:22.998Z</time></trkpt><trkpt lat="44.93222656325947" lon="9.0450960851403"><ele>310.0</ele><time>2026-05-01T12:07:23.998Z</time></trkpt><trkpt lat="44.932148166190984" lon="9.045084260406524"><ele>312.33333333333337</ele><time>2026-05-01T12:07:24.998Z</time></trkpt><trkpt lat="44.93208525195864" lon="9.045059625309989"><ele>314.6666666666667</ele><time>2026-05-01T12:07:25.998Z</time></trkpt><trkpt lat="44.93202165936954" lon="9.045019837120597"><ele>317.0</ele><time>2026-05-01T12:07:26.998Z</time></trkpt><trkpt lat="44.93194356876899" lon="9.045015622526362"><ele>317.0</ele><time>2026-05-01T12:07:27.998Z</time></trkpt><trkpt lat="44.9318618573322" lon="9.045028333295418"><ele>317.0</ele><time>2026-05-01T12:07:28.998Z</time></trkpt><trkpt lat="44.931775715368595" lon="9.045058175987048"><ele>317.0</ele><time>2026-05-01T12:07:29.998Z</time></trkpt><trkpt lat="44.93169530499465" lon="9.045094205325114"><ele>317.0</ele><time>2026-05-01T12:07:30.998Z</time></trkpt><trkpt lat="44.931622100503745" lon="9.045131519300359"><ele>317.0</ele><time>2026-05-01T12:07:31.998Z</time></trkpt><trkpt lat="44.93154382404461" lon="9.045179640754814"><ele>317.0</ele><time>2026-05-01T12:07:32.998Z</time></trkpt><trkpt lat="44.93147855357311" lon="9.045243391461165"><ele>316.33333333333337</ele><time>2026-05-01T12:07:33.998Z</time></trkpt><trkpt lat="44.93140604175446" lon="9.045285293550133"><ele>315.6666666666667</ele><time>2026-05-01T12:07:34.998Z</time></trkpt><trkpt lat="44.9313423171836" lon="9.045334449314073"><ele>315.0</ele><time>2026-05-01T12:07:35.998Z</time></trkpt><trkpt lat="44.93124311425516" lon="9.045398782972127"><ele>314.3333333333333</ele><time>2026-05-01T12:07:37.998Z</time></trkpt><trkpt lat="44.93115648277941" lon="9.045454010757867"><ele>313.66666666666663</ele><time>2026-05-01T12:07:39.998Z</time></trkpt><trkpt lat="44.931066888251046" lon="9.045451664794676"><ele>313.0</ele><time>2026-05-01T12:07:41.998Z</time></trkpt><trkpt lat="44.9310113118069" lon="9.045314228452312"><ele>313.0</ele><time>2026-05-01T12:07:43.998Z</time></trkpt><trkpt lat="44.930969004743375" lon="9.045226573522376"><ele>313.0</ele><time>2026-05-01T12:07:44.998Z</time></trkpt><trkpt lat="44.93090359741077" lon="9.045120388642324"><ele>313.0</ele><time>2026-05-01T12:07:45.998Z</time></trkpt><trkpt lat="44.93086655194822" lon="9.045018114145623"><ele>313.0</ele><time>2026-05-01T12:07:46.998Z</time></trkpt><trkpt lat="44.930813028549274" lon="9.044872953990106"><ele>313.0</ele><time>2026-05-01T12:07:48.999Z</time></trkpt><trkpt lat="44.93076411574794" lon="9.044806641188076"><ele>313.0</ele><time>2026-05-01T12:07:49.999Z</time></trkpt><trkpt lat="44.93072628516713" lon="9.044688173146001"><ele>313.2</ele><time>2026-05-01T12:07:50.999Z</time></trkpt><trkpt lat="44.93066097359482" lon="9.04459157673399"><ele>313.4</ele><time>2026-05-01T12:07:51.999Z</time></trkpt><trkpt lat="44.93062038239673" lon="9.044469458114817"><ele>313.59999999999997</ele><time>2026-05-01T12:07:52.999Z</time></trkpt><trkpt lat="44.930552681389926" lon="9.044365845847535"><ele>313.8</ele><time>2026-05-01T12:07:53.999Z</time></trkpt><trkpt lat="44.930484714672126" lon="9.044242000447952"><ele>314.0</ele><time>2026-05-01T12:07:54.999Z</time></trkpt><trkpt lat="44.93042096066055" lon="9.044130133550341"><ele>313.83333333333337</ele><time>2026-05-01T12:07:55.999Z</time></trkpt><trkpt lat="44.93035563763257" lon="9.04402159715269"><ele>313.6666666666667</ele><time>2026-05-01T12:07:56.999Z</time></trkpt><trkpt lat="44.93028771114292" lon="9.043920409890651"><ele>313.5</ele><time>2026-05-01T12:07:57.999Z</time></trkpt><trkpt lat="44.93023434644797" lon="9.043835416615389"><ele>313.3333333333333</ele><time>2026-05-01T12:07:58.999Z</time></trkpt><trkpt lat="44.93018236145759" lon="9.043753391980568"><ele>313.16666666666663</ele><time>2026-05-01T12:07:59.999Z</time></trkpt><trkpt lat="44.93012621386172" lon="9.043671249089908"><ele>313.0</ele><time>2026-05-01T12:08:00.999Z</time></trkpt><trkpt lat="44.930051235342745" lon="9.043590911391338"><ele>313.66666666666663</ele><time>2026-05-01T12:08:01.999Z</time></trkpt><trkpt lat="44.92997369376173" lon="9.043520277834956"><ele>314.3333333333333</ele><time>2026-05-01T12:08:02.999Z</time></trkpt><trkpt lat="44.92989661553452" lon="9.043455483261642"><ele>315.0</ele><time>2026-05-01T12:08:03.999Z</time></trkpt><trkpt lat="44.92981886880316" lon="9.043402753523496"><ele>315.6666666666667</ele><time>2026-05-01T12:08:04.999Z</time></trkpt><trkpt lat="44.929745562851714" lon="9.043359122684004"><ele>316.33333333333337</ele><time>2026-05-01T12:08:05.999Z</time></trkpt><trkpt lat="44.929678250723924" lon="9.043322916941674"><ele>317.0</ele><time>2026-05-01T12:08:06.999Z</time></trkpt><trkpt lat="44.92956041141245" lon="9.04328840846568"><ele>317.0</ele><time>2026-05-01T12:08:08.999Z</time></trkpt><trkpt lat="44.92949434920023" lon="9.043293772722734"><ele>317.0</ele><time>2026-05-01T12:08:09.999Z</time></trkpt><trkpt lat="44.929429587251875" lon="9.04332072257727"><ele>317.0</ele><time>2026-05-01T12:08:10.999Z</time></trkpt><trkpt lat="44.92937034756794" lon="9.043364113607762"><ele>317.0</ele><time>2026-05-01T12:08:11.999Z</time></trkpt><trkpt lat="44.92932071635603" lon="9.043453041829453"><ele>317.0</ele><time>2026-05-01T12:08:12.999Z</time></trkpt><trkpt lat="44.92927859702327" lon="9.04355782645957"><ele>317.0</ele><time>2026-05-01T12:08:13.999Z</time></trkpt><trkpt lat="44.929224739975496" lon="9.043635425588551"><ele>317.0</ele><time>2026-05-01T12:08:14.999Z</time></trkpt><trkpt lat="44.92918551352757" lon="9.043731405093734"><ele>318.5</ele><time>2026-05-01T12:08:15.999Z</time></trkpt><trkpt lat="44.92915617137377" lon="9.043817858339956"><ele>320.0</ele><time>2026-05-01T12:08:16.999Z</time></trkpt><trkpt lat="44.92913834870724" lon="9.043908911498795"><ele>321.5</ele><time>2026-05-01T12:08:17.999Z</time></trkpt><trkpt lat="44.92913747327712" lon="9.04400073184863"><ele>323.0</ele><time>2026-05-01T12:08:18.999Z</time></trkpt><trkpt lat="44.929143911918075" lon="9.044102490144704"><ele>324.5</ele><time>2026-05-01T12:08:19.999Z</time></trkpt><trkpt lat="44.92906945548637" lon="9.044243143996471"><ele>326.0</ele><time>2026-05-01T12:08:22Z</time></trkpt><trkpt lat="44.92898302392484" lon="9.044396432195818"><ele>327.14285714285717</ele><time>2026-05-01T12:08:24Z</time></trkpt><trkpt lat="44.92893916350536" lon="9.044469262574532"><ele>328.2857142857143</ele><time>2026-05-01T12:08:25Z</time></trkpt><trkpt lat="44.92889505487972" lon="9.044543104964838"><ele>329.42857142857144</ele><time>2026-05-01T12:08:26Z</time></trkpt><trkpt lat="44.92885624601896" lon="9.044614293948946"><ele>330.57142857142856</ele><time>2026-05-01T12:08:27Z</time></trkpt><trkpt lat="44.92883374047188" lon="9.044698218356823"><ele>331.7142857142857</ele><time>2026-05-01T12:08:28Z</time></trkpt><trkpt lat="44.928755172470375" lon="9.044765788459223"><ele>332.85714285714283</ele><time>2026-05-01T12:08:30Z</time></trkpt><trkpt lat="44.928695725414805" lon="9.044821015960219"><ele>334.0</ele><time>2026-05-01T12:08:32Z</time></trkpt><trkpt lat="44.92862430433821" lon="9.044869174212623"><ele>334.0</ele><time>2026-05-01T12:08:34Z</time></trkpt><trkpt lat="44.92854347592568" lon="9.044947817652368"><ele>334.0</ele><time>2026-05-01T12:08:36Z</time></trkpt><trkpt lat="44.92844204603059" lon="9.045015744292389"><ele>334.0</ele><time>2026-05-01T12:08:38Z</time></trkpt><trkpt lat="44.92836061155073" lon="9.045089907742904"><ele>334.0</ele><time>2026-05-01T12:08:40Z</time></trkpt><trkpt lat="44.928275673359316" lon="9.0451704279915"><ele>334.0</ele><time>2026-05-01T12:08:42Z</time></trkpt><trkpt lat="44.92819443271161" lon="9.045247442092663"><ele>332.79999999999995</ele><time>2026-05-01T12:08:44Z</time></trkpt><trkpt lat="44.928095695137195" lon="9.045341042838"><ele>331.59999999999997</ele><time>2026-05-01T12:08:46Z</time></trkpt><trkpt lat="44.92813306581071" lon="9.045562849134129"><ele>330.4</ele><time>2026-05-01T12:08:47Z</time></trkpt><trkpt lat="44.928080171016525" lon="9.04561215397829"><ele>329.2</ele><time>2026-05-01T12:08:48Z</time></trkpt><trkpt lat="44.92802988582622" lon="9.045672075651723"><ele>328.0</ele><time>2026-05-01T12:08:49Z</time></trkpt><trkpt lat="44.927980478935204" lon="9.045736777575263"><ele>330.0</ele><time>2026-05-01T12:08:50Z</time></trkpt><trkpt lat="44.927934516900365" lon="9.04580347273876"><ele>332.0</ele><time>2026-05-01T12:08:51Z</time></trkpt><trkpt lat="44.927841454515345" lon="9.045912278452768"><ele>334.0</ele><time>2026-05-01T12:08:53Z</time></trkpt><trkpt lat="44.927757402904746" lon="9.046032354620268"><ele>336.0</ele><time>2026-05-01T12:08:55.001Z</time></trkpt><trkpt lat="44.9276938087162" lon="9.046109298787721"><ele>338.0</ele><time>2026-05-01T12:08:57.001Z</time></trkpt><trkpt lat="44.92763513606306" lon="9.046174312609612"><ele>338.0</ele><time>2026-05-01T12:08:59.001Z</time></trkpt><trkpt lat="44.92759718705795" lon="9.046289327533392"><ele>338.0</ele><time>2026-05-01T12:09:01.001Z</time></trkpt><trkpt lat="44.92755358979068" lon="9.046428146845615"><ele>338.0</ele><time>2026-05-01T12:09:03.001Z</time></trkpt><trkpt lat="44.92749856779878" lon="9.046569577737678"><ele>338.0</ele><time>2026-05-01T12:09:04.993Z</time></trkpt><trkpt lat="44.92744638962297" lon="9.04669561393881"><ele>338.0</ele><time>2026-05-01T12:09:06.994Z</time></trkpt><trkpt lat="44.92739666158056" lon="9.046810462070187"><ele>336.6666666666667</ele><time>2026-05-01T12:09:08.995Z</time></trkpt><trkpt lat="44.92733975606649" lon="9.046918090519668"><ele>335.33333333333337</ele><time>2026-05-01T12:09:10.995Z</time></trkpt><trkpt lat="44.92727411679377" lon="9.047001086858259"><ele>334.0</ele><time>2026-05-01T12:09:12.996Z</time></trkpt><trkpt lat="44.927194494711564" lon="9.047071260289334"><ele>332.6666666666667</ele><time>2026-05-01T12:09:14.996Z</time></trkpt><trkpt lat="44.92711254098881" lon="9.047088654826567"><ele>331.3333333333333</ele><time>2026-05-01T12:09:16.997Z</time></trkpt><trkpt lat="44.92704967892695" lon="9.047097189719254"><ele>330.0</ele><time>2026-05-01T12:09:17.997Z</time></trkpt><trkpt lat="44.92697756204407" lon="9.047088921622667"><ele>330.0</ele><time>2026-05-01T12:09:19.997Z</time></trkpt><trkpt lat="44.926880494390915" lon="9.047039075793588"><ele>330.0</ele><time>2026-05-01T12:09:21.998Z</time></trkpt><trkpt lat="44.926758897996486" lon="9.047009450538619"><ele>330.0</ele><time>2026-05-01T12:09:23.998Z</time></trkpt><trkpt lat="44.926689649893" lon="9.046992368522353"><ele>330.0</ele><time>2026-05-01T12:09:24.998Z</time></trkpt><trkpt lat="44.926594372935654" lon="9.046982830437376"><ele>330.0</ele><time>2026-05-01T12:09:26.998Z</time></trkpt><trkpt lat="44.926516588763306" lon="9.046965926687667"><ele>328.8333333333333</ele><time>2026-05-01T12:09:28.999Z</time></trkpt><trkpt lat="44.92645753770049" lon="9.046894901818204"><ele>327.6666666666667</ele><time>2026-05-01T12:09:30.999Z</time></trkpt><trkpt lat="44.92637896203286" lon="9.046801632552192"><ele>326.5</ele><time>2026-05-01T12:09:32.999Z</time></trkpt><trkpt lat="44.926305769724095" lon="9.046759524812504"><ele>325.33333333333337</ele><time>2026-05-01T12:09:34.999Z</time></trkpt><trkpt lat="44.92622851810663" lon="9.046708066241537"><ele>324.1666666666667</ele><time>2026-05-01T12:09:37Z</time></trkpt><trkpt lat="44.92614570766267" lon="9.046682847937312"><ele>323.0</ele><time>2026-05-01T12:09:38Z</time></trkpt><trkpt lat="44.92604402760693" lon="9.04659148518401"><ele>324.1666666666667</ele><time>2026-05-01T12:09:40Z</time></trkpt><trkpt lat="44.92598079117273" lon="9.046538340870914"><ele>325.33333333333337</ele><time>2026-05-01T12:09:41Z</time></trkpt><trkpt lat="44.92587941573949" lon="9.046462621921908"><ele>326.5</ele><time>2026-05-01T12:09:43Z</time></trkpt><trkpt lat="44.9258128367802" lon="9.046440866499884"><ele>327.6666666666667</ele><time>2026-05-01T12:09:45Z</time></trkpt><trkpt lat="44.92576735322643" lon="9.046375078547925"><ele>328.8333333333333</ele><time>2026-05-01T12:11:50.001Z</time></trkpt><trkpt lat="44.92584659418351" lon="9.046402681907143"><ele>330.0</ele><time>2026-05-01T12:12:09.001Z</time></trkpt><trkpt lat="44.925906063383735" lon="9.046463078228664"><ele>328.8333333333333</ele><time>2026-05-01T12:12:11.001Z</time></trkpt><trkpt lat="44.92598773914993" lon="9.046477696001812"><ele>327.6666666666667</ele><time>2026-05-01T12:12:14.002Z</time></trkpt><trkpt lat="44.92602951009867" lon="9.046550007783818"><ele>326.5</ele><time>2026-05-01T12:12:17.002Z</time></trkpt><trkpt lat="44.926115226832756" lon="9.04659741084739"><ele>325.33333333333337</ele><time>2026-05-01T12:12:20.002Z</time></trkpt><trkpt lat="44.92620458986137" lon="9.046639592101087"><ele>324.1666666666667</ele><time>2026-05-01T12:12:22.002Z</time></trkpt><trkpt lat="44.92627659616301" lon="9.046705309769735"><ele>323.0</ele><time>2026-05-01T12:12:24.002Z</time></trkpt><trkpt lat="44.926346818052785" lon="9.046769405760491"><ele>323.0</ele><time>2026-05-01T12:12:26.002Z</time></trkpt><trkpt lat="44.9263925913241" lon="9.046831750974956"><ele>323.0</ele><time>2026-05-01T12:12:28.002Z</time></trkpt><trkpt lat="44.92645162032433" lon="9.04688805834567"><ele>323.0</ele><time>2026-05-01T12:12:30.002Z</time></trkpt><trkpt lat="44.926537785764324" lon="9.046900657474609"><ele>323.0</ele><time>2026-05-01T12:12:33.002Z</time></trkpt><trkpt lat="44.926616659956444" lon="9.046922269761902"><ele>323.0</ele><time>2026-05-01T12:12:35.002Z</time></trkpt><trkpt lat="44.92674715568303" lon="9.046960684602244"><ele>323.0</ele><time>2026-05-01T12:12:57.003Z</time></trkpt><trkpt lat="44.926833136832364" lon="9.046978152801062"><ele>324.1666666666667</ele><time>2026-05-01T12:13:00.003Z</time></trkpt><trkpt lat="44.926896522761446" lon="9.046996165024973"><ele>325.33333333333337</ele><time>2026-05-01T12:13:02.003Z</time></trkpt><trkpt lat="44.926961605165395" lon="9.047041761584849"><ele>326.5</ele><time>2026-05-01T12:13:05.003Z</time></trkpt><trkpt lat="44.92703200770422" lon="9.0470647919509"><ele>327.6666666666667</ele><time>2026-05-01T12:13:23Z</time></trkpt><trkpt lat="44.92713895175169" lon="9.047041625210243"><ele>328.8333333333333</ele><time>2026-05-01T12:13:26Z</time></trkpt><trkpt lat="44.92721059359248" lon="9.047032371065812"><ele>330.0</ele><time>2026-05-01T12:13:28Z</time></trkpt><trkpt lat="44.9273014336048" lon="9.04691399137647"><ele>330.0</ele><time>2026-05-01T12:13:30Z</time></trkpt><trkpt lat="44.927349041652036" lon="9.046851599792365"><ele>330.0</ele><time>2026-05-01T12:13:31Z</time></trkpt><trkpt lat="44.927393511879" lon="9.046754281884246"><ele>330.0</ele><time>2026-05-01T12:13:33Z</time></trkpt><trkpt lat="44.92743394554983" lon="9.046658493095773"><ele>330.0</ele><time>2026-05-01T12:13:35Z</time></trkpt><trkpt lat="44.92748871884485" lon="9.04657010824246"><ele>330.0</ele><time>2026-05-01T12:13:37Z</time></trkpt><trkpt lat="44.92752534272334" lon="9.04645336666622"><ele>330.0</ele><time>2026-05-01T12:13:39Z</time></trkpt><trkpt lat="44.92756645459979" lon="9.046335773984568"><ele>329.6666666666667</ele><time>2026-05-01T12:13:41Z</time></trkpt><trkpt lat="44.92759553309969" lon="9.046224122120414"><ele>329.3333333333333</ele><time>2026-05-01T12:13:43Z</time></trkpt><trkpt lat="44.927621876691624" lon="9.046135430107217"><ele>329.0</ele><time>2026-05-01T12:13:45Z</time></trkpt><trkpt lat="44.92768509300127" lon="9.046069809961464"><ele>328.66666666666663</ele><time>2026-05-01T12:13:48.001Z</time></trkpt><trkpt lat="44.927761704708146" lon="9.045980730856622"><ele>328.3333333333333</ele><time>2026-05-01T12:13:57.001Z</time></trkpt><trkpt lat="44.927844310821946" lon="9.045877924323488"><ele>328.0</ele><time>2026-05-01T12:13:59.001Z</time></trkpt><trkpt lat="44.927943384858516" lon="9.045767897554907"><ele>328.0</ele><time>2026-05-01T12:14:01.001Z</time></trkpt><trkpt lat="44.9279934406777" lon="9.04570398762851"><ele>328.0</ele><time>2026-05-01T12:14:02.001Z</time></trkpt><trkpt lat="44.928082955700596" lon="9.045599697668411"><ele>328.0</ele><time>2026-05-01T12:14:04.001Z</time></trkpt><trkpt lat="44.92816409070772" lon="9.04550468547646"><ele>328.0</ele><time>2026-05-01T12:14:06.001Z</time></trkpt><trkpt lat="44.92823029356888" lon="9.045401349761237"><ele>328.0</ele><time>2026-05-01T12:14:08.001Z</time></trkpt><trkpt lat="44.928263073443794" lon="9.045238874851321"><ele>328.0</ele><time>2026-05-01T12:14:10.001Z</time></trkpt><trkpt lat="44.92832874310033" lon="9.04517662219393"><ele>328.0</ele><time>2026-05-01T12:14:12.001Z</time></trkpt><trkpt lat="44.92838168972898" lon="9.045109435159453"><ele>328.0</ele><time>2026-05-01T12:14:14.001Z</time></trkpt><trkpt lat="44.928448559777635" lon="9.045065300621333"><ele>328.0</ele><time>2026-05-01T12:14:16.001Z</time></trkpt><trkpt lat="44.9285055341032" lon="9.04502119692733"><ele>328.0</ele><time>2026-05-01T12:16:08.001Z</time></trkpt><trkpt lat="44.92857054446217" lon="9.044979778761721"><ele>328.0</ele><time>2026-05-01T12:16:10.001Z</time></trkpt><trkpt lat="44.92866805423416" lon="9.044883937121773"><ele>329.2</ele><time>2026-05-01T12:16:12.001Z</time></trkpt><trkpt lat="44.928763391931504" lon="9.04482583530854"><ele>330.4</ele><time>2026-05-01T12:16:14.001Z</time></trkpt><trkpt lat="44.9288300622776" lon="9.044760107613033"><ele>331.59999999999997</ele><time>2026-05-01T12:16:16.001Z</time></trkpt><trkpt lat="44.92888700889033" lon="9.044655465038275"><ele>332.79999999999995</ele><time>2026-05-01T12:16:18.001Z</time></trkpt><trkpt lat="44.928955640513955" lon="9.044515218213972"><ele>334.0</ele><time>2026-05-01T12:16:20.001Z</time></trkpt><trkpt lat="44.929016997314754" lon="9.044397743860461"><ele>334.0</ele><time>2026-05-01T12:16:22.001Z</time></trkpt><trkpt lat="44.92908350219564" lon="9.044287735629458"><ele>334.0</ele><time>2026-05-01T12:16:24.001Z</time></trkpt><trkpt lat="44.92914280415406" lon="9.04417500351977"><ele>334.0</ele><time>2026-05-01T12:16:26.001Z</time></trkpt><trkpt lat="44.929170301732825" lon="9.044042230647293"><ele>334.0</ele><time>2026-05-01T12:16:28.001Z</time></trkpt><trkpt lat="44.92917192095529" lon="9.043937148880833"><ele>334.0</ele><time>2026-05-01T12:16:30.001Z</time></trkpt><trkpt lat="44.92919499841967" lon="9.043807712555086"><ele>332.2</ele><time>2026-05-01T12:16:32.001Z</time></trkpt><trkpt lat="44.92924919555752" lon="9.043652571255654"><ele>330.4</ele><time>2026-05-01T12:16:34.001Z</time></trkpt><trkpt lat="44.92929077418466" lon="9.043570135274646"><ele>328.6</ele><time>2026-05-01T12:16:35.002Z</time></trkpt><trkpt lat="44.92933702924856" lon="9.043486290391252"><ele>326.8</ele><time>2026-05-01T12:16:36.002Z</time></trkpt><trkpt lat="44.92939933005915" lon="9.043383201031384"><ele>325.0</ele><time>2026-05-01T12:16:38.002Z</time></trkpt><trkpt lat="44.92948389855473" lon="9.043349658171955"><ele>325.0</ele><time>2026-05-01T12:16:40.002Z</time></trkpt><trkpt lat="44.92956670522694" lon="9.043342395609635"><ele>325.0</ele><time>2026-05-01T12:16:42.002Z</time></trkpt><trkpt lat="44.929654360904266" lon="9.043356864795886"><ele>325.0</ele><time>2026-05-01T12:16:44.002Z</time></trkpt><trkpt lat="44.929756667961705" lon="9.04340278005955"><ele>325.0</ele><time>2026-05-01T12:16:46.002Z</time></trkpt><trkpt lat="44.9298201224969" lon="9.043422205369009"><ele>325.0</ele><time>2026-05-01T12:16:47.002Z</time></trkpt><trkpt lat="44.92988029084886" lon="9.043464799872623"><ele>325.0</ele><time>2026-05-01T12:16:48.002Z</time></trkpt><trkpt lat="44.92996505835638" lon="9.043561646874231"><ele>325.0</ele><time>2026-05-01T12:16:50.002Z</time></trkpt><trkpt lat="44.93004452212949" lon="9.043635786492862"><ele>325.0</ele><time>2026-05-01T12:16:52.002Z</time></trkpt><trkpt lat="44.93009613386626" lon="9.043692270743584"><ele>325.0</ele><time>2026-05-01T12:16:54.002Z</time></trkpt><trkpt lat="44.93015564934845" lon="9.043755494726478"><ele>325.0</ele><time>2026-05-01T12:17:35.998Z</time></trkpt><trkpt lat="44.93018962134744" lon="9.04384780775433"><ele>325.0</ele><time>2026-05-01T12:17:38.998Z</time></trkpt><trkpt lat="44.93014918441708" lon="9.043762737684073"><ele>325.0</ele><time>2026-05-01T12:17:48.999Z</time></trkpt><trkpt lat="44.930096600464005" lon="9.043692848664026"><ele>319.0</ele><time>2026-05-01T12:17:51.999Z</time></trkpt><trkpt lat="44.93022350751138" lon="9.043240799373898"><ele>313.0</ele><time>2026-05-01T12:17:56Z</time></trkpt><trkpt lat="44.93026117941336" lon="9.04308331825743"><ele>313.0</ele><time>2026-05-01T12:17:58Z</time></trkpt><trkpt lat="44.93028155155978" lon="9.04299131743132"><ele>313.0</ele><time>2026-05-01T12:17:59Z</time></trkpt><trkpt lat="44.93030069174388" lon="9.042898389699538"><ele>313.0</ele><time>2026-05-01T12:18:00Z</time></trkpt><trkpt lat="44.930337072327674" lon="9.042753219862476"><ele>313.0</ele><time>2026-05-01T12:18:02Z</time></trkpt><trkpt lat="44.930367963753014" lon="9.042576333628235"><ele>313.0</ele><time>2026-05-01T12:18:04Z</time></trkpt><trkpt lat="44.930393345822765" lon="9.042458755367447"><ele>313.0</ele><time>2026-05-01T12:18:05Z</time></trkpt><trkpt lat="44.930424351014885" lon="9.042332173199162"><ele>313.0</ele><time>2026-05-01T12:18:06Z</time></trkpt><trkpt lat="44.930455647562766" lon="9.042204632089497"><ele>313.0</ele><time>2026-05-01T12:18:07Z</time></trkpt><trkpt lat="44.93048207907908" lon="9.042081368585583"><ele>313.0</ele><time>2026-05-01T12:18:08Z</time></trkpt><trkpt lat="44.93051046813052" lon="9.041960110648306"><ele>313.0</ele><time>2026-05-01T12:18:09Z</time></trkpt><trkpt lat="44.93053715670718" lon="9.041844147104037"><ele>313.0</ele><time>2026-05-01T12:18:10.001Z</time></trkpt><trkpt lat="44.930562032077205" lon="9.041744009135554"><ele>313.0</ele><time>2026-05-01T12:18:11.001Z</time></trkpt><trkpt lat="44.930583944400816" lon="9.041653339958684"><ele>313.0</ele><time>2026-05-01T12:18:12.001Z</time></trkpt><trkpt lat="44.93060936718877" lon="9.041545461948282"><ele>313.0</ele><time>2026-05-01T12:18:13.001Z</time></trkpt><trkpt lat="44.93063446157033" lon="9.041431196916564"><ele>313.0</ele><time>2026-05-01T12:18:14.001Z</time></trkpt><trkpt lat="44.93065987806963" lon="9.041319495974719"><ele>313.0</ele><time>2026-05-01T12:18:15.001Z</time></trkpt><trkpt lat="44.930687533752966" lon="9.041211857503605"><ele>312.42857142857144</ele><time>2026-05-01T12:18:16.001Z</time></trkpt><trkpt lat="44.93071633591675" lon="9.041111587534697"><ele>311.8571428571429</ele><time>2026-05-01T12:18:17.001Z</time></trkpt><trkpt lat="44.93074044820676" lon="9.041001704515203"><ele>311.28571428571433</ele><time>2026-05-01T12:18:18.001Z</time></trkpt><trkpt lat="44.93076454069956" lon="9.040896643683299"><ele>310.7142857142857</ele><time>2026-05-01T12:18:19.001Z</time></trkpt><trkpt lat="44.930782296431126" lon="9.040806536118527"><ele>310.14285714285717</ele><time>2026-05-01T12:18:20.001Z</time></trkpt><trkpt lat="44.930800821773566" lon="9.040715339840782"><ele>309.5714285714286</ele><time>2026-05-01T12:18:21.001Z</time></trkpt><trkpt lat="44.930817151496356" lon="9.04062132520181"><ele>309.0</ele><time>2026-05-01T12:18:22.001Z</time></trkpt><trkpt lat="44.930837478870124" lon="9.040518901640725"><ele>307.8333333333333</ele><time>2026-05-01T12:18:23.001Z</time></trkpt><trkpt lat="44.93086308758661" lon="9.040400198267196"><ele>306.6666666666667</ele><time>2026-05-01T12:18:24.001Z</time></trkpt><trkpt lat="44.93088850346304" lon="9.04028400271409"><ele>305.5</ele><time>2026-05-01T12:18:25.001Z</time></trkpt><trkpt lat="44.930914322940446" lon="9.040171685638596"><ele>304.33333333333337</ele><time>2026-05-01T12:18:26.001Z</time></trkpt><trkpt lat="44.930934604258525" lon="9.040068226651375"><ele>303.1666666666667</ele><time>2026-05-01T12:18:27.001Z</time></trkpt><trkpt lat="44.93095971422698" lon="9.03995568823155"><ele>302.0</ele><time>2026-05-01T12:18:28.001Z</time></trkpt><trkpt lat="44.93098281463439" lon="9.039858092869652"><ele>300.28571428571433</ele><time>2026-05-01T12:18:29.001Z</time></trkpt><trkpt lat="44.93100481823206" lon="9.03976068883942"><ele>298.57142857142856</ele><time>2026-05-01T12:18:30.001Z</time></trkpt><trkpt lat="44.9310243038721" lon="9.039659570101186"><ele>296.8571428571429</ele><time>2026-05-01T12:18:31.001Z</time></trkpt><trkpt lat="44.93104668085081" lon="9.039562881897282"><ele>295.14285714285717</ele><time>2026-05-01T12:18:32.001Z</time></trkpt><trkpt lat="44.931068384008746" lon="9.039460467839886"><ele>293.42857142857144</ele><time>2026-05-01T12:18:33.001Z</time></trkpt><trkpt lat="44.93109073740862" lon="9.039362483906658"><ele>291.7142857142857</ele><time>2026-05-01T12:18:34.001Z</time></trkpt><trkpt lat="44.93111463817174" lon="9.039266848251353"><ele>290.0</ele><time>2026-05-01T12:18:35.001Z</time></trkpt><trkpt lat="44.93113511121035" lon="9.039169210827364"><ele>289.1666666666667</ele><time>2026-05-01T12:18:36.001Z</time></trkpt><trkpt lat="44.93115482663906" lon="9.039081294239864"><ele>288.33333333333337</ele><time>2026-05-01T12:18:37.002Z</time></trkpt><trkpt lat="44.931175484004974" lon="9.03899464568138"><ele>287.5</ele><time>2026-05-01T12:18:38.002Z</time></trkpt><trkpt lat="44.931206863908876" lon="9.038856156006293"><ele>286.6666666666667</ele><time>2026-05-01T12:18:40.002Z</time></trkpt><trkpt lat="44.93122744128123" lon="9.038753049690339"><ele>285.8333333333333</ele><time>2026-05-01T12:18:43.002Z</time></trkpt><trkpt lat="44.93126286233319" lon="9.038627293885265"><ele>285.0</ele><time>2026-05-01T12:18:46.002Z</time></trkpt><trkpt lat="44.93127581218978" lon="9.038537779192879"><ele>285.0</ele><time>2026-05-01T12:18:49.002Z</time></trkpt><trkpt lat="44.93125620201159" lon="9.038649415379382"><ele>285.0</ele><time>2026-05-01T12:19:20.003Z</time></trkpt><trkpt lat="44.93122891567514" lon="9.038748231446387"><ele>285.0</ele><time>2026-05-01T12:19:22.003Z</time></trkpt><trkpt lat="44.93117390680698" lon="9.038832203653413"><ele>285.0</ele><time>2026-05-01T12:19:25.003Z</time></trkpt><trkpt lat="44.93117077416862" lon="9.038948697720633"><ele>285.0</ele><time>2026-05-01T12:19:39.998Z</time></trkpt><trkpt lat="44.93116335749694" lon="9.039099043243636"><ele>285.0</ele><time>2026-05-01T12:19:41.998Z</time></trkpt><trkpt lat="44.93113267943864" lon="9.039203590714129"><ele>286.0</ele><time>2026-05-01T12:19:42.998Z</time></trkpt><trkpt lat="44.931101694146356" lon="9.039341223906058"><ele>287.0</ele><time>2026-05-01T12:19:43.998Z</time></trkpt><trkpt lat="44.93107606157721" lon="9.039449393840538"><ele>288.0</ele><time>2026-05-01T12:19:44.998Z</time></trkpt><trkpt lat="44.931053264567154" lon="9.03955660045519"><ele>289.0</ele><time>2026-05-01T12:19:45.999Z</time></trkpt><trkpt lat="44.93102628819632" lon="9.039681066618247"><ele>290.0</ele><time>2026-05-01T12:19:46.999Z</time></trkpt><trkpt lat="44.93099520570882" lon="9.039814567941134"><ele>290.0</ele><time>2026-05-01T12:19:47.999Z</time></trkpt><trkpt lat="44.93096360356236" lon="9.039955952990198"><ele>290.0</ele><time>2026-05-01T12:19:48.999Z</time></trkpt><trkpt lat="44.930928641909674" lon="9.04010843432693"><ele>290.0</ele><time>2026-05-01T12:19:49.999Z</time></trkpt><trkpt lat="44.93089429112243" lon="9.040262070257386"><ele>290.0</ele><time>2026-05-01T12:19:50.999Z</time></trkpt><trkpt lat="44.93086354381494" lon="9.040408754678277"><ele>290.0</ele><time>2026-05-01T12:19:51.999Z</time></trkpt><trkpt lat="44.930834909928585" lon="9.0405337739772"><ele>292.4</ele><time>2026-05-01T12:19:52.999Z</time></trkpt><trkpt lat="44.93080905118297" lon="9.04065779594822"><ele>294.8</ele><time>2026-05-01T12:19:53.999Z</time></trkpt><trkpt lat="44.9307853136029" lon="9.040787133358714"><ele>297.2</ele><time>2026-05-01T12:19:54.999Z</time></trkpt><trkpt lat="44.93076037224095" lon="9.04092564543746"><ele>299.6</ele><time>2026-05-01T12:19:55.999Z</time></trkpt><trkpt lat="44.930732874485535" lon="9.041046365585023"><ele>302.0</ele><time>2026-05-01T12:19:56.999Z</time></trkpt><trkpt lat="44.93070860329762" lon="9.041178714221882"><ele>303.4</ele><time>2026-05-01T12:19:57.999Z</time></trkpt><trkpt lat="44.93068003176578" lon="9.041302640653035"><ele>304.79999999999995</ele><time>2026-05-01T12:19:58.999Z</time></trkpt><trkpt lat="44.930647217530236" lon="9.041433786780853"><ele>306.2</ele><time>2026-05-01T12:19:59.999Z</time></trkpt><trkpt lat="44.93061499891461" lon="9.04157448024302"><ele>307.59999999999997</ele><time>2026-05-01T12:20:00.999Z</time></trkpt><trkpt lat="44.9305810297238" lon="9.041715213051791"><ele>309.0</ele><time>2026-05-01T12:20:02Z</time></trkpt><trkpt lat="44.930543010663094" lon="9.041864997623016"><ele>309.8</ele><time>2026-05-01T12:20:03Z</time></trkpt><trkpt lat="44.93051235181703" lon="9.041999272847926"><ele>310.59999999999997</ele><time>2026-05-01T12:20:04Z</time></trkpt><trkpt lat="44.93048099000741" lon="9.042139269657135"><ele>311.4</ele><time>2026-05-01T12:20:05Z</time></trkpt><trkpt lat="44.930448042713785" lon="9.042284926419386"><ele>312.2</ele><time>2026-05-01T12:20:06Z</time></trkpt><trkpt lat="44.930413408923044" lon="9.042434495330758"><ele>313.0</ele><time>2026-05-01T12:20:07Z</time></trkpt><trkpt lat="44.93038004947593" lon="9.042587297337914"><ele>313.0</ele><time>2026-05-01T12:20:08Z</time></trkpt><trkpt lat="44.930345574032756" lon="9.04273363690699"><ele>313.0</ele><time>2026-05-01T12:20:09Z</time></trkpt><trkpt lat="44.93031221542625" lon="9.042886654484718"><ele>313.0</ele><time>2026-05-01T12:20:10Z</time></trkpt><trkpt lat="44.93027995032624" lon="9.043034494157967"><ele>313.0</ele><time>2026-05-01T12:20:11Z</time></trkpt><trkpt lat="44.93024693571559" lon="9.043167961392296"><ele>313.0</ele><time>2026-05-01T12:20:12Z</time></trkpt><trkpt lat="44.93021868764761" lon="9.043281659545912"><ele>313.0</ele><time>2026-05-01T12:20:13Z</time></trkpt><trkpt lat="44.930198687629925" lon="9.043395037944904"><ele>313.0</ele><time>2026-05-01T12:20:14Z</time></trkpt><trkpt lat="44.93017669591537" lon="9.043488288924427"><ele>313.0</ele><time>2026-05-01T12:20:15Z</time></trkpt><trkpt lat="44.93015054551812" lon="9.043570311356596"><ele>313.0</ele><time>2026-05-01T12:20:16Z</time></trkpt><trkpt lat="44.930147555088325" lon="9.043684406761802"><ele>313.0</ele><time>2026-05-01T12:21:11.002Z</time></trkpt><trkpt lat="44.93017411612522" lon="9.043798017065164"><ele>313.0</ele><time>2026-05-01T12:21:18.002Z</time></trkpt><trkpt lat="44.93024606454205" lon="9.043912487769498"><ele>313.0</ele><time>2026-05-01T12:21:20.002Z</time></trkpt><trkpt lat="44.930332393278555" lon="9.044040790274947"><ele>313.0</ele><time>2026-05-01T12:21:22.002Z</time></trkpt><trkpt lat="44.930380489117304" lon="9.044113683174261"><ele>313.0</ele><time>2026-05-01T12:21:23.002Z</time></trkpt><trkpt lat="44.93043742259865" lon="9.04417913646809"><ele>313.0</ele><time>2026-05-01T12:21:24.002Z</time></trkpt><trkpt lat="44.930478033340854" lon="9.04425924771979"><ele>313.0</ele><time>2026-05-01T12:21:25.002Z</time></trkpt><trkpt lat="44.93051919861359" lon="9.044336671366597"><ele>313.0</ele><time>2026-05-01T12:21:26.003Z</time></trkpt><trkpt lat="44.93056487431992" lon="9.044412125876974"><ele>313.1428571428571</ele><time>2026-05-01T12:21:27.003Z</time></trkpt><trkpt lat="44.930610991177765" lon="9.044495459147491"><ele>313.2857142857143</ele><time>2026-05-01T12:21:28.003Z</time></trkpt><trkpt lat="44.93063832823798" lon="9.044589162357482"><ele>313.42857142857144</ele><time>2026-05-01T12:21:29.003Z</time></trkpt><trkpt lat="44.93067621883205" lon="9.044667331161172"><ele>313.57142857142856</ele><time>2026-05-01T12:21:30.003Z</time></trkpt><trkpt lat="44.930712047439044" lon="9.044742369176605"><ele>313.7142857142857</ele><time>2026-05-01T12:21:31.003Z</time></trkpt><trkpt lat="44.93076257266729" lon="9.044807287647469"><ele>313.85714285714283</ele><time>2026-05-01T12:21:32.003Z</time></trkpt><trkpt lat="44.93078518842943" lon="9.044898664470816"><ele>314.0</ele><time>2026-05-01T12:21:33.003Z</time></trkpt><trkpt lat="44.93082339787841" lon="9.044983593948746"><ele>313.83333333333337</ele><time>2026-05-01T12:21:34.003Z</time></trkpt><trkpt lat="44.93087645496733" lon="9.04506054899523"><ele>313.6666666666667</ele><time>2026-05-01T12:21:35.003Z</time></trkpt><trkpt lat="44.93091380281778" lon="9.045154661302583"><ele>313.5</ele><time>2026-05-01T12:21:36.003Z</time></trkpt><trkpt lat="44.9309517341968" lon="9.045240413167564"><ele>313.3333333333333</ele><time>2026-05-01T12:21:37.003Z</time></trkpt><trkpt lat="44.93098570900199" lon="9.045320728767576"><ele>313.16666666666663</ele><time>2026-05-01T12:21:38.003Z</time></trkpt><trkpt lat="44.93104181253819" lon="9.045455575125299"><ele>313.0</ele><time>2026-05-01T12:21:40.003Z</time></trkpt><trkpt lat="44.93113632591435" lon="9.045522280267464"><ele>313.0</ele><time>2026-05-01T12:21:41.997Z</time></trkpt><trkpt lat="44.931238766439456" lon="9.045488380075914"><ele>313.0</ele><time>2026-05-01T12:21:43.997Z</time></trkpt><trkpt lat="44.931327785332265" lon="9.045414835461765"><ele>313.0</ele><time>2026-05-01T12:21:45.998Z</time></trkpt><trkpt lat="44.93141054847802" lon="9.045334645559654"><ele>313.0</ele><time>2026-05-01T12:21:47.998Z</time></trkpt><trkpt lat="44.9314968466652" lon="9.045264698740914"><ele>313.0</ele><time>2026-05-01T12:21:49.998Z</time></trkpt><trkpt lat="44.93155808695968" lon="9.045220318474463"><ele>313.0</ele><time>2026-05-01T12:21:51.998Z</time></trkpt><trkpt lat="44.931635571614564" lon="9.045173745429024"><ele>313.0</ele><time>2026-05-01T12:21:55.999Z</time></trkpt><trkpt lat="44.931730085068224" lon="9.045128140150215"><ele>313.0</ele><time>2026-05-01T12:21:57.999Z</time></trkpt><trkpt lat="44.93183161249695" lon="9.045085898083103"><ele>313.0</ele><time>2026-05-01T12:21:59.999Z</time></trkpt><trkpt lat="44.931926430997535" lon="9.04506182489203"><ele>313.0</ele><time>2026-05-01T12:22:01.999Z</time></trkpt><trkpt lat="44.932001658479116" lon="9.045064110577012"><ele>313.8</ele><time>2026-05-01T12:22:04Z</time></trkpt><trkpt lat="44.93207272681337" lon="9.04508214758641"><ele>314.6</ele><time>2026-05-01T12:22:07Z</time></trkpt><trkpt lat="44.9321603846004" lon="9.045116859619075"><ele>315.4</ele><time>2026-05-01T12:22:09Z</time></trkpt><trkpt lat="44.9322650562352" lon="9.045164883971662"><ele>316.2</ele><time>2026-05-01T12:22:11Z</time></trkpt><trkpt lat="44.93236246636639" lon="9.04519417053469"><ele>317.0</ele><time>2026-05-01T12:22:13Z</time></trkpt><trkpt lat="44.932433797626274" lon="9.045250959800669"><ele>317.0</ele><time>2026-05-01T12:22:15Z</time></trkpt><trkpt lat="44.932526916699466" lon="9.045284167723059"><ele>317.0</ele><time>2026-05-01T12:22:17Z</time></trkpt><trkpt lat="44.93262568011653" lon="9.04532141038133"><ele>317.0</ele><time>2026-05-01T12:22:19.001Z</time></trkpt><trkpt lat="44.932747724979265" lon="9.0453194103194"><ele>317.0</ele><time>2026-05-01T12:22:21.001Z</time></trkpt><trkpt lat="44.93281196252666" lon="9.045305780677248"><ele>317.0</ele><time>2026-05-01T12:22:22.001Z</time></trkpt><trkpt lat="44.93287559974185" lon="9.045286550688546"><ele>314.2</ele><time>2026-05-01T12:22:23.001Z</time></trkpt><trkpt lat="44.93299885880222" lon="9.045239602070279"><ele>311.4</ele><time>2026-05-01T12:22:25.001Z</time></trkpt><trkpt lat="44.933123168698096" lon="9.045203130105806"><ele>308.6</ele><time>2026-05-01T12:22:27.001Z</time></trkpt><trkpt lat="44.933192335559205" lon="9.045196007841405"><ele>305.8</ele><time>2026-05-01T12:22:28.001Z</time></trkpt><trkpt lat="44.93326606634324" lon="9.045188035232268"><ele>303.0</ele><time>2026-05-01T12:22:29.001Z</time></trkpt><trkpt lat="44.933339447096174" lon="9.04518748540227"><ele>300.1666666666667</ele><time>2026-05-01T12:22:30.001Z</time></trkpt><trkpt lat="44.93340543343267" lon="9.04519751043969"><ele>297.3333333333333</ele><time>2026-05-01T12:22:31.001Z</time></trkpt><trkpt lat="44.93346934706414" lon="9.045209379031625"><ele>294.5</ele><time>2026-05-01T12:22:32.001Z</time></trkpt><trkpt lat="44.933543642324935" lon="9.045223438903124"><ele>291.66666666666663</ele><time>2026-05-01T12:22:33.001Z</time></trkpt><trkpt lat="44.93364609271589" lon="9.045239131896766"><ele>288.8333333333333</ele><time>2026-05-01T12:22:35.001Z</time></trkpt><trkpt lat="44.933729752035156" lon="9.045266380706957"><ele>286.0</ele><time>2026-05-01T12:22:38.001Z</time></trkpt><trkpt lat="44.933804647616036" lon="9.045231070283704"><ele>286.0</ele><time>2026-05-01T12:22:40.001Z</time></trkpt><trkpt lat="44.933909551016534" lon="9.045147589976315"><ele>286.0</ele><time>2026-05-01T12:22:42.001Z</time></trkpt><trkpt lat="44.933979737324385" lon="9.045110723859986"><ele>286.0</ele><time>2026-05-01T12:22:43.001Z</time></trkpt><trkpt lat="44.934053037912506" lon="9.045074842150656"><ele>286.0</ele><time>2026-05-01T12:22:44.001Z</time></trkpt><trkpt lat="44.93412654374736" lon="9.045037274077366"><ele>286.0</ele><time>2026-05-01T12:22:45.002Z</time></trkpt><trkpt lat="44.93419901307149" lon="9.045006391157498"><ele>286.0</ele><time>2026-05-01T12:22:46.002Z</time></trkpt><trkpt lat="44.93426602222376" lon="9.044974586273254"><ele>285.6</ele><time>2026-05-01T12:22:47.002Z</time></trkpt><trkpt lat="44.934332725602346" lon="9.044939214223643"><ele>285.20000000000005</ele><time>2026-05-01T12:22:48.002Z</time></trkpt><trkpt lat="44.93438936488761" lon="9.044890635439417"><ele>284.79999999999995</ele><time>2026-05-01T12:22:49.002Z</time></trkpt><trkpt lat="44.93448019232165" lon="9.044787107066877"><ele>284.4</ele><time>2026-05-01T12:22:51.002Z</time></trkpt><trkpt lat="44.934568889876616" lon="9.044658367787852"><ele>284.0</ele><time>2026-05-01T12:22:53.002Z</time></trkpt><trkpt lat="44.93461615689628" lon="9.044581041671396"><ele>284.0</ele><time>2026-05-01T12:22:54.002Z</time></trkpt><trkpt lat="44.93466756400239" lon="9.044499678435061"><ele>284.0</ele><time>2026-05-01T12:22:55.002Z</time></trkpt><trkpt lat="44.9347186496253" lon="9.044403674986148"><ele>284.0</ele><time>2026-05-01T12:22:56.002Z</time></trkpt><trkpt lat="44.93477269559458" lon="9.044299040726653"><ele>284.0</ele><time>2026-05-01T12:22:57.002Z</time></trkpt><trkpt lat="44.934820840329955" lon="9.044204039697597"><ele>284.0</ele><time>2026-05-01T12:22:58.002Z</time></trkpt><trkpt lat="44.93487113000499" lon="9.044107269927546"><ele>284.0</ele><time>2026-05-01T12:22:59.002Z</time></trkpt><trkpt lat="44.934931113475244" lon="9.044012312922195"><ele>282.5</ele><time>2026-05-01T12:23:00.002Z</time></trkpt><trkpt lat="44.93500036914042" lon="9.043921713755628"><ele>281.0</ele><time>2026-05-01T12:23:01.002Z</time></trkpt><trkpt lat="44.93507203599308" lon="9.043840029535614"><ele>279.5</ele><time>2026-05-01T12:23:02.002Z</time></trkpt><trkpt lat="44.93514397027454" lon="9.043760534703011"><ele>278.0</ele><time>2026-05-01T12:23:03.002Z</time></trkpt><trkpt lat="44.93521248416072" lon="9.043695133069823"><ele>276.5</ele><time>2026-05-01T12:23:04.002Z</time></trkpt><trkpt lat="44.93528897979613" lon="9.043633476609271"><ele>275.0</ele><time>2026-05-01T12:23:05.002Z</time></trkpt><trkpt lat="44.93536153030088" lon="9.043552203835151"><ele>275.0</ele><time>2026-05-01T12:23:06.002Z</time></trkpt><trkpt lat="44.93544419115667" lon="9.043454633254258"><ele>275.0</ele><time>2026-05-01T12:23:07.002Z</time></trkpt><trkpt lat="44.935524025996976" lon="9.043369371815507"><ele>275.0</ele><time>2026-05-01T12:23:08.002Z</time></trkpt><trkpt lat="44.93560284801049" lon="9.043297731378997"><ele>275.0</ele><time>2026-05-01T12:23:09.002Z</time></trkpt><trkpt lat="44.93568441977422" lon="9.04322065082092"><ele>275.0</ele><time>2026-05-01T12:23:10.002Z</time></trkpt><trkpt lat="44.935758474641396" lon="9.043147996432822"><ele>276.4</ele><time>2026-05-01T12:23:11.002Z</time></trkpt><trkpt lat="44.93582608984797" lon="9.043077093842275"><ele>277.8</ele><time>2026-05-01T12:23:12.002Z</time></trkpt><trkpt lat="44.93589098690322" lon="9.043001388538187"><ele>279.2</ele><time>2026-05-01T12:23:13.002Z</time></trkpt><trkpt lat="44.935964595689015" lon="9.042930511699007"><ele>280.6</ele><time>2026-05-01T12:23:14.002Z</time></trkpt><trkpt lat="44.93602023429639" lon="9.042838307807687"><ele>282.0</ele><time>2026-05-01T12:23:15.002Z</time></trkpt><trkpt lat="44.93608378620279" lon="9.04270795373691"><ele>278.8</ele><time>2026-05-01T12:23:16.003Z</time></trkpt><trkpt lat="44.93613800891969" lon="9.042578726109236"><ele>275.6</ele><time>2026-05-01T12:23:17.003Z</time></trkpt><trkpt lat="44.93617642599457" lon="9.04244658795795"><ele>272.40000000000003</ele><time>2026-05-01T12:23:18.003Z</time></trkpt><trkpt lat="44.93622854406092" lon="9.042326653280538"><ele>269.2</ele><time>2026-05-01T12:23:19.003Z</time></trkpt><trkpt lat="44.936286761509436" lon="9.042213703795499"><ele>266.0</ele><time>2026-05-01T12:23:20.003Z</time></trkpt><trkpt lat="44.9363327471381" lon="9.042116722084206"><ele>265.83333333333337</ele><time>2026-05-01T12:23:21.003Z</time></trkpt><trkpt lat="44.93635867825882" lon="9.042015344683053"><ele>265.6666666666667</ele><time>2026-05-01T12:23:22.003Z</time></trkpt><trkpt lat="44.9363771192202" lon="9.04190320247348"><ele>265.5</ele><time>2026-05-01T12:23:23.003Z</time></trkpt><trkpt lat="44.9363979882617" lon="9.041773555907062"><ele>265.3333333333333</ele><time>2026-05-01T12:23:24.003Z</time></trkpt><trkpt lat="44.936419518935026" lon="9.041630126943032"><ele>265.16666666666663</ele><time>2026-05-01T12:23:25.003Z</time></trkpt><trkpt lat="44.936430879257834" lon="9.041510187196934"><ele>265.0</ele><time>2026-05-01T12:23:26.003Z</time></trkpt><trkpt lat="44.93643930992583" lon="9.041415161073585"><ele>264.25</ele><time>2026-05-01T12:23:27.003Z</time></trkpt><trkpt lat="44.93640805981882" lon="9.041252004466608"><ele>263.5</ele><time>2026-05-01T12:23:29.003Z</time></trkpt><trkpt lat="44.93637307660304" lon="9.041107016875136"><ele>262.75</ele><time>2026-05-01T12:23:31.003Z</time></trkpt><trkpt lat="44.93631285727889" lon="9.040947169789966"><ele>262.0</ele><time>2026-05-01T12:23:33.003Z</time></trkpt><trkpt lat="44.93626016128211" lon="9.040834104015753"><ele>260.66666666666663</ele><time>2026-05-01T12:23:35.003Z</time></trkpt><trkpt lat="44.93621920024328" lon="9.040694999869135"><ele>259.3333333333333</ele><time>2026-05-01T12:24:08Z</time></trkpt><trkpt lat="44.936202535686576" lon="9.040600366742103"><ele>258.0</ele><time>2026-05-01T12:24:09Z</time></trkpt><trkpt lat="44.93615602550641" lon="9.040519616607412"><ele>256.6666666666667</ele><time>2026-05-01T12:24:10Z</time></trkpt><trkpt lat="44.93612076281666" lon="9.04042490595565"><ele>255.33333333333334</ele><time>2026-05-01T12:24:11Z</time></trkpt><trkpt lat="44.93606020419226" lon="9.040330307517973"><ele>254.0</ele><time>2026-05-01T12:24:12Z</time></trkpt><trkpt lat="44.9360018427682" lon="9.04022606104133"><ele>254.0</ele><time>2026-05-01T12:24:13Z</time></trkpt><trkpt lat="44.93596097039637" lon="9.040095748619123"><ele>253.99999999999997</ele><time>2026-05-01T12:24:14Z</time></trkpt><trkpt lat="44.93595935415556" lon="9.039965880369499"><ele>253.99999999999997</ele><time>2026-05-01T12:24:15Z</time></trkpt><trkpt lat="44.93595326131402" lon="9.039833294889604"><ele>254.0</ele><time>2026-05-01T12:24:16Z</time></trkpt><trkpt lat="44.93591707721834" lon="9.039686003881524"><ele>254.0</ele><time>2026-05-01T12:24:17Z</time></trkpt><trkpt lat="44.93587331116252" lon="9.039545610768943"><ele>255.39999999999998</ele><time>2026-05-01T12:24:18Z</time></trkpt><trkpt lat="44.935827523297164" lon="9.039407358393035"><ele>256.79999999999995</ele><time>2026-05-01T12:24:19Z</time></trkpt><trkpt lat="44.93580336737023" lon="9.039281383036322"><ele>258.20000000000005</ele><time>2026-05-01T12:24:20Z</time></trkpt><trkpt lat="44.93578037998555" lon="9.03914611983542"><ele>259.6</ele><time>2026-05-01T12:24:21Z</time></trkpt><trkpt lat="44.93575952999074" lon="9.039017868544464"><ele>261.0</ele><time>2026-05-01T12:24:22Z</time></trkpt><trkpt lat="44.935740360661214" lon="9.038899955214807"><ele>261.0</ele><time>2026-05-01T12:24:23Z</time></trkpt><trkpt lat="44.93572035538819" lon="9.038807859282965"><ele>261.0</ele><time>2026-05-01T12:24:24Z</time></trkpt><trkpt lat="44.93569611662322" lon="9.03872128731926"><ele>261.0</ele><time>2026-05-01T12:24:25Z</time></trkpt><trkpt lat="44.9356566460687" lon="9.038638797547803"><ele>261.0</ele><time>2026-05-01T12:24:26Z</time></trkpt><trkpt lat="44.935612083845136" lon="9.038570499697649"><ele>261.0</ele><time>2026-05-01T12:24:27Z</time></trkpt><trkpt lat="44.93555572573296" lon="9.038508706034335"><ele>261.0</ele><time>2026-05-01T12:24:28.001Z</time></trkpt><trkpt lat="44.93548995025542" lon="9.03847703785912"><ele>261.0</ele><time>2026-05-01T12:24:29.001Z</time></trkpt><trkpt lat="44.93543326707613" lon="9.038431798163002"><ele>261.0</ele><time>2026-05-01T12:24:30.001Z</time></trkpt><trkpt lat="44.93535843458366" lon="9.038379586498143"><ele>261.0</ele><time>2026-05-01T12:24:31.001Z</time></trkpt><trkpt lat="44.93526790935577" lon="9.038324789791636"><ele>261.0</ele><time>2026-05-01T12:24:32.001Z</time></trkpt><trkpt lat="44.935176149071694" lon="9.038250670424139"><ele>261.0</ele><time>2026-05-01T12:24:33.001Z</time></trkpt><trkpt lat="44.93506480577165" lon="9.038181860341115"><ele>261.0</ele><time>2026-05-01T12:24:34.001Z</time></trkpt><trkpt lat="44.93495170873835" lon="9.038123924200749"><ele>259.2</ele><time>2026-05-01T12:24:35.001Z</time></trkpt><trkpt lat="44.934852549646216" lon="9.038051717426303"><ele>257.40000000000003</ele><time>2026-05-01T12:24:36.001Z</time></trkpt><trkpt lat="44.93476229359297" lon="9.037971343512426"><ele>255.6</ele><time>2026-05-01T12:24:37.001Z</time></trkpt><trkpt lat="44.934676796025805" lon="9.037906089624691"><ele>253.8</ele><time>2026-05-01T12:24:38.001Z</time></trkpt><trkpt lat="44.93460159060231" lon="9.0378606360072"><ele>252.0</ele><time>2026-05-01T12:24:39.001Z</time></trkpt><trkpt lat="44.934524314726666" lon="9.037823202311499"><ele>252.0</ele><time>2026-05-01T12:24:40.001Z</time></trkpt><trkpt lat="44.93444796893839" lon="9.037796340593461"><ele>252.0</ele><time>2026-05-01T12:24:41.001Z</time></trkpt><trkpt lat="44.93437453910768" lon="9.037751232951274"><ele>252.0</ele><time>2026-05-01T12:24:42.001Z</time></trkpt><trkpt lat="44.934298349651776" lon="9.037744666857531"><ele>252.0</ele><time>2026-05-01T12:24:43.001Z</time></trkpt><trkpt lat="44.93422840242193" lon="9.037779456758628"><ele>252.0</ele><time>2026-05-01T12:24:44.001Z</time></trkpt><trkpt lat="44.93417183913726" lon="9.03783442723085"><ele>252.0</ele><time>2026-05-01T12:24:45.001Z</time></trkpt><trkpt lat="44.93411469936906" lon="9.037909982751106"><ele>250.66666666666666</ele><time>2026-05-01T12:24:46.001Z</time></trkpt><trkpt lat="44.93406160810707" lon="9.037998104408107"><ele>249.33333333333331</ele><time>2026-05-01T12:24:47.001Z</time></trkpt><trkpt lat="44.93398979932539" lon="9.038044563576802"><ele>248.0</ele><time>2026-05-01T12:24:48.001Z</time></trkpt><trkpt lat="44.93391585347406" lon="9.038049590752356"><ele>246.66666666666666</ele><time>2026-05-01T12:24:49.001Z</time></trkpt><trkpt lat="44.93384499818874" lon="9.038059575337618"><ele>245.33333333333331</ele><time>2026-05-01T12:24:50.001Z</time></trkpt><trkpt lat="44.933776872634894" lon="9.038109780135917"><ele>244.0</ele><time>2026-05-01T12:24:51.001Z</time></trkpt><trkpt lat="44.933705136534726" lon="9.038121086947289"><ele>243.99999999999997</ele><time>2026-05-01T12:24:52.001Z</time></trkpt><trkpt lat="44.93362884679985" lon="9.038114528979376"><ele>244.0</ele><time>2026-05-01T12:24:54.001Z</time></trkpt><trkpt lat="44.933611045151125" lon="9.03801586882162"><ele>244.0</ele><time>2026-05-01T12:24:56.001Z</time></trkpt><trkpt lat="44.93369911237513" lon="9.037963504804992"><ele>244.0</ele><time>2026-05-01T12:24:58.001Z</time></trkpt><trkpt lat="44.933767468957804" lon="9.03794522763741"><ele>243.99999999999997</ele><time>2026-05-01T12:24:59.002Z</time></trkpt><trkpt lat="44.93384119994802" lon="9.037903172400803"><ele>244.0</ele><time>2026-05-01T12:25:00.002Z</time></trkpt><trkpt lat="44.93391838861461" lon="9.037876199363032"><ele>244.0</ele><time>2026-05-01T12:25:01.002Z</time></trkpt><trkpt lat="44.93398572954305" lon="9.037837284252"><ele>243.99999999999997</ele><time>2026-05-01T12:25:02.002Z</time></trkpt><trkpt lat="44.934041473922285" lon="9.037701502376832"><ele>243.99999999999997</ele><time>2026-05-01T12:25:04.002Z</time></trkpt><trkpt lat="44.933966397846014" lon="9.037576063708373"><ele>244.0</ele><time>2026-05-01T12:25:06.002Z</time></trkpt><trkpt lat="44.93389414615571" lon="9.037564920438605"><ele>244.0</ele><time>2026-05-01T12:25:07.002Z</time></trkpt><trkpt lat="44.93380989773957" lon="9.037588591311025"><ele>243.99999999999997</ele><time>2026-05-01T12:25:08.002Z</time></trkpt><trkpt lat="44.93371339549679" lon="9.03761242884433"><ele>244.0</ele><time>2026-05-01T12:25:09.002Z</time></trkpt><trkpt lat="44.933618927606645" lon="9.037596965001878"><ele>244.0</ele><time>2026-05-01T12:25:10.002Z</time></trkpt><trkpt lat="44.93353490035933" lon="9.037614128174045"><ele>244.0</ele><time>2026-05-01T12:25:11.002Z</time></trkpt><trkpt lat="44.93345448409965" lon="9.037646270698238"><ele>243.99999999999997</ele><time>2026-05-01T12:25:12.002Z</time></trkpt><trkpt lat="44.93338682380211" lon="9.03770282650592"><ele>244.0</ele><time>2026-05-01T12:25:13.002Z</time></trkpt><trkpt lat="44.93332245284956" lon="9.037729054193232"><ele>242.79999999999998</ele><time>2026-05-01T12:25:14.002Z</time></trkpt><trkpt lat="44.933260282840656" lon="9.037690275259896"><ele>241.59999999999997</ele><time>2026-05-01T12:25:15.002Z</time></trkpt><trkpt lat="44.93320865363424" lon="9.037609361768684"><ele>240.4</ele><time>2026-05-01T12:25:16.002Z</time></trkpt><trkpt lat="44.933188283824165" lon="9.037518631858395"><ele>239.2</ele><time>2026-05-01T12:25:17.002Z</time></trkpt><trkpt lat="44.93326998511212" lon="9.037341168570464"><ele>238.0</ele><time>2026-05-01T12:25:19.002Z</time></trkpt><trkpt lat="44.93340094399192" lon="9.037271458923989"><ele>236.99999999999997</ele><time>2026-05-01T12:25:22.002Z</time></trkpt><trkpt lat="44.933464864038406" lon="9.037195253744496"><ele>236.0</ele><time>2026-05-01T12:25:23.002Z</time></trkpt><trkpt lat="44.93352472933664" lon="9.037130472345128"><ele>235.0</ele><time>2026-05-01T12:25:24.002Z</time></trkpt><trkpt lat="44.93354243024869" lon="9.037039766272239"><ele>234.0</ele><time>2026-05-01T12:25:25.002Z</time></trkpt><trkpt lat="44.93353127040597" lon="9.036939237391852"><ele>232.99999999999997</ele><time>2026-05-01T12:25:26.002Z</time></trkpt><trkpt lat="44.933491093147396" lon="9.036840533490864"><ele>232.0</ele><time>2026-05-01T12:25:27.002Z</time></trkpt><trkpt lat="44.93343530903722" lon="9.036753725118437"><ele>230.83333333333331</ele><time>2026-05-01T12:25:28.002Z</time></trkpt><trkpt lat="44.93336882770622" lon="9.036702575681609"><ele>229.66666666666666</ele><time>2026-05-01T12:25:29.002Z</time></trkpt><trkpt lat="44.933302322995665" lon="9.036698533250021"><ele>228.5</ele><time>2026-05-01T12:25:30.002Z</time></trkpt><trkpt lat="44.93324392628239" lon="9.036741089677976"><ele>227.33333333333331</ele><time>2026-05-01T12:25:31.002Z</time></trkpt><trkpt lat="44.93318610974259" lon="9.036903849244126"><ele>226.16666666666666</ele><time>2026-05-01T12:25:33.003Z</time></trkpt><trkpt lat="44.93315396897602" lon="9.037008513866194"><ele>225.0</ele><time>2026-05-01T12:25:34.003Z</time></trkpt><trkpt lat="44.93309580428639" lon="9.037096258973522"><ele>225.00000000000003</ele><time>2026-05-01T12:25:35.003Z</time></trkpt><trkpt lat="44.93303555453895" lon="9.037184183694961"><ele>225.0</ele><time>2026-05-01T12:25:36.003Z</time></trkpt><trkpt lat="44.93297043734464" lon="9.037247567836951"><ele>225.00000000000003</ele><time>2026-05-01T12:25:37.003Z</time></trkpt><trkpt lat="44.93290292963071" lon="9.037288564654276"><ele>225.00000000000003</ele><time>2026-05-01T12:25:38.003Z</time></trkpt><trkpt lat="44.93283756670653" lon="9.037294842698111"><ele>225.0</ele><time>2026-05-01T12:25:39.003Z</time></trkpt><trkpt lat="44.932775426954294" lon="9.037278425132998"><ele>225.00000000000003</ele><time>2026-05-01T12:25:40.003Z</time></trkpt><trkpt lat="44.93270616934874" lon="9.037237052541055"><ele>225.00000000000003</ele><time>2026-05-01T12:25:41.003Z</time></trkpt><trkpt lat="44.93264234242963" lon="9.037178917192472"><ele>225.0</ele><time>2026-05-01T12:25:42.003Z</time></trkpt><trkpt lat="44.93255839774963" lon="9.037099393254813"><ele>225.0</ele><time>2026-05-01T12:25:43.003Z</time></trkpt><trkpt lat="44.93249581847854" lon="9.036925644789996"><ele>225.0</ele><time>2026-05-01T12:25:45.003Z</time></trkpt><trkpt lat="44.9324797014508" lon="9.036804857470328"><ele>225.0</ele><time>2026-05-01T12:25:46.003Z</time></trkpt><trkpt lat="44.93248164596387" lon="9.036668913486727"><ele>225.0</ele><time>2026-05-01T12:25:47.003Z</time></trkpt><trkpt lat="44.932478052946486" lon="9.036547405502795"><ele>224.6</ele><time>2026-05-01T12:25:48.003Z</time></trkpt><trkpt lat="44.93246407146667" lon="9.036418518209825"><ele>224.2</ele><time>2026-05-01T12:25:49.003Z</time></trkpt><trkpt lat="44.93245567184663" lon="9.036295173153658"><ele>223.8</ele><time>2026-05-01T12:25:50.003Z</time></trkpt><trkpt lat="44.93244566572397" lon="9.036150484457556"><ele>223.4</ele><time>2026-05-01T12:25:51.003Z</time></trkpt><trkpt lat="44.93244189427491" lon="9.036020735823978"><ele>223.0</ele><time>2026-05-01T12:25:52.003Z</time></trkpt><trkpt lat="44.93246001044241" lon="9.035892768757527"><ele>223.16666666666666</ele><time>2026-05-01T12:25:52.999Z</time></trkpt><trkpt lat="44.93248523836067" lon="9.035789776269148"><ele>223.33333333333331</ele><time>2026-05-01T12:25:53.999Z</time></trkpt><trkpt lat="44.93249864882832" lon="9.035645996379795"><ele>223.5</ele><time>2026-05-01T12:25:54.999Z</time></trkpt><trkpt lat="44.93251027591937" lon="9.035520777880526"><ele>223.66666666666669</ele><time>2026-05-01T12:25:55.999Z</time></trkpt><trkpt lat="44.93252718269292" lon="9.035412232735782"><ele>223.83333333333334</ele><time>2026-05-01T12:25:56.999Z</time></trkpt><trkpt lat="44.93255427499669" lon="9.035312494902122"><ele>224.0</ele><time>2026-05-01T12:25:57.999Z</time></trkpt><trkpt lat="44.932596803334576" lon="9.035205613109397"><ele>221.0</ele><time>2026-05-01T12:25:59Z</time></trkpt><trkpt lat="44.932657840264234" lon="9.035090136751714"><ele>217.99999999999997</ele><time>2026-05-01T12:26:00Z</time></trkpt><trkpt lat="44.93270134051462" lon="9.034952242036084"><ele>215.0</ele><time>2026-05-01T12:26:01Z</time></trkpt><trkpt lat="44.93273095336879" lon="9.03480060163141"><ele>212.0</ele><time>2026-05-01T12:26:02Z</time></trkpt><trkpt lat="44.93274653096933" lon="9.034637578065924"><ele>209.0</ele><time>2026-05-01T12:26:03Z</time></trkpt><trkpt lat="44.93276678031361" lon="9.03448657864454"><ele>207.83333333333334</ele><time>2026-05-01T12:26:04Z</time></trkpt><trkpt lat="44.93278126476775" lon="9.034345588972288"><ele>206.66666666666669</ele><time>2026-05-01T12:26:05Z</time></trkpt><trkpt lat="44.93280472292435" lon="9.034222746947638"><ele>205.5</ele><time>2026-05-01T12:26:06Z</time></trkpt><trkpt lat="44.93280522072873" lon="9.03411829868865"><ele>204.33333333333331</ele><time>2026-05-01T12:26:07Z</time></trkpt><trkpt lat="44.93279315645083" lon="9.034020822938146"><ele>203.16666666666666</ele><time>2026-05-01T12:26:08Z</time></trkpt><trkpt lat="44.93272000589838" lon="9.033928709740914"><ele>202.0</ele><time>2026-05-01T12:26:09Z</time></trkpt><trkpt lat="44.93264005568592" lon="9.033821339914951"><ele>202.0</ele><time>2026-05-01T12:26:10Z</time></trkpt><trkpt lat="44.93254832374096" lon="9.033704424758604"><ele>202.0</ele><time>2026-05-01T12:26:11Z</time></trkpt><trkpt lat="44.93244808465575" lon="9.033566035281483"><ele>202.0</ele><time>2026-05-01T12:26:12Z</time></trkpt><trkpt lat="44.932349954784996" lon="9.03342937651961"><ele>202.0</ele><time>2026-05-01T12:26:13Z</time></trkpt><trkpt lat="44.93225992856388" lon="9.033298966567722"><ele>202.0</ele><time>2026-05-01T12:26:14Z</time></trkpt><trkpt lat="44.93217529594271" lon="9.033171196315267"><ele>202.0</ele><time>2026-05-01T12:26:15Z</time></trkpt><trkpt lat="44.932102266439294" lon="9.033067082365989"><ele>202.0</ele><time>2026-05-01T12:26:16Z</time></trkpt><trkpt lat="44.93202961967558" lon="9.032959317264737"><ele>202.0</ele><time>2026-05-01T12:26:17Z</time></trkpt><trkpt lat="44.931965199611014" lon="9.032853853980454"><ele>202.0</ele><time>2026-05-01T12:26:18Z</time></trkpt><trkpt lat="44.931878739960645" lon="9.032762990387392"><ele>202.0</ele><time>2026-05-01T12:26:19Z</time></trkpt><trkpt lat="44.931818229344955" lon="9.03266958425805"><ele>202.0</ele><time>2026-05-01T12:26:20Z</time></trkpt><trkpt lat="44.931739961372124" lon="9.032577009038144"><ele>202.0</ele><time>2026-05-01T12:26:21Z</time></trkpt><trkpt lat="44.93165873188435" lon="9.032487114809213"><ele>202.0</ele><time>2026-05-01T12:26:22Z</time></trkpt><trkpt lat="44.93157599706365" lon="9.03239297851218"><ele>202.0</ele><time>2026-05-01T12:26:23Z</time></trkpt><trkpt lat="44.931491847241844" lon="9.032320146461982"><ele>201.99999999999997</ele><time>2026-05-01T12:26:24Z</time></trkpt><trkpt lat="44.93141054731958" lon="9.03224109878593"><ele>202.0</ele><time>2026-05-01T12:26:25Z</time></trkpt><trkpt lat="44.93134282971814" lon="9.032174469557532"><ele>202.0</ele><time>2026-05-01T12:26:26Z</time></trkpt><trkpt lat="44.931284909077355" lon="9.032120517454805"><ele>202.0</ele><time>2026-05-01T12:26:27Z</time></trkpt><trkpt lat="44.931184933033244" lon="9.03211726846319"><ele>201.99999999999997</ele><time>2026-05-01T12:26:29.001Z</time></trkpt><trkpt lat="44.931134949368804" lon="9.032182021883777"><ele>202.0</ele><time>2026-05-01T12:26:30.001Z</time></trkpt><trkpt lat="44.93111586643835" lon="9.032268328133132"><ele>201.99999999999997</ele><time>2026-05-01T12:26:31.001Z</time></trkpt><trkpt lat="44.931092058724595" lon="9.032353278996261"><ele>202.0</ele><time>2026-05-01T12:26:32.001Z</time></trkpt><trkpt lat="44.93110455342864" lon="9.032472236783631"><ele>202.0</ele><time>2026-05-01T12:26:33.001Z</time></trkpt><trkpt lat="44.931102789953115" lon="9.032603111107484"><ele>202.0</ele><time>2026-05-01T12:26:34.001Z</time></trkpt><trkpt lat="44.93109752292754" lon="9.032706251022665"><ele>201.99999999999997</ele><time>2026-05-01T12:26:35.001Z</time></trkpt><trkpt lat="44.93104341229638" lon="9.03281931665347"><ele>202.0</ele><time>2026-05-01T12:26:37.001Z</time></trkpt><trkpt lat="44.930943670893384" lon="9.032774400929911"><ele>201.8</ele><time>2026-05-01T12:26:39.001Z</time></trkpt><trkpt lat="44.930871607673" lon="9.032620893261827"><ele>201.6</ele><time>2026-05-01T12:26:41.001Z</time></trkpt><trkpt lat="44.93088540323304" lon="9.032490822386517"><ele>201.4</ele><time>2026-05-01T12:26:42.001Z</time></trkpt><trkpt lat="44.9308742562201" lon="9.032357869464338"><ele>201.20000000000002</ele><time>2026-05-01T12:26:43.001Z</time></trkpt><trkpt lat="44.930877482083474" lon="9.032222887097328"><ele>201.0</ele><time>2026-05-01T12:26:44.001Z</time></trkpt><trkpt lat="44.930878364930486" lon="9.03208897018069"><ele>200.16666666666666</ele><time>2026-05-01T12:26:45.001Z</time></trkpt><trkpt lat="44.930876353225194" lon="9.031961879646232"><ele>199.33333333333331</ele><time>2026-05-01T12:26:46.001Z</time></trkpt><trkpt lat="44.93086986570395" lon="9.031847212303942"><ele>198.5</ele><time>2026-05-01T12:26:47.001Z</time></trkpt><trkpt lat="44.930870287509734" lon="9.03173860215168"><ele>197.66666666666666</ele><time>2026-05-01T12:26:48.001Z</time></trkpt><trkpt lat="44.93089473704899" lon="9.031626613668417"><ele>196.83333333333331</ele><time>2026-05-01T12:26:49.001Z</time></trkpt><trkpt lat="44.93093720075838" lon="9.031529956270408"><ele>196.0</ele><time>2026-05-01T12:26:50.001Z</time></trkpt><trkpt lat="44.93099274325387" lon="9.031436471518932"><ele>195.4</ele><time>2026-05-01T12:26:51.001Z</time></trkpt><trkpt lat="44.931037407648226" lon="9.031329795119698"><ele>194.8</ele><time>2026-05-01T12:26:52.001Z</time></trkpt><trkpt lat="44.93108188826212" lon="9.031219630833455"><ele>194.20000000000002</ele><time>2026-05-01T12:26:53.001Z</time></trkpt><trkpt lat="44.93110772046528" lon="9.031087988246057"><ele>193.60000000000002</ele><time>2026-05-01T12:26:54.001Z</time></trkpt><trkpt lat="44.93113418731" lon="9.030957169452115"><ele>193.0</ele><time>2026-05-01T12:26:55.001Z</time></trkpt><trkpt lat="44.93115127325586" lon="9.030835620158305"><ele>190.8</ele><time>2026-05-01T12:26:56.001Z</time></trkpt><trkpt lat="44.9311412023186" lon="9.030707207510808"><ele>188.60000000000002</ele><time>2026-05-01T12:26:57.001Z</time></trkpt><trkpt lat="44.93112086924833" lon="9.030591710786362"><ele>186.39999999999998</ele><time>2026-05-01T12:26:58.001Z</time></trkpt><trkpt lat="44.9310852401012" lon="9.030476131588669"><ele>184.2</ele><time>2026-05-01T12:26:59.001Z</time></trkpt><trkpt lat="44.931030523288115" lon="9.030365761602669"><ele>182.0</ele><time>2026-05-01T12:27:00.002Z</time></trkpt><trkpt lat="44.93095725797064" lon="9.030264758794578"><ele>182.0</ele><time>2026-05-01T12:27:01.002Z</time></trkpt><trkpt lat="44.93086332347783" lon="9.030170628996162"><ele>182.0</ele><time>2026-05-01T12:27:02.002Z</time></trkpt><trkpt lat="44.93075995023999" lon="9.030081874845836"><ele>182.0</ele><time>2026-05-01T12:27:03.002Z</time></trkpt><trkpt lat="44.93066049850749" lon="9.02998396446004"><ele>182.0</ele><time>2026-05-01T12:27:04.002Z</time></trkpt><trkpt lat="44.93056861299552" lon="9.029890297827196"><ele>181.2</ele><time>2026-05-01T12:27:05.002Z</time></trkpt><trkpt lat="44.930482724708234" lon="9.02980284635438"><ele>180.39999999999998</ele><time>2026-05-01T12:27:06.002Z</time></trkpt><trkpt lat="44.93039961035204" lon="9.029728990210856"><ele>179.60000000000002</ele><time>2026-05-01T12:27:07.002Z</time></trkpt><trkpt lat="44.93031484397073" lon="9.02969656004646"><ele>178.8</ele><time>2026-05-01T12:27:08.002Z</time></trkpt><trkpt lat="44.930233460470106" lon="9.029655295627443"><ele>178.0</ele><time>2026-05-01T12:27:09.002Z</time></trkpt><trkpt lat="44.93015602187146" lon="9.029630940080066"><ele>178.0</ele><time>2026-05-01T12:27:10.002Z</time></trkpt><trkpt lat="44.93008648934057" lon="9.029590605814871"><ele>178.0</ele><time>2026-05-01T12:27:11.002Z</time></trkpt><trkpt lat="44.930039046790576" lon="9.029476960778517"><ele>178.0</ele><time>2026-05-01T12:27:13.002Z</time></trkpt><trkpt lat="44.93006219143203" lon="9.02939292329103"><ele>178.0</ele><time>2026-05-01T12:27:14.002Z</time></trkpt><trkpt lat="44.930057872051385" lon="9.029275440531798"><ele>178.0</ele><time>2026-05-01T12:27:15.002Z</time></trkpt><trkpt lat="44.93007523084295" lon="9.029137176399372"><ele>178.0</ele><time>2026-05-01T12:27:16.002Z</time></trkpt><trkpt lat="44.93007621554523" lon="9.028989008118604"><ele>176.8</ele><time>2026-05-01T12:27:17.002Z</time></trkpt><trkpt lat="44.93008928377055" lon="9.028829924202824"><ele>175.60000000000002</ele><time>2026-05-01T12:27:18.002Z</time></trkpt><trkpt lat="44.93008950348028" lon="9.028671321246216"><ele>174.39999999999998</ele><time>2026-05-01T12:27:19.002Z</time></trkpt><trkpt lat="44.93010038246672" lon="9.028509950543057"><ele>173.2</ele><time>2026-05-01T12:27:20.002Z</time></trkpt><trkpt lat="44.93010424884603" lon="9.028370778499278"><ele>172.0</ele><time>2026-05-01T12:27:21.002Z</time></trkpt><trkpt lat="44.930117325031404" lon="9.028233614071079"><ele>171.39999999999998</ele><time>2026-05-01T12:27:22.002Z</time></trkpt><trkpt lat="44.93012350653548" lon="9.028117524699265"><ele>170.79999999999998</ele><time>2026-05-01T12:27:23.002Z</time></trkpt><trkpt lat="44.930131806476844" lon="9.02799817137859"><ele>170.2</ele><time>2026-05-01T12:27:25.002Z</time></trkpt><trkpt lat="44.92998823308092" lon="9.028013920445346"><ele>169.6</ele><time>2026-05-01T12:27:28.002Z</time></trkpt><trkpt lat="44.929866300584926" lon="9.028057100891099"><ele>169.0</ele><time>2026-05-01T12:27:30.002Z</time></trkpt><trkpt lat="44.92978921822346" lon="9.028097677840393"><ele>168.66666666666669</ele><time>2026-05-01T12:27:31.002Z</time></trkpt><trkpt lat="44.92970520322458" lon="9.02814021684627"><ele>168.33333333333334</ele><time>2026-05-01T12:27:32.002Z</time></trkpt><trkpt lat="44.929615553874044" lon="9.028208441597442"><ele>168.0</ele><time>2026-05-01T12:27:33.003Z</time></trkpt><trkpt lat="44.92954158890489" lon="9.028246617683498"><ele>167.66666666666666</ele><time>2026-05-01T12:27:34.003Z</time></trkpt><trkpt lat="44.929458769199414" lon="9.028264992876505"><ele>167.33333333333331</ele><time>2026-05-01T12:27:35.003Z</time></trkpt><trkpt lat="44.929371078904396" lon="9.028309392836107"><ele>167.0</ele><time>2026-05-01T12:27:36.003Z</time></trkpt><trkpt lat="44.92928201856308" lon="9.028356841695167"><ele>167.16666666666666</ele><time>2026-05-01T12:27:37.003Z</time></trkpt><trkpt lat="44.92920155500558" lon="9.028422331009063"><ele>167.33333333333331</ele><time>2026-05-01T12:27:38.003Z</time></trkpt><trkpt lat="44.92910795202325" lon="9.028464239872633"><ele>167.5</ele><time>2026-05-01T12:27:39.003Z</time></trkpt><trkpt lat="44.92903537278942" lon="9.028501565407794"><ele>167.66666666666666</ele><time>2026-05-01T12:27:40.003Z</time></trkpt><trkpt lat="44.928966175406124" lon="9.028535284146297"><ele>167.83333333333334</ele><time>2026-05-01T12:27:41.003Z</time></trkpt><trkpt lat="44.928901524556906" lon="9.028574884540722"><ele>168.0</ele><time>2026-05-01T12:27:42.003Z</time></trkpt><trkpt lat="44.92879714052109" lon="9.028633078163415"><ele>168.0</ele><time>2026-05-01T12:27:44.003Z</time></trkpt><trkpt lat="44.9287304087527" lon="9.028592787446916"><ele>168.0</ele><time>2026-05-01T12:28:07.999Z</time></trkpt><trkpt lat="44.92871446130705" lon="9.028436655198483"><ele>168.0</ele><time>2026-05-01T12:28:09.999Z</time></trkpt><trkpt lat="44.928697249327435" lon="9.028325516178711"><ele>168.0</ele><time>2026-05-01T12:28:10.999Z</time></trkpt><trkpt lat="44.92869348187325" lon="9.028217868171588"><ele>168.0</ele><time>2026-05-01T12:28:11.999Z</time></trkpt><trkpt lat="44.92868103434184" lon="9.02810492744772"><ele>168.0</ele><time>2026-05-01T12:28:12.999Z</time></trkpt><trkpt lat="44.92867032122604" lon="9.027978847946104"><ele>167.33333333333334</ele><time>2026-05-01T12:28:13.999Z</time></trkpt><trkpt lat="44.92866036375355" lon="9.027843585325344"><ele>166.66666666666666</ele><time>2026-05-01T12:28:14.999Z</time></trkpt><trkpt lat="44.92865107248795" lon="9.027717372721083"><ele>166.0</ele><time>2026-05-01T12:28:16Z</time></trkpt><trkpt lat="44.92864547687566" lon="9.027623546131123"><ele>165.33333333333331</ele><time>2026-05-01T12:28:17Z</time></trkpt><trkpt lat="44.9286231382416" lon="9.027503625171532"><ele>164.66666666666666</ele><time>2026-05-01T12:28:19Z</time></trkpt><trkpt lat="44.92863611001495" lon="9.027412386638119"><ele>164.0</ele><time>2026-05-01T12:28:28Z</time></trkpt><trkpt lat="44.92863824850988" lon="9.027504903647074"><ele>164.0</ele><time>2026-05-01T12:28:43.001Z</time></trkpt><trkpt lat="44.928635833478154" lon="9.02767734054822"><ele>164.0</ele><time>2026-05-01T12:28:45.001Z</time></trkpt><trkpt lat="44.92864313025968" lon="9.027774184480714"><ele>164.0</ele><time>2026-05-01T12:28:46.001Z</time></trkpt><trkpt lat="44.92864897154309" lon="9.027877605741748"><ele>164.0</ele><time>2026-05-01T12:28:47.001Z</time></trkpt><trkpt lat="44.92865727661883" lon="9.027992812520885"><ele>164.0</ele><time>2026-05-01T12:28:48.001Z</time></trkpt><trkpt lat="44.92866943993977" lon="9.028105766918511"><ele>164.0</ele><time>2026-05-01T12:28:49.001Z</time></trkpt><trkpt lat="44.928682286826465" lon="9.02821528178999"><ele>164.0</ele><time>2026-05-01T12:28:50.001Z</time></trkpt><trkpt lat="44.928778930163865" lon="9.027873033800716"><ele>164.0</ele><time>2026-05-01T12:28:51.001Z</time></trkpt><trkpt lat="44.9287145323638" lon="9.028490962132256"><ele>164.16666666666666</ele><time>2026-05-01T12:28:52.001Z</time></trkpt><trkpt lat="44.92874094159167" lon="9.028602742263736"><ele>164.33333333333331</ele><time>2026-05-01T12:28:54.001Z</time></trkpt><trkpt lat="44.92865460461043" lon="9.028680323655644"><ele>164.5</ele><time>2026-05-01T12:28:58.001Z</time></trkpt><trkpt lat="44.928556426148674" lon="9.02870881178127"><ele>164.66666666666666</ele><time>2026-05-01T12:29:00.001Z</time></trkpt><trkpt lat="44.928471789144034" lon="9.028726107998487"><ele>164.83333333333334</ele><time>2026-05-01T12:29:02.001Z</time></trkpt><trkpt lat="44.92839929781584" lon="9.028764674480186"><ele>165.0</ele><time>2026-05-01T12:29:04.001Z</time></trkpt><trkpt lat="44.92829765638821" lon="9.02879744315787"><ele>165.0</ele><time>2026-05-01T12:29:06.002Z</time></trkpt><trkpt lat="44.928179233393486" lon="9.028826247914438"><ele>165.0</ele><time>2026-05-01T12:29:08.002Z</time></trkpt><trkpt lat="44.928115836077176" lon="9.028846919650643"><ele>165.0</ele><time>2026-05-01T12:29:09.002Z</time></trkpt><trkpt lat="44.928010165692584" lon="9.028878591613667"><ele>165.0</ele><time>2026-05-01T12:29:11.002Z</time></trkpt><trkpt lat="44.92789258930145" lon="9.02890877023092"><ele>165.0</ele><time>2026-05-01T12:29:13.002Z</time></trkpt><trkpt lat="44.927769258347716" lon="9.02893949014817"><ele>165.00000000000003</ele><time>2026-05-01T12:29:15.002Z</time></trkpt><trkpt lat="44.92769702161017" lon="9.028939388949995"><ele>165.0</ele><time>2026-05-01T12:29:16.002Z</time></trkpt><trkpt lat="44.927625592532856" lon="9.028952714827552"><ele>165.0</ele><time>2026-05-01T12:29:17.002Z</time></trkpt><trkpt lat="44.92755895770922" lon="9.028967763745202"><ele>165.0</ele><time>2026-05-01T12:29:18.002Z</time></trkpt><trkpt lat="44.927490752125564" lon="9.028988377586044"><ele>165.0</ele><time>2026-05-01T12:29:19.002Z</time></trkpt><trkpt lat="44.9274245242656" lon="9.02900695143443"><ele>165.00000000000003</ele><time>2026-05-01T12:29:20.002Z</time></trkpt><trkpt lat="44.92735579265971" lon="9.02902971428003"><ele>165.0</ele><time>2026-05-01T12:29:21.002Z</time></trkpt><trkpt lat="44.92729377361793" lon="9.029060361869991"><ele>164.6</ele><time>2026-05-01T12:29:22.002Z</time></trkpt><trkpt lat="44.9271741934041" lon="9.029116467876484"><ele>164.2</ele><time>2026-05-01T12:29:24.002Z</time></trkpt><trkpt lat="44.92705910169087" lon="9.029198917000125"><ele>163.8</ele><time>2026-05-01T12:29:26.002Z</time></trkpt><trkpt lat="44.92699313943261" lon="9.02924715939076"><ele>163.4</ele><time>2026-05-01T12:29:27.002Z</time></trkpt><trkpt lat="44.92692782405516" lon="9.029291072020646"><ele>163.0</ele><time>2026-05-01T12:29:28.002Z</time></trkpt><trkpt lat="44.92686221688988" lon="9.029312655988281"><ele>163.0</ele><time>2026-05-01T12:29:29.002Z</time></trkpt><trkpt lat="44.92678797307864" lon="9.029347940745549"><ele>163.0</ele><time>2026-05-01T12:29:30.002Z</time></trkpt><trkpt lat="44.92671709569214" lon="9.029347503618101"><ele>163.0</ele><time>2026-05-01T12:29:31.002Z</time></trkpt><trkpt lat="44.92664004740779" lon="9.029346176471243"><ele>163.0</ele><time>2026-05-01T12:29:32.002Z</time></trkpt><trkpt lat="44.926558076115676" lon="9.029353329014562"><ele>163.0</ele><time>2026-05-01T12:29:33.002Z</time></trkpt><trkpt lat="44.92647704738531" lon="9.029369897005616"><ele>163.0</ele><time>2026-05-01T12:29:34.002Z</time></trkpt><trkpt lat="44.92640018582931" lon="9.029390238991528"><ele>163.0</ele><time>2026-05-01T12:29:35.002Z</time></trkpt><trkpt lat="44.926319213771905" lon="9.029408556550942"><ele>163.0</ele><time>2026-05-01T12:29:36.002Z</time></trkpt><trkpt lat="44.926239692729354" lon="9.029427495694863"><ele>163.0</ele><time>2026-05-01T12:29:37.003Z</time></trkpt><trkpt lat="44.926163163070186" lon="9.029448232043999"><ele>163.0</ele><time>2026-05-01T12:29:38.003Z</time></trkpt><trkpt lat="44.92609003723239" lon="9.029472097682119"><ele>163.0</ele><time>2026-05-01T12:29:39.003Z</time></trkpt><trkpt lat="44.92601232153132" lon="9.029498671799224"><ele>163.0</ele><time>2026-05-01T12:29:40.003Z</time></trkpt><trkpt lat="44.92593706881517" lon="9.029530634739835"><ele>162.83333333333334</ele><time>2026-05-01T12:29:41.003Z</time></trkpt><trkpt lat="44.92586318249159" lon="9.029566048854942"><ele>162.66666666666669</ele><time>2026-05-01T12:29:42.003Z</time></trkpt><trkpt lat="44.92578182620909" lon="9.029598294859754"><ele>162.5</ele><time>2026-05-01T12:29:43.003Z</time></trkpt><trkpt lat="44.925697509607126" lon="9.02962871509192"><ele>162.33333333333334</ele><time>2026-05-01T12:29:44.003Z</time></trkpt><trkpt lat="44.925613946445885" lon="9.02965756106477"><ele>162.16666666666666</ele><time>2026-05-01T12:29:45.003Z</time></trkpt><trkpt lat="44.92552829147717" lon="9.02967991633175"><ele>162.0</ele><time>2026-05-01T12:29:46.003Z</time></trkpt><trkpt lat="44.925465754896535" lon="9.029698184140324"><ele>162.0</ele><time>2026-05-01T12:29:47.003Z</time></trkpt><trkpt lat="44.92534914541697" lon="9.02970852210645"><ele>162.0</ele><time>2026-05-01T12:29:49.003Z</time></trkpt><trkpt lat="44.925284624148766" lon="9.029711392147824"><ele>162.0</ele><time>2026-05-01T12:29:50.003Z</time></trkpt><trkpt lat="44.925164296279284" lon="9.029696771274377"><ele>162.0</ele><time>2026-05-01T12:29:52.003Z</time></trkpt><trkpt lat="44.92510133346719" lon="9.029681420019458"><ele>162.0</ele><time>2026-05-01T12:29:53.003Z</time></trkpt><trkpt lat="44.92503672881097" lon="9.029669918601101"><ele>162.0</ele><time>2026-05-01T12:29:54.003Z</time></trkpt><trkpt lat="44.92497330124735" lon="9.029663256955939"><ele>162.2</ele><time>2026-05-01T12:29:55.003Z</time></trkpt><trkpt lat="44.92485438779221" lon="9.029656414159001"><ele>162.39999999999998</ele><time>2026-05-01T12:29:57.003Z</time></trkpt><trkpt lat="44.92473411794261" lon="9.029692800172162"><ele>162.60000000000002</ele><time>2026-05-01T12:29:59.003Z</time></trkpt><trkpt lat="44.92467189824592" lon="9.029716680511866"><ele>162.8</ele><time>2026-05-01T12:30:00.003Z</time></trkpt><trkpt lat="44.924569008402784" lon="9.029731412672017"><ele>163.0</ele><time>2026-05-01T12:30:02.003Z</time></trkpt><trkpt lat="44.92444587670958" lon="9.029785903407126"><ele>163.0</ele><time>2026-05-01T12:30:04.003Z</time></trkpt><trkpt lat="44.9243332124505" lon="9.02985691209043"><ele>163.0</ele><time>2026-05-01T12:30:05.998Z</time></trkpt><trkpt lat="44.92427654031287" lon="9.029896186603981"><ele>163.0</ele><time>2026-05-01T12:30:06.998Z</time></trkpt><trkpt lat="44.924213991093154" lon="9.02991838994994"><ele>163.0</ele><time>2026-05-01T12:30:07.998Z</time></trkpt><trkpt lat="44.92415136070988" lon="9.02994107760213"><ele>163.0</ele><time>2026-05-01T12:30:08.999Z</time></trkpt><trkpt lat="44.924087286840376" lon="9.029964746381793"><ele>163.0</ele><time>2026-05-01T12:30:09.999Z</time></trkpt><trkpt lat="44.92401979570496" lon="9.029983948881972"><ele>163.33333333333334</ele><time>2026-05-01T12:30:10.999Z</time></trkpt><trkpt lat="44.92395082841041" lon="9.030002774029214"><ele>163.66666666666669</ele><time>2026-05-01T12:30:11.999Z</time></trkpt><trkpt lat="44.9238815903741" lon="9.030024542913145"><ele>164.0</ele><time>2026-05-01T12:30:12.999Z</time></trkpt><trkpt lat="44.923814340498545" lon="9.03004528592289"><ele>164.33333333333334</ele><time>2026-05-01T12:30:13.999Z</time></trkpt><trkpt lat="44.92375094152866" lon="9.030065601026086"><ele>164.66666666666666</ele><time>2026-05-01T12:30:14.999Z</time></trkpt><trkpt lat="44.923626659029054" lon="9.030118675745754"><ele>165.0</ele><time>2026-05-01T12:30:16.999Z</time></trkpt><trkpt lat="44.923553581519776" lon="9.03014500510624"><ele>165.0</ele><time>2026-05-01T12:30:17.999Z</time></trkpt><trkpt lat="44.92347421404435" lon="9.030172511365075"><ele>165.0</ele><time>2026-05-01T12:30:18.999Z</time></trkpt><trkpt lat="44.92339911655462" lon="9.030198879276375"><ele>165.0</ele><time>2026-05-01T12:30:19.999Z</time></trkpt><trkpt lat="44.923315879905495" lon="9.03023153975504"><ele>165.0</ele><time>2026-05-01T12:30:20.999Z</time></trkpt><trkpt lat="44.92322859280542" lon="9.030261890765868"><ele>165.0</ele><time>2026-05-01T12:30:21.999Z</time></trkpt><trkpt lat="44.92314398200235" lon="9.030287326799042"><ele>165.0</ele><time>2026-05-01T12:30:22.999Z</time></trkpt><trkpt lat="44.923054178942024" lon="9.030316894312726"><ele>165.0</ele><time>2026-05-01T12:30:23.999Z</time></trkpt><trkpt lat="44.92296134893816" lon="9.03034313034275"><ele>165.0</ele><time>2026-05-01T12:30:24.999Z</time></trkpt><trkpt lat="44.92287241938886" lon="9.030369589836017"><ele>165.0</ele><time>2026-05-01T12:30:25.999Z</time></trkpt><trkpt lat="44.922787290325324" lon="9.030394871319842"><ele>165.0</ele><time>2026-05-01T12:30:27Z</time></trkpt><trkpt lat="44.9227017514218" lon="9.030425526498323"><ele>165.0</ele><time>2026-05-01T12:30:28Z</time></trkpt><trkpt lat="44.922623105422986" lon="9.030455483380978"><ele>165.0</ele><time>2026-05-01T12:30:29Z</time></trkpt><trkpt lat="44.92254310640263" lon="9.030486041962279"><ele>165.0</ele><time>2026-05-01T12:30:30Z</time></trkpt><trkpt lat="44.922468664702045" lon="9.030515844045746"><ele>165.0</ele><time>2026-05-01T12:30:31Z</time></trkpt><trkpt lat="44.9224066040771" lon="9.030539997328129"><ele>165.0</ele><time>2026-05-01T12:30:32Z</time></trkpt><trkpt lat="44.92229835123064" lon="9.030576195227278"><ele>165.0</ele><time>2026-05-01T12:30:34Z</time></trkpt><trkpt lat="44.92222538214858" lon="9.030497659975346"><ele>165.0</ele><time>2026-05-01T12:30:36Z</time></trkpt><trkpt lat="44.92216743108377" lon="9.0303357940789"><ele>165.0</ele><time>2026-05-01T12:30:38Z</time></trkpt><trkpt lat="44.92214385034392" lon="9.030245742795138"><ele>165.0</ele><time>2026-05-01T12:30:39Z</time></trkpt><trkpt lat="44.92212293557249" lon="9.030161456690275"><ele>165.0</ele><time>2026-05-01T12:30:40Z</time></trkpt><trkpt lat="44.92209923377599" lon="9.030072462905492"><ele>165.0</ele><time>2026-05-01T12:30:41Z</time></trkpt><trkpt lat="44.92207091999887" lon="9.02997005080429"><ele>165.0</ele><time>2026-05-01T12:30:43Z</time></trkpt><trkpt lat="44.922010255220464" lon="9.029915881094011"><ele>165.0</ele><time>2026-05-01T12:31:33.002Z</time></trkpt><trkpt lat="44.92191439029249" lon="9.029972769311009"><ele>165.0</ele><time>2026-05-01T12:31:36.002Z</time></trkpt><trkpt lat="44.92186259957944" lon="9.030045077145662"><ele>165.0</ele><time>2026-05-01T12:31:37.002Z</time></trkpt><trkpt lat="44.92179578496189" lon="9.030132835177591"><ele>165.0</ele><time>2026-05-01T12:31:38.002Z</time></trkpt><trkpt lat="44.92172969490533" lon="9.03020526481395"><ele>165.0</ele><time>2026-05-01T12:31:39.002Z</time></trkpt><trkpt lat="44.92166198978126" lon="9.030284577261739"><ele>165.0</ele><time>2026-05-01T12:31:40.002Z</time></trkpt><trkpt lat="44.92158862057017" lon="9.030369978886243"><ele>165.0</ele><time>2026-05-01T12:31:41.002Z</time></trkpt><trkpt lat="44.92151089743538" lon="9.030456140433747"><ele>165.2</ele><time>2026-05-01T12:31:42.002Z</time></trkpt><trkpt lat="44.92142823976278" lon="9.030544811387697"><ele>165.4</ele><time>2026-05-01T12:31:43.002Z</time></trkpt><trkpt lat="44.921346432917716" lon="9.030635676445966"><ele>165.60000000000002</ele><time>2026-05-01T12:31:44.002Z</time></trkpt><trkpt lat="44.92126327675843" lon="9.030724140075232"><ele>165.8</ele><time>2026-05-01T12:31:45.002Z</time></trkpt><trkpt lat="44.921175791475825" lon="9.030813741381099"><ele>166.0</ele><time>2026-05-01T12:31:46.002Z</time></trkpt><trkpt lat="44.92109234112337" lon="9.030900460539678"><ele>166.0</ele><time>2026-05-01T12:31:47.002Z</time></trkpt><trkpt lat="44.92101194413105" lon="9.03098201187943"><ele>166.0</ele><time>2026-05-01T12:31:48.003Z</time></trkpt><trkpt lat="44.92093706274218" lon="9.03105650481329"><ele>166.0</ele><time>2026-05-01T12:31:49.003Z</time></trkpt><trkpt lat="44.920864636557845" lon="9.031118173877918"><ele>166.0</ele><time>2026-05-01T12:31:50.003Z</time></trkpt><trkpt lat="44.92079331296285" lon="9.031155610276096"><ele>166.0</ele><time>2026-05-01T12:31:51.003Z</time></trkpt><trkpt lat="44.92072009953476" lon="9.03117067907942"><ele>166.0</ele><time>2026-05-01T12:31:52.003Z</time></trkpt><trkpt lat="44.92065580378366" lon="9.031168472827138"><ele>166.16666666666669</ele><time>2026-05-01T12:31:53.003Z</time></trkpt><trkpt lat="44.92054242404304" lon="9.031238381046936"><ele>166.33333333333334</ele><time>2026-05-01T12:31:55.003Z</time></trkpt><trkpt lat="44.92050870433442" lon="9.031315592751664"><ele>166.5</ele><time>2026-05-01T12:31:56.003Z</time></trkpt><trkpt lat="44.92049456250592" lon="9.031414467710501"><ele>166.66666666666666</ele><time>2026-05-01T12:31:57.003Z</time></trkpt><trkpt lat="44.92049508585793" lon="9.031541083158423"><ele>166.83333333333331</ele><time>2026-05-01T12:31:58.003Z</time></trkpt><trkpt lat="44.92047382796734" lon="9.031663426340192"><ele>167.0</ele><time>2026-05-01T12:31:59.003Z</time></trkpt><trkpt lat="44.92041845019555" lon="9.031764026733843"><ele>167.2</ele><time>2026-05-01T12:32:00.003Z</time></trkpt><trkpt lat="44.92034936606469" lon="9.031865870262461"><ele>167.39999999999998</ele><time>2026-05-01T12:32:01.003Z</time></trkpt><trkpt lat="44.92027170324826" lon="9.031981896745572"><ele>167.60000000000002</ele><time>2026-05-01T12:32:02.003Z</time></trkpt><trkpt lat="44.92019396083126" lon="9.032107823457359"><ele>167.8</ele><time>2026-05-01T12:32:03.003Z</time></trkpt><trkpt lat="44.92012523291755" lon="9.03223186218298"><ele>168.0</ele><time>2026-05-01T12:32:04.003Z</time></trkpt><trkpt lat="44.920056782317054" lon="9.032375508668819"><ele>168.5</ele><time>2026-05-01T12:32:05.003Z</time></trkpt><trkpt lat="44.91998608981967" lon="9.032532970106988"><ele>169.0</ele><time>2026-05-01T12:32:06.003Z</time></trkpt><trkpt lat="44.91991543744008" lon="9.03269493906707"><ele>169.5</ele><time>2026-05-01T12:32:07.003Z</time></trkpt><trkpt lat="44.91984237494148" lon="9.03285885135392"><ele>170.0</ele><time>2026-05-01T12:32:08.003Z</time></trkpt><trkpt lat="44.919768601787496" lon="9.033029684873865"><ele>170.0</ele><time>2026-05-01T12:32:09.003Z</time></trkpt><trkpt lat="44.919691723281524" lon="9.03320510992741"><ele>170.0</ele><time>2026-05-01T12:32:10.003Z</time></trkpt><trkpt lat="44.91961217467067" lon="9.033380496684837"><ele>170.0</ele><time>2026-05-01T12:32:10.997Z</time></trkpt><trkpt lat="44.91953943208127" lon="9.03354142304282"><ele>170.0</ele><time>2026-05-01T12:32:11.997Z</time></trkpt><trkpt lat="44.91946163932735" lon="9.0337121092352"><ele>171.0</ele><time>2026-05-01T12:32:12.997Z</time></trkpt><trkpt lat="44.919382866688025" lon="9.033893135674308"><ele>172.0</ele><time>2026-05-01T12:32:13.998Z</time></trkpt><trkpt lat="44.91930171124443" lon="9.034081116732011"><ele>173.0</ele><time>2026-05-01T12:32:14.998Z</time></trkpt><trkpt lat="44.91921554021987" lon="9.034273545211454"><ele>173.0</ele><time>2026-05-01T12:32:15.998Z</time></trkpt><trkpt lat="44.91912884603005" lon="9.034467615292469"><ele>173.0</ele><time>2026-05-01T12:32:16.998Z</time></trkpt><trkpt lat="44.91903992632923" lon="9.034667048103524"><ele>173.0</ele><time>2026-05-01T12:32:17.998Z</time></trkpt><trkpt lat="44.918956082954836" lon="9.034855811087818"><ele>175.0</ele><time>2026-05-01T12:32:18.998Z</time></trkpt><trkpt lat="44.91887362453658" lon="9.035043654419411"><ele>177.0</ele><time>2026-05-01T12:32:19.998Z</time></trkpt><trkpt lat="44.918790405312" lon="9.03523312074035"><ele>179.0</ele><time>2026-05-01T12:32:20.998Z</time></trkpt><trkpt lat="44.91870610122451" lon="9.03542551507766"><ele>179.0</ele><time>2026-05-01T12:32:21.998Z</time></trkpt><trkpt lat="44.91862276210052" lon="9.035618702671721"><ele>179.0</ele><time>2026-05-01T12:32:22.998Z</time></trkpt><trkpt lat="44.91853768187317" lon="9.035809611366913"><ele>179.0</ele><time>2026-05-01T12:32:23.998Z</time></trkpt><trkpt lat="44.91845053949616" lon="9.036001892089454"><ele>179.0</ele><time>2026-05-01T12:32:24.999Z</time></trkpt><trkpt lat="44.91836291979087" lon="9.036196059929253"><ele>179.0</ele><time>2026-05-01T12:32:25.999Z</time></trkpt><trkpt lat="44.918275732601316" lon="9.036389796432944"><ele>179.0</ele><time>2026-05-01T12:32:26.999Z</time></trkpt><trkpt lat="44.91818774490989" lon="9.036584980153162"><ele>180.33333333333331</ele><time>2026-05-01T12:32:27.999Z</time></trkpt><trkpt lat="44.91810011920121" lon="9.036781128236195"><ele>181.66666666666666</ele><time>2026-05-01T12:32:28.999Z</time></trkpt><trkpt lat="44.91800996610343" lon="9.036981505853426"><ele>183.0</ele><time>2026-05-01T12:32:29.999Z</time></trkpt><trkpt lat="44.91791645478498" lon="9.037177329081704"><ele>183.0</ele><time>2026-05-01T12:32:30.999Z</time></trkpt><trkpt lat="44.917828296008864" lon="9.037380697652884"><ele>183.0</ele><time>2026-05-01T12:32:31.999Z</time></trkpt><trkpt lat="44.9177462870245" lon="9.037568915851645"><ele>183.0</ele><time>2026-05-01T12:32:32.999Z</time></trkpt><trkpt lat="44.91765777790955" lon="9.037744408289951"><ele>183.0</ele><time>2026-05-01T12:32:33.999Z</time></trkpt><trkpt lat="44.91756943941357" lon="9.037916261341365"><ele>183.0</ele><time>2026-05-01T12:32:34.999Z</time></trkpt><trkpt lat="44.917465147573175" lon="9.038076977941069"><ele>183.0</ele><time>2026-05-01T12:32:36Z</time></trkpt><trkpt lat="44.917348039514565" lon="9.038224020990034"><ele>183.66666666666666</ele><time>2026-05-01T12:32:37Z</time></trkpt><trkpt lat="44.91722091540562" lon="9.038359754516794"><ele>184.33333333333331</ele><time>2026-05-01T12:32:38Z</time></trkpt><trkpt lat="44.91709091465464" lon="9.03849302811577"><ele>185.0</ele><time>2026-05-01T12:32:39Z</time></trkpt><trkpt lat="44.91695599856406" lon="9.038621491325088"><ele>185.0</ele><time>2026-05-01T12:32:40Z</time></trkpt><trkpt lat="44.91682016263467" lon="9.038756125032993"><ele>185.0</ele><time>2026-05-01T12:32:41Z</time></trkpt><trkpt lat="44.91668326001798" lon="9.038893788701643"><ele>185.0</ele><time>2026-05-01T12:32:42Z</time></trkpt><trkpt lat="44.91654412674481" lon="9.039032067101187"><ele>184.66666666666666</ele><time>2026-05-01T12:32:43Z</time></trkpt><trkpt lat="44.91640447258889" lon="9.039169253228652"><ele>184.33333333333334</ele><time>2026-05-01T12:32:44Z</time></trkpt><trkpt lat="44.91626419569537" lon="9.03930583994342"><ele>184.0</ele><time>2026-05-01T12:32:45Z</time></trkpt><trkpt lat="44.91612292900489" lon="9.03944551407623"><ele>184.0</ele><time>2026-05-01T12:32:46Z</time></trkpt><trkpt lat="44.91597958596868" lon="9.039585763825905"><ele>184.0</ele><time>2026-05-01T12:32:47Z</time></trkpt><trkpt lat="44.915836168777844" lon="9.039727736871914"><ele>184.0</ele><time>2026-05-01T12:32:48Z</time></trkpt><trkpt lat="44.91569891184477" lon="9.039863137395027"><ele>183.33333333333334</ele><time>2026-05-01T12:32:49Z</time></trkpt><trkpt lat="44.91556523821526" lon="9.039997809902456"><ele>182.66666666666666</ele><time>2026-05-01T12:32:50Z</time></trkpt><trkpt lat="44.915428339456405" lon="9.040134309008355"><ele>182.0</ele><time>2026-05-01T12:32:51Z</time></trkpt><trkpt lat="44.91528791183595" lon="9.040272052730348"><ele>182.0</ele><time>2026-05-01T12:32:52Z</time></trkpt><trkpt lat="44.91514788619077" lon="9.040414664853762"><ele>182.0</ele><time>2026-05-01T12:32:53Z</time></trkpt><trkpt lat="44.915005038006065" lon="9.040556074653628"><ele>182.0</ele><time>2026-05-01T12:32:54.001Z</time></trkpt><trkpt lat="44.91486598427523" lon="9.040693591687997"><ele>182.0</ele><time>2026-05-01T12:32:55.001Z</time></trkpt><trkpt lat="44.914715688132475" lon="9.040814422529904"><ele>182.0</ele><time>2026-05-01T12:32:56.001Z</time></trkpt><trkpt lat="44.91457332287402" lon="9.040953356898829"><ele>182.0</ele><time>2026-05-01T12:32:57.001Z</time></trkpt><trkpt lat="44.91444202128948" lon="9.041107079482268"><ele>182.0</ele><time>2026-05-01T12:32:58.001Z</time></trkpt><trkpt lat="44.91430174716679" lon="9.041241823534904"><ele>182.0</ele><time>2026-05-01T12:32:59.001Z</time></trkpt><trkpt lat="44.91416129713975" lon="9.041378494527928"><ele>182.0</ele><time>2026-05-01T12:33:00.001Z</time></trkpt><trkpt lat="44.914021765254624" lon="9.041512206272369"><ele>183.66666666666666</ele><time>2026-05-01T12:33:01.001Z</time></trkpt><trkpt lat="44.91388241384878" lon="9.041643232850832"><ele>185.33333333333334</ele><time>2026-05-01T12:33:02.001Z</time></trkpt><trkpt lat="44.913744796340765" lon="9.041773785021114"><ele>187.0</ele><time>2026-05-01T12:33:03.001Z</time></trkpt><trkpt lat="44.91360840360191" lon="9.04190791188762"><ele>187.0</ele><time>2026-05-01T12:33:04.001Z</time></trkpt><trkpt lat="44.913471300079294" lon="9.04204448597988"><ele>187.0</ele><time>2026-05-01T12:33:05.001Z</time></trkpt><trkpt lat="44.91333367719829" lon="9.04218066201026"><ele>187.0</ele><time>2026-05-01T12:33:06.001Z</time></trkpt><trkpt lat="44.91319774444693" lon="9.042317188520895"><ele>186.66666666666669</ele><time>2026-05-01T12:33:07.001Z</time></trkpt><trkpt lat="44.913060611748456" lon="9.042454052567832"><ele>186.33333333333334</ele><time>2026-05-01T12:33:08.001Z</time></trkpt><trkpt lat="44.912921570046656" lon="9.04258952767483"><ele>186.0</ele><time>2026-05-01T12:33:09.001Z</time></trkpt><trkpt lat="44.91278364677994" lon="9.04272395477448"><ele>186.0</ele><time>2026-05-01T12:33:10.001Z</time></trkpt><trkpt lat="44.91264824505109" lon="9.042856446625638"><ele>186.0</ele><time>2026-05-01T12:33:11.001Z</time></trkpt><trkpt lat="44.91251301652685" lon="9.0429890310729"><ele>186.0</ele><time>2026-05-01T12:33:12.001Z</time></trkpt><trkpt lat="44.912379642098784" lon="9.0431198435422"><ele>186.0</ele><time>2026-05-01T12:33:13.001Z</time></trkpt><trkpt lat="44.912247335193996" lon="9.043249591141933"><ele>186.0</ele><time>2026-05-01T12:33:14.001Z</time></trkpt><trkpt lat="44.91211551910691" lon="9.043379868019372"><ele>186.0</ele><time>2026-05-01T12:33:15.001Z</time></trkpt><trkpt lat="44.911982278078085" lon="9.04350846937183"><ele>186.66666666666666</ele><time>2026-05-01T12:33:16.001Z</time></trkpt><trkpt lat="44.91184992626591" lon="9.043635419203992"><ele>187.33333333333331</ele><time>2026-05-01T12:33:17.001Z</time></trkpt><trkpt lat="44.91171680806055" lon="9.04376280058306"><ele>188.0</ele><time>2026-05-01T12:33:18.001Z</time></trkpt><trkpt lat="44.91158469442979" lon="9.043892313144784"><ele>188.0</ele><time>2026-05-01T12:33:19.001Z</time></trkpt><trkpt lat="44.911454183387356" lon="9.044022235786151"><ele>188.0</ele><time>2026-05-01T12:33:20.001Z</time></trkpt><trkpt lat="44.91132094674838" lon="9.044149790728879"><ele>188.0</ele><time>2026-05-01T12:33:21.002Z</time></trkpt><trkpt lat="44.91118843048281" lon="9.044277814755546"><ele>189.33333333333331</ele><time>2026-05-01T12:33:22.002Z</time></trkpt><trkpt lat="44.91105652094699" lon="9.044405622648796"><ele>190.66666666666666</ele><time>2026-05-01T12:33:23.002Z</time></trkpt><trkpt lat="44.910928087735975" lon="9.044530804707128"><ele>192.0</ele><time>2026-05-01T12:33:24.002Z</time></trkpt><trkpt lat="44.910802094350885" lon="9.044655750002523"><ele>192.0</ele><time>2026-05-01T12:33:25.002Z</time></trkpt><trkpt lat="44.91067875975784" lon="9.044777865107553"><ele>192.0</ele><time>2026-05-01T12:33:26.002Z</time></trkpt><trkpt lat="44.91055723429754" lon="9.04489982495785"><ele>192.0</ele><time>2026-05-01T12:33:27.002Z</time></trkpt><trkpt lat="44.910432184922634" lon="9.045023165066839"><ele>193.0</ele><time>2026-05-01T12:33:28.002Z</time></trkpt><trkpt lat="44.91030559003764" lon="9.045146528404914"><ele>194.0</ele><time>2026-05-01T12:33:29.002Z</time></trkpt><trkpt lat="44.910176915115" lon="9.045272458943888"><ele>195.0</ele><time>2026-05-01T12:33:30.002Z</time></trkpt><trkpt lat="44.91004805693519" lon="9.045398246471422"><ele>193.0</ele><time>2026-05-01T12:33:31.002Z</time></trkpt><trkpt lat="44.90991718852758" lon="9.045523680338977"><ele>191.0</ele><time>2026-05-01T12:33:32.002Z</time></trkpt><trkpt lat="44.9097881905261" lon="9.045647815003688"><ele>189.0</ele><time>2026-05-01T12:33:33.002Z</time></trkpt><trkpt lat="44.909662119473964" lon="9.045768442955186"><ele>189.33333333333334</ele><time>2026-05-01T12:33:34.002Z</time></trkpt><trkpt lat="44.90953540550581" lon="9.0458911607692"><ele>189.66666666666669</ele><time>2026-05-01T12:33:35.002Z</time></trkpt><trkpt lat="44.9094081442163" lon="9.046014023895351"><ele>190.0</ele><time>2026-05-01T12:33:36.002Z</time></trkpt><trkpt lat="44.909280165869184" lon="9.046138467267268"><ele>190.0</ele><time>2026-05-01T12:33:37.002Z</time></trkpt><trkpt lat="44.90914819107846" lon="9.046260315417747"><ele>190.0</ele><time>2026-05-01T12:33:38.002Z</time></trkpt><trkpt lat="44.90901757885637" lon="9.04637632598637"><ele>190.0</ele><time>2026-05-01T12:33:39.002Z</time></trkpt><trkpt lat="44.90889593810175" lon="9.046505403417932"><ele>190.0</ele><time>2026-05-01T12:33:40.002Z</time></trkpt><trkpt lat="44.90876811572463" lon="9.04663266589754"><ele>190.0</ele><time>2026-05-01T12:33:41.002Z</time></trkpt><trkpt lat="44.90864020038338" lon="9.04675677022072"><ele>190.0</ele><time>2026-05-01T12:33:42.002Z</time></trkpt><trkpt lat="44.90851077847476" lon="9.046886740250224"><ele>190.0</ele><time>2026-05-01T12:33:43.002Z</time></trkpt><trkpt lat="44.90838102549044" lon="9.04701690143738"><ele>190.0</ele><time>2026-05-01T12:33:44.002Z</time></trkpt><trkpt lat="44.90824982055533" lon="9.047149637170024"><ele>190.0</ele><time>2026-05-01T12:33:45.002Z</time></trkpt><trkpt lat="44.90811839815654" lon="9.047280124232804"><ele>190.0</ele><time>2026-05-01T12:33:46.002Z</time></trkpt><trkpt lat="44.90798406794877" lon="9.047412155015047"><ele>190.0</ele><time>2026-05-01T12:33:47.002Z</time></trkpt><trkpt lat="44.9078509205777" lon="9.047543769561285"><ele>190.0</ele><time>2026-05-01T12:33:48.002Z</time></trkpt><trkpt lat="44.90771782177993" lon="9.047676461338042"><ele>189.66666666666669</ele><time>2026-05-01T12:33:49.002Z</time></trkpt><trkpt lat="44.90758690225976" lon="9.04780898570203"><ele>189.33333333333334</ele><time>2026-05-01T12:33:50.002Z</time></trkpt><trkpt lat="44.90745640618611" lon="9.047940163711873"><ele>189.0</ele><time>2026-05-01T12:33:51.002Z</time></trkpt><trkpt lat="44.90732311080891" lon="9.048071960751118"><ele>189.0</ele><time>2026-05-01T12:33:52.002Z</time></trkpt><trkpt lat="44.90718970537817" lon="9.048204288950188"><ele>189.0</ele><time>2026-05-01T12:33:53.003Z</time></trkpt><trkpt lat="44.90704673470471" lon="9.048317942357714"><ele>189.0</ele><time>2026-05-01T12:33:54.003Z</time></trkpt><trkpt lat="44.90691113332578" lon="9.04845096270527"><ele>189.66666666666666</ele><time>2026-05-01T12:33:55.003Z</time></trkpt><trkpt lat="44.90677330146552" lon="9.048586171079203"><ele>190.33333333333331</ele><time>2026-05-01T12:33:56.003Z</time></trkpt><trkpt lat="44.90663397261215" lon="9.048722847947607"><ele>191.0</ele><time>2026-05-01T12:33:57.003Z</time></trkpt><trkpt lat="44.90650055735547" lon="9.0488537237782"><ele>190.25</ele><time>2026-05-01T12:33:58.003Z</time></trkpt><trkpt lat="44.90638309218638" lon="9.048996749393362"><ele>189.5</ele><time>2026-05-01T12:33:59.003Z</time></trkpt><trkpt lat="44.90626570902412" lon="9.049112083867499"><ele>188.75</ele><time>2026-05-01T12:34:00.003Z</time></trkpt><trkpt lat="44.906156332664665" lon="9.049211437751179"><ele>188.0</ele><time>2026-05-01T12:34:01.003Z</time></trkpt><trkpt lat="44.90605973700236" lon="9.049302742696856"><ele>188.0</ele><time>2026-05-01T12:34:02.003Z</time></trkpt><trkpt lat="44.90597873812491" lon="9.049378303660097"><ele>188.0</ele><time>2026-05-01T12:34:03.003Z</time></trkpt><trkpt lat="44.9059180188662" lon="9.049438008737003"><ele>188.0</ele><time>2026-05-01T12:34:04.003Z</time></trkpt><trkpt lat="44.905846388931984" lon="9.049471980070999"><ele>188.0</ele><time>2026-05-01T12:34:06.003Z</time></trkpt><trkpt lat="44.9059122409" lon="9.049687773538341"><ele>188.0</ele><time>2026-05-01T12:34:26.997Z</time></trkpt><trkpt lat="44.905935555919264" lon="9.049786629079536"><ele>188.0</ele><time>2026-05-01T12:34:27.998Z</time></trkpt><trkpt lat="44.905963835502696" lon="9.049898216830535"><ele>188.0</ele><time>2026-05-01T12:34:28.998Z</time></trkpt><trkpt lat="44.90599665833849" lon="9.050026347617749"><ele>188.0</ele><time>2026-05-01T12:34:29.998Z</time></trkpt><trkpt lat="44.90602817073378" lon="9.050155446783284"><ele>188.0</ele><time>2026-05-01T12:34:30.998Z</time></trkpt><trkpt lat="44.906051214954424" lon="9.050252762741906"><ele>188.0</ele><time>2026-05-01T12:34:31.998Z</time></trkpt><trkpt lat="44.90607273942769" lon="9.05034448300901"><ele>188.0</ele><time>2026-05-01T12:34:32.998Z</time></trkpt><trkpt lat="44.90609557821679" lon="9.050443374960432"><ele>189.0</ele><time>2026-05-01T12:34:33.998Z</time></trkpt><trkpt lat="44.90611926836547" lon="9.050547766377909"><ele>190.0</ele><time>2026-05-01T12:34:34.999Z</time></trkpt><trkpt lat="44.90614353380075" lon="9.05065469287234"><ele>191.0</ele><time>2026-05-01T12:34:35.999Z</time></trkpt><trkpt lat="44.90616693602424" lon="9.050760990606236"><ele>192.0</ele><time>2026-05-01T12:34:36.999Z</time></trkpt><trkpt lat="44.906187373099165" lon="9.050859062432721"><ele>193.00000000000003</ele><time>2026-05-01T12:34:37.999Z</time></trkpt><trkpt lat="44.906186764185165" lon="9.051003980966243"><ele>194.0</ele><time>2026-05-01T12:34:39.999Z</time></trkpt><trkpt lat="44.906086923601706" lon="9.05114597244654"><ele>194.79999999999998</ele><time>2026-05-01T12:34:41.999Z</time></trkpt><trkpt lat="44.90603391581849" lon="9.051270118965743"><ele>195.6</ele><time>2026-05-01T12:34:42.999Z</time></trkpt><trkpt lat="44.905951617567716" lon="9.051372611974914"><ele>196.4</ele><time>2026-05-01T12:34:43.999Z</time></trkpt><trkpt lat="44.905867416340456" lon="9.05147378353757"><ele>197.2</ele><time>2026-05-01T12:34:45Z</time></trkpt><trkpt lat="44.90578729968641" lon="9.05156340316784"><ele>198.0</ele><time>2026-05-01T12:34:46Z</time></trkpt><trkpt lat="44.9057065850653" lon="9.051637372330022"><ele>199.2</ele><time>2026-05-01T12:34:47Z</time></trkpt><trkpt lat="44.905634632934806" lon="9.051732108399756"><ele>200.4</ele><time>2026-05-01T12:34:48Z</time></trkpt><trkpt lat="44.90555885973383" lon="9.051808609570394"><ele>201.6</ele><time>2026-05-01T12:34:49Z</time></trkpt><trkpt lat="44.9054863180151" lon="9.051908680323884"><ele>202.79999999999998</ele><time>2026-05-01T12:34:50Z</time></trkpt><trkpt lat="44.90541476859706" lon="9.052020000781944"><ele>204.0</ele><time>2026-05-01T12:34:51Z</time></trkpt><trkpt lat="44.905327613681266" lon="9.05210634170049"><ele>204.0</ele><time>2026-05-01T12:34:52Z</time></trkpt><trkpt lat="44.90526474079202" lon="9.05221158160441"><ele>204.0</ele><time>2026-05-01T12:34:53Z</time></trkpt><trkpt lat="44.90521679742253" lon="9.052308729489924"><ele>204.0</ele><time>2026-05-01T12:34:54Z</time></trkpt><trkpt lat="44.905195903121644" lon="9.052397940075688"><ele>204.0</ele><time>2026-05-01T12:34:55Z</time></trkpt><trkpt lat="44.90518329812337" lon="9.052570340176407"><ele>204.0</ele><time>2026-05-01T12:34:57Z</time></trkpt><trkpt lat="44.90520433974759" lon="9.052690360770164"><ele>205.2</ele><time>2026-05-01T12:34:58Z</time></trkpt><trkpt lat="44.905232064272596" lon="9.052822602747312"><ele>206.39999999999998</ele><time>2026-05-01T12:34:59Z</time></trkpt><trkpt lat="44.90523873419002" lon="9.05296645243768"><ele>207.6</ele><time>2026-05-01T12:35:00Z</time></trkpt><trkpt lat="44.905242428838925" lon="9.05309496676083"><ele>208.8</ele><time>2026-05-01T12:35:01.001Z</time></trkpt><trkpt lat="44.90525415489004" lon="9.053233385806541"><ele>210.0</ele><time>2026-05-01T12:35:02.001Z</time></trkpt><trkpt lat="44.905273590884164" lon="9.053376070417562"><ele>212.0</ele><time>2026-05-01T12:35:03.001Z</time></trkpt><trkpt lat="44.90526919539619" lon="9.05351657693012"><ele>214.0</ele><time>2026-05-01T12:35:04.001Z</time></trkpt><trkpt lat="44.90527728446303" lon="9.053655730893222"><ele>216.0</ele><time>2026-05-01T12:35:05.001Z</time></trkpt><trkpt lat="44.9052853918094" lon="9.053795199318614"><ele>218.0</ele><time>2026-05-01T12:35:06.001Z</time></trkpt><trkpt lat="44.90529318806973" lon="9.05392931622232"><ele>220.0</ele><time>2026-05-01T12:35:07.001Z</time></trkpt><trkpt lat="44.90529907093462" lon="9.054031419201252"><ele>220.8</ele><time>2026-05-01T12:35:08.001Z</time></trkpt><trkpt lat="44.90531602066209" lon="9.054129584560913"><ele>221.6</ele><time>2026-05-01T12:35:13.001Z</time></trkpt><trkpt lat="44.905314173640726" lon="9.054237254507294"><ele>222.39999999999998</ele><time>2026-05-01T12:35:15.001Z</time></trkpt><trkpt lat="44.905216128601865" lon="9.054356902420077"><ele>223.2</ele><time>2026-05-01T12:35:17.001Z</time></trkpt><trkpt lat="44.90514049860045" lon="9.054486423378247"><ele>224.0</ele><time>2026-05-01T12:35:19.001Z</time></trkpt><trkpt lat="44.9050678207998" lon="9.05461088851012"><ele>224.0</ele><time>2026-05-01T12:35:21.001Z</time></trkpt><trkpt lat="44.90502070980091" lon="9.054684898189176"><ele>223.99999999999997</ele><time>2026-05-01T12:35:23.001Z</time></trkpt><trkpt lat="44.90497469177352" lon="9.054770377799677"><ele>223.99999999999997</ele><time>2026-05-01T12:35:25.001Z</time></trkpt><trkpt lat="44.904921366736076" lon="9.054861700346706"><ele>224.0</ele><time>2026-05-01T12:35:27.002Z</time></trkpt><trkpt lat="44.904778855554795" lon="9.054843170462153"><ele>224.0</ele><time>2026-05-01T12:35:29.002Z</time></trkpt><trkpt lat="44.90468393634827" lon="9.054889300717385"><ele>224.0</ele><time>2026-05-01T12:35:31.002Z</time></trkpt><trkpt lat="44.904598670076126" lon="9.05493584774459"><ele>223.99999999999997</ele><time>2026-05-01T12:35:33.002Z</time></trkpt><trkpt lat="44.9044983253526" lon="9.054990773496476"><ele>223.99999999999997</ele><time>2026-05-01T12:35:35.002Z</time></trkpt><trkpt lat="44.90439670225165" lon="9.055035008471219"><ele>224.0</ele><time>2026-05-01T12:35:37.002Z</time></trkpt><trkpt lat="44.90429213236861" lon="9.055065826774198"><ele>224.0</ele><time>2026-05-01T12:35:39.002Z</time></trkpt><trkpt lat="44.904206027753325" lon="9.05512234936327"><ele>225.0</ele><time>2026-05-01T12:35:41.002Z</time></trkpt><trkpt lat="44.904101130565266" lon="9.05514101524984"><ele>225.99999999999997</ele><time>2026-05-01T12:35:43.002Z</time></trkpt><trkpt lat="44.90399846342749" lon="9.055163758373618"><ele>226.99999999999997</ele><time>2026-05-01T12:35:45.002Z</time></trkpt><trkpt lat="44.90389636060077" lon="9.055193519762948"><ele>228.0</ele><time>2026-05-01T12:35:47.002Z</time></trkpt><trkpt lat="44.90378924490599" lon="9.055223086386295"><ele>229.0</ele><time>2026-05-01T12:35:49.002Z</time></trkpt><trkpt lat="44.90372862770629" lon="9.05530355491072"><ele>229.0</ele><time>2026-05-01T12:35:51.002Z</time></trkpt><trkpt lat="44.903620426143355" lon="9.055312507889603"><ele>228.99999999999997</ele><time>2026-05-01T12:35:53.002Z</time></trkpt><trkpt lat="44.903533578210826" lon="9.055324984521123"><ele>228.99999999999997</ele><time>2026-05-01T12:35:55.002Z</time></trkpt><trkpt lat="44.903412387920845" lon="9.055334988651188"><ele>229.0</ele><time>2026-05-01T12:35:57.002Z</time></trkpt><trkpt lat="44.90334400901403" lon="9.055344535606217"><ele>229.0</ele><time>2026-05-01T12:36:00.003Z</time></trkpt><trkpt lat="44.90327967896121" lon="9.055340479616893"><ele>226.83333333333331</ele><time>2026-05-01T12:36:02.003Z</time></trkpt><trkpt lat="44.90320987697701" lon="9.055346964355389"><ele>224.66666666666666</ele><time>2026-05-01T12:36:04.003Z</time></trkpt><trkpt lat="44.90310155808091" lon="9.055352194982357"><ele>222.5</ele><time>2026-05-01T12:36:06.003Z</time></trkpt><trkpt lat="44.9030206550113" lon="9.055349595768668"><ele>220.33333333333331</ele><time>2026-05-01T12:36:08.003Z</time></trkpt><trkpt lat="44.902949247914215" lon="9.055352900042777"><ele>218.16666666666666</ele><time>2026-05-01T12:36:10.003Z</time></trkpt><trkpt lat="44.90288360846723" lon="9.055370092053273"><ele>216.0</ele><time>2026-05-01T12:36:12.003Z</time></trkpt><trkpt lat="44.902806977295214" lon="9.055376223185128"><ele>216.0</ele><time>2026-05-01T12:36:14.003Z</time></trkpt><trkpt lat="44.90272147874817" lon="9.055390548303368"><ele>216.00000000000003</ele><time>2026-05-01T12:36:16.003Z</time></trkpt><trkpt lat="44.90261509304581" lon="9.0554166242878"><ele>216.00000000000003</ele><time>2026-05-01T12:36:18.003Z</time></trkpt><trkpt lat="44.90251719158991" lon="9.055429299698638"><ele>216.0</ele><time>2026-05-01T12:36:20.003Z</time></trkpt><trkpt lat="44.90241817818133" lon="9.05542809222443"><ele>216.0</ele><time>2026-05-01T12:36:22.003Z</time></trkpt><trkpt lat="44.902315250572194" lon="9.055441619247713"><ele>213.8</ele><time>2026-05-01T12:36:23.996Z</time></trkpt><trkpt lat="44.90221374728074" lon="9.055445758659696"><ele>211.60000000000002</ele><time>2026-05-01T12:36:25.997Z</time></trkpt><trkpt lat="44.90211695127209" lon="9.055459853702846"><ele>209.4</ele><time>2026-05-01T12:36:27.997Z</time></trkpt><trkpt lat="44.902053323217714" lon="9.055488560584621"><ele>207.2</ele><time>2026-05-01T12:36:29.997Z</time></trkpt><trkpt lat="44.90194323253614" lon="9.05551269989278"><ele>205.0</ele><time>2026-05-01T12:36:31.997Z</time></trkpt><trkpt lat="44.90185597264089" lon="9.05553779032177"><ele>204.4</ele><time>2026-05-01T12:36:33.998Z</time></trkpt><trkpt lat="44.90174054192899" lon="9.055572887760048"><ele>203.8</ele><time>2026-05-01T12:36:35.998Z</time></trkpt><trkpt lat="44.90162485505468" lon="9.055596791404811"><ele>203.2</ele><time>2026-05-01T12:36:37.998Z</time></trkpt><trkpt lat="44.90155151868433" lon="9.055586264953062"><ele>202.6</ele><time>2026-05-01T12:36:38.998Z</time></trkpt><trkpt lat="44.90148591728415" lon="9.0555711036199"><ele>202.0</ele><time>2026-05-01T12:36:39.998Z</time></trkpt><trkpt lat="44.90136117822583" lon="9.055513690834374"><ele>201.99999999999997</ele><time>2026-05-01T12:36:41.999Z</time></trkpt><trkpt lat="44.90128876412379" lon="9.055482121942427"><ele>202.0</ele><time>2026-05-01T12:36:42.999Z</time></trkpt><trkpt lat="44.90122163398688" lon="9.055444631537199"><ele>202.0</ele><time>2026-05-01T12:36:43.999Z</time></trkpt><trkpt lat="44.90114518351652" lon="9.055416373764215"><ele>202.0</ele><time>2026-05-01T12:36:44.999Z</time></trkpt><trkpt lat="44.90103327298641" lon="9.055312286904753"><ele>201.99999999999997</ele><time>2026-05-01T12:36:46.999Z</time></trkpt><trkpt lat="44.90097145617601" lon="9.055260997406508"><ele>202.0</ele><time>2026-05-01T12:36:47.999Z</time></trkpt><trkpt lat="44.9009069333794" lon="9.055209233744002"><ele>202.2</ele><time>2026-05-01T12:36:48.999Z</time></trkpt><trkpt lat="44.90084627452478" lon="9.055157040140736"><ele>202.39999999999998</ele><time>2026-05-01T12:36:49.999Z</time></trkpt><trkpt lat="44.900773188841036" lon="9.055122064206863"><ele>202.60000000000002</ele><time>2026-05-01T12:36:50.999Z</time></trkpt><trkpt lat="44.90067359610321" lon="9.055065383908087"><ele>202.8</ele><time>2026-05-01T12:36:53Z</time></trkpt><trkpt lat="44.90058462052277" lon="9.054979790536864"><ele>203.0</ele><time>2026-05-01T12:36:55Z</time></trkpt><trkpt lat="44.900490459452996" lon="9.054858498708635"><ele>201.83333333333334</ele><time>2026-05-01T12:36:57Z</time></trkpt><trkpt lat="44.900439219814366" lon="9.05480289504077"><ele>200.66666666666669</ele><time>2026-05-01T12:36:58Z</time></trkpt><trkpt lat="44.900386991213544" lon="9.05474311716888"><ele>199.5</ele><time>2026-05-01T12:36:59Z</time></trkpt><trkpt lat="44.900289354507834" lon="9.05464373099186"><ele>198.33333333333331</ele><time>2026-05-01T12:37:01Z</time></trkpt><trkpt lat="44.90022124379038" lon="9.054594321049503"><ele>197.16666666666666</ele><time>2026-05-01T12:37:03Z</time></trkpt><trkpt lat="44.90018450340871" lon="9.05446932618671"><ele>196.0</ele><time>2026-05-01T12:37:13.001Z</time></trkpt><trkpt lat="44.90021563652091" lon="9.054294495977935"><ele>195.99999999999997</ele><time>2026-05-01T12:37:15.001Z</time></trkpt><trkpt lat="44.900214440668314" lon="9.05420237957465"><ele>196.0</ele><time>2026-05-01T12:37:16.001Z</time></trkpt><trkpt lat="44.90015939545128" lon="9.054033372620964"><ele>196.0</ele><time>2026-05-01T12:37:18.001Z</time></trkpt><trkpt lat="44.900103376336695" lon="9.053975291106747"><ele>196.0</ele><time>2026-05-01T12:37:19.001Z</time></trkpt><trkpt lat="44.90004562386304" lon="9.053935009328846"><ele>195.99999999999997</ele><time>2026-05-01T12:37:20.001Z</time></trkpt><trkpt lat="44.89994908585117" lon="9.053889582139456"><ele>196.0</ele><time>2026-05-01T12:37:22.001Z</time></trkpt><trkpt lat="44.89987122256939" lon="9.053856961424751"><ele>195.0</ele><time>2026-05-01T12:37:24.001Z</time></trkpt><trkpt lat="44.89980504883943" lon="9.053814139311994"><ele>194.0</ele><time>2026-05-01T12:37:27.001Z</time></trkpt><trkpt lat="44.899654389159366" lon="9.053890339091247"><ele>193.0</ele><time>2026-05-01T12:37:37.002Z</time></trkpt><trkpt lat="44.89959130032622" lon="9.05392798429081"><ele>192.0</ele><time>2026-05-01T12:37:38.002Z</time></trkpt><trkpt lat="44.89949927959294" lon="9.053985325342286"><ele>191.0</ele><time>2026-05-01T12:37:40.002Z</time></trkpt><trkpt lat="44.89940895761143" lon="9.054041607854318"><ele>191.0</ele><time>2026-05-01T12:37:42.002Z</time></trkpt><trkpt lat="44.89932117208957" lon="9.054096309812616"><ele>191.0</ele><time>2026-05-01T12:37:44.002Z</time></trkpt><trkpt lat="44.899245139458856" lon="9.054143688270093"><ele>191.0</ele><time>2026-05-01T12:37:47.002Z</time></trkpt><trkpt lat="44.89933537866012" lon="9.054087457247498"><ele>191.0</ele><time>2026-05-01T12:38:41.998Z</time></trkpt><trkpt lat="44.89945078018506" lon="9.054015546811895"><ele>191.0</ele><time>2026-05-01T12:38:43.998Z</time></trkpt><trkpt lat="44.899562988549576" lon="9.053945626101477"><ele>191.0</ele><time>2026-05-01T12:38:45.999Z</time></trkpt><trkpt lat="44.89965271853485" lon="9.053889712494648"><ele>191.0</ele><time>2026-05-01T12:38:47.999Z</time></trkpt><trkpt lat="44.89972656489179" lon="9.053845678872847"><ele>191.0</ele><time>2026-05-01T12:38:50.999Z</time></trkpt><trkpt lat="44.89978257443663" lon="9.053796396316224"><ele>191.0</ele><time>2026-05-01T12:39:02Z</time></trkpt><trkpt lat="44.89974727767588" lon="9.053685485389803"><ele>191.0</ele><time>2026-05-01T12:39:04Z</time></trkpt><trkpt lat="44.899721423148975" lon="9.053581894554503"><ele>191.0</ele><time>2026-05-01T12:39:05Z</time></trkpt><trkpt lat="44.89969534699506" lon="9.053488706910741"><ele>191.0</ele><time>2026-05-01T12:39:06Z</time></trkpt><trkpt lat="44.89967159543434" lon="9.053390337616483"><ele>191.0</ele><time>2026-05-01T12:39:07Z</time></trkpt><trkpt lat="44.89964475570147" lon="9.05329060065076"><ele>191.0</ele><time>2026-05-01T12:39:09Z</time></trkpt><trkpt lat="44.899704212636" lon="9.053165386994788"><ele>191.0</ele><time>2026-05-01T12:39:21.001Z</time></trkpt><trkpt lat="44.89978184967627" lon="9.053128129186968"><ele>191.0</ele><time>2026-05-01T12:39:22.001Z</time></trkpt><trkpt lat="44.89987715631961" lon="9.053087815575394"><ele>191.0</ele><time>2026-05-01T12:39:23.001Z</time></trkpt><trkpt lat="44.89996555559079" lon="9.053045992646101"><ele>190.0</ele><time>2026-05-01T12:39:24.001Z</time></trkpt><trkpt lat="44.90007514390575" lon="9.0530010820319"><ele>189.0</ele><time>2026-05-01T12:39:25.001Z</time></trkpt><trkpt lat="44.900190538462184" lon="9.052931157787011"><ele>188.0</ele><time>2026-05-01T12:39:26.001Z</time></trkpt><trkpt lat="44.90031634313014" lon="9.052862654768829"><ele>187.0</ele><time>2026-05-01T12:39:27.001Z</time></trkpt><trkpt lat="44.90043733392524" lon="9.05278795076606"><ele>187.0</ele><time>2026-05-01T12:39:28.001Z</time></trkpt><trkpt lat="44.90058496224399" lon="9.052696148923149"><ele>187.0</ele><time>2026-05-01T12:39:29.001Z</time></trkpt><trkpt lat="44.90074886243764" lon="9.052598203545164"><ele>187.0</ele><time>2026-05-01T12:39:30.001Z</time></trkpt><trkpt lat="44.90089348188895" lon="9.0525068902881"><ele>187.25</ele><time>2026-05-01T12:39:31.001Z</time></trkpt><trkpt lat="44.90103491325825" lon="9.052428694004128"><ele>187.5</ele><time>2026-05-01T12:39:32.001Z</time></trkpt><trkpt lat="44.90117688781224" lon="9.052344880540907"><ele>187.75</ele><time>2026-05-01T12:39:33.001Z</time></trkpt><trkpt lat="44.90130829392602" lon="9.052266379449007"><ele>188.0</ele><time>2026-05-01T12:39:34.001Z</time></trkpt><trkpt lat="44.90142886311081" lon="9.052194019190644"><ele>188.0</ele><time>2026-05-01T12:39:35.001Z</time></trkpt><trkpt lat="44.90155274879571" lon="9.052118938271722"><ele>188.0</ele><time>2026-05-01T12:39:36.001Z</time></trkpt><trkpt lat="44.90168151185024" lon="9.05204363665371"><ele>188.0</ele><time>2026-05-01T12:39:37.001Z</time></trkpt><trkpt lat="44.90181114636889" lon="9.051966566773041"><ele>188.0</ele><time>2026-05-01T12:39:38.001Z</time></trkpt><trkpt lat="44.9019390716979" lon="9.051884504427473"><ele>187.5</ele><time>2026-05-01T12:39:39.002Z</time></trkpt><trkpt lat="44.90206192899322" lon="9.051806454338339"><ele>187.0</ele><time>2026-05-01T12:39:40.002Z</time></trkpt><trkpt lat="44.90217362142503" lon="9.051734958101727"><ele>186.5</ele><time>2026-05-01T12:39:41.002Z</time></trkpt><trkpt lat="44.902275457978334" lon="9.051673714109777"><ele>186.0</ele><time>2026-05-01T12:39:42.002Z</time></trkpt><trkpt lat="44.90235804692757" lon="9.051614937316831"><ele>186.0</ele><time>2026-05-01T12:39:43.002Z</time></trkpt><trkpt lat="44.90241935147761" lon="9.051574648175315"><ele>186.0</ele><time>2026-05-01T12:39:44.002Z</time></trkpt><trkpt lat="44.902509915469835" lon="9.05153593653539"><ele>186.0</ele><time>2026-05-01T12:39:46.002Z</time></trkpt><trkpt lat="44.90246024307768" lon="9.05137564547872"><ele>186.0</ele><time>2026-05-01T12:39:48.002Z</time></trkpt><trkpt lat="44.90258774909149" lon="9.051254266380232"><ele>186.0</ele><time>2026-05-01T12:41:57.002Z</time></trkpt><trkpt lat="44.90266155588457" lon="9.05120697838504"><ele>186.0</ele><time>2026-05-01T12:41:59.002Z</time></trkpt><trkpt lat="44.902684763115985" lon="9.051075847827876"><ele>186.0</ele><time>2026-05-01T12:44:49.001Z</time></trkpt><trkpt lat="44.902772738367894" lon="9.051069139424499"><ele>186.0</ele><time>2026-05-01T12:44:56.001Z</time></trkpt><trkpt lat="44.902664401592304" lon="9.051263967084509"><ele>186.0</ele><time>2026-05-01T12:44:57.001Z</time></trkpt><trkpt lat="44.90257880425966" lon="9.051300450815319"><ele>186.0</ele><time>2026-05-01T12:48:34.002Z</time></trkpt><trkpt lat="44.90254439402998" lon="9.051392406553564"><ele>186.0</ele><time>2026-05-01T12:48:36.002Z</time></trkpt><trkpt lat="44.90248093430278" lon="9.051501966620348"><ele>186.0</ele><time>2026-05-01T12:48:39.002Z</time></trkpt><trkpt lat="44.90235922561643" lon="9.051583764640279"><ele>186.0</ele><time>2026-05-01T12:48:41.002Z</time></trkpt><trkpt lat="44.90229104886576" lon="9.051626855031516"><ele>186.0</ele><time>2026-05-01T12:48:42.002Z</time></trkpt><trkpt lat="44.902210424669036" lon="9.05167622918122"><ele>186.0</ele><time>2026-05-01T12:48:43.002Z</time></trkpt><trkpt lat="44.902120078267714" lon="9.051730750436251"><ele>186.4</ele><time>2026-05-01T12:48:44.002Z</time></trkpt><trkpt lat="44.90202204216166" lon="9.051790225541763"><ele>186.8</ele><time>2026-05-01T12:48:45.002Z</time></trkpt><trkpt lat="44.90192371841672" lon="9.051847721679684"><ele>187.20000000000002</ele><time>2026-05-01T12:48:46.002Z</time></trkpt><trkpt lat="44.90182943287032" lon="9.051905738729975"><ele>187.60000000000002</ele><time>2026-05-01T12:48:47.002Z</time></trkpt><trkpt lat="44.901724758609426" lon="9.05196877152087"><ele>188.0</ele><time>2026-05-01T12:48:48.002Z</time></trkpt><trkpt lat="44.901615294114656" lon="9.052038041593736"><ele>188.0</ele><time>2026-05-01T12:48:49.002Z</time></trkpt><trkpt lat="44.901499022158035" lon="9.052106845497427"><ele>188.0</ele><time>2026-05-01T12:48:50.002Z</time></trkpt><trkpt lat="44.90138085885095" lon="9.052181642342255"><ele>188.0</ele><time>2026-05-01T12:48:51.002Z</time></trkpt><trkpt lat="44.90125444357248" lon="9.052261029463823"><ele>188.0</ele><time>2026-05-01T12:48:52.002Z</time></trkpt><trkpt lat="44.90111753758837" lon="9.052321069457024"><ele>188.0</ele><time>2026-05-01T12:48:53.002Z</time></trkpt><trkpt lat="44.90098873701921" lon="9.052423355490127"><ele>188.0</ele><time>2026-05-01T12:48:54.002Z</time></trkpt><trkpt lat="44.900849752849815" lon="9.05248163741756"><ele>188.0</ele><time>2026-05-01T12:48:55.002Z</time></trkpt><trkpt lat="44.900730435373816" lon="9.052577804520721"><ele>188.0</ele><time>2026-05-01T12:48:56.002Z</time></trkpt><trkpt lat="44.900599399296844" lon="9.052651666726568"><ele>187.75</ele><time>2026-05-01T12:48:57.002Z</time></trkpt><trkpt lat="44.90047457585839" lon="9.05272644074022"><ele>187.5</ele><time>2026-05-01T12:48:58.002Z</time></trkpt><trkpt lat="44.90035830859204" lon="9.052791655919032"><ele>187.25</ele><time>2026-05-01T12:48:59Z</time></trkpt><trkpt lat="44.90025271716697" lon="9.052856550992063"><ele>187.0</ele><time>2026-05-01T12:49:00Z</time></trkpt><trkpt lat="44.90014529012295" lon="9.052913061312747"><ele>187.0</ele><time>2026-05-01T12:49:01Z</time></trkpt><trkpt lat="44.900045317189075" lon="9.052959790380186"><ele>187.0</ele><time>2026-05-01T12:49:02Z</time></trkpt><trkpt lat="44.89994287993915" lon="9.052991385651161"><ele>187.0</ele><time>2026-05-01T12:49:03Z</time></trkpt><trkpt lat="44.89984228565163" lon="9.053008363652213"><ele>187.0</ele><time>2026-05-01T12:49:04Z</time></trkpt><trkpt lat="44.89974384454445" lon="9.053017691467065"><ele>187.0</ele><time>2026-05-01T12:49:05Z</time></trkpt><trkpt lat="44.89965376435929" lon="9.05301352218358"><ele>187.0</ele><time>2026-05-01T12:49:06Z</time></trkpt><trkpt lat="44.89956573311112" lon="9.052997552907149"><ele>187.0</ele><time>2026-05-01T12:49:07Z</time></trkpt><trkpt lat="44.899483492937854" lon="9.053009762687894"><ele>187.0</ele><time>2026-05-01T12:49:08Z</time></trkpt><trkpt lat="44.899408120045116" lon="9.052998173714444"><ele>187.0</ele><time>2026-05-01T12:49:09Z</time></trkpt><trkpt lat="44.89935355470824" lon="9.053135447384951"><ele>187.0</ele><time>2026-05-01T12:49:10Z</time></trkpt><trkpt lat="44.899295716126844" lon="9.053249480463084"><ele>187.5</ele><time>2026-05-01T12:49:11Z</time></trkpt><trkpt lat="44.899219721499506" lon="9.053366597009513"><ele>188.0</ele><time>2026-05-01T12:49:12Z</time></trkpt><trkpt lat="44.899122818643875" lon="9.053476449116085"><ele>188.5</ele><time>2026-05-01T12:49:13Z</time></trkpt><trkpt lat="44.899010587145575" lon="9.053569871729865"><ele>189.0</ele><time>2026-05-01T12:49:14Z</time></trkpt><trkpt lat="44.89889276988804" lon="9.053659888831453"><ele>189.0</ele><time>2026-05-01T12:49:15Z</time></trkpt><trkpt lat="44.89876742501519" lon="9.053747984909675"><ele>189.0</ele><time>2026-05-01T12:49:16Z</time></trkpt><trkpt lat="44.898630215170094" lon="9.053832296070812"><ele>189.0</ele><time>2026-05-01T12:49:17Z</time></trkpt><trkpt lat="44.89848749166579" lon="9.053922849422646"><ele>189.0</ele><time>2026-05-01T12:49:18Z</time></trkpt><trkpt lat="44.89834104776825" lon="9.053985699656522"><ele>188.75</ele><time>2026-05-01T12:49:19Z</time></trkpt><trkpt lat="44.89820926173703" lon="9.054063980488621"><ele>188.5</ele><time>2026-05-01T12:49:20Z</time></trkpt><trkpt lat="44.89808051488977" lon="9.054140456054693"><ele>188.25</ele><time>2026-05-01T12:49:21Z</time></trkpt><trkpt lat="44.897949853683585" lon="9.054218980577676"><ele>188.0</ele><time>2026-05-01T12:49:22Z</time></trkpt><trkpt lat="44.89782815575827" lon="9.054316105280774"><ele>188.5</ele><time>2026-05-01T12:49:23Z</time></trkpt><trkpt lat="44.897698601198485" lon="9.054393167473076"><ele>189.0</ele><time>2026-05-01T12:49:24Z</time></trkpt><trkpt lat="44.89756903174085" lon="9.054466909754003"><ele>189.5</ele><time>2026-05-01T12:49:25Z</time></trkpt><trkpt lat="44.897442656104005" lon="9.054543000250984"><ele>190.0</ele><time>2026-05-01T12:49:26Z</time></trkpt><trkpt lat="44.897315130675906" lon="9.05461692142169"><ele>190.0</ele><time>2026-05-01T12:49:27Z</time></trkpt><trkpt lat="44.89718792495585" lon="9.054685492842603"><ele>190.0</ele><time>2026-05-01T12:49:28Z</time></trkpt><trkpt lat="44.897073214112346" lon="9.054791875993098"><ele>190.0</ele><time>2026-05-01T12:49:29Z</time></trkpt><trkpt lat="44.89697553965106" lon="9.054946773735727"><ele>190.0</ele><time>2026-05-01T12:49:30Z</time></trkpt><trkpt lat="44.896869263679996" lon="9.05508197025565"><ele>191.0</ele><time>2026-05-01T12:49:31Z</time></trkpt><trkpt lat="44.89676497656241" lon="9.0552225106366"><ele>192.0</ele><time>2026-05-01T12:49:32Z</time></trkpt><trkpt lat="44.896659924094415" lon="9.055366533641207"><ele>193.0</ele><time>2026-05-01T12:49:33Z</time></trkpt><trkpt lat="44.89656731230412" lon="9.055495461031336"><ele>194.0</ele><time>2026-05-01T12:49:34Z</time></trkpt><trkpt lat="44.89647850720819" lon="9.055622119301809"><ele>194.39999999999998</ele><time>2026-05-01T12:49:35Z</time></trkpt><trkpt lat="44.89639436108492" lon="9.055733176583379"><ele>194.8</ele><time>2026-05-01T12:49:36Z</time></trkpt><trkpt lat="44.89631443286124" lon="9.055849419919063"><ele>195.2</ele><time>2026-05-01T12:49:37Z</time></trkpt><trkpt lat="44.896230759252866" lon="9.05594627510708"><ele>195.60000000000002</ele><time>2026-05-01T12:49:38Z</time></trkpt><trkpt lat="44.89615703261969" lon="9.05604517236576"><ele>196.0</ele><time>2026-05-01T12:49:39Z</time></trkpt><trkpt lat="44.89608366307802" lon="9.056138833319912"><ele>196.28571428571428</ele><time>2026-05-01T12:49:40Z</time></trkpt><trkpt lat="44.896017679702695" lon="9.05621539743905"><ele>196.57142857142856</ele><time>2026-05-01T12:49:41Z</time></trkpt><trkpt lat="44.89596069260631" lon="9.05626785657785"><ele>196.85714285714286</ele><time>2026-05-01T12:49:42Z</time></trkpt><trkpt lat="44.89590283174956" lon="9.056323588665567"><ele>197.14285714285714</ele><time>2026-05-01T12:49:44Z</time></trkpt><trkpt lat="44.89583714993693" lon="9.056261386563632"><ele>197.42857142857142</ele><time>2026-05-01T12:49:46.001Z</time></trkpt><trkpt lat="44.89578460125552" lon="9.056206084633981"><ele>197.71428571428572</ele><time>2026-05-01T12:49:47.001Z</time></trkpt><trkpt lat="44.89571787712956" lon="9.056147474687194"><ele>198.0</ele><time>2026-05-01T12:49:48.001Z</time></trkpt><trkpt lat="44.89563849720911" lon="9.056091324102857"><ele>198.0</ele><time>2026-05-01T12:49:49.001Z</time></trkpt><trkpt lat="44.89555242608038" lon="9.05602270680728"><ele>198.0</ele><time>2026-05-01T12:49:50.001Z</time></trkpt><trkpt lat="44.89546225864017" lon="9.055941641495487"><ele>198.0</ele><time>2026-05-01T12:49:51.001Z</time></trkpt><trkpt lat="44.89536711517252" lon="9.055857264685777"><ele>198.0</ele><time>2026-05-01T12:49:52.001Z</time></trkpt><trkpt lat="44.895271553323106" lon="9.055769500546432"><ele>198.0</ele><time>2026-05-01T12:49:53.001Z</time></trkpt><trkpt lat="44.895177013033084" lon="9.055681274013088"><ele>197.0</ele><time>2026-05-01T12:49:54.001Z</time></trkpt><trkpt lat="44.895075954275605" lon="9.055591017877695"><ele>196.0</ele><time>2026-05-01T12:49:55.001Z</time></trkpt><trkpt lat="44.89497518057637" lon="9.055494346925377"><ele>195.0</ele><time>2026-05-01T12:49:56.001Z</time></trkpt><trkpt lat="44.89487115558686" lon="9.055407899551213"><ele>194.0</ele><time>2026-05-01T12:49:57.001Z</time></trkpt><trkpt lat="44.8947663840942" lon="9.05532514012411"><ele>194.0</ele><time>2026-05-01T12:49:58.001Z</time></trkpt><trkpt lat="44.894659936956444" lon="9.055230315647488"><ele>194.0</ele><time>2026-05-01T12:49:59.001Z</time></trkpt><trkpt lat="44.89455092666259" lon="9.055142637564186"><ele>194.0</ele><time>2026-05-01T12:50:00.001Z</time></trkpt><trkpt lat="44.894440990126284" lon="9.05505024418339"><ele>194.0</ele><time>2026-05-01T12:50:01.001Z</time></trkpt><trkpt lat="44.894322258444866" lon="9.05496463511425"><ele>193.0</ele><time>2026-05-01T12:50:02.001Z</time></trkpt><trkpt lat="44.89422802998784" lon="9.054856836901426"><ele>192.0</ele><time>2026-05-01T12:50:03.001Z</time></trkpt><trkpt lat="44.89412824267584" lon="9.05476377093361"><ele>191.0</ele><time>2026-05-01T12:50:04.001Z</time></trkpt><trkpt lat="44.894022676710414" lon="9.054672558040311"><ele>190.0</ele><time>2026-05-01T12:50:05.001Z</time></trkpt><trkpt lat="44.89391453590104" lon="9.054580020264265"><ele>190.0</ele><time>2026-05-01T12:50:06.001Z</time></trkpt><trkpt lat="44.89380251680367" lon="9.054486252418252"><ele>190.0</ele><time>2026-05-01T12:50:07.001Z</time></trkpt><trkpt lat="44.8936867419319" lon="9.05439341899139"><ele>190.0</ele><time>2026-05-01T12:50:08.001Z</time></trkpt><trkpt lat="44.89358621265017" lon="9.054313125578423"><ele>190.0</ele><time>2026-05-01T12:50:09.001Z</time></trkpt><trkpt lat="44.893508947952476" lon="9.054234726265628"><ele>190.0</ele><time>2026-05-01T12:50:10.001Z</time></trkpt><trkpt lat="44.893426498972836" lon="9.054146471638935"><ele>190.0</ele><time>2026-05-01T12:50:11.001Z</time></trkpt><trkpt lat="44.89332899665593" lon="9.05407852597102"><ele>190.0</ele><time>2026-05-01T12:50:12.001Z</time></trkpt><trkpt lat="44.893255856532484" lon="9.053963685886186"><ele>190.0</ele><time>2026-05-01T12:50:13.001Z</time></trkpt><trkpt lat="44.89319815100605" lon="9.053828763076588"><ele>190.0</ele><time>2026-05-01T12:50:14.001Z</time></trkpt><trkpt lat="44.89315158397905" lon="9.053673077050888"><ele>191.4</ele><time>2026-05-01T12:50:15.001Z</time></trkpt><trkpt lat="44.89311445209924" lon="9.053532806476403"><ele>192.8</ele><time>2026-05-01T12:50:16.001Z</time></trkpt><trkpt lat="44.893094434469624" lon="9.053406874620034"><ele>194.2</ele><time>2026-05-01T12:50:17.001Z</time></trkpt><trkpt lat="44.893094322357854" lon="9.053286861116245"><ele>195.6</ele><time>2026-05-01T12:50:18.001Z</time></trkpt><trkpt lat="44.89311979149946" lon="9.053163014842516"><ele>197.0</ele><time>2026-05-01T12:50:19.001Z</time></trkpt><trkpt lat="44.89315840592566" lon="9.053046075117438"><ele>197.83333333333334</ele><time>2026-05-01T12:50:20.001Z</time></trkpt><trkpt lat="44.893203142784245" lon="9.05292800051602"><ele>198.66666666666669</ele><time>2026-05-01T12:50:21.001Z</time></trkpt><trkpt lat="44.89324673634581" lon="9.052815434045344"><ele>199.5</ele><time>2026-05-01T12:50:22.001Z</time></trkpt><trkpt lat="44.89327355632995" lon="9.05270145798053"><ele>200.33333333333331</ele><time>2026-05-01T12:50:23.001Z</time></trkpt><trkpt lat="44.893277745598816" lon="9.05259291159063"><ele>201.16666666666666</ele><time>2026-05-01T12:50:24.001Z</time></trkpt><trkpt lat="44.893259320361146" lon="9.052467354347378"><ele>202.0</ele><time>2026-05-01T12:50:25.001Z</time></trkpt><trkpt lat="44.89323195553651" lon="9.05232729524137"><ele>202.5</ele><time>2026-05-01T12:50:26.001Z</time></trkpt><trkpt lat="44.89319022070163" lon="9.052181026681264"><ele>203.0</ele><time>2026-05-01T12:50:27.001Z</time></trkpt><trkpt lat="44.89315152204389" lon="9.052024173714198"><ele>203.5</ele><time>2026-05-01T12:50:28.001Z</time></trkpt><trkpt lat="44.89311692687279" lon="9.051866830439836"><ele>204.0</ele><time>2026-05-01T12:50:29.001Z</time></trkpt><trkpt lat="44.89309318459461" lon="9.051719515502432"><ele>205.39999999999998</ele><time>2026-05-01T12:50:30.001Z</time></trkpt><trkpt lat="44.89308263028608" lon="9.051588705339157"><ele>206.8</ele><time>2026-05-01T12:50:31.001Z</time></trkpt><trkpt lat="44.8930779739173" lon="9.05148244940006"><ele>208.2</ele><time>2026-05-01T12:50:32.001Z</time></trkpt><trkpt lat="44.893085946670084" lon="9.051372621930847"><ele>209.60000000000002</ele><time>2026-05-01T12:50:34.001Z</time></trkpt><trkpt lat="44.89296939612198" lon="9.051369848090813"><ele>211.0</ele><time>2026-05-01T12:50:37.001Z</time></trkpt><trkpt lat="44.89284148995385" lon="9.051471557605144"><ele>211.0</ele><time>2026-05-01T12:50:39.001Z</time></trkpt><trkpt lat="44.89275318908501" lon="9.051547635689191"><ele>211.0</ele><time>2026-05-01T12:50:40.001Z</time></trkpt><trkpt lat="44.89265055297554" lon="9.051635436082622"><ele>211.0</ele><time>2026-05-01T12:50:41.001Z</time></trkpt><trkpt lat="44.89253338965062" lon="9.05172978361487"><ele>211.0</ele><time>2026-05-01T12:50:42.002Z</time></trkpt><trkpt lat="44.89241889130121" lon="9.05183904436643"><ele>209.5</ele><time>2026-05-01T12:50:43.002Z</time></trkpt><trkpt lat="44.89230195868284" lon="9.05190984079515"><ele>208.0</ele><time>2026-05-01T12:50:44.002Z</time></trkpt><trkpt lat="44.89216546161787" lon="9.051956092477548"><ele>206.5</ele><time>2026-05-01T12:50:45.002Z</time></trkpt><trkpt lat="44.89203011305066" lon="9.052019921843506"><ele>205.0</ele><time>2026-05-01T12:50:46.002Z</time></trkpt><trkpt lat="44.891888479218544" lon="9.05208671526309"><ele>206.0</ele><time>2026-05-01T12:50:47.002Z</time></trkpt><trkpt lat="44.891743822750406" lon="9.05215248860071"><ele>207.0</ele><time>2026-05-01T12:50:48.002Z</time></trkpt><trkpt lat="44.89159147465877" lon="9.052214713337502"><ele>208.0</ele><time>2026-05-01T12:50:49.002Z</time></trkpt><trkpt lat="44.89143264469227" lon="9.052278537071674"><ele>208.0</ele><time>2026-05-01T12:50:50.002Z</time></trkpt><trkpt lat="44.89126716672711" lon="9.052345034223018"><ele>208.0</ele><time>2026-05-01T12:50:51.002Z</time></trkpt><trkpt lat="44.89110245421759" lon="9.052411221582005"><ele>208.0</ele><time>2026-05-01T12:50:52.002Z</time></trkpt><trkpt lat="44.89095083632665" lon="9.052472099926272"><ele>207.0</ele><time>2026-05-01T12:50:53.002Z</time></trkpt><trkpt lat="44.890797242503794" lon="9.052532184592428"><ele>206.0</ele><time>2026-05-01T12:50:54.002Z</time></trkpt><trkpt lat="44.89063999967118" lon="9.052593832803725"><ele>205.0</ele><time>2026-05-01T12:50:55.002Z</time></trkpt><trkpt lat="44.89048041782648" lon="9.052659639178321"><ele>205.0</ele><time>2026-05-01T12:50:56.002Z</time></trkpt><trkpt lat="44.89031719516103" lon="9.052727232403097"><ele>205.0</ele><time>2026-05-01T12:50:57.002Z</time></trkpt><trkpt lat="44.890151549781976" lon="9.052796839188895"><ele>205.0</ele><time>2026-05-01T12:50:58.002Z</time></trkpt><trkpt lat="44.889983587045066" lon="9.052867419679343"><ele>205.33333333333331</ele><time>2026-05-01T12:50:59.002Z</time></trkpt><trkpt lat="44.88981910526783" lon="9.052938379518713"><ele>205.66666666666669</ele><time>2026-05-01T12:51:00.002Z</time></trkpt><trkpt lat="44.88966149246022" lon="9.05300818701527"><ele>206.0</ele><time>2026-05-01T12:51:01.002Z</time></trkpt><trkpt lat="44.8895190072309" lon="9.05307282466382"><ele>206.0</ele><time>2026-05-01T12:51:02.002Z</time></trkpt><trkpt lat="44.889385945639134" lon="9.053125588106013"><ele>206.0</ele><time>2026-05-01T12:51:03.002Z</time></trkpt><trkpt lat="44.88927298990533" lon="9.05317658146892"><ele>206.0</ele><time>2026-05-01T12:51:04.002Z</time></trkpt><trkpt lat="44.88916806425858" lon="9.053172186891024"><ele>206.0</ele><time>2026-05-01T12:51:04.996Z</time></trkpt><trkpt lat="44.889068438746094" lon="9.053147095988221"><ele>206.5</ele><time>2026-05-01T12:51:05.996Z</time></trkpt><trkpt lat="44.88896980853146" lon="9.053074700434879"><ele>207.0</ele><time>2026-05-01T12:51:06.997Z</time></trkpt><trkpt lat="44.88886979052294" lon="9.052976689500438"><ele>207.5</ele><time>2026-05-01T12:51:07.997Z</time></trkpt><trkpt lat="44.88876938302273" lon="9.05286784676584"><ele>208.0</ele><time>2026-05-01T12:51:08.997Z</time></trkpt><trkpt lat="44.8886685418048" lon="9.052765772572828"><ele>208.0</ele><time>2026-05-01T12:51:09.997Z</time></trkpt><trkpt lat="44.88855640951477" lon="9.05267363282927"><ele>208.0</ele><time>2026-05-01T12:51:10.997Z</time></trkpt><trkpt lat="44.88844668282228" lon="9.052598522867518"><ele>208.0</ele><time>2026-05-01T12:51:11.997Z</time></trkpt><trkpt lat="44.88833725520896" lon="9.05254243065995"><ele>208.0</ele><time>2026-05-01T12:51:12.997Z</time></trkpt><trkpt lat="44.88822602979531" lon="9.052513633070221"><ele>207.8</ele><time>2026-05-01T12:51:13.997Z</time></trkpt><trkpt lat="44.888116423765716" lon="9.052521416607453"><ele>207.60000000000002</ele><time>2026-05-01T12:51:14.997Z</time></trkpt><trkpt lat="44.888008708272686" lon="9.052545813495474"><ele>207.39999999999998</ele><time>2026-05-01T12:51:15.997Z</time></trkpt><trkpt lat="44.88789725733198" lon="9.052600388753646"><ele>207.2</ele><time>2026-05-01T12:51:16.997Z</time></trkpt><trkpt lat="44.88779605732209" lon="9.05262176126525"><ele>207.0</ele><time>2026-05-01T12:51:17.997Z</time></trkpt><trkpt lat="44.88771014237944" lon="9.052646013125143"><ele>207.0</ele><time>2026-05-01T12:51:18.997Z</time></trkpt><trkpt lat="44.88762506687965" lon="9.052663128961903"><ele>207.0</ele><time>2026-05-01T12:51:19.997Z</time></trkpt><trkpt lat="44.88752460458541" lon="9.0526155707263"><ele>207.0</ele><time>2026-05-01T12:51:20.998Z</time></trkpt><trkpt lat="44.88742007222653" lon="9.052545052713693"><ele>207.0</ele><time>2026-05-01T12:51:21.998Z</time></trkpt><trkpt lat="44.88730560475177" lon="9.05245993730266"><ele>207.0</ele><time>2026-05-01T12:51:22.998Z</time></trkpt><trkpt lat="44.88718521737228" lon="9.052369204966391"><ele>207.75</ele><time>2026-05-01T12:51:23.998Z</time></trkpt><trkpt lat="44.88705211205211" lon="9.052303690582935"><ele>208.5</ele><time>2026-05-01T12:51:24.998Z</time></trkpt><trkpt lat="44.886920678547824" lon="9.052236656992584"><ele>209.25</ele><time>2026-05-01T12:51:25.998Z</time></trkpt><trkpt lat="44.88679643902471" lon="9.052185689796906"><ele>210.0</ele><time>2026-05-01T12:51:26.998Z</time></trkpt><trkpt lat="44.8866743549813" lon="9.052157715326178"><ele>212.0</ele><time>2026-05-01T12:51:27.998Z</time></trkpt><trkpt lat="44.88654758366233" lon="9.052149268459717"><ele>214.0</ele><time>2026-05-01T12:51:28.998Z</time></trkpt><trkpt lat="44.88642056945184" lon="9.052129242059316"><ele>216.0</ele><time>2026-05-01T12:51:29.998Z</time></trkpt><trkpt lat="44.88629522375549" lon="9.052144707214346"><ele>218.0</ele><time>2026-05-01T12:51:30.998Z</time></trkpt><trkpt lat="44.88617521110797" lon="9.052174649078138"><ele>218.00000000000003</ele><time>2026-05-01T12:51:31.998Z</time></trkpt><trkpt lat="44.886078978532595" lon="9.052206212910097"><ele>218.0</ele><time>2026-05-01T12:51:32.998Z</time></trkpt><trkpt lat="44.88600237900119" lon="9.052234510267642"><ele>218.0</ele><time>2026-05-01T12:51:33.999Z</time></trkpt><trkpt lat="44.885940417058194" lon="9.052266133331875"><ele>218.0</ele><time>2026-05-01T12:51:36.999Z</time></trkpt><trkpt lat="44.8860004019748" lon="9.05223524062512"><ele>218.00000000000003</ele><time>2026-05-01T12:51:49.999Z</time></trkpt><trkpt lat="44.885928733918114" lon="9.052261716713556"><ele>218.0</ele><time>2026-05-01T12:52:46.001Z</time></trkpt><trkpt lat="44.885837840563056" lon="9.052296311070835"><ele>219.4</ele><time>2026-05-01T12:52:48.001Z</time></trkpt><trkpt lat="44.88574755156882" lon="9.052329802002799"><ele>220.8</ele><time>2026-05-01T12:52:50.001Z</time></trkpt><trkpt lat="44.88567592967421" lon="9.052355320207795"><ele>222.2</ele><time>2026-05-01T12:52:53.001Z</time></trkpt><trkpt lat="44.8857664381076" lon="9.052604470784363"><ele>223.6</ele><time>2026-05-01T12:52:58.001Z</time></trkpt><trkpt lat="44.88582424498169" lon="9.05252199777001"><ele>225.0</ele><time>2026-05-01T12:53:01.001Z</time></trkpt><trkpt lat="44.88589875695062" lon="9.052451552984246"><ele>225.0</ele><time>2026-05-01T12:53:03.001Z</time></trkpt><trkpt lat="44.88599044773358" lon="9.05238706243714"><ele>225.0</ele><time>2026-05-01T12:53:05.002Z</time></trkpt><trkpt lat="44.885984438656514" lon="9.05223497966477"><ele>225.0</ele><time>2026-05-01T12:53:06.002Z</time></trkpt><trkpt lat="44.88585359779071" lon="9.05228947535786"><ele>225.0</ele><time>2026-05-01T12:53:12.997Z</time></trkpt><trkpt lat="44.885772945031626" lon="9.052320753960029"><ele>225.0</ele><time>2026-05-01T12:53:13.997Z</time></trkpt><trkpt lat="44.88569285750949" lon="9.05234928900704"><ele>225.0</ele><time>2026-05-01T12:53:14.997Z</time></trkpt><trkpt lat="44.88559773499899" lon="9.05238318029691"><ele>225.0</ele><time>2026-05-01T12:53:15.997Z</time></trkpt><trkpt lat="44.885506192637386" lon="9.052410021226498"><ele>225.0</ele><time>2026-05-01T12:53:16.997Z</time></trkpt><trkpt lat="44.88540149072678" lon="9.052436875876403"><ele>225.0</ele><time>2026-05-01T12:53:17.997Z</time></trkpt><trkpt lat="44.88529652195917" lon="9.05250873321989"><ele>225.0</ele><time>2026-05-01T12:53:18.997Z</time></trkpt><trkpt lat="44.8851941600836" lon="9.052524498165896"><ele>223.75</ele><time>2026-05-01T12:53:19.997Z</time></trkpt><trkpt lat="44.885091156280005" lon="9.052546336671318"><ele>222.5</ele><time>2026-05-01T12:53:20.997Z</time></trkpt><trkpt lat="44.88497874806641" lon="9.052589077064527"><ele>221.25</ele><time>2026-05-01T12:53:21.998Z</time></trkpt><trkpt lat="44.88484828666765" lon="9.052618345899981"><ele>220.0</ele><time>2026-05-01T12:53:22.998Z</time></trkpt><trkpt lat="44.88474041314249" lon="9.052711538859235"><ele>220.0</ele><time>2026-05-01T12:53:23.998Z</time></trkpt><trkpt lat="44.88465609514081" lon="9.052847619132649"><ele>220.0</ele><time>2026-05-01T12:53:24.998Z</time></trkpt><trkpt lat="44.88456116270369" lon="9.052956153951474"><ele>220.0</ele><time>2026-05-01T12:53:25.998Z</time></trkpt><trkpt lat="44.88446212163699" lon="9.053066207150179"><ele>220.0</ele><time>2026-05-01T12:53:26.998Z</time></trkpt><trkpt lat="44.884356892501344" lon="9.053175543602254"><ele>220.5</ele><time>2026-05-01T12:53:27.998Z</time></trkpt><trkpt lat="44.88423426339526" lon="9.053243270962598"><ele>221.0</ele><time>2026-05-01T12:53:28.998Z</time></trkpt><trkpt lat="44.88412785698016" lon="9.05334357967004"><ele>221.5</ele><time>2026-05-01T12:53:29.998Z</time></trkpt><trkpt lat="44.88402973259734" lon="9.053439199727274"><ele>222.0</ele><time>2026-05-01T12:53:30.998Z</time></trkpt><trkpt lat="44.88393517344798" lon="9.053549604773417"><ele>222.0</ele><time>2026-05-01T12:53:31.998Z</time></trkpt><trkpt lat="44.883844977238574" lon="9.05366705610233"><ele>222.0</ele><time>2026-05-01T12:53:32.998Z</time></trkpt><trkpt lat="44.883756630012485" lon="9.053787490581186"><ele>222.0</ele><time>2026-05-01T12:53:33.998Z</time></trkpt><trkpt lat="44.88366176253575" lon="9.053895037394172"><ele>222.0</ele><time>2026-05-01T12:53:34.999Z</time></trkpt><trkpt lat="44.883574926775054" lon="9.053990059252772"><ele>222.0</ele><time>2026-05-01T12:53:35.999Z</time></trkpt><trkpt lat="44.88349514115761" lon="9.054082919810975"><ele>222.0</ele><time>2026-05-01T12:53:36.999Z</time></trkpt><trkpt lat="44.88342650106977" lon="9.054158975486851"><ele>222.0</ele><time>2026-05-01T12:53:37.999Z</time></trkpt><trkpt lat="44.88336034764101" lon="9.05423279593096"><ele>222.0</ele><time>2026-05-01T12:53:38.999Z</time></trkpt><trkpt lat="44.88328625022751" lon="9.054308131485964"><ele>222.0</ele><time>2026-05-01T12:53:39.999Z</time></trkpt><trkpt lat="44.883191641512596" lon="9.054363668694995"><ele>220.39999999999998</ele><time>2026-05-01T12:53:40.999Z</time></trkpt><trkpt lat="44.88309573201111" lon="9.054424581650133"><ele>218.79999999999998</ele><time>2026-05-01T12:53:41.999Z</time></trkpt><trkpt lat="44.88300098550973" lon="9.054498140459026"><ele>217.2</ele><time>2026-05-01T12:53:42.999Z</time></trkpt><trkpt lat="44.882885480713036" lon="9.054500704613911"><ele>215.6</ele><time>2026-05-01T12:53:43.999Z</time></trkpt><trkpt lat="44.88277078563471" lon="9.054537367491106"><ele>214.0</ele><time>2026-05-01T12:53:44.999Z</time></trkpt><trkpt lat="44.88264901244823" lon="9.05454951115702"><ele>215.2</ele><time>2026-05-01T12:53:45.999Z</time></trkpt><trkpt lat="44.88252637781415" lon="9.05456019022211"><ele>216.39999999999998</ele><time>2026-05-01T12:53:46.999Z</time></trkpt><trkpt lat="44.88241659933447" lon="9.054569424225846"><ele>217.6</ele><time>2026-05-01T12:53:47.999Z</time></trkpt><trkpt lat="44.88232131179756" lon="9.054575013710426"><ele>218.8</ele><time>2026-05-01T12:53:48.999Z</time></trkpt><trkpt lat="44.88223821349516" lon="9.054588644929641"><ele>220.0</ele><time>2026-05-01T12:53:49.999Z</time></trkpt><trkpt lat="44.88217073748454" lon="9.054632194503181"><ele>219.99999999999997</ele><time>2026-05-01T12:53:50.999Z</time></trkpt><trkpt lat="44.88210562039802" lon="9.054678360273734"><ele>220.0</ele><time>2026-05-01T12:53:52Z</time></trkpt><trkpt lat="44.88205031138778" lon="9.05477124068949"><ele>220.0</ele><time>2026-05-01T12:53:53Z</time></trkpt><trkpt lat="44.882000717214495" lon="9.054877362221076"><ele>220.0</ele><time>2026-05-01T12:53:54Z</time></trkpt><trkpt lat="44.88196196059912" lon="9.054995896518324"><ele>219.99999999999997</ele><time>2026-05-01T12:53:55Z</time></trkpt><trkpt lat="44.88192550047473" lon="9.055116302406132"><ele>220.0</ele><time>2026-05-01T12:53:56Z</time></trkpt><trkpt lat="44.88189345284694" lon="9.055213494568786"><ele>220.16666666666666</ele><time>2026-05-01T12:53:57Z</time></trkpt><trkpt lat="44.88185023968093" lon="9.055278127485948"><ele>220.33333333333331</ele><time>2026-05-01T12:53:58Z</time></trkpt><trkpt lat="44.88179609550964" lon="9.055344131939705"><ele>220.5</ele><time>2026-05-01T12:53:59Z</time></trkpt><trkpt lat="44.88170847618648" lon="9.05537461760811"><ele>220.66666666666669</ele><time>2026-05-01T12:54:00Z</time></trkpt><trkpt lat="44.88162247802777" lon="9.055372126709093"><ele>220.83333333333334</ele><time>2026-05-01T12:54:01Z</time></trkpt><trkpt lat="44.88152920665973" lon="9.055338733002445"><ele>221.0</ele><time>2026-05-01T12:54:02Z</time></trkpt><trkpt lat="44.88142596280517" lon="9.055295977319307"><ele>221.0</ele><time>2026-05-01T12:54:03Z</time></trkpt><trkpt lat="44.88131422550944" lon="9.055254281366492"><ele>221.00000000000003</ele><time>2026-05-01T12:54:04Z</time></trkpt><trkpt lat="44.881200265731906" lon="9.055213393471147"><ele>221.00000000000003</ele><time>2026-05-01T12:54:05Z</time></trkpt><trkpt lat="44.881101708575876" lon="9.055201584836897"><ele>221.0</ele><time>2026-05-01T12:54:06Z</time></trkpt><trkpt lat="44.88101157092458" lon="9.055143100759487"><ele>221.0</ele><time>2026-05-01T12:54:07Z</time></trkpt><trkpt lat="44.88096086126676" lon="9.055046572130925"><ele>221.33333333333334</ele><time>2026-05-01T12:54:08Z</time></trkpt><trkpt lat="44.88090336272345" lon="9.05499791227189"><ele>221.66666666666669</ele><time>2026-05-01T12:54:09Z</time></trkpt><trkpt lat="44.88086823792623" lon="9.054922911881146"><ele>222.0</ele><time>2026-05-01T12:54:10Z</time></trkpt><trkpt lat="44.88079989777612" lon="9.054765761875089"><ele>222.33333333333331</ele><time>2026-05-01T12:54:12Z</time></trkpt><trkpt lat="44.880754564453824" lon="9.054690083390936"><ele>222.66666666666666</ele><time>2026-05-01T12:54:13Z</time></trkpt><trkpt lat="44.880694656558504" lon="9.054618392056042"><ele>223.0</ele><time>2026-05-01T12:54:14Z</time></trkpt><trkpt lat="44.88060835349973" lon="9.054574208788472"><ele>226.0</ele><time>2026-05-01T12:54:15Z</time></trkpt><trkpt lat="44.88050720907216" lon="9.054517541514402"><ele>229.0</ele><time>2026-05-01T12:54:16Z</time></trkpt><trkpt lat="44.88038783530447" lon="9.05448700125495"><ele>232.0</ele><time>2026-05-01T12:54:17Z</time></trkpt><trkpt lat="44.880267205501546" lon="9.054458614881383"><ele>235.0</ele><time>2026-05-01T12:54:18Z</time></trkpt><trkpt lat="44.88014807712315" lon="9.054428642526336"><ele>234.5</ele><time>2026-05-01T12:54:19Z</time></trkpt><trkpt lat="44.88002169913431" lon="9.054395378444719"><ele>234.0</ele><time>2026-05-01T12:54:20.001Z</time></trkpt><trkpt lat="44.87988992334598" lon="9.05437387701511"><ele>233.5</ele><time>2026-05-01T12:54:21.001Z</time></trkpt><trkpt lat="44.87975826047412" lon="9.054310223092154"><ele>233.0</ele><time>2026-05-01T12:54:22.001Z</time></trkpt><trkpt lat="44.87962513729559" lon="9.054240605004908"><ele>233.0</ele><time>2026-05-01T12:54:23.001Z</time></trkpt><trkpt lat="44.8795042147409" lon="9.054171360325569"><ele>233.0</ele><time>2026-05-01T12:54:24.001Z</time></trkpt><trkpt lat="44.87939932651875" lon="9.054096162729001"><ele>233.0</ele><time>2026-05-01T12:54:25.001Z</time></trkpt><trkpt lat="44.879293467608626" lon="9.054081229604169"><ele>233.0</ele><time>2026-05-01T12:54:26.001Z</time></trkpt><trkpt lat="44.879200827285175" lon="9.05410532826783"><ele>233.0</ele><time>2026-05-01T12:54:27.001Z</time></trkpt><trkpt lat="44.87912619502353" lon="9.054112415930899"><ele>234.2</ele><time>2026-05-01T12:54:28.001Z</time></trkpt><trkpt lat="44.87905903487974" lon="9.054091390263112"><ele>235.4</ele><time>2026-05-01T12:54:29.001Z</time></trkpt><trkpt lat="44.87898213571571" lon="9.053972708769402"><ele>236.59999999999997</ele><time>2026-05-01T12:54:31.001Z</time></trkpt><trkpt lat="44.87898559283677" lon="9.053843339317885"><ele>237.79999999999998</ele><time>2026-05-01T12:54:32.001Z</time></trkpt><trkpt lat="44.87896630538093" lon="9.053708863286927"><ele>239.0</ele><time>2026-05-01T12:54:33.001Z</time></trkpt><trkpt lat="44.87897127480608" lon="9.053575906807147"><ele>239.00000000000003</ele><time>2026-05-01T12:54:34.001Z</time></trkpt><trkpt lat="44.87895634491885" lon="9.053478409040787"><ele>239.0</ele><time>2026-05-01T12:54:35.001Z</time></trkpt><trkpt lat="44.878921913352144" lon="9.053382425507296"><ele>239.0</ele><time>2026-05-01T12:54:36.001Z</time></trkpt><trkpt lat="44.87886565396965" lon="9.053296992301378"><ele>239.0</ele><time>2026-05-01T12:54:37.001Z</time></trkpt><trkpt lat="44.87879001331042" lon="9.05324877908324"><ele>239.00000000000003</ele><time>2026-05-01T12:54:38.001Z</time></trkpt><trkpt lat="44.878715618528254" lon="9.053243048915746"><ele>239.0</ele><time>2026-05-01T12:54:39.001Z</time></trkpt><trkpt lat="44.87861497539564" lon="9.053275518534601"><ele>240.6</ele><time>2026-05-01T12:54:40.001Z</time></trkpt><trkpt lat="44.87850090530377" lon="9.053279889197269"><ele>242.2</ele><time>2026-05-01T12:54:41.001Z</time></trkpt><trkpt lat="44.878387957254084" lon="9.053271656944906"><ele>243.79999999999998</ele><time>2026-05-01T12:54:42.001Z</time></trkpt><trkpt lat="44.87827488220295" lon="9.053257322597892"><ele>245.39999999999998</ele><time>2026-05-01T12:54:43.001Z</time></trkpt><trkpt lat="44.87818013843042" lon="9.053254027473962"><ele>247.0</ele><time>2026-05-01T12:54:44.001Z</time></trkpt><trkpt lat="44.87810072100243" lon="9.053202719635369"><ele>246.99999999999997</ele><time>2026-05-01T12:54:45.001Z</time></trkpt><trkpt lat="44.87804065249716" lon="9.053125698193103"><ele>247.0</ele><time>2026-05-01T12:54:46.001Z</time></trkpt><trkpt lat="44.87799965780269" lon="9.053020315421643"><ele>247.0</ele><time>2026-05-01T12:54:47.001Z</time></trkpt><trkpt lat="44.87797482930759" lon="9.052905606211363"><ele>247.0</ele><time>2026-05-01T12:54:48.001Z</time></trkpt><trkpt lat="44.87797750230714" lon="9.052778628729062"><ele>246.99999999999997</ele><time>2026-05-01T12:54:49.001Z</time></trkpt><trkpt lat="44.87795010234439" lon="9.052669453237725"><ele>247.0</ele><time>2026-05-01T12:54:50.001Z</time></trkpt><trkpt lat="44.877861674101894" lon="9.052593977152894"><ele>247.0</ele><time>2026-05-01T12:54:52.002Z</time></trkpt><trkpt lat="44.87768094456283" lon="9.052642283799806"><ele>247.0</ele><time>2026-05-01T12:54:54.002Z</time></trkpt><trkpt lat="44.877582136341374" lon="9.052679637765564"><ele>247.0</ele><time>2026-05-01T12:54:55.002Z</time></trkpt><trkpt lat="44.877493792817674" lon="9.052691989810029"><ele>247.0</ele><time>2026-05-01T12:54:56.002Z</time></trkpt><trkpt lat="44.87742576037019" lon="9.052696538721673"><ele>247.0</ele><time>2026-05-01T12:54:57.002Z</time></trkpt><trkpt lat="44.877320333092825" lon="9.05261504440417"><ele>247.8</ele><time>2026-05-01T12:54:59.002Z</time></trkpt><trkpt lat="44.877275994275045" lon="9.05251051900163"><ele>248.6</ele><time>2026-05-01T12:55:00.002Z</time></trkpt><trkpt lat="44.8772165273479" lon="9.05240410788433"><ele>249.40000000000003</ele><time>2026-05-01T12:55:01.002Z</time></trkpt><trkpt lat="44.877157553512305" lon="9.052270875373859"><ele>250.20000000000002</ele><time>2026-05-01T12:55:02.002Z</time></trkpt><trkpt lat="44.877099134010585" lon="9.052128968183654"><ele>251.0</ele><time>2026-05-01T12:55:03.002Z</time></trkpt><trkpt lat="44.8770398934457" lon="9.05197845571833"><ele>252.25</ele><time>2026-05-01T12:55:04.002Z</time></trkpt><trkpt lat="44.87698097014659" lon="9.051817886698435"><ele>253.5</ele><time>2026-05-01T12:55:05.002Z</time></trkpt><trkpt lat="44.87691865433596" lon="9.051650349045518"><ele>254.75</ele><time>2026-05-01T12:55:06.002Z</time></trkpt><trkpt lat="44.876860010968336" lon="9.051476054087424"><ele>256.0</ele><time>2026-05-01T12:55:07.002Z</time></trkpt><trkpt lat="44.87680989040942" lon="9.051297378783119"><ele>257.25</ele><time>2026-05-01T12:55:08.002Z</time></trkpt><trkpt lat="44.87677822942006" lon="9.051111544243431"><ele>258.5</ele><time>2026-05-01T12:55:09.002Z</time></trkpt><trkpt lat="44.87676306410741" lon="9.050927655411014"><ele>259.75</ele><time>2026-05-01T12:55:10.002Z</time></trkpt><trkpt lat="44.87675419714116" lon="9.050765956655608"><ele>261.0</ele><time>2026-05-01T12:55:11.002Z</time></trkpt><trkpt lat="44.87673701267021" lon="9.050620650947163"><ele>263.25</ele><time>2026-05-01T12:55:12.002Z</time></trkpt><trkpt lat="44.876699804484346" lon="9.050485402136822"><ele>265.5</ele><time>2026-05-01T12:55:13.002Z</time></trkpt><trkpt lat="44.87663698769917" lon="9.050364950783703"><ele>267.75</ele><time>2026-05-01T12:55:14.002Z</time></trkpt><trkpt lat="44.87656250821983" lon="9.050234115522496"><ele>270.0</ele><time>2026-05-01T12:55:15.002Z</time></trkpt><trkpt lat="44.876466878668595" lon="9.05011733471974"><ele>270.0</ele><time>2026-05-01T12:55:16.002Z</time></trkpt><trkpt lat="44.87636877389258" lon="9.0500041668499"><ele>270.0</ele><time>2026-05-01T12:55:16.996Z</time></trkpt><trkpt lat="44.87625018846119" lon="9.049886921602333"><ele>270.0</ele><time>2026-05-01T12:55:17.996Z</time></trkpt><trkpt lat="44.87614205704617" lon="9.049733192618547"><ele>270.0</ele><time>2026-05-01T12:55:18.996Z</time></trkpt><trkpt lat="44.87603461644536" lon="9.049592521072814"><ele>271.4</ele><time>2026-05-01T12:55:19.997Z</time></trkpt><trkpt lat="44.87594674510633" lon="9.049470732143963"><ele>272.8</ele><time>2026-05-01T12:55:20.997Z</time></trkpt><trkpt lat="44.875873585684815" lon="9.049359983307463"><ele>274.2</ele><time>2026-05-01T12:55:21.997Z</time></trkpt><trkpt lat="44.8758079668741" lon="9.049277160888945"><ele>275.6</ele><time>2026-05-01T12:55:22.997Z</time></trkpt><trkpt lat="44.875754691154754" lon="9.049223957409009"><ele>277.0</ele><time>2026-05-01T12:55:23.997Z</time></trkpt><trkpt lat="44.87568484381254" lon="9.049481294611152"><ele>277.0</ele><time>2026-05-01T12:55:28.998Z</time></trkpt><trkpt lat="44.87570214488419" lon="9.049609481980545"><ele>277.0</ele><time>2026-05-01T12:55:29.998Z</time></trkpt><trkpt lat="44.87570443545484" lon="9.049732860367726"><ele>277.0</ele><time>2026-05-01T12:55:30.998Z</time></trkpt><trkpt lat="44.87569432412555" lon="9.04986228496172"><ele>277.0</ele><time>2026-05-01T12:55:31.998Z</time></trkpt><trkpt lat="44.87571338570203" lon="9.049977867181298"><ele>277.0</ele><time>2026-05-01T12:55:32.998Z</time></trkpt><trkpt lat="44.875744003971946" lon="9.05012153419362"><ele>276.0</ele><time>2026-05-01T12:55:33.999Z</time></trkpt><trkpt lat="44.87575501543362" lon="9.050277447706167"><ele>275.0</ele><time>2026-05-01T12:55:34.999Z</time></trkpt><trkpt lat="44.875756135996156" lon="9.050443129725718"><ele>274.0</ele><time>2026-05-01T12:55:35.999Z</time></trkpt><trkpt lat="44.87572828479369" lon="9.050586570349884"><ele>273.0</ele><time>2026-05-01T12:55:36.999Z</time></trkpt><trkpt lat="44.87569369096308" lon="9.050685625398645"><ele>272.0</ele><time>2026-05-01T12:55:37.999Z</time></trkpt><trkpt lat="44.87565647439048" lon="9.050763352226095"><ele>271.0</ele><time>2026-05-01T12:55:38.999Z</time></trkpt><trkpt lat="44.87560346190961" lon="9.050851807247138"><ele>270.0</ele><time>2026-05-01T12:55:39.999Z</time></trkpt><trkpt lat="44.87555714404582" lon="9.050964029069574"><ele>269.0</ele><time>2026-05-01T12:55:40.999Z</time></trkpt><trkpt lat="44.875523953955934" lon="9.051104755910687"><ele>268.0</ele><time>2026-05-01T12:55:41.999Z</time></trkpt><trkpt lat="44.87548547702176" lon="9.051251861742113"><ele>267.0</ele><time>2026-05-01T12:55:43Z</time></trkpt><trkpt lat="44.875445476917186" lon="9.051402637051766"><ele>267.0</ele><time>2026-05-01T12:55:44Z</time></trkpt><trkpt lat="44.87539432086296" lon="9.051533143583748"><ele>267.0</ele><time>2026-05-01T12:55:45Z</time></trkpt><trkpt lat="44.87536950470526" lon="9.051693701312647"><ele>267.0</ele><time>2026-05-01T12:55:46Z</time></trkpt><trkpt lat="44.87534874767781" lon="9.051847637918137"><ele>267.0</ele><time>2026-05-01T12:55:47Z</time></trkpt><trkpt lat="44.87532878926576" lon="9.051984193755828"><ele>267.0</ele><time>2026-05-01T12:55:48Z</time></trkpt><trkpt lat="44.875332214303846" lon="9.05211463711427"><ele>266.0</ele><time>2026-05-01T12:55:49Z</time></trkpt><trkpt lat="44.87534597151329" lon="9.052237468549718"><ele>265.0</ele><time>2026-05-01T12:55:50Z</time></trkpt><trkpt lat="44.87537366517777" lon="9.052362663329554"><ele>264.0</ele><time>2026-05-01T12:55:51Z</time></trkpt><trkpt lat="44.87539833577577" lon="9.052495755506424"><ele>263.0</ele><time>2026-05-01T12:55:52Z</time></trkpt><trkpt lat="44.87541682004818" lon="9.05262904588001"><ele>262.0</ele><time>2026-05-01T12:55:53Z</time></trkpt><trkpt lat="44.875425573724215" lon="9.052760886312738"><ele>260.8333333333333</ele><time>2026-05-01T12:55:54Z</time></trkpt><trkpt lat="44.875444248001585" lon="9.052879631937211"><ele>259.66666666666663</ele><time>2026-05-01T12:55:55Z</time></trkpt><trkpt lat="44.87548492169869" lon="9.052989254149468"><ele>258.5</ele><time>2026-05-01T12:55:56Z</time></trkpt><trkpt lat="44.875525545259244" lon="9.05308445333482"><ele>257.3333333333333</ele><time>2026-05-01T12:55:57Z</time></trkpt><trkpt lat="44.87555273495358" lon="9.053171938335723"><ele>256.1666666666667</ele><time>2026-05-01T12:55:58Z</time></trkpt><trkpt lat="44.87554549763616" lon="9.053273173374604"><ele>255.0</ele><time>2026-05-01T12:55:59.001Z</time></trkpt><trkpt lat="44.87556077195652" lon="9.053359459501094"><ele>254.6</ele><time>2026-05-01T12:56:00.001Z</time></trkpt><trkpt lat="44.875627654371094" lon="9.053503186544278"><ele>254.2</ele><time>2026-05-01T12:56:02.001Z</time></trkpt><trkpt lat="44.87565774016186" lon="9.053593049106704"><ele>253.8</ele><time>2026-05-01T12:56:03.001Z</time></trkpt><trkpt lat="44.875695564788465" lon="9.053689168380656"><ele>253.4</ele><time>2026-05-01T12:56:04.001Z</time></trkpt><trkpt lat="44.875719996697654" lon="9.053818679163903"><ele>253.0</ele><time>2026-05-01T12:56:05.001Z</time></trkpt><trkpt lat="44.87575116793742" lon="9.05393681340068"><ele>252.99999999999997</ele><time>2026-05-01T12:56:06.001Z</time></trkpt><trkpt lat="44.8757793149577" lon="9.054062631225815"><ele>253.0</ele><time>2026-05-01T12:56:07.001Z</time></trkpt><trkpt lat="44.875808946479985" lon="9.054192757709634"><ele>253.0</ele><time>2026-05-01T12:56:08.001Z</time></trkpt><trkpt lat="44.875861734795535" lon="9.054304315407634"><ele>253.0</ele><time>2026-05-01T12:56:09.001Z</time></trkpt><trkpt lat="44.875869935807884" lon="9.054422651015075"><ele>252.99999999999997</ele><time>2026-05-01T12:56:10.001Z</time></trkpt><trkpt lat="44.87585204238755" lon="9.054507912327754"><ele>253.0</ele><time>2026-05-01T12:56:11.001Z</time></trkpt><trkpt lat="44.87589413724656" lon="9.054696704789249"><ele>250.4</ele><time>2026-05-01T12:56:13.001Z</time></trkpt><trkpt lat="44.875975858863264" lon="9.054766313554373"><ele>247.8</ele><time>2026-05-01T12:56:14.001Z</time></trkpt><trkpt lat="44.87606019747491" lon="9.054845471213715"><ele>245.2</ele><time>2026-05-01T12:56:15.001Z</time></trkpt><trkpt lat="44.87611494288003" lon="9.054950098257146"><ele>242.6</ele><time>2026-05-01T12:56:16.001Z</time></trkpt><trkpt lat="44.8761633439422" lon="9.05504809298477"><ele>240.0</ele><time>2026-05-01T12:56:17.001Z</time></trkpt><trkpt lat="44.87618936060359" lon="9.055149970899304"><ele>239.8</ele><time>2026-05-01T12:56:18.001Z</time></trkpt><trkpt lat="44.87623170126712" lon="9.055272483601648"><ele>239.6</ele><time>2026-05-01T12:56:20.001Z</time></trkpt><trkpt lat="44.876193950580905" lon="9.055393030523211"><ele>239.39999999999998</ele><time>2026-05-01T12:56:29.002Z</time></trkpt><trkpt lat="44.87607465158968" lon="9.055475676679917"><ele>239.2</ele><time>2026-05-01T12:56:31.002Z</time></trkpt><trkpt lat="44.87601631468812" lon="9.05552552184502"><ele>239.0</ele><time>2026-05-01T12:56:32.002Z</time></trkpt><trkpt lat="44.87591410368033" lon="9.055610016493654"><ele>239.0</ele><time>2026-05-01T12:56:34.002Z</time></trkpt><trkpt lat="44.87583327081734" lon="9.055667360552492"><ele>238.99999999999997</ele><time>2026-05-01T12:56:36.002Z</time></trkpt><trkpt lat="44.87577386648454" lon="9.055722030731303"><ele>238.99999999999997</ele><time>2026-05-01T12:56:38.002Z</time></trkpt><trkpt lat="44.87567672634291" lon="9.055795694939192"><ele>239.0</ele><time>2026-05-01T12:56:40.002Z</time></trkpt><trkpt lat="44.87561519657923" lon="9.055827508945365"><ele>239.0</ele><time>2026-05-01T12:56:42.002Z</time></trkpt><trkpt lat="44.87592547200884" lon="9.055734764505745"><ele>239.00000000000003</ele><time>2026-05-01T12:56:51.002Z</time></trkpt><trkpt lat="44.87579593118145" lon="9.055699169161946"><ele>239.0</ele><time>2026-05-01T12:56:52.002Z</time></trkpt><trkpt lat="44.875862718961734" lon="9.055658661519075"><ele>239.0</ele><time>2026-05-01T12:56:53.002Z</time></trkpt><trkpt lat="44.875923563770996" lon="9.055621058852209"><ele>239.0</ele><time>2026-05-01T12:56:54.002Z</time></trkpt><trkpt lat="44.87598237421279" lon="9.055583513043324"><ele>239.00000000000003</ele><time>2026-05-01T12:56:55.002Z</time></trkpt><trkpt lat="44.87604978640865" lon="9.0555351410914"><ele>239.0</ele><time>2026-05-01T12:56:56.002Z</time></trkpt><trkpt lat="44.87611813427787" lon="9.055476769432738"><ele>237.83333333333334</ele><time>2026-05-01T12:56:57.003Z</time></trkpt><trkpt lat="44.8761767904636" lon="9.055417897749507"><ele>236.66666666666669</ele><time>2026-05-01T12:56:58.003Z</time></trkpt><trkpt lat="44.876260449215785" lon="9.055326127224799"><ele>235.5</ele><time>2026-05-01T12:57:00.003Z</time></trkpt><trkpt lat="44.87638434460118" lon="9.055316071643135"><ele>234.33333333333331</ele><time>2026-05-01T12:57:02.003Z</time></trkpt><trkpt lat="44.87645489309345" lon="9.055332361510754"><ele>233.16666666666666</ele><time>2026-05-01T12:57:03.003Z</time></trkpt><trkpt lat="44.876521252866" lon="9.055370852851649"><ele>232.0</ele><time>2026-05-01T12:57:04.003Z</time></trkpt><trkpt lat="44.87661527355969" lon="9.055450871183629"><ele>231.99999999999997</ele><time>2026-05-01T12:57:06.003Z</time></trkpt><trkpt lat="44.876636856874896" lon="9.055568359131632"><ele>232.0</ele><time>2026-05-01T12:57:09.003Z</time></trkpt><trkpt lat="44.87667310453091" lon="9.055711283679639"><ele>232.0</ele><time>2026-05-01T12:57:11.003Z</time></trkpt><trkpt lat="44.87670693224356" lon="9.055802691218261"><ele>232.0</ele><time>2026-05-01T12:57:12.003Z</time></trkpt><trkpt lat="44.87674991278946" lon="9.05591038758276"><ele>231.99999999999997</ele><time>2026-05-01T12:57:13.003Z</time></trkpt><trkpt lat="44.87679523671648" lon="9.05602861988557"><ele>232.0</ele><time>2026-05-01T12:57:14.003Z</time></trkpt><trkpt lat="44.87683651076106" lon="9.056139449188734"><ele>230.99999999999997</ele><time>2026-05-01T12:57:15.003Z</time></trkpt><trkpt lat="44.87686940695496" lon="9.056227579803373"><ele>230.0</ele><time>2026-05-01T12:57:16.003Z</time></trkpt><trkpt lat="44.876898852799805" lon="9.056309725233698"><ele>229.0</ele><time>2026-05-01T12:57:17.003Z</time></trkpt><trkpt lat="44.87692459147039" lon="9.056393502044575"><ele>228.0</ele><time>2026-05-01T12:57:18.003Z</time></trkpt><trkpt lat="44.876958109443876" lon="9.056526557374456"><ele>226.99999999999997</ele><time>2026-05-01T12:57:20.003Z</time></trkpt><trkpt lat="44.876971582881254" lon="9.056651070570187"><ele>226.0</ele><time>2026-05-01T12:57:22.003Z</time></trkpt><trkpt lat="44.87691660824415" lon="9.056761431147343"><ele>226.0</ele><time>2026-05-01T12:57:23.998Z</time></trkpt><trkpt lat="44.876852947153694" lon="9.05691211948643"><ele>226.00000000000003</ele><time>2026-05-01T12:57:25.998Z</time></trkpt><trkpt lat="44.87679859370414" lon="9.056988298359675"><ele>226.00000000000003</ele><time>2026-05-01T12:57:26.998Z</time></trkpt><trkpt lat="44.876715143586345" lon="9.057121403033932"><ele>226.0</ele><time>2026-05-01T12:57:28.999Z</time></trkpt><trkpt lat="44.876656136734304" lon="9.05720073746306"><ele>226.0</ele><time>2026-05-01T12:57:29.999Z</time></trkpt><trkpt lat="44.87659860353518" lon="9.057270587838197"><ele>225.99999999999997</ele><time>2026-05-01T12:57:30.999Z</time></trkpt><trkpt lat="44.87653976071178" lon="9.057346350760286"><ele>226.0</ele><time>2026-05-01T12:57:31.999Z</time></trkpt><trkpt lat="44.87648253049216" lon="9.057422742542505"><ele>226.0</ele><time>2026-05-01T12:57:32.999Z</time></trkpt><trkpt lat="44.87642097426534" lon="9.057510486478856"><ele>226.0</ele><time>2026-05-01T12:57:33.999Z</time></trkpt><trkpt lat="44.876363004803935" lon="9.057608320397039"><ele>225.99999999999997</ele><time>2026-05-01T12:57:34.999Z</time></trkpt><trkpt lat="44.876301792056836" lon="9.057709987400578"><ele>226.0</ele><time>2026-05-01T12:57:35.999Z</time></trkpt><trkpt lat="44.876238873014366" lon="9.057797731561651"><ele>224.99999999999997</ele><time>2026-05-01T12:57:36.999Z</time></trkpt><trkpt lat="44.87618525770613" lon="9.057889049310065"><ele>224.0</ele><time>2026-05-01T12:57:37.999Z</time></trkpt><trkpt lat="44.87612237035959" lon="9.057971356612159"><ele>223.0</ele><time>2026-05-01T12:57:38.999Z</time></trkpt><trkpt lat="44.87605823432769" lon="9.058053266172674"><ele>222.0</ele><time>2026-05-01T12:57:39.999Z</time></trkpt><trkpt lat="44.87599161416914" lon="9.058135577294536"><ele>220.99999999999997</ele><time>2026-05-01T12:57:40.999Z</time></trkpt><trkpt lat="44.875936069177214" lon="9.058222931892125"><ele>220.0</ele><time>2026-05-01T12:57:42Z</time></trkpt><trkpt lat="44.87589040707754" lon="9.058311092665148"><ele>219.2</ele><time>2026-05-01T12:57:43Z</time></trkpt><trkpt lat="44.87584482900764" lon="9.058400355240723"><ele>218.4</ele><time>2026-05-01T12:57:44Z</time></trkpt><trkpt lat="44.87577092140262" lon="9.058517901790884"><ele>217.60000000000002</ele><time>2026-05-01T12:57:46Z</time></trkpt><trkpt lat="44.87570820647878" lon="9.05860237689759"><ele>216.8</ele><time>2026-05-01T12:57:48Z</time></trkpt><trkpt lat="44.87564631768137" lon="9.058694387875493"><ele>216.0</ele><time>2026-05-01T12:57:50Z</time></trkpt><trkpt lat="44.87556857109874" lon="9.058789545635603"><ele>216.0</ele><time>2026-05-01T12:57:52Z</time></trkpt><trkpt lat="44.87545349985664" lon="9.058788650787099"><ele>216.0</ele><time>2026-05-01T12:57:54Z</time></trkpt><trkpt lat="44.87537648873425" lon="9.058815048976644"><ele>216.0</ele><time>2026-05-01T12:57:55Z</time></trkpt><trkpt lat="44.87529887371872" lon="9.058813494686822"><ele>216.0</ele><time>2026-05-01T12:57:56Z</time></trkpt><trkpt lat="44.8752204883864" lon="9.058822266589054"><ele>216.0</ele><time>2026-05-01T12:57:57Z</time></trkpt><trkpt lat="44.875153819724325" lon="9.05885040522777"><ele>216.0</ele><time>2026-05-01T12:57:58Z</time></trkpt><trkpt lat="44.875101979324555" lon="9.058901968040626"><ele>216.60000000000002</ele><time>2026-05-01T12:57:59Z</time></trkpt><trkpt lat="44.875048742074256" lon="9.05896394356635"><ele>217.20000000000002</ele><time>2026-05-01T12:58:00Z</time></trkpt><trkpt lat="44.874985086259294" lon="9.059017340497732"><ele>217.79999999999998</ele><time>2026-05-01T12:58:01.001Z</time></trkpt><trkpt lat="44.87487508583458" lon="9.059149243504073"><ele>218.39999999999998</ele><time>2026-05-01T12:58:03.001Z</time></trkpt><trkpt lat="44.87482458230915" lon="9.059229438267396"><ele>219.0</ele><time>2026-05-01T12:58:04.001Z</time></trkpt><trkpt lat="44.87474591260672" lon="9.059284728156095"><ele>219.0</ele><time>2026-05-01T12:58:05.001Z</time></trkpt><trkpt lat="44.87468060992877" lon="9.05932253645775"><ele>219.0</ele><time>2026-05-01T12:58:06.001Z</time></trkpt><trkpt lat="44.8745957324284" lon="9.05933223717274"><ele>219.0</ele><time>2026-05-01T12:58:07.001Z</time></trkpt><trkpt lat="44.874518736823894" lon="9.059361933939906"><ele>219.0</ele><time>2026-05-01T12:58:08.001Z</time></trkpt><trkpt lat="44.8744478887487" lon="9.05937553156821"><ele>219.0</ele><time>2026-05-01T12:58:09.001Z</time></trkpt><trkpt lat="44.87436966135372" lon="9.059366486369703"><ele>219.0</ele><time>2026-05-01T12:58:10.001Z</time></trkpt><trkpt lat="44.87429484518344" lon="9.059352851166175"><ele>220.5</ele><time>2026-05-01T12:58:11.001Z</time></trkpt><trkpt lat="44.87422997725872" lon="9.059326202427656"><ele>222.0</ele><time>2026-05-01T12:58:12.001Z</time></trkpt><trkpt lat="44.87416301918496" lon="9.059285306994354"><ele>223.5</ele><time>2026-05-01T12:58:13.001Z</time></trkpt><trkpt lat="44.87409250199891" lon="9.059234304284159"><ele>225.0</ele><time>2026-05-01T12:58:14.001Z</time></trkpt><trkpt lat="44.87402539817657" lon="9.059180234035047"><ele>226.5</ele><time>2026-05-01T12:58:15.001Z</time></trkpt><trkpt lat="44.87395866285786" lon="9.059127112291137"><ele>228.0</ele><time>2026-05-01T12:58:16.001Z</time></trkpt><trkpt lat="44.873869385817535" lon="9.059054404521047"><ele>228.5</ele><time>2026-05-01T12:58:17.001Z</time></trkpt><trkpt lat="44.87380437658393" lon="9.058994570720778"><ele>229.0</ele><time>2026-05-01T12:58:18.001Z</time></trkpt><trkpt lat="44.87374202201851" lon="9.058924700857755"><ele>229.5</ele><time>2026-05-01T12:58:19.001Z</time></trkpt><trkpt lat="44.87369120027511" lon="9.058845520107994"><ele>230.0</ele><time>2026-05-01T12:58:20.001Z</time></trkpt><trkpt lat="44.873635489854635" lon="9.058751571082988"><ele>230.5</ele><time>2026-05-01T12:58:21.001Z</time></trkpt><trkpt lat="44.87358486455963" lon="9.058656216667382"><ele>231.0</ele><time>2026-05-01T12:58:22.001Z</time></trkpt><trkpt lat="44.8735352194209" lon="9.058560494640501"><ele>231.0</ele><time>2026-05-01T12:58:23.001Z</time></trkpt><trkpt lat="44.87346913043046" lon="9.058476520597708"><ele>231.00000000000003</ele><time>2026-05-01T12:58:24.001Z</time></trkpt><trkpt lat="44.87342001973155" lon="9.058373569827518"><ele>231.00000000000003</ele><time>2026-05-01T12:58:25.001Z</time></trkpt><trkpt lat="44.87336438927973" lon="9.058286808940823"><ele>231.0</ele><time>2026-05-01T12:58:26.001Z</time></trkpt><trkpt lat="44.87329758215051" lon="9.058154961528519"><ele>231.0</ele><time>2026-05-01T12:58:28.001Z</time></trkpt><trkpt lat="44.87322614341143" lon="9.058068117476235"><ele>232.8</ele><time>2026-05-01T12:58:29.002Z</time></trkpt><trkpt lat="44.873162177371476" lon="9.057974572843907"><ele>234.60000000000002</ele><time>2026-05-01T12:58:31.002Z</time></trkpt><trkpt lat="44.87300126107143" lon="9.057981532875589"><ele>236.4</ele><time>2026-05-01T12:58:36.002Z</time></trkpt><trkpt lat="44.8729326699156" lon="9.058037463224112"><ele>238.2</ele><time>2026-05-01T12:58:37.002Z</time></trkpt><trkpt lat="44.872842069485024" lon="9.058113136760955"><ele>240.0</ele><time>2026-05-01T12:58:38.002Z</time></trkpt><trkpt lat="44.87274119256017" lon="9.05819826507674"><ele>239.4</ele><time>2026-05-01T12:58:39.002Z</time></trkpt><trkpt lat="44.872633857172" lon="9.058288843578282"><ele>238.8</ele><time>2026-05-01T12:58:40.002Z</time></trkpt><trkpt lat="44.872544536616154" lon="9.05836421967339"><ele>238.2</ele><time>2026-05-01T12:58:41.002Z</time></trkpt><trkpt lat="44.87245436623705" lon="9.058440312917709"><ele>237.6</ele><time>2026-05-01T12:58:42.002Z</time></trkpt><trkpt lat="44.87235791133748" lon="9.058521709566422"><ele>237.0</ele><time>2026-05-01T12:58:43.002Z</time></trkpt><trkpt lat="44.872263074566575" lon="9.058601740698457"><ele>237.99999999999997</ele><time>2026-05-01T12:58:44.002Z</time></trkpt><trkpt lat="44.87218177535643" lon="9.058670347714308"><ele>239.0</ele><time>2026-05-01T12:58:45.002Z</time></trkpt><trkpt lat="44.872126712754536" lon="9.05874327482629"><ele>239.99999999999997</ele><time>2026-05-01T12:58:46.002Z</time></trkpt><trkpt lat="44.87206515689234" lon="9.05878013147486"><ele>240.99999999999997</ele><time>2026-05-01T12:58:47.002Z</time></trkpt><trkpt lat="44.87200619609944" lon="9.058818162073534"><ele>242.0</ele><time>2026-05-01T12:58:48.002Z</time></trkpt><trkpt lat="44.87194126707894" lon="9.058837465105679"><ele>242.99999999999997</ele><time>2026-05-01T12:58:49.002Z</time></trkpt><trkpt lat="44.871872756596694" lon="9.058826538949683"><ele>243.99999999999997</ele><time>2026-05-01T12:58:50.002Z</time></trkpt><trkpt lat="44.871797703248205" lon="9.05879031160463"><ele>245.0</ele><time>2026-05-01T12:58:51.002Z</time></trkpt><trkpt lat="44.87171585437227" lon="9.058720191425959"><ele>245.99999999999997</ele><time>2026-05-01T12:58:52.002Z</time></trkpt><trkpt lat="44.871623027222455" lon="9.058645091726795"><ele>246.99999999999997</ele><time>2026-05-01T12:58:53.002Z</time></trkpt><trkpt lat="44.87151732755301" lon="9.05856280970741"><ele>248.0</ele><time>2026-05-01T12:58:54.002Z</time></trkpt><trkpt lat="44.871414305725416" lon="9.058472978068146"><ele>249.0</ele><time>2026-05-01T12:58:55.002Z</time></trkpt><trkpt lat="44.871313732423936" lon="9.058378723583212"><ele>249.0</ele><time>2026-05-01T12:58:56.002Z</time></trkpt><trkpt lat="44.87121240902139" lon="9.058286617355765"><ele>248.99999999999997</ele><time>2026-05-01T12:58:57.002Z</time></trkpt><trkpt lat="44.87111905270647" lon="9.058212324219168"><ele>248.99999999999997</ele><time>2026-05-01T12:58:58.002Z</time></trkpt><trkpt lat="44.871030485482876" lon="9.058159663701474"><ele>249.0</ele><time>2026-05-01T12:58:59.002Z</time></trkpt><trkpt lat="44.87095461507094" lon="9.058118297461101"><ele>249.0</ele><time>2026-05-01T12:59:00.002Z</time></trkpt><trkpt lat="44.870878471371675" lon="9.058121448423448"><ele>248.83333333333334</ele><time>2026-05-01T12:59:01.003Z</time></trkpt><trkpt lat="44.87081475235334" lon="9.058163112851512"><ele>248.66666666666669</ele><time>2026-05-01T12:59:02.003Z</time></trkpt><trkpt lat="44.87077523568943" lon="9.058247059524081"><ele>248.5</ele><time>2026-05-01T12:59:03.003Z</time></trkpt><trkpt lat="44.87076264085158" lon="9.058358145855655"><ele>248.33333333333334</ele><time>2026-05-01T12:59:04.003Z</time></trkpt><trkpt lat="44.87077720476359" lon="9.058494951939963"><ele>248.16666666666669</ele><time>2026-05-01T12:59:05.003Z</time></trkpt><trkpt lat="44.870796467521" lon="9.058641515561021"><ele>248.0</ele><time>2026-05-01T12:59:06.003Z</time></trkpt><trkpt lat="44.870788726112536" lon="9.058781863602555"><ele>248.0</ele><time>2026-05-01T12:59:07.003Z</time></trkpt><trkpt lat="44.870761805726865" lon="9.058917038659919"><ele>248.0</ele><time>2026-05-01T12:59:08.003Z</time></trkpt><trkpt lat="44.87071501990925" lon="9.0590363954712"><ele>248.0</ele><time>2026-05-01T12:59:09.003Z</time></trkpt><trkpt lat="44.870654002554076" lon="9.059145871752703"><ele>248.0</ele><time>2026-05-01T12:59:10.003Z</time></trkpt><trkpt lat="44.87058173824619" lon="9.059245195796853"><ele>248.0</ele><time>2026-05-01T12:59:11.003Z</time></trkpt><trkpt lat="44.87049809036972" lon="9.059333887445865"><ele>248.75</ele><time>2026-05-01T12:59:12.003Z</time></trkpt><trkpt lat="44.870399990893574" lon="9.059402724988018"><ele>249.5</ele><time>2026-05-01T12:59:13.003Z</time></trkpt><trkpt lat="44.87029428544045" lon="9.059447347279127"><ele>250.25</ele><time>2026-05-01T12:59:14.003Z</time></trkpt><trkpt lat="44.8701816642024" lon="9.059472968685402"><ele>251.0</ele><time>2026-05-01T12:59:15.003Z</time></trkpt><trkpt lat="44.87006310492965" lon="9.059489066261953"><ele>251.0</ele><time>2026-05-01T12:59:16.003Z</time></trkpt><trkpt lat="44.869944933221255" lon="9.05950193436691"><ele>251.0</ele><time>2026-05-01T12:59:17.003Z</time></trkpt><trkpt lat="44.86981828948581" lon="9.059508309811706"><ele>251.0</ele><time>2026-05-01T12:59:18.003Z</time></trkpt><trkpt lat="44.86969143967635" lon="9.05950411668676"><ele>251.0</ele><time>2026-05-01T12:59:19.003Z</time></trkpt><trkpt lat="44.86957487617753" lon="9.059485210928221"><ele>251.0</ele><time>2026-05-01T12:59:20.003Z</time></trkpt><trkpt lat="44.86945564874284" lon="9.05944942560276"><ele>251.0</ele><time>2026-05-01T12:59:21.003Z</time></trkpt><trkpt lat="44.86935007792011" lon="9.059400065564382"><ele>251.0</ele><time>2026-05-01T12:59:22.003Z</time></trkpt><trkpt lat="44.869256677075356" lon="9.05932026183048"><ele>251.0</ele><time>2026-05-01T12:59:23.003Z</time></trkpt><trkpt lat="44.869158388543774" lon="9.059250554022583"><ele>251.60000000000002</ele><time>2026-05-01T12:59:24.003Z</time></trkpt><trkpt lat="44.869055800364585" lon="9.059208369383681"><ele>252.20000000000002</ele><time>2026-05-01T12:59:25.003Z</time></trkpt><trkpt lat="44.86896494891698" lon="9.059168948475532"><ele>252.79999999999998</ele><time>2026-05-01T12:59:26.003Z</time></trkpt><trkpt lat="44.86887259553332" lon="9.059131981091525"><ele>253.39999999999998</ele><time>2026-05-01T12:59:27.003Z</time></trkpt><trkpt lat="44.86877781054694" lon="9.059142568963699"><ele>254.0</ele><time>2026-05-01T12:59:28.003Z</time></trkpt><trkpt lat="44.868695496784014" lon="9.059169083487586"><ele>254.0</ele><time>2026-05-01T12:59:28.998Z</time></trkpt><trkpt lat="44.86861157351153" lon="9.05926627716251"><ele>253.99999999999997</ele><time>2026-05-01T12:59:29.998Z</time></trkpt><trkpt lat="44.868518233534836" lon="9.059346115654234"><ele>253.99999999999997</ele><time>2026-05-01T12:59:30.998Z</time></trkpt><trkpt lat="44.86843309460664" lon="9.05944796788616"><ele>254.0</ele><time>2026-05-01T12:59:31.998Z</time></trkpt><trkpt lat="44.86835153905449" lon="9.059558617107376"><ele>254.0</ele><time>2026-05-01T12:59:32.998Z</time></trkpt><trkpt lat="44.86828673826789" lon="9.059677123454582"><ele>254.0</ele><time>2026-05-01T12:59:33.998Z</time></trkpt><trkpt lat="44.86822023671403" lon="9.059786131931482"><ele>253.99999999999997</ele><time>2026-05-01T12:59:34.998Z</time></trkpt><trkpt lat="44.86818761957522" lon="9.059925390757154"><ele>253.99999999999997</ele><time>2026-05-01T12:59:35.998Z</time></trkpt><trkpt lat="44.86817184684154" lon="9.060071737539378"><ele>254.0</ele><time>2026-05-01T12:59:36.999Z</time></trkpt><trkpt lat="44.868154659773204" lon="9.06019566287932"><ele>254.0</ele><time>2026-05-01T12:59:37.999Z</time></trkpt><trkpt lat="44.8681239404701" lon="9.060298704006655"><ele>254.0</ele><time>2026-05-01T12:59:38.999Z</time></trkpt><trkpt lat="44.86807341671005" lon="9.06041560439536"><ele>254.0</ele><time>2026-05-01T12:59:39.999Z</time></trkpt><trkpt lat="44.867979020176286" lon="9.060479633670752"><ele>254.0</ele><time>2026-05-01T12:59:40.999Z</time></trkpt><trkpt lat="44.86786993125029" lon="9.060563790111498"><ele>254.0</ele><time>2026-05-01T12:59:41.999Z</time></trkpt><trkpt lat="44.86775085077441" lon="9.060656188390366"><ele>254.0</ele><time>2026-05-01T12:59:42.999Z</time></trkpt><trkpt lat="44.86762534358106" lon="9.060752544656506"><ele>254.0</ele><time>2026-05-01T12:59:43.999Z</time></trkpt><trkpt lat="44.867499885388746" lon="9.06084886320941"><ele>254.0</ele><time>2026-05-01T12:59:44.999Z</time></trkpt><trkpt lat="44.86737949234481" lon="9.060941293126826"><ele>254.0</ele><time>2026-05-01T12:59:45.999Z</time></trkpt><trkpt lat="44.867267445063725" lon="9.061024323014662"><ele>253.25</ele><time>2026-05-01T12:59:46.999Z</time></trkpt><trkpt lat="44.86716004171435" lon="9.061101964866454"><ele>252.5</ele><time>2026-05-01T12:59:47.999Z</time></trkpt><trkpt lat="44.86706078883968" lon="9.061181498314735"><ele>251.75</ele><time>2026-05-01T12:59:48.999Z</time></trkpt><trkpt lat="44.86696729068821" lon="9.06126711475792"><ele>251.0</ele><time>2026-05-01T12:59:49.999Z</time></trkpt><trkpt lat="44.866894496196046" lon="9.061379859522301"><ele>251.0</ele><time>2026-05-01T12:59:51Z</time></trkpt><trkpt lat="44.86682660479672" lon="9.061482276360994"><ele>251.00000000000003</ele><time>2026-05-01T12:59:52Z</time></trkpt><trkpt lat="44.866758064230844" lon="9.06158215539439"><ele>251.00000000000003</ele><time>2026-05-01T12:59:53Z</time></trkpt><trkpt lat="44.86670535920513" lon="9.061713275713247"><ele>251.0</ele><time>2026-05-01T12:59:54Z</time></trkpt><trkpt lat="44.866664576818366" lon="9.061848768098915"><ele>251.0</ele><time>2026-05-01T12:59:55Z</time></trkpt><trkpt lat="44.86664142653777" lon="9.061988138602517"><ele>248.75</ele><time>2026-05-01T12:59:56Z</time></trkpt><trkpt lat="44.86663775667899" lon="9.062144139374668"><ele>246.5</ele><time>2026-05-01T12:59:57Z</time></trkpt><trkpt lat="44.866648287910294" lon="9.062319096018488"><ele>244.25</ele><time>2026-05-01T12:59:58Z</time></trkpt><trkpt lat="44.86665578519193" lon="9.062484505896158"><ele>242.0</ele><time>2026-05-01T12:59:59Z</time></trkpt><trkpt lat="44.86665441818696" lon="9.062630891818587"><ele>241.0</ele><time>2026-05-01T13:00:00Z</time></trkpt><trkpt lat="44.86663078994093" lon="9.06273772797323"><ele>240.0</ele><time>2026-05-01T13:00:01Z</time></trkpt><trkpt lat="44.86660913070679" lon="9.062865213830712"><ele>239.0</ele><time>2026-05-01T13:00:02Z</time></trkpt><trkpt lat="44.86656647325545" lon="9.062936253203832"><ele>238.0</ele><time>2026-05-01T13:00:03Z</time></trkpt><trkpt lat="44.866496501566246" lon="9.063062495583631"><ele>237.0</ele><time>2026-05-01T13:00:04Z</time></trkpt><trkpt lat="44.866418963620966" lon="9.063180138572239"><ele>237.0</ele><time>2026-05-01T13:00:05Z</time></trkpt><trkpt lat="44.86633100878986" lon="9.063303364428268"><ele>237.0</ele><time>2026-05-01T13:00:06Z</time></trkpt><trkpt lat="44.86624407013916" lon="9.063420293538748"><ele>237.0</ele><time>2026-05-01T13:00:07Z</time></trkpt><trkpt lat="44.866159544565114" lon="9.063536454179447"><ele>237.0</ele><time>2026-05-01T13:00:08Z</time></trkpt><trkpt lat="44.86609591909604" lon="9.06365962333758"><ele>237.0</ele><time>2026-05-01T13:00:09.001Z</time></trkpt><trkpt lat="44.866027125355544" lon="9.0637601852976"><ele>237.0</ele><time>2026-05-01T13:00:10.001Z</time></trkpt><trkpt lat="44.86596747383502" lon="9.063835828004073"><ele>237.0</ele><time>2026-05-01T13:00:11.001Z</time></trkpt><trkpt lat="44.865899103448484" lon="9.063924491443062"><ele>237.0</ele><time>2026-05-01T13:00:13.001Z</time></trkpt><trkpt lat="44.86584758838815" lon="9.063843152318224"><ele>237.0</ele><time>2026-05-01T13:00:16.001Z</time></trkpt><trkpt lat="44.865793776081" lon="9.063720184192308"><ele>237.5</ele><time>2026-05-01T13:00:18.001Z</time></trkpt><trkpt lat="44.86575035467707" lon="9.063641722601307"><ele>238.0</ele><time>2026-05-01T13:00:19.001Z</time></trkpt><trkpt lat="44.865700783168585" lon="9.06355096030165"><ele>238.5</ele><time>2026-05-01T13:00:20.001Z</time></trkpt><trkpt lat="44.86564889335384" lon="9.063463262034944"><ele>239.0</ele><time>2026-05-01T13:00:21.001Z</time></trkpt><trkpt lat="44.8655928515124" lon="9.06336467451024"><ele>239.5</ele><time>2026-05-01T13:00:22.001Z</time></trkpt><trkpt lat="44.86553666369313" lon="9.063261582706884"><ele>240.0</ele><time>2026-05-01T13:00:23.001Z</time></trkpt><trkpt lat="44.86547879351628" lon="9.063158242563"><ele>240.0</ele><time>2026-05-01T13:00:24.001Z</time></trkpt><trkpt lat="44.865419442847305" lon="9.063053598225768"><ele>240.0</ele><time>2026-05-01T13:00:25.001Z</time></trkpt><trkpt lat="44.865362771733075" lon="9.062952107665328"><ele>240.0</ele><time>2026-05-01T13:00:26.001Z</time></trkpt><trkpt lat="44.86530365986821" lon="9.062855279084065"><ele>240.0</ele><time>2026-05-01T13:00:27.001Z</time></trkpt><trkpt lat="44.865249325515" lon="9.062779485622988"><ele>240.0</ele><time>2026-05-01T13:00:28.001Z</time></trkpt><trkpt lat="44.8651862428388" lon="9.062695665503341"><ele>240.0</ele><time>2026-05-01T13:00:29.001Z</time></trkpt><trkpt lat="44.86511341344317" lon="9.062611327927765"><ele>241.2</ele><time>2026-05-01T13:00:30.001Z</time></trkpt><trkpt lat="44.865042158398616" lon="9.062519897644558"><ele>242.4</ele><time>2026-05-01T13:00:31.001Z</time></trkpt><trkpt lat="44.864968168679354" lon="9.062438668884"><ele>243.60000000000002</ele><time>2026-05-01T13:00:32.001Z</time></trkpt><trkpt lat="44.86489518295759" lon="9.062350873150432"><ele>244.8</ele><time>2026-05-01T13:00:33.001Z</time></trkpt><trkpt lat="44.864827743385284" lon="9.062254517618053"><ele>246.0</ele><time>2026-05-01T13:00:34.001Z</time></trkpt><trkpt lat="44.86475781049285" lon="9.062159639365925"><ele>246.0</ele><time>2026-05-01T13:00:35.001Z</time></trkpt><trkpt lat="44.86468964387929" lon="9.062068119645533"><ele>246.00000000000003</ele><time>2026-05-01T13:00:36.002Z</time></trkpt><trkpt lat="44.864617745207426" lon="9.061982668379105"><ele>246.00000000000003</ele><time>2026-05-01T13:00:37.002Z</time></trkpt><trkpt lat="44.86453433729437" lon="9.061901001449572"><ele>246.0</ele><time>2026-05-01T13:00:38.002Z</time></trkpt><trkpt lat="44.86447145839347" lon="9.061810637768378"><ele>246.0</ele><time>2026-05-01T13:00:39.002Z</time></trkpt><trkpt lat="44.86440383706387" lon="9.061741647531385"><ele>246.0</ele><time>2026-05-01T13:00:40.002Z</time></trkpt><trkpt lat="44.86434880171864" lon="9.061671037527407"><ele>246.00000000000003</ele><time>2026-05-01T13:00:41.002Z</time></trkpt><trkpt lat="44.864281703749974" lon="9.061588795585497"><ele>246.00000000000003</ele><time>2026-05-01T13:00:43.002Z</time></trkpt><trkpt lat="44.86420590602746" lon="9.061553425879875"><ele>246.0</ele><time>2026-05-01T13:00:49.002Z</time></trkpt><trkpt lat="44.864196352322764" lon="9.061752501423587"><ele>246.0</ele><time>2026-05-01T13:00:51.002Z</time></trkpt><trkpt lat="44.86421274565684" lon="9.061889563301408"><ele>248.0</ele><time>2026-05-01T13:00:53.002Z</time></trkpt><trkpt lat="44.86417677689026" lon="9.062020576354358"><ele>250.00000000000003</ele><time>2026-05-01T13:00:55.002Z</time></trkpt><trkpt lat="44.86414974534787" lon="9.062144311683577"><ele>252.00000000000003</ele><time>2026-05-01T13:00:57.002Z</time></trkpt><trkpt lat="44.864107002880935" lon="9.062304022974923"><ele>254.0</ele><time>2026-05-01T13:00:59.002Z</time></trkpt><trkpt lat="44.86407520936381" lon="9.062403811486435"><ele>256.0</ele><time>2026-05-01T13:01:00.002Z</time></trkpt><trkpt lat="44.864040923638015" lon="9.062507045132032"><ele>255.99999999999997</ele><time>2026-05-01T13:01:01.002Z</time></trkpt><trkpt lat="44.86400846459156" lon="9.062607425982728"><ele>256.0</ele><time>2026-05-01T13:01:02.002Z</time></trkpt><trkpt lat="44.86398756857604" lon="9.0627169448576"><ele>256.0</ele><time>2026-05-01T13:01:03.002Z</time></trkpt><trkpt lat="44.86395402365711" lon="9.062832090197878"><ele>256.0</ele><time>2026-05-01T13:01:04.002Z</time></trkpt><trkpt lat="44.86392176180143" lon="9.062966451399845"><ele>255.99999999999997</ele><time>2026-05-01T13:01:05.002Z</time></trkpt><trkpt lat="44.86389607603418" lon="9.063083122916598"><ele>256.0</ele><time>2026-05-01T13:01:06.002Z</time></trkpt><trkpt lat="44.8638575263059" lon="9.063184959463621"><ele>254.8</ele><time>2026-05-01T13:01:07.002Z</time></trkpt><trkpt lat="44.86382198014935" lon="9.063298516980451"><ele>253.60000000000002</ele><time>2026-05-01T13:01:08.002Z</time></trkpt><trkpt lat="44.863754532958474" lon="9.063401611134923"><ele>252.4</ele><time>2026-05-01T13:01:09.003Z</time></trkpt><trkpt lat="44.86368047558939" lon="9.063505755213512"><ele>251.2</ele><time>2026-05-01T13:01:10.003Z</time></trkpt><trkpt lat="44.86359202451941" lon="9.06360601803239"><ele>250.0</ele><time>2026-05-01T13:01:11.003Z</time></trkpt><trkpt lat="44.86350281272818" lon="9.063705740484432"><ele>252.25</ele><time>2026-05-01T13:01:12.003Z</time></trkpt><trkpt lat="44.863406705402085" lon="9.063806909863253"><ele>254.5</ele><time>2026-05-01T13:01:13.003Z</time></trkpt><trkpt lat="44.863309859903495" lon="9.063901805017831"><ele>256.75</ele><time>2026-05-01T13:01:14.003Z</time></trkpt><trkpt lat="44.863213818937645" lon="9.06400402811553"><ele>259.0</ele><time>2026-05-01T13:01:15.003Z</time></trkpt><trkpt lat="44.86312970200558" lon="9.064087442069345"><ele>257.8333333333333</ele><time>2026-05-01T13:01:16.003Z</time></trkpt><trkpt lat="44.86305613977747" lon="9.06418366311746"><ele>256.66666666666663</ele><time>2026-05-01T13:01:17.003Z</time></trkpt><trkpt lat="44.862986040356375" lon="9.064283438099203"><ele>255.5</ele><time>2026-05-01T13:01:18.003Z</time></trkpt><trkpt lat="44.86292495257428" lon="9.064379914820078"><ele>254.33333333333331</ele><time>2026-05-01T13:01:19.003Z</time></trkpt><trkpt lat="44.86287894243091" lon="9.064481897463251"><ele>253.16666666666666</ele><time>2026-05-01T13:01:20.003Z</time></trkpt><trkpt lat="44.86284290492183" lon="9.064556743579457"><ele>252.0</ele><time>2026-05-01T13:01:21.003Z</time></trkpt><trkpt lat="44.862815505184415" lon="9.064654215138061"><ele>252.0</ele><time>2026-05-01T13:01:22.003Z</time></trkpt><trkpt lat="44.86279854080162" lon="9.064778133727863"><ele>252.0</ele><time>2026-05-01T13:01:23.003Z</time></trkpt><trkpt lat="44.86282278356917" lon="9.064892745084416"><ele>252.0</ele><time>2026-05-01T13:01:24.003Z</time></trkpt><trkpt lat="44.86282285769879" lon="9.064999014128686"><ele>252.0</ele><time>2026-05-01T13:01:25.003Z</time></trkpt><trkpt lat="44.862816007294356" lon="9.065092431879764"><ele>252.0</ele><time>2026-05-01T13:01:26.003Z</time></trkpt><trkpt lat="44.86277371407752" lon="9.065243667561916"><ele>252.0</ele><time>2026-05-01T13:01:28.003Z</time></trkpt><trkpt lat="44.86270217957998" lon="9.065318641490352"><ele>251.75</ele><time>2026-05-01T13:01:29.003Z</time></trkpt><trkpt lat="44.86263653006909" lon="9.065433511930399"><ele>251.5</ele><time>2026-05-01T13:01:30.003Z</time></trkpt><trkpt lat="44.86256372995234" lon="9.065556221962837"><ele>251.25</ele><time>2026-05-01T13:01:31.003Z</time></trkpt><trkpt lat="44.86248319839419" lon="9.065685766780707"><ele>251.0</ele><time>2026-05-01T13:01:32.003Z</time></trkpt><trkpt lat="44.862400545815916" lon="9.06581941138034"><ele>251.00000000000003</ele><time>2026-05-01T13:01:33.003Z</time></trkpt><trkpt lat="44.86233151725605" lon="9.06593805196446"><ele>251.0</ele><time>2026-05-01T13:01:34.003Z</time></trkpt><trkpt lat="44.8622715899235" lon="9.066047889067253"><ele>251.0</ele><time>2026-05-01T13:01:34.998Z</time></trkpt><trkpt lat="44.862232544759586" lon="9.066140153708588"><ele>251.0</ele><time>2026-05-01T13:01:35.998Z</time></trkpt><trkpt lat="44.86219800906556" lon="9.066262925651962"><ele>251.00000000000003</ele><time>2026-05-01T13:01:37.998Z</time></trkpt><trkpt lat="44.86214583542185" lon="9.066324425861357"><ele>251.0</ele><time>2026-05-01T13:01:52.999Z</time></trkpt><trkpt lat="44.86195173617826" lon="9.066327722024146"><ele>251.0</ele><time>2026-05-01T13:01:54.999Z</time></trkpt><trkpt lat="44.86188403950023" lon="9.066359136608327"><ele>251.00000000000003</ele><time>2026-05-01T13:01:55.999Z</time></trkpt><trkpt lat="44.86181940996066" lon="9.066385546949542"><ele>251.00000000000003</ele><time>2026-05-01T13:01:57Z</time></trkpt><trkpt lat="44.86171530587564" lon="9.066493303424384"><ele>251.0</ele><time>2026-05-01T13:01:59Z</time></trkpt><trkpt lat="44.861661810516786" lon="9.066589739920925"><ele>251.0</ele><time>2026-05-01T13:02:00Z</time></trkpt><trkpt lat="44.8615901610924" lon="9.06671512815452"><ele>253.0</ele><time>2026-05-01T13:02:02Z</time></trkpt><trkpt lat="44.86150283533723" lon="9.066795397157604"><ele>255.00000000000003</ele><time>2026-05-01T13:02:04Z</time></trkpt><trkpt lat="44.86141086158022" lon="9.066810492197167"><ele>257.0</ele><time>2026-05-01T13:02:06Z</time></trkpt><trkpt lat="44.86130524867131" lon="9.066810325150962"><ele>259.0</ele><time>2026-05-01T13:02:08Z</time></trkpt><trkpt lat="44.86124136674566" lon="9.06682691879213"><ele>261.0</ele><time>2026-05-01T13:02:09Z</time></trkpt><trkpt lat="44.86116817628544" lon="9.066950929700779"><ele>261.0</ele><time>2026-05-01T13:02:11Z</time></trkpt><trkpt lat="44.86113601267539" lon="9.067134771947476"><ele>261.0</ele><time>2026-05-01T13:02:13Z</time></trkpt><trkpt lat="44.86110482836821" lon="9.067261647993652"><ele>261.0</ele><time>2026-05-01T13:02:14.001Z</time></trkpt><trkpt lat="44.86109242051972" lon="9.067373285353206"><ele>261.0</ele><time>2026-05-01T13:02:15.001Z</time></trkpt><trkpt lat="44.86107698079189" lon="9.067534824146243"><ele>261.0</ele><time>2026-05-01T13:02:17.001Z</time></trkpt><trkpt lat="44.86104953672472" lon="9.067634373897597"><ele>258.40000000000003</ele><time>2026-05-01T13:02:18.001Z</time></trkpt><trkpt lat="44.86099848644004" lon="9.067723532038228"><ele>255.8</ele><time>2026-05-01T13:02:19.001Z</time></trkpt><trkpt lat="44.860959825542444" lon="9.067799820806638"><ele>253.20000000000002</ele><time>2026-05-01T13:02:20.001Z</time></trkpt><trkpt lat="44.8608859136344" lon="9.067935057667428"><ele>250.60000000000002</ele><time>2026-05-01T13:02:22.001Z</time></trkpt><trkpt lat="44.86078755327884" lon="9.068037542307048"><ele>248.0</ele><time>2026-05-01T13:02:24.001Z</time></trkpt><trkpt lat="44.86076396320961" lon="9.068160467242679"><ele>255.8</ele><time>2026-05-01T13:02:26.001Z</time></trkpt><trkpt lat="44.86078792659733" lon="9.068303479671266"><ele>263.6</ele><time>2026-05-01T13:02:28.001Z</time></trkpt><trkpt lat="44.86082029069796" lon="9.068391467881456"><ele>271.4</ele><time>2026-05-01T13:02:29.001Z</time></trkpt><trkpt lat="44.860871071426814" lon="9.068550761236938"><ele>279.2</ele><time>2026-05-01T13:02:31.001Z</time></trkpt><trkpt lat="44.86084737337132" lon="9.068661177858237"><ele>287.0</ele><time>2026-05-01T13:02:32.001Z</time></trkpt><trkpt lat="44.860818837588155" lon="9.068752026121906"><ele>287.0</ele><time>2026-05-01T13:02:33.001Z</time></trkpt><trkpt lat="44.8607754315552" lon="9.068842209596403"><ele>287.0</ele><time>2026-05-01T13:02:34.001Z</time></trkpt><trkpt lat="44.86072112977282" lon="9.068897782258917"><ele>287.0</ele><time>2026-05-01T13:02:35.001Z</time></trkpt><trkpt lat="44.86065773183998" lon="9.068944550593292"><ele>287.0</ele><time>2026-05-01T13:02:36.001Z</time></trkpt><trkpt lat="44.86055743736528" lon="9.069052386551249"><ele>287.0</ele><time>2026-05-01T13:02:38.001Z</time></trkpt><trkpt lat="44.86049906019669" lon="9.069093092966133"><ele>287.0</ele><time>2026-05-01T13:02:39.001Z</time></trkpt><trkpt lat="44.86041148833327" lon="9.069145897013776"><ele>285.83333333333337</ele><time>2026-05-01T13:02:41.002Z</time></trkpt><trkpt lat="44.86034890769573" lon="9.06915966827813"><ele>284.6666666666667</ele><time>2026-05-01T13:02:42.002Z</time></trkpt><trkpt lat="44.86024995424901" lon="9.069168798265512"><ele>283.5</ele><time>2026-05-01T13:02:44.002Z</time></trkpt><trkpt lat="44.860185392356684" lon="9.069177809143007"><ele>282.3333333333333</ele><time>2026-05-01T13:02:45.002Z</time></trkpt><trkpt lat="44.860039384461025" lon="9.069149513044502"><ele>281.16666666666663</ele><time>2026-05-01T13:02:47.002Z</time></trkpt><trkpt lat="44.85996795113261" lon="9.069136426591234"><ele>280.0</ele><time>2026-05-01T13:02:48.002Z</time></trkpt><trkpt lat="44.85989265561341" lon="9.069118193229972"><ele>285.6</ele><time>2026-05-01T13:02:49.002Z</time></trkpt><trkpt lat="44.8598014526902" lon="9.06911777802723"><ele>291.2</ele><time>2026-05-01T13:02:50.002Z</time></trkpt><trkpt lat="44.8596646195725" lon="9.069110411884493"><ele>296.8</ele><time>2026-05-01T13:02:52.002Z</time></trkpt><trkpt lat="44.85954750138569" lon="9.069116218831136"><ele>302.4</ele><time>2026-05-01T13:02:54.002Z</time></trkpt><trkpt lat="44.85947917655566" lon="9.069114944154133"><ele>308.0</ele><time>2026-05-01T13:02:55.002Z</time></trkpt><trkpt lat="44.85941347305993" lon="9.069111397263509"><ele>308.0</ele><time>2026-05-01T13:02:56.002Z</time></trkpt><trkpt lat="44.859329003242934" lon="9.069118933853009"><ele>308.0</ele><time>2026-05-01T13:02:58.002Z</time></trkpt><trkpt lat="44.8592609658471" lon="9.069115432287077"><ele>308.0</ele><time>2026-05-01T13:03:06.002Z</time></trkpt><trkpt lat="44.85919846185698" lon="9.069079375116258"><ele>308.0</ele><time>2026-05-01T13:03:09.002Z</time></trkpt><trkpt lat="44.859135153193904" lon="9.069018696772092"><ele>308.0</ele><time>2026-05-01T13:03:12.002Z</time></trkpt><trkpt lat="44.85907854419605" lon="9.069068982216022"><ele>308.0</ele><time>2026-05-01T13:03:14.003Z</time></trkpt><trkpt lat="44.85905390801473" lon="9.069163693091152"><ele>308.0</ele><time>2026-05-01T13:03:16.003Z</time></trkpt><trkpt lat="44.85900937944872" lon="9.06930630570305"><ele>310.4</ele><time>2026-05-01T13:03:18.003Z</time></trkpt><trkpt lat="44.85896693662402" lon="9.069446917691355"><ele>312.8</ele><time>2026-05-01T13:03:20.003Z</time></trkpt><trkpt lat="44.858947188630786" lon="9.069532683379423"><ele>315.2</ele><time>2026-05-01T13:03:21.003Z</time></trkpt><trkpt lat="44.85887874671115" lon="9.06967761369205"><ele>317.6</ele><time>2026-05-01T13:03:23.003Z</time></trkpt><trkpt lat="44.85882703870673" lon="9.069818611775874"><ele>320.0</ele><time>2026-05-01T13:03:25.003Z</time></trkpt><trkpt lat="44.85871262222927" lon="9.069911236565442"><ele>320.6666666666667</ele><time>2026-05-01T13:03:27.003Z</time></trkpt><trkpt lat="44.85865348018056" lon="9.069967898109653"><ele>321.33333333333337</ele><time>2026-05-01T13:03:28.003Z</time></trkpt><trkpt lat="44.85858612142904" lon="9.070018409396809"><ele>322.0</ele><time>2026-05-01T13:03:29.003Z</time></trkpt><trkpt lat="44.85852345197169" lon="9.070076541182052"><ele>322.6666666666667</ele><time>2026-05-01T13:03:30.003Z</time></trkpt><trkpt lat="44.85846050930343" lon="9.070130955134804"><ele>323.3333333333333</ele><time>2026-05-01T13:03:31.003Z</time></trkpt><trkpt lat="44.85840366918633" lon="9.070191841146912"><ele>324.0</ele><time>2026-05-01T13:03:32.003Z</time></trkpt><trkpt lat="44.85833014081615" lon="9.070274486323441"><ele>324.0</ele><time>2026-05-01T13:03:33.003Z</time></trkpt><trkpt lat="44.85825325484361" lon="9.070349710472613"><ele>324.0</ele><time>2026-05-01T13:03:34.003Z</time></trkpt><trkpt lat="44.858180556404804" lon="9.070413613066986"><ele>324.0</ele><time>2026-05-01T13:03:35.003Z</time></trkpt><trkpt lat="44.85810736405723" lon="9.070476762863594"><ele>324.0</ele><time>2026-05-01T13:03:36.003Z</time></trkpt><trkpt lat="44.85804712396158" lon="9.07050934103433"><ele>324.0</ele><time>2026-05-01T13:03:37.003Z</time></trkpt><trkpt lat="44.857932562857975" lon="9.070539550402579"><ele>324.0</ele><time>2026-05-01T13:03:39.003Z</time></trkpt><trkpt lat="44.85782964036737" lon="9.070503410137293"><ele>324.0</ele><time>2026-05-01T13:03:40.998Z</time></trkpt><trkpt lat="44.857722417081035" lon="9.07044772692874"><ele>324.0</ele><time>2026-05-01T13:03:42.999Z</time></trkpt><trkpt lat="44.857656407385456" lon="9.070401893434207"><ele>324.0</ele><time>2026-05-01T13:03:43.999Z</time></trkpt><trkpt lat="44.85759228462671" lon="9.070349457304978"><ele>324.0</ele><time>2026-05-01T13:03:44.999Z</time></trkpt><trkpt lat="44.85752951419402" lon="9.070293624572745"><ele>324.0</ele><time>2026-05-01T13:03:45.999Z</time></trkpt><trkpt lat="44.85747429074075" lon="9.070248811367096"><ele>324.0</ele><time>2026-05-01T13:03:46.999Z</time></trkpt><trkpt lat="44.8574113300743" lon="9.070223651368472"><ele>324.5</ele><time>2026-05-01T13:03:47.999Z</time></trkpt><trkpt lat="44.85734679758984" lon="9.070210348211162"><ele>325.0</ele><time>2026-05-01T13:03:48.999Z</time></trkpt><trkpt lat="44.85727340191281" lon="9.070217548709183"><ele>325.5</ele><time>2026-05-01T13:03:49.999Z</time></trkpt><trkpt lat="44.85720102231544" lon="9.07019798460726"><ele>326.0</ele><time>2026-05-01T13:03:50.999Z</time></trkpt><trkpt lat="44.85713436810964" lon="9.070170957377032"><ele>326.5</ele><time>2026-05-01T13:03:51.999Z</time></trkpt><trkpt lat="44.85706847984583" lon="9.070148427326881"><ele>327.0</ele><time>2026-05-01T13:03:52.999Z</time></trkpt><trkpt lat="44.85696648744995" lon="9.070060067765775"><ele>330.0</ele><time>2026-05-01T13:03:54.999Z</time></trkpt><trkpt lat="44.85691918765343" lon="9.069915585904752"><ele>333.0</ele><time>2026-05-01T13:03:56.999Z</time></trkpt><trkpt lat="44.85689932270332" lon="9.06982128973716"><ele>336.0</ele><time>2026-05-01T13:03:57.999Z</time></trkpt><trkpt lat="44.856874495415894" lon="9.069727153232929"><ele>339.0</ele><time>2026-05-01T13:03:58.999Z</time></trkpt><trkpt lat="44.85684563184261" lon="9.069641941731307"><ele>342.0</ele><time>2026-05-01T13:03:59.999Z</time></trkpt><trkpt lat="44.856830051307995" lon="9.069540412573298"><ele>345.0</ele><time>2026-05-01T13:04:01Z</time></trkpt><trkpt lat="44.85681848648733" lon="9.069436580344597"><ele>345.0</ele><time>2026-05-01T13:04:02Z</time></trkpt><trkpt lat="44.85681868289699" lon="9.069327852721443"><ele>345.0</ele><time>2026-05-01T13:04:03Z</time></trkpt><trkpt lat="44.85678116637136" lon="9.069203460152822"><ele>345.0</ele><time>2026-05-01T13:04:04Z</time></trkpt><trkpt lat="44.856732777604" lon="9.069101933991087"><ele>345.0</ele><time>2026-05-01T13:04:05Z</time></trkpt><trkpt lat="44.85667940013898" lon="9.069032989878986"><ele>345.0</ele><time>2026-05-01T13:04:06Z</time></trkpt><trkpt lat="44.856647622313204" lon="9.068929200635298"><ele>345.0</ele><time>2026-05-01T13:04:07Z</time></trkpt><trkpt lat="44.85662496395486" lon="9.068812314777954"><ele>344.0</ele><time>2026-05-01T13:04:08Z</time></trkpt><trkpt lat="44.85662628402512" lon="9.068668030183499"><ele>343.0</ele><time>2026-05-01T13:04:09Z</time></trkpt><trkpt lat="44.856622675465815" lon="9.068526264947437"><ele>342.0</ele><time>2026-05-01T13:04:10Z</time></trkpt><trkpt lat="44.856618041217516" lon="9.068392805279352"><ele>341.0</ele><time>2026-05-01T13:04:11Z</time></trkpt><trkpt lat="44.85660860556485" lon="9.06827724764562"><ele>340.0</ele><time>2026-05-01T13:04:12Z</time></trkpt><trkpt lat="44.85659265384143" lon="9.068167500961831"><ele>341.66666666666663</ele><time>2026-05-01T13:04:13Z</time></trkpt><trkpt lat="44.85656528189937" lon="9.068059645014106"><ele>343.3333333333333</ele><time>2026-05-01T13:04:14Z</time></trkpt><trkpt lat="44.85652488630238" lon="9.067962111832607"><ele>345.0</ele><time>2026-05-01T13:04:15Z</time></trkpt><trkpt lat="44.85646922467913" lon="9.067870776314907"><ele>346.6666666666667</ele><time>2026-05-01T13:04:16Z</time></trkpt><trkpt lat="44.85640275491337" lon="9.067800973737231"><ele>348.33333333333337</ele><time>2026-05-01T13:04:17Z</time></trkpt><trkpt lat="44.85633821924623" lon="9.067724816222317"><ele>350.0</ele><time>2026-05-01T13:04:18.001Z</time></trkpt><trkpt lat="44.8562706286043" lon="9.067629691956846"><ele>350.0</ele><time>2026-05-01T13:04:19.001Z</time></trkpt><trkpt lat="44.856213805820836" lon="9.067543841088126"><ele>350.0</ele><time>2026-05-01T13:04:20.001Z</time></trkpt><trkpt lat="44.85615849593181" lon="9.067454336918642"><ele>350.0</ele><time>2026-05-01T13:04:21.001Z</time></trkpt><trkpt lat="44.85611262880865" lon="9.067366986840547"><ele>350.0</ele><time>2026-05-01T13:04:22.001Z</time></trkpt><trkpt lat="44.856074203436634" lon="9.067270840403248"><ele>350.0</ele><time>2026-05-01T13:04:23.001Z</time></trkpt><trkpt lat="44.85603129358799" lon="9.067184200580819"><ele>350.0</ele><time>2026-05-01T13:04:24.001Z</time></trkpt><trkpt lat="44.85594210528629" lon="9.06704410139435"><ele>349.6666666666667</ele><time>2026-05-01T13:04:26.001Z</time></trkpt><trkpt lat="44.85591325069807" lon="9.066936724998937"><ele>349.33333333333337</ele><time>2026-05-01T13:04:27.001Z</time></trkpt><trkpt lat="44.85589897560978" lon="9.066826153928881"><ele>349.0</ele><time>2026-05-01T13:04:28.001Z</time></trkpt><trkpt lat="44.85587518717944" lon="9.066706135300892"><ele>348.6666666666667</ele><time>2026-05-01T13:04:29.001Z</time></trkpt><trkpt lat="44.855838796636206" lon="9.066592648519265"><ele>348.3333333333333</ele><time>2026-05-01T13:04:30.001Z</time></trkpt><trkpt lat="44.855795506861924" lon="9.06647486155317"><ele>348.0</ele><time>2026-05-01T13:04:31.001Z</time></trkpt><trkpt lat="44.85576298951716" lon="9.066358442121727"><ele>349.6666666666667</ele><time>2026-05-01T13:04:32.001Z</time></trkpt><trkpt lat="44.8557318621927" lon="9.066274717331385"><ele>351.3333333333333</ele><time>2026-05-01T13:04:33.001Z</time></trkpt><trkpt lat="44.855712980267505" lon="9.066173129233592"><ele>353.0</ele><time>2026-05-01T13:04:34.001Z</time></trkpt><trkpt lat="44.855711478314525" lon="9.06606700425765"><ele>354.66666666666663</ele><time>2026-05-01T13:04:35.001Z</time></trkpt><trkpt lat="44.855738707303736" lon="9.065961375946944"><ele>356.3333333333333</ele><time>2026-05-01T13:04:36.001Z</time></trkpt><trkpt lat="44.855765899830594" lon="9.06587384450616"><ele>358.0</ele><time>2026-05-01T13:04:37.001Z</time></trkpt><trkpt lat="44.855839223114444" lon="9.065738359643143"><ele>359.66666666666663</ele><time>2026-05-01T13:04:39.001Z</time></trkpt><trkpt lat="44.85586741391537" lon="9.06564471602305"><ele>361.3333333333333</ele><time>2026-05-01T13:04:40.001Z</time></trkpt><trkpt lat="44.85589562189016" lon="9.065544861758312"><ele>363.0</ele><time>2026-05-01T13:04:41.001Z</time></trkpt><trkpt lat="44.8559206255508" lon="9.06544738253894"><ele>364.6666666666667</ele><time>2026-05-01T13:04:42.001Z</time></trkpt><trkpt lat="44.85595428169116" lon="9.065273520466043"><ele>366.33333333333337</ele><time>2026-05-01T13:04:44.001Z</time></trkpt><trkpt lat="44.855984012628184" lon="9.065172439398573"><ele>368.0</ele><time>2026-05-01T13:04:46.002Z</time></trkpt><trkpt lat="44.855995986721986" lon="9.065015616335664"><ele>371.75</ele><time>2026-05-01T13:04:48.002Z</time></trkpt><trkpt lat="44.85603273383613" lon="9.064853550489566"><ele>375.5</ele><time>2026-05-01T13:04:50.002Z</time></trkpt><trkpt lat="44.85611436277704" lon="9.064800648572755"><ele>379.25</ele><time>2026-05-01T13:04:52.002Z</time></trkpt><trkpt lat="44.856234443026345" lon="9.064687919567614"><ele>383.0</ele><time>2026-05-01T13:04:54.002Z</time></trkpt><trkpt lat="44.856318266172416" lon="9.064601657250492"><ele>383.0</ele><time>2026-05-01T13:04:56.002Z</time></trkpt><trkpt lat="44.85636904775587" lon="9.064495579915143"><ele>383.0</ele><time>2026-05-01T13:04:58.002Z</time></trkpt><trkpt lat="44.85638213111544" lon="9.06439866777747"><ele>383.0</ele><time>2026-05-01T13:05:00.002Z</time></trkpt><trkpt lat="44.85641004866299" lon="9.064277994771519"><ele>383.0</ele><time>2026-05-01T13:05:02.002Z</time></trkpt><trkpt lat="44.85638324009979" lon="9.064181913190545"><ele>383.0</ele><time>2026-05-01T13:05:03.002Z</time></trkpt><trkpt lat="44.85639244180636" lon="9.064017911490481"><ele>383.0</ele><time>2026-05-01T13:05:05.002Z</time></trkpt><trkpt lat="44.85642502460239" lon="9.063929785752102"><ele>385.0</ele><time>2026-05-01T13:05:06.002Z</time></trkpt><trkpt lat="44.856476354113056" lon="9.063772276691433"><ele>387.0</ele><time>2026-05-01T13:05:08.002Z</time></trkpt><trkpt lat="44.85652666836743" lon="9.063639815350479"><ele>389.0</ele><time>2026-05-01T13:05:10.002Z</time></trkpt><trkpt lat="44.85655897918132" lon="9.063503258960774"><ele>391.0</ele><time>2026-05-01T13:05:12.002Z</time></trkpt><trkpt lat="44.85658132660369" lon="9.063371564258594"><ele>393.0</ele><time>2026-05-01T13:05:14.002Z</time></trkpt><trkpt lat="44.85659005258347" lon="9.063234271250483"><ele>394.59999999999997</ele><time>2026-05-01T13:05:16.002Z</time></trkpt><trkpt lat="44.85660855004342" lon="9.063059452199195"><ele>396.2</ele><time>2026-05-01T13:05:18.003Z</time></trkpt><trkpt lat="44.856621631815905" lon="9.062944994945836"><ele>397.8</ele><time>2026-05-01T13:05:20.003Z</time></trkpt><trkpt lat="44.856557962039794" lon="9.062890875943923"><ele>399.4</ele><time>2026-05-01T13:05:23.003Z</time></trkpt><trkpt lat="44.856453233323386" lon="9.062880347223707"><ele>401.0</ele><time>2026-05-01T13:09:12.001Z</time></trkpt><trkpt lat="44.856384177032005" lon="9.062841157451887"><ele>401.0</ele><time>2026-05-01T13:09:21.001Z</time></trkpt><trkpt lat="44.85632840897647" lon="9.062743479645247"><ele>401.0</ele><time>2026-05-01T13:09:24.001Z</time></trkpt><trkpt lat="44.856279642482626" lon="9.062648728692837"><ele>401.0</ele><time>2026-05-01T13:09:26.001Z</time></trkpt><trkpt lat="44.8562376817473" lon="9.062527391022765"><ele>401.0</ele><time>2026-05-01T13:09:28.002Z</time></trkpt><trkpt lat="44.85620430454864" lon="9.062370567547507"><ele>401.0</ele><time>2026-05-01T13:09:30.002Z</time></trkpt><trkpt lat="44.85618755986265" lon="9.062201275278536"><ele>402.6</ele><time>2026-05-01T13:09:32.002Z</time></trkpt><trkpt lat="44.85621305124404" lon="9.062095936000622"><ele>404.20000000000005</ele><time>2026-05-01T13:09:33.002Z</time></trkpt><trkpt lat="44.85627057240813" lon="9.061910051977508"><ele>405.79999999999995</ele><time>2026-05-01T13:09:35.002Z</time></trkpt><trkpt lat="44.85629797296611" lon="9.061759824939415"><ele>407.4</ele><time>2026-05-01T13:09:37.002Z</time></trkpt><trkpt lat="44.856330135072874" lon="9.061654430348133"><ele>409.0</ele><time>2026-05-01T13:09:39.002Z</time></trkpt><trkpt lat="44.856339811220366" lon="9.061561268782114"><ele>411.79999999999995</ele><time>2026-05-01T13:09:40.002Z</time></trkpt><trkpt lat="44.85631136193419" lon="9.061429143116152"><ele>414.59999999999997</ele><time>2026-05-01T13:09:42.002Z</time></trkpt><trkpt lat="44.85626118630218" lon="9.06131919206196"><ele>417.4</ele><time>2026-05-01T13:09:44.002Z</time></trkpt><trkpt lat="44.85622661722715" lon="9.061142836002182"><ele>420.2</ele><time>2026-05-01T13:09:46.002Z</time></trkpt><trkpt lat="44.85618831723634" lon="9.061045233423007"><ele>423.0</ele><time>2026-05-01T13:09:47.002Z</time></trkpt><trkpt lat="44.85616018199374" lon="9.06095214994822"><ele>423.0</ele><time>2026-05-01T13:09:48.002Z</time></trkpt><trkpt lat="44.85612782977725" lon="9.060836810630654"><ele>423.0</ele><time>2026-05-01T13:09:49.002Z</time></trkpt><trkpt lat="44.856107617290164" lon="9.060738105561821"><ele>423.0</ele><time>2026-05-01T13:09:50.002Z</time></trkpt><trkpt lat="44.856083079005934" lon="9.060642323043682"><ele>423.0</ele><time>2026-05-01T13:09:51.002Z</time></trkpt><trkpt lat="44.85608806782746" lon="9.060508189171903"><ele>423.0</ele><time>2026-05-01T13:09:52.002Z</time></trkpt><trkpt lat="44.85606916943114" lon="9.060404814484539"><ele>423.0</ele><time>2026-05-01T13:09:53.002Z</time></trkpt><trkpt lat="44.85604814939208" lon="9.060299854635007"><ele>424.79999999999995</ele><time>2026-05-01T13:09:54.002Z</time></trkpt><trkpt lat="44.856029452614294" lon="9.060186715661207"><ele>426.6</ele><time>2026-05-01T13:09:55.002Z</time></trkpt><trkpt lat="44.85602554183189" lon="9.060084122330483"><ele>428.40000000000003</ele><time>2026-05-01T13:09:56.002Z</time></trkpt><trkpt lat="44.85598656909796" lon="9.059934537017241"><ele>430.20000000000005</ele><time>2026-05-01T13:09:58.002Z</time></trkpt><trkpt lat="44.85591428067" lon="9.059827685748079"><ele>432.0</ele><time>2026-05-01T13:10:00.001Z</time></trkpt><trkpt lat="44.85579530649892" lon="9.059742946996927"><ele>432.0</ele><time>2026-05-01T13:10:02.001Z</time></trkpt><trkpt lat="44.85572434808696" lon="9.059728836226446"><ele>432.0</ele><time>2026-05-01T13:10:03.001Z</time></trkpt><trkpt lat="44.85564369303152" lon="9.05972007226908"><ele>432.0</ele><time>2026-05-01T13:10:05.001Z</time></trkpt><trkpt lat="44.855556865442864" lon="9.059673332666177"><ele>432.0</ele><time>2026-05-01T13:10:07Z</time></trkpt><trkpt lat="44.85549041235129" lon="9.05964597142941"><ele>432.0</ele><time>2026-05-01T13:10:09Z</time></trkpt><trkpt lat="44.85537690268289" lon="9.059725576000405"><ele>432.0</ele><time>2026-05-01T13:10:11Z</time></trkpt><trkpt lat="44.8553045438694" lon="9.059741323271698"><ele>432.0</ele><time>2026-05-01T13:10:12Z</time></trkpt><trkpt lat="44.85523878043631" lon="9.059738083538786"><ele>432.0</ele><time>2026-05-01T13:10:13Z</time></trkpt><trkpt lat="44.8551206464543" lon="9.059683174231367"><ele>432.0</ele><time>2026-05-01T13:10:15Z</time></trkpt><trkpt lat="44.8550210345051" lon="9.059602017078069"><ele>432.0</ele><time>2026-05-01T13:10:17Z</time></trkpt><trkpt lat="44.85496563087701" lon="9.059555464419391"><ele>432.0</ele><time>2026-05-01T13:10:18Z</time></trkpt><trkpt lat="44.85490851384495" lon="9.059506179847787"><ele>432.0</ele><time>2026-05-01T13:10:19Z</time></trkpt><trkpt lat="44.85485964599117" lon="9.05944697691685"><ele>431.0</ele><time>2026-05-01T13:10:20Z</time></trkpt><trkpt lat="44.8548055928283" lon="9.059387557377104"><ele>430.00000000000006</ele><time>2026-05-01T13:10:21Z</time></trkpt><trkpt lat="44.85471895036594" lon="9.059289505952144"><ele>429.00000000000006</ele><time>2026-05-01T13:10:23Z</time></trkpt><trkpt lat="44.85465039726587" lon="9.059229692037885"><ele>428.0</ele><time>2026-05-01T13:10:25Z</time></trkpt><trkpt lat="44.854575652193375" lon="9.059178184954737"><ele>427.0</ele><time>2026-05-01T13:10:27Z</time></trkpt><trkpt lat="44.85446300726738" lon="9.0591659396498"><ele>427.0</ele><time>2026-05-01T13:10:29Z</time></trkpt><trkpt lat="44.85434273566208" lon="9.059154045913417"><ele>427.0</ele><time>2026-05-01T13:10:31Z</time></trkpt><trkpt lat="44.85425568592921" lon="9.059097500679721"><ele>427.0</ele><time>2026-05-01T13:10:33Z</time></trkpt><trkpt lat="44.854200213938356" lon="9.058957291506495"><ele>427.0</ele><time>2026-05-01T13:10:35Z</time></trkpt><trkpt lat="44.85415871038557" lon="9.058784045950338"><ele>428.8</ele><time>2026-05-01T13:10:37Z</time></trkpt><trkpt lat="44.8541396213144" lon="9.058693374975892"><ele>430.6</ele><time>2026-05-01T13:10:38Z</time></trkpt><trkpt lat="44.854102283004565" lon="9.058535634200275"><ele>432.40000000000003</ele><time>2026-05-01T13:10:40Z</time></trkpt><trkpt lat="44.85407426901146" lon="9.058385343605206"><ele>434.20000000000005</ele><time>2026-05-01T13:10:42Z</time></trkpt><trkpt lat="44.8540496675077" lon="9.058266387887048"><ele>436.0</ele><time>2026-05-01T13:10:44Z</time></trkpt><trkpt lat="44.854007804267184" lon="9.058139819043145"><ele>438.50000000000006</ele><time>2026-05-01T13:10:46Z</time></trkpt><trkpt lat="44.85394817213565" lon="9.058032568229608"><ele>441.0</ele><time>2026-05-01T13:10:48Z</time></trkpt><trkpt lat="44.85388783493783" lon="9.057957703635276"><ele>443.5</ele><time>2026-05-01T13:10:50Z</time></trkpt><trkpt lat="44.853832779470274" lon="9.057890843598685"><ele>446.0</ele><time>2026-05-01T13:10:52Z</time></trkpt><trkpt lat="44.85374488963999" lon="9.057841148050315"><ele>448.50000000000006</ele><time>2026-05-01T13:10:56.001Z</time></trkpt><trkpt lat="44.85366477400759" lon="9.057811358460896"><ele>451.0</ele><time>2026-05-01T13:10:58.001Z</time></trkpt><trkpt lat="44.8535771643585" lon="9.057714293890923"><ele>451.0</ele><time>2026-05-01T13:11:00.001Z</time></trkpt><trkpt lat="44.853525635510834" lon="9.057660645860842"><ele>451.0</ele><time>2026-05-01T13:11:01.001Z</time></trkpt><trkpt lat="44.853443819163964" lon="9.057571961533975"><ele>451.0</ele><time>2026-05-01T13:11:03.001Z</time></trkpt><trkpt lat="44.85335921619119" lon="9.057472809053007"><ele>451.0</ele><time>2026-05-01T13:11:05.001Z</time></trkpt><trkpt lat="44.85326505467433" lon="9.057347578979146"><ele>451.0</ele><time>2026-05-01T13:11:07.001Z</time></trkpt><trkpt lat="44.85320996975234" lon="9.057277873885045"><ele>451.83333333333337</ele><time>2026-05-01T13:11:08.001Z</time></trkpt><trkpt lat="44.85314775712592" lon="9.057203673582498"><ele>452.6666666666667</ele><time>2026-05-01T13:11:09.001Z</time></trkpt><trkpt lat="44.85309042003863" lon="9.057128917553607"><ele>453.5</ele><time>2026-05-01T13:11:10.001Z</time></trkpt><trkpt lat="44.853029715552395" lon="9.057057382320178"><ele>454.33333333333337</ele><time>2026-05-01T13:11:11.001Z</time></trkpt><trkpt lat="44.85296410317362" lon="9.056988537864763"><ele>455.1666666666667</ele><time>2026-05-01T13:11:13.001Z</time></trkpt><trkpt lat="44.85289721582403" lon="9.056991048527173"><ele>456.0</ele><time>2026-05-01T13:11:15.001Z</time></trkpt><trkpt lat="44.85282571308049" lon="9.057057138602055"><ele>456.0</ele><time>2026-05-01T13:11:17.001Z</time></trkpt><trkpt lat="44.852746457393145" lon="9.057135552293797"><ele>456.0</ele><time>2026-05-01T13:11:19.001Z</time></trkpt><trkpt lat="44.85269002928789" lon="9.057246055700018"><ele>456.0</ele><time>2026-05-01T13:11:21.001Z</time></trkpt><trkpt lat="44.852628524313815" lon="9.057367070306375"><ele>456.0</ele><time>2026-05-01T13:11:23.001Z</time></trkpt><trkpt lat="44.85257290271042" lon="9.057457052695813"><ele>456.0</ele><time>2026-05-01T13:11:25.001Z</time></trkpt><trkpt lat="44.852491535091296" lon="9.057559220719437"><ele>454.3333333333333</ele><time>2026-05-01T13:11:27.001Z</time></trkpt><trkpt lat="44.852429182365896" lon="9.057602866122576"><ele>452.66666666666663</ele><time>2026-05-01T13:11:29.001Z</time></trkpt><trkpt lat="44.85235521322161" lon="9.057660685957986"><ele>451.0</ele><time>2026-05-01T13:11:31.001Z</time></trkpt><trkpt lat="44.85230445731654" lon="9.057728912550818"><ele>449.3333333333333</ele><time>2026-05-01T13:11:33.001Z</time></trkpt><trkpt lat="44.8522434253239" lon="9.057751931387923"><ele>447.66666666666663</ele><time>2026-05-01T13:11:35.001Z</time></trkpt><trkpt lat="44.85216734272438" lon="9.05769501750667"><ele>446.0</ele><time>2026-05-01T13:11:37.001Z</time></trkpt><trkpt lat="44.85207032208451" lon="9.057580410203173"><ele>445.99999999999994</ele><time>2026-05-01T13:11:39.001Z</time></trkpt><trkpt lat="44.852006038063365" lon="9.057542995897915"><ele>446.0</ele><time>2026-05-01T13:11:40.001Z</time></trkpt><trkpt lat="44.85194434586757" lon="9.057489172268593"><ele>446.0</ele><time>2026-05-01T13:11:41.001Z</time></trkpt><trkpt lat="44.851891636660916" lon="9.057407493674681"><ele>446.0</ele><time>2026-05-01T13:11:42.001Z</time></trkpt><trkpt lat="44.85183788816253" lon="9.057312802841757"><ele>445.99999999999994</ele><time>2026-05-01T13:11:43.001Z</time></trkpt><trkpt lat="44.851807949174315" lon="9.057211429899843"><ele>446.0</ele><time>2026-05-01T13:11:44.001Z</time></trkpt><trkpt lat="44.851789799864314" lon="9.057098317747302"><ele>447.6</ele><time>2026-05-01T13:11:45.001Z</time></trkpt><trkpt lat="44.85176897478496" lon="9.056994250656885"><ele>449.20000000000005</ele><time>2026-05-01T13:11:46.001Z</time></trkpt><trkpt lat="44.85171277436397" lon="9.056858016032038"><ele>450.79999999999995</ele><time>2026-05-01T13:11:48.001Z</time></trkpt><trkpt lat="44.85161713296862" lon="9.056785978176006"><ele>452.4</ele><time>2026-05-01T13:11:50.001Z</time></trkpt><trkpt lat="44.851512331969936" lon="9.056762835153336"><ele>454.0</ele><time>2026-05-01T13:11:52.001Z</time></trkpt><trkpt lat="44.85140471261091" lon="9.056667526280009"><ele>454.00000000000006</ele><time>2026-05-01T13:11:54.001Z</time></trkpt><trkpt lat="44.851342373931466" lon="9.056625217703472"><ele>454.0</ele><time>2026-05-01T13:11:55.001Z</time></trkpt><trkpt lat="44.851261708334896" lon="9.056615190910899"><ele>454.0</ele><time>2026-05-01T13:11:56.001Z</time></trkpt><trkpt lat="44.85118787949432" lon="9.056594838822429"><ele>454.0</ele><time>2026-05-01T13:11:57.001Z</time></trkpt><trkpt lat="44.85112873848712" lon="9.056541914729364"><ele>454.00000000000006</ele><time>2026-05-01T13:11:58.001Z</time></trkpt><trkpt lat="44.8510758520255" lon="9.056465788414556"><ele>454.0</ele><time>2026-05-01T13:11:59.001Z</time></trkpt><trkpt lat="44.85101275557158" lon="9.05637355888707"><ele>455.1666666666667</ele><time>2026-05-01T13:12:00.001Z</time></trkpt><trkpt lat="44.8509495985201" lon="9.056262793912767"><ele>456.33333333333337</ele><time>2026-05-01T13:12:01.001Z</time></trkpt><trkpt lat="44.850903712166925" lon="9.056162989983466"><ele>457.5</ele><time>2026-05-01T13:12:02.001Z</time></trkpt><trkpt lat="44.85087275115428" lon="9.056070818814005"><ele>458.66666666666663</ele><time>2026-05-01T13:12:03.002Z</time></trkpt><trkpt lat="44.85084435578968" lon="9.055978379854073"><ele>459.8333333333333</ele><time>2026-05-01T13:12:04.002Z</time></trkpt><trkpt lat="44.85079903452737" lon="9.055883447113391"><ele>461.0</ele><time>2026-05-01T13:12:04.998Z</time></trkpt><trkpt lat="44.85075893799254" lon="9.055791994303341"><ele>461.0</ele><time>2026-05-01T13:12:05.998Z</time></trkpt><trkpt lat="44.8506761381798" lon="9.055712725856036"><ele>461.0</ele><time>2026-05-01T13:12:07.998Z</time></trkpt><trkpt lat="44.85059050391032" lon="9.055767387705606"><ele>461.0</ele><time>2026-05-01T13:12:10.998Z</time></trkpt><trkpt lat="44.85053259854297" lon="9.055872364624534"><ele>461.0</ele><time>2026-05-01T13:12:12.998Z</time></trkpt><trkpt lat="44.85053515180149" lon="9.05605638225345"><ele>461.0</ele><time>2026-05-01T13:12:14.998Z</time></trkpt><trkpt lat="44.850535992226575" lon="9.0561651481352"><ele>460.99999999999994</ele><time>2026-05-01T13:12:15.998Z</time></trkpt><trkpt lat="44.850538913657154" lon="9.056271785712394"><ele>461.0</ele><time>2026-05-01T13:12:16.999Z</time></trkpt><trkpt lat="44.85052105231889" lon="9.056368270401299"><ele>461.0</ele><time>2026-05-01T13:12:17.999Z</time></trkpt><trkpt lat="44.850485000569435" lon="9.05654609641634"><ele>461.0</ele><time>2026-05-01T13:12:19.999Z</time></trkpt><trkpt lat="44.85048723090167" lon="9.056648688802296"><ele>460.99999999999994</ele><time>2026-05-01T13:12:20.999Z</time></trkpt><trkpt lat="44.85046738094634" lon="9.056758580270214"><ele>461.0</ele><time>2026-05-01T13:12:21.999Z</time></trkpt><trkpt lat="44.850445197702875" lon="9.05685737343992"><ele>460.8333333333333</ele><time>2026-05-01T13:12:22.999Z</time></trkpt><trkpt lat="44.850426807987745" lon="9.056960101652086"><ele>460.66666666666663</ele><time>2026-05-01T13:12:23.999Z</time></trkpt><trkpt lat="44.85038699662257" lon="9.057036502257633"><ele>460.5</ele><time>2026-05-01T13:12:24.999Z</time></trkpt><trkpt lat="44.850296108579" lon="9.057115573870867"><ele>460.33333333333337</ele><time>2026-05-01T13:12:26.999Z</time></trkpt><trkpt lat="44.85025320494104" lon="9.057184180804288"><ele>460.1666666666667</ele><time>2026-05-01T13:12:29.999Z</time></trkpt><trkpt lat="44.85017750973519" lon="9.05724549895218"><ele>460.0</ele><time>2026-05-01T13:12:44Z</time></trkpt><trkpt lat="44.850118148468994" lon="9.057305341501808"><ele>460.00000000000006</ele><time>2026-05-01T13:12:47Z</time></trkpt><trkpt lat="44.850034896706205" lon="9.05736034444008"><ele>460.0</ele><time>2026-05-01T13:12:50Z</time></trkpt><trkpt lat="44.8499686185033" lon="9.057396751302194"><ele>460.0</ele><time>2026-05-01T13:12:52Z</time></trkpt><trkpt lat="44.849899258811476" lon="9.057439479346838"><ele>460.0</ele><time>2026-05-01T13:12:54Z</time></trkpt><trkpt lat="44.849838252987325" lon="9.057480989537275"><ele>460.00000000000006</ele><time>2026-05-01T13:12:56Z</time></trkpt><trkpt lat="44.84975195451319" lon="9.05754215662763"><ele>460.0</ele><time>2026-05-01T13:12:59Z</time></trkpt><trkpt lat="44.84968135540837" lon="9.057590360839116"><ele>458.8</ele><time>2026-05-01T13:13:01Z</time></trkpt><trkpt lat="44.84961295385765" lon="9.057633556957"><ele>457.6</ele><time>2026-05-01T13:13:03Z</time></trkpt><trkpt lat="44.84953519208183" lon="9.057677641032583"><ele>456.4</ele><time>2026-05-01T13:13:05Z</time></trkpt><trkpt lat="44.84943655011864" lon="9.05773778153377"><ele>455.2</ele><time>2026-05-01T13:13:07Z</time></trkpt><trkpt lat="44.84937758979356" lon="9.057773346395816"><ele>454.0</ele><time>2026-05-01T13:13:08Z</time></trkpt><trkpt lat="44.84926572129255" lon="9.057836779834439"><ele>453.33333333333337</ele><time>2026-05-01T13:13:10.001Z</time></trkpt><trkpt lat="44.84916824894424" lon="9.05788584296398"><ele>452.6666666666667</ele><time>2026-05-01T13:13:12.001Z</time></trkpt><trkpt lat="44.84909587473657" lon="9.057868865295248"><ele>452.0</ele><time>2026-05-01T13:13:16.001Z</time></trkpt><trkpt lat="44.849046313251414" lon="9.057755963670834"><ele>451.33333333333337</ele><time>2026-05-01T13:13:18.001Z</time></trkpt><trkpt lat="44.84902191684385" lon="9.057656028629687"><ele>450.6666666666667</ele><time>2026-05-01T13:13:19.001Z</time></trkpt><trkpt lat="44.84898369681674" lon="9.057542926113403"><ele>450.0</ele><time>2026-05-01T13:13:20.001Z</time></trkpt><trkpt lat="44.84894704936449" lon="9.057434176960086"><ele>450.0</ele><time>2026-05-01T13:13:21.001Z</time></trkpt><trkpt lat="44.84892268472001" lon="9.05731159039187"><ele>450.0</ele><time>2026-05-01T13:13:22.001Z</time></trkpt><trkpt lat="44.84888213668488" lon="9.057196588627532"><ele>450.0</ele><time>2026-05-01T13:13:23.001Z</time></trkpt><trkpt lat="44.84883808247366" lon="9.057079206832949"><ele>450.0</ele><time>2026-05-01T13:13:24.001Z</time></trkpt><trkpt lat="44.84879458432048" lon="9.056953755519308"><ele>450.0</ele><time>2026-05-01T13:13:25.001Z</time></trkpt><trkpt lat="44.84874559363803" lon="9.056831094961733"><ele>450.0</ele><time>2026-05-01T13:13:26.001Z</time></trkpt><trkpt lat="44.84868664894656" lon="9.056721566197398"><ele>450.0</ele><time>2026-05-01T13:13:27.001Z</time></trkpt><trkpt lat="44.848627250445375" lon="9.0566170792534"><ele>450.0</ele><time>2026-05-01T13:13:28.001Z</time></trkpt><trkpt lat="44.84857362718117" lon="9.056517614621391"><ele>450.0</ele><time>2026-05-01T13:13:29.001Z</time></trkpt><trkpt lat="44.84852373126752" lon="9.056434115827939"><ele>450.0</ele><time>2026-05-01T13:13:30.001Z</time></trkpt><trkpt lat="44.8484725292776" lon="9.056355909508389"><ele>450.0</ele><time>2026-05-01T13:13:31.001Z</time></trkpt><trkpt lat="44.848425415450514" lon="9.056267762352965"><ele>449.2</ele><time>2026-05-01T13:13:32.001Z</time></trkpt><trkpt lat="44.84837450790288" lon="9.056165839249443"><ele>448.4</ele><time>2026-05-01T13:13:33.001Z</time></trkpt><trkpt lat="44.84832700582626" lon="9.056055690689767"><ele>447.6</ele><time>2026-05-01T13:13:34.001Z</time></trkpt><trkpt lat="44.84829479693148" lon="9.055943239849695"><ele>446.8</ele><time>2026-05-01T13:13:35.001Z</time></trkpt><trkpt lat="44.848276647509785" lon="9.055857101044875"><ele>446.0</ele><time>2026-05-01T13:13:36.001Z</time></trkpt><trkpt lat="44.84825546176934" lon="9.055683104116424"><ele>447.49999999999994</ele><time>2026-05-01T13:13:38.001Z</time></trkpt><trkpt lat="44.848220613152634" lon="9.05552129390902"><ele>449.0</ele><time>2026-05-01T13:13:40.001Z</time></trkpt><trkpt lat="44.84814070368132" lon="9.055482172091432"><ele>450.5</ele><time>2026-05-01T13:13:41.001Z</time></trkpt><trkpt lat="44.84806959507869" lon="9.055490475441939"><ele>452.0</ele><time>2026-05-01T13:13:42.001Z</time></trkpt><trkpt lat="44.8480104567169" lon="9.055552223258777"><ele>453.49999999999994</ele><time>2026-05-01T13:13:43.001Z</time></trkpt><trkpt lat="44.84792077922094" lon="9.055574502626241"><ele>455.0</ele><time>2026-05-01T13:13:44.001Z</time></trkpt><trkpt lat="44.84783913182825" lon="9.055582433643414"><ele>455.0</ele><time>2026-05-01T13:13:45.001Z</time></trkpt><trkpt lat="44.84775398288507" lon="9.055605069660386"><ele>455.0</ele><time>2026-05-01T13:13:46.001Z</time></trkpt><trkpt lat="44.84766743356862" lon="9.055557404025032"><ele>455.0</ele><time>2026-05-01T13:13:47.001Z</time></trkpt><trkpt lat="44.84758454587575" lon="9.055517095318441"><ele>455.0</ele><time>2026-05-01T13:13:48.001Z</time></trkpt><trkpt lat="44.8475029047284" lon="9.05545775323855"><ele>455.0</ele><time>2026-05-01T13:13:49.001Z</time></trkpt><trkpt lat="44.84740705037761" lon="9.055408770339366"><ele>452.6</ele><time>2026-05-01T13:13:50.001Z</time></trkpt><trkpt lat="44.847314202595776" lon="9.05536706607753"><ele>450.2</ele><time>2026-05-01T13:13:51.001Z</time></trkpt><trkpt lat="44.847213095306266" lon="9.05534069679176"><ele>447.79999999999995</ele><time>2026-05-01T13:13:52.001Z</time></trkpt><trkpt lat="44.84711352321144" lon="9.055326225098314"><ele>445.4</ele><time>2026-05-01T13:13:53.001Z</time></trkpt><trkpt lat="44.84701700089977" lon="9.055290376130499"><ele>443.0</ele><time>2026-05-01T13:13:54.001Z</time></trkpt><trkpt lat="44.84691999898127" lon="9.0552649787599"><ele>443.0</ele><time>2026-05-01T13:13:55.001Z</time></trkpt><trkpt lat="44.84683212789404" lon="9.055197190618005"><ele>442.99999999999994</ele><time>2026-05-01T13:13:56.002Z</time></trkpt><trkpt lat="44.84674241195346" lon="9.05517272023509"><ele>442.99999999999994</ele><time>2026-05-01T13:13:57.002Z</time></trkpt><trkpt lat="44.846652832116085" lon="9.055174160782451"><ele>443.0</ele><time>2026-05-01T13:13:58.002Z</time></trkpt><trkpt lat="44.84656109708293" lon="9.055176473297566"><ele>443.0</ele><time>2026-05-01T13:13:59.002Z</time></trkpt><trkpt lat="44.84645826139114" lon="9.05520651113453"><ele>440.25</ele><time>2026-05-01T13:14:00.002Z</time></trkpt><trkpt lat="44.846338501527235" lon="9.05523258024221"><ele>437.5</ele><time>2026-05-01T13:14:01.002Z</time></trkpt><trkpt lat="44.84621286423617" lon="9.055253364757194"><ele>434.75</ele><time>2026-05-01T13:14:02.002Z</time></trkpt><trkpt lat="44.84607605263808" lon="9.055267485767388"><ele>432.0</ele><time>2026-05-01T13:14:03.002Z</time></trkpt><trkpt lat="44.84593713655878" lon="9.055282940826311"><ele>431.0</ele><time>2026-05-01T13:14:04.002Z</time></trkpt><trkpt lat="44.84578466559842" lon="9.055303254650754"><ele>430.0</ele><time>2026-05-01T13:14:05.002Z</time></trkpt><trkpt lat="44.84564079066222" lon="9.05532524495469"><ele>429.0</ele><time>2026-05-01T13:14:06.002Z</time></trkpt><trkpt lat="44.8454979929485" lon="9.055346805290666"><ele>428.0</ele><time>2026-05-01T13:14:07.002Z</time></trkpt><trkpt lat="44.845352475278915" lon="9.055368003086802"><ele>428.0</ele><time>2026-05-01T13:14:08.002Z</time></trkpt><trkpt lat="44.8452092593758" lon="9.055388284503824"><ele>428.0</ele><time>2026-05-01T13:14:09.002Z</time></trkpt><trkpt lat="44.84505780431858" lon="9.05539911469642"><ele>428.0</ele><time>2026-05-01T13:14:10.002Z</time></trkpt><trkpt lat="44.84492380149873" lon="9.055412384362683"><ele>428.0</ele><time>2026-05-01T13:14:10.999Z</time></trkpt><trkpt lat="44.84479430485567" lon="9.055420130112823"><ele>428.79999999999995</ele><time>2026-05-01T13:14:11.999Z</time></trkpt><trkpt lat="44.84468942776055" lon="9.055432629126306"><ele>429.59999999999997</ele><time>2026-05-01T13:14:12.999Z</time></trkpt><trkpt lat="44.84458818863239" lon="9.055453172951045"><ele>430.40000000000003</ele><time>2026-05-01T13:14:13.999Z</time></trkpt><trkpt lat="44.844496837902305" lon="9.055450203367482"><ele>431.20000000000005</ele><time>2026-05-01T13:14:14.999Z</time></trkpt><trkpt lat="44.84440603035968" lon="9.055459432382916"><ele>432.0</ele><time>2026-05-01T13:14:15.999Z</time></trkpt><trkpt lat="44.844325137382256" lon="9.055458610809396"><ele>432.6666666666667</ele><time>2026-05-01T13:14:16.999Z</time></trkpt><trkpt lat="44.84425248668135" lon="9.05544248080777"><ele>433.33333333333337</ele><time>2026-05-01T13:14:17.999Z</time></trkpt><trkpt lat="44.84418790144299" lon="9.055439333991885"><ele>434.0</ele><time>2026-05-01T13:14:18.999Z</time></trkpt><trkpt lat="44.84411122348606" lon="9.055381034690196"><ele>434.6666666666667</ele><time>2026-05-01T13:14:20.999Z</time></trkpt><trkpt lat="44.844063850722314" lon="9.05532113450908"><ele>435.33333333333337</ele><time>2026-05-01T13:14:51Z</time></trkpt><trkpt lat="44.84410697065834" lon="9.055216888072664"><ele>436.0</ele><time>2026-05-01T13:14:53Z</time></trkpt><trkpt lat="44.8441568159161" lon="9.055097841849282"><ele>436.00000000000006</ele><time>2026-05-01T13:14:55Z</time></trkpt><trkpt lat="44.84418581746645" lon="9.054988009469279"><ele>436.0</ele><time>2026-05-01T13:14:57Z</time></trkpt><trkpt lat="44.844215737938804" lon="9.05487807890287"><ele>436.0</ele><time>2026-05-01T13:14:59Z</time></trkpt><trkpt lat="44.844222143910976" lon="9.054972336664207"><ele>436.0</ele><time>2026-05-01T13:15:36.001Z</time></trkpt><trkpt lat="44.844176619923864" lon="9.055067965014839"><ele>436.00000000000006</ele><time>2026-05-01T13:15:38.001Z</time></trkpt><trkpt lat="44.84407654486056" lon="9.054977282919289"><ele>436.0</ele><time>2026-05-01T13:15:39.001Z</time></trkpt><trkpt lat="44.84408952412598" lon="9.055213815199064"><ele>436.00000000000006</ele><time>2026-05-01T13:15:40.001Z</time></trkpt><trkpt lat="44.84405113229783" lon="9.055298241013356"><ele>436.0</ele><time>2026-05-01T13:15:41.001Z</time></trkpt><trkpt lat="44.84400615609982" lon="9.055401803327028"><ele>436.0</ele><time>2026-05-01T13:15:42.001Z</time></trkpt><trkpt lat="44.84394245454912" lon="9.055503419957843"><ele>436.0</ele><time>2026-05-01T13:15:43.001Z</time></trkpt><trkpt lat="44.84386631965067" lon="9.055601502218533"><ele>436.00000000000006</ele><time>2026-05-01T13:15:44.001Z</time></trkpt><trkpt lat="44.84380514156919" lon="9.055698389765805"><ele>436.0</ele><time>2026-05-01T13:15:45.001Z</time></trkpt><trkpt lat="44.84374783318499" lon="9.055801164694161"><ele>434.4</ele><time>2026-05-01T13:15:46.001Z</time></trkpt><trkpt lat="44.843700818996155" lon="9.055904829632432"><ele>432.8</ele><time>2026-05-01T13:15:47.001Z</time></trkpt><trkpt lat="44.84365948725423" lon="9.056011080315553"><ele>431.19999999999993</ele><time>2026-05-01T13:15:48.001Z</time></trkpt><trkpt lat="44.84364060065527" lon="9.056148582183928"><ele>429.59999999999997</ele><time>2026-05-01T13:15:49.002Z</time></trkpt><trkpt lat="44.84364324229334" lon="9.056300893508947"><ele>428.0</ele><time>2026-05-01T13:15:50.002Z</time></trkpt><trkpt lat="44.84363109352781" lon="9.056460286538384"><ele>426.0</ele><time>2026-05-01T13:15:51.002Z</time></trkpt><trkpt lat="44.84361270694436" lon="9.05662208633329"><ele>423.99999999999994</ele><time>2026-05-01T13:15:52.002Z</time></trkpt><trkpt lat="44.84361657162797" lon="9.056792124167151"><ele>422.0</ele><time>2026-05-01T13:15:53.002Z</time></trkpt><trkpt lat="44.84360576670366" lon="9.05693537815481"><ele>420.0</ele><time>2026-05-01T13:15:54.002Z</time></trkpt><trkpt lat="44.84356937148173" lon="9.057040451864488"><ele>418.0</ele><time>2026-05-01T13:15:55.002Z</time></trkpt><trkpt lat="44.84353681323277" lon="9.057135698161636"><ele>418.00000000000006</ele><time>2026-05-01T13:15:56.002Z</time></trkpt><trkpt lat="44.84349224104453" lon="9.057207144361966"><ele>418.0</ele><time>2026-05-01T13:15:57.002Z</time></trkpt><trkpt lat="44.84342996747471" lon="9.057268956624482"><ele>418.0</ele><time>2026-05-01T13:15:58.002Z</time></trkpt><trkpt lat="44.84335906037969" lon="9.057315919532389"><ele>418.0</ele><time>2026-05-01T13:15:59.002Z</time></trkpt><trkpt lat="44.84329287225708" lon="9.057336542784224"><ele>418.00000000000006</ele><time>2026-05-01T13:16:00.002Z</time></trkpt><trkpt lat="44.84324087807365" lon="9.057390440283745"><ele>418.0</ele><time>2026-05-01T13:16:01.002Z</time></trkpt><trkpt lat="44.843135694613586" lon="9.057484564205188"><ele>419.2</ele><time>2026-05-01T13:16:03.002Z</time></trkpt><trkpt lat="44.84306053092536" lon="9.05754540411527"><ele>420.4</ele><time>2026-05-01T13:16:04.002Z</time></trkpt><trkpt lat="44.842986233946874" lon="9.05763838438508"><ele>421.59999999999997</ele><time>2026-05-01T13:16:05.002Z</time></trkpt><trkpt lat="44.84290207318595" lon="9.057749895666438"><ele>422.79999999999995</ele><time>2026-05-01T13:16:06.002Z</time></trkpt><trkpt lat="44.842817322591536" lon="9.057871958788722"><ele>424.0</ele><time>2026-05-01T13:16:07.002Z</time></trkpt><trkpt lat="44.84272121979584" lon="9.05800796983929"><ele>423.25</ele><time>2026-05-01T13:16:08.002Z</time></trkpt><trkpt lat="44.84261621000172" lon="9.05814808769507"><ele>422.5</ele><time>2026-05-01T13:16:09.002Z</time></trkpt><trkpt lat="44.842518358197566" lon="9.058276253952467"><ele>421.75</ele><time>2026-05-01T13:16:10.002Z</time></trkpt><trkpt lat="44.84241912380868" lon="9.058405147479727"><ele>421.0</ele><time>2026-05-01T13:16:11.002Z</time></trkpt><trkpt lat="44.84231817181558" lon="9.058536272010173"><ele>421.0</ele><time>2026-05-01T13:16:12.002Z</time></trkpt><trkpt lat="44.84221530098907" lon="9.058666896127132"><ele>421.0</ele><time>2026-05-01T13:16:13.002Z</time></trkpt><trkpt lat="44.84211647568114" lon="9.058789185271893"><ele>421.0</ele><time>2026-05-01T13:16:14.002Z</time></trkpt><trkpt lat="44.84201521673194" lon="9.058892822574824"><ele>421.0</ele><time>2026-05-01T13:16:15.002Z</time></trkpt><trkpt lat="44.841917066215125" lon="9.058985393674682"><ele>421.0</ele><time>2026-05-01T13:16:16.002Z</time></trkpt><trkpt lat="44.84182402208678" lon="9.059075421455981"><ele>421.0</ele><time>2026-05-01T13:16:16.998Z</time></trkpt><trkpt lat="44.84174856757357" lon="9.059179059779208"><ele>421.0</ele><time>2026-05-01T13:16:17.998Z</time></trkpt><trkpt lat="44.841671875761456" lon="9.05926348003333"><ele>421.0</ele><time>2026-05-01T13:16:18.998Z</time></trkpt><trkpt lat="44.841585159746664" lon="9.059326996406757"><ele>421.0</ele><time>2026-05-01T13:16:19.998Z</time></trkpt><trkpt lat="44.841508743396574" lon="9.059407576476339"><ele>423.0</ele><time>2026-05-01T13:16:20.998Z</time></trkpt><trkpt lat="44.8414231107382" lon="9.059492179378408"><ele>425.0</ele><time>2026-05-01T13:16:21.998Z</time></trkpt><trkpt lat="44.84134013554274" lon="9.059572285331619"><ele>427.0</ele><time>2026-05-01T13:16:22.998Z</time></trkpt><trkpt lat="44.84125525875604" lon="9.059654227107927"><ele>429.0</ele><time>2026-05-01T13:16:23.998Z</time></trkpt><trkpt lat="44.841174085079274" lon="9.059732593860353"><ele>431.0</ele><time>2026-05-01T13:16:24.999Z</time></trkpt><trkpt lat="44.841090558733" lon="9.059813231937877"><ele>430.99999999999994</ele><time>2026-05-01T13:16:25.999Z</time></trkpt><trkpt lat="44.84101788517301" lon="9.059914220475248"><ele>431.0</ele><time>2026-05-01T13:16:26.999Z</time></trkpt><trkpt lat="44.84093663943248" lon="9.05999676741951"><ele>431.0</ele><time>2026-05-01T13:16:27.999Z</time></trkpt><trkpt lat="44.84086332795891" lon="9.060085799066924"><ele>431.0</ele><time>2026-05-01T13:16:28.999Z</time></trkpt><trkpt lat="44.84080162537239" lon="9.060164872301975"><ele>430.99999999999994</ele><time>2026-05-01T13:16:29.999Z</time></trkpt><trkpt lat="44.840740077172406" lon="9.06019362830384"><ele>431.0</ele><time>2026-05-01T13:16:30.999Z</time></trkpt><trkpt lat="44.84068187634859" lon="9.060150234233234"><ele>431.6</ele><time>2026-05-01T13:16:32.999Z</time></trkpt><trkpt lat="44.840617865105784" lon="9.060018680750598"><ele>432.20000000000005</ele><time>2026-05-01T13:16:34.999Z</time></trkpt><trkpt lat="44.840555649627944" lon="9.059948700742797"><ele>432.79999999999995</ele><time>2026-05-01T13:16:35.999Z</time></trkpt><trkpt lat="44.84049514768224" lon="9.05989542942871"><ele>433.4</ele><time>2026-05-01T13:16:36.999Z</time></trkpt><trkpt lat="44.84037273237828" lon="9.059912941940667"><ele>434.0</ele><time>2026-05-01T13:16:38.999Z</time></trkpt><trkpt lat="44.84031364046327" lon="9.059954485672606"><ele>433.99999999999994</ele><time>2026-05-01T13:16:39.999Z</time></trkpt><trkpt lat="44.84026244207197" lon="9.060019557916984"><ele>434.0</ele><time>2026-05-01T13:16:40.999Z</time></trkpt><trkpt lat="44.84020540659291" lon="9.060081705567365"><ele>434.0</ele><time>2026-05-01T13:16:41.999Z</time></trkpt><trkpt lat="44.84018185418864" lon="9.060195996912855"><ele>434.0</ele><time>2026-05-01T13:16:42.999Z</time></trkpt><trkpt lat="44.84016821548597" lon="9.060318758173759"><ele>433.99999999999994</ele><time>2026-05-01T13:16:43.999Z</time></trkpt><trkpt lat="44.8401641591625" lon="9.060483655005156"><ele>434.0</ele><time>2026-05-01T13:16:44.999Z</time></trkpt><trkpt lat="44.84015060750959" lon="9.060609970587999"><ele>433.99999999999994</ele><time>2026-05-01T13:16:46Z</time></trkpt><trkpt lat="44.84013428835875" lon="9.060719203196056"><ele>434.0</ele><time>2026-05-01T13:16:47Z</time></trkpt><trkpt lat="44.84009126314108" lon="9.060801183963665"><ele>434.0</ele><time>2026-05-01T13:16:48Z</time></trkpt><trkpt lat="44.840022611782544" lon="9.060853030068836"><ele>434.0</ele><time>2026-05-01T13:16:49Z</time></trkpt><trkpt lat="44.8399269625641" lon="9.060886856241172"><ele>433.99999999999994</ele><time>2026-05-01T13:16:50Z</time></trkpt><trkpt lat="44.83982537040757" lon="9.060944060395922"><ele>434.0</ele><time>2026-05-01T13:16:51Z</time></trkpt><trkpt lat="44.83975316271687" lon="9.061024620128673"><ele>432.6</ele><time>2026-05-01T13:16:52Z</time></trkpt><trkpt lat="44.83969954322948" lon="9.061101936121704"><ele>431.2</ele><time>2026-05-01T13:16:53Z</time></trkpt><trkpt lat="44.839640601996635" lon="9.061199026818707"><ele>429.80000000000007</ele><time>2026-05-01T13:16:54Z</time></trkpt><trkpt lat="44.83958263033044" lon="9.061324357786374"><ele>428.40000000000003</ele><time>2026-05-01T13:16:55Z</time></trkpt><trkpt lat="44.839534451281665" lon="9.061470106853179"><ele>427.0</ele><time>2026-05-01T13:16:56Z</time></trkpt><trkpt lat="44.83949913079441" lon="9.061629893038887"><ele>426.0</ele><time>2026-05-01T13:16:57Z</time></trkpt><trkpt lat="44.83946555970583" lon="9.061783626715048"><ele>425.0</ele><time>2026-05-01T13:16:58Z</time></trkpt><trkpt lat="44.83943002087126" lon="9.061942070749515"><ele>424.0</ele><time>2026-05-01T13:16:59Z</time></trkpt><trkpt lat="44.839393621753096" lon="9.062104350028623"><ele>423.0</ele><time>2026-05-01T13:17:00Z</time></trkpt><trkpt lat="44.839360479241854" lon="9.062258732203265"><ele>423.0</ele><time>2026-05-01T13:17:01Z</time></trkpt><trkpt lat="44.83932978639753" lon="9.062421386016894"><ele>423.0</ele><time>2026-05-01T13:17:02Z</time></trkpt><trkpt lat="44.83931749305853" lon="9.062599966606673"><ele>423.0</ele><time>2026-05-01T13:17:03Z</time></trkpt><trkpt lat="44.839289240703906" lon="9.06278048741377"><ele>423.0</ele><time>2026-05-01T13:17:04Z</time></trkpt><trkpt lat="44.83925415295398" lon="9.062964652325425"><ele>419.25</ele><time>2026-05-01T13:17:05Z</time></trkpt><trkpt lat="44.83922673020913" lon="9.063154516690103"><ele>415.5</ele><time>2026-05-01T13:17:06Z</time></trkpt><trkpt lat="44.83920161124185" lon="9.06334304100873"><ele>411.75</ele><time>2026-05-01T13:17:07Z</time></trkpt><trkpt lat="44.83917161047172" lon="9.063523754725951"><ele>408.0</ele><time>2026-05-01T13:17:08Z</time></trkpt><trkpt lat="44.8391409023049" lon="9.06369421221323"><ele>407.0</ele><time>2026-05-01T13:17:09Z</time></trkpt><trkpt lat="44.83911049251294" lon="9.063856313669948"><ele>406.0</ele><time>2026-05-01T13:17:10Z</time></trkpt><trkpt lat="44.8390482957284" lon="9.063983524065332"><ele>405.0</ele><time>2026-05-01T13:17:11Z</time></trkpt><trkpt lat="44.83898552542296" lon="9.064104306199523"><ele>404.0</ele><time>2026-05-01T13:17:12Z</time></trkpt><trkpt lat="44.83890215752646" lon="9.064224120282391"><ele>403.0</ele><time>2026-05-01T13:17:13Z</time></trkpt><trkpt lat="44.83881729093627" lon="9.064358165234127"><ele>402.0</ele><time>2026-05-01T13:17:14.001Z</time></trkpt><trkpt lat="44.83874498657916" lon="9.064512970085282"><ele>401.0</ele><time>2026-05-01T13:17:15.001Z</time></trkpt><trkpt lat="44.838677721521194" lon="9.064657549073697"><ele>400.0</ele><time>2026-05-01T13:17:16.001Z</time></trkpt><trkpt lat="44.83862976138915" lon="9.06480163611156"><ele>401.0</ele><time>2026-05-01T13:17:17.001Z</time></trkpt><trkpt lat="44.83860306802259" lon="9.06494776478007"><ele>402.0</ele><time>2026-05-01T13:17:18.001Z</time></trkpt><trkpt lat="44.83860540489937" lon="9.065100343621383"><ele>403.0</ele><time>2026-05-01T13:17:19.001Z</time></trkpt><trkpt lat="44.838624956659764" lon="9.065260434994258"><ele>404.0</ele><time>2026-05-01T13:17:20.001Z</time></trkpt><trkpt lat="44.83865007813698" lon="9.065418260802126"><ele>405.0</ele><time>2026-05-01T13:17:21.001Z</time></trkpt><trkpt lat="44.83865900823273" lon="9.065556208188571"><ele>405.0</ele><time>2026-05-01T13:17:22.001Z</time></trkpt><trkpt lat="44.83865989910621" lon="9.065667708312466"><ele>405.0</ele><time>2026-05-01T13:17:23.001Z</time></trkpt><trkpt lat="44.83863455869941" lon="9.065767659969131"><ele>405.0</ele><time>2026-05-01T13:17:24.001Z</time></trkpt><trkpt lat="44.83858874958363" lon="9.065854613549813"><ele>405.0</ele><time>2026-05-01T13:17:25.001Z</time></trkpt><trkpt lat="44.83850672023401" lon="9.065900330935863"><ele>405.0</ele><time>2026-05-01T13:17:26.001Z</time></trkpt><trkpt lat="44.83841748640451" lon="9.06594348162114"><ele>405.0</ele><time>2026-05-01T13:17:27.001Z</time></trkpt><trkpt lat="44.83830698033024" lon="9.06596673408289"><ele>405.25</ele><time>2026-05-01T13:17:28.001Z</time></trkpt><trkpt lat="44.83817492334523" lon="9.065990624523344"><ele>405.5</ele><time>2026-05-01T13:17:29.001Z</time></trkpt><trkpt lat="44.83803608679752" lon="9.066022168083455"><ele>405.75</ele><time>2026-05-01T13:17:30.001Z</time></trkpt><trkpt lat="44.837889173547794" lon="9.066072339453818"><ele>406.0</ele><time>2026-05-01T13:17:31.001Z</time></trkpt><trkpt lat="44.837736776780716" lon="9.066102224211575"><ele>405.6666666666667</ele><time>2026-05-01T13:17:32.001Z</time></trkpt><trkpt lat="44.837579957435885" lon="9.066126277143375"><ele>405.33333333333337</ele><time>2026-05-01T13:17:33.001Z</time></trkpt><trkpt lat="44.83742433381335" lon="9.06616258694573"><ele>405.0</ele><time>2026-05-01T13:17:34.001Z</time></trkpt><trkpt lat="44.837283021472196" lon="9.066190113426078"><ele>405.0</ele><time>2026-05-01T13:17:35.001Z</time></trkpt><trkpt lat="44.83715537229983" lon="9.06622614915543"><ele>405.0</ele><time>2026-05-01T13:17:36.001Z</time></trkpt><trkpt lat="44.83703029019826" lon="9.066273065929982"><ele>405.0</ele><time>2026-05-01T13:17:37.001Z</time></trkpt><trkpt lat="44.83690517186989" lon="9.066345840346127"><ele>405.0</ele><time>2026-05-01T13:17:38.001Z</time></trkpt><trkpt lat="44.83678810885658" lon="9.06645045930619"><ele>405.25</ele><time>2026-05-01T13:17:39.001Z</time></trkpt><trkpt lat="44.83668444625593" lon="9.066569945557074"><ele>405.5</ele><time>2026-05-01T13:17:40.001Z</time></trkpt><trkpt lat="44.836588294541635" lon="9.066713805461935"><ele>405.75</ele><time>2026-05-01T13:17:41.001Z</time></trkpt><trkpt lat="44.83648261842699" lon="9.06686008509385"><ele>406.0</ele><time>2026-05-01T13:17:42.001Z</time></trkpt><trkpt lat="44.83636508217519" lon="9.066979091196027"><ele>407.5</ele><time>2026-05-01T13:17:43.001Z</time></trkpt><trkpt lat="44.836256094947636" lon="9.067113693588364"><ele>409.0</ele><time>2026-05-01T13:17:44.001Z</time></trkpt><trkpt lat="44.836145655178875" lon="9.067242021688566"><ele>410.5</ele><time>2026-05-01T13:17:45.001Z</time></trkpt><trkpt lat="44.83602855269185" lon="9.067366846923537"><ele>412.0</ele><time>2026-05-01T13:17:46.001Z</time></trkpt><trkpt lat="44.835908620354274" lon="9.067480205310972"><ele>413.0</ele><time>2026-05-01T13:17:47.001Z</time></trkpt><trkpt lat="44.835774618720855" lon="9.067561667538701"><ele>414.0</ele><time>2026-05-01T13:17:48.001Z</time></trkpt><trkpt lat="44.83564621354988" lon="9.067654906820724"><ele>415.0</ele><time>2026-05-01T13:17:49.002Z</time></trkpt><trkpt lat="44.83551140786075" lon="9.067736872876187"><ele>416.0</ele><time>2026-05-01T13:17:50.002Z</time></trkpt><trkpt lat="44.835373194178096" lon="9.067812457672673"><ele>416.0</ele><time>2026-05-01T13:17:51.002Z</time></trkpt><trkpt lat="44.83524152377743" lon="9.06787895521498"><ele>416.0</ele><time>2026-05-01T13:17:52.002Z</time></trkpt><trkpt lat="44.83509811136642" lon="9.06794659913832"><ele>416.0</ele><time>2026-05-01T13:17:53.002Z</time></trkpt><trkpt lat="44.83495562511224" lon="9.068044106641574"><ele>416.0</ele><time>2026-05-01T13:17:54.002Z</time></trkpt><trkpt lat="44.83480966813489" lon="9.068129703465928"><ele>417.3333333333333</ele><time>2026-05-01T13:17:55.002Z</time></trkpt><trkpt lat="44.83466541499533" lon="9.068231161661345"><ele>418.66666666666663</ele><time>2026-05-01T13:17:56.002Z</time></trkpt><trkpt lat="44.83452417021335" lon="9.068346845905214"><ele>420.0</ele><time>2026-05-01T13:17:57.002Z</time></trkpt><trkpt lat="44.83437531801569" lon="9.068455162026462"><ele>423.0</ele><time>2026-05-01T13:17:58.002Z</time></trkpt><trkpt lat="44.83423766219823" lon="9.068590202369212"><ele>426.0</ele><time>2026-05-01T13:17:59.002Z</time></trkpt><trkpt lat="44.834109156635314" lon="9.068746938403864"><ele>429.0</ele><time>2026-05-01T13:18:00.002Z</time></trkpt><trkpt lat="44.83400248925891" lon="9.068922910469402"><ele>429.0</ele><time>2026-05-01T13:18:01.002Z</time></trkpt><trkpt lat="44.833898625358515" lon="9.069075575821948"><ele>429.0</ele><time>2026-05-01T13:18:02.002Z</time></trkpt><trkpt lat="44.83380830183541" lon="9.069212792613962"><ele>429.0</ele><time>2026-05-01T13:18:03.002Z</time></trkpt><trkpt lat="44.83372729214887" lon="9.069329338663888"><ele>429.0</ele><time>2026-05-01T13:18:04.002Z</time></trkpt><trkpt lat="44.83363820549573" lon="9.06940959034237"><ele>429.2</ele><time>2026-05-01T13:18:05.002Z</time></trkpt><trkpt lat="44.833559110682636" lon="9.069487703483444"><ele>429.4</ele><time>2026-05-01T13:18:06.002Z</time></trkpt><trkpt lat="44.83347653370655" lon="9.069557725837182"><ele>429.6</ele><time>2026-05-01T13:18:07.002Z</time></trkpt><trkpt lat="44.833383947842954" lon="9.069622767971296"><ele>429.8</ele><time>2026-05-01T13:18:08.002Z</time></trkpt><trkpt lat="44.83328072823591" lon="9.069679137134056"><ele>430.0</ele><time>2026-05-01T13:18:09.002Z</time></trkpt><trkpt lat="44.83316659591499" lon="9.069726668442527"><ele>433.25</ele><time>2026-05-01T13:18:10.002Z</time></trkpt><trkpt lat="44.833043978844444" lon="9.069770735942653"><ele>436.5</ele><time>2026-05-01T13:18:11.002Z</time></trkpt><trkpt lat="44.83291925349488" lon="9.069806511482852"><ele>439.75</ele><time>2026-05-01T13:18:12.002Z</time></trkpt><trkpt lat="44.83278578652122" lon="9.06984359333696"><ele>443.0</ele><time>2026-05-01T13:18:13.002Z</time></trkpt><trkpt lat="44.832651695108396" lon="9.069880848654714"><ele>444.5</ele><time>2026-05-01T13:18:14.002Z</time></trkpt><trkpt lat="44.83251534668998" lon="9.069922868679459"><ele>446.0</ele><time>2026-05-01T13:18:15.002Z</time></trkpt><trkpt lat="44.83238716398891" lon="9.069989945883309"><ele>447.5</ele><time>2026-05-01T13:18:16.002Z</time></trkpt><trkpt lat="44.83225929345866" lon="9.070052627384763"><ele>449.0</ele><time>2026-05-01T13:18:17.002Z</time></trkpt><trkpt lat="44.83213282650984" lon="9.070127612441448"><ele>449.79999999999995</ele><time>2026-05-01T13:18:18.002Z</time></trkpt><trkpt lat="44.8320110281258" lon="9.07019895885345"><ele>450.59999999999997</ele><time>2026-05-01T13:18:19.002Z</time></trkpt><trkpt lat="44.831903611697456" lon="9.070250075245776"><ele>451.4</ele><time>2026-05-01T13:18:20.002Z</time></trkpt><trkpt lat="44.83180527088537" lon="9.070282995271706"><ele>452.2</ele><time>2026-05-01T13:18:21.002Z</time></trkpt><trkpt lat="44.83170378337118" lon="9.070301540302454"><ele>453.0</ele><time>2026-05-01T13:18:22.002Z</time></trkpt><trkpt lat="44.831594033808464" lon="9.070318567354194"><ele>455.5</ele><time>2026-05-01T13:18:22.998Z</time></trkpt><trkpt lat="44.83147174684369" lon="9.070344118767864"><ele>458.0</ele><time>2026-05-01T13:18:23.998Z</time></trkpt><trkpt lat="44.83134638367688" lon="9.070387853473425"><ele>460.5</ele><time>2026-05-01T13:18:24.998Z</time></trkpt><trkpt lat="44.831221632016266" lon="9.070446382046528"><ele>463.0</ele><time>2026-05-01T13:18:25.998Z</time></trkpt><trkpt lat="44.83110229486236" lon="9.070512108554416"><ele>463.0</ele><time>2026-05-01T13:18:26.998Z</time></trkpt><trkpt lat="44.83097520319345" lon="9.070600839951855"><ele>463.0</ele><time>2026-05-01T13:18:27.998Z</time></trkpt><trkpt lat="44.83085788729406" lon="9.070697902202777"><ele>463.0</ele><time>2026-05-01T13:18:28.998Z</time></trkpt><trkpt lat="44.83074678975688" lon="9.07080543788466"><ele>463.0</ele><time>2026-05-01T13:18:29.998Z</time></trkpt><trkpt lat="44.830648310031634" lon="9.070911567924119"><ele>464.6666666666667</ele><time>2026-05-01T13:18:30.998Z</time></trkpt><trkpt lat="44.8305622489648" lon="9.071000935642722"><ele>466.33333333333337</ele><time>2026-05-01T13:18:31.998Z</time></trkpt><trkpt lat="44.83047647549825" lon="9.071024772949485"><ele>468.0</ele><time>2026-05-01T13:18:32.998Z</time></trkpt><trkpt lat="44.83040701900686" lon="9.071022782641998"><ele>469.66666666666663</ele><time>2026-05-01T13:18:33.998Z</time></trkpt><trkpt lat="44.83033201353954" lon="9.071005328607141"><ele>471.3333333333333</ele><time>2026-05-01T13:18:34.998Z</time></trkpt><trkpt lat="44.830243669010976" lon="9.070976983351223"><ele>473.0</ele><time>2026-05-01T13:18:35.998Z</time></trkpt><trkpt lat="44.83014251457904" lon="9.070951548447633"><ele>475.3333333333333</ele><time>2026-05-01T13:18:36.998Z</time></trkpt><trkpt lat="44.830048623800636" lon="9.070916569668896"><ele>477.66666666666663</ele><time>2026-05-01T13:18:37.999Z</time></trkpt><trkpt lat="44.82995998983742" lon="9.070922948295198"><ele>480.0</ele><time>2026-05-01T13:18:38.999Z</time></trkpt><trkpt lat="44.829880737283034" lon="9.070966878612886"><ele>482.33333333333337</ele><time>2026-05-01T13:18:39.999Z</time></trkpt><trkpt lat="44.82983444375598" lon="9.071060828640388"><ele>484.6666666666667</ele><time>2026-05-01T13:18:40.999Z</time></trkpt><trkpt lat="44.82980907796664" lon="9.07116045745035"><ele>487.0</ele><time>2026-05-01T13:18:41.999Z</time></trkpt><trkpt lat="44.82979824869514" lon="9.071260818159786"><ele>487.0</ele><time>2026-05-01T13:18:42.999Z</time></trkpt><trkpt lat="44.82978502320989" lon="9.07137593492263"><ele>487.00000000000006</ele><time>2026-05-01T13:18:44.999Z</time></trkpt><trkpt lat="44.82983676300053" lon="9.071514572654857"><ele>487.00000000000006</ele><time>2026-05-01T13:18:46.999Z</time></trkpt><trkpt lat="44.829848744238646" lon="9.07162104473"><ele>487.0</ele><time>2026-05-01T13:18:47.999Z</time></trkpt><trkpt lat="44.82985849476931" lon="9.07174194208832"><ele>487.0</ele><time>2026-05-01T13:18:48.999Z</time></trkpt><trkpt lat="44.82985177715793" lon="9.071878644696072"><ele>488.20000000000005</ele><time>2026-05-01T13:18:49.999Z</time></trkpt><trkpt lat="44.8298131224325" lon="9.072018458250076"><ele>489.40000000000003</ele><time>2026-05-01T13:18:50.999Z</time></trkpt><trkpt lat="44.82980119810583" lon="9.07217631558663"><ele>490.59999999999997</ele><time>2026-05-01T13:18:51.999Z</time></trkpt><trkpt lat="44.8297732229889" lon="9.072329592771245"><ele>491.79999999999995</ele><time>2026-05-01T13:18:53Z</time></trkpt><trkpt lat="44.829723535245854" lon="9.072467624965858"><ele>493.0</ele><time>2026-05-01T13:18:54Z</time></trkpt><trkpt lat="44.82969669266737" lon="9.072587729377258"><ele>493.00000000000006</ele><time>2026-05-01T13:18:55Z</time></trkpt><trkpt lat="44.82965870232892" lon="9.07269378889725"><ele>493.0</ele><time>2026-05-01T13:18:56Z</time></trkpt><trkpt lat="44.82960266828046" lon="9.07278920786845"><ele>493.0</ele><time>2026-05-01T13:18:57Z</time></trkpt><trkpt lat="44.82953727536568" lon="9.072874432778947"><ele>493.0</ele><time>2026-05-01T13:18:58Z</time></trkpt><trkpt lat="44.82946926647542" lon="9.072947680074291"><ele>493.00000000000006</ele><time>2026-05-01T13:18:59Z</time></trkpt><trkpt lat="44.82940774744215" lon="9.073006976796908"><ele>493.0</ele><time>2026-05-01T13:19:00Z</time></trkpt><trkpt lat="44.82934567201608" lon="9.073068110629986"><ele>497.2</ele><time>2026-05-01T13:19:01Z</time></trkpt><trkpt lat="44.82926180084332" lon="9.073135511690786"><ele>501.4</ele><time>2026-05-01T13:19:03Z</time></trkpt><trkpt lat="44.82923695328928" lon="9.073271669403772"><ele>505.59999999999997</ele><time>2026-05-01T13:19:05Z</time></trkpt><trkpt lat="44.82923785763456" lon="9.073381597446168"><ele>509.79999999999995</ele><time>2026-05-01T13:19:06Z</time></trkpt><trkpt lat="44.82924838324328" lon="9.073507104595015"><ele>514.0</ele><time>2026-05-01T13:19:07Z</time></trkpt><trkpt lat="44.829258462699755" lon="9.073650455856036"><ele>514.3333333333334</ele><time>2026-05-01T13:19:08Z</time></trkpt><trkpt lat="44.82926682048323" lon="9.073780741958187"><ele>514.6666666666667</ele><time>2026-05-01T13:19:09Z</time></trkpt><trkpt lat="44.829275043064094" lon="9.073908920436455"><ele>515.0</ele><time>2026-05-01T13:19:10Z</time></trkpt><trkpt lat="44.82929856249301" lon="9.074020779422552"><ele>515.3333333333334</ele><time>2026-05-01T13:19:11Z</time></trkpt><trkpt lat="44.82928872190321" lon="9.074125427019313"><ele>515.6666666666666</ele><time>2026-05-01T13:19:12Z</time></trkpt><trkpt lat="44.829302188348734" lon="9.074274546527995"><ele>516.0</ele><time>2026-05-01T13:19:14Z</time></trkpt><trkpt lat="44.829280128564776" lon="9.07437389003928"><ele>516.0</ele><time>2026-05-01T13:19:16Z</time></trkpt><trkpt lat="44.82922426688642" lon="9.074535896877977"><ele>516.0</ele><time>2026-05-01T13:19:18Z</time></trkpt><trkpt lat="44.82920546299082" lon="9.074626442289508"><ele>516.0</ele><time>2026-05-01T13:19:19.001Z</time></trkpt><trkpt lat="44.82922235507457" lon="9.074719950727992"><ele>516.0</ele><time>2026-05-01T13:19:20.001Z</time></trkpt><trkpt lat="44.82927837887587" lon="9.074783930770327"><ele>516.0</ele><time>2026-05-01T13:19:21.001Z</time></trkpt><trkpt lat="44.8293197555406" lon="9.074866280418233"><ele>516.0</ele><time>2026-05-01T13:19:22.001Z</time></trkpt><trkpt lat="44.82938281673926" lon="9.074953760584034"><ele>513.5</ele><time>2026-05-01T13:19:23.001Z</time></trkpt><trkpt lat="44.82944033953372" lon="9.075033557114537"><ele>511.0</ele><time>2026-05-01T13:19:24.001Z</time></trkpt><trkpt lat="44.82948122289621" lon="9.075101400467316"><ele>508.5</ele><time>2026-05-01T13:19:25.001Z</time></trkpt><trkpt lat="44.8295508220753" lon="9.075198243991256"><ele>506.0</ele><time>2026-05-01T13:19:27.001Z</time></trkpt><trkpt lat="44.82958296636184" lon="9.075347959202407"><ele>503.5</ele><time>2026-05-01T13:19:30.001Z</time></trkpt><trkpt lat="44.82962531553264" lon="9.075415752545139"><ele>501.0</ele><time>2026-05-01T13:19:31.001Z</time></trkpt><trkpt lat="44.82965485089419" lon="9.075500560864779"><ele>501.0</ele><time>2026-05-01T13:19:32.001Z</time></trkpt><trkpt lat="44.82969099842475" lon="9.075585833292699"><ele>501.0</ele><time>2026-05-01T13:19:33.001Z</time></trkpt><trkpt lat="44.8297410153391" lon="9.075746158493265"><ele>501.0</ele><time>2026-05-01T13:19:35.001Z</time></trkpt><trkpt lat="44.82978646756074" lon="9.075824802916204"><ele>501.0</ele><time>2026-05-01T13:19:36.001Z</time></trkpt><trkpt lat="44.829853139735036" lon="9.075880748901831"><ele>501.0</ele><time>2026-05-01T13:19:37.001Z</time></trkpt><trkpt lat="44.82992735130328" lon="9.075936293701776"><ele>501.0</ele><time>2026-05-01T13:19:38.001Z</time></trkpt><trkpt lat="44.82999035372647" lon="9.076006406131178"><ele>501.0</ele><time>2026-05-01T13:19:39.001Z</time></trkpt><trkpt lat="44.83009760854549" lon="9.076106881912686"><ele>501.0</ele><time>2026-05-01T13:19:41.001Z</time></trkpt><trkpt lat="44.830180514828065" lon="9.076229183649195"><ele>501.0</ele><time>2026-05-01T13:19:43.001Z</time></trkpt><trkpt lat="44.8302220459365" lon="9.076308041194858"><ele>501.0</ele><time>2026-05-01T13:19:44.001Z</time></trkpt><trkpt lat="44.83023793057002" lon="9.076408828689496"><ele>501.0</ele><time>2026-05-01T13:19:45.001Z</time></trkpt><trkpt lat="44.83026736465785" lon="9.076539830273259"><ele>502.75</ele><time>2026-05-01T13:19:46.001Z</time></trkpt><trkpt lat="44.830299582721764" lon="9.076707929432025"><ele>504.5</ele><time>2026-05-01T13:19:47.001Z</time></trkpt><trkpt lat="44.83032777956629" lon="9.076867675388891"><ele>506.25</ele><time>2026-05-01T13:19:48.001Z</time></trkpt><trkpt lat="44.8303539408171" lon="9.077019428802545"><ele>508.0</ele><time>2026-05-01T13:19:49.001Z</time></trkpt><trkpt lat="44.830392435114284" lon="9.07718932120448"><ele>508.0</ele><time>2026-05-01T13:19:50.001Z</time></trkpt><trkpt lat="44.830416775817085" lon="9.077375995864397"><ele>508.0</ele><time>2026-05-01T13:19:51.002Z</time></trkpt><trkpt lat="44.83044601584396" lon="9.077555445574028"><ele>508.0</ele><time>2026-05-01T13:19:52.002Z</time></trkpt><trkpt lat="44.83048141165237" lon="9.077719677853034"><ele>508.0</ele><time>2026-05-01T13:19:53.002Z</time></trkpt><trkpt lat="44.830543696005634" lon="9.077865751506765"><ele>508.50000000000006</ele><time>2026-05-01T13:19:54.002Z</time></trkpt><trkpt lat="44.83062001934099" lon="9.077994915105728"><ele>509.0</ele><time>2026-05-01T13:19:55.002Z</time></trkpt><trkpt lat="44.83066157802428" lon="9.078117105849662"><ele>509.5</ele><time>2026-05-01T13:19:56.002Z</time></trkpt><trkpt lat="44.83070424692139" lon="9.078214022200436"><ele>510.0</ele><time>2026-05-01T13:19:57.002Z</time></trkpt><trkpt lat="44.83074756978963" lon="9.078303037934502"><ele>510.50000000000006</ele><time>2026-05-01T13:19:59.002Z</time></trkpt><trkpt lat="44.8307628779326" lon="9.07840148190674"><ele>511.0</ele><time>2026-05-01T13:20:01.002Z</time></trkpt><trkpt lat="44.83075505397804" lon="9.07855905004329"><ele>511.83333333333337</ele><time>2026-05-01T13:20:03.002Z</time></trkpt><trkpt lat="44.8307563405812" lon="9.078665377364544"><ele>512.6666666666667</ele><time>2026-05-01T13:20:04.002Z</time></trkpt><trkpt lat="44.830768122542544" lon="9.078785187770569"><ele>513.5</ele><time>2026-05-01T13:20:05.002Z</time></trkpt><trkpt lat="44.83078665496438" lon="9.07891086024409"><ele>514.3333333333334</ele><time>2026-05-01T13:20:06.002Z</time></trkpt><trkpt lat="44.83082305240164" lon="9.079036250765897"><ele>515.1666666666666</ele><time>2026-05-01T13:20:07.002Z</time></trkpt><trkpt lat="44.830832404638016" lon="9.079171990636356"><ele>516.0</ele><time>2026-05-01T13:20:08.002Z</time></trkpt><trkpt lat="44.830838918893484" lon="9.079291551519855"><ele>517.0</ele><time>2026-05-01T13:20:09.002Z</time></trkpt><trkpt lat="44.830837936056874" lon="9.07938658133169"><ele>518.0</ele><time>2026-05-01T13:20:10.002Z</time></trkpt><trkpt lat="44.83080331365907" lon="9.07949867317457"><ele>519.0</ele><time>2026-05-01T13:20:12.002Z</time></trkpt><trkpt lat="44.83075067568661" lon="9.079622588031429"><ele>520.0</ele><time>2026-05-01T13:20:21.002Z</time></trkpt><trkpt lat="44.83079146398591" lon="9.079772413553343"><ele>521.0</ele><time>2026-05-01T13:20:22.002Z</time></trkpt><trkpt lat="44.830753067561375" lon="9.079869825121976"><ele>522.0</ele><time>2026-05-01T13:20:23.002Z</time></trkpt><trkpt lat="44.83076246185059" lon="9.079990655592436"><ele>522.0</ele><time>2026-05-01T13:20:24.003Z</time></trkpt><trkpt lat="44.830745993730304" lon="9.080095282195865"><ele>522.0</ele><time>2026-05-01T13:20:25.003Z</time></trkpt><trkpt lat="44.83073919996476" lon="9.080193471759635"><ele>522.0</ele><time>2026-05-01T13:20:26.003Z</time></trkpt><trkpt lat="44.8307253902424" lon="9.080306774950214"><ele>522.0</ele><time>2026-05-01T13:20:27.003Z</time></trkpt><trkpt lat="44.83072259584958" lon="9.080440134812129"><ele>522.0</ele><time>2026-05-01T13:20:28.003Z</time></trkpt><trkpt lat="44.830731694293796" lon="9.080588179636155"><ele>522.0</ele><time>2026-05-01T13:20:28.997Z</time></trkpt><trkpt lat="44.830735675462705" lon="9.080744688162788"><ele>521.4</ele><time>2026-05-01T13:20:29.997Z</time></trkpt><trkpt lat="44.83073722647857" lon="9.08088803309443"><ele>520.8000000000001</ele><time>2026-05-01T13:20:30.998Z</time></trkpt><trkpt lat="44.830752894747164" lon="9.081027930141033"><ele>520.2</ele><time>2026-05-01T13:20:31.998Z</time></trkpt><trkpt lat="44.83077497858382" lon="9.081146112701033"><ele>519.6</ele><time>2026-05-01T13:20:32.998Z</time></trkpt><trkpt lat="44.83080696611659" lon="9.081255157449496"><ele>519.0</ele><time>2026-05-01T13:20:33.998Z</time></trkpt><trkpt lat="44.83086087344508" lon="9.081373759241824"><ele>519.0</ele><time>2026-05-01T13:20:34.998Z</time></trkpt><trkpt lat="44.830900632702246" lon="9.08152567543814"><ele>519.0</ele><time>2026-05-01T13:20:35.998Z</time></trkpt><trkpt lat="44.83092912911186" lon="9.081670323133547"><ele>519.0</ele><time>2026-05-01T13:20:36.998Z</time></trkpt><trkpt lat="44.83097171102499" lon="9.081804919747883"><ele>519.0</ele><time>2026-05-01T13:20:37.998Z</time></trkpt><trkpt lat="44.831002850397574" lon="9.081936610994173"><ele>519.0</ele><time>2026-05-01T13:20:38.998Z</time></trkpt><trkpt lat="44.83104813346779" lon="9.08205220387382"><ele>515.5</ele><time>2026-05-01T13:20:39.999Z</time></trkpt><trkpt lat="44.8311096482985" lon="9.082158449054145"><ele>512.0</ele><time>2026-05-01T13:20:40.999Z</time></trkpt><trkpt lat="44.83114672837357" lon="9.082271407373948"><ele>508.5</ele><time>2026-05-01T13:20:41.999Z</time></trkpt><trkpt lat="44.83116083905897" lon="9.082371670348165"><ele>505.0</ele><time>2026-05-01T13:20:42.999Z</time></trkpt><trkpt lat="44.83116118029613" lon="9.082464945566475"><ele>501.5</ele><time>2026-05-01T13:20:43.999Z</time></trkpt><trkpt lat="44.83116987043599" lon="9.082561567556095"><ele>498.0</ele><time>2026-05-01T13:20:44.999Z</time></trkpt><trkpt lat="44.8311773816503" lon="9.082673064336678"><ele>498.0</ele><time>2026-05-01T13:20:45.999Z</time></trkpt><trkpt lat="44.83119192666896" lon="9.082792053135629"><ele>497.99999999999994</ele><time>2026-05-01T13:20:46.999Z</time></trkpt><trkpt lat="44.83121572561949" lon="9.082909591738687"><ele>497.99999999999994</ele><time>2026-05-01T13:20:47.999Z</time></trkpt><trkpt lat="44.831249899987334" lon="9.083036428230882"><ele>498.0</ele><time>2026-05-01T13:20:48.999Z</time></trkpt><trkpt lat="44.831299443203626" lon="9.083173628660106"><ele>498.0</ele><time>2026-05-01T13:20:49.999Z</time></trkpt><trkpt lat="44.83135861203079" lon="9.083315136228999"><ele>499.59999999999997</ele><time>2026-05-01T13:20:51Z</time></trkpt><trkpt lat="44.83141445037937" lon="9.083450243798948"><ele>501.19999999999993</ele><time>2026-05-01T13:20:52Z</time></trkpt><trkpt lat="44.83145690433983" lon="9.083576034081124"><ele>502.8</ele><time>2026-05-01T13:20:53Z</time></trkpt><trkpt lat="44.83147038213231" lon="9.08369899110239"><ele>504.4</ele><time>2026-05-01T13:20:54Z</time></trkpt><trkpt lat="44.83148578663529" lon="9.083820068774966"><ele>506.0</ele><time>2026-05-01T13:20:55Z</time></trkpt><trkpt lat="44.83150261087124" lon="9.08393858080456"><ele>505.99999999999994</ele><time>2026-05-01T13:20:56Z</time></trkpt><trkpt lat="44.83153580709634" lon="9.084045285352724"><ele>506.0</ele><time>2026-05-01T13:20:57Z</time></trkpt><trkpt lat="44.83155628142384" lon="9.084139561220082"><ele>506.0</ele><time>2026-05-01T13:20:58Z</time></trkpt><trkpt lat="44.83160226362172" lon="9.084227638303464"><ele>506.0</ele><time>2026-05-01T13:20:59Z</time></trkpt><trkpt lat="44.83166324820848" lon="9.084311009143342"><ele>505.99999999999994</ele><time>2026-05-01T13:21:00Z</time></trkpt><trkpt lat="44.83173013458223" lon="9.084389099958964"><ele>506.0</ele><time>2026-05-01T13:21:01Z</time></trkpt><trkpt lat="44.831789696765064" lon="9.084472853510325"><ele>503.16666666666663</ele><time>2026-05-01T13:21:02Z</time></trkpt><trkpt lat="44.831868817209" lon="9.084502599126758"><ele>500.3333333333333</ele><time>2026-05-01T13:21:03Z</time></trkpt><trkpt lat="44.83194378385672" lon="9.084536307891582"><ele>497.5</ele><time>2026-05-01T13:21:04Z</time></trkpt><trkpt lat="44.83202732860879" lon="9.08455611642599"><ele>494.66666666666663</ele><time>2026-05-01T13:21:05Z</time></trkpt><trkpt lat="44.8321154142374" lon="9.084565123272453"><ele>491.8333333333333</ele><time>2026-05-01T13:21:06Z</time></trkpt><trkpt lat="44.83221375469365" lon="9.08455193977592"><ele>489.0</ele><time>2026-05-01T13:21:07Z</time></trkpt><trkpt lat="44.83231603546232" lon="9.084539056359032"><ele>489.0</ele><time>2026-05-01T13:21:08.001Z</time></trkpt><trkpt lat="44.832409225881875" lon="9.084575568212644"><ele>489.0</ele><time>2026-05-01T13:21:09.001Z</time></trkpt><trkpt lat="44.83248543766137" lon="9.084623672944854"><ele>489.0</ele><time>2026-05-01T13:21:10.001Z</time></trkpt><trkpt lat="44.83255306928693" lon="9.084674696396284"><ele>489.0</ele><time>2026-05-01T13:21:11.001Z</time></trkpt><trkpt lat="44.83259964412109" lon="9.084752288063134"><ele>489.0</ele><time>2026-05-01T13:21:12.001Z</time></trkpt><trkpt lat="44.83264797028966" lon="9.08482398677509"><ele>489.0</ele><time>2026-05-01T13:21:13.001Z</time></trkpt><trkpt lat="44.83263610994162" lon="9.084926370306784"><ele>489.6666666666667</ele><time>2026-05-01T13:21:14.001Z</time></trkpt><trkpt lat="44.83262669227675" lon="9.085025339266442"><ele>490.33333333333337</ele><time>2026-05-01T13:21:15.001Z</time></trkpt><trkpt lat="44.83262711213105" lon="9.08515495531793"><ele>491.0</ele><time>2026-05-01T13:21:16.001Z</time></trkpt><trkpt lat="44.832604827067826" lon="9.08527888494071"><ele>491.6666666666667</ele><time>2026-05-01T13:21:17.001Z</time></trkpt><trkpt lat="44.83258987003852" lon="9.085407675740914"><ele>492.33333333333337</ele><time>2026-05-01T13:21:18.001Z</time></trkpt><trkpt lat="44.832573690103544" lon="9.085524895293457"><ele>493.0</ele><time>2026-05-01T13:21:19.001Z</time></trkpt><trkpt lat="44.83254196791947" lon="9.085626058850686"><ele>493.00000000000006</ele><time>2026-05-01T13:21:20.001Z</time></trkpt><trkpt lat="44.832522452525396" lon="9.085737015017928"><ele>493.0</ele><time>2026-05-01T13:21:21.001Z</time></trkpt><trkpt lat="44.832467799665835" lon="9.085836951170283"><ele>493.0</ele><time>2026-05-01T13:21:22.001Z</time></trkpt><trkpt lat="44.83240564786269" lon="9.085936737554123"><ele>493.0</ele><time>2026-05-01T13:21:23.001Z</time></trkpt><trkpt lat="44.83234257725344" lon="9.086031658131073"><ele>493.00000000000006</ele><time>2026-05-01T13:21:24.001Z</time></trkpt><trkpt lat="44.83227624369915" lon="9.086109521198516"><ele>493.0</ele><time>2026-05-01T13:21:25.001Z</time></trkpt><trkpt lat="44.832193079078316" lon="9.086133127982231"><ele>492.0</ele><time>2026-05-01T13:21:26.001Z</time></trkpt><trkpt lat="44.8321121643646" lon="9.086156450114128"><ele>490.99999999999994</ele><time>2026-05-01T13:21:27.001Z</time></trkpt><trkpt lat="44.83201949331445" lon="9.086192503516177"><ele>489.99999999999994</ele><time>2026-05-01T13:21:28.001Z</time></trkpt><trkpt lat="44.83192658693569" lon="9.086251080936961"><ele>489.0</ele><time>2026-05-01T13:21:29.001Z</time></trkpt><trkpt lat="44.83183629383581" lon="9.086286391930287"><ele>488.0</ele><time>2026-05-01T13:21:30.001Z</time></trkpt><trkpt lat="44.83175179465623" lon="9.086330409991255"><ele>487.99999999999994</ele><time>2026-05-01T13:21:31.001Z</time></trkpt><trkpt lat="44.83166667997542" lon="9.086371892096693"><ele>488.0</ele><time>2026-05-01T13:21:32.001Z</time></trkpt><trkpt lat="44.8315776806728" lon="9.086386435078673"><ele>488.0</ele><time>2026-05-01T13:21:33.001Z</time></trkpt><trkpt lat="44.83151152411537" lon="9.0864302911179"><ele>488.0</ele><time>2026-05-01T13:21:34.002Z</time></trkpt><trkpt lat="44.8314727443667" lon="9.086507024373317"><ele>487.99999999999994</ele><time>2026-05-01T13:21:35.002Z</time></trkpt><trkpt lat="44.83143711136096" lon="9.086683002616347"><ele>488.0</ele><time>2026-05-01T13:21:37.002Z</time></trkpt><trkpt lat="44.831432451253185" lon="9.086815941193365"><ele>485.4</ele><time>2026-05-01T13:21:38.002Z</time></trkpt><trkpt lat="44.83140169530349" lon="9.086957465242282"><ele>482.79999999999995</ele><time>2026-05-01T13:21:39.002Z</time></trkpt><trkpt lat="44.83136454258393" lon="9.087084013626678"><ele>480.2</ele><time>2026-05-01T13:21:40.002Z</time></trkpt><trkpt lat="44.831316032781345" lon="9.087204528804795"><ele>477.6</ele><time>2026-05-01T13:21:41.002Z</time></trkpt><trkpt lat="44.83125568962555" lon="9.087315068393135"><ele>475.0</ele><time>2026-05-01T13:21:42.002Z</time></trkpt><trkpt lat="44.83119494941943" lon="9.08742380995272"><ele>473.6666666666667</ele><time>2026-05-01T13:21:43.002Z</time></trkpt><trkpt lat="44.83115318327169" lon="9.087532287968028"><ele>472.33333333333337</ele><time>2026-05-01T13:21:44.002Z</time></trkpt><trkpt lat="44.83110881241914" lon="9.087602200029398"><ele>471.0</ele><time>2026-05-01T13:21:45.002Z</time></trkpt><trkpt lat="44.83103963827472" lon="9.087637999157813"><ele>469.66666666666663</ele><time>2026-05-01T13:21:47.002Z</time></trkpt><trkpt lat="44.83100548972707" lon="9.08779569449321"><ele>468.3333333333333</ele><time>2026-05-01T13:21:50.002Z</time></trkpt><trkpt lat="44.830991466513304" lon="9.087912326792475"><ele>467.0</ele><time>2026-05-01T13:21:51.002Z</time></trkpt><trkpt lat="44.83098896304457" lon="9.088038055357865"><ele>467.0</ele><time>2026-05-01T13:21:52.002Z</time></trkpt><trkpt lat="44.83098052574396" lon="9.088172920501139"><ele>467.00000000000006</ele><time>2026-05-01T13:21:53.002Z</time></trkpt><trkpt lat="44.83097201456448" lon="9.088334508531176"><ele>467.00000000000006</ele><time>2026-05-01T13:21:54.002Z</time></trkpt><trkpt lat="44.83096735107683" lon="9.08849563753391"><ele>467.0</ele><time>2026-05-01T13:21:55.002Z</time></trkpt><trkpt lat="44.8309732952254" lon="9.088637674298408"><ele>467.0</ele><time>2026-05-01T13:21:56.002Z</time></trkpt><trkpt lat="44.830984860972265" lon="9.088762434285867"><ele>466.40000000000003</ele><time>2026-05-01T13:21:57.002Z</time></trkpt><trkpt lat="44.831001534831806" lon="9.088878483522569"><ele>465.80000000000007</ele><time>2026-05-01T13:21:58.002Z</time></trkpt><trkpt lat="44.83102692692305" lon="9.08898825351864"><ele>465.2</ele><time>2026-05-01T13:21:59.002Z</time></trkpt><trkpt lat="44.83106314465767" lon="9.089093042551436"><ele>464.6</ele><time>2026-05-01T13:22:00.002Z</time></trkpt><trkpt lat="44.83113020427908" lon="9.089205084953894"><ele>464.0</ele><time>2026-05-01T13:22:01.002Z</time></trkpt><trkpt lat="44.83121584103675" lon="9.089315869739163"><ele>463.0</ele><time>2026-05-01T13:22:02.002Z</time></trkpt><trkpt lat="44.83130143972395" lon="9.089425231089722"><ele>462.0</ele><time>2026-05-01T13:22:03.002Z</time></trkpt><trkpt lat="44.83138404179238" lon="9.089529833355748"><ele>461.0</ele><time>2026-05-01T13:22:04.002Z</time></trkpt><trkpt lat="44.83148504065713" lon="9.089610015788246"><ele>460.0</ele><time>2026-05-01T13:22:05.002Z</time></trkpt><trkpt lat="44.83157601593945" lon="9.089675331952213"><ele>459.0</ele><time>2026-05-01T13:22:06.003Z</time></trkpt><trkpt lat="44.83165845307874" lon="9.089735735762728"><ele>459.0</ele><time>2026-05-01T13:22:07.003Z</time></trkpt><trkpt lat="44.83172573223366" lon="9.089791086648713"><ele>459.0</ele><time>2026-05-01T13:22:08.003Z</time></trkpt><trkpt lat="44.83179775362994" lon="9.08992628903463"><ele>459.0</ele><time>2026-05-01T13:22:10.003Z</time></trkpt><trkpt lat="44.83179941764986" lon="9.090022463779755"><ele>459.0</ele><time>2026-05-01T13:22:11.003Z</time></trkpt><trkpt lat="44.831788952240956" lon="9.090143963430618"><ele>459.0</ele><time>2026-05-01T13:22:12.003Z</time></trkpt><trkpt lat="44.83178229812704" lon="9.090304658568853"><ele>456.25</ele><time>2026-05-01T13:22:13.003Z</time></trkpt><trkpt lat="44.83178850748457" lon="9.090478865680938"><ele>453.5</ele><time>2026-05-01T13:22:14.003Z</time></trkpt><trkpt lat="44.83180195414977" lon="9.090656834482234"><ele>450.75</ele><time>2026-05-01T13:22:15.003Z</time></trkpt><trkpt lat="44.831816250766984" lon="9.09082438445674"><ele>448.0</ele><time>2026-05-01T13:22:16.003Z</time></trkpt><trkpt lat="44.831837142318626" lon="9.090978030305541"><ele>442.83333333333337</ele><time>2026-05-01T13:22:17.003Z</time></trkpt><trkpt lat="44.83185534099375" lon="9.091101959161346"><ele>437.6666666666667</ele><time>2026-05-01T13:22:18.003Z</time></trkpt><trkpt lat="44.83189051773916" lon="9.091204886173516"><ele>432.5</ele><time>2026-05-01T13:22:19.003Z</time></trkpt><trkpt lat="44.83194933387192" lon="9.09127830238409"><ele>427.33333333333337</ele><time>2026-05-01T13:22:20.003Z</time></trkpt><trkpt lat="44.83203225190886" lon="9.091339368559591"><ele>422.1666666666667</ele><time>2026-05-01T13:22:21.003Z</time></trkpt><trkpt lat="44.83211525526927" lon="9.09138161935853"><ele>417.0</ele><time>2026-05-01T13:22:22.003Z</time></trkpt><trkpt lat="44.832182157936565" lon="9.09144482361563"><ele>417.0</ele><time>2026-05-01T13:22:23.003Z</time></trkpt><trkpt lat="44.832231979253166" lon="9.09153079712191"><ele>417.0</ele><time>2026-05-01T13:22:24.003Z</time></trkpt><trkpt lat="44.832237925055274" lon="9.09166772315357"><ele>417.0</ele><time>2026-05-01T13:22:25.003Z</time></trkpt><trkpt lat="44.83227484643001" lon="9.091832361389425"><ele>417.0</ele><time>2026-05-01T13:22:26.003Z</time></trkpt><trkpt lat="44.832329494437246" lon="9.091991294605346"><ele>417.0</ele><time>2026-05-01T13:22:27.003Z</time></trkpt><trkpt lat="44.8323627813319" lon="9.092163106732155"><ele>417.0</ele><time>2026-05-01T13:22:28.003Z</time></trkpt><trkpt lat="44.83236760594578" lon="9.092349169884926"><ele>417.0</ele><time>2026-05-01T13:22:29.003Z</time></trkpt><trkpt lat="44.8323729078376" lon="9.09253178622073"><ele>417.0</ele><time>2026-05-01T13:22:30.003Z</time></trkpt><trkpt lat="44.832370677666184" lon="9.092716747318546"><ele>417.0</ele><time>2026-05-01T13:22:31.003Z</time></trkpt><trkpt lat="44.83237275252209" lon="9.092904155606988"><ele>417.0</ele><time>2026-05-01T13:22:32.003Z</time></trkpt><trkpt lat="44.83239968345698" lon="9.093078815942224"><ele>417.0</ele><time>2026-05-01T13:22:33.003Z</time></trkpt><trkpt lat="44.832423790810154" lon="9.093252498050623"><ele>417.0</ele><time>2026-05-01T13:22:34.003Z</time></trkpt><trkpt lat="44.83246288210261" lon="9.093418375901157"><ele>417.0</ele><time>2026-05-01T13:22:34.999Z</time></trkpt><trkpt lat="44.83250312598946" lon="9.093578226849138"><ele>415.6</ele><time>2026-05-01T13:22:35.999Z</time></trkpt><trkpt lat="44.83250997680172" lon="9.093726361338907"><ele>414.20000000000005</ele><time>2026-05-01T13:22:36.999Z</time></trkpt><trkpt lat="44.83250387794277" lon="9.093865149118388"><ele>412.8</ele><time>2026-05-01T13:22:37.999Z</time></trkpt><trkpt lat="44.83249862261132" lon="9.093998835896558"><ele>411.4</ele><time>2026-05-01T13:22:38.999Z</time></trkpt><trkpt lat="44.83246559142971" lon="9.094081625247773"><ele>410.0</ele><time>2026-05-01T13:22:39.999Z</time></trkpt><trkpt lat="44.832377656731154" lon="9.094156372179665"><ele>408.99999999999994</ele><time>2026-05-01T13:22:41.999Z</time></trkpt><trkpt lat="44.83230904813848" lon="9.09421017937369"><ele>408.0</ele><time>2026-05-01T13:22:42.999Z</time></trkpt><trkpt lat="44.83224880956041" lon="9.094279763605066"><ele>407.0</ele><time>2026-05-01T13:22:43.999Z</time></trkpt><trkpt lat="44.83221858333315" lon="9.094383434295768"><ele>406.0</ele><time>2026-05-01T13:22:44.999Z</time></trkpt><trkpt lat="44.832273511820546" lon="9.094499185260181"><ele>404.99999999999994</ele><time>2026-05-01T13:22:45.999Z</time></trkpt><trkpt lat="44.832328376537426" lon="9.094616011976752"><ele>404.0</ele><time>2026-05-01T13:22:46.999Z</time></trkpt><trkpt lat="44.83239774072143" lon="9.094731281715754"><ele>404.0</ele><time>2026-05-01T13:22:47.999Z</time></trkpt><trkpt lat="44.83244541827735" lon="9.094862097951191"><ele>404.0</ele><time>2026-05-01T13:22:48.999Z</time></trkpt><trkpt lat="44.83251320170257" lon="9.094924546822243"><ele>404.0</ele><time>2026-05-01T13:22:49.999Z</time></trkpt><trkpt lat="44.83263463957479" lon="9.094920719705344"><ele>404.0</ele><time>2026-05-01T13:22:52Z</time></trkpt><trkpt lat="44.832705913732525" lon="9.094866871858631"><ele>404.0</ele><time>2026-05-01T13:22:53Z</time></trkpt><trkpt lat="44.83279486511733" lon="9.094776710348329"><ele>400.0</ele><time>2026-05-01T13:22:54Z</time></trkpt><trkpt lat="44.83289645025449" lon="9.094683111457009"><ele>396.0</ele><time>2026-05-01T13:22:55Z</time></trkpt><trkpt lat="44.83298959691141" lon="9.094608272409841"><ele>392.0</ele><time>2026-05-01T13:22:56Z</time></trkpt><trkpt lat="44.83307034805085" lon="9.0945434970158"><ele>388.0</ele><time>2026-05-01T13:22:57Z</time></trkpt><trkpt lat="44.83314874338716" lon="9.094492361033316"><ele>384.0</ele><time>2026-05-01T13:22:58Z</time></trkpt><trkpt lat="44.83323453107977" lon="9.094477983596848"><ele>384.0</ele><time>2026-05-01T13:22:59Z</time></trkpt><trkpt lat="44.833334767360306" lon="9.094485332241625"><ele>384.0</ele><time>2026-05-01T13:23:00Z</time></trkpt><trkpt lat="44.833451383925926" lon="9.09451073566327"><ele>384.0</ele><time>2026-05-01T13:23:01Z</time></trkpt><trkpt lat="44.83357282200574" lon="9.094530314174706"><ele>384.0</ele><time>2026-05-01T13:23:02Z</time></trkpt><trkpt lat="44.833694874214444" lon="9.094545860323898"><ele>379.2</ele><time>2026-05-01T13:23:03Z</time></trkpt><trkpt lat="44.83381548879475" lon="9.094559219443125"><ele>374.4</ele><time>2026-05-01T13:23:04Z</time></trkpt><trkpt lat="44.83392304610503" lon="9.094571671202807"><ele>369.6</ele><time>2026-05-01T13:23:05Z</time></trkpt><trkpt lat="44.83400293589136" lon="9.094595263713808"><ele>364.8</ele><time>2026-05-01T13:23:06Z</time></trkpt><trkpt lat="44.8340657106575" lon="9.094648454543613"><ele>360.0</ele><time>2026-05-01T13:23:07Z</time></trkpt><trkpt lat="44.834104124842604" lon="9.09472622776941"><ele>360.0</ele><time>2026-05-01T13:23:08Z</time></trkpt><trkpt lat="44.834098173998086" lon="9.094832559949056"><ele>360.0</ele><time>2026-05-01T13:23:09Z</time></trkpt><trkpt lat="44.83408729993856" lon="9.094928290929273"><ele>360.0</ele><time>2026-05-01T13:23:10Z</time></trkpt><trkpt lat="44.83404589203392" lon="9.095012685581748"><ele>360.0</ele><time>2026-05-01T13:23:11Z</time></trkpt><trkpt lat="44.83398841920138" lon="9.095078113557587"><ele>360.0</ele><time>2026-05-01T13:23:12Z</time></trkpt><trkpt lat="44.83390611668845" lon="9.095132367701565"><ele>360.0</ele><time>2026-05-01T13:23:13.001Z</time></trkpt><trkpt lat="44.83381889728443" lon="9.095201392916058"><ele>360.8</ele><time>2026-05-01T13:23:14.001Z</time></trkpt><trkpt lat="44.83372761961986" lon="9.09526396834937"><ele>361.6</ele><time>2026-05-01T13:23:15.001Z</time></trkpt><trkpt lat="44.8336398754471" lon="9.095345548951622"><ele>362.4</ele><time>2026-05-01T13:23:16.001Z</time></trkpt><trkpt lat="44.833583142926585" lon="9.09546817716269"><ele>363.2</ele><time>2026-05-01T13:23:17.001Z</time></trkpt><trkpt lat="44.83350829377794" lon="9.095582158672782"><ele>364.0</ele><time>2026-05-01T13:23:18.001Z</time></trkpt><trkpt lat="44.83344835414524" lon="9.095712213459032"><ele>363.4</ele><time>2026-05-01T13:23:19.001Z</time></trkpt><trkpt lat="44.83340405425651" lon="9.095838615496405"><ele>362.79999999999995</ele><time>2026-05-01T13:23:20.001Z</time></trkpt><trkpt lat="44.833381485397176" lon="9.095958593640601"><ele>362.20000000000005</ele><time>2026-05-01T13:23:21.001Z</time></trkpt><trkpt lat="44.833402796526904" lon="9.096083723671436"><ele>361.6</ele><time>2026-05-01T13:23:22.001Z</time></trkpt><trkpt lat="44.83342640241737" lon="9.09620699373339"><ele>361.0</ele><time>2026-05-01T13:23:23.001Z</time></trkpt><trkpt lat="44.83344769386753" lon="9.096330796075572"><ele>361.0</ele><time>2026-05-01T13:23:24.001Z</time></trkpt><trkpt lat="44.83344503400381" lon="9.096451606779487"><ele>361.0</ele><time>2026-05-01T13:23:25.001Z</time></trkpt><trkpt lat="44.83338485720297" lon="9.096541280050355"><ele>361.0</ele><time>2026-05-01T13:23:26.001Z</time></trkpt><trkpt lat="44.83332372183255" lon="9.096604646218891"><ele>361.0</ele><time>2026-05-01T13:23:27.001Z</time></trkpt><trkpt lat="44.833249022672014" lon="9.096674538952485"><ele>361.0</ele><time>2026-05-01T13:23:28.001Z</time></trkpt><trkpt lat="44.833168325972736" lon="9.096747086560383"><ele>361.0</ele><time>2026-05-01T13:23:29.001Z</time></trkpt><trkpt lat="44.833072841364626" lon="9.096794425555736"><ele>359.0</ele><time>2026-05-01T13:23:30.001Z</time></trkpt><trkpt lat="44.83296612884071" lon="9.096825809793309"><ele>357.0</ele><time>2026-05-01T13:23:31.001Z</time></trkpt><trkpt lat="44.83284565051834" lon="9.096855154182352"><ele>355.0</ele><time>2026-05-01T13:23:32.001Z</time></trkpt><trkpt lat="44.83272390598101" lon="9.096884806918595"><ele>353.0</ele><time>2026-05-01T13:23:33.001Z</time></trkpt><trkpt lat="44.83261121432749" lon="9.096912302823513"><ele>353.0</ele><time>2026-05-01T13:23:34.001Z</time></trkpt><trkpt lat="44.83252046129764" lon="9.096940118554295"><ele>353.0</ele><time>2026-05-01T13:23:35.001Z</time></trkpt><trkpt lat="44.8324581191008" lon="9.096963843654885"><ele>353.0</ele><time>2026-05-01T13:23:36.001Z</time></trkpt><trkpt lat="44.83240792624093" lon="9.09702981564114"><ele>353.0</ele><time>2026-05-01T13:23:37.001Z</time></trkpt><trkpt lat="44.83239781336112" lon="9.097144315733544"><ele>353.0</ele><time>2026-05-01T13:23:38.001Z</time></trkpt><trkpt lat="44.83238729345773" lon="9.097248129649458"><ele>353.0</ele><time>2026-05-01T13:23:39.001Z</time></trkpt><trkpt lat="44.83235971774931" lon="9.097355403538872"><ele>349.79999999999995</ele><time>2026-05-01T13:23:40.001Z</time></trkpt><trkpt lat="44.83235144660555" lon="9.097451723162392"><ele>346.6</ele><time>2026-05-01T13:23:41.001Z</time></trkpt><trkpt lat="44.83235914930845" lon="9.097571332981016"><ele>343.4</ele><time>2026-05-01T13:23:43.002Z</time></trkpt><trkpt lat="44.83220839687645" lon="9.097548168541307"><ele>340.20000000000005</ele><time>2026-05-01T13:23:48.002Z</time></trkpt><trkpt lat="44.83213745910449" lon="9.097485337798483"><ele>337.0</ele><time>2026-05-01T13:23:49.002Z</time></trkpt><trkpt lat="44.832068680094906" lon="9.0974297034341"><ele>338.8333333333333</ele><time>2026-05-01T13:23:50.002Z</time></trkpt><trkpt lat="44.83199411815403" lon="9.097369810413761"><ele>340.66666666666663</ele><time>2026-05-01T13:23:51.002Z</time></trkpt><trkpt lat="44.83191611474382" lon="9.097290553925985"><ele>342.5</ele><time>2026-05-01T13:23:52.002Z</time></trkpt><trkpt lat="44.83183439590399" lon="9.09722123957438"><ele>344.3333333333333</ele><time>2026-05-01T13:23:53.002Z</time></trkpt><trkpt lat="44.831755127444254" lon="9.097164091463743"><ele>346.1666666666667</ele><time>2026-05-01T13:23:54.002Z</time></trkpt><trkpt lat="44.83168327551317" lon="9.097133859556012"><ele>348.0</ele><time>2026-05-01T13:23:55.002Z</time></trkpt><trkpt lat="44.83160690136875" lon="9.097127945342427"><ele>348.0</ele><time>2026-05-01T13:23:56.002Z</time></trkpt><trkpt lat="44.83153042782123" lon="9.097125504394405"><ele>348.0</ele><time>2026-05-01T13:23:57.002Z</time></trkpt><trkpt lat="44.83146482056826" lon="9.097135191603146"><ele>348.0</ele><time>2026-05-01T13:23:58.002Z</time></trkpt><trkpt lat="44.83137999146344" lon="9.097093067762252"><ele>348.0</ele><time>2026-05-01T13:24:00.002Z</time></trkpt><trkpt lat="44.831308485353354" lon="9.096941666000262"><ele>348.0</ele><time>2026-05-01T13:24:02.002Z</time></trkpt><trkpt lat="44.83125645907866" lon="9.096852231138943"><ele>348.0</ele><time>2026-05-01T13:24:03.002Z</time></trkpt><trkpt lat="44.83120280845913" lon="9.096777239231288"><ele>348.0</ele><time>2026-05-01T13:24:04.002Z</time></trkpt><trkpt lat="44.83113842642056" lon="9.096725355357338"><ele>348.0</ele><time>2026-05-01T13:24:05.002Z</time></trkpt><trkpt lat="44.831063130083386" lon="9.096729536280108"><ele>348.0</ele><time>2026-05-01T13:24:06.002Z</time></trkpt><trkpt lat="44.830989014754785" lon="9.096662847955233"><ele>348.0</ele><time>2026-05-01T13:24:07.002Z</time></trkpt><trkpt lat="44.830901737800176" lon="9.096624550752235"><ele>348.0</ele><time>2026-05-01T13:24:09.002Z</time></trkpt><trkpt lat="44.8308268076203" lon="9.096650702640245"><ele>348.0</ele><time>2026-05-01T13:24:11.002Z</time></trkpt><trkpt lat="44.83081983992727" lon="9.096766548287803"><ele>347.79999999999995</ele><time>2026-05-01T13:24:13.002Z</time></trkpt><trkpt lat="44.83086422653967" lon="9.096889917809367"><ele>347.6</ele><time>2026-05-01T13:24:15.003Z</time></trkpt><trkpt lat="44.83089699151225" lon="9.097100261149313"><ele>347.4</ele><time>2026-05-01T13:24:17.003Z</time></trkpt><trkpt lat="44.83092086408277" lon="9.097205141529464"><ele>347.20000000000005</ele><time>2026-05-01T13:24:18.003Z</time></trkpt><trkpt lat="44.830939327341625" lon="9.097311106270785"><ele>347.0</ele><time>2026-05-01T13:24:19.003Z</time></trkpt><trkpt lat="44.83099356756507" lon="9.097429543076414"><ele>347.0</ele><time>2026-05-01T13:24:20.003Z</time></trkpt><trkpt lat="44.83102262953319" lon="9.097593040335788"><ele>347.0</ele><time>2026-05-01T13:24:22.003Z</time></trkpt><trkpt lat="44.830970409340644" lon="9.09774918634659"><ele>347.0</ele><time>2026-05-01T13:24:24.003Z</time></trkpt><trkpt lat="44.83090170186384" lon="9.097915931252455"><ele>347.0</ele><time>2026-05-01T13:24:26.003Z</time></trkpt><trkpt lat="44.83085734897982" lon="9.098007906175885"><ele>351.33333333333337</ele><time>2026-05-01T13:24:27.003Z</time></trkpt><trkpt lat="44.830818009290425" lon="9.098110044081725"><ele>355.6666666666667</ele><time>2026-05-01T13:24:28.003Z</time></trkpt><trkpt lat="44.8308039885834" lon="9.098201990262403"><ele>360.0</ele><time>2026-05-01T13:24:29.003Z</time></trkpt><trkpt lat="44.83079713274753" lon="9.09829431123774"><ele>364.3333333333333</ele><time>2026-05-01T13:24:30.003Z</time></trkpt><trkpt lat="44.83083089635726" lon="9.098421820657048"><ele>368.66666666666663</ele><time>2026-05-01T13:24:31.003Z</time></trkpt><trkpt lat="44.83085684837333" lon="9.098553142880654"><ele>373.0</ele><time>2026-05-01T13:24:32.003Z</time></trkpt><trkpt lat="44.83084739960594" lon="9.098682389448834"><ele>373.0</ele><time>2026-05-01T13:24:34.003Z</time></trkpt><trkpt lat="44.8307622760875" lon="9.09868663889414"><ele>373.0</ele><time>2026-05-01T13:24:36.003Z</time></trkpt><trkpt lat="44.83066917658977" lon="9.098587831523181"><ele>373.0</ele><time>2026-05-01T13:24:38.003Z</time></trkpt><trkpt lat="44.83063548002765" lon="9.098499131729788"><ele>373.0</ele><time>2026-05-01T13:24:39.003Z</time></trkpt><trkpt lat="44.83059354937907" lon="9.098355909238395"><ele>373.0</ele><time>2026-05-01T13:24:40.003Z</time></trkpt><trkpt lat="44.83051304825863" lon="9.098208924478898"><ele>373.0</ele><time>2026-05-01T13:24:40.999Z</time></trkpt><trkpt lat="44.83045666276888" lon="9.098051791013122"><ele>373.0</ele><time>2026-05-01T13:24:41.999Z</time></trkpt><trkpt lat="44.83040659534138" lon="9.097915712245035"><ele>373.0</ele><time>2026-05-01T13:24:42.999Z</time></trkpt><trkpt lat="44.83034993450178" lon="9.0977985362829"><ele>373.0</ele><time>2026-05-01T13:24:43.999Z</time></trkpt><trkpt lat="44.830293840600945" lon="9.097687280618041"><ele>373.0</ele><time>2026-05-01T13:24:44.999Z</time></trkpt><trkpt lat="44.83024934986178" lon="9.097577117776387"><ele>373.0</ele><time>2026-05-01T13:24:45.999Z</time></trkpt><trkpt lat="44.830211211194246" lon="9.097482751784906"><ele>373.0</ele><time>2026-05-01T13:24:46.999Z</time></trkpt><trkpt lat="44.83011428802695" lon="9.097380617406055"><ele>373.0</ele><time>2026-05-01T13:24:48.999Z</time></trkpt><trkpt lat="44.83005276794059" lon="9.097338774418496"><ele>373.0</ele><time>2026-05-01T13:24:49.999Z</time></trkpt><trkpt lat="44.82999006357566" lon="9.097322142275386"><ele>373.0</ele><time>2026-05-01T13:24:50.999Z</time></trkpt><trkpt lat="44.82992422856071" lon="9.097334949789335"><ele>373.0</ele><time>2026-05-01T13:24:51.999Z</time></trkpt><trkpt lat="44.829826085210954" lon="9.097377191335202"><ele>376.5</ele><time>2026-05-01T13:24:53.999Z</time></trkpt><trkpt lat="44.82976920530348" lon="9.097465340710267"><ele>380.0</ele><time>2026-05-01T13:24:55.999Z</time></trkpt><trkpt lat="44.82976216003156" lon="9.0975646350364"><ele>383.5</ele><time>2026-05-01T13:24:57Z</time></trkpt><trkpt lat="44.82976931929573" lon="9.097665985012327"><ele>387.0</ele><time>2026-05-01T13:24:58Z</time></trkpt><trkpt lat="44.82977282312973" lon="9.097759390385354"><ele>390.50000000000006</ele><time>2026-05-01T13:24:59Z</time></trkpt><trkpt lat="44.82977457746421" lon="9.097880379275566"><ele>394.0</ele><time>2026-05-01T13:25:00Z</time></trkpt><trkpt lat="44.82976168189593" lon="9.09799104183357"><ele>394.00000000000006</ele><time>2026-05-01T13:25:01Z</time></trkpt><trkpt lat="44.82974454172503" lon="9.098096625640148"><ele>394.0</ele><time>2026-05-01T13:25:02Z</time></trkpt><trkpt lat="44.82971935420473" lon="9.098196947696126"><ele>394.0</ele><time>2026-05-01T13:25:03Z</time></trkpt><trkpt lat="44.82968382686971" lon="9.09830896859352"><ele>394.0</ele><time>2026-05-01T13:25:04Z</time></trkpt><trkpt lat="44.82965182901204" lon="9.098412807561896"><ele>394.00000000000006</ele><time>2026-05-01T13:25:05Z</time></trkpt><trkpt lat="44.82963184069369" lon="9.098522147515334"><ele>394.0</ele><time>2026-05-01T13:25:06Z</time></trkpt><trkpt lat="44.82961498308426" lon="9.098630870771329"><ele>395.00000000000006</ele><time>2026-05-01T13:25:07Z</time></trkpt><trkpt lat="44.829586967129075" lon="9.09874114766256"><ele>396.0</ele><time>2026-05-01T13:25:08Z</time></trkpt><trkpt lat="44.82957322942338" lon="9.098852994590057"><ele>397.0</ele><time>2026-05-01T13:25:09Z</time></trkpt><trkpt lat="44.82954789531188" lon="9.098972544301775"><ele>398.0</ele><time>2026-05-01T13:25:10Z</time></trkpt><trkpt lat="44.82953267959093" lon="9.099091934245315"><ele>399.00000000000006</ele><time>2026-05-01T13:25:11Z</time></trkpt><trkpt lat="44.829522131195574" lon="9.099187501350512"><ele>400.0</ele><time>2026-05-01T13:25:12Z</time></trkpt><trkpt lat="44.82949590421408" lon="9.099293125087375"><ele>400.1666666666667</ele><time>2026-05-01T13:25:13Z</time></trkpt><trkpt lat="44.82947535883186" lon="9.099403575269585"><ele>400.33333333333337</ele><time>2026-05-01T13:25:14Z</time></trkpt><trkpt lat="44.82945467506396" lon="9.099499151532775"><ele>400.5</ele><time>2026-05-01T13:25:15Z</time></trkpt><trkpt lat="44.82942157348198" lon="9.099654124658434"><ele>400.66666666666663</ele><time>2026-05-01T13:25:17.001Z</time></trkpt><trkpt lat="44.82938502643803" lon="9.099751249734465"><ele>400.8333333333333</ele><time>2026-05-01T13:25:18.001Z</time></trkpt><trkpt lat="44.829348582526464" lon="9.099836100008874"><ele>401.0</ele><time>2026-05-01T13:25:19.001Z</time></trkpt><trkpt lat="44.829304886061166" lon="9.09992110030087"><ele>405.8</ele><time>2026-05-01T13:25:20.001Z</time></trkpt><trkpt lat="44.82926929319659" lon="9.100014088046375"><ele>410.6</ele><time>2026-05-01T13:25:21.001Z</time></trkpt><trkpt lat="44.82921841352214" lon="9.100102002187429"><ele>415.4</ele><time>2026-05-01T13:25:22.001Z</time></trkpt><trkpt lat="44.82913348884921" lon="9.100165637744198"><ele>420.2</ele><time>2026-05-01T13:25:24.001Z</time></trkpt><trkpt lat="44.8290348436768" lon="9.100135184206438"><ele>425.0</ele><time>2026-05-01T13:25:26.001Z</time></trkpt><trkpt lat="44.828956150250924" lon="9.100015425849884"><ele>425.3333333333333</ele><time>2026-05-01T13:25:28.001Z</time></trkpt><trkpt lat="44.828926543596225" lon="9.099913529016181"><ele>425.66666666666663</ele><time>2026-05-01T13:25:29.001Z</time></trkpt><trkpt lat="44.828904448936946" lon="9.099816555904088"><ele>426.0</ele><time>2026-05-01T13:25:30.001Z</time></trkpt><trkpt lat="44.828881185776424" lon="9.099700894070285"><ele>426.33333333333337</ele><time>2026-05-01T13:25:31.001Z</time></trkpt><trkpt lat="44.828867179303494" lon="9.09959809264811"><ele>426.6666666666667</ele><time>2026-05-01T13:25:32.001Z</time></trkpt><trkpt lat="44.82883683223878" lon="9.099491293892187"><ele>427.0</ele><time>2026-05-01T13:25:33.001Z</time></trkpt><trkpt lat="44.82878578235495" lon="9.099416205211643"><ele>427.00000000000006</ele><time>2026-05-01T13:25:34.001Z</time></trkpt><trkpt lat="44.82873083355262" lon="9.099349208781316"><ele>427.0</ele><time>2026-05-01T13:25:35.001Z</time></trkpt><trkpt lat="44.82867437728696" lon="9.09927245593575"><ele>427.0</ele><time>2026-05-01T13:25:36.001Z</time></trkpt><trkpt lat="44.82862032488259" lon="9.099194532329749"><ele>427.0</ele><time>2026-05-01T13:25:37.001Z</time></trkpt><trkpt lat="44.82856461300736" lon="9.09913094571953"><ele>427.00000000000006</ele><time>2026-05-01T13:25:38.001Z</time></trkpt><trkpt lat="44.82850666871965" lon="9.099065332058432"><ele>427.0</ele><time>2026-05-01T13:25:39.001Z</time></trkpt><trkpt lat="44.8284535811483" lon="9.098976679441215"><ele>430.0</ele><time>2026-05-01T13:25:40.001Z</time></trkpt><trkpt lat="44.828413811381076" lon="9.098881752741628"><ele>433.00000000000006</ele><time>2026-05-01T13:25:41.001Z</time></trkpt><trkpt lat="44.82837601652694" lon="9.098782587570254"><ele>436.00000000000006</ele><time>2026-05-01T13:25:42.001Z</time></trkpt><trkpt lat="44.82826603859126" lon="9.098616381050764"><ele>439.0</ele><time>2026-05-01T13:25:44.001Z</time></trkpt><trkpt lat="44.828208888216" lon="9.09854416687934"><ele>442.0</ele><time>2026-05-01T13:25:45.002Z</time></trkpt><trkpt lat="44.82814577657619" lon="9.098479180114378"><ele>442.00000000000006</ele><time>2026-05-01T13:25:46.002Z</time></trkpt><trkpt lat="44.828070135964495" lon="9.098399641085456"><ele>442.0</ele><time>2026-05-01T13:25:47.002Z</time></trkpt><trkpt lat="44.82799452131424" lon="9.09835113305985"><ele>442.0</ele><time>2026-05-01T13:25:48.002Z</time></trkpt><trkpt lat="44.82793004258252" lon="9.098315094144896"><ele>442.0</ele><time>2026-05-01T13:25:49.002Z</time></trkpt><trkpt lat="44.8278551995603" lon="9.098246738559954"><ele>442.00000000000006</ele><time>2026-05-01T13:25:50.002Z</time></trkpt><trkpt lat="44.82776669094839" lon="9.098197644034796"><ele>442.0</ele><time>2026-05-01T13:25:51.002Z</time></trkpt><trkpt lat="44.82769770550116" lon="9.098099798058586"><ele>440.0</ele><time>2026-05-01T13:25:52.002Z</time></trkpt><trkpt lat="44.82764724077992" lon="9.09800708168708"><ele>438.00000000000006</ele><time>2026-05-01T13:25:53.002Z</time></trkpt><trkpt lat="44.82758946887917" lon="9.097921442726939"><ele>436.00000000000006</ele><time>2026-05-01T13:25:54.002Z</time></trkpt><trkpt lat="44.82751996301309" lon="9.097833103947963"><ele>434.0</ele><time>2026-05-01T13:25:55.002Z</time></trkpt><trkpt lat="44.82744539355116" lon="9.097739126448817"><ele>432.0</ele><time>2026-05-01T13:25:56.002Z</time></trkpt><trkpt lat="44.82737323416168" lon="9.097646944133874"><ele>435.0</ele><time>2026-05-01T13:25:57.002Z</time></trkpt><trkpt lat="44.82727107041743" lon="9.097569627817462"><ele>438.00000000000006</ele><time>2026-05-01T13:25:58.002Z</time></trkpt><trkpt lat="44.827199120045805" lon="9.09748860661223"><ele>441.00000000000006</ele><time>2026-05-01T13:25:59.002Z</time></trkpt><trkpt lat="44.82712850123399" lon="9.097419497802921"><ele>444.0</ele><time>2026-05-01T13:26:00.002Z</time></trkpt><trkpt lat="44.82700839633119" lon="9.097356275685243"><ele>447.0</ele><time>2026-05-01T13:26:02.002Z</time></trkpt><trkpt lat="44.826921581139345" lon="9.097289577614923"><ele>447.0</ele><time>2026-05-01T13:26:03.002Z</time></trkpt><trkpt lat="44.82686819506597" lon="9.097208687024517"><ele>447.0</ele><time>2026-05-01T13:26:04.002Z</time></trkpt><trkpt lat="44.82683701167688" lon="9.097101794769218"><ele>447.0</ele><time>2026-05-01T13:26:05.002Z</time></trkpt><trkpt lat="44.826801504532995" lon="9.097024981170737"><ele>447.0</ele><time>2026-05-01T13:26:06.002Z</time></trkpt><trkpt lat="44.826728494630565" lon="9.09693557448978"><ele>447.0</ele><time>2026-05-01T13:26:07.002Z</time></trkpt><trkpt lat="44.8266724057585" lon="9.096846402733"><ele>447.0</ele><time>2026-05-01T13:26:08.002Z</time></trkpt><trkpt lat="44.82661565837256" lon="9.09675811082952"><ele>450.8</ele><time>2026-05-01T13:26:09.002Z</time></trkpt><trkpt lat="44.826544906665234" lon="9.096664587570142"><ele>454.6</ele><time>2026-05-01T13:26:10.002Z</time></trkpt><trkpt lat="44.826470571516595" lon="9.09657313651025"><ele>458.40000000000003</ele><time>2026-05-01T13:26:11.002Z</time></trkpt><trkpt lat="44.82640291267689" lon="9.096465721172015"><ele>462.20000000000005</ele><time>2026-05-01T13:26:12.002Z</time></trkpt><trkpt lat="44.8263360616672" lon="9.096338575342148"><ele>466.0</ele><time>2026-05-01T13:26:13.002Z</time></trkpt><trkpt lat="44.826272803611" lon="9.096226329099183"><ele>466.00000000000006</ele><time>2026-05-01T13:26:14.002Z</time></trkpt><trkpt lat="44.82621746562639" lon="9.09613142880279"><ele>466.0</ele><time>2026-05-01T13:26:15.002Z</time></trkpt><trkpt lat="44.826161192333274" lon="9.096036437284862"><ele>466.0</ele><time>2026-05-01T13:26:16.002Z</time></trkpt><trkpt lat="44.82610373422218" lon="9.095953850704086"><ele>466.0</ele><time>2026-05-01T13:26:17.002Z</time></trkpt><trkpt lat="44.82610829449737" lon="9.0958457285963"><ele>466.00000000000006</ele><time>2026-05-01T13:26:18.003Z</time></trkpt><trkpt lat="44.82607863190777" lon="9.095736415425131"><ele>466.0</ele><time>2026-05-01T13:26:19.003Z</time></trkpt><trkpt lat="44.82602507702701" lon="9.095628614782404"><ele>465.33333333333337</ele><time>2026-05-01T13:26:20.003Z</time></trkpt><trkpt lat="44.82600124221736" lon="9.095534378096904"><ele>464.6666666666667</ele><time>2026-05-01T13:26:21.003Z</time></trkpt><trkpt lat="44.82597200892434" lon="9.095423853108654"><ele>464.0</ele><time>2026-05-01T13:26:22.003Z</time></trkpt><trkpt lat="44.82595625608272" lon="9.09529220331235"><ele>463.33333333333337</ele><time>2026-05-01T13:26:23.003Z</time></trkpt><trkpt lat="44.82593065239942" lon="9.095202489756149"><ele>462.6666666666667</ele><time>2026-05-01T13:26:24.003Z</time></trkpt><trkpt lat="44.825906124396795" lon="9.095116284644451"><ele>462.0</ele><time>2026-05-01T13:26:25.003Z</time></trkpt><trkpt lat="44.825866088547606" lon="9.095023839103819"><ele>465.0</ele><time>2026-05-01T13:26:26.003Z</time></trkpt><trkpt lat="44.82582369180694" lon="9.09493588533224"><ele>468.00000000000006</ele><time>2026-05-01T13:26:27.003Z</time></trkpt><trkpt lat="44.82573996436192" lon="9.094851219084898"><ele>471.00000000000006</ele><time>2026-05-01T13:26:28.003Z</time></trkpt><trkpt lat="44.82566206227667" lon="9.094751168297462"><ele>474.0</ele><time>2026-05-01T13:26:29.003Z</time></trkpt><trkpt lat="44.82559502246405" lon="9.094648664368234"><ele>477.0</ele><time>2026-05-01T13:26:30.003Z</time></trkpt><trkpt lat="44.8255389289584" lon="9.094548812742088"><ele>477.0</ele><time>2026-05-01T13:26:31.003Z</time></trkpt><trkpt lat="44.82549028032705" lon="9.094429063702398"><ele>477.00000000000006</ele><time>2026-05-01T13:26:32.003Z</time></trkpt><trkpt lat="44.82543863415581" lon="9.094309558681685"><ele>477.00000000000006</ele><time>2026-05-01T13:26:33.003Z</time></trkpt><trkpt lat="44.825388297308955" lon="9.094196878431038"><ele>477.0</ele><time>2026-05-01T13:26:34.003Z</time></trkpt><trkpt lat="44.825328061288786" lon="9.094100674386791"><ele>477.0</ele><time>2026-05-01T13:26:35.003Z</time></trkpt><trkpt lat="44.82525827132814" lon="9.093979001539717"><ele>475.40000000000003</ele><time>2026-05-01T13:26:36.003Z</time></trkpt><trkpt lat="44.8251896324167" lon="9.093879098627669"><ele>473.80000000000007</ele><time>2026-05-01T13:26:37.003Z</time></trkpt><trkpt lat="44.82511996668611" lon="9.093797390622775"><ele>472.2</ele><time>2026-05-01T13:26:38.003Z</time></trkpt><trkpt lat="44.82505204414675" lon="9.093728742664883"><ele>470.6</ele><time>2026-05-01T13:26:39.003Z</time></trkpt><trkpt lat="44.82495545066436" lon="9.093573332131077"><ele>469.0</ele><time>2026-05-01T13:26:41.003Z</time></trkpt><trkpt lat="44.824892060338705" lon="9.093496793406816"><ele>471.6666666666667</ele><time>2026-05-01T13:26:42.003Z</time></trkpt><trkpt lat="44.82485406633217" lon="9.093411667837193"><ele>474.33333333333337</ele><time>2026-05-01T13:26:43.003Z</time></trkpt><trkpt lat="44.82480702736538" lon="9.093331723138945"><ele>477.0</ele><time>2026-05-01T13:26:44.003Z</time></trkpt><trkpt lat="44.82469511315917" lon="9.093219031519036"><ele>479.66666666666663</ele><time>2026-05-01T13:26:46.003Z</time></trkpt><trkpt lat="44.824625987072736" lon="9.093141245226741"><ele>482.3333333333333</ele><time>2026-05-01T13:26:47.999Z</time></trkpt><trkpt lat="44.82456273299151" lon="9.093182338749637"><ele>485.0</ele><time>2026-05-01T13:26:49.999Z</time></trkpt><trkpt lat="44.824559307620724" lon="9.093312616450639"><ele>486.49999999999994</ele><time>2026-05-01T13:26:51.999Z</time></trkpt><trkpt lat="44.82455867609452" lon="9.093403009665977"><ele>488.0</ele><time>2026-05-01T13:26:52.999Z</time></trkpt><trkpt lat="44.82458165366326" lon="9.093503084521068"><ele>489.5</ele><time>2026-05-01T13:26:53.999Z</time></trkpt><trkpt lat="44.8246020903215" lon="9.093648088593273"><ele>491.0</ele><time>2026-05-01T13:26:54.999Z</time></trkpt><trkpt lat="44.82461278630041" lon="9.093784509681223"><ele>492.49999999999994</ele><time>2026-05-01T13:26:55.999Z</time></trkpt><trkpt lat="44.82461348094546" lon="9.093907817972871"><ele>494.0</ele><time>2026-05-01T13:26:56.999Z</time></trkpt><trkpt lat="44.82458053633059" lon="9.09406056795312"><ele>495.4</ele><time>2026-05-01T13:26:57.999Z</time></trkpt><trkpt lat="44.8245599966" lon="9.09419266632606"><ele>496.79999999999995</ele><time>2026-05-01T13:26:58.999Z</time></trkpt><trkpt lat="44.82451344562513" lon="9.094321632630722"><ele>498.20000000000005</ele><time>2026-05-01T13:26:59.999Z</time></trkpt><trkpt lat="44.824509227567816" lon="9.094485437866076"><ele>499.6</ele><time>2026-05-01T13:27:00.999Z</time></trkpt><trkpt lat="44.824466038402974" lon="9.094609281775128"><ele>501.0</ele><time>2026-05-01T13:27:01.999Z</time></trkpt><trkpt lat="44.824448766274415" lon="9.094745407052978"><ele>501.0</ele><time>2026-05-01T13:27:03Z</time></trkpt><trkpt lat="44.8244371190524" lon="9.09486698951319"><ele>501.0</ele><time>2026-05-01T13:27:04Z</time></trkpt><trkpt lat="44.82443682075034" lon="9.09498509462951"><ele>501.0</ele><time>2026-05-01T13:27:05Z</time></trkpt><trkpt lat="44.82443797556964" lon="9.095106593859748"><ele>501.0</ele><time>2026-05-01T13:27:06Z</time></trkpt><trkpt lat="44.824428053893776" lon="9.095210707466572"><ele>501.0</ele><time>2026-05-01T13:27:07Z</time></trkpt><trkpt lat="44.824427442491206" lon="9.09532663387691"><ele>501.0</ele><time>2026-05-01T13:27:08Z</time></trkpt><trkpt lat="44.82442667616523" lon="9.095528819021938"><ele>502.0</ele><time>2026-05-01T13:27:10Z</time></trkpt><trkpt lat="44.82442748536903" lon="9.09562762231579"><ele>503.0</ele><time>2026-05-01T13:27:11Z</time></trkpt><trkpt lat="44.82441050141255" lon="9.095721894873767"><ele>504.0</ele><time>2026-05-01T13:27:12Z</time></trkpt><trkpt lat="44.8243922394755" lon="9.095882248738288"><ele>505.0</ele><time>2026-05-01T13:27:13Z</time></trkpt><trkpt lat="44.82436781186783" lon="9.095997172754748"><ele>506.0</ele><time>2026-05-01T13:27:14Z</time></trkpt><trkpt lat="44.82434206886071" lon="9.096101765999004"><ele>507.0</ele><time>2026-05-01T13:27:15Z</time></trkpt><trkpt lat="44.82432609230758" lon="9.096202122587641"><ele>508.40000000000003</ele><time>2026-05-01T13:27:16Z</time></trkpt><trkpt lat="44.824328925498676" lon="9.096301775600839"><ele>509.80000000000007</ele><time>2026-05-01T13:27:17Z</time></trkpt><trkpt lat="44.82430632996392" lon="9.096456760976976"><ele>511.2</ele><time>2026-05-01T13:27:19Z</time></trkpt><trkpt lat="44.824331406676734" lon="9.096577350654835"><ele>512.6</ele><time>2026-05-01T13:27:21Z</time></trkpt><trkpt lat="44.8243300592346" lon="9.096714904535611"><ele>514.0</ele><time>2026-05-01T13:27:23Z</time></trkpt><trkpt lat="44.82434757493585" lon="9.0968295359523"><ele>515.0</ele><time>2026-05-01T13:27:25.001Z</time></trkpt><trkpt lat="44.82439353970576" lon="9.096905032860619"><ele>516.0</ele><time>2026-05-01T13:27:27.001Z</time></trkpt><trkpt lat="44.82448499967162" lon="9.096953615713005"><ele>517.0</ele><time>2026-05-01T13:27:29.001Z</time></trkpt><trkpt lat="44.82459389017131" lon="9.097029550871591"><ele>518.0</ele><time>2026-05-01T13:27:31.001Z</time></trkpt><trkpt lat="44.824658445740894" lon="9.097084640265896"><ele>519.0</ele><time>2026-05-01T13:27:32.001Z</time></trkpt><trkpt lat="44.8247226169797" lon="9.097131204972374"><ele>520.0</ele><time>2026-05-01T13:27:33.001Z</time></trkpt><trkpt lat="44.824796652783796" lon="9.097170945018425"><ele>520.0</ele><time>2026-05-01T13:27:34.001Z</time></trkpt><trkpt lat="44.82488063599968" lon="9.097237873976674"><ele>520.0</ele><time>2026-05-01T13:27:36.001Z</time></trkpt><trkpt lat="44.824969043339834" lon="9.097338868393868"><ele>520.0</ele><time>2026-05-01T13:27:38.001Z</time></trkpt><trkpt lat="44.825056494435316" lon="9.097450074364286"><ele>520.0</ele><time>2026-05-01T13:27:40.001Z</time></trkpt><trkpt lat="44.825146211062794" lon="9.097582299763603"><ele>517.4285714285714</ele><time>2026-05-01T13:27:42.001Z</time></trkpt><trkpt lat="44.82519015198367" lon="9.09765227553934"><ele>514.8571428571429</ele><time>2026-05-01T13:27:43.001Z</time></trkpt><trkpt lat="44.82521850916917" lon="9.097754711962992"><ele>512.2857142857142</ele><time>2026-05-01T13:27:44.001Z</time></trkpt><trkpt lat="44.825256280774184" lon="9.097856454297506"><ele>509.7142857142857</ele><time>2026-05-01T13:27:45.001Z</time></trkpt><trkpt lat="44.8252883448585" lon="9.097945977161288"><ele>507.1428571428571</ele><time>2026-05-01T13:27:46.001Z</time></trkpt><trkpt lat="44.82531704575863" lon="9.098040089196177"><ele>504.5714285714285</ele><time>2026-05-01T13:27:47.001Z</time></trkpt><trkpt lat="44.82535036246654" lon="9.098134588682274"><ele>501.99999999999994</ele><time>2026-05-01T13:27:48.001Z</time></trkpt><trkpt lat="44.8253918938476" lon="9.09821547769288"><ele>503.83333333333337</ele><time>2026-05-01T13:27:49.001Z</time></trkpt><trkpt lat="44.82543842799937" lon="9.098292214732982"><ele>505.6666666666667</ele><time>2026-05-01T13:27:50.001Z</time></trkpt><trkpt lat="44.82547138081885" lon="9.098480784179872"><ele>507.5</ele><time>2026-05-01T13:27:52.001Z</time></trkpt><trkpt lat="44.82549259384059" lon="9.098594727299377"><ele>509.33333333333337</ele><time>2026-05-01T13:27:53.001Z</time></trkpt><trkpt lat="44.82551057718211" lon="9.098695386023582"><ele>511.1666666666667</ele><time>2026-05-01T13:27:54.001Z</time></trkpt><trkpt lat="44.8255309081011" lon="9.098807153856317"><ele>513.0</ele><time>2026-05-01T13:27:55.002Z</time></trkpt><trkpt lat="44.82554591077441" lon="9.09892201314241"><ele>513.0</ele><time>2026-05-01T13:27:56.002Z</time></trkpt><trkpt lat="44.825553196088165" lon="9.09903595345358"><ele>513.0</ele><time>2026-05-01T13:27:57.002Z</time></trkpt><trkpt lat="44.82557342789228" lon="9.099138414354435"><ele>513.0</ele><time>2026-05-01T13:27:58.002Z</time></trkpt><trkpt lat="44.82558614168752" lon="9.09923478720118"><ele>513.0</ele><time>2026-05-01T13:27:59.002Z</time></trkpt><trkpt lat="44.82562354447191" lon="9.099389932667542"><ele>513.0</ele><time>2026-05-01T13:28:01.002Z</time></trkpt><trkpt lat="44.82565118063695" lon="9.099472431884683"><ele>513.0</ele><time>2026-05-01T13:28:02.002Z</time></trkpt><trkpt lat="44.82563534536005" lon="9.099616726241972"><ele>513.1999999999999</ele><time>2026-05-01T13:28:04.002Z</time></trkpt><trkpt lat="44.825674430237925" lon="9.099744240474948"><ele>513.4</ele><time>2026-05-01T13:28:05.002Z</time></trkpt><trkpt lat="44.825707063312564" lon="9.09984783606292"><ele>513.5999999999999</ele><time>2026-05-01T13:28:06.002Z</time></trkpt><trkpt lat="44.82577202293271" lon="9.100005735872545"><ele>513.8</ele><time>2026-05-01T13:28:08.002Z</time></trkpt><trkpt lat="44.82582998280025" lon="9.100150565762023"><ele>514.0</ele><time>2026-05-01T13:28:10.002Z</time></trkpt><trkpt lat="44.82586897159234" lon="9.10023468300565"><ele>514.3333333333334</ele><time>2026-05-01T13:28:11.002Z</time></trkpt><trkpt lat="44.82589935753569" lon="9.100346482334722"><ele>514.6666666666667</ele><time>2026-05-01T13:28:12.002Z</time></trkpt><trkpt lat="44.82594015813459" lon="9.100435198484414"><ele>515.0</ele><time>2026-05-01T13:28:13.002Z</time></trkpt><trkpt lat="44.825970922023345" lon="9.100536805918257"><ele>515.3333333333334</ele><time>2026-05-01T13:28:14.002Z</time></trkpt><trkpt lat="44.82600475033985" lon="9.1006286565244"><ele>515.6666666666666</ele><time>2026-05-01T13:28:15.002Z</time></trkpt><trkpt lat="44.82603911720496" lon="9.100734268329319"><ele>516.0</ele><time>2026-05-01T13:28:16.002Z</time></trkpt><trkpt lat="44.82608381495515" lon="9.100858207678009"><ele>512.0</ele><time>2026-05-01T13:28:17.002Z</time></trkpt><trkpt lat="44.826113387798806" lon="9.100972005770908"><ele>508.0</ele><time>2026-05-01T13:28:18.002Z</time></trkpt><trkpt lat="44.826169526632334" lon="9.101121416790765"><ele>504.0</ele><time>2026-05-01T13:28:20.002Z</time></trkpt><trkpt lat="44.8262231138105" lon="9.10120020044643"><ele>500.0</ele><time>2026-05-01T13:28:21.002Z</time></trkpt><trkpt lat="44.82626496315268" lon="9.10129524401996"><ele>496.0</ele><time>2026-05-01T13:28:22.002Z</time></trkpt><trkpt lat="44.826308974014054" lon="9.101380558715245"><ele>492.0</ele><time>2026-05-01T13:28:23.002Z</time></trkpt><trkpt lat="44.82635274274369" lon="9.101459469403107"><ele>492.0</ele><time>2026-05-01T13:28:24.002Z</time></trkpt><trkpt lat="44.82641147040739" lon="9.101557217620494"><ele>492.0</ele><time>2026-05-01T13:28:26.002Z</time></trkpt><trkpt lat="44.82645951429557" lon="9.101644413781113"><ele>492.0</ele><time>2026-05-01T13:28:28.003Z</time></trkpt><trkpt lat="44.826505143451264" lon="9.101742636023308"><ele>492.0</ele><time>2026-05-01T13:28:30.003Z</time></trkpt><trkpt lat="44.826543553077826" lon="9.101857544630152"><ele>492.0</ele><time>2026-05-01T13:28:32.003Z</time></trkpt><trkpt lat="44.826590894912115" lon="9.101985917713046"><ele>492.0</ele><time>2026-05-01T13:28:34.003Z</time></trkpt><trkpt lat="44.826636593894634" lon="9.10213210724508"><ele>491.8</ele><time>2026-05-01T13:28:36.003Z</time></trkpt><trkpt lat="44.8266913686358" lon="9.102267730089578"><ele>491.6</ele><time>2026-05-01T13:28:38.003Z</time></trkpt><trkpt lat="44.826711083809634" lon="9.102352532077038"><ele>491.40000000000003</ele><time>2026-05-01T13:28:39.003Z</time></trkpt><trkpt lat="44.82672449175594" lon="9.10252716688319"><ele>491.20000000000005</ele><time>2026-05-01T13:28:41.003Z</time></trkpt><trkpt lat="44.826717424213136" lon="9.102617641747802"><ele>491.0</ele><time>2026-05-01T13:28:42.003Z</time></trkpt><trkpt lat="44.82671826311598" lon="9.102766174718834"><ele>490.4</ele><time>2026-05-01T13:28:44.003Z</time></trkpt><trkpt lat="44.82675671532561" lon="9.102920090405753"><ele>489.8</ele><time>2026-05-01T13:28:46.003Z</time></trkpt><trkpt lat="44.826812659386896" lon="9.103048547419831"><ele>489.19999999999993</ele><time>2026-05-01T13:28:48.003Z</time></trkpt><trkpt lat="44.82688706948626" lon="9.103163715020091"><ele>488.59999999999997</ele><time>2026-05-01T13:28:50.003Z</time></trkpt><trkpt lat="44.82695387330482" lon="9.103289781151057"><ele>488.0</ele><time>2026-05-01T13:28:52.003Z</time></trkpt><trkpt lat="44.82701456759528" lon="9.103377878033694"><ele>483.4</ele><time>2026-05-01T13:28:53.998Z</time></trkpt><trkpt lat="44.827072741786225" lon="9.103488945316723"><ele>478.79999999999995</ele><time>2026-05-01T13:28:55.998Z</time></trkpt><trkpt lat="44.82711096618481" lon="9.103562621935998"><ele>474.2</ele><time>2026-05-01T13:28:56.999Z</time></trkpt><trkpt lat="44.82717430007699" lon="9.103688005752906"><ele>469.6</ele><time>2026-05-01T13:28:58.999Z</time></trkpt><trkpt lat="44.82725319884717" lon="9.103803786009786"><ele>465.0</ele><time>2026-05-01T13:29:00.999Z</time></trkpt><trkpt lat="44.827317719416186" lon="9.10391831647021"><ele>465.0</ele><time>2026-05-01T13:29:02.999Z</time></trkpt><trkpt lat="44.82735350565852" lon="9.103997295003111"><ele>465.0</ele><time>2026-05-01T13:29:03.999Z</time></trkpt><trkpt lat="44.8274049322094" lon="9.104148595996737"><ele>465.0</ele><time>2026-05-01T13:29:05.999Z</time></trkpt><trkpt lat="44.8274449880541" lon="9.10428376252769"><ele>465.0</ele><time>2026-05-01T13:29:07.999Z</time></trkpt><trkpt lat="44.827478091965496" lon="9.104444857453867"><ele>465.0</ele><time>2026-05-01T13:29:09.999Z</time></trkpt><trkpt lat="44.827513883294394" lon="9.10460447394203"><ele>465.2</ele><time>2026-05-01T13:29:12Z</time></trkpt><trkpt lat="44.8275333318887" lon="9.104782444780026"><ele>465.4</ele><time>2026-05-01T13:29:14Z</time></trkpt><trkpt lat="44.827539579325645" lon="9.104889334152126"><ele>465.6</ele><time>2026-05-01T13:29:15Z</time></trkpt><trkpt lat="44.82754355365503" lon="9.104997813419505"><ele>465.8</ele><time>2026-05-01T13:29:16Z</time></trkpt><trkpt lat="44.82752778881237" lon="9.105161115653209"><ele>466.0</ele><time>2026-05-01T13:29:18Z</time></trkpt><trkpt lat="44.82748745408149" lon="9.10527259650012"><ele>465.33333333333337</ele><time>2026-05-01T13:29:20Z</time></trkpt><trkpt lat="44.82744864739721" lon="9.105380088788152"><ele>464.6666666666667</ele><time>2026-05-01T13:29:22Z</time></trkpt><trkpt lat="44.82743261965018" lon="9.105503983172158"><ele>464.0</ele><time>2026-05-01T13:29:24Z</time></trkpt><trkpt lat="44.82742043306983" lon="9.105600642172737"><ele>463.33333333333337</ele><time>2026-05-01T13:29:26Z</time></trkpt><trkpt lat="44.82738651885141" lon="9.105692526811454"><ele>462.6666666666667</ele><time>2026-05-01T13:29:28Z</time></trkpt><trkpt lat="44.82730904011327" lon="9.105808120841843"><ele>462.0</ele><time>2026-05-01T13:29:30.001Z</time></trkpt><trkpt lat="44.82726075908735" lon="9.105872332358382"><ele>460.5</ele><time>2026-05-01T13:29:31.001Z</time></trkpt><trkpt lat="44.82720208836012" lon="9.105919268156631"><ele>459.0</ele><time>2026-05-01T13:29:32.001Z</time></trkpt><trkpt lat="44.82712882471002" lon="9.105959330532544"><ele>457.5</ele><time>2026-05-01T13:29:33.001Z</time></trkpt><trkpt lat="44.82705321101908" lon="9.105997786440339"><ele>456.0</ele><time>2026-05-01T13:29:34.001Z</time></trkpt><trkpt lat="44.82697662769302" lon="9.106030493960297"><ele>454.5</ele><time>2026-05-01T13:29:35.001Z</time></trkpt><trkpt lat="44.826873378951326" lon="9.106080341904974"><ele>453.0</ele><time>2026-05-01T13:29:37.001Z</time></trkpt><trkpt lat="44.826785683607405" lon="9.106135035898129"><ele>457.0</ele><time>2026-05-01T13:29:39.001Z</time></trkpt><trkpt lat="44.8266741067434" lon="9.106206794348267"><ele>460.99999999999994</ele><time>2026-05-01T13:29:41.001Z</time></trkpt><trkpt lat="44.82655957357687" lon="9.106228368916424"><ele>464.99999999999994</ele><time>2026-05-01T13:29:43.001Z</time></trkpt><trkpt lat="44.82649582568157" lon="9.106236858180031"><ele>469.0</ele><time>2026-05-01T13:29:44.001Z</time></trkpt><trkpt lat="44.82639730120766" lon="9.106143399840231"><ele>473.0</ele><time>2026-05-01T13:29:46.001Z</time></trkpt><trkpt lat="44.82627009047038" lon="9.106111577525521"><ele>473.0</ele><time>2026-05-01T13:29:48.001Z</time></trkpt><trkpt lat="44.82614392586038" lon="9.106066611263586"><ele>472.99999999999994</ele><time>2026-05-01T13:29:50.001Z</time></trkpt><trkpt lat="44.82607784640754" lon="9.1060417010799"><ele>472.99999999999994</ele><time>2026-05-01T13:29:51.001Z</time></trkpt><trkpt lat="44.82596157489408" lon="9.105995222949524"><ele>473.0</ele><time>2026-05-01T13:29:53.001Z</time></trkpt><trkpt lat="44.82590459481308" lon="9.1059540336614"><ele>473.0</ele><time>2026-05-01T13:29:54.001Z</time></trkpt><trkpt lat="44.825838688610595" lon="9.105946430738408"><ele>475.7142857142857</ele><time>2026-05-01T13:29:55.001Z</time></trkpt><trkpt lat="44.82577723149434" lon="9.105908398757544"><ele>478.42857142857144</ele><time>2026-05-01T13:29:56.002Z</time></trkpt><trkpt lat="44.825706742832665" lon="9.105907243421008"><ele>481.14285714285717</ele><time>2026-05-01T13:29:57.002Z</time></trkpt><trkpt lat="44.82564263880829" lon="9.105877656027317"><ele>483.8571428571429</ele><time>2026-05-01T13:29:58.002Z</time></trkpt><trkpt lat="44.825577957758696" lon="9.105875443249932"><ele>486.57142857142856</ele><time>2026-05-01T13:29:59.002Z</time></trkpt><trkpt lat="44.82550598470774" lon="9.105873920053723"><ele>489.28571428571433</ele><time>2026-05-01T13:30:00.002Z</time></trkpt><trkpt lat="44.82543159328709" lon="9.10586499599727"><ele>492.00000000000006</ele><time>2026-05-01T13:30:01.002Z</time></trkpt><trkpt lat="44.82536810428156" lon="9.105903480190102"><ele>492.0</ele><time>2026-05-01T13:30:02.002Z</time></trkpt><trkpt lat="44.82529911969263" lon="9.105901270652932"><ele>492.0</ele><time>2026-05-01T13:30:03.002Z</time></trkpt><trkpt lat="44.82522701510616" lon="9.105909568253324"><ele>492.0</ele><time>2026-05-01T13:30:04.002Z</time></trkpt><trkpt lat="44.82515881250133" lon="9.105911737948432"><ele>492.0</ele><time>2026-05-01T13:30:05.002Z</time></trkpt><trkpt lat="44.82509536914814" lon="9.105904471239157"><ele>492.0</ele><time>2026-05-01T13:30:06.002Z</time></trkpt><trkpt lat="44.82495798980567" lon="9.10589085571528"><ele>492.0</ele><time>2026-05-01T13:30:08.002Z</time></trkpt><trkpt lat="44.8248851035252" lon="9.105867707609336"><ele>493.0</ele><time>2026-05-01T13:30:09.002Z</time></trkpt><trkpt lat="44.82478903047068" lon="9.105809349768062"><ele>494.00000000000006</ele><time>2026-05-01T13:30:11.002Z</time></trkpt><trkpt lat="44.82467090787662" lon="9.105754070318522"><ele>495.00000000000006</ele><time>2026-05-01T13:30:13.002Z</time></trkpt><trkpt lat="44.82460482241928" lon="9.105695544480882"><ele>496.0</ele><time>2026-05-01T13:30:14.002Z</time></trkpt><trkpt lat="44.824537181028674" lon="9.105636289859453"><ele>497.0</ele><time>2026-05-01T13:30:15.002Z</time></trkpt><trkpt lat="44.82448073717144" lon="9.105585290827383"><ele>500.16666666666663</ele><time>2026-05-01T13:30:16.002Z</time></trkpt><trkpt lat="44.824377788341955" lon="9.105501446177927"><ele>503.3333333333333</ele><time>2026-05-01T13:30:18.002Z</time></trkpt><trkpt lat="44.82431744453873" lon="9.105465625272242"><ele>506.5</ele><time>2026-05-01T13:30:19.002Z</time></trkpt><trkpt lat="44.82425314132895" lon="9.10546083661135"><ele>509.66666666666663</ele><time>2026-05-01T13:30:20.002Z</time></trkpt><trkpt lat="44.82417541880929" lon="9.105476053254742"><ele>512.8333333333334</ele><time>2026-05-01T13:30:21.002Z</time></trkpt><trkpt lat="44.82409840551129" lon="9.105511919191176"><ele>516.0</ele><time>2026-05-01T13:30:22.002Z</time></trkpt><trkpt lat="44.824024454551676" lon="9.105557921868751"><ele>516.0</ele><time>2026-05-01T13:30:23.002Z</time></trkpt><trkpt lat="44.82394841245867" lon="9.105576410320431"><ele>516.0</ele><time>2026-05-01T13:30:24.002Z</time></trkpt><trkpt lat="44.823894395233005" lon="9.105631913853616"><ele>516.0</ele><time>2026-05-01T13:30:25.002Z</time></trkpt><trkpt lat="44.823804266622275" lon="9.105687237611738"><ele>516.0</ele><time>2026-05-01T13:30:27.002Z</time></trkpt><trkpt lat="44.823712750623336" lon="9.105809603824088"><ele>516.0</ele><time>2026-05-01T13:30:29.003Z</time></trkpt><trkpt lat="44.82366270432626" lon="9.105899264113154"><ele>516.0</ele><time>2026-05-01T13:30:30.003Z</time></trkpt><trkpt lat="44.823605215536794" lon="9.105962261388354"><ele>515.8333333333334</ele><time>2026-05-01T13:30:31.003Z</time></trkpt><trkpt lat="44.82356253065214" lon="9.10603963722695"><ele>515.6666666666666</ele><time>2026-05-01T13:30:32.003Z</time></trkpt><trkpt lat="44.823512730014606" lon="9.106129911813207"><ele>515.5</ele><time>2026-05-01T13:30:33.003Z</time></trkpt><trkpt lat="44.8234672674143" lon="9.106205226995945"><ele>515.3333333333333</ele><time>2026-05-01T13:30:34.003Z</time></trkpt><trkpt lat="44.823414731238444" lon="9.106259091487285"><ele>515.1666666666666</ele><time>2026-05-01T13:30:35.003Z</time></trkpt><trkpt lat="44.82333758680815" lon="9.106295499343389"><ele>515.0</ele><time>2026-05-01T13:30:37.003Z</time></trkpt><trkpt lat="44.823259559856275" lon="9.106246069774025"><ele>515.0</ele><time>2026-05-01T13:30:39.003Z</time></trkpt><trkpt lat="44.82315772931998" lon="9.106211908345445"><ele>515.0</ele><time>2026-05-01T13:30:41.003Z</time></trkpt><trkpt lat="44.82304212122175" lon="9.106236946920522"><ele>515.0</ele><time>2026-05-01T13:30:43.003Z</time></trkpt><trkpt lat="44.822921120708436" lon="9.106265366631485"><ele>515.0</ele><time>2026-05-01T13:30:45.003Z</time></trkpt><trkpt lat="44.82282864716235" lon="9.10627050880884"><ele>515.0</ele><time>2026-05-01T13:30:47.003Z</time></trkpt><trkpt lat="44.82277454748604" lon="9.10620008743134"><ele>515.0</ele><time>2026-05-01T13:30:51.003Z</time></trkpt><trkpt lat="44.82279221457595" lon="9.106106249517124"><ele>515.0</ele><time>2026-05-01T13:30:53.003Z</time></trkpt><trkpt lat="44.82277203516113" lon="9.105960528533044"><ele>515.0</ele><time>2026-05-01T13:30:55.003Z</time></trkpt><trkpt lat="44.822761071638126" lon="9.105780567938494"><ele>515.0</ele><time>2026-05-01T13:30:57.003Z</time></trkpt><trkpt lat="44.82275314253261" lon="9.105677429570196"><ele>515.0</ele><time>2026-05-01T13:30:58.003Z</time></trkpt><trkpt lat="44.822746811407576" lon="9.105576883558625"><ele>515.0</ele><time>2026-05-01T13:30:59Z</time></trkpt><trkpt lat="44.82272962508033" lon="9.105428595323179"><ele>517.5</ele><time>2026-05-01T13:31:01Z</time></trkpt><trkpt lat="44.82272699603096" lon="9.105302516831733"><ele>520.0</ele><time>2026-05-01T13:31:03Z</time></trkpt><trkpt lat="44.822786639700496" lon="9.10516976119084"><ele>522.5</ele><time>2026-05-01T13:31:05Z</time></trkpt><trkpt lat="44.82282348516087" lon="9.105089334551398"><ele>525.0</ele><time>2026-05-01T13:31:06Z</time></trkpt><trkpt lat="44.82284695415289" lon="9.105000568817335"><ele>527.5</ele><time>2026-05-01T13:31:07Z</time></trkpt><trkpt lat="44.82285577947483" lon="9.104912405776245"><ele>530.0</ele><time>2026-05-01T13:31:08Z</time></trkpt><trkpt lat="44.82284026512491" lon="9.104819194045298"><ele>533.2</ele><time>2026-05-01T13:31:09Z</time></trkpt><trkpt lat="44.822814651092706" lon="9.104723692066282"><ele>536.4</ele><time>2026-05-01T13:31:10Z</time></trkpt><trkpt lat="44.82275911330898" lon="9.104626864873511"><ele>539.6</ele><time>2026-05-01T13:31:11Z</time></trkpt><trkpt lat="44.822687593524854" lon="9.104546835422688"><ele>542.8</ele><time>2026-05-01T13:31:12Z</time></trkpt><trkpt lat="44.82260761050592" lon="9.104472906505032"><ele>546.0</ele><time>2026-05-01T13:31:13Z</time></trkpt><trkpt lat="44.8225249464716" lon="9.104381400800053"><ele>546.2</ele><time>2026-05-01T13:31:14Z</time></trkpt><trkpt lat="44.822436859180904" lon="9.104305921722707"><ele>546.4000000000001</ele><time>2026-05-01T13:31:15Z</time></trkpt><trkpt lat="44.82234973695854" lon="9.104228158557598"><ele>546.6</ele><time>2026-05-01T13:31:16Z</time></trkpt><trkpt lat="44.822257065028104" lon="9.104151933159226"><ele>546.8000000000001</ele><time>2026-05-01T13:31:17Z</time></trkpt><trkpt lat="44.82216565815761" lon="9.104074551932518"><ele>547.0</ele><time>2026-05-01T13:31:18Z</time></trkpt><trkpt lat="44.82207533399101" lon="9.103996429546699"><ele>548.4</ele><time>2026-05-01T13:31:19Z</time></trkpt><trkpt lat="44.821983600352894" lon="9.103919218897005"><ele>549.8000000000001</ele><time>2026-05-01T13:31:20Z</time></trkpt><trkpt lat="44.8218930248371" lon="9.103838259523553"><ele>551.2</ele><time>2026-05-01T13:31:21Z</time></trkpt><trkpt lat="44.82180619319468" lon="9.103745248988586"><ele>552.6</ele><time>2026-05-01T13:31:22Z</time></trkpt><trkpt lat="44.821726118669524" lon="9.103638908410963"><ele>554.0</ele><time>2026-05-01T13:31:23Z</time></trkpt><trkpt lat="44.82165935234863" lon="9.103516256863637"><ele>554.0</ele><time>2026-05-01T13:31:24Z</time></trkpt><trkpt lat="44.82160554211654" lon="9.103381232321917"><ele>554.0</ele><time>2026-05-01T13:31:25Z</time></trkpt><trkpt lat="44.82157156014599" lon="9.103259275811743"><ele>554.0</ele><time>2026-05-01T13:31:26Z</time></trkpt><trkpt lat="44.82154982632389" lon="9.10315961764179"><ele>554.0</ele><time>2026-05-01T13:31:27Z</time></trkpt><trkpt lat="44.82156080880756" lon="9.102979346066894"><ele>554.0</ele><time>2026-05-01T13:31:29Z</time></trkpt><trkpt lat="44.82165095125912" lon="9.102858236434756"><ele>556.2</ele><time>2026-05-01T13:31:31.001Z</time></trkpt><trkpt lat="44.821724492682385" lon="9.102842512972549"><ele>558.4</ele><time>2026-05-01T13:31:32.001Z</time></trkpt><trkpt lat="44.82180296012258" lon="9.102874929557306"><ele>560.6</ele><time>2026-05-01T13:31:33.001Z</time></trkpt><trkpt lat="44.82188602526681" lon="9.102879459846289"><ele>562.8</ele><time>2026-05-01T13:31:34.001Z</time></trkpt><trkpt lat="44.821983093844004" lon="9.102928132848385"><ele>565.0</ele><time>2026-05-01T13:31:35.001Z</time></trkpt><trkpt lat="44.82208826668802" lon="9.10297893776539"><ele>566.4</ele><time>2026-05-01T13:31:36.001Z</time></trkpt><trkpt lat="44.82219350107112" lon="9.103031635582349"><ele>567.8</ele><time>2026-05-01T13:31:37.001Z</time></trkpt><trkpt lat="44.82229707030475" lon="9.103083322109281"><ele>569.2</ele><time>2026-05-01T13:31:38.001Z</time></trkpt><trkpt lat="44.82239380606378" lon="9.103117541201994"><ele>570.6</ele><time>2026-05-01T13:31:39.001Z</time></trkpt><trkpt lat="44.82247301524479" lon="9.103117335252685"><ele>572.0</ele><time>2026-05-01T13:31:40.001Z</time></trkpt><trkpt lat="44.822546841937005" lon="9.103081054869346"><ele>572.0</ele><time>2026-05-01T13:31:41.001Z</time></trkpt><trkpt lat="44.822600318704445" lon="9.10301268935556"><ele>572.0</ele><time>2026-05-01T13:31:42.001Z</time></trkpt><trkpt lat="44.822628316771265" lon="9.102914982843231"><ele>572.0</ele><time>2026-05-01T13:31:43.001Z</time></trkpt><trkpt lat="44.822636767970515" lon="9.102809370575054"><ele>572.0</ele><time>2026-05-01T13:31:44.001Z</time></trkpt><trkpt lat="44.822618076459904" lon="9.102698281163443"><ele>572.0</ele><time>2026-05-01T13:31:45.001Z</time></trkpt><trkpt lat="44.82257803399656" lon="9.102599843538362"><ele>572.0</ele><time>2026-05-01T13:31:46.001Z</time></trkpt><trkpt lat="44.822518829660694" lon="9.102514951744414"><ele>572.0</ele><time>2026-05-01T13:31:47.001Z</time></trkpt><trkpt lat="44.82244317590381" lon="9.102439719242316"><ele>572.0</ele><time>2026-05-01T13:31:48.001Z</time></trkpt><trkpt lat="44.82236865152819" lon="9.102346491356409"><ele>572.0</ele><time>2026-05-01T13:31:49.001Z</time></trkpt><trkpt lat="44.822284679715935" lon="9.102253183295597"><ele>572.0</ele><time>2026-05-01T13:31:50.001Z</time></trkpt><trkpt lat="44.82219476205424" lon="9.102160312569533"><ele>572.0</ele><time>2026-05-01T13:31:51.001Z</time></trkpt><trkpt lat="44.822100154122886" lon="9.102067816155712"><ele>576.25</ele><time>2026-05-01T13:31:52.001Z</time></trkpt><trkpt lat="44.822012196282806" lon="9.101965933399729"><ele>580.5</ele><time>2026-05-01T13:31:53.001Z</time></trkpt><trkpt lat="44.821931326946846" lon="9.101850585626053"><ele>584.75</ele><time>2026-05-01T13:31:54.001Z</time></trkpt><trkpt lat="44.82185616055607" lon="9.101708844198221"><ele>589.0</ele><time>2026-05-01T13:31:55.001Z</time></trkpt><trkpt lat="44.821782608302996" lon="9.101550838569255"><ele>590.5</ele><time>2026-05-01T13:31:56.001Z</time></trkpt><trkpt lat="44.82171225562027" lon="9.101388054182415"><ele>592.0</ele><time>2026-05-01T13:31:57.001Z</time></trkpt><trkpt lat="44.82164895957298" lon="9.101245005818338"><ele>593.5</ele><time>2026-05-01T13:31:58.001Z</time></trkpt><trkpt lat="44.82157830965702" lon="9.101094718834348"><ele>595.0</ele><time>2026-05-01T13:31:59.001Z</time></trkpt><trkpt lat="44.82150975131235" lon="9.100942698538223"><ele>595.0</ele><time>2026-05-01T13:32:00.001Z</time></trkpt><trkpt lat="44.82144040984626" lon="9.100806467521627"><ele>595.0</ele><time>2026-05-01T13:32:01.001Z</time></trkpt><trkpt lat="44.82137290222085" lon="9.100685241097521"><ele>595.0</ele><time>2026-05-01T13:32:02.002Z</time></trkpt><trkpt lat="44.82128656964371" lon="9.100595723306418"><ele>595.0</ele><time>2026-05-01T13:32:03.002Z</time></trkpt><trkpt lat="44.82119075448696" lon="9.10052758752273"><ele>595.0</ele><time>2026-05-01T13:32:04.002Z</time></trkpt><trkpt lat="44.82108277145189" lon="9.100479533426492"><ele>597.6</ele><time>2026-05-01T13:32:05.002Z</time></trkpt><trkpt lat="44.820970325198196" lon="9.10043985934711"><ele>600.2</ele><time>2026-05-01T13:32:06.002Z</time></trkpt><trkpt lat="44.820869891450805" lon="9.100394346628464"><ele>602.8</ele><time>2026-05-01T13:32:07.002Z</time></trkpt><trkpt lat="44.82078057837789" lon="9.10032468316205"><ele>605.4</ele><time>2026-05-01T13:32:08.002Z</time></trkpt><trkpt lat="44.8207040069575" lon="9.100232567401937"><ele>608.0</ele><time>2026-05-01T13:32:09.002Z</time></trkpt><trkpt lat="44.82063874731158" lon="9.100107191031038"><ele>608.0</ele><time>2026-05-01T13:32:10.002Z</time></trkpt><trkpt lat="44.82057888083408" lon="9.099982949909958"><ele>608.0</ele><time>2026-05-01T13:32:11.002Z</time></trkpt><trkpt lat="44.82049752867446" lon="9.0998817917166"><ele>608.0</ele><time>2026-05-01T13:32:12.002Z</time></trkpt><trkpt lat="44.820399491589455" lon="9.099806582354027"><ele>608.0</ele><time>2026-05-01T13:32:13.002Z</time></trkpt><trkpt lat="44.820292492766484" lon="9.09975816748365"><ele>608.0</ele><time>2026-05-01T13:32:14.002Z</time></trkpt><trkpt lat="44.82017845599539" lon="9.099715356841111"><ele>610.25</ele><time>2026-05-01T13:32:15.002Z</time></trkpt><trkpt lat="44.820067686180096" lon="9.09965610465825"><ele>612.5</ele><time>2026-05-01T13:32:16.002Z</time></trkpt><trkpt lat="44.81995191764831" lon="9.099607716994882"><ele>614.75</ele><time>2026-05-01T13:32:17.002Z</time></trkpt><trkpt lat="44.81983790955796" lon="9.099560990533922"><ele>617.0</ele><time>2026-05-01T13:32:18.002Z</time></trkpt><trkpt lat="44.81972735421841" lon="9.099507393275141"><ele>617.0</ele><time>2026-05-01T13:32:19.002Z</time></trkpt><trkpt lat="44.819619765070996" lon="9.09945742609654"><ele>617.0</ele><time>2026-05-01T13:32:20.002Z</time></trkpt><trkpt lat="44.819508724814746" lon="9.099429955619547"><ele>617.0</ele><time>2026-05-01T13:32:21.002Z</time></trkpt><trkpt lat="44.81938847288123" lon="9.099412014982544"><ele>617.0</ele><time>2026-05-01T13:32:22.002Z</time></trkpt><trkpt lat="44.819275785377755" lon="9.099460357752418"><ele>618.75</ele><time>2026-05-01T13:32:23.002Z</time></trkpt><trkpt lat="44.81916357282192" lon="9.099485299966695"><ele>620.5</ele><time>2026-05-01T13:32:24.002Z</time></trkpt><trkpt lat="44.81905339141968" lon="9.099497288986777"><ele>622.25</ele><time>2026-05-01T13:32:25.002Z</time></trkpt><trkpt lat="44.8189359976859" lon="9.0994791284605"><ele>624.0</ele><time>2026-05-01T13:32:26.002Z</time></trkpt><trkpt lat="44.81881441101484" lon="9.09943121220852"><ele>624.0</ele><time>2026-05-01T13:32:27.002Z</time></trkpt><trkpt lat="44.81869489972153" lon="9.099377385340976"><ele>624.0</ele><time>2026-05-01T13:32:28.002Z</time></trkpt><trkpt lat="44.818577187680376" lon="9.09933046933456"><ele>624.0</ele><time>2026-05-01T13:32:29.002Z</time></trkpt><trkpt lat="44.81847690121626" lon="9.099286093687743"><ele>624.0</ele><time>2026-05-01T13:32:30.002Z</time></trkpt><trkpt lat="44.81839157031195" lon="9.099239842701195"><ele>624.0</ele><time>2026-05-01T13:32:31.002Z</time></trkpt><trkpt lat="44.81831984404765" lon="9.0991838362754"><ele>624.5</ele><time>2026-05-01T13:32:32.002Z</time></trkpt><trkpt lat="44.81826781619769" lon="9.099108852280057"><ele>625.0</ele><time>2026-05-01T13:32:33.002Z</time></trkpt><trkpt lat="44.81825639108444" lon="9.098988568204378"><ele>625.5</ele><time>2026-05-01T13:32:34.002Z</time></trkpt><trkpt lat="44.81827456130508" lon="9.098890639197899"><ele>626.0</ele><time>2026-05-01T13:32:35.003Z</time></trkpt><trkpt lat="44.81832358224096" lon="9.098794702169055"><ele>626.5</ele><time>2026-05-01T13:32:36.003Z</time></trkpt><trkpt lat="44.818406394141654" lon="9.098733211435098"><ele>627.0</ele><time>2026-05-01T13:32:37.003Z</time></trkpt><trkpt lat="44.81847504758337" lon="9.098643374751646"><ele>629.8</ele><time>2026-05-01T13:32:38.003Z</time></trkpt><trkpt lat="44.818564726152125" lon="9.098578265033995"><ele>632.6</ele><time>2026-05-01T13:32:39.003Z</time></trkpt><trkpt lat="44.8186591592477" lon="9.098509686358545"><ele>635.4</ele><time>2026-05-01T13:32:40.003Z</time></trkpt><trkpt lat="44.81875450892745" lon="9.098429687229485"><ele>638.1999999999999</ele><time>2026-05-01T13:32:41.003Z</time></trkpt><trkpt lat="44.81883534065331" lon="9.098335777238935"><ele>641.0</ele><time>2026-05-01T13:32:42.003Z</time></trkpt><trkpt lat="44.818921326142785" lon="9.098262023060586"><ele>644.8</ele><time>2026-05-01T13:32:43.003Z</time></trkpt><trkpt lat="44.819000642439455" lon="9.098180108148455"><ele>648.5999999999999</ele><time>2026-05-01T13:32:44.003Z</time></trkpt><trkpt lat="44.81908366256348" lon="9.098105474040167"><ele>652.4</ele><time>2026-05-01T13:32:45.003Z</time></trkpt><trkpt lat="44.81915867612611" lon="9.09802551999514"><ele>656.2</ele><time>2026-05-01T13:32:46.003Z</time></trkpt><trkpt lat="44.819206674751086" lon="9.09795767353524"><ele>660.0</ele><time>2026-05-01T13:32:47.003Z</time></trkpt><trkpt lat="44.81922722340218" lon="9.09781195185323"><ele>660.0</ele><time>2026-05-01T13:32:49.003Z</time></trkpt><trkpt lat="44.81918211965255" lon="9.097693148434384"><ele>660.0</ele><time>2026-05-01T13:32:51.003Z</time></trkpt><trkpt lat="44.819103529247016" lon="9.097602208857289"><ele>660.0</ele><time>2026-05-01T13:32:52.003Z</time></trkpt><trkpt lat="44.8190096829147" lon="9.097591253536253"><ele>660.0</ele><time>2026-05-01T13:32:53.003Z</time></trkpt><trkpt lat="44.81893029600454" lon="9.09759217335051"><ele>660.0</ele><time>2026-05-01T13:32:54.003Z</time></trkpt><trkpt lat="44.8188603668347" lon="9.097590823191494"><ele>660.0</ele><time>2026-05-01T13:32:55.003Z</time></trkpt><trkpt lat="44.81879136867024" lon="9.097585577232179"><ele>660.0</ele><time>2026-05-01T13:32:56.003Z</time></trkpt><trkpt lat="44.8187225263466" lon="9.097557894885245"><ele>660.0</ele><time>2026-05-01T13:32:57.003Z</time></trkpt><trkpt lat="44.81865351490766" lon="9.097484480397148"><ele>660.0</ele><time>2026-05-01T13:32:58.003Z</time></trkpt><trkpt lat="44.81858913554149" lon="9.09736513443755"><ele>660.0</ele><time>2026-05-01T13:32:59.003Z</time></trkpt><trkpt lat="44.818542729973686" lon="9.097241909289655"><ele>660.0</ele><time>2026-05-01T13:33:00.003Z</time></trkpt><trkpt lat="44.81851173015515" lon="9.097114877680193"><ele>661.1666666666666</ele><time>2026-05-01T13:33:01.003Z</time></trkpt><trkpt lat="44.81848172954968" lon="9.096990329148593"><ele>662.3333333333334</ele><time>2026-05-01T13:33:02.003Z</time></trkpt><trkpt lat="44.818448477582805" lon="9.096873275030214"><ele>663.5</ele><time>2026-05-01T13:33:03.003Z</time></trkpt><trkpt lat="44.81840073011893" lon="9.09676373191874"><ele>664.6666666666667</ele><time>2026-05-01T13:33:04.003Z</time></trkpt><trkpt lat="44.818329707923034" lon="9.096692539170055"><ele>665.8333333333334</ele><time>2026-05-01T13:33:05Z</time></trkpt><trkpt lat="44.81827460665816" lon="9.096619968711481"><ele>667.0</ele><time>2026-05-01T13:33:06Z</time></trkpt><trkpt lat="44.8182195818386" lon="9.09655344559637"><ele>668.5</ele><time>2026-05-01T13:33:07Z</time></trkpt><trkpt lat="44.81817935449279" lon="9.096484705791097"><ele>670.0</ele><time>2026-05-01T13:33:08Z</time></trkpt><trkpt lat="44.818116955408684" lon="9.096371490898282"><ele>671.5</ele><time>2026-05-01T13:33:10Z</time></trkpt><trkpt lat="44.81807525072742" lon="9.096241295187019"><ele>673.0</ele><time>2026-05-01T13:33:12Z</time></trkpt><trkpt lat="44.81805469468012" lon="9.096148122646625"><ele>674.5</ele><time>2026-05-01T13:33:13Z</time></trkpt><trkpt lat="44.81802331586642" lon="9.096042032882945"><ele>676.0</ele><time>2026-05-01T13:33:14Z</time></trkpt><trkpt lat="44.81798728432709" lon="9.095913933332419"><ele>676.0</ele><time>2026-05-01T13:33:15Z</time></trkpt><trkpt lat="44.81795026915512" lon="9.095765254289836"><ele>676.0</ele><time>2026-05-01T13:33:16Z</time></trkpt><trkpt lat="44.81792413836218" lon="9.095602945105126"><ele>676.0</ele><time>2026-05-01T13:33:17Z</time></trkpt><trkpt lat="44.81788932530706" lon="9.095437282405856"><ele>676.0</ele><time>2026-05-01T13:33:18Z</time></trkpt><trkpt lat="44.817845620926434" lon="9.095252512994522"><ele>679.25</ele><time>2026-05-01T13:33:19Z</time></trkpt><trkpt lat="44.81780187187772" lon="9.095092030868853"><ele>682.5</ele><time>2026-05-01T13:33:20Z</time></trkpt><trkpt lat="44.817751845407734" lon="9.094928455956115"><ele>685.75</ele><time>2026-05-01T13:33:21Z</time></trkpt><trkpt lat="44.817703005745976" lon="9.0947703664042"><ele>689.0</ele><time>2026-05-01T13:33:22Z</time></trkpt><trkpt lat="44.81765574073132" lon="9.094628500398692"><ele>685.5</ele><time>2026-05-01T13:33:23Z</time></trkpt><trkpt lat="44.81761058871392" lon="9.094490616176454"><ele>682.0</ele><time>2026-05-01T13:33:24Z</time></trkpt><trkpt lat="44.817551126359106" lon="9.094353509511734"><ele>678.5</ele><time>2026-05-01T13:33:25Z</time></trkpt><trkpt lat="44.81748462868065" lon="9.094224384733081"><ele>675.0</ele><time>2026-05-01T13:33:26Z</time></trkpt><trkpt lat="44.81741229716812" lon="9.09409567549921"><ele>677.5</ele><time>2026-05-01T13:33:27Z</time></trkpt><trkpt lat="44.81733381791539" lon="9.093956026698589"><ele>680.0</ele><time>2026-05-01T13:33:28Z</time></trkpt><trkpt lat="44.817254652788876" lon="9.093812298618651"><ele>682.5</ele><time>2026-05-01T13:33:29Z</time></trkpt><trkpt lat="44.81717701199653" lon="9.093671309445757"><ele>685.0</ele><time>2026-05-01T13:33:30Z</time></trkpt><trkpt lat="44.81708520390444" lon="9.093549065647013"><ele>685.0</ele><time>2026-05-01T13:33:31Z</time></trkpt><trkpt lat="44.81701220440242" lon="9.093414143680135"><ele>685.0</ele><time>2026-05-01T13:33:32Z</time></trkpt><trkpt lat="44.816945587116535" lon="9.093274607284956"><ele>685.0</ele><time>2026-05-01T13:33:33Z</time></trkpt><trkpt lat="44.816877116367856" lon="9.093132167872307"><ele>685.0</ele><time>2026-05-01T13:33:34Z</time></trkpt><trkpt lat="44.8167962547094" lon="9.092987813482436"><ele>682.5</ele><time>2026-05-01T13:33:35Z</time></trkpt><trkpt lat="44.81671931868307" lon="9.092839537989311"><ele>680.0</ele><time>2026-05-01T13:33:36Z</time></trkpt><trkpt lat="44.81664030082792" lon="9.092698146661851"><ele>677.5</ele><time>2026-05-01T13:33:37Z</time></trkpt><trkpt lat="44.816568019457044" lon="9.092557692353823"><ele>675.0</ele><time>2026-05-01T13:33:38.001Z</time></trkpt><trkpt lat="44.81650655348891" lon="9.092412543949074"><ele>675.0</ele><time>2026-05-01T13:33:39.001Z</time></trkpt><trkpt lat="44.81645238754655" lon="9.09224770510537"><ele>675.0</ele><time>2026-05-01T13:33:40.001Z</time></trkpt><trkpt lat="44.81640168435076" lon="9.092066997325249"><ele>675.0</ele><time>2026-05-01T13:33:41.001Z</time></trkpt><trkpt lat="44.816348902100394" lon="9.091884986246823"><ele>675.0</ele><time>2026-05-01T13:33:42.001Z</time></trkpt><trkpt lat="44.816311328397134" lon="9.091691292074218"><ele>677.25</ele><time>2026-05-01T13:33:43.001Z</time></trkpt><trkpt lat="44.81624065773581" lon="9.091530865790393"><ele>679.5</ele><time>2026-05-01T13:33:44.001Z</time></trkpt><trkpt lat="44.81618907640953" lon="9.091373781742043"><ele>681.75</ele><time>2026-05-01T13:33:45.001Z</time></trkpt><trkpt lat="44.81613258667381" lon="9.091232878148126"><ele>684.0</ele><time>2026-05-01T13:33:46.001Z</time></trkpt><trkpt lat="44.8160642580164" lon="9.091107527973753"><ele>684.0</ele><time>2026-05-01T13:33:47.001Z</time></trkpt><trkpt lat="44.81599296919883" lon="9.09100156344945"><ele>684.0</ele><time>2026-05-01T13:33:48.001Z</time></trkpt><trkpt lat="44.81592887217016" lon="9.090897424126595"><ele>684.0</ele><time>2026-05-01T13:33:49.001Z</time></trkpt><trkpt lat="44.815845187709876" lon="9.09083389591131"><ele>684.0</ele><time>2026-05-01T13:33:50.001Z</time></trkpt><trkpt lat="44.815736405927396" lon="9.090803592245159"><ele>684.0</ele><time>2026-05-01T13:33:51.001Z</time></trkpt><trkpt lat="44.81561753993168" lon="9.090800143611576"><ele>679.0</ele><time>2026-05-01T13:33:52.001Z</time></trkpt><trkpt lat="44.81548879320964" lon="9.0907943454492"><ele>674.0</ele><time>2026-05-01T13:33:53.001Z</time></trkpt><trkpt lat="44.81535795158415" lon="9.090786451539467"><ele>669.0</ele><time>2026-05-01T13:33:54.001Z</time></trkpt><trkpt lat="44.815231759052544" lon="9.090777843751559"><ele>664.0</ele><time>2026-05-01T13:33:55.001Z</time></trkpt><trkpt lat="44.81511673931774" lon="9.09076988963338"><ele>664.3333333333334</ele><time>2026-05-01T13:33:56.001Z</time></trkpt><trkpt lat="44.8150010171748" lon="9.09076020045771"><ele>664.6666666666667</ele><time>2026-05-01T13:33:57.001Z</time></trkpt><trkpt lat="44.81489397845446" lon="9.090751612871525"><ele>665.0</ele><time>2026-05-01T13:33:58.001Z</time></trkpt><trkpt lat="44.81480792768141" lon="9.090745471071996"><ele>665.3333333333334</ele><time>2026-05-01T13:33:59.001Z</time></trkpt><trkpt lat="44.814743050024674" lon="9.090744239806284"><ele>665.6666666666666</ele><time>2026-05-01T13:34:00.001Z</time></trkpt><trkpt lat="44.81467349414622" lon="9.090765234417383"><ele>666.0</ele><time>2026-05-01T13:34:02.001Z</time></trkpt><trkpt lat="44.81478740793203" lon="9.090962479034893"><ele>664.1999999999999</ele><time>2026-05-01T13:34:07.001Z</time></trkpt><trkpt lat="44.814865051446894" lon="9.090977403344844"><ele>662.4</ele><time>2026-05-01T13:34:08.001Z</time></trkpt><trkpt lat="44.81492679900485" lon="9.091006906853378"><ele>660.6</ele><time>2026-05-01T13:34:09.002Z</time></trkpt><trkpt lat="44.815032918491525" lon="9.091095148228208"><ele>658.8</ele><time>2026-05-01T13:34:11.002Z</time></trkpt><trkpt lat="44.8150663202732" lon="9.091232520391507"><ele>657.0</ele><time>2026-05-01T13:34:13.002Z</time></trkpt><trkpt lat="44.814978992310294" lon="9.091328321271812"><ele>657.0</ele><time>2026-05-01T13:34:15.002Z</time></trkpt><trkpt lat="44.81491011061802" lon="9.091352871132209"><ele>657.0</ele><time>2026-05-01T13:34:16.002Z</time></trkpt><trkpt lat="44.81481795822394" lon="9.091386777979166"><ele>657.0</ele><time>2026-05-01T13:34:17.002Z</time></trkpt><trkpt lat="44.81471888983864" lon="9.091424659576091"><ele>657.0</ele><time>2026-05-01T13:34:18.002Z</time></trkpt><trkpt lat="44.81462863033223" lon="9.091439315871662"><ele>657.0</ele><time>2026-05-01T13:34:19.002Z</time></trkpt><trkpt lat="44.81454311390374" lon="9.091452538890927"><ele>657.0</ele><time>2026-05-01T13:34:20.002Z</time></trkpt><trkpt lat="44.81446360562189" lon="9.09145915136189"><ele>657.0</ele><time>2026-05-01T13:34:21.002Z</time></trkpt><trkpt lat="44.81439843936467" lon="9.091534397745223"><ele>657.0</ele><time>2026-05-01T13:34:22.002Z</time></trkpt><trkpt lat="44.81437836431508" lon="9.09164394951492"><ele>657.0</ele><time>2026-05-01T13:34:23.002Z</time></trkpt><trkpt lat="44.8143612287396" lon="9.091739968040663"><ele>657.0</ele><time>2026-05-01T13:34:24.002Z</time></trkpt><trkpt lat="44.814336401667816" lon="9.09182730345457"><ele>657.0</ele><time>2026-05-01T13:34:25.002Z</time></trkpt><trkpt lat="44.81423227539953" lon="9.091857538204874"><ele>657.0</ele><time>2026-05-01T13:34:27.002Z</time></trkpt><trkpt lat="44.81411251443266" lon="9.091766465007838"><ele>654.2</ele><time>2026-05-01T13:34:29.002Z</time></trkpt><trkpt lat="44.814040717144735" lon="9.091682952177692"><ele>651.4000000000001</ele><time>2026-05-01T13:34:30.002Z</time></trkpt><trkpt lat="44.81395211249388" lon="9.09160414821552"><ele>648.5999999999999</ele><time>2026-05-01T13:34:31.002Z</time></trkpt><trkpt lat="44.81387225740957" lon="9.091517914471329"><ele>645.8</ele><time>2026-05-01T13:34:32.002Z</time></trkpt><trkpt lat="44.81380801939094" lon="9.091419148514275"><ele>643.0</ele><time>2026-05-01T13:34:33.002Z</time></trkpt><trkpt lat="44.81373963552771" lon="9.091360034832396"><ele>643.0</ele><time>2026-05-01T13:34:34.002Z</time></trkpt><trkpt lat="44.81367824875867" lon="9.091333493551922"><ele>643.0</ele><time>2026-05-01T13:34:35.002Z</time></trkpt><trkpt lat="44.81356249485173" lon="9.091428732149788"><ele>643.0</ele><time>2026-05-01T13:34:37.002Z</time></trkpt><trkpt lat="44.813557847098195" lon="9.091548884521469"><ele>643.0</ele><time>2026-05-01T13:34:38.002Z</time></trkpt><trkpt lat="44.81360649349872" lon="9.091664884910745"><ele>643.0</ele><time>2026-05-01T13:34:39.002Z</time></trkpt><trkpt lat="44.81366775076236" lon="9.09174932596111"><ele>641.0</ele><time>2026-05-01T13:34:40.002Z</time></trkpt><trkpt lat="44.81371158309929" lon="9.091859413127585"><ele>639.0</ele><time>2026-05-01T13:34:41.002Z</time></trkpt><trkpt lat="44.81371202659029" lon="9.091999070939373"><ele>637.0</ele><time>2026-05-01T13:34:42.002Z</time></trkpt><trkpt lat="44.813729862551845" lon="9.092144106239441"><ele>635.0</ele><time>2026-05-01T13:34:43.003Z</time></trkpt><trkpt lat="44.813744154639295" lon="9.092288717420221"><ele>633.0</ele><time>2026-05-01T13:34:44.003Z</time></trkpt><trkpt lat="44.81375314779868" lon="9.092432984413444"><ele>630.4</ele><time>2026-05-01T13:34:45.003Z</time></trkpt><trkpt lat="44.813751301609834" lon="9.09256068507419"><ele>627.8</ele><time>2026-05-01T13:34:46.003Z</time></trkpt><trkpt lat="44.81374307875401" lon="9.092669379774442"><ele>625.2</ele><time>2026-05-01T13:34:47.003Z</time></trkpt><trkpt lat="44.81366614237878" lon="9.092764457353582"><ele>622.6</ele><time>2026-05-01T13:34:49.003Z</time></trkpt><trkpt lat="44.81356619482401" lon="9.092736725840407"><ele>620.0</ele><time>2026-05-01T13:34:51.003Z</time></trkpt><trkpt lat="44.81351075351886" lon="9.092652246691841"><ele>618.4</ele><time>2026-05-01T13:34:52.003Z</time></trkpt><trkpt lat="44.81345683544969" lon="9.092543534910465"><ele>616.8</ele><time>2026-05-01T13:34:53.003Z</time></trkpt><trkpt lat="44.81339577715748" lon="9.092429580627938"><ele>615.2</ele><time>2026-05-01T13:34:54.003Z</time></trkpt><trkpt lat="44.8133492822105" lon="9.092310491772736"><ele>613.6</ele><time>2026-05-01T13:34:55.003Z</time></trkpt><trkpt lat="44.813290230855905" lon="9.092204223226576"><ele>612.0</ele><time>2026-05-01T13:34:56.003Z</time></trkpt><trkpt lat="44.81324320677258" lon="9.092145122384068"><ele>612.0</ele><time>2026-05-01T13:34:57.003Z</time></trkpt><trkpt lat="44.81313395972494" lon="9.0921504968726"><ele>612.0</ele><time>2026-05-01T13:34:59.003Z</time></trkpt><trkpt lat="44.81309647523535" lon="9.092321292368373"><ele>612.0</ele><time>2026-05-01T13:35:01.003Z</time></trkpt><trkpt lat="44.81312673983561" lon="9.092432269490537"><ele>612.0</ele><time>2026-05-01T13:35:02.003Z</time></trkpt><trkpt lat="44.813159642869905" lon="9.092551927982903"><ele>612.0</ele><time>2026-05-01T13:35:03.003Z</time></trkpt><trkpt lat="44.81319962287742" lon="9.092694819361123"><ele>610.4</ele><time>2026-05-01T13:35:04.003Z</time></trkpt><trkpt lat="44.81323348781185" lon="9.092844042034617"><ele>608.8000000000001</ele><time>2026-05-01T13:35:05.003Z</time></trkpt><trkpt lat="44.81326166140147" lon="9.092997191521983"><ele>607.2</ele><time>2026-05-01T13:35:06.003Z</time></trkpt><trkpt lat="44.81328694984748" lon="9.093149217071701"><ele>605.6</ele><time>2026-05-01T13:35:07.003Z</time></trkpt><trkpt lat="44.81329847866036" lon="9.093288954785812"><ele>604.0</ele><time>2026-05-01T13:35:08.003Z</time></trkpt><trkpt lat="44.81328606477326" lon="9.093413109133552"><ele>602.0</ele><time>2026-05-01T13:35:09.003Z</time></trkpt><trkpt lat="44.813252348525396" lon="9.09352772956457"><ele>600.0</ele><time>2026-05-01T13:35:10.003Z</time></trkpt><trkpt lat="44.81320619613222" lon="9.093637224821771"><ele>598.0</ele><time>2026-05-01T13:35:10.999Z</time></trkpt><trkpt lat="44.81314909590884" lon="9.093728671992704"><ele>596.0</ele><time>2026-05-01T13:35:11.999Z</time></trkpt><trkpt lat="44.81308503288916" lon="9.093796989054399"><ele>594.0</ele><time>2026-05-01T13:35:12.999Z</time></trkpt><trkpt lat="44.813013691374714" lon="9.093877911700247"><ele>592.0</ele><time>2026-05-01T13:35:13.999Z</time></trkpt><trkpt lat="44.81292665644839" lon="9.09392118324459"><ele>592.0</ele><time>2026-05-01T13:35:14.999Z</time></trkpt><trkpt lat="44.812823912596976" lon="9.093922781444974"><ele>592.0</ele><time>2026-05-01T13:35:16Z</time></trkpt><trkpt lat="44.812716513306334" lon="9.093928523971673"><ele>592.0</ele><time>2026-05-01T13:35:17Z</time></trkpt><trkpt lat="44.81259754113921" lon="9.093930569981287"><ele>592.0</ele><time>2026-05-01T13:35:18Z</time></trkpt><trkpt lat="44.81246807494615" lon="9.093929202663084"><ele>587.5</ele><time>2026-05-01T13:35:19Z</time></trkpt><trkpt lat="44.81233314783485" lon="9.093927454558559"><ele>583.0</ele><time>2026-05-01T13:35:20Z</time></trkpt><trkpt lat="44.81220243897007" lon="9.09392483601612"><ele>578.5</ele><time>2026-05-01T13:35:21Z</time></trkpt><trkpt lat="44.81206871771754" lon="9.093921585350673"><ele>574.0</ele><time>2026-05-01T13:35:22Z</time></trkpt><trkpt lat="44.81193304699648" lon="9.093918287293207"><ele>569.5</ele><time>2026-05-01T13:35:23Z</time></trkpt><trkpt lat="44.81179660559305" lon="9.093938272733794"><ele>565.0</ele><time>2026-05-01T13:35:24Z</time></trkpt><trkpt lat="44.8116593096181" lon="9.093911632935303"><ele>560.5</ele><time>2026-05-01T13:35:25Z</time></trkpt><trkpt lat="44.81152091487326" lon="9.093911500868307"><ele>556.0</ele><time>2026-05-01T13:35:26Z</time></trkpt><trkpt lat="44.811384697898745" lon="9.093915380511325"><ele>556.0</ele><time>2026-05-01T13:35:27Z</time></trkpt><trkpt lat="44.811257113940485" lon="9.093925834801066"><ele>556.0</ele><time>2026-05-01T13:35:28Z</time></trkpt><trkpt lat="44.811136592164516" lon="9.09395771175637"><ele>556.0</ele><time>2026-05-01T13:35:29Z</time></trkpt><trkpt lat="44.81102773586013" lon="9.09400059273974"><ele>556.0</ele><time>2026-05-01T13:35:30Z</time></trkpt><trkpt lat="44.81093492442169" lon="9.094056920957376"><ele>554.6</ele><time>2026-05-01T13:35:31Z</time></trkpt><trkpt lat="44.81085837476784" lon="9.094138389508563"><ele>553.2</ele><time>2026-05-01T13:35:32Z</time></trkpt><trkpt lat="44.81081100430486" lon="9.094235820904824"><ele>551.8</ele><time>2026-05-01T13:35:33Z</time></trkpt><trkpt lat="44.81077595028231" lon="9.094346781119041"><ele>550.4</ele><time>2026-05-01T13:35:34Z</time></trkpt><trkpt lat="44.81074009367184" lon="9.09447365522648"><ele>549.0</ele><time>2026-05-01T13:35:35Z</time></trkpt><trkpt lat="44.81070237329182" lon="9.094612775077247"><ele>549.0</ele><time>2026-05-01T13:35:36Z</time></trkpt><trkpt lat="44.81066137618707" lon="9.094749772995188"><ele>549.0</ele><time>2026-05-01T13:35:37Z</time></trkpt><trkpt lat="44.81061400491529" lon="9.094872877630708"><ele>549.0</ele><time>2026-05-01T13:35:38Z</time></trkpt><trkpt lat="44.810560711874864" lon="9.094990106527826"><ele>549.0</ele><time>2026-05-01T13:35:39Z</time></trkpt><trkpt lat="44.81049685446696" lon="9.095083530397343"><ele>549.0</ele><time>2026-05-01T13:35:40Z</time></trkpt><trkpt lat="44.810420088520665" lon="9.09516002647753"><ele>550.0</ele><time>2026-05-01T13:35:41Z</time></trkpt><trkpt lat="44.81033776294508" lon="9.095213639333336"><ele>551.0</ele><time>2026-05-01T13:35:42Z</time></trkpt><trkpt lat="44.810243280442606" lon="9.095264168990308"><ele>552.0</ele><time>2026-05-01T13:35:43.001Z</time></trkpt><trkpt lat="44.81013802777968" lon="9.095297240210995"><ele>553.0</ele><time>2026-05-01T13:35:44.001Z</time></trkpt><trkpt lat="44.8100328636575" lon="9.095314772578767"><ele>554.0</ele><time>2026-05-01T13:35:45.001Z</time></trkpt><trkpt lat="44.809944797190596" lon="9.095321888797056"><ele>551.6666666666666</ele><time>2026-05-01T13:35:46.001Z</time></trkpt><trkpt lat="44.80986823995767" lon="9.09531621940034"><ele>549.3333333333333</ele><time>2026-05-01T13:35:47.001Z</time></trkpt><trkpt lat="44.80981102300278" lon="9.095260281782204"><ele>547.0</ele><time>2026-05-01T13:35:48.001Z</time></trkpt><trkpt lat="44.80978441085203" lon="9.095176687257121"><ele>544.6666666666666</ele><time>2026-05-01T13:35:49.001Z</time></trkpt><trkpt lat="44.80977797301984" lon="9.095071888437378"><ele>542.3333333333334</ele><time>2026-05-01T13:35:50.001Z</time></trkpt><trkpt lat="44.809791889994955" lon="9.09493556762854"><ele>540.0</ele><time>2026-05-01T13:35:51.001Z</time></trkpt><trkpt lat="44.809797458809946" lon="9.0948033624305"><ele>537.6</ele><time>2026-05-01T13:35:52.001Z</time></trkpt><trkpt lat="44.80978354169239" lon="9.094677175590114"><ele>535.2</ele><time>2026-05-01T13:35:53.001Z</time></trkpt><trkpt lat="44.80974529378821" lon="9.09455336380901"><ele>532.8</ele><time>2026-05-01T13:35:54.001Z</time></trkpt><trkpt lat="44.80968211685042" lon="9.094451153800692"><ele>530.4</ele><time>2026-05-01T13:35:55.001Z</time></trkpt><trkpt lat="44.809600460333506" lon="9.094372909738018"><ele>528.0</ele><time>2026-05-01T13:35:56.001Z</time></trkpt><trkpt lat="44.809498248317" lon="9.09431719424585"><ele>528.0</ele><time>2026-05-01T13:35:57.001Z</time></trkpt><trkpt lat="44.80937276342471" lon="9.09426956871178"><ele>528.0</ele><time>2026-05-01T13:35:58.001Z</time></trkpt><trkpt lat="44.80923926812081" lon="9.094213900464224"><ele>528.0</ele><time>2026-05-01T13:35:59.001Z</time></trkpt><trkpt lat="44.80910319065206" lon="9.094147684337402"><ele>528.0</ele><time>2026-05-01T13:36:00.001Z</time></trkpt><trkpt lat="44.80897184767571" lon="9.094081106521154"><ele>524.1999999999999</ele><time>2026-05-01T13:36:01.001Z</time></trkpt><trkpt lat="44.80884928281235" lon="9.094032348083955"><ele>520.4</ele><time>2026-05-01T13:36:02.001Z</time></trkpt><trkpt lat="44.80874285806279" lon="9.094002989384558"><ele>516.5999999999999</ele><time>2026-05-01T13:36:03.001Z</time></trkpt><trkpt lat="44.808649469801665" lon="9.093986458755356"><ele>512.8</ele><time>2026-05-01T13:36:04.001Z</time></trkpt><trkpt lat="44.808568042063875" lon="9.094062565174792"><ele>509.0</ele><time>2026-05-01T13:36:05.001Z</time></trkpt><trkpt lat="44.808489410323595" lon="9.094121978012506"><ele>509.0</ele><time>2026-05-01T13:36:06.001Z</time></trkpt><trkpt lat="44.80842117090027" lon="9.09421532215945"><ele>509.0</ele><time>2026-05-01T13:36:07.001Z</time></trkpt><trkpt lat="44.8083495704354" lon="9.094323499781655"><ele>509.0</ele><time>2026-05-01T13:36:08.001Z</time></trkpt><trkpt lat="44.80827922436356" lon="9.094433384087475"><ele>509.0</ele><time>2026-05-01T13:36:09.001Z</time></trkpt><trkpt lat="44.80822054869643" lon="9.094547339768503"><ele>509.0</ele><time>2026-05-01T13:36:10.001Z</time></trkpt><trkpt lat="44.80818296363247" lon="9.094673907085788"><ele>509.0</ele><time>2026-05-01T13:36:11.001Z</time></trkpt><trkpt lat="44.80815440160807" lon="9.094813664342755"><ele>509.0</ele><time>2026-05-01T13:36:12.001Z</time></trkpt><trkpt lat="44.80813503589568" lon="9.094960150285464"><ele>509.0</ele><time>2026-05-01T13:36:13.001Z</time></trkpt><trkpt lat="44.80812198427002" lon="9.095091842976643"><ele>509.0</ele><time>2026-05-01T13:36:14.002Z</time></trkpt><trkpt lat="44.80809623953818" lon="9.09519455753141"><ele>509.0</ele><time>2026-05-01T13:36:15.002Z</time></trkpt><trkpt lat="44.80801441348501" lon="9.095281408414536"><ele>509.8333333333333</ele><time>2026-05-01T13:36:17.002Z</time></trkpt><trkpt lat="44.80794803634312" lon="9.09528001498231"><ele>510.66666666666663</ele><time>2026-05-01T13:36:18.002Z</time></trkpt><trkpt lat="44.80787230987904" lon="9.095257207328089"><ele>511.5</ele><time>2026-05-01T13:36:19.002Z</time></trkpt><trkpt lat="44.80778449366381" lon="9.095222705310333"><ele>512.3333333333334</ele><time>2026-05-01T13:36:20.002Z</time></trkpt><trkpt lat="44.80770598148553" lon="9.095146270847712"><ele>513.1666666666667</ele><time>2026-05-01T13:36:21.002Z</time></trkpt><trkpt lat="44.80761074269076" lon="9.095066390860996"><ele>514.0</ele><time>2026-05-01T13:36:22.002Z</time></trkpt><trkpt lat="44.80752492249912" lon="9.094986950527938"><ele>510.0</ele><time>2026-05-01T13:36:23.002Z</time></trkpt><trkpt lat="44.80745104086143" lon="9.09491100789682"><ele>506.0</ele><time>2026-05-01T13:36:24.002Z</time></trkpt><trkpt lat="44.80735742800819" lon="9.094875033901523"><ele>502.0</ele><time>2026-05-01T13:36:25.002Z</time></trkpt><trkpt lat="44.807255389891246" lon="9.094860684764772"><ele>498.0</ele><time>2026-05-01T13:36:26.002Z</time></trkpt><trkpt lat="44.80714821737011" lon="9.094884335417218"><ele>494.0</ele><time>2026-05-01T13:36:27.002Z</time></trkpt><trkpt lat="44.80703337463312" lon="9.094905683686173"><ele>494.0</ele><time>2026-05-01T13:36:28.002Z</time></trkpt><trkpt lat="44.806921623875645" lon="9.094917579040189"><ele>494.0</ele><time>2026-05-01T13:36:29.002Z</time></trkpt><trkpt lat="44.806807763596275" lon="9.094914822107036"><ele>494.0</ele><time>2026-05-01T13:36:30.002Z</time></trkpt><trkpt lat="44.80668674248747" lon="9.094914090014543"><ele>494.0</ele><time>2026-05-01T13:36:31.002Z</time></trkpt><trkpt lat="44.8065556220512" lon="9.094867694835756"><ele>488.25</ele><time>2026-05-01T13:36:32.002Z</time></trkpt><trkpt lat="44.806421755043765" lon="9.094799644922794"><ele>482.5</ele><time>2026-05-01T13:36:33.002Z</time></trkpt><trkpt lat="44.80629754803913" lon="9.094726396684816"><ele>476.75</ele><time>2026-05-01T13:36:35.002Z</time></trkpt><trkpt lat="44.806233987815105" lon="9.094637854315632"><ele>471.0</ele><time>2026-05-01T13:36:36.002Z</time></trkpt><trkpt lat="44.80618942371011" lon="9.094529214850107"><ele>471.0</ele><time>2026-05-01T13:36:37.002Z</time></trkpt><trkpt lat="44.80613575438175" lon="9.094402375760458"><ele>471.0</ele><time>2026-05-01T13:36:38.002Z</time></trkpt><trkpt lat="44.80607781546256" lon="9.0942833503306"><ele>471.0</ele><time>2026-05-01T13:36:39.002Z</time></trkpt><trkpt lat="44.80599441753832" lon="9.094198916003972"><ele>471.0</ele><time>2026-05-01T13:36:40.002Z</time></trkpt><trkpt lat="44.805913801989476" lon="9.09411862943442"><ele>471.0</ele><time>2026-05-01T13:36:41.002Z</time></trkpt><trkpt lat="44.80582858661428" lon="9.094057898015844"><ele>463.4</ele><time>2026-05-01T13:36:42.002Z</time></trkpt><trkpt lat="44.80573674677722" lon="9.094026395498082"><ele>455.8</ele><time>2026-05-01T13:36:43.002Z</time></trkpt><trkpt lat="44.80562883926106" lon="9.094025398971889"><ele>448.19999999999993</ele><time>2026-05-01T13:36:44.002Z</time></trkpt><trkpt lat="44.80551155971815" lon="9.094047593342612"><ele>440.59999999999997</ele><time>2026-05-01T13:36:45.002Z</time></trkpt><trkpt lat="44.80538947449132" lon="9.09404005314958"><ele>433.0</ele><time>2026-05-01T13:36:46.003Z</time></trkpt><trkpt lat="44.80528092106842" lon="9.094057241228969"><ele>433.0</ele><time>2026-05-01T13:36:47.003Z</time></trkpt><trkpt lat="44.80517141677052" lon="9.094059766669291"><ele>432.99999999999994</ele><time>2026-05-01T13:36:48.003Z</time></trkpt><trkpt lat="44.80506966811233" lon="9.094086787122373"><ele>432.99999999999994</ele><time>2026-05-01T13:36:49.003Z</time></trkpt><trkpt lat="44.804963909571676" lon="9.094132172531099"><ele>433.0</ele><time>2026-05-01T13:36:50.003Z</time></trkpt><trkpt lat="44.80486724389478" lon="9.09419501676701"><ele>433.0</ele><time>2026-05-01T13:36:51.003Z</time></trkpt><trkpt lat="44.80478657830019" lon="9.094266267929434"><ele>438.0</ele><time>2026-05-01T13:36:52.003Z</time></trkpt><trkpt lat="44.804733890151525" lon="9.094352572226136"><ele>442.99999999999994</ele><time>2026-05-01T13:36:53.003Z</time></trkpt><trkpt lat="44.80469731091786" lon="9.09447252958761"><ele>447.99999999999994</ele><time>2026-05-01T13:36:54.003Z</time></trkpt><trkpt lat="44.80467599721134" lon="9.094633957600484"><ele>453.0</ele><time>2026-05-01T13:36:55.003Z</time></trkpt><trkpt lat="44.804666043160985" lon="9.094820065851032"><ele>458.0</ele><time>2026-05-01T13:36:56.003Z</time></trkpt><trkpt lat="44.80465837671118" lon="9.095044332628321"><ele>459.75</ele><time>2026-05-01T13:36:57.003Z</time></trkpt><trkpt lat="44.804649577602774" lon="9.095238765705192"><ele>461.5</ele><time>2026-05-01T13:36:58.003Z</time></trkpt><trkpt lat="44.80464256322442" lon="9.09542490204507"><ele>463.25</ele><time>2026-05-01T13:36:59.003Z</time></trkpt><trkpt lat="44.804646441910855" lon="9.095602605202764"><ele>465.0</ele><time>2026-05-01T13:37:00.003Z</time></trkpt><trkpt lat="44.804664920823065" lon="9.095778683953114"><ele>465.0</ele><time>2026-05-01T13:37:01.003Z</time></trkpt><trkpt lat="44.804700550409365" lon="9.095946575896315"><ele>465.0</ele><time>2026-05-01T13:37:02.003Z</time></trkpt><trkpt lat="44.80475379284367" lon="9.09610800174691"><ele>465.0</ele><time>2026-05-01T13:37:03.003Z</time></trkpt><trkpt lat="44.80481667098255" lon="9.096233907866168"><ele>465.0</ele><time>2026-05-01T13:37:04.003Z</time></trkpt><trkpt lat="44.80487969669332" lon="9.096333031866896"><ele>465.0</ele><time>2026-05-01T13:37:05.003Z</time></trkpt><trkpt lat="44.80495956381206" lon="9.096406184859832"><ele>465.0</ele><time>2026-05-01T13:37:06.003Z</time></trkpt><trkpt lat="44.80505082451945" lon="9.096452798010626"><ele>465.0</ele><time>2026-05-01T13:37:07.003Z</time></trkpt><trkpt lat="44.80516154242397" lon="9.096496430299409"><ele>465.0</ele><time>2026-05-01T13:37:08.003Z</time></trkpt><trkpt lat="44.805272662594206" lon="9.096547129372071"><ele>465.0</ele><time>2026-05-01T13:37:09.003Z</time></trkpt><trkpt lat="44.80537351298518" lon="9.096601921308846"><ele>467.8</ele><time>2026-05-01T13:37:10.003Z</time></trkpt><trkpt lat="44.80544450618525" lon="9.096680172822394"><ele>470.6</ele><time>2026-05-01T13:37:11.003Z</time></trkpt><trkpt lat="44.805492174957294" lon="9.096758572082614"><ele>473.4</ele><time>2026-05-01T13:37:12.003Z</time></trkpt><trkpt lat="44.80549822215044" lon="9.096910042461843"><ele>476.2</ele><time>2026-05-01T13:37:14.003Z</time></trkpt><trkpt lat="44.805402831777016" lon="9.096982904075109"><ele>479.0</ele><time>2026-05-01T13:37:16.003Z</time></trkpt><trkpt lat="44.80533467638846" lon="9.09693330156926"><ele>479.0</ele><time>2026-05-01T13:37:16.999Z</time></trkpt><trkpt lat="44.80526088073746" lon="9.096864042929587"><ele>479.0</ele><time>2026-05-01T13:37:17.999Z</time></trkpt><trkpt lat="44.80516396231921" lon="9.096788302833174"><ele>479.0</ele><time>2026-05-01T13:37:18.999Z</time></trkpt><trkpt lat="44.80505663862178" lon="9.096733956814584"><ele>479.0</ele><time>2026-05-01T13:37:19.999Z</time></trkpt><trkpt lat="44.80494343311674" lon="9.096682587326491"><ele>479.0</ele><time>2026-05-01T13:37:20.999Z</time></trkpt><trkpt lat="44.80481644822415" lon="9.096644151731905"><ele>475.5</ele><time>2026-05-01T13:37:21.999Z</time></trkpt><trkpt lat="44.804687866634524" lon="9.096617806279895"><ele>472.0</ele><time>2026-05-01T13:37:22.999Z</time></trkpt><trkpt lat="44.804570490393125" lon="9.096609639669628"><ele>468.5</ele><time>2026-05-01T13:37:23.999Z</time></trkpt><trkpt lat="44.80446162304176" lon="9.096592460756328"><ele>465.0</ele><time>2026-05-01T13:37:24.999Z</time></trkpt><trkpt lat="44.80436456103697" lon="9.096553181415942"><ele>459.0</ele><time>2026-05-01T13:37:25.999Z</time></trkpt><trkpt lat="44.804285978932405" lon="9.096454401898932"><ele>453.0</ele><time>2026-05-01T13:37:26.999Z</time></trkpt><trkpt lat="44.80420665047198" lon="9.096352464853052"><ele>447.0</ele><time>2026-05-01T13:37:27.999Z</time></trkpt><trkpt lat="44.80411807002565" lon="9.096251167904118"><ele>441.0</ele><time>2026-05-01T13:37:28.999Z</time></trkpt><trkpt lat="44.804063139130015" lon="9.09611327422887"><ele>435.0</ele><time>2026-05-01T13:37:29.999Z</time></trkpt><trkpt lat="44.80401822912367" lon="9.095963710887016"><ele>435.0</ele><time>2026-05-01T13:37:30.999Z</time></trkpt><trkpt lat="44.803983750767635" lon="9.095797012093687"><ele>435.0</ele><time>2026-05-01T13:37:32Z</time></trkpt><trkpt lat="44.803955894103865" lon="9.095606206094745"><ele>435.0</ele><time>2026-05-01T13:37:33Z</time></trkpt><trkpt lat="44.803930090573054" lon="9.095416242437006"><ele>435.0</ele><time>2026-05-01T13:37:34Z</time></trkpt><trkpt lat="44.80390534557301" lon="9.095230239839399"><ele>435.5</ele><time>2026-05-01T13:37:35Z</time></trkpt><trkpt lat="44.80389487802546" lon="9.095046704253976"><ele>436.0</ele><time>2026-05-01T13:37:36Z</time></trkpt><trkpt lat="44.803899807016535" lon="9.094868385820849"><ele>436.5</ele><time>2026-05-01T13:37:37Z</time></trkpt><trkpt lat="44.80390216199053" lon="9.094690743152045"><ele>437.0</ele><time>2026-05-01T13:37:38Z</time></trkpt><trkpt lat="44.8039060983078" lon="9.094531280692976"><ele>435.8333333333333</ele><time>2026-05-01T13:37:39Z</time></trkpt><trkpt lat="44.80392520808458" lon="9.09440575273041"><ele>434.66666666666663</ele><time>2026-05-01T13:37:40Z</time></trkpt><trkpt lat="44.80396965144759" lon="9.094297870369342"><ele>433.5</ele><time>2026-05-01T13:37:41Z</time></trkpt><trkpt lat="44.80402410771003" lon="9.094199524152069"><ele>432.33333333333337</ele><time>2026-05-01T13:37:42Z</time></trkpt><trkpt lat="44.804053846477075" lon="9.094099798262892"><ele>431.1666666666667</ele><time>2026-05-01T13:37:43Z</time></trkpt><trkpt lat="44.804056194275915" lon="9.09399820627552"><ele>430.0</ele><time>2026-05-01T13:37:44Z</time></trkpt><trkpt lat="44.804037431062305" lon="9.093885855579488"><ele>426.6666666666667</ele><time>2026-05-01T13:37:45Z</time></trkpt><trkpt lat="44.80401280265317" lon="9.093766723733154"><ele>423.33333333333337</ele><time>2026-05-01T13:37:46Z</time></trkpt><trkpt lat="44.80398422017246" lon="9.09365257389233"><ele>420.0</ele><time>2026-05-01T13:37:47Z</time></trkpt><trkpt lat="44.80393628217261" lon="9.093563556491459"><ele>416.66666666666663</ele><time>2026-05-01T13:37:48Z</time></trkpt><trkpt lat="44.80386128545019" lon="9.093506025845477"><ele>413.3333333333333</ele><time>2026-05-01T13:37:49Z</time></trkpt><trkpt lat="44.80377102428481" lon="9.09348191816716"><ele>410.0</ele><time>2026-05-01T13:37:50Z</time></trkpt><trkpt lat="44.803672726859325" lon="9.09349948038602"><ele>409.99999999999994</ele><time>2026-05-01T13:37:51Z</time></trkpt><trkpt lat="44.803581177168454" lon="9.093530350610358"><ele>410.0</ele><time>2026-05-01T13:37:52.001Z</time></trkpt><trkpt lat="44.80351628154423" lon="9.09359408600335"><ele>410.0</ele><time>2026-05-01T13:37:53.001Z</time></trkpt><trkpt lat="44.80347155603813" lon="9.093671320845948"><ele>410.0</ele><time>2026-05-01T13:37:54.001Z</time></trkpt><trkpt lat="44.80344544010011" lon="9.093758785145134"><ele>409.99999999999994</ele><time>2026-05-01T13:37:55.001Z</time></trkpt><trkpt lat="44.803487989590444" lon="9.09387885188697"><ele>410.0</ele><time>2026-05-01T13:37:56.001Z</time></trkpt><trkpt lat="44.80354145766626" lon="9.093994816925909"><ele>407.4</ele><time>2026-05-01T13:37:57.001Z</time></trkpt><trkpt lat="44.80357676969853" lon="9.094132351375922"><ele>404.8</ele><time>2026-05-01T13:37:58.001Z</time></trkpt><trkpt lat="44.80358032467556" lon="9.094267223804676"><ele>402.20000000000005</ele><time>2026-05-01T13:37:59.001Z</time></trkpt><trkpt lat="44.80356874535702" lon="9.094414548163062"><ele>399.6</ele><time>2026-05-01T13:38:00.001Z</time></trkpt><trkpt lat="44.80353886619504" lon="9.09456205101425"><ele>397.0</ele><time>2026-05-01T13:38:01.001Z</time></trkpt><trkpt lat="44.80349011344708" lon="9.094686399528017"><ele>397.0</ele><time>2026-05-01T13:38:02.001Z</time></trkpt><trkpt lat="44.803424999459104" lon="9.094811913836335"><ele>397.0</ele><time>2026-05-01T13:38:03.001Z</time></trkpt><trkpt lat="44.803353507376805" lon="9.094923233413114"><ele>397.0</ele><time>2026-05-01T13:38:04.001Z</time></trkpt><trkpt lat="44.80328816668702" lon="9.095043625770069"><ele>397.0</ele><time>2026-05-01T13:38:05.001Z</time></trkpt><trkpt lat="44.80326550535506" lon="9.09518651629765"><ele>397.0</ele><time>2026-05-01T13:38:06.001Z</time></trkpt><trkpt lat="44.80323878687047" lon="9.095309955705536"><ele>397.50000000000006</ele><time>2026-05-01T13:38:07.001Z</time></trkpt><trkpt lat="44.8031897415087" lon="9.095392713568069"><ele>398.0</ele><time>2026-05-01T13:38:08.001Z</time></trkpt><trkpt lat="44.80315169018579" lon="9.095472370260017"><ele>398.5</ele><time>2026-05-01T13:38:09.001Z</time></trkpt><trkpt lat="44.803074701992074" lon="9.095458436908476"><ele>399.0</ele><time>2026-05-01T13:38:10.001Z</time></trkpt><trkpt lat="44.80295472724722" lon="9.095395201083475"><ele>399.50000000000006</ele><time>2026-05-01T13:38:12.001Z</time></trkpt><trkpt lat="44.802872887540026" lon="9.095360194391889"><ele>400.0</ele><time>2026-05-01T13:38:13.001Z</time></trkpt><trkpt lat="44.80283802482609" lon="9.09522195592556"><ele>400.0</ele><time>2026-05-01T13:38:14.001Z</time></trkpt><trkpt lat="44.802773576986695" lon="9.095104213839239"><ele>400.0</ele><time>2026-05-01T13:38:15.001Z</time></trkpt><trkpt lat="44.8027174304864" lon="9.094957312434918"><ele>400.0</ele><time>2026-05-01T13:38:16.001Z</time></trkpt><trkpt lat="44.80265833353234" lon="9.094797714396028"><ele>400.0</ele><time>2026-05-01T13:38:17.001Z</time></trkpt><trkpt lat="44.80260335204094" lon="9.09463938949913"><ele>398.4</ele><time>2026-05-01T13:38:18.001Z</time></trkpt><trkpt lat="44.80255003586299" lon="9.094494320657052"><ele>396.8</ele><time>2026-05-01T13:38:19.001Z</time></trkpt><trkpt lat="44.802499345831926" lon="9.094346724723158"><ele>395.20000000000005</ele><time>2026-05-01T13:38:20.002Z</time></trkpt><trkpt lat="44.80243601183963" lon="9.094224793547554"><ele>393.6</ele><time>2026-05-01T13:38:21.002Z</time></trkpt><trkpt lat="44.80236303895933" lon="9.09411903105933"><ele>392.0</ele><time>2026-05-01T13:38:22.002Z</time></trkpt><trkpt lat="44.802263356634825" lon="9.094062547064437"><ele>391.25</ele><time>2026-05-01T13:38:23.002Z</time></trkpt><trkpt lat="44.80214377954851" lon="9.093950812526241"><ele>390.5</ele><time>2026-05-01T13:38:24.002Z</time></trkpt><trkpt lat="44.802033992744505" lon="9.093830206430809"><ele>389.75</ele><time>2026-05-01T13:38:25.002Z</time></trkpt><trkpt lat="44.801920922301235" lon="9.093721586659173"><ele>389.0</ele><time>2026-05-01T13:38:26.002Z</time></trkpt><trkpt lat="44.801823830733966" lon="9.093607043531406"><ele>388.2</ele><time>2026-05-01T13:38:27.002Z</time></trkpt><trkpt lat="44.80173538166608" lon="9.09349233217749"><ele>387.4</ele><time>2026-05-01T13:38:28.002Z</time></trkpt><trkpt lat="44.80164831921796" lon="9.093401564935627"><ele>386.6</ele><time>2026-05-01T13:38:29.002Z</time></trkpt><trkpt lat="44.801555015887956" lon="9.093331557948025"><ele>385.8</ele><time>2026-05-01T13:38:30.002Z</time></trkpt><trkpt lat="44.80144477998116" lon="9.093288714734381"><ele>385.0</ele><time>2026-05-01T13:38:31.002Z</time></trkpt><trkpt lat="44.80131250101507" lon="9.093275434727573"><ele>385.25</ele><time>2026-05-01T13:38:32.002Z</time></trkpt><trkpt lat="44.801170276826234" lon="9.093239192351325"><ele>385.5</ele><time>2026-05-01T13:38:33.002Z</time></trkpt><trkpt lat="44.80102519275509" lon="9.093202600876456"><ele>385.75</ele><time>2026-05-01T13:38:34.002Z</time></trkpt><trkpt lat="44.80087365585939" lon="9.093145057570359"><ele>386.0</ele><time>2026-05-01T13:38:35.002Z</time></trkpt><trkpt lat="44.80072959867097" lon="9.093085416553558"><ele>384.0</ele><time>2026-05-01T13:38:36.002Z</time></trkpt><trkpt lat="44.80059970202329" lon="9.093027548620839"><ele>382.0</ele><time>2026-05-01T13:38:37.002Z</time></trkpt><trkpt lat="44.8004746622804" lon="9.09299149397258"><ele>380.0</ele><time>2026-05-01T13:38:38.002Z</time></trkpt><trkpt lat="44.800363073577756" lon="9.092920002609434"><ele>378.0</ele><time>2026-05-01T13:38:39.002Z</time></trkpt><trkpt lat="44.80024568197349" lon="9.092880061145967"><ele>377.0</ele><time>2026-05-01T13:38:40.002Z</time></trkpt><trkpt lat="44.800131396516974" lon="9.09289080798464"><ele>376.0</ele><time>2026-05-01T13:38:41.002Z</time></trkpt><trkpt lat="44.800015161630405" lon="9.092883623428905"><ele>375.0</ele><time>2026-05-01T13:38:42.002Z</time></trkpt><trkpt lat="44.79989188081936" lon="9.092922904999114"><ele>374.0</ele><time>2026-05-01T13:38:43.002Z</time></trkpt><trkpt lat="44.79978274890672" lon="9.092969662379087"><ele>374.0</ele><time>2026-05-01T13:38:44.002Z</time></trkpt><trkpt lat="44.799688259866464" lon="9.093006972207082"><ele>374.0</ele><time>2026-05-01T13:38:45.002Z</time></trkpt><trkpt lat="44.79961757295881" lon="9.093033579267024"><ele>374.0</ele><time>2026-05-01T13:38:46.002Z</time></trkpt><trkpt lat="44.79956150813318" lon="9.09309603333918"><ele>374.0</ele><time>2026-05-01T13:38:48.002Z</time></trkpt><trkpt lat="44.79947930613618" lon="9.093166343204695"><ele>374.0</ele><time>2026-05-01T13:38:52.002Z</time></trkpt><trkpt lat="44.799370558533084" lon="9.092975622094032"><ele>373.0</ele><time>2026-05-01T13:38:55.003Z</time></trkpt><trkpt lat="44.79928522371766" lon="9.093008734901009"><ele>372.0</ele><time>2026-05-01T13:38:58.003Z</time></trkpt><trkpt lat="44.799193428832645" lon="9.09303914812289"><ele>371.0</ele><time>2026-05-01T13:39:00.003Z</time></trkpt><trkpt lat="44.79909258132953" lon="9.093061915608422"><ele>370.0</ele><time>2026-05-01T13:39:02.003Z</time></trkpt><trkpt lat="44.79901642527034" lon="9.093064263625559"><ele>369.0</ele><time>2026-05-01T13:39:05.003Z</time></trkpt><trkpt lat="44.79894973794733" lon="9.093010473460144"><ele>368.0</ele><time>2026-05-01T13:39:10.003Z</time></trkpt><trkpt lat="44.79887681613989" lon="9.093006631235424"><ele>368.0</ele><time>2026-05-01T13:39:12.003Z</time></trkpt><trkpt lat="44.79880132279283" lon="9.093010169984604"><ele>368.0</ele><time>2026-05-01T13:39:15.003Z</time></trkpt><trkpt lat="44.79873483919377" lon="9.093013807280592"><ele>368.0</ele><time>2026-05-01T13:39:18.003Z</time></trkpt><trkpt lat="44.79866032398583" lon="9.093018885707677"><ele>368.0</ele><time>2026-05-01T13:39:50Z</time></trkpt><trkpt lat="44.79858692483191" lon="9.093023888041603"><ele>368.0</ele><time>2026-05-01T13:39:54Z</time></trkpt><trkpt lat="44.79852261810427" lon="9.093029817609139"><ele>368.0</ele><time>2026-05-01T13:39:57.001Z</time></trkpt><trkpt lat="44.79844289448351" lon="9.093036802981636"><ele>368.0</ele><time>2026-05-01T13:40:02.001Z</time></trkpt><trkpt lat="44.79837566240269" lon="9.093042693849771"><ele>368.0</ele><time>2026-05-01T13:40:06.001Z</time></trkpt><trkpt lat="44.79827699325509" lon="9.093052764067508"><ele>368.0</ele><time>2026-05-01T13:40:11.001Z</time></trkpt><trkpt lat="44.79820677960943" lon="9.093061584361408"><ele>368.0</ele><time>2026-05-01T13:40:12.001Z</time></trkpt><trkpt lat="44.7981255532113" lon="9.093074517986379"><ele>368.0</ele><time>2026-05-01T13:40:14.001Z</time></trkpt><trkpt lat="44.798041715142716" lon="9.093089844232166"><ele>368.0</ele><time>2026-05-01T13:40:16.001Z</time></trkpt><trkpt lat="44.79814035315802" lon="9.09307181239996"><ele>368.0</ele><time>2026-05-01T13:41:42.001Z</time></trkpt><trkpt lat="44.798240172634564" lon="9.093057018758314"><ele>368.0</ele><time>2026-05-01T13:41:44.001Z</time></trkpt><trkpt lat="44.7983059464176" lon="9.093049795147722"><ele>368.0</ele><time>2026-05-01T13:41:57.001Z</time></trkpt><trkpt lat="44.79837475530439" lon="9.093042773338135"><ele>368.0</ele><time>2026-05-01T13:42:04.001Z</time></trkpt><trkpt lat="44.7984170927311" lon="9.09317881687591"><ele>368.0</ele><time>2026-05-01T13:43:34.999Z</time></trkpt><trkpt lat="44.79835287438026" lon="9.093185353541113"><ele>368.0</ele><time>2026-05-01T13:48:15.001Z</time></trkpt><trkpt lat="44.79826596281541" lon="9.093177270079668"><ele>368.0</ele><time>2026-05-01T13:48:17.001Z</time></trkpt><trkpt lat="44.79820286326313" lon="9.093062119835714"><ele>368.0</ele><time>2026-05-01T13:48:18.001Z</time></trkpt><trkpt lat="44.79809397545003" lon="9.093080290730027"><ele>368.0</ele><time>2026-05-01T13:48:20.001Z</time></trkpt><trkpt lat="44.798028212506736" lon="9.093092312600108"><ele>368.0</ele><time>2026-05-01T13:48:22.001Z</time></trkpt><trkpt lat="44.797940881762045" lon="9.093132388700395"><ele>368.0</ele><time>2026-05-01T13:49:27.003Z</time></trkpt><trkpt lat="44.79785364592263" lon="9.093225022269882"><ele>368.0</ele><time>2026-05-01T13:49:29.003Z</time></trkpt><trkpt lat="44.797803558349905" lon="9.093289624076824"><ele>368.0</ele><time>2026-05-01T13:49:30.003Z</time></trkpt><trkpt lat="44.79774618796254" lon="9.093367076030685"><ele>370.0</ele><time>2026-05-01T13:49:31.003Z</time></trkpt><trkpt lat="44.79765486347511" lon="9.093492413487748"><ele>372.0</ele><time>2026-05-01T13:49:33.003Z</time></trkpt><trkpt lat="44.797580615780504" lon="9.09357163930652"><ele>374.0</ele><time>2026-05-01T13:49:35.003Z</time></trkpt><trkpt lat="44.7974787844475" lon="9.093590770038324"><ele>376.0</ele><time>2026-05-01T13:49:37.003Z</time></trkpt><trkpt lat="44.79741349965741" lon="9.093601465622474"><ele>378.0</ele><time>2026-05-01T13:49:38.003Z</time></trkpt><trkpt lat="44.79735179644346" lon="9.09363335128004"><ele>378.0</ele><time>2026-05-01T13:49:39.003Z</time></trkpt><trkpt lat="44.79724518209654" lon="9.093657955069304"><ele>378.0</ele><time>2026-05-01T13:49:41.003Z</time></trkpt><trkpt lat="44.797140113456344" lon="9.093728151323754"><ele>378.0</ele><time>2026-05-01T13:49:43.003Z</time></trkpt><trkpt lat="44.797061030890184" lon="9.093844633497932"><ele>378.0</ele><time>2026-05-01T13:49:45.003Z</time></trkpt><trkpt lat="44.79697275494386" lon="9.093978011689021"><ele>378.0</ele><time>2026-05-01T13:49:47.003Z</time></trkpt><trkpt lat="44.796905923116825" lon="9.094018795415582"><ele>378.0</ele><time>2026-05-01T13:49:48.003Z</time></trkpt><trkpt lat="44.79684296119591" lon="9.094068994105267"><ele>378.0</ele><time>2026-05-01T13:49:49.003Z</time></trkpt><trkpt lat="44.796764749532485" lon="9.094136291834566"><ele>378.0</ele><time>2026-05-01T13:49:50.003Z</time></trkpt><trkpt lat="44.796691601872055" lon="9.094235287717995"><ele>378.0</ele><time>2026-05-01T13:49:51.003Z</time></trkpt><trkpt lat="44.796623218461015" lon="9.094327336483524"><ele>378.0</ele><time>2026-05-01T13:49:52.003Z</time></trkpt><trkpt lat="44.79656259713783" lon="9.094430470439237"><ele>379.0</ele><time>2026-05-01T13:49:53.001Z</time></trkpt><trkpt lat="44.79649464400792" lon="9.094506880953022"><ele>380.0</ele><time>2026-05-01T13:49:54.001Z</time></trkpt><trkpt lat="44.79640987094322" lon="9.094543488780301"><ele>381.0</ele><time>2026-05-01T13:49:55.001Z</time></trkpt><trkpt lat="44.796327412166356" lon="9.094582675247738"><ele>382.0</ele><time>2026-05-01T13:49:56.001Z</time></trkpt><trkpt lat="44.79624112951291" lon="9.094616277142856"><ele>383.0</ele><time>2026-05-01T13:49:57.001Z</time></trkpt><trkpt lat="44.7961471290275" lon="9.094655711105725"><ele>383.0</ele><time>2026-05-01T13:49:58.001Z</time></trkpt><trkpt lat="44.79605909182005" lon="9.094693633303722"><ele>383.0</ele><time>2026-05-01T13:49:59.001Z</time></trkpt><trkpt lat="44.79599587092962" lon="9.09474064367648"><ele>383.0</ele><time>2026-05-01T13:50:00.001Z</time></trkpt><trkpt lat="44.79593269062681" lon="9.094756465452232"><ele>383.0</ele><time>2026-05-01T13:50:01.001Z</time></trkpt><trkpt lat="44.795843116084285" lon="9.094771736578634"><ele>383.0</ele><time>2026-05-01T13:50:03.001Z</time></trkpt><trkpt lat="44.79576600478638" lon="9.094781125086513"><ele>383.0</ele><time>2026-05-01T13:50:06Z</time></trkpt><trkpt lat="44.79574626012056" lon="9.094923200805251"><ele>384.0</ele><time>2026-05-01T13:50:08Z</time></trkpt><trkpt lat="44.795746999541876" lon="9.095106821831932"><ele>385.0</ele><time>2026-05-01T13:50:10.001Z</time></trkpt><trkpt lat="44.79575864052721" lon="9.09522614683837"><ele>386.0</ele><time>2026-05-01T13:50:11.001Z</time></trkpt><trkpt lat="44.795775560132896" lon="9.09533781073002"><ele>387.0</ele><time>2026-05-01T13:50:12.001Z</time></trkpt><trkpt lat="44.795799596590584" lon="9.095457007899586"><ele>388.0</ele><time>2026-05-01T13:50:13.001Z</time></trkpt><trkpt lat="44.79584698400005" lon="9.095570107201917"><ele>388.0</ele><time>2026-05-01T13:50:14.001Z</time></trkpt><trkpt lat="44.79588188771084" lon="9.095702348587311"><ele>388.0</ele><time>2026-05-01T13:50:15.001Z</time></trkpt><trkpt lat="44.79591654137257" lon="9.095843597905118"><ele>388.0</ele><time>2026-05-01T13:50:16.001Z</time></trkpt><trkpt lat="44.79594550086304" lon="9.095994986513436"><ele>388.0</ele><time>2026-05-01T13:50:17.001Z</time></trkpt><trkpt lat="44.795971888482704" lon="9.096153187812632"><ele>388.0</ele><time>2026-05-01T13:50:18.001Z</time></trkpt><trkpt lat="44.79598850199831" lon="9.09631792343849"><ele>388.5</ele><time>2026-05-01T13:50:19.001Z</time></trkpt><trkpt lat="44.79600030981449" lon="9.096486378891992"><ele>389.0</ele><time>2026-05-01T13:50:20.001Z</time></trkpt><trkpt lat="44.79600694269984" lon="9.096663268425322"><ele>389.5</ele><time>2026-05-01T13:50:21.001Z</time></trkpt><trkpt lat="44.796017485740364" lon="9.096824838089955"><ele>390.0</ele><time>2026-05-01T13:50:22.001Z</time></trkpt><trkpt lat="44.79603050194288" lon="9.096993756558442"><ele>390.0</ele><time>2026-05-01T13:50:23.001Z</time></trkpt><trkpt lat="44.79603753088594" lon="9.097163750369015"><ele>390.0</ele><time>2026-05-01T13:50:24.001Z</time></trkpt><trkpt lat="44.79604190352063" lon="9.097341564934661"><ele>390.0</ele><time>2026-05-01T13:50:25.001Z</time></trkpt><trkpt lat="44.796045726613315" lon="9.097526906150211"><ele>390.0</ele><time>2026-05-01T13:50:26.001Z</time></trkpt><trkpt lat="44.796045545836755" lon="9.09771711302805"><ele>390.0</ele><time>2026-05-01T13:50:27.001Z</time></trkpt><trkpt lat="44.796046466386464" lon="9.097912891831587"><ele>390.0</ele><time>2026-05-01T13:50:28.001Z</time></trkpt><trkpt lat="44.79604619662141" lon="9.098111776859039"><ele>390.0</ele><time>2026-05-01T13:50:29.001Z</time></trkpt><trkpt lat="44.796048893641505" lon="9.098316345326854"><ele>390.0</ele><time>2026-05-01T13:50:30.001Z</time></trkpt><trkpt lat="44.796055128776075" lon="9.098525639923285"><ele>389.33333333333337</ele><time>2026-05-01T13:50:31.001Z</time></trkpt><trkpt lat="44.79606056030682" lon="9.0987395245014"><ele>388.6666666666667</ele><time>2026-05-01T13:50:32.001Z</time></trkpt><trkpt lat="44.796066691206946" lon="9.09895934103496"><ele>388.0</ele><time>2026-05-01T13:50:33.001Z</time></trkpt><trkpt lat="44.79607661724432" lon="9.099179950291004"><ele>389.33333333333337</ele><time>2026-05-01T13:50:34.001Z</time></trkpt><trkpt lat="44.796087670059904" lon="9.099402504052494"><ele>390.66666666666663</ele><time>2026-05-01T13:50:35.001Z</time></trkpt><trkpt lat="44.796103285151375" lon="9.099614055396577"><ele>392.0</ele><time>2026-05-01T13:50:36.001Z</time></trkpt><trkpt lat="44.79612348685265" lon="9.099823438520092"><ele>392.0</ele><time>2026-05-01T13:50:37.001Z</time></trkpt><trkpt lat="44.79614792047103" lon="9.100034399045732"><ele>392.0</ele><time>2026-05-01T13:50:38.001Z</time></trkpt><trkpt lat="44.79616097051142" lon="9.100230287004596"><ele>392.0</ele><time>2026-05-01T13:50:39.001Z</time></trkpt><trkpt lat="44.79616450211459" lon="9.100414209283901"><ele>392.0</ele><time>2026-05-01T13:50:40.001Z</time></trkpt><trkpt lat="44.7961800175202" lon="9.100606403486772"><ele>392.0</ele><time>2026-05-01T13:50:41.001Z</time></trkpt><trkpt lat="44.796181772193385" lon="9.100794478618955"><ele>392.0</ele><time>2026-05-01T13:50:42.001Z</time></trkpt><trkpt lat="44.79616323761628" lon="9.100974422959888"><ele>392.0</ele><time>2026-05-01T13:50:43.001Z</time></trkpt><trkpt lat="44.796129438436836" lon="9.101140141247877"><ele>392.0</ele><time>2026-05-01T13:50:44.001Z</time></trkpt><trkpt lat="44.79607502185865" lon="9.101301253478702"><ele>392.0</ele><time>2026-05-01T13:50:45.001Z</time></trkpt><trkpt lat="44.79600545159658" lon="9.10145761669874"><ele>392.0</ele><time>2026-05-01T13:50:46.001Z</time></trkpt><trkpt lat="44.795922027565666" lon="9.101606888247902"><ele>392.0</ele><time>2026-05-01T13:50:47.001Z</time></trkpt><trkpt lat="44.79583584411888" lon="9.101751891836553"><ele>392.0</ele><time>2026-05-01T13:50:48.001Z</time></trkpt><trkpt lat="44.795754368246804" lon="9.101900074218458"><ele>391.5</ele><time>2026-05-01T13:50:49.001Z</time></trkpt><trkpt lat="44.79566899280966" lon="9.102049913490116"><ele>391.0</ele><time>2026-05-01T13:50:50.001Z</time></trkpt><trkpt lat="44.795602985329566" lon="9.102210860272688"><ele>390.5</ele><time>2026-05-01T13:50:51.001Z</time></trkpt><trkpt lat="44.7955502348657" lon="9.102372935232681"><ele>390.0</ele><time>2026-05-01T13:50:52.001Z</time></trkpt><trkpt lat="44.79549643736157" lon="9.102527782382753"><ele>390.0</ele><time>2026-05-01T13:50:53.001Z</time></trkpt><trkpt lat="44.79547199284406" lon="9.102689866704225"><ele>390.0</ele><time>2026-05-01T13:50:54.001Z</time></trkpt><trkpt lat="44.7954644693224" lon="9.10285728117091"><ele>390.0</ele><time>2026-05-01T13:50:55.001Z</time></trkpt><trkpt lat="44.79546710431053" lon="9.103019880606013"><ele>390.0</ele><time>2026-05-01T13:50:56.001Z</time></trkpt><trkpt lat="44.795481933499765" lon="9.10316905378278"><ele>390.2</ele><time>2026-05-01T13:50:57.001Z</time></trkpt><trkpt lat="44.79549535877134" lon="9.103302833481484"><ele>390.4</ele><time>2026-05-01T13:50:58.001Z</time></trkpt><trkpt lat="44.79552394873365" lon="9.103420539181592"><ele>390.6</ele><time>2026-05-01T13:50:59.001Z</time></trkpt><trkpt lat="44.79558897393726" lon="9.103533117144897"><ele>390.8</ele><time>2026-05-01T13:51:00.001Z</time></trkpt><trkpt lat="44.795697055703826" lon="9.103641112451118"><ele>391.0</ele><time>2026-05-01T13:51:01.002Z</time></trkpt><trkpt lat="44.795789921540376" lon="9.10376193169742"><ele>391.0</ele><time>2026-05-01T13:51:02.002Z</time></trkpt><trkpt lat="44.79589001692454" lon="9.103889716173818"><ele>391.0</ele><time>2026-05-01T13:51:03.002Z</time></trkpt><trkpt lat="44.79599202164814" lon="9.104019646229982"><ele>391.0</ele><time>2026-05-01T13:51:04.002Z</time></trkpt><trkpt lat="44.79609509215433" lon="9.104156733979101"><ele>391.0</ele><time>2026-05-01T13:51:05.002Z</time></trkpt><trkpt lat="44.79620165263306" lon="9.104293260439816"><ele>391.25</ele><time>2026-05-01T13:51:06.002Z</time></trkpt><trkpt lat="44.79631141039553" lon="9.104430588693317"><ele>391.5</ele><time>2026-05-01T13:51:07.002Z</time></trkpt><trkpt lat="44.79641840496746" lon="9.10456785850454"><ele>391.75</ele><time>2026-05-01T13:51:08.002Z</time></trkpt><trkpt lat="44.796515420629426" lon="9.104698262169267"><ele>392.0</ele><time>2026-05-01T13:51:09.002Z</time></trkpt><trkpt lat="44.79660530969599" lon="9.104817343074734"><ele>392.8</ele><time>2026-05-01T13:51:10.002Z</time></trkpt><trkpt lat="44.796687385308005" lon="9.104926469453845"><ele>393.6</ele><time>2026-05-01T13:51:11.002Z</time></trkpt><trkpt lat="44.796758186479494" lon="9.105030999921805"><ele>394.40000000000003</ele><time>2026-05-01T13:51:12.002Z</time></trkpt><trkpt lat="44.79681373080349" lon="9.105139877191501"><ele>395.20000000000005</ele><time>2026-05-01T13:51:13.002Z</time></trkpt><trkpt lat="44.79684485930834" lon="9.105272103176247"><ele>396.0</ele><time>2026-05-01T13:51:14.002Z</time></trkpt><trkpt lat="44.7968356623109" lon="9.10541432381544"><ele>396.0</ele><time>2026-05-01T13:51:15.002Z</time></trkpt><trkpt lat="44.79683383591494" lon="9.10555362946058"><ele>396.0</ele><time>2026-05-01T13:51:16.002Z</time></trkpt><trkpt lat="44.796810914923775" lon="9.105698271744444"><ele>396.0</ele><time>2026-05-01T13:51:17.002Z</time></trkpt><trkpt lat="44.79677725369341" lon="9.105864376041911"><ele>396.0</ele><time>2026-05-01T13:51:18.002Z</time></trkpt><trkpt lat="44.79674442176083" lon="9.106026032725277"><ele>396.0</ele><time>2026-05-01T13:51:19.002Z</time></trkpt><trkpt lat="44.796711952919665" lon="9.106185903422814"><ele>396.6</ele><time>2026-05-01T13:51:20.002Z</time></trkpt><trkpt lat="44.79667523274241" lon="9.106332908602612"><ele>397.20000000000005</ele><time>2026-05-01T13:51:21.002Z</time></trkpt><trkpt lat="44.796622030812564" lon="9.106458871366916"><ele>397.79999999999995</ele><time>2026-05-01T13:51:22.002Z</time></trkpt><trkpt lat="44.79655710670957" lon="9.106582261415106"><ele>398.4</ele><time>2026-05-01T13:51:23.002Z</time></trkpt><trkpt lat="44.796479512931406" lon="9.106719260711516"><ele>399.0</ele><time>2026-05-01T13:51:24.002Z</time></trkpt><trkpt lat="44.796407711125845" lon="9.10684563388671"><ele>399.25</ele><time>2026-05-01T13:51:25.002Z</time></trkpt><trkpt lat="44.796326701592086" lon="9.106989322988259"><ele>399.5</ele><time>2026-05-01T13:51:26.002Z</time></trkpt><trkpt lat="44.7962479916434" lon="9.107136258388403"><ele>399.75</ele><time>2026-05-01T13:51:27.002Z</time></trkpt><trkpt lat="44.79618329722793" lon="9.10729646591323"><ele>400.0</ele><time>2026-05-01T13:51:28.002Z</time></trkpt><trkpt lat="44.7960943137857" lon="9.107427506822255"><ele>399.5</ele><time>2026-05-01T13:51:29.002Z</time></trkpt><trkpt lat="44.796037500328644" lon="9.107577967307838"><ele>399.0</ele><time>2026-05-01T13:51:30.002Z</time></trkpt><trkpt lat="44.79598001155144" lon="9.107722685168959"><ele>398.5</ele><time>2026-05-01T13:51:31.002Z</time></trkpt><trkpt lat="44.79594583589205" lon="9.10787553443778"><ele>398.0</ele><time>2026-05-01T13:51:32.002Z</time></trkpt><trkpt lat="44.79592603607493" lon="9.108044867632149"><ele>399.25</ele><time>2026-05-01T13:51:33.002Z</time></trkpt><trkpt lat="44.79590788995132" lon="9.108222873271156"><ele>400.5</ele><time>2026-05-01T13:51:34.002Z</time></trkpt><trkpt lat="44.79589504156357" lon="9.108404269585042"><ele>401.75</ele><time>2026-05-01T13:51:35.002Z</time></trkpt><trkpt lat="44.79588366349337" lon="9.108581037853238"><ele>403.0</ele><time>2026-05-01T13:51:36.002Z</time></trkpt><trkpt lat="44.79583357350825" lon="9.108729003583992"><ele>403.0</ele><time>2026-05-01T13:51:37.002Z</time></trkpt><trkpt lat="44.79578388275055" lon="9.1088919109465"><ele>403.0</ele><time>2026-05-01T13:51:38.002Z</time></trkpt><trkpt lat="44.79572302298114" lon="9.10906323683758"><ele>403.0</ele><time>2026-05-01T13:51:39.002Z</time></trkpt><trkpt lat="44.795674265700534" lon="9.109262251880596"><ele>403.0</ele><time>2026-05-01T13:51:40.003Z</time></trkpt><trkpt lat="44.79562349455238" lon="9.109460847190826"><ele>403.33333333333337</ele><time>2026-05-01T13:51:41.003Z</time></trkpt><trkpt lat="44.79558455014565" lon="9.10967408070623"><ele>403.66666666666663</ele><time>2026-05-01T13:51:42.003Z</time></trkpt><trkpt lat="44.79554469704575" lon="9.1098881852295"><ele>404.0</ele><time>2026-05-01T13:51:43.003Z</time></trkpt><trkpt lat="44.7955003314655" lon="9.110102036307131"><ele>405.66666666666663</ele><time>2026-05-01T13:51:44.003Z</time></trkpt><trkpt lat="44.7954586193397" lon="9.11031449997758"><ele>407.33333333333337</ele><time>2026-05-01T13:51:45.003Z</time></trkpt><trkpt lat="44.79541207650519" lon="9.110532542570889"><ele>409.0</ele><time>2026-05-01T13:51:46.003Z</time></trkpt><trkpt lat="44.79536534169386" lon="9.110753924409016"><ele>409.33333333333337</ele><time>2026-05-01T13:51:47.003Z</time></trkpt><trkpt lat="44.79531175848781" lon="9.110983697850022"><ele>409.66666666666663</ele><time>2026-05-01T13:51:48.003Z</time></trkpt><trkpt lat="44.79524740646048" lon="9.111211097310866"><ele>410.0</ele><time>2026-05-01T13:51:49.003Z</time></trkpt><trkpt lat="44.79518339297368" lon="9.111420871562217"><ele>409.3333333333333</ele><time>2026-05-01T13:51:50.003Z</time></trkpt><trkpt lat="44.795124654921494" lon="9.111630694074016"><ele>408.66666666666663</ele><time>2026-05-01T13:51:51.003Z</time></trkpt><trkpt lat="44.79506491330855" lon="9.111855593573784"><ele>408.0</ele><time>2026-05-01T13:51:52.003Z</time></trkpt><trkpt lat="44.79500516233508" lon="9.11208518880363"><ele>408.0</ele><time>2026-05-01T13:51:53.003Z</time></trkpt><trkpt lat="44.7949396187261" lon="9.112320666755036"><ele>408.0</ele><time>2026-05-01T13:51:54.003Z</time></trkpt><trkpt lat="44.794871135586384" lon="9.11254803134245"><ele>408.0</ele><time>2026-05-01T13:51:55.003Z</time></trkpt><trkpt lat="44.79480276554421" lon="9.112784027757638"><ele>409.0</ele><time>2026-05-01T13:51:56.003Z</time></trkpt><trkpt lat="44.794735435982005" lon="9.113024600988087"><ele>410.0</ele><time>2026-05-01T13:51:57.003Z</time></trkpt><trkpt lat="44.79466625349509" lon="9.113271636312003"><ele>411.0</ele><time>2026-05-01T13:51:58.003Z</time></trkpt><trkpt lat="44.79459811580297" lon="9.11351696785005"><ele>412.0</ele><time>2026-05-01T13:51:59Z</time></trkpt><trkpt lat="44.79452842272941" lon="9.113756381004196"><ele>413.0</ele><time>2026-05-01T13:52:00Z</time></trkpt><trkpt lat="44.79445972948415" lon="9.113993993227398"><ele>414.0</ele><time>2026-05-01T13:52:01Z</time></trkpt><trkpt lat="44.79439497284345" lon="9.114235782072463"><ele>414.66666666666663</ele><time>2026-05-01T13:52:02Z</time></trkpt><trkpt lat="44.794331525610644" lon="9.114467517447792"><ele>415.3333333333333</ele><time>2026-05-01T13:52:03Z</time></trkpt><trkpt lat="44.794270742913646" lon="9.114682081677394"><ele>416.0</ele><time>2026-05-01T13:52:04Z</time></trkpt><trkpt lat="44.794215135805906" lon="9.114878140321943"><ele>417.75</ele><time>2026-05-01T13:52:05Z</time></trkpt><trkpt lat="44.794141997534105" lon="9.115055270503781"><ele>419.5</ele><time>2026-05-01T13:52:06Z</time></trkpt><trkpt lat="44.7940753581298" lon="9.115211276921093"><ele>421.25</ele><time>2026-05-01T13:52:07Z</time></trkpt><trkpt lat="44.793986161308084" lon="9.115366981198932"><ele>423.0</ele><time>2026-05-01T13:52:08Z</time></trkpt><trkpt lat="44.79388386785647" lon="9.115465457993851"><ele>423.0</ele><time>2026-05-01T13:52:09Z</time></trkpt><trkpt lat="44.79379062341862" lon="9.115563525496574"><ele>423.0</ele><time>2026-05-01T13:52:10Z</time></trkpt><trkpt lat="44.79370379776355" lon="9.11567160162872"><ele>423.0</ele><time>2026-05-01T13:52:11Z</time></trkpt><trkpt lat="44.79360048403748" lon="9.11576740326445"><ele>423.0</ele><time>2026-05-01T13:52:12Z</time></trkpt><trkpt lat="44.793503537399815" lon="9.115872758397561"><ele>424.2</ele><time>2026-05-01T13:52:13Z</time></trkpt><trkpt lat="44.79341106644156" lon="9.115962733253472"><ele>425.4</ele><time>2026-05-01T13:52:14Z</time></trkpt><trkpt lat="44.79332868061946" lon="9.11604692143257"><ele>426.59999999999997</ele><time>2026-05-01T13:52:15Z</time></trkpt><trkpt lat="44.79324476589361" lon="9.116111207278236"><ele>427.79999999999995</ele><time>2026-05-01T13:52:16Z</time></trkpt><trkpt lat="44.79314860686252" lon="9.116203236395359"><ele>429.0</ele><time>2026-05-01T13:52:17Z</time></trkpt><trkpt lat="44.79305996255086" lon="9.116290174675687"><ele>429.0</ele><time>2026-05-01T13:52:18Z</time></trkpt><trkpt lat="44.792964835514866" lon="9.11638456096456"><ele>429.0</ele><time>2026-05-01T13:52:19Z</time></trkpt><trkpt lat="44.79286916943711" lon="9.116494163894272"><ele>429.0</ele><time>2026-05-01T13:52:20Z</time></trkpt><trkpt lat="44.79277908734576" lon="9.11662220828345"><ele>429.0</ele><time>2026-05-01T13:52:21Z</time></trkpt><trkpt lat="44.79269300356777" lon="9.116716494327978"><ele>429.0</ele><time>2026-05-01T13:52:22Z</time></trkpt><trkpt lat="44.79261582153512" lon="9.116811589321554"><ele>429.0</ele><time>2026-05-01T13:52:23Z</time></trkpt><trkpt lat="44.79254248955716" lon="9.11690194078016"><ele>429.0</ele><time>2026-05-01T13:52:24Z</time></trkpt><trkpt lat="44.79248277613482" lon="9.117006471818396"><ele>429.0</ele><time>2026-05-01T13:52:25Z</time></trkpt><trkpt lat="44.7924035227633" lon="9.117088290797211"><ele>429.0</ele><time>2026-05-01T13:52:26Z</time></trkpt><trkpt lat="44.792335754203194" lon="9.117202325043609"><ele>429.0</ele><time>2026-05-01T13:52:27Z</time></trkpt><trkpt lat="44.79226708955412" lon="9.117322335059393"><ele>429.0</ele><time>2026-05-01T13:52:28Z</time></trkpt><trkpt lat="44.79219329978954" lon="9.117451302627837"><ele>429.0</ele><time>2026-05-01T13:52:29Z</time></trkpt><trkpt lat="44.792114562011704" lon="9.117583395595828"><ele>429.0</ele><time>2026-05-01T13:52:30.001Z</time></trkpt><trkpt lat="44.7920333759466" lon="9.117727235588477"><ele>429.25</ele><time>2026-05-01T13:52:31.001Z</time></trkpt><trkpt lat="44.79194399124089" lon="9.117862773539638"><ele>429.5</ele><time>2026-05-01T13:52:32.001Z</time></trkpt><trkpt lat="44.79184920778266" lon="9.11799470432023"><ele>429.75</ele><time>2026-05-01T13:52:33.001Z</time></trkpt><trkpt lat="44.79174803198884" lon="9.118106741969253"><ele>430.0</ele><time>2026-05-01T13:52:34.001Z</time></trkpt><trkpt lat="44.79164850352339" lon="9.118243240415147"><ele>430.0</ele><time>2026-05-01T13:52:35.001Z</time></trkpt><trkpt lat="44.791534123741535" lon="9.118364041644265"><ele>430.0</ele><time>2026-05-01T13:52:36.001Z</time></trkpt><trkpt lat="44.79141032820269" lon="9.118477583878809"><ele>430.0</ele><time>2026-05-01T13:52:37.001Z</time></trkpt><trkpt lat="44.79129921672882" lon="9.118600618207601"><ele>430.0</ele><time>2026-05-01T13:52:38.001Z</time></trkpt><trkpt lat="44.79119609338663" lon="9.118724979859904"><ele>430.0</ele><time>2026-05-01T13:52:39.001Z</time></trkpt><trkpt lat="44.79109566977684" lon="9.118863136409106"><ele>430.0</ele><time>2026-05-01T13:52:40.001Z</time></trkpt><trkpt lat="44.79100607387152" lon="9.11901328367981"><ele>430.0</ele><time>2026-05-01T13:52:41.001Z</time></trkpt><trkpt lat="44.79093931138255" lon="9.119184751321743"><ele>430.0</ele><time>2026-05-01T13:52:42.001Z</time></trkpt><trkpt lat="44.79084850402712" lon="9.119337275428395"><ele>429.5</ele><time>2026-05-01T13:52:43.001Z</time></trkpt><trkpt lat="44.79077546644077" lon="9.119516805986384"><ele>429.0</ele><time>2026-05-01T13:52:44.001Z</time></trkpt><trkpt lat="44.790720619488624" lon="9.119711102468234"><ele>428.5</ele><time>2026-05-01T13:52:45.001Z</time></trkpt><trkpt lat="44.79064047812359" lon="9.119891526117618"><ele>428.0</ele><time>2026-05-01T13:52:46.001Z</time></trkpt><trkpt lat="44.790577448201894" lon="9.120093512867108"><ele>428.0</ele><time>2026-05-01T13:52:47.001Z</time></trkpt><trkpt lat="44.790524042573495" lon="9.1202933776114"><ele>428.0</ele><time>2026-05-01T13:52:48.001Z</time></trkpt><trkpt lat="44.790480745835566" lon="9.120497715189195"><ele>428.0</ele><time>2026-05-01T13:52:49.001Z</time></trkpt><trkpt lat="44.7904486770021" lon="9.12069873419218"><ele>428.0</ele><time>2026-05-01T13:52:50.001Z</time></trkpt><trkpt lat="44.79042480526863" lon="9.1209089063595"><ele>429.0</ele><time>2026-05-01T13:52:51.001Z</time></trkpt><trkpt lat="44.790409523899996" lon="9.121119213283768"><ele>430.0</ele><time>2026-05-01T13:52:52.001Z</time></trkpt><trkpt lat="44.790396603059406" lon="9.121333211594353"><ele>431.0</ele><time>2026-05-01T13:52:53.001Z</time></trkpt><trkpt lat="44.790387741044704" lon="9.12155048331003"><ele>430.66666666666663</ele><time>2026-05-01T13:52:54.001Z</time></trkpt><trkpt lat="44.790388778363024" lon="9.121764080738608"><ele>430.33333333333337</ele><time>2026-05-01T13:52:55.001Z</time></trkpt><trkpt lat="44.79039926119545" lon="9.121988581358554"><ele>430.0</ele><time>2026-05-01T13:52:56.001Z</time></trkpt><trkpt lat="44.7904311899397" lon="9.122207090565194"><ele>430.0</ele><time>2026-05-01T13:52:57.001Z</time></trkpt><trkpt lat="44.790453570098926" lon="9.12242922498231"><ele>430.0</ele><time>2026-05-01T13:52:58.001Z</time></trkpt><trkpt lat="44.7904714041302" lon="9.122652735286369"><ele>430.0</ele><time>2026-05-01T13:52:59.001Z</time></trkpt><trkpt lat="44.79049216245231" lon="9.122865591093063"><ele>430.0</ele><time>2026-05-01T13:53:00.001Z</time></trkpt><trkpt lat="44.79051519166438" lon="9.123072572802089"><ele>430.0</ele><time>2026-05-01T13:53:01.001Z</time></trkpt><trkpt lat="44.79053328344727" lon="9.123266267390173"><ele>430.0</ele><time>2026-05-01T13:53:02.001Z</time></trkpt><trkpt lat="44.790548461944766" lon="9.123461716832958"><ele>430.0</ele><time>2026-05-01T13:53:03.001Z</time></trkpt><trkpt lat="44.790571138458766" lon="9.123658701967058"><ele>431.8</ele><time>2026-05-01T13:53:04.001Z</time></trkpt><trkpt lat="44.790571400093604" lon="9.123836035137812"><ele>433.6</ele><time>2026-05-01T13:53:05.001Z</time></trkpt><trkpt lat="44.79057782511322" lon="9.124009065353732"><ele>435.4</ele><time>2026-05-01T13:53:06.001Z</time></trkpt><trkpt lat="44.79058508759172" lon="9.124164847056006"><ele>437.2</ele><time>2026-05-01T13:53:07.001Z</time></trkpt><trkpt lat="44.790583922909626" lon="9.12428718134851"><ele>439.0</ele><time>2026-05-01T13:53:08.002Z</time></trkpt><trkpt lat="44.7905729145951" lon="9.124379060015311"><ele>440.0</ele><time>2026-05-01T13:53:09.002Z</time></trkpt><trkpt lat="44.790571314365835" lon="9.124516011573363"><ele>441.0</ele><time>2026-05-01T13:53:11.002Z</time></trkpt><trkpt lat="44.79058643805201" lon="9.124614821995303"><ele>442.0</ele><time>2026-05-01T13:57:39.003Z</time></trkpt><trkpt lat="44.79060942101208" lon="9.12474242570136"><ele>443.0</ele><time>2026-05-01T13:57:41.003Z</time></trkpt><trkpt lat="44.79062587566084" lon="9.124886059618811"><ele>444.0</ele><time>2026-05-01T13:57:43.003Z</time></trkpt><trkpt lat="44.7906488785431" lon="9.125056175486408"><ele>444.5</ele><time>2026-05-01T13:57:45.003Z</time></trkpt><trkpt lat="44.79065724743093" lon="9.125155155248496"><ele>445.0</ele><time>2026-05-01T13:57:46.003Z</time></trkpt><trkpt lat="44.790664665913525" lon="9.12526442845884"><ele>445.5</ele><time>2026-05-01T13:57:47.003Z</time></trkpt><trkpt lat="44.79067446955916" lon="9.125391663476247"><ele>446.0</ele><time>2026-05-01T13:57:48.003Z</time></trkpt><trkpt lat="44.79068431572336" lon="9.12553285684026"><ele>446.5</ele><time>2026-05-01T13:57:49.003Z</time></trkpt><trkpt lat="44.79069026221101" lon="9.125684705097191"><ele>447.0</ele><time>2026-05-01T13:57:50.003Z</time></trkpt><trkpt lat="44.79069428936211" lon="9.125846199477284"><ele>445.8</ele><time>2026-05-01T13:57:51.003Z</time></trkpt><trkpt lat="44.79069712411306" lon="9.125988944553937"><ele>444.6</ele><time>2026-05-01T13:57:52.003Z</time></trkpt><trkpt lat="44.790700590827846" lon="9.126136186859878"><ele>443.40000000000003</ele><time>2026-05-01T13:57:53.003Z</time></trkpt><trkpt lat="44.790701927317016" lon="9.126292111709455"><ele>442.20000000000005</ele><time>2026-05-01T13:57:54.003Z</time></trkpt><trkpt lat="44.790701190484626" lon="9.12645453307632"><ele>441.0</ele><time>2026-05-01T13:57:55.003Z</time></trkpt><trkpt lat="44.79069715542583" lon="9.126625685758562"><ele>440.75</ele><time>2026-05-01T13:57:56.003Z</time></trkpt><trkpt lat="44.79068573657644" lon="9.126795540811365"><ele>440.5</ele><time>2026-05-01T13:57:57.003Z</time></trkpt><trkpt lat="44.790668285583834" lon="9.126980013350236"><ele>440.25</ele><time>2026-05-01T13:57:58.003Z</time></trkpt><trkpt lat="44.790653453903424" lon="9.127159690309476"><ele>440.0</ele><time>2026-05-01T13:57:59.003Z</time></trkpt><trkpt lat="44.790643933763704" lon="9.127336621570029"><ele>441.5</ele><time>2026-05-01T13:58:00.003Z</time></trkpt><trkpt lat="44.790623736051195" lon="9.127516030856226"><ele>443.0</ele><time>2026-05-01T13:58:01.003Z</time></trkpt><trkpt lat="44.79061998279021" lon="9.127699349583654"><ele>444.5</ele><time>2026-05-01T13:58:02.003Z</time></trkpt><trkpt lat="44.79062397464383" lon="9.127885808343924"><ele>446.0</ele><time>2026-05-01T13:58:03.003Z</time></trkpt><trkpt lat="44.79063161954925" lon="9.12807588729703"><ele>446.75</ele><time>2026-05-01T13:58:04.003Z</time></trkpt><trkpt lat="44.7906465722066" lon="9.128264855471471"><ele>447.5</ele><time>2026-05-01T13:58:05.003Z</time></trkpt><trkpt lat="44.790662251393734" lon="9.128455796654533"><ele>448.25</ele><time>2026-05-01T13:58:06.003Z</time></trkpt><trkpt lat="44.790676673240675" lon="9.128644265625764"><ele>449.0</ele><time>2026-05-01T13:58:07.003Z</time></trkpt><trkpt lat="44.79068569922887" lon="9.128829246328145"><ele>449.0</ele><time>2026-05-01T13:58:08.003Z</time></trkpt><trkpt lat="44.790689728061935" lon="9.129000850160589"><ele>449.0</ele><time>2026-05-01T13:58:09.003Z</time></trkpt><trkpt lat="44.79069554777261" lon="9.12915622995905"><ele>449.0</ele><time>2026-05-01T13:58:10.003Z</time></trkpt><trkpt lat="44.79070460911475" lon="9.129313565363773"><ele>449.0</ele><time>2026-05-01T13:58:11.003Z</time></trkpt><trkpt lat="44.79071878000198" lon="9.129479507997443"><ele>449.0</ele><time>2026-05-01T13:58:12.003Z</time></trkpt><trkpt lat="44.79073064980616" lon="9.129644241538383"><ele>449.0</ele><time>2026-05-01T13:58:13.003Z</time></trkpt><trkpt lat="44.79074055633293" lon="9.129811630781631"><ele>449.0</ele><time>2026-05-01T13:58:14.003Z</time></trkpt><trkpt lat="44.79074594649282" lon="9.129983691420945"><ele>449.0</ele><time>2026-05-01T13:58:15.003Z</time></trkpt><trkpt lat="44.790757678407914" lon="9.130156343389123"><ele>449.0</ele><time>2026-05-01T13:58:16.003Z</time></trkpt><trkpt lat="44.79076734423668" lon="9.130332458828429"><ele>449.0</ele><time>2026-05-01T13:58:17.003Z</time></trkpt><trkpt lat="44.79078202373841" lon="9.130509960500502"><ele>449.0</ele><time>2026-05-01T13:58:18.003Z</time></trkpt><trkpt lat="44.79078957568897" lon="9.130678949114184"><ele>449.0</ele><time>2026-05-01T13:58:19.003Z</time></trkpt><trkpt lat="44.790796730734826" lon="9.130847384476713"><ele>449.0</ele><time>2026-05-01T13:58:20.003Z</time></trkpt><trkpt lat="44.79080919546027" lon="9.131021536301205"><ele>449.0</ele><time>2026-05-01T13:58:21.003Z</time></trkpt><trkpt lat="44.790824672432855" lon="9.131202811466803"><ele>449.0</ele><time>2026-05-01T13:58:22.003Z</time></trkpt><trkpt lat="44.79084063532842" lon="9.131382137601367"><ele>449.0</ele><time>2026-05-01T13:58:23.003Z</time></trkpt><trkpt lat="44.79084874300903" lon="9.131563814187219"><ele>449.0</ele><time>2026-05-01T13:58:24.003Z</time></trkpt><trkpt lat="44.79085178940312" lon="9.131750804223772"><ele>449.0</ele><time>2026-05-01T13:58:25.003Z</time></trkpt><trkpt lat="44.79084589526133" lon="9.131933388244091"><ele>449.0</ele><time>2026-05-01T13:58:26.003Z</time></trkpt><trkpt lat="44.790830940305355" lon="9.13211435954426"><ele>449.0</ele><time>2026-05-01T13:58:27.002Z</time></trkpt><trkpt lat="44.790814333088406" lon="9.132297392460138"><ele>450.0</ele><time>2026-05-01T13:58:28.002Z</time></trkpt><trkpt lat="44.790800340146845" lon="9.1324808713105"><ele>451.0</ele><time>2026-05-01T13:58:29.002Z</time></trkpt><trkpt lat="44.79077908827086" lon="9.132668018475492"><ele>452.0</ele><time>2026-05-01T13:58:30.002Z</time></trkpt><trkpt lat="44.79075130067962" lon="9.132856778793876"><ele>453.0</ele><time>2026-05-01T13:58:31.002Z</time></trkpt><trkpt lat="44.790722429825" lon="9.133047500787793"><ele>453.25</ele><time>2026-05-01T13:58:32.002Z</time></trkpt><trkpt lat="44.79069137961384" lon="9.133242234710156"><ele>453.5</ele><time>2026-05-01T13:58:33.002Z</time></trkpt><trkpt lat="44.79066254262823" lon="9.133442062641418"><ele>453.75</ele><time>2026-05-01T13:58:34.002Z</time></trkpt><trkpt lat="44.79062995487586" lon="9.133656659265498"><ele>454.0</ele><time>2026-05-01T13:58:35.002Z</time></trkpt><trkpt lat="44.7906120562214" lon="9.133864015744722"><ele>455.25</ele><time>2026-05-01T13:58:36.002Z</time></trkpt><trkpt lat="44.79060913335907" lon="9.13406686215942"><ele>456.5</ele><time>2026-05-01T13:58:37.002Z</time></trkpt><trkpt lat="44.790601095892" lon="9.134263058134124"><ele>457.75</ele><time>2026-05-01T13:58:38.002Z</time></trkpt><trkpt lat="44.790591852003104" lon="9.134457690900517"><ele>459.0</ele><time>2026-05-01T13:58:39.002Z</time></trkpt><trkpt lat="44.79058286399186" lon="9.134658949795522"><ele>459.0</ele><time>2026-05-01T13:58:40.002Z</time></trkpt><trkpt lat="44.79057303846644" lon="9.134865824178394"><ele>459.0</ele><time>2026-05-01T13:58:41.002Z</time></trkpt><trkpt lat="44.790561716617226" lon="9.135073466419904"><ele>459.0</ele><time>2026-05-01T13:58:42.002Z</time></trkpt><trkpt lat="44.79053488708702" lon="9.135280553971876"><ele>459.0</ele><time>2026-05-01T13:58:43.002Z</time></trkpt><trkpt lat="44.79051435260899" lon="9.13548929968359"><ele>459.0</ele><time>2026-05-01T13:58:44.002Z</time></trkpt><trkpt lat="44.79048330959832" lon="9.135693588742368"><ele>459.0</ele><time>2026-05-01T13:58:45.002Z</time></trkpt><trkpt lat="44.79043566084257" lon="9.135888389988194"><ele>459.0</ele><time>2026-05-01T13:58:46.002Z</time></trkpt><trkpt lat="44.79038320896518" lon="9.136074294017611"><ele>459.0</ele><time>2026-05-01T13:58:47.002Z</time></trkpt><trkpt lat="44.79033492818552" lon="9.136265042869436"><ele>459.5</ele><time>2026-05-01T13:58:48.002Z</time></trkpt><trkpt lat="44.79029277305016" lon="9.136460830764253"><ele>460.0</ele><time>2026-05-01T13:58:49.002Z</time></trkpt><trkpt lat="44.7902510317071" lon="9.136663155465934"><ele>460.5</ele><time>2026-05-01T13:58:50.002Z</time></trkpt><trkpt lat="44.790216921066104" lon="9.136866033404186"><ele>461.0</ele><time>2026-05-01T13:58:51.002Z</time></trkpt><trkpt lat="44.79018171878282" lon="9.137068097137574"><ele>458.25</ele><time>2026-05-01T13:58:52.002Z</time></trkpt><trkpt lat="44.79014380481432" lon="9.137261911230278"><ele>455.5</ele><time>2026-05-01T13:58:53.002Z</time></trkpt><trkpt lat="44.79009831464701" lon="9.137443374345155"><ele>452.75</ele><time>2026-05-01T13:58:54.002Z</time></trkpt><trkpt lat="44.79003226911663" lon="9.137611762185385"><ele>450.0</ele><time>2026-05-01T13:58:55.002Z</time></trkpt><trkpt lat="44.78994574140929" lon="9.137762202703248"><ele>450.0</ele><time>2026-05-01T13:58:56.002Z</time></trkpt><trkpt lat="44.78983929961291" lon="9.137907097631187"><ele>450.0</ele><time>2026-05-01T13:58:57.002Z</time></trkpt><trkpt lat="44.78973138937753" lon="9.138052723199438"><ele>450.0</ele><time>2026-05-01T13:58:58.002Z</time></trkpt><trkpt lat="44.78962185729009" lon="9.138203161350287"><ele>450.33333333333337</ele><time>2026-05-01T13:58:59.002Z</time></trkpt><trkpt lat="44.789513319054834" lon="9.138357618660267"><ele>450.6666666666667</ele><time>2026-05-01T13:59:00.002Z</time></trkpt><trkpt lat="44.789404548775096" lon="9.138516585123515"><ele>451.0</ele><time>2026-05-01T13:59:01.002Z</time></trkpt><trkpt lat="44.78930072712623" lon="9.138680554765683"><ele>451.0</ele><time>2026-05-01T13:59:02.002Z</time></trkpt><trkpt lat="44.78920165560013" lon="9.138848847829617"><ele>451.0</ele><time>2026-05-01T13:59:03.002Z</time></trkpt><trkpt lat="44.78910271840816" lon="9.139013426910628"><ele>451.0</ele><time>2026-05-01T13:59:04.002Z</time></trkpt><trkpt lat="44.78900765326244" lon="9.139179228897824"><ele>452.6666666666667</ele><time>2026-05-01T13:59:05.002Z</time></trkpt><trkpt lat="44.788925114745204" lon="9.139352740002352"><ele>454.33333333333337</ele><time>2026-05-01T13:59:06.002Z</time></trkpt><trkpt lat="44.788859094660275" lon="9.139543252945165"><ele>456.0</ele><time>2026-05-01T13:59:07.002Z</time></trkpt><trkpt lat="44.78881144339105" lon="9.139745414720018"><ele>457.66666666666663</ele><time>2026-05-01T13:59:08.002Z</time></trkpt><trkpt lat="44.788776581400725" lon="9.139957307852837"><ele>459.3333333333333</ele><time>2026-05-01T13:59:09.002Z</time></trkpt><trkpt lat="44.7887420931817" lon="9.140174498293764"><ele>461.0</ele><time>2026-05-01T13:59:10.002Z</time></trkpt><trkpt lat="44.78869513784009" lon="9.140385495014602"><ele>461.0</ele><time>2026-05-01T13:59:11.002Z</time></trkpt><trkpt lat="44.788633170999795" lon="9.140587001151559"><ele>461.0</ele><time>2026-05-01T13:59:12.002Z</time></trkpt><trkpt lat="44.78854665754997" lon="9.140775665021176"><ele>461.0</ele><time>2026-05-01T13:59:13.002Z</time></trkpt><trkpt lat="44.78845638664826" lon="9.1409609524132"><ele>460.3333333333333</ele><time>2026-05-01T13:59:14.002Z</time></trkpt><trkpt lat="44.78836585987513" lon="9.141150980064126"><ele>459.66666666666663</ele><time>2026-05-01T13:59:15.002Z</time></trkpt><trkpt lat="44.78827987568709" lon="9.141345582714672"><ele>459.0</ele><time>2026-05-01T13:59:16.002Z</time></trkpt><trkpt lat="44.78819851037714" lon="9.141535417946768"><ele>461.0</ele><time>2026-05-01T13:59:17.002Z</time></trkpt><trkpt lat="44.78811625417123" lon="9.141719236841745"><ele>463.0</ele><time>2026-05-01T13:59:18.002Z</time></trkpt><trkpt lat="44.78803198284408" lon="9.14190146721369"><ele>465.0</ele><time>2026-05-01T13:59:19.002Z</time></trkpt><trkpt lat="44.78794643844249" lon="9.142081537753484"><ele>465.0</ele><time>2026-05-01T13:59:20.002Z</time></trkpt><trkpt lat="44.78786341950188" lon="9.14225783145142"><ele>465.0</ele><time>2026-05-01T13:59:21.002Z</time></trkpt><trkpt lat="44.78778163563368" lon="9.142433821237931"><ele>465.0</ele><time>2026-05-01T13:59:22.002Z</time></trkpt><trkpt lat="44.787706279483444" lon="9.14261803634352"><ele>464.0</ele><time>2026-05-01T13:59:23.002Z</time></trkpt><trkpt lat="44.787637414274734" lon="9.142811348821414"><ele>463.0</ele><time>2026-05-01T13:59:24.002Z</time></trkpt><trkpt lat="44.78757320899335" lon="9.143012487561771"><ele>462.0</ele><time>2026-05-01T13:59:25.002Z</time></trkpt><trkpt lat="44.78749155782335" lon="9.14320872019395"><ele>464.0</ele><time>2026-05-01T13:59:26.002Z</time></trkpt><trkpt lat="44.78743894605678" lon="9.143426672594126"><ele>466.0</ele><time>2026-05-01T13:59:27.002Z</time></trkpt><trkpt lat="44.78735814559953" lon="9.143621859455191"><ele>468.0</ele><time>2026-05-01T13:59:28.002Z</time></trkpt><trkpt lat="44.78728397245395" lon="9.143809256127689"><ele>468.0</ele><time>2026-05-01T13:59:29.002Z</time></trkpt><trkpt lat="44.78721655802392" lon="9.14399378740865"><ele>468.0</ele><time>2026-05-01T13:59:30.002Z</time></trkpt><trkpt lat="44.78715241924851" lon="9.144179038059335"><ele>468.0</ele><time>2026-05-01T13:59:31.002Z</time></trkpt><trkpt lat="44.7870923277971" lon="9.14436153861676"><ele>468.0</ele><time>2026-05-01T13:59:32.002Z</time></trkpt><trkpt lat="44.787031145145356" lon="9.14454125804741"><ele>468.75</ele><time>2026-05-01T13:59:33.002Z</time></trkpt><trkpt lat="44.786969156477404" lon="9.144721883058825"><ele>469.5</ele><time>2026-05-01T13:59:34.002Z</time></trkpt><trkpt lat="44.786912601989194" lon="9.144886955512934"><ele>470.25</ele><time>2026-05-01T13:59:35.002Z</time></trkpt><trkpt lat="44.786857550303054" lon="9.145037801039077"><ele>471.0</ele><time>2026-05-01T13:59:36.002Z</time></trkpt><trkpt lat="44.78679548078537" lon="9.145168435250453"><ele>471.0</ele><time>2026-05-01T13:59:37.002Z</time></trkpt><trkpt lat="44.78672736691734" lon="9.145285392590363"><ele>471.0</ele><time>2026-05-01T13:59:38.002Z</time></trkpt><trkpt lat="44.78665322667274" lon="9.145384586635437"><ele>471.0</ele><time>2026-05-01T13:59:39.002Z</time></trkpt><trkpt lat="44.78662445865235" lon="9.145500217529897"><ele>471.0</ele><time>2026-05-01T13:59:40.002Z</time></trkpt><trkpt lat="44.78656298936299" lon="9.145567014788721"><ele>471.0</ele><time>2026-05-01T13:59:41.002Z</time></trkpt><trkpt lat="44.786500042417046" lon="9.145624545245518"><ele>471.0</ele><time>2026-05-01T13:59:42.002Z</time></trkpt><trkpt lat="44.78643058811934" lon="9.145689775974223"><ele>471.1666666666667</ele><time>2026-05-01T13:59:43.002Z</time></trkpt><trkpt lat="44.78637327207511" lon="9.145775572914765"><ele>471.33333333333337</ele><time>2026-05-01T13:59:44.002Z</time></trkpt><trkpt lat="44.78630526367633" lon="9.145842024429594"><ele>471.5</ele><time>2026-05-01T13:59:45.002Z</time></trkpt><trkpt lat="44.78624586805133" lon="9.145906642023967"><ele>471.6666666666667</ele><time>2026-05-01T13:59:46.002Z</time></trkpt><trkpt lat="44.78618179429301" lon="9.14596813916778"><ele>471.83333333333337</ele><time>2026-05-01T13:59:47.002Z</time></trkpt><trkpt lat="44.786141714728586" lon="9.146060941497748"><ele>472.0</ele><time>2026-05-01T13:59:48.002Z</time></trkpt><trkpt lat="44.786097060096736" lon="9.146145917274852"><ele>472.00000000000006</ele><time>2026-05-01T13:59:49.002Z</time></trkpt><trkpt lat="44.78605631793866" lon="9.146242802841764"><ele>472.0</ele><time>2026-05-01T13:59:50.002Z</time></trkpt><trkpt lat="44.78602689986874" lon="9.146344978989681"><ele>472.0</ele><time>2026-05-01T13:59:51.002Z</time></trkpt><trkpt lat="44.786000766796974" lon="9.146453444824836"><ele>472.0</ele><time>2026-05-01T13:59:52.002Z</time></trkpt><trkpt lat="44.78597396080894" lon="9.14655783739709"><ele>472.00000000000006</ele><time>2026-05-01T13:59:53.002Z</time></trkpt><trkpt lat="44.785925676753216" lon="9.146635088201982"><ele>472.0</ele><time>2026-05-01T13:59:54.002Z</time></trkpt><trkpt lat="44.78585201690253" lon="9.146742236149686"><ele>471.83333333333337</ele><time>2026-05-01T13:59:56.002Z</time></trkpt><trkpt lat="44.78580151330966" lon="9.146798353186941"><ele>471.6666666666667</ele><time>2026-05-01T13:59:58.002Z</time></trkpt><trkpt lat="44.78574666204732" lon="9.146861337489486"><ele>471.5</ele><time>2026-05-01T14:00:01.002Z</time></trkpt><trkpt lat="44.78565383961979" lon="9.146928792529334"><ele>471.33333333333337</ele><time>2026-05-01T14:00:51Z</time></trkpt><trkpt lat="44.785587442108096" lon="9.146983645127303"><ele>471.1666666666667</ele><time>2026-05-01T14:00:52Z</time></trkpt><trkpt lat="44.78551753059961" lon="9.147039636210048"><ele>471.0</ele><time>2026-05-01T14:00:53Z</time></trkpt><trkpt lat="44.785448717713074" lon="9.147089421996485"><ele>471.0</ele><time>2026-05-01T14:00:54Z</time></trkpt><trkpt lat="44.785378132516044" lon="9.1471364499032"><ele>471.0</ele><time>2026-05-01T14:00:55Z</time></trkpt><trkpt lat="44.785298601317265" lon="9.1471878508186"><ele>471.0</ele><time>2026-05-01T14:00:56Z</time></trkpt><trkpt lat="44.78521761023463" lon="9.147238286490682"><ele>471.0</ele><time>2026-05-01T14:00:57Z</time></trkpt><trkpt lat="44.785132732131835" lon="9.147287757588835"><ele>471.0</ele><time>2026-05-01T14:00:58Z</time></trkpt><trkpt lat="44.78504709069463" lon="9.14733843140125"><ele>471.0</ele><time>2026-05-01T14:00:59Z</time></trkpt><trkpt lat="44.78497192109525" lon="9.147386887171244"><ele>471.0</ele><time>2026-05-01T14:01:00Z</time></trkpt><trkpt lat="44.784884631239485" lon="9.147445686439251"><ele>471.0</ele><time>2026-05-01T14:01:01Z</time></trkpt><trkpt lat="44.784801860018554" lon="9.147526026975315"><ele>471.0</ele><time>2026-05-01T14:01:02Z</time></trkpt><trkpt lat="44.78473809630385" lon="9.147615410588692"><ele>471.0</ele><time>2026-05-01T14:01:03Z</time></trkpt><trkpt lat="44.78467501790077" lon="9.147700339467125"><ele>471.0</ele><time>2026-05-01T14:01:04.001Z</time></trkpt><trkpt lat="44.78458722059716" lon="9.147803622903387"><ele>471.0</ele><time>2026-05-01T14:01:06.001Z</time></trkpt><trkpt lat="44.78453425363318" lon="9.147857069483672"><ele>471.0</ele><time>2026-05-01T14:01:07.001Z</time></trkpt><trkpt lat="44.78445978261434" lon="9.147901338356306"><ele>471.0</ele><time>2026-05-01T14:01:08.001Z</time></trkpt><trkpt lat="44.78438632488271" lon="9.147951899767373"><ele>471.0</ele><time>2026-05-01T14:01:09.001Z</time></trkpt><trkpt lat="44.78429977477064" lon="9.147992294694715"><ele>471.0</ele><time>2026-05-01T14:01:10.001Z</time></trkpt><trkpt lat="44.7842196048078" lon="9.14802835321407"><ele>471.0</ele><time>2026-05-01T14:01:11.001Z</time></trkpt><trkpt lat="44.784150091842356" lon="9.14807433617598"><ele>470.8333333333333</ele><time>2026-05-01T14:01:12.001Z</time></trkpt><trkpt lat="44.78407394110107" lon="9.148117458397731"><ele>470.66666666666663</ele><time>2026-05-01T14:01:13.001Z</time></trkpt><trkpt lat="44.78398623159351" lon="9.148141743157254"><ele>470.5</ele><time>2026-05-01T14:01:14.001Z</time></trkpt><trkpt lat="44.78390308669746" lon="9.14818496530979"><ele>470.3333333333333</ele><time>2026-05-01T14:01:15.001Z</time></trkpt><trkpt lat="44.78381679103771" lon="9.148229825354665"><ele>470.16666666666663</ele><time>2026-05-01T14:01:16.001Z</time></trkpt><trkpt lat="44.78372894198091" lon="9.148276052275135"><ele>470.0</ele><time>2026-05-01T14:01:17.001Z</time></trkpt><trkpt lat="44.78365009087641" lon="9.148318898311805"><ele>470.8333333333333</ele><time>2026-05-01T14:01:18.001Z</time></trkpt><trkpt lat="44.783586372125" lon="9.148353521748861"><ele>471.66666666666663</ele><time>2026-05-01T14:01:19.001Z</time></trkpt><trkpt lat="44.78352697560783" lon="9.148386576765574"><ele>472.5</ele><time>2026-05-01T14:01:20.001Z</time></trkpt><trkpt lat="44.78345314566009" lon="9.148428822755278"><ele>473.33333333333337</ele><time>2026-05-01T14:01:21.001Z</time></trkpt><trkpt lat="44.783377632089156" lon="9.148477306082162"><ele>474.1666666666667</ele><time>2026-05-01T14:01:22.001Z</time></trkpt><trkpt lat="44.783294750775646" lon="9.148533969843413"><ele>475.0</ele><time>2026-05-01T14:01:23.001Z</time></trkpt><trkpt lat="44.783218922733404" lon="9.148592326757838"><ele>475.00000000000006</ele><time>2026-05-01T14:01:24.001Z</time></trkpt><trkpt lat="44.78314643255364" lon="9.148665840848029"><ele>475.0</ele><time>2026-05-01T14:01:25.001Z</time></trkpt><trkpt lat="44.78309559167116" lon="9.148724039662063"><ele>475.0</ele><time>2026-05-01T14:01:26.001Z</time></trkpt><trkpt lat="44.78302461701739" lon="9.148812521583464"><ele>475.0</ele><time>2026-05-01T14:01:28.001Z</time></trkpt><trkpt lat="44.78297006632528" lon="9.148882118159559"><ele>475.00000000000006</ele><time>2026-05-01T14:01:29.001Z</time></trkpt><trkpt lat="44.78290973762583" lon="9.148959290541775"><ele>475.0</ele><time>2026-05-01T14:01:30.001Z</time></trkpt><trkpt lat="44.782838808342454" lon="9.149051278971148"><ele>476.25</ele><time>2026-05-01T14:01:31.001Z</time></trkpt><trkpt lat="44.78275781730754" lon="9.149159474774379"><ele>477.5</ele><time>2026-05-01T14:01:32.001Z</time></trkpt><trkpt lat="44.78266748789523" lon="9.149280145726205"><ele>478.75</ele><time>2026-05-01T14:01:33.001Z</time></trkpt><trkpt lat="44.78259766637333" lon="9.149406339689028"><ele>480.0</ele><time>2026-05-01T14:01:34.001Z</time></trkpt><trkpt lat="44.78250671443325" lon="9.14950596601949"><ele>480.0</ele><time>2026-05-01T14:01:35.001Z</time></trkpt><trkpt lat="44.78241764787606" lon="9.14962425638734"><ele>480.0</ele><time>2026-05-01T14:01:36.001Z</time></trkpt><trkpt lat="44.782330012081495" lon="9.149741332551136"><ele>480.0</ele><time>2026-05-01T14:01:37.001Z</time></trkpt><trkpt lat="44.78223657106775" lon="9.149855185273179"><ele>480.0</ele><time>2026-05-01T14:01:38.001Z</time></trkpt><trkpt lat="44.782124605168065" lon="9.14994437056517"><ele>480.25</ele><time>2026-05-01T14:01:39.001Z</time></trkpt><trkpt lat="44.782021189315195" lon="9.150070399692765"><ele>480.5</ele><time>2026-05-01T14:01:40.001Z</time></trkpt><trkpt lat="44.78188714800604" lon="9.150166997435116"><ele>480.75</ele><time>2026-05-01T14:01:41.001Z</time></trkpt><trkpt lat="44.78177807155349" lon="9.1503086779145"><ele>481.0</ele><time>2026-05-01T14:01:42.001Z</time></trkpt><trkpt lat="44.78167691670307" lon="9.150440345584627"><ele>481.0</ele><time>2026-05-01T14:01:43.001Z</time></trkpt><trkpt lat="44.7815723110793" lon="9.150569980413517"><ele>481.0</ele><time>2026-05-01T14:01:44.001Z</time></trkpt><trkpt lat="44.78146255982702" lon="9.150671304902026"><ele>481.0</ele><time>2026-05-01T14:01:45.001Z</time></trkpt><trkpt lat="44.781356814583816" lon="9.15079562958625"><ele>481.0</ele><time>2026-05-01T14:01:46.001Z</time></trkpt><trkpt lat="44.781250482102955" lon="9.150912202860937"><ele>480.25</ele><time>2026-05-01T14:01:47.001Z</time></trkpt><trkpt lat="44.781146335339834" lon="9.151025232630476"><ele>479.5</ele><time>2026-05-01T14:01:48.001Z</time></trkpt><trkpt lat="44.781042994421945" lon="9.151137387828381"><ele>478.75</ele><time>2026-05-01T14:01:49.001Z</time></trkpt><trkpt lat="44.78094059803848" lon="9.151237347438151"><ele>478.0</ele><time>2026-05-01T14:01:50.001Z</time></trkpt><trkpt lat="44.78083637126366" lon="9.151335399956508"><ele>478.0</ele><time>2026-05-01T14:01:51.001Z</time></trkpt><trkpt lat="44.780706538670024" lon="9.151380260055205"><ele>478.0</ele><time>2026-05-01T14:01:52.001Z</time></trkpt><trkpt lat="44.78057064859914" lon="9.151429423132289"><ele>478.0</ele><time>2026-05-01T14:01:53.001Z</time></trkpt><trkpt lat="44.780448576189606" lon="9.151498985892946"><ele>478.0</ele><time>2026-05-01T14:01:54.001Z</time></trkpt><trkpt lat="44.78032046127911" lon="9.151535347660198"><ele>480.25</ele><time>2026-05-01T14:01:55.001Z</time></trkpt><trkpt lat="44.78020034344666" lon="9.151591916096203"><ele>482.5</ele><time>2026-05-01T14:01:56.001Z</time></trkpt><trkpt lat="44.78008634756979" lon="9.151667952819302"><ele>484.75</ele><time>2026-05-01T14:01:57.001Z</time></trkpt><trkpt lat="44.77997909157843" lon="9.151763199234983"><ele>487.0</ele><time>2026-05-01T14:01:58.001Z</time></trkpt><trkpt lat="44.779883200515435" lon="9.151885569057791"><ele>487.0</ele><time>2026-05-01T14:01:59.001Z</time></trkpt><trkpt lat="44.77980503935176" lon="9.152025403522458"><ele>487.0</ele><time>2026-05-01T14:02:00.001Z</time></trkpt><trkpt lat="44.77974634158544" lon="9.152187434748589"><ele>487.0</ele><time>2026-05-01T14:02:01.001Z</time></trkpt><trkpt lat="44.77971059955876" lon="9.152366334390168"><ele>487.0</ele><time>2026-05-01T14:02:02.001Z</time></trkpt><trkpt lat="44.77965391766107" lon="9.152530476490266"><ele>489.5</ele><time>2026-05-01T14:02:03.001Z</time></trkpt><trkpt lat="44.779620482671326" lon="9.152701581686904"><ele>492.0</ele><time>2026-05-01T14:02:04.001Z</time></trkpt><trkpt lat="44.77956451062626" lon="9.15285398939241"><ele>494.5</ele><time>2026-05-01T14:02:05.001Z</time></trkpt><trkpt lat="44.77949740442627" lon="9.152983794445491"><ele>497.0</ele><time>2026-05-01T14:02:06.001Z</time></trkpt><trkpt lat="44.77938765053241" lon="9.15305062280694"><ele>496.25</ele><time>2026-05-01T14:02:07.001Z</time></trkpt><trkpt lat="44.7792755190937" lon="9.153139020219902"><ele>495.5</ele><time>2026-05-01T14:02:08.001Z</time></trkpt><trkpt lat="44.779158085895055" lon="9.153234997050248"><ele>494.75</ele><time>2026-05-01T14:02:09.001Z</time></trkpt><trkpt lat="44.779041811743184" lon="9.153328106491205"><ele>494.0</ele><time>2026-05-01T14:02:10.001Z</time></trkpt><trkpt lat="44.778922986331615" lon="9.153423859770445"><ele>494.0</ele><time>2026-05-01T14:02:11.001Z</time></trkpt><trkpt lat="44.77881493208696" lon="9.15354172860176"><ele>494.0</ele><time>2026-05-01T14:02:12.001Z</time></trkpt><trkpt lat="44.77870731883402" lon="9.153632750240096"><ele>494.0</ele><time>2026-05-01T14:02:13.001Z</time></trkpt><trkpt lat="44.77860282332393" lon="9.15370228851727"><ele>494.0</ele><time>2026-05-01T14:02:14.001Z</time></trkpt><trkpt lat="44.778496246758415" lon="9.153742432556228"><ele>493.5</ele><time>2026-05-01T14:02:15.001Z</time></trkpt><trkpt lat="44.778397124961295" lon="9.153806817298417"><ele>493.0</ele><time>2026-05-01T14:02:16.001Z</time></trkpt><trkpt lat="44.77828225242811" lon="9.153840918646942"><ele>492.5</ele><time>2026-05-01T14:02:17.001Z</time></trkpt><trkpt lat="44.778158852796174" lon="9.153867187457996"><ele>492.0</ele><time>2026-05-01T14:02:18.001Z</time></trkpt><trkpt lat="44.77801937738605" lon="9.15387723244862"><ele>492.0</ele><time>2026-05-01T14:02:19.001Z</time></trkpt><trkpt lat="44.77787414404943" lon="9.153856336716949"><ele>492.0</ele><time>2026-05-01T14:02:20.001Z</time></trkpt><trkpt lat="44.777729052912036" lon="9.153809703900654"><ele>492.0</ele><time>2026-05-01T14:02:21.001Z</time></trkpt><trkpt lat="44.77758027332562" lon="9.153742490343456"><ele>493.0</ele><time>2026-05-01T14:02:22.001Z</time></trkpt><trkpt lat="44.77742905392905" lon="9.15367382560992"><ele>494.0</ele><time>2026-05-01T14:02:23.001Z</time></trkpt><trkpt lat="44.77729104748797" lon="9.153605858055093"><ele>495.0</ele><time>2026-05-01T14:02:24.001Z</time></trkpt><trkpt lat="44.777163248737885" lon="9.153549753691577"><ele>496.0</ele><time>2026-05-01T14:02:25.001Z</time></trkpt><trkpt lat="44.77704748492009" lon="9.153521565761793"><ele>496.0</ele><time>2026-05-01T14:02:26.001Z</time></trkpt><trkpt lat="44.776938698828864" lon="9.153526093616115"><ele>496.0</ele><time>2026-05-01T14:02:27.001Z</time></trkpt><trkpt lat="44.776824429374166" lon="9.153573535439458"><ele>496.0</ele><time>2026-05-01T14:02:28.001Z</time></trkpt><trkpt lat="44.77669837491708" lon="9.15365432776374"><ele>496.0</ele><time>2026-05-01T14:02:28.999Z</time></trkpt><trkpt lat="44.77657542388835" lon="9.153755291433294"><ele>497.0</ele><time>2026-05-01T14:02:29.999Z</time></trkpt><trkpt lat="44.77644700103504" lon="9.153855888865394"><ele>498.0</ele><time>2026-05-01T14:02:30.999Z</time></trkpt><trkpt lat="44.776312868359916" lon="9.153957576865384"><ele>499.0</ele><time>2026-05-01T14:02:31.999Z</time></trkpt><trkpt lat="44.77617278987494" lon="9.154064345737439"><ele>499.6666666666667</ele><time>2026-05-01T14:02:32.999Z</time></trkpt><trkpt lat="44.77603621300325" lon="9.154167888926835"><ele>500.33333333333337</ele><time>2026-05-01T14:02:33.999Z</time></trkpt><trkpt lat="44.77589911221457" lon="9.154271531262063"><ele>501.0</ele><time>2026-05-01T14:02:34.999Z</time></trkpt><trkpt lat="44.77574596748313" lon="9.154360332218241"><ele>501.0</ele><time>2026-05-01T14:02:35.999Z</time></trkpt><trkpt lat="44.77560073058303" lon="9.154488539671867"><ele>501.0</ele><time>2026-05-01T14:02:36.999Z</time></trkpt><trkpt lat="44.7754420092875" lon="9.154589165779534"><ele>501.0</ele><time>2026-05-01T14:02:37.999Z</time></trkpt><trkpt lat="44.775286664210334" lon="9.15469780943628"><ele>500.33333333333337</ele><time>2026-05-01T14:02:38.999Z</time></trkpt><trkpt lat="44.775140934439385" lon="9.154824011092881"><ele>499.6666666666667</ele><time>2026-05-01T14:02:39.999Z</time></trkpt><trkpt lat="44.77499141606946" lon="9.154931804665463"><ele>499.0</ele><time>2026-05-01T14:02:40.999Z</time></trkpt><trkpt lat="44.7748472929505" lon="9.155035160756034"><ele>501.33333333333337</ele><time>2026-05-01T14:02:41.999Z</time></trkpt><trkpt lat="44.77469874854913" lon="9.155127529444897"><ele>503.66666666666663</ele><time>2026-05-01T14:02:42.999Z</time></trkpt><trkpt lat="44.774537961939785" lon="9.15520179641915"><ele>506.0</ele><time>2026-05-01T14:02:43.999Z</time></trkpt><trkpt lat="44.77437204454587" lon="9.155258792393616"><ele>506.3333333333333</ele><time>2026-05-01T14:02:44.999Z</time></trkpt><trkpt lat="44.774204317618995" lon="9.155307378020828"><ele>506.66666666666663</ele><time>2026-05-01T14:02:45.999Z</time></trkpt><trkpt lat="44.774040235044964" lon="9.15535457513874"><ele>507.0</ele><time>2026-05-01T14:02:46.999Z</time></trkpt><trkpt lat="44.77388850051864" lon="9.155396938633631"><ele>507.0</ele><time>2026-05-01T14:02:47.999Z</time></trkpt><trkpt lat="44.77375051646793" lon="9.155422847229561"><ele>507.0</ele><time>2026-05-01T14:02:48.999Z</time></trkpt><trkpt lat="44.77361403803981" lon="9.155430621119157"><ele>507.0</ele><time>2026-05-01T14:02:49.999Z</time></trkpt><trkpt lat="44.7734705566989" lon="9.155393967057503"><ele>507.0</ele><time>2026-05-01T14:02:50.999Z</time></trkpt><trkpt lat="44.773323825254444" lon="9.155334288987474"><ele>507.75</ele><time>2026-05-01T14:02:51.999Z</time></trkpt><trkpt lat="44.77318598303305" lon="9.155265450020972"><ele>508.5</ele><time>2026-05-01T14:02:52.999Z</time></trkpt><trkpt lat="44.77306723627528" lon="9.155190543665581"><ele>509.25</ele><time>2026-05-01T14:02:53.999Z</time></trkpt><trkpt lat="44.77294522206742" lon="9.155127593462133"><ele>510.0</ele><time>2026-05-01T14:02:55Z</time></trkpt><trkpt lat="44.77281894285594" lon="9.155090462752426"><ele>511.25</ele><time>2026-05-01T14:02:56Z</time></trkpt><trkpt lat="44.77268135807603" lon="9.155078428639511"><ele>512.5</ele><time>2026-05-01T14:02:57Z</time></trkpt><trkpt lat="44.77254048630695" lon="9.15508977614162"><ele>513.75</ele><time>2026-05-01T14:02:58Z</time></trkpt><trkpt lat="44.772400449390815" lon="9.155126816126398"><ele>515.0</ele><time>2026-05-01T14:02:59Z</time></trkpt><trkpt lat="44.77227808922713" lon="9.15517766812576"><ele>515.0</ele><time>2026-05-01T14:03:00Z</time></trkpt><trkpt lat="44.772171769069935" lon="9.155229963101355"><ele>515.0</ele><time>2026-05-01T14:03:01Z</time></trkpt><trkpt lat="44.772068197674244" lon="9.155259430264634"><ele>515.0</ele><time>2026-05-01T14:03:02Z</time></trkpt><trkpt lat="44.77197521205965" lon="9.155320050178329"><ele>515.0</ele><time>2026-05-01T14:03:03Z</time></trkpt><trkpt lat="44.77187658629749" lon="9.155293286571393"><ele>515.0</ele><time>2026-05-01T14:03:04Z</time></trkpt><trkpt lat="44.77176701507964" lon="9.155250675787125"><ele>515.0</ele><time>2026-05-01T14:03:05Z</time></trkpt><trkpt lat="44.771647168655896" lon="9.155196863365187"><ele>515.0</ele><time>2026-05-01T14:03:06Z</time></trkpt><trkpt lat="44.771494218645664" lon="9.155123685419344"><ele>515.0</ele><time>2026-05-01T14:03:07Z</time></trkpt><trkpt lat="44.771356954050326" lon="9.155059941602833"><ele>515.0</ele><time>2026-05-01T14:03:08Z</time></trkpt><trkpt lat="44.77122251944312" lon="9.155018767256863"><ele>515.0</ele><time>2026-05-01T14:03:09Z</time></trkpt><trkpt lat="44.77111007097336" lon="9.154957773400122"><ele>515.0</ele><time>2026-05-01T14:03:10Z</time></trkpt><trkpt lat="44.771008769281096" lon="9.154894687201464"><ele>515.0</ele><time>2026-05-01T14:03:11Z</time></trkpt><trkpt lat="44.77090563247468" lon="9.154842897440137"><ele>515.0</ele><time>2026-05-01T14:03:12Z</time></trkpt><trkpt lat="44.7707995505991" lon="9.154769563482482"><ele>515.25</ele><time>2026-05-01T14:03:13Z</time></trkpt><trkpt lat="44.77069332354103" lon="9.1546776240237"><ele>515.5</ele><time>2026-05-01T14:03:14Z</time></trkpt><trkpt lat="44.77059331167183" lon="9.154552111754596"><ele>515.75</ele><time>2026-05-01T14:03:15Z</time></trkpt><trkpt lat="44.77049578476041" lon="9.15440763613568"><ele>516.0</ele><time>2026-05-01T14:03:16Z</time></trkpt><trkpt lat="44.77039446295358" lon="9.154266369114923"><ele>516.0</ele><time>2026-05-01T14:03:17Z</time></trkpt><trkpt lat="44.77028787515562" lon="9.154138083914303"><ele>516.0</ele><time>2026-05-01T14:03:18Z</time></trkpt><trkpt lat="44.77018145687871" lon="9.154029083364238"><ele>516.0</ele><time>2026-05-01T14:03:19Z</time></trkpt><trkpt lat="44.770090596606934" lon="9.153911400841304"><ele>516.0</ele><time>2026-05-01T14:03:20Z</time></trkpt><trkpt lat="44.76999486370643" lon="9.153810430484409"><ele>517.0</ele><time>2026-05-01T14:03:21Z</time></trkpt><trkpt lat="44.769909733519555" lon="9.153696396778326"><ele>518.0</ele><time>2026-05-01T14:03:22Z</time></trkpt><trkpt lat="44.76983927196859" lon="9.153566828862097"><ele>519.0</ele><time>2026-05-01T14:03:23Z</time></trkpt><trkpt lat="44.76978688934636" lon="9.153416082580465"><ele>520.0</ele><time>2026-05-01T14:03:24Z</time></trkpt><trkpt lat="44.76975284774947" lon="9.153259826712425"><ele>520.2</ele><time>2026-05-01T14:03:25Z</time></trkpt><trkpt lat="44.76973482936636" lon="9.153109994177658"><ele>520.4</ele><time>2026-05-01T14:03:26Z</time></trkpt><trkpt lat="44.769711962475014" lon="9.152977640920989"><ele>520.6</ele><time>2026-05-01T14:03:27Z</time></trkpt><trkpt lat="44.76966271824551" lon="9.152863997803925"><ele>520.8</ele><time>2026-05-01T14:03:28Z</time></trkpt><trkpt lat="44.76958105661596" lon="9.152771536449594"><ele>521.0</ele><time>2026-05-01T14:03:29Z</time></trkpt><trkpt lat="44.76947598550245" lon="9.15272694261429"><ele>521.0</ele><time>2026-05-01T14:03:30Z</time></trkpt><trkpt lat="44.769369944491466" lon="9.15271918018816"><ele>521.0</ele><time>2026-05-01T14:03:31Z</time></trkpt><trkpt lat="44.769270659425146" lon="9.152746238663406"><ele>521.0</ele><time>2026-05-01T14:03:32Z</time></trkpt><trkpt lat="44.76918485319999" lon="9.152826076708626"><ele>521.0</ele><time>2026-05-01T14:03:33Z</time></trkpt><trkpt lat="44.76912824218613" lon="9.1529164102937"><ele>521.0</ele><time>2026-05-01T14:03:34Z</time></trkpt><trkpt lat="44.769091767975716" lon="9.153047170727888"><ele>522.6</ele><time>2026-05-01T14:03:35Z</time></trkpt><trkpt lat="44.76907032261433" lon="9.153175377177483"><ele>524.2</ele><time>2026-05-01T14:03:36Z</time></trkpt><trkpt lat="44.76903499271429" lon="9.153281416058892"><ele>525.8</ele><time>2026-05-01T14:03:37Z</time></trkpt><trkpt lat="44.76908629035934" lon="9.153423126598941"><ele>527.4</ele><time>2026-05-01T14:03:38Z</time></trkpt><trkpt lat="44.76903387049409" lon="9.153523121952944"><ele>529.0</ele><time>2026-05-01T14:03:39Z</time></trkpt><trkpt lat="44.76895969716596" lon="9.153599545568312"><ele>529.0</ele><time>2026-05-01T14:03:40Z</time></trkpt><trkpt lat="44.768867271648325" lon="9.153644540426798"><ele>529.0</ele><time>2026-05-01T14:03:41Z</time></trkpt><trkpt lat="44.76876753095697" lon="9.153664314388736"><ele>529.0</ele><time>2026-05-01T14:03:42Z</time></trkpt><trkpt lat="44.768652227462084" lon="9.153652553816018"><ele>529.0</ele><time>2026-05-01T14:03:43Z</time></trkpt><trkpt lat="44.768531263446334" lon="9.153635556629494"><ele>529.0</ele><time>2026-05-01T14:03:44Z</time></trkpt><trkpt lat="44.76842991309566" lon="9.153637089784114"><ele>531.6</ele><time>2026-05-01T14:03:45Z</time></trkpt><trkpt lat="44.768343848993766" lon="9.153661191331251"><ele>534.2</ele><time>2026-05-01T14:03:46Z</time></trkpt><trkpt lat="44.76827998912639" lon="9.15372802839882"><ele>536.8000000000001</ele><time>2026-05-01T14:03:47Z</time></trkpt><trkpt lat="44.76823196941418" lon="9.15382977814495"><ele>539.4</ele><time>2026-05-01T14:03:48Z</time></trkpt><trkpt lat="44.76818067233853" lon="9.153963080533098"><ele>542.0</ele><time>2026-05-01T14:03:49.001Z</time></trkpt><trkpt lat="44.76814091890766" lon="9.154091730949784"><ele>542.0</ele><time>2026-05-01T14:03:50.001Z</time></trkpt><trkpt lat="44.76810341609759" lon="9.154211335239266"><ele>542.0</ele><time>2026-05-01T14:03:51.001Z</time></trkpt><trkpt lat="44.7681251628609" lon="9.154346376507155"><ele>542.0</ele><time>2026-05-01T14:03:52.001Z</time></trkpt><trkpt lat="44.76815123873961" lon="9.154469265733018"><ele>542.0</ele><time>2026-05-01T14:03:53.001Z</time></trkpt><trkpt lat="44.768162217580986" lon="9.154584520214422"><ele>542.0</ele><time>2026-05-01T14:03:54.001Z</time></trkpt><trkpt lat="44.76812048490437" lon="9.15467806306548"><ele>542.0</ele><time>2026-05-01T14:03:55.001Z</time></trkpt><trkpt lat="44.76808131204197" lon="9.154749206195838"><ele>542.0</ele><time>2026-05-01T14:03:56.001Z</time></trkpt><trkpt lat="44.76800805202949" lon="9.15475795509448"><ele>542.0</ele><time>2026-05-01T14:03:57.001Z</time></trkpt><trkpt lat="44.76792841207134" lon="9.154726578652145"><ele>542.0</ele><time>2026-05-01T14:03:58.001Z</time></trkpt><trkpt lat="44.76785713428442" lon="9.154674631495386"><ele>542.0</ele><time>2026-05-01T14:03:59.001Z</time></trkpt><trkpt lat="44.76778989214524" lon="9.154583352304137"><ele>542.0</ele><time>2026-05-01T14:04:00.001Z</time></trkpt><trkpt lat="44.7677459092577" lon="9.154465542965628"><ele>542.0</ele><time>2026-05-01T14:04:01.001Z</time></trkpt><trkpt lat="44.767714029464436" lon="9.154319369830816"><ele>547.0</ele><time>2026-05-01T14:04:02.001Z</time></trkpt><trkpt lat="44.76769091579788" lon="9.15416413061274"><ele>552.0</ele><time>2026-05-01T14:04:03.001Z</time></trkpt><trkpt lat="44.767662354556236" lon="9.153991693350193"><ele>557.0</ele><time>2026-05-01T14:04:04.001Z</time></trkpt><trkpt lat="44.76763337950142" lon="9.15381987521433"><ele>562.0</ele><time>2026-05-01T14:04:05.001Z</time></trkpt><trkpt lat="44.76760528914923" lon="9.153664068423598"><ele>562.8333333333334</ele><time>2026-05-01T14:04:06.001Z</time></trkpt><trkpt lat="44.767597212372564" lon="9.153534365179183"><ele>563.6666666666667</ele><time>2026-05-01T14:04:07.001Z</time></trkpt><trkpt lat="44.7676322514198" lon="9.153409685340723"><ele>564.5</ele><time>2026-05-01T14:04:08.001Z</time></trkpt><trkpt lat="44.76768834572574" lon="9.153304219903005"><ele>565.3333333333334</ele><time>2026-05-01T14:04:09.001Z</time></trkpt><trkpt lat="44.767726093392085" lon="9.15320412321373"><ele>566.1666666666666</ele><time>2026-05-01T14:04:10.001Z</time></trkpt><trkpt lat="44.767743392540424" lon="9.153106279399047"><ele>567.0</ele><time>2026-05-01T14:04:11.001Z</time></trkpt><trkpt lat="44.767720839673444" lon="9.153003384098586"><ele>567.0</ele><time>2026-05-01T14:04:12.001Z</time></trkpt><trkpt lat="44.76766141346745" lon="9.152925477291637"><ele>567.0</ele><time>2026-05-01T14:04:13.001Z</time></trkpt><trkpt lat="44.7675925610776" lon="9.15289804400231"><ele>567.0</ele><time>2026-05-01T14:04:14.001Z</time></trkpt><trkpt lat="44.767522034557786" lon="9.152920092123654"><ele>567.0</ele><time>2026-05-01T14:04:15.001Z</time></trkpt><trkpt lat="44.76745994855048" lon="9.152991931359772"><ele>567.0</ele><time>2026-05-01T14:04:16.001Z</time></trkpt><trkpt lat="44.76740060565815" lon="9.153080930210207"><ele>567.0</ele><time>2026-05-01T14:04:17.001Z</time></trkpt><trkpt lat="44.767338144771685" lon="9.153190692523854"><ele>567.0</ele><time>2026-05-01T14:04:18.001Z</time></trkpt><trkpt lat="44.76727676176326" lon="9.15331302000061"><ele>567.0</ele><time>2026-05-01T14:04:19.001Z</time></trkpt><trkpt lat="44.767207372683544" lon="9.153447627774721"><ele>567.0</ele><time>2026-05-01T14:04:20.001Z</time></trkpt><trkpt lat="44.76713620169293" lon="9.15358625015812"><ele>567.0</ele><time>2026-05-01T14:04:21.001Z</time></trkpt><trkpt lat="44.76707354529552" lon="9.153721968094473"><ele>567.0</ele><time>2026-05-01T14:04:22.001Z</time></trkpt><trkpt lat="44.76701777698043" lon="9.153843668687331"><ele>567.0</ele><time>2026-05-01T14:04:23.001Z</time></trkpt><trkpt lat="44.76696507637977" lon="9.153936629685687"><ele>567.0</ele><time>2026-05-01T14:04:24.001Z</time></trkpt><trkpt lat="44.76690563809223" lon="9.15397945359359"><ele>567.0</ele><time>2026-05-01T14:04:25.001Z</time></trkpt><trkpt lat="44.76682618019871" lon="9.153921686521048"><ele>567.0</ele><time>2026-05-01T14:04:27.001Z</time></trkpt><trkpt lat="44.766805980209014" lon="9.153831218569751"><ele>567.0</ele><time>2026-05-01T14:04:28.001Z</time></trkpt><trkpt lat="44.76683049346427" lon="9.15370777226602"><ele>567.0</ele><time>2026-05-01T14:04:29.001Z</time></trkpt><trkpt lat="44.766883250388695" lon="9.153603739723744"><ele>567.0</ele><time>2026-05-01T14:04:30.001Z</time></trkpt><trkpt lat="44.766939601135256" lon="9.153499983965508"><ele>567.0</ele><time>2026-05-01T14:04:31.001Z</time></trkpt><trkpt lat="44.766982734587174" lon="9.15340296716072"><ele>567.0</ele><time>2026-05-01T14:04:32.001Z</time></trkpt><trkpt lat="44.766990889058846" lon="9.153308605209515"><ele>567.0</ele><time>2026-05-01T14:04:33.001Z</time></trkpt><trkpt lat="44.7669160130885" lon="9.15317903542977"><ele>572.6</ele><time>2026-05-01T14:04:34.997Z</time></trkpt><trkpt lat="44.76680613882454" lon="9.15322384932419"><ele>578.2</ele><time>2026-05-01T14:04:36.997Z</time></trkpt><trkpt lat="44.76676018139995" lon="9.153324445615876"><ele>583.8</ele><time>2026-05-01T14:04:37.997Z</time></trkpt><trkpt lat="44.76670769013235" lon="9.153441576651117"><ele>589.4</ele><time>2026-05-01T14:04:38.997Z</time></trkpt><trkpt lat="44.766637969040396" lon="9.153562195710112"><ele>595.0</ele><time>2026-05-01T14:04:39.997Z</time></trkpt><trkpt lat="44.76657669335447" lon="9.153702057587656"><ele>595.0</ele><time>2026-05-01T14:04:40.997Z</time></trkpt><trkpt lat="44.76654235716795" lon="9.153866187924754"><ele>595.0</ele><time>2026-05-01T14:04:41.997Z</time></trkpt><trkpt lat="44.76653023440603" lon="9.154042357850535"><ele>595.0</ele><time>2026-05-01T14:04:42.997Z</time></trkpt><trkpt lat="44.7665369043434" lon="9.154189700531504"><ele>595.0</ele><time>2026-05-01T14:04:43.997Z</time></trkpt><trkpt lat="44.76654913334263" lon="9.15430878015838"><ele>595.0</ele><time>2026-05-01T14:04:44.997Z</time></trkpt><trkpt lat="44.76653294279191" lon="9.154411080856011"><ele>593.5</ele><time>2026-05-01T14:04:45.997Z</time></trkpt><trkpt lat="44.76648966887254" lon="9.15448676232049"><ele>592.0</ele><time>2026-05-01T14:04:46.997Z</time></trkpt><trkpt lat="44.76642092644971" lon="9.154527250615512"><ele>590.5</ele><time>2026-05-01T14:04:47.998Z</time></trkpt><trkpt lat="44.76634460374298" lon="9.154510959969024"><ele>589.0</ele><time>2026-05-01T14:04:48.998Z</time></trkpt><trkpt lat="44.76629009613261" lon="9.154353265890876"><ele>587.5</ele><time>2026-05-01T14:04:50.998Z</time></trkpt><trkpt lat="44.76629162984287" lon="9.154225949858022"><ele>586.0</ele><time>2026-05-01T14:04:51.998Z</time></trkpt><trkpt lat="44.766313815191126" lon="9.154071239199093"><ele>588.25</ele><time>2026-05-01T14:04:52.998Z</time></trkpt><trkpt lat="44.7663344151807" lon="9.153906503846082"><ele>590.5</ele><time>2026-05-01T14:04:53.998Z</time></trkpt><trkpt lat="44.76635800900007" lon="9.153725506360807"><ele>592.75</ele><time>2026-05-01T14:04:54.998Z</time></trkpt><trkpt lat="44.76638600780559" lon="9.153535747247146"><ele>595.0</ele><time>2026-05-01T14:04:55.998Z</time></trkpt><trkpt lat="44.76642568711848" lon="9.153347712562708"><ele>595.0</ele><time>2026-05-01T14:04:56.998Z</time></trkpt><trkpt lat="44.76648382133063" lon="9.153215154785688"><ele>595.0</ele><time>2026-05-01T14:04:57.998Z</time></trkpt><trkpt lat="44.76654315072929" lon="9.153106446189906"><ele>595.0</ele><time>2026-05-01T14:04:58.998Z</time></trkpt><trkpt lat="44.766567029421886" lon="9.1529928662633"><ele>595.0</ele><time>2026-05-01T14:04:59.999Z</time></trkpt><trkpt lat="44.7665628805541" lon="9.152879838918386"><ele>595.0</ele><time>2026-05-01T14:05:00.999Z</time></trkpt><trkpt lat="44.76654223231743" lon="9.152756272463174"><ele>594.4</ele><time>2026-05-01T14:05:01.999Z</time></trkpt><trkpt lat="44.76649543032082" lon="9.152632369001378"><ele>593.8</ele><time>2026-05-01T14:05:02.999Z</time></trkpt><trkpt lat="44.766419902926415" lon="9.152532270422707"><ele>593.2</ele><time>2026-05-01T14:05:03.999Z</time></trkpt><trkpt lat="44.76633440788235" lon="9.152466042819668"><ele>592.6</ele><time>2026-05-01T14:05:04.999Z</time></trkpt><trkpt lat="44.76624431489378" lon="9.15244285194537"><ele>592.0</ele><time>2026-05-01T14:05:05.999Z</time></trkpt><trkpt lat="44.766148450419124" lon="9.152456776264147"><ele>592.0</ele><time>2026-05-01T14:05:06.999Z</time></trkpt><trkpt lat="44.76604619050162" lon="9.15251090912685"><ele>592.0</ele><time>2026-05-01T14:05:07.999Z</time></trkpt><trkpt lat="44.76595146483944" lon="9.15260341299942"><ele>592.0</ele><time>2026-05-01T14:05:08.999Z</time></trkpt><trkpt lat="44.76585065905919" lon="9.152708033661462"><ele>592.0</ele><time>2026-05-01T14:05:09.999Z</time></trkpt><trkpt lat="44.76574592910227" lon="9.152822339588576"><ele>596.0</ele><time>2026-05-01T14:05:10.999Z</time></trkpt><trkpt lat="44.7656388392578" lon="9.152938625758177"><ele>600.0</ele><time>2026-05-01T14:05:11.999Z</time></trkpt><trkpt lat="44.76551228545026" lon="9.15303404963156"><ele>604.0</ele><time>2026-05-01T14:05:12.999Z</time></trkpt><trkpt lat="44.76539679770894" lon="9.153169748974838"><ele>608.0</ele><time>2026-05-01T14:05:13.999Z</time></trkpt><trkpt lat="44.76527034645656" lon="9.153291132984148"><ele>610.5</ele><time>2026-05-01T14:05:14.999Z</time></trkpt><trkpt lat="44.76515020406344" lon="9.15340517705375"><ele>613.0</ele><time>2026-05-01T14:05:15.999Z</time></trkpt><trkpt lat="44.76502254457522" lon="9.153524660257824"><ele>615.5</ele><time>2026-05-01T14:05:16.999Z</time></trkpt><trkpt lat="44.76490162055287" lon="9.153611733696422"><ele>618.0</ele><time>2026-05-01T14:05:17.999Z</time></trkpt><trkpt lat="44.76478775598135" lon="9.153669218600346"><ele>618.0</ele><time>2026-05-01T14:05:18.999Z</time></trkpt><trkpt lat="44.76466648426806" lon="9.15371239314753"><ele>618.0</ele><time>2026-05-01T14:05:19.999Z</time></trkpt><trkpt lat="44.764537149428186" lon="9.15374168563015"><ele>618.0</ele><time>2026-05-01T14:05:20.999Z</time></trkpt><trkpt lat="44.76440594635385" lon="9.153769287117123"><ele>618.0</ele><time>2026-05-01T14:05:21.999Z</time></trkpt><trkpt lat="44.76426674854609" lon="9.153800978429027"><ele>619.5</ele><time>2026-05-01T14:05:22.999Z</time></trkpt><trkpt lat="44.76412378622468" lon="9.153828466378986"><ele>621.0</ele><time>2026-05-01T14:05:24Z</time></trkpt><trkpt lat="44.76397350735389" lon="9.153859667081383"><ele>622.5</ele><time>2026-05-01T14:05:25Z</time></trkpt><trkpt lat="44.76382467146714" lon="9.153894695180155"><ele>624.0</ele><time>2026-05-01T14:05:26Z</time></trkpt><trkpt lat="44.76367176549552" lon="9.153921942958007"><ele>627.6666666666666</ele><time>2026-05-01T14:05:27Z</time></trkpt><trkpt lat="44.76352166988521" lon="9.153952169995456"><ele>631.3333333333333</ele><time>2026-05-01T14:05:28Z</time></trkpt><trkpt lat="44.76336548720514" lon="9.15398678868957"><ele>635.0</ele><time>2026-05-01T14:05:29Z</time></trkpt><trkpt lat="44.763210462973944" lon="9.154021851067933"><ele>632.6666666666666</ele><time>2026-05-01T14:05:30Z</time></trkpt><trkpt lat="44.76305268840674" lon="9.154055741155059"><ele>630.3333333333334</ele><time>2026-05-01T14:05:31Z</time></trkpt><trkpt lat="44.7628967168432" lon="9.154089491158539"><ele>628.0</ele><time>2026-05-01T14:05:32Z</time></trkpt><trkpt lat="44.7627470609596" lon="9.15412504410473"><ele>630.5</ele><time>2026-05-01T14:05:33Z</time></trkpt><trkpt lat="44.76260059214975" lon="9.154160021752613"><ele>633.0</ele><time>2026-05-01T14:05:34Z</time></trkpt><trkpt lat="44.762467491474524" lon="9.154186373240783"><ele>635.5</ele><time>2026-05-01T14:05:35Z</time></trkpt><trkpt lat="44.76235652899009" lon="9.154212093404247"><ele>638.0</ele><time>2026-05-01T14:05:36Z</time></trkpt><trkpt lat="44.76225083341718" lon="9.154223295863797"><ele>638.0</ele><time>2026-05-01T14:05:37Z</time></trkpt><trkpt lat="44.76215787453438" lon="9.1542222224119"><ele>638.0</ele><time>2026-05-01T14:05:38Z</time></trkpt><trkpt lat="44.762058410657424" lon="9.154194954673295"><ele>638.0</ele><time>2026-05-01T14:05:39Z</time></trkpt><trkpt lat="44.761965953677255" lon="9.15414414588234"><ele>638.0</ele><time>2026-05-01T14:05:40Z</time></trkpt><trkpt lat="44.76189451007693" lon="9.154053545509857"><ele>638.0</ele><time>2026-05-01T14:05:41Z</time></trkpt><trkpt lat="44.761849079729735" lon="9.153925280838823"><ele>641.0</ele><time>2026-05-01T14:05:42Z</time></trkpt><trkpt lat="44.7617932133396" lon="9.153765717123047"><ele>644.0</ele><time>2026-05-01T14:05:43Z</time></trkpt><trkpt lat="44.76174030066795" lon="9.153602698875408"><ele>647.0</ele><time>2026-05-01T14:05:44Z</time></trkpt><trkpt lat="44.76168292526687" lon="9.153422430986177"><ele>650.0</ele><time>2026-05-01T14:05:45Z</time></trkpt><trkpt lat="44.76162328172361" lon="9.15324387579289"><ele>651.25</ele><time>2026-05-01T14:05:46Z</time></trkpt><trkpt lat="44.7615610976486" lon="9.153061823966832"><ele>652.5</ele><time>2026-05-01T14:05:47Z</time></trkpt><trkpt lat="44.76149957853629" lon="9.152874327518314"><ele>653.75</ele><time>2026-05-01T14:05:48Z</time></trkpt><trkpt lat="44.76144360518421" lon="9.152687990215224"><ele>655.0</ele><time>2026-05-01T14:05:49Z</time></trkpt><trkpt lat="44.76138922819739" lon="9.152528601265741"><ele>655.0</ele><time>2026-05-01T14:05:50Z</time></trkpt><trkpt lat="44.7613426288265" lon="9.152388721356617"><ele>655.0</ele><time>2026-05-01T14:05:51Z</time></trkpt><trkpt lat="44.76128123474032" lon="9.15226589906681"><ele>655.0</ele><time>2026-05-01T14:05:52Z</time></trkpt><trkpt lat="44.76119720886515" lon="9.152170096336086"><ele>655.0</ele><time>2026-05-01T14:05:53Z</time></trkpt><trkpt lat="44.76110106820185" lon="9.152122755680624"><ele>655.0</ele><time>2026-05-01T14:05:54Z</time></trkpt><trkpt lat="44.7609910549995" lon="9.15212252461736"><ele>657.5</ele><time>2026-05-01T14:05:55Z</time></trkpt><trkpt lat="44.760874752485165" lon="9.152148519591746"><ele>660.0</ele><time>2026-05-01T14:05:56Z</time></trkpt><trkpt lat="44.760757092065795" lon="9.152182540446102"><ele>662.5</ele><time>2026-05-01T14:05:57Z</time></trkpt><trkpt lat="44.760623244650375" lon="9.152208190438056"><ele>665.0</ele><time>2026-05-01T14:05:58Z</time></trkpt><trkpt lat="44.76048735406858" lon="9.152234627376833"><ele>665.0</ele><time>2026-05-01T14:05:59Z</time></trkpt><trkpt lat="44.76034909095522" lon="9.1522626919644"><ele>665.0</ele><time>2026-05-01T14:06:00Z</time></trkpt><trkpt lat="44.76021866870094" lon="9.152269522242236"><ele>665.0</ele><time>2026-05-01T14:06:01Z</time></trkpt><trkpt lat="44.76009240485592" lon="9.152240904956539"><ele>665.0</ele><time>2026-05-01T14:06:02Z</time></trkpt><trkpt lat="44.75996032368407" lon="9.152177620750418"><ele>666.0</ele><time>2026-05-01T14:06:03.001Z</time></trkpt><trkpt lat="44.75981780555931" lon="9.15210055148228"><ele>667.0</ele><time>2026-05-01T14:06:04.001Z</time></trkpt><trkpt lat="44.75966800076802" lon="9.152028618599227"><ele>668.0</ele><time>2026-05-01T14:06:05.001Z</time></trkpt><trkpt lat="44.75951484114611" lon="9.151959980131839"><ele>668.0</ele><time>2026-05-01T14:06:06.001Z</time></trkpt><trkpt lat="44.759369364280175" lon="9.151902961132754"><ele>668.0</ele><time>2026-05-01T14:06:07.001Z</time></trkpt><trkpt lat="44.759223469389006" lon="9.15187415155543"><ele>668.0</ele><time>2026-05-01T14:06:08.001Z</time></trkpt><trkpt lat="44.75906754224414" lon="9.151863116444112"><ele>669.6666666666666</ele><time>2026-05-01T14:06:09.001Z</time></trkpt><trkpt lat="44.75890931905601" lon="9.151870147154458"><ele>671.3333333333334</ele><time>2026-05-01T14:06:10.001Z</time></trkpt><trkpt lat="44.7587510701248" lon="9.151892743606359"><ele>673.0</ele><time>2026-05-01T14:06:11.001Z</time></trkpt><trkpt lat="44.758594873164434" lon="9.151935111576863"><ele>674.0</ele><time>2026-05-01T14:06:12.001Z</time></trkpt><trkpt lat="44.75845113269353" lon="9.151969407536725"><ele>675.0</ele><time>2026-05-01T14:06:13.001Z</time></trkpt><trkpt lat="44.75832338028736" lon="9.151992787844225"><ele>676.0</ele><time>2026-05-01T14:06:14.001Z</time></trkpt><trkpt lat="44.75820042299106" lon="9.152016531370366"><ele>677.0</ele><time>2026-05-01T14:06:15.001Z</time></trkpt><trkpt lat="44.758075031050446" lon="9.152042101823229"><ele>677.0</ele><time>2026-05-01T14:06:16.001Z</time></trkpt><trkpt lat="44.75795274146837" lon="9.152065612824758"><ele>677.0</ele><time>2026-05-01T14:06:17.001Z</time></trkpt><trkpt lat="44.75783585819097" lon="9.152090175719524"><ele>677.0</ele><time>2026-05-01T14:06:18.001Z</time></trkpt><trkpt lat="44.7577277069799" lon="9.152109959858862"><ele>677.0</ele><time>2026-05-01T14:06:19.001Z</time></trkpt><trkpt lat="44.75763073984417" lon="9.152126380287683"><ele>677.0</ele><time>2026-05-01T14:06:20.001Z</time></trkpt><trkpt lat="44.757540543677926" lon="9.152150069743934"><ele>679.0</ele><time>2026-05-01T14:06:21.001Z</time></trkpt><trkpt lat="44.7574647587117" lon="9.152160987807683"><ele>681.0</ele><time>2026-05-01T14:06:22.001Z</time></trkpt><trkpt lat="44.75738290593886" lon="9.152169257018597"><ele>683.0</ele><time>2026-05-01T14:06:23.001Z</time></trkpt><trkpt lat="44.75729695606385" lon="9.152172994150922"><ele>685.0</ele><time>2026-05-01T14:06:24.001Z</time></trkpt><trkpt lat="44.75720743810683" lon="9.15217800018512"><ele>687.0</ele><time>2026-05-01T14:06:25.001Z</time></trkpt><trkpt lat="44.75712084557834" lon="9.15219055300392"><ele>689.0</ele><time>2026-05-01T14:06:26.001Z</time></trkpt><trkpt lat="44.7570449038719" lon="9.152212269648684"><ele>689.0</ele><time>2026-05-01T14:06:27.001Z</time></trkpt><trkpt lat="44.756966071778876" lon="9.152240782262492"><ele>689.0</ele><time>2026-05-01T14:06:28.001Z</time></trkpt><trkpt lat="44.756887568287254" lon="9.152300096831125"><ele>689.0</ele><time>2026-05-01T14:06:29.001Z</time></trkpt><trkpt lat="44.756816692904984" lon="9.152381246064836"><ele>689.0</ele><time>2026-05-01T14:06:30.001Z</time></trkpt><trkpt lat="44.756742021038505" lon="9.152446151945156"><ele>689.0</ele><time>2026-05-01T14:06:31.001Z</time></trkpt><trkpt lat="44.75666732267283" lon="9.15250665671364"><ele>689.0</ele><time>2026-05-01T14:06:32.001Z</time></trkpt><trkpt lat="44.75658878102597" lon="9.152546179061277"><ele>688.2</ele><time>2026-05-01T14:06:33.001Z</time></trkpt><trkpt lat="44.75652098962706" lon="9.152567602473143"><ele>687.4000000000001</ele><time>2026-05-01T14:06:34.001Z</time></trkpt><trkpt lat="44.756440110440764" lon="9.152601374758133"><ele>686.6</ele><time>2026-05-01T14:06:35.001Z</time></trkpt><trkpt lat="44.75634478772587" lon="9.152574937948954"><ele>685.8</ele><time>2026-05-01T14:06:36.001Z</time></trkpt><trkpt lat="44.756265059803276" lon="9.152459980497898"><ele>685.0</ele><time>2026-05-01T14:06:37.001Z</time></trkpt><trkpt lat="44.756189702818865" lon="9.152374320584066"><ele>687.1666666666667</ele><time>2026-05-01T14:06:38.001Z</time></trkpt><trkpt lat="44.75612021783747" lon="9.152294420584601"><ele>689.3333333333334</ele><time>2026-05-01T14:06:39.001Z</time></trkpt><trkpt lat="44.7560614711423" lon="9.152219421791932"><ele>691.5</ele><time>2026-05-01T14:06:40.001Z</time></trkpt><trkpt lat="44.75594933569719" lon="9.15213481624705"><ele>693.6666666666666</ele><time>2026-05-01T14:06:41.997Z</time></trkpt><trkpt lat="44.75587804303989" lon="9.15208651326148"><ele>695.8333333333333</ele><time>2026-05-01T14:06:42.997Z</time></trkpt><trkpt lat="44.75585047514285" lon="9.15217357478749"><ele>698.0</ele><time>2026-05-01T14:06:43.997Z</time></trkpt><trkpt lat="44.755800745865976" lon="9.152299812396999"><ele>698.0</ele><time>2026-05-01T14:06:46.997Z</time></trkpt><trkpt lat="44.75576577479706" lon="9.152405142097377"><ele>698.0</ele><time>2026-05-01T14:06:47.997Z</time></trkpt><trkpt lat="44.755764864681346" lon="9.152528688116801"><ele>698.0</ele><time>2026-05-01T14:06:48.997Z</time></trkpt><trkpt lat="44.755772608927174" lon="9.15265563622315"><ele>698.0</ele><time>2026-05-01T14:06:49.997Z</time></trkpt><trkpt lat="44.75577807210986" lon="9.152777853684897"><ele>698.0</ele><time>2026-05-01T14:06:50.997Z</time></trkpt><trkpt lat="44.75578076160633" lon="9.152889602999592"><ele>698.0</ele><time>2026-05-01T14:06:51.997Z</time></trkpt><trkpt lat="44.755772096977445" lon="9.153013131051612"><ele>698.0</ele><time>2026-05-01T14:06:52.997Z</time></trkpt><trkpt lat="44.75575023319314" lon="9.153132563069645"><ele>698.0</ele><time>2026-05-01T14:06:53.997Z</time></trkpt><trkpt lat="44.755709078112126" lon="9.153229235879516"><ele>698.0</ele><time>2026-05-01T14:06:54.997Z</time></trkpt><trkpt lat="44.75565151260122" lon="9.153318039808614"><ele>698.0</ele><time>2026-05-01T14:06:55.998Z</time></trkpt><trkpt lat="44.75559093780783" lon="9.153389939149845"><ele>698.0</ele><time>2026-05-01T14:06:56.998Z</time></trkpt><trkpt lat="44.7555306321401" lon="9.153443809221317"><ele>698.0</ele><time>2026-05-01T14:06:57.998Z</time></trkpt><trkpt lat="44.755466402549246" lon="9.153492693099839"><ele>697.5714285714286</ele><time>2026-05-01T14:06:58.998Z</time></trkpt><trkpt lat="44.755400498250204" lon="9.153539727067182"><ele>697.1428571428571</ele><time>2026-05-01T14:06:59.998Z</time></trkpt><trkpt lat="44.755343232761945" lon="9.153580829610842"><ele>696.7142857142858</ele><time>2026-05-01T14:07:00.998Z</time></trkpt><trkpt lat="44.75528271023235" lon="9.153627458742292"><ele>696.2857142857142</ele><time>2026-05-01T14:07:01.998Z</time></trkpt><trkpt lat="44.75521976498817" lon="9.153675183863506"><ele>695.8571428571429</ele><time>2026-05-01T14:07:02.998Z</time></trkpt><trkpt lat="44.75515470462277" lon="9.153722878029015"><ele>695.4285714285714</ele><time>2026-05-01T14:07:03.998Z</time></trkpt><trkpt lat="44.75509015149108" lon="9.153771076688482"><ele>695.0</ele><time>2026-05-01T14:07:04.998Z</time></trkpt><trkpt lat="44.75503436142358" lon="9.153818249721233"><ele>696.5</ele><time>2026-05-01T14:07:05.998Z</time></trkpt><trkpt lat="44.75492986103821" lon="9.153890447350602"><ele>698.0</ele><time>2026-05-01T14:07:07.999Z</time></trkpt><trkpt lat="44.754870914017516" lon="9.153932528670165"><ele>699.5</ele><time>2026-05-01T14:07:08.999Z</time></trkpt><trkpt lat="44.75476508832475" lon="9.154005093386226"><ele>701.0</ele><time>2026-05-01T14:07:10.999Z</time></trkpt><trkpt lat="44.75470901983031" lon="9.154051345123584"><ele>702.5</ele><time>2026-05-01T14:07:11.999Z</time></trkpt><trkpt lat="44.754652804205485" lon="9.154093676359901"><ele>704.0</ele><time>2026-05-01T14:07:12.999Z</time></trkpt><trkpt lat="44.754585770669166" lon="9.154134940714012"><ele>704.0</ele><time>2026-05-01T14:07:13.999Z</time></trkpt><trkpt lat="44.754511922649485" lon="9.15415551814451"><ele>704.0</ele><time>2026-05-01T14:07:14.999Z</time></trkpt><trkpt lat="44.754452655438605" lon="9.15420995901779"><ele>704.0</ele><time>2026-05-01T14:07:15.999Z</time></trkpt><trkpt lat="44.75438591289224" lon="9.154235183688915"><ele>704.0</ele><time>2026-05-01T14:07:16.999Z</time></trkpt><trkpt lat="44.754319346104516" lon="9.154252964793573"><ele>704.0</ele><time>2026-05-01T14:07:17.999Z</time></trkpt><trkpt lat="44.75425307975637" lon="9.15427744570048"><ele>704.0</ele><time>2026-05-01T14:07:18.999Z</time></trkpt><trkpt lat="44.75418727648456" lon="9.154290643301275"><ele>704.0</ele><time>2026-05-01T14:07:19.999Z</time></trkpt><trkpt lat="44.75412295466667" lon="9.154307438975566"><ele>705.1428571428571</ele><time>2026-05-01T14:07:20.999Z</time></trkpt><trkpt lat="44.75405469430372" lon="9.154320088559087"><ele>706.2857142857142</ele><time>2026-05-01T14:07:21.999Z</time></trkpt><trkpt lat="44.75398558421752" lon="9.154320777229314"><ele>707.4285714285713</ele><time>2026-05-01T14:07:22.999Z</time></trkpt><trkpt lat="44.75391565009481" lon="9.154308571839541"><ele>708.5714285714286</ele><time>2026-05-01T14:07:23.999Z</time></trkpt><trkpt lat="44.75384768562033" lon="9.154280340127059"><ele>709.7142857142857</ele><time>2026-05-01T14:07:24.999Z</time></trkpt><trkpt lat="44.753782530479135" lon="9.15423258150818"><ele>710.8571428571428</ele><time>2026-05-01T14:07:25.999Z</time></trkpt><trkpt lat="44.75371386593546" lon="9.154190726249048"><ele>712.0</ele><time>2026-05-01T14:07:27Z</time></trkpt><trkpt lat="44.7536491339056" lon="9.154124953470353"><ele>712.0</ele><time>2026-05-01T14:07:28Z</time></trkpt><trkpt lat="44.753569333553834" lon="9.154092135821804"><ele>712.0</ele><time>2026-05-01T14:07:29Z</time></trkpt><trkpt lat="44.75348741773545" lon="9.154096331268828"><ele>712.0</ele><time>2026-05-01T14:07:30Z</time></trkpt><trkpt lat="44.75340847638199" lon="9.154124165227262"><ele>712.0</ele><time>2026-05-01T14:07:31Z</time></trkpt><trkpt lat="44.753326807152376" lon="9.154161643529395"><ele>712.0</ele><time>2026-05-01T14:07:32Z</time></trkpt><trkpt lat="44.753252157261166" lon="9.154254203680804"><ele>712.0</ele><time>2026-05-01T14:07:33Z</time></trkpt><trkpt lat="44.753181310194684" lon="9.154314359069149"><ele>713.0</ele><time>2026-05-01T14:07:34Z</time></trkpt><trkpt lat="44.75311339670438" lon="9.154362410318846"><ele>714.0</ele><time>2026-05-01T14:07:35Z</time></trkpt><trkpt lat="44.75303856412034" lon="9.15440591681162"><ele>715.0</ele><time>2026-05-01T14:07:36Z</time></trkpt><trkpt lat="44.752960814061524" lon="9.154441998767432"><ele>716.0</ele><time>2026-05-01T14:07:37Z</time></trkpt><trkpt lat="44.752881778368625" lon="9.154474804271466"><ele>717.0</ele><time>2026-05-01T14:07:38Z</time></trkpt><trkpt lat="44.752802322347115" lon="9.15450760280091"><ele>718.0</ele><time>2026-05-01T14:07:39Z</time></trkpt><trkpt lat="44.7527283565286" lon="9.1545377942018"><ele>719.1428571428571</ele><time>2026-05-01T14:07:40Z</time></trkpt><trkpt lat="44.75265991481375" lon="9.154560263044585"><ele>720.2857142857143</ele><time>2026-05-01T14:07:41Z</time></trkpt><trkpt lat="44.75258943564347" lon="9.154579428089942"><ele>721.4285714285713</ele><time>2026-05-01T14:07:42Z</time></trkpt><trkpt lat="44.75252367950567" lon="9.15454791466239"><ele>722.5714285714286</ele><time>2026-05-01T14:07:43Z</time></trkpt><trkpt lat="44.75246326599251" lon="9.154483526872712"><ele>723.7142857142857</ele><time>2026-05-01T14:07:44Z</time></trkpt><trkpt lat="44.7524130706221" lon="9.15439950422807"><ele>724.8571428571428</ele><time>2026-05-01T14:07:45Z</time></trkpt><trkpt lat="44.75238227030307" lon="9.154306032110588"><ele>726.0</ele><time>2026-05-01T14:07:46Z</time></trkpt><trkpt lat="44.75237777712193" lon="9.154213074098951"><ele>726.0</ele><time>2026-05-01T14:07:47Z</time></trkpt><trkpt lat="44.75240854202725" lon="9.154123293623629"><ele>726.0</ele><time>2026-05-01T14:07:48Z</time></trkpt><trkpt lat="44.75246966063417" lon="9.154050872915231"><ele>726.0</ele><time>2026-05-01T14:07:49Z</time></trkpt><trkpt lat="44.75254476998689" lon="9.153994181644327"><ele>726.0</ele><time>2026-05-01T14:07:50Z</time></trkpt><trkpt lat="44.75262445344037" lon="9.153925476344618"><ele>726.0</ele><time>2026-05-01T14:07:51Z</time></trkpt><trkpt lat="44.75270463477819" lon="9.153849320752903"><ele>726.0</ele><time>2026-05-01T14:07:52Z</time></trkpt><trkpt lat="44.75277875739813" lon="9.153767189344666"><ele>726.5</ele><time>2026-05-01T14:07:53Z</time></trkpt><trkpt lat="44.75283073021446" lon="9.153665928504555"><ele>727.0</ele><time>2026-05-01T14:07:54Z</time></trkpt><trkpt lat="44.75285909526411" lon="9.153551153834458"><ele>727.5</ele><time>2026-05-01T14:07:55.001Z</time></trkpt><trkpt lat="44.75285645320158" lon="9.15343956003627"><ele>728.0</ele><time>2026-05-01T14:07:56.001Z</time></trkpt><trkpt lat="44.752835226600205" lon="9.153340646222963"><ele>728.5</ele><time>2026-05-01T14:07:57.001Z</time></trkpt><trkpt lat="44.75280427472659" lon="9.153251953432612"><ele>729.0</ele><time>2026-05-01T14:07:58.001Z</time></trkpt><trkpt lat="44.75277911969167" lon="9.15315418315551"><ele>732.4000000000001</ele><time>2026-05-01T14:07:59.001Z</time></trkpt><trkpt lat="44.75272691349142" lon="9.153076343023699"><ele>735.8</ele><time>2026-05-01T14:08:00.001Z</time></trkpt><trkpt lat="44.752651566134816" lon="9.153017121998626"><ele>739.2</ele><time>2026-05-01T14:08:01.001Z</time></trkpt><trkpt lat="44.75256016581411" lon="9.15298955133929"><ele>742.5999999999999</ele><time>2026-05-01T14:08:02.001Z</time></trkpt><trkpt lat="44.75246231693567" lon="9.152981539515041"><ele>746.0</ele><time>2026-05-01T14:08:03.001Z</time></trkpt><trkpt lat="44.75234867105792" lon="9.152985808924948"><ele>746.75</ele><time>2026-05-01T14:08:04.001Z</time></trkpt><trkpt lat="44.752220905489814" lon="9.152996249385282"><ele>747.5</ele><time>2026-05-01T14:08:05.001Z</time></trkpt><trkpt lat="44.752093754274085" lon="9.1530102010057"><ele>748.25</ele><time>2026-05-01T14:08:06.001Z</time></trkpt><trkpt lat="44.75197144768275" lon="9.153033433895137"><ele>749.0</ele><time>2026-05-01T14:08:07.001Z</time></trkpt><trkpt lat="44.75183097663091" lon="9.15305007191666"><ele>751.0</ele><time>2026-05-01T14:08:08.001Z</time></trkpt><trkpt lat="44.751684650317024" lon="9.153079777372527"><ele>753.0</ele><time>2026-05-01T14:08:09.001Z</time></trkpt><trkpt lat="44.751530870662435" lon="9.153112684638614"><ele>755.0</ele><time>2026-05-01T14:08:10.001Z</time></trkpt><trkpt lat="44.75137471756608" lon="9.153137377769925"><ele>755.0</ele><time>2026-05-01T14:08:11.001Z</time></trkpt><trkpt lat="44.75121833734274" lon="9.153164036525986"><ele>755.0</ele><time>2026-05-01T14:08:12.001Z</time></trkpt><trkpt lat="44.75107153788884" lon="9.153187970533786"><ele>755.0</ele><time>2026-05-01T14:08:13.001Z</time></trkpt><trkpt lat="44.75094429699338" lon="9.153212590279596"><ele>755.0</ele><time>2026-05-01T14:08:14.001Z</time></trkpt><trkpt lat="44.75082524468814" lon="9.153239532955245"><ele>755.4</ele><time>2026-05-01T14:08:15.001Z</time></trkpt><trkpt lat="44.7507242977544" lon="9.15328812237728"><ele>755.8</ele><time>2026-05-01T14:08:16.001Z</time></trkpt><trkpt lat="44.7506334941704" lon="9.153356037249344"><ele>756.2</ele><time>2026-05-01T14:08:17.001Z</time></trkpt><trkpt lat="44.75054878529643" lon="9.1534284062233"><ele>756.6</ele><time>2026-05-01T14:08:18.001Z</time></trkpt><trkpt lat="44.75051461808672" lon="9.153576215505328"><ele>757.0</ele><time>2026-05-01T14:08:19.001Z</time></trkpt><trkpt lat="44.75049868769542" lon="9.153720700775464"><ele>757.0</ele><time>2026-05-01T14:08:20.001Z</time></trkpt><trkpt lat="44.75049048943152" lon="9.153877784761587"><ele>757.0</ele><time>2026-05-01T14:08:21.001Z</time></trkpt><trkpt lat="44.750526623248724" lon="9.154034300328362"><ele>757.0</ele><time>2026-05-01T14:08:22.001Z</time></trkpt><trkpt lat="44.75058575515409" lon="9.154174639424982"><ele>757.0</ele><time>2026-05-01T14:08:23.001Z</time></trkpt><trkpt lat="44.75063862889531" lon="9.154310994636019"><ele>757.2</ele><time>2026-05-01T14:08:24.001Z</time></trkpt><trkpt lat="44.750666046206774" lon="9.1544126672471"><ele>757.4000000000001</ele><time>2026-05-01T14:08:25.001Z</time></trkpt><trkpt lat="44.75065994328177" lon="9.154547673884375"><ele>757.5999999999999</ele><time>2026-05-01T14:08:26.001Z</time></trkpt><trkpt lat="44.75065166339457" lon="9.154702892319238"><ele>757.8</ele><time>2026-05-01T14:08:27.001Z</time></trkpt><trkpt lat="44.75064677593656" lon="9.154870599801797"><ele>758.0</ele><time>2026-05-01T14:08:28.002Z</time></trkpt><trkpt lat="44.750652750722416" lon="9.155041417716419"><ele>759.75</ele><time>2026-05-01T14:08:29.002Z</time></trkpt><trkpt lat="44.750674227856486" lon="9.155209939093263"><ele>761.5</ele><time>2026-05-01T14:08:30.002Z</time></trkpt><trkpt lat="44.75071618937919" lon="9.155367437938882"><ele>763.25</ele><time>2026-05-01T14:08:31.002Z</time></trkpt><trkpt lat="44.7507789452627" lon="9.155499651708224"><ele>765.0</ele><time>2026-05-01T14:08:32.002Z</time></trkpt><trkpt lat="44.750849851696714" lon="9.15561003299401"><ele>765.1428571428572</ele><time>2026-05-01T14:08:33.002Z</time></trkpt><trkpt lat="44.75089407203868" lon="9.155708533258041"><ele>765.2857142857143</ele><time>2026-05-01T14:08:34.002Z</time></trkpt><trkpt lat="44.750899099516566" lon="9.155804021952203"><ele>765.4285714285714</ele><time>2026-05-01T14:08:35.002Z</time></trkpt><trkpt lat="44.75086689681429" lon="9.155885458132943"><ele>765.5714285714287</ele><time>2026-05-01T14:08:36.002Z</time></trkpt><trkpt lat="44.7508065711944" lon="9.155939286363703"><ele>765.7142857142857</ele><time>2026-05-01T14:08:37.002Z</time></trkpt><trkpt lat="44.75073485493201" lon="9.15595743097671"><ele>765.8571428571429</ele><time>2026-05-01T14:08:38.002Z</time></trkpt><trkpt lat="44.750646809431224" lon="9.155950356992523"><ele>766.0</ele><time>2026-05-01T14:08:39.002Z</time></trkpt><trkpt lat="44.7505330563849" lon="9.155940217386995"><ele>766.0</ele><time>2026-05-01T14:08:40.002Z</time></trkpt><trkpt lat="44.75040933227506" lon="9.15595084731435"><ele>766.0</ele><time>2026-05-01T14:08:41.002Z</time></trkpt><trkpt lat="44.75027334095077" lon="9.155973815018589"><ele>766.0</ele><time>2026-05-01T14:08:42.002Z</time></trkpt><trkpt lat="44.75012584639782" lon="9.155983544579973"><ele>766.0</ele><time>2026-05-01T14:08:43.002Z</time></trkpt><trkpt lat="44.74997436460323" lon="9.15597105197654"><ele>768.5</ele><time>2026-05-01T14:08:44.002Z</time></trkpt><trkpt lat="44.74983733138384" lon="9.155948751773979"><ele>771.0</ele><time>2026-05-01T14:08:45.002Z</time></trkpt><trkpt lat="44.74969242173242" lon="9.155923508070375"><ele>773.5</ele><time>2026-05-01T14:08:46.002Z</time></trkpt><trkpt lat="44.74954309028525" lon="9.155899327118"><ele>776.0</ele><time>2026-05-01T14:08:46.997Z</time></trkpt><trkpt lat="44.749385203094576" lon="9.1558871411878"><ele>778.3333333333334</ele><time>2026-05-01T14:08:47.998Z</time></trkpt><trkpt lat="44.749223950603294" lon="9.155891964501924"><ele>780.6666666666667</ele><time>2026-05-01T14:08:48.998Z</time></trkpt><trkpt lat="44.749064430451156" lon="9.155927588786538"><ele>783.0</ele><time>2026-05-01T14:08:49.998Z</time></trkpt><trkpt lat="44.748910169584796" lon="9.155982971683821"><ele>783.0</ele><time>2026-05-01T14:08:50.998Z</time></trkpt><trkpt lat="44.74875879356676" lon="9.15604688930363"><ele>783.0</ele><time>2026-05-01T14:08:51.998Z</time></trkpt><trkpt lat="44.74861434620236" lon="9.156106037098368"><ele>783.0</ele><time>2026-05-01T14:08:52.998Z</time></trkpt><trkpt lat="44.74847022000415" lon="9.156161289302082"><ele>786.3333333333333</ele><time>2026-05-01T14:08:53.998Z</time></trkpt><trkpt lat="44.74832517328358" lon="9.156215975207665"><ele>789.6666666666666</ele><time>2026-05-01T14:08:54.998Z</time></trkpt><trkpt lat="44.74817668501478" lon="9.156275360033746"><ele>793.0</ele><time>2026-05-01T14:08:55.998Z</time></trkpt><trkpt lat="44.74802989788233" lon="9.156337165382565"><ele>793.0</ele><time>2026-05-01T14:08:56.998Z</time></trkpt><trkpt lat="44.74788516816253" lon="9.156402098502644"><ele>793.0</ele><time>2026-05-01T14:08:57.999Z</time></trkpt><trkpt lat="44.74774658455662" lon="9.156469813066234"><ele>793.0</ele><time>2026-05-01T14:08:58.999Z</time></trkpt><trkpt lat="44.74762531542138" lon="9.156530978251041"><ele>793.0</ele><time>2026-05-01T14:08:59.999Z</time></trkpt><trkpt lat="44.74751444655494" lon="9.156584091843696"><ele>793.0</ele><time>2026-05-01T14:09:00.999Z</time></trkpt><trkpt lat="44.74740757264962" lon="9.156631403606754"><ele>793.0</ele><time>2026-05-01T14:09:01.999Z</time></trkpt><trkpt lat="44.747305241243716" lon="9.156668435456291"><ele>793.0</ele><time>2026-05-01T14:09:02.999Z</time></trkpt><trkpt lat="44.74720786242477" lon="9.156699447293827"><ele>793.0</ele><time>2026-05-01T14:09:03.999Z</time></trkpt><trkpt lat="44.74710691350202" lon="9.15672301195536"><ele>793.0</ele><time>2026-05-01T14:09:04.999Z</time></trkpt><trkpt lat="44.74700614327323" lon="9.156734061363903"><ele>792.9999999999999</ele><time>2026-05-01T14:09:05.999Z</time></trkpt><trkpt lat="44.74691894682907" lon="9.156732493855422"><ele>793.0</ele><time>2026-05-01T14:09:06.999Z</time></trkpt><trkpt lat="44.74683933467445" lon="9.15671053155431"><ele>793.0</ele><time>2026-05-01T14:09:07.999Z</time></trkpt><trkpt lat="44.746762542612394" lon="9.156699373648946"><ele>793.0</ele><time>2026-05-01T14:09:09Z</time></trkpt><trkpt lat="44.74668205769829" lon="9.156773331310417"><ele>792.9999999999999</ele><time>2026-05-01T14:09:10Z</time></trkpt><trkpt lat="44.746598246935946" lon="9.15681635301362"><ele>793.0</ele><time>2026-05-01T14:09:11Z</time></trkpt><trkpt lat="44.74650964663082" lon="9.156862349381822"><ele>794.25</ele><time>2026-05-01T14:09:12Z</time></trkpt><trkpt lat="44.746401431798034" lon="9.156902253203862"><ele>795.5</ele><time>2026-05-01T14:09:13Z</time></trkpt><trkpt lat="44.74627541979054" lon="9.156934990227954"><ele>796.75</ele><time>2026-05-01T14:09:14Z</time></trkpt><trkpt lat="44.74612760628686" lon="9.156975560689917"><ele>798.0</ele><time>2026-05-01T14:09:15Z</time></trkpt><trkpt lat="44.745977002079684" lon="9.157012533176129"><ele>800.0</ele><time>2026-05-01T14:09:16Z</time></trkpt><trkpt lat="44.74582448149061" lon="9.157055846515897"><ele>802.0</ele><time>2026-05-01T14:09:17Z</time></trkpt><trkpt lat="44.74567711902368" lon="9.157097971654053"><ele>804.0</ele><time>2026-05-01T14:09:18Z</time></trkpt><trkpt lat="44.74553253645749" lon="9.1571337672522"><ele>804.0</ele><time>2026-05-01T14:09:19Z</time></trkpt><trkpt lat="44.74538476898574" lon="9.157157194160536"><ele>804.0</ele><time>2026-05-01T14:09:20Z</time></trkpt><trkpt lat="44.745247747307026" lon="9.15718663898987"><ele>804.0</ele><time>2026-05-01T14:09:21Z</time></trkpt><trkpt lat="44.74511187309061" lon="9.157232407961631"><ele>804.0</ele><time>2026-05-01T14:09:22Z</time></trkpt><trkpt lat="44.74497972797984" lon="9.157297024201174"><ele>802.0</ele><time>2026-05-01T14:09:23Z</time></trkpt><trkpt lat="44.7448505656062" lon="9.157389456932863"><ele>800.0</ele><time>2026-05-01T14:09:24Z</time></trkpt><trkpt lat="44.74472369285963" lon="9.157488666613492"><ele>798.0</ele><time>2026-05-01T14:09:25Z</time></trkpt><trkpt lat="44.7446094243667" lon="9.157599651856154"><ele>796.0</ele><time>2026-05-01T14:09:26.001Z</time></trkpt><trkpt lat="44.744497758906185" lon="9.157703504461354"><ele>796.0</ele><time>2026-05-01T14:09:27.001Z</time></trkpt><trkpt lat="44.744390779994134" lon="9.157805016059605"><ele>796.0</ele><time>2026-05-01T14:09:28.001Z</time></trkpt><trkpt lat="44.74429998524837" lon="9.157913608134745"><ele>796.0</ele><time>2026-05-01T14:09:29.001Z</time></trkpt><trkpt lat="44.744219393408734" lon="9.15802645758823"><ele>796.0</ele><time>2026-05-01T14:09:30.001Z</time></trkpt><trkpt lat="44.74414876616148" lon="9.158121362050888"><ele>796.4</ele><time>2026-05-01T14:09:31.001Z</time></trkpt><trkpt lat="44.74407711772263" lon="9.158197025905553"><ele>796.8</ele><time>2026-05-01T14:09:32.001Z</time></trkpt><trkpt lat="44.7439970740664" lon="9.158237623114385"><ele>797.1999999999999</ele><time>2026-05-01T14:09:33.001Z</time></trkpt><trkpt lat="44.74390324484034" lon="9.158251633736063"><ele>797.5999999999999</ele><time>2026-05-01T14:09:34.001Z</time></trkpt><trkpt lat="44.743812044602016" lon="9.158246943883865"><ele>798.0</ele><time>2026-05-01T14:09:35.001Z</time></trkpt><trkpt lat="44.74370636642563" lon="9.158273607608969"><ele>798.0</ele><time>2026-05-01T14:09:36.001Z</time></trkpt><trkpt lat="44.74360088687721" lon="9.158307557241637"><ele>798.0</ele><time>2026-05-01T14:09:37.001Z</time></trkpt><trkpt lat="44.743509953395524" lon="9.1583584151422"><ele>798.0</ele><time>2026-05-01T14:09:38.001Z</time></trkpt><trkpt lat="44.7434276555275" lon="9.158378335659918"><ele>798.0</ele><time>2026-05-01T14:09:39.001Z</time></trkpt><trkpt lat="44.743346762436914" lon="9.158364850466583"><ele>798.0</ele><time>2026-05-01T14:09:40.001Z</time></trkpt><trkpt lat="44.743274104394935" lon="9.158306653740322"><ele>800.5999999999999</ele><time>2026-05-01T14:09:41.001Z</time></trkpt><trkpt lat="44.7432483821766" lon="9.158112448248485"><ele>803.1999999999999</ele><time>2026-05-01T14:09:43.001Z</time></trkpt><trkpt lat="44.743256727390424" lon="9.157986975331228"><ele>805.8</ele><time>2026-05-01T14:09:44.001Z</time></trkpt><trkpt lat="44.74326666175395" lon="9.157840826235313"><ele>808.4</ele><time>2026-05-01T14:09:45.001Z</time></trkpt><trkpt lat="44.74326472636004" lon="9.157717730872946"><ele>811.0</ele><time>2026-05-01T14:09:46.001Z</time></trkpt><trkpt lat="44.74323680078265" lon="9.157613039194691"><ele>811.0</ele><time>2026-05-01T14:09:47.001Z</time></trkpt><trkpt lat="44.74317826421815" lon="9.157531265192475"><ele>811.0</ele><time>2026-05-01T14:09:48.001Z</time></trkpt><trkpt lat="44.74309674517922" lon="9.157494569724692"><ele>811.0</ele><time>2026-05-01T14:09:49.001Z</time></trkpt><trkpt lat="44.74299478927183" lon="9.157486335414617"><ele>811.0</ele><time>2026-05-01T14:09:50.001Z</time></trkpt><trkpt lat="44.7428708759162" lon="9.157503557733953"><ele>811.0</ele><time>2026-05-01T14:09:51.001Z</time></trkpt><trkpt lat="44.74273912795895" lon="9.157500191376402"><ele>808.75</ele><time>2026-05-01T14:09:52.002Z</time></trkpt><trkpt lat="44.74259929679459" lon="9.157512583704264"><ele>806.5</ele><time>2026-05-01T14:09:53.002Z</time></trkpt><trkpt lat="44.7424629613718" lon="9.157542937345937"><ele>804.25</ele><time>2026-05-01T14:09:54.002Z</time></trkpt><trkpt lat="44.74231828771013" lon="9.157540802064275"><ele>802.0</ele><time>2026-05-01T14:09:55.002Z</time></trkpt><trkpt lat="44.742164115719156" lon="9.157520705776994"><ele>802.0</ele><time>2026-05-01T14:09:56.002Z</time></trkpt><trkpt lat="44.74201501842184" lon="9.157483797650878"><ele>802.0</ele><time>2026-05-01T14:09:57.002Z</time></trkpt><trkpt lat="44.74187807647461" lon="9.157454001129102"><ele>802.0</ele><time>2026-05-01T14:09:58.002Z</time></trkpt><trkpt lat="44.74174607027094" lon="9.157436918894996"><ele>802.0</ele><time>2026-05-01T14:09:59.002Z</time></trkpt><trkpt lat="44.74162461938615" lon="9.157452715030526"><ele>801.5</ele><time>2026-05-01T14:10:00.002Z</time></trkpt><trkpt lat="44.74149809186372" lon="9.157501547059752"><ele>801.0</ele><time>2026-05-01T14:10:01.002Z</time></trkpt><trkpt lat="44.74136931035575" lon="9.157576116501183"><ele>800.5</ele><time>2026-05-01T14:10:02.002Z</time></trkpt><trkpt lat="44.7412366146868" lon="9.157649212349225"><ele>800.0</ele><time>2026-05-01T14:10:03.002Z</time></trkpt><trkpt lat="44.741110635680485" lon="9.15774688099706"><ele>801.25</ele><time>2026-05-01T14:10:04.002Z</time></trkpt><trkpt lat="44.74097804139109" lon="9.157832120580071"><ele>802.5</ele><time>2026-05-01T14:10:05.002Z</time></trkpt><trkpt lat="44.74085515700687" lon="9.157904936415273"><ele>803.75</ele><time>2026-05-01T14:10:06.002Z</time></trkpt><trkpt lat="44.74073554874259" lon="9.157949975439823"><ele>805.0</ele><time>2026-05-01T14:10:07.002Z</time></trkpt><trkpt lat="44.740628621625426" lon="9.157997088274273"><ele>805.0</ele><time>2026-05-01T14:10:08.002Z</time></trkpt><trkpt lat="44.740525550594164" lon="9.1580162336863"><ele>805.0</ele><time>2026-05-01T14:10:09.002Z</time></trkpt><trkpt lat="44.74042461567869" lon="9.158003994725709"><ele>805.0</ele><time>2026-05-01T14:10:10.002Z</time></trkpt><trkpt lat="44.74030347126989" lon="9.15798633084684"><ele>805.0</ele><time>2026-05-01T14:10:11.002Z</time></trkpt><trkpt lat="44.74016994711711" lon="9.158010944293562"><ele>806.8</ele><time>2026-05-01T14:10:12.002Z</time></trkpt><trkpt lat="44.740060849880045" lon="9.158045415389013"><ele>808.6</ele><time>2026-05-01T14:10:13.002Z</time></trkpt><trkpt lat="44.739966624312515" lon="9.158077146362455"><ele>810.4000000000001</ele><time>2026-05-01T14:10:14.002Z</time></trkpt><trkpt lat="44.739865528375255" lon="9.15808644351292"><ele>812.2</ele><time>2026-05-01T14:10:15.002Z</time></trkpt><trkpt lat="44.73976161347651" lon="9.158039202503687"><ele>814.0</ele><time>2026-05-01T14:10:16.002Z</time></trkpt><trkpt lat="44.73963105724614" lon="9.157984633777478"><ele>814.0</ele><time>2026-05-01T14:10:17.002Z</time></trkpt><trkpt lat="44.73951369169938" lon="9.15793681407337"><ele>814.0</ele><time>2026-05-01T14:10:18.002Z</time></trkpt><trkpt lat="44.73941504920321" lon="9.157890622095875"><ele>814.0</ele><time>2026-05-01T14:10:19.002Z</time></trkpt><trkpt lat="44.73932833322384" lon="9.157829330492872"><ele>814.0</ele><time>2026-05-01T14:10:20.002Z</time></trkpt><trkpt lat="44.73924269456236" lon="9.157767162587938"><ele>814.0</ele><time>2026-05-01T14:10:21.002Z</time></trkpt><trkpt lat="44.73918234481355" lon="9.157656781538174"><ele>815.3333333333333</ele><time>2026-05-01T14:10:22.002Z</time></trkpt><trkpt lat="44.73913690764574" lon="9.157517677058474"><ele>816.6666666666666</ele><time>2026-05-01T14:10:23.002Z</time></trkpt><trkpt lat="44.73908500613096" lon="9.15738594441775"><ele>818.0</ele><time>2026-05-01T14:10:24.003Z</time></trkpt><trkpt lat="44.739051791651136" lon="9.15728272351777"><ele>819.3333333333333</ele><time>2026-05-01T14:10:25.003Z</time></trkpt><trkpt lat="44.738994196149946" lon="9.157218305485694"><ele>820.6666666666666</ele><time>2026-05-01T14:10:26.003Z</time></trkpt><trkpt lat="44.7389265697016" lon="9.157178007807143"><ele>822.0</ele><time>2026-05-01T14:10:27.003Z</time></trkpt><trkpt lat="44.7388519470257" lon="9.157120638825129"><ele>817.5</ele><time>2026-05-01T14:10:29.003Z</time></trkpt><trkpt lat="44.73878819306972" lon="9.157446200371078"><ele>813.0</ele><time>2026-05-01T14:10:31.003Z</time></trkpt><trkpt lat="44.73878418113646" lon="9.157575731272216"><ele>808.5</ele><time>2026-05-01T14:10:32.003Z</time></trkpt><trkpt lat="44.738785053581665" lon="9.157708035696967"><ele>804.0</ele><time>2026-05-01T14:10:33.003Z</time></trkpt><trkpt lat="44.73876420244488" lon="9.157828123445887"><ele>804.0</ele><time>2026-05-01T14:10:34.003Z</time></trkpt><trkpt lat="44.738707150478376" lon="9.157948205942613"><ele>804.0</ele><time>2026-05-01T14:10:35.003Z</time></trkpt><trkpt lat="44.7386234400543" lon="9.158064832067279"><ele>804.0</ele><time>2026-05-01T14:10:36.003Z</time></trkpt><trkpt lat="44.738531788617" lon="9.158177710355565"><ele>804.0</ele><time>2026-05-01T14:10:37.003Z</time></trkpt><trkpt lat="44.73842816292882" lon="9.158288852018352"><ele>803.5</ele><time>2026-05-01T14:10:38.003Z</time></trkpt><trkpt lat="44.738330209248396" lon="9.15840753565329"><ele>803.0</ele><time>2026-05-01T14:10:39.003Z</time></trkpt><trkpt lat="44.73822136470703" lon="9.158530420177959"><ele>802.5</ele><time>2026-05-01T14:10:40.003Z</time></trkpt><trkpt lat="44.738114438802256" lon="9.158657496480451"><ele>802.0</ele><time>2026-05-01T14:10:41.003Z</time></trkpt><trkpt lat="44.73800442426683" lon="9.158785618663762"><ele>802.0</ele><time>2026-05-01T14:10:42.003Z</time></trkpt><trkpt lat="44.73790650336133" lon="9.15890084429145"><ele>802.0</ele><time>2026-05-01T14:10:43.003Z</time></trkpt><trkpt lat="44.73781040243694" lon="9.159014358627577"><ele>802.0</ele><time>2026-05-01T14:10:44.003Z</time></trkpt><trkpt lat="44.737716127196876" lon="9.159119093369712"><ele>802.0</ele><time>2026-05-01T14:10:45.003Z</time></trkpt><trkpt lat="44.737617934212025" lon="9.15919813563154"><ele>803.75</ele><time>2026-05-01T14:10:46.003Z</time></trkpt><trkpt lat="44.737515587688705" lon="9.159241728909254"><ele>805.5</ele><time>2026-05-01T14:10:47.003Z</time></trkpt><trkpt lat="44.737403919949436" lon="9.159247958586022"><ele>807.25</ele><time>2026-05-01T14:10:48.003Z</time></trkpt><trkpt lat="44.73729123666282" lon="9.15922739829481"><ele>809.0</ele><time>2026-05-01T14:10:49.003Z</time></trkpt><trkpt lat="44.73717982339061" lon="9.159175261113525"><ele>809.0</ele><time>2026-05-01T14:10:50.003Z</time></trkpt><trkpt lat="44.73707434016218" lon="9.159094291174044"><ele>809.0</ele><time>2026-05-01T14:10:51.003Z</time></trkpt><trkpt lat="44.73697973399968" lon="9.158997109352848"><ele>809.0</ele><time>2026-05-01T14:10:52.003Z</time></trkpt><trkpt lat="44.736893600969374" lon="9.158886263623264"><ele>809.0</ele><time>2026-05-01T14:10:52.999Z</time></trkpt><trkpt lat="44.73679853376244" lon="9.158794299265528"><ele>814.75</ele><time>2026-05-01T14:10:53.999Z</time></trkpt><trkpt lat="44.73667841196744" lon="9.158738376132527"><ele>820.5</ele><time>2026-05-01T14:10:54.999Z</time></trkpt><trkpt lat="44.7365644785028" lon="9.15868529725293"><ele>826.25</ele><time>2026-05-01T14:10:55.999Z</time></trkpt><trkpt lat="44.73645850933644" lon="9.158642872610182"><ele>832.0</ele><time>2026-05-01T14:10:56.999Z</time></trkpt><trkpt lat="44.736358773670624" lon="9.158628632192187"><ele>832.0</ele><time>2026-05-01T14:10:57.999Z</time></trkpt><trkpt lat="44.73625923657553" lon="9.15862961351034"><ele>832.0</ele><time>2026-05-01T14:10:58.999Z</time></trkpt><trkpt lat="44.73616140401355" lon="9.15863317540145"><ele>832.0</ele><time>2026-05-01T14:10:59.999Z</time></trkpt><trkpt lat="44.736066784358954" lon="9.1586283858396"><ele>832.0</ele><time>2026-05-01T14:11:00.999Z</time></trkpt><trkpt lat="44.735969902049476" lon="9.158623419960383"><ele>832.0</ele><time>2026-05-01T14:11:01.999Z</time></trkpt><trkpt lat="44.7358686335902" lon="9.158639233308097"><ele>831.75</ele><time>2026-05-01T14:11:02.999Z</time></trkpt><trkpt lat="44.73575965151872" lon="9.158671036899811"><ele>831.5</ele><time>2026-05-01T14:11:03.999Z</time></trkpt><trkpt lat="44.73564291143507" lon="9.158698047847261"><ele>831.25</ele><time>2026-05-01T14:11:04.999Z</time></trkpt><trkpt lat="44.73552160383519" lon="9.158746866938072"><ele>831.0</ele><time>2026-05-01T14:11:05.999Z</time></trkpt><trkpt lat="44.735403065936644" lon="9.158803802519342"><ele>831.0</ele><time>2026-05-01T14:11:06.999Z</time></trkpt><trkpt lat="44.7352961375853" lon="9.158857661721106"><ele>831.0</ele><time>2026-05-01T14:11:08Z</time></trkpt><trkpt lat="44.73519651231357" lon="9.158895909474829"><ele>831.0</ele><time>2026-05-01T14:11:09Z</time></trkpt><trkpt lat="44.735103458633276" lon="9.158934352934205"><ele>831.0</ele><time>2026-05-01T14:11:10Z</time></trkpt><trkpt lat="44.735011258804654" lon="9.158974548154877"><ele>831.0</ele><time>2026-05-01T14:11:11Z</time></trkpt><trkpt lat="44.734929157478895" lon="9.159030177871621"><ele>829.8</ele><time>2026-05-01T14:11:12Z</time></trkpt><trkpt lat="44.73485522635728" lon="9.159100134800822"><ele>828.5999999999999</ele><time>2026-05-01T14:11:13Z</time></trkpt><trkpt lat="44.73477896132267" lon="9.159197669441202"><ele>827.4</ele><time>2026-05-01T14:11:14Z</time></trkpt><trkpt lat="44.73470406626997" lon="9.159268269968987"><ele>826.2</ele><time>2026-05-01T14:11:15Z</time></trkpt><trkpt lat="44.73461769741862" lon="9.159319025027113"><ele>825.0</ele><time>2026-05-01T14:11:16Z</time></trkpt><trkpt lat="44.734518265110296" lon="9.159344826144409"><ele>825.0</ele><time>2026-05-01T14:11:17Z</time></trkpt><trkpt lat="44.734407266091836" lon="9.159347658390946"><ele>825.0</ele><time>2026-05-01T14:11:18Z</time></trkpt><trkpt lat="44.734306902193104" lon="9.159351553180331"><ele>825.0</ele><time>2026-05-01T14:11:19Z</time></trkpt><trkpt lat="44.73421144679379" lon="9.159356315870717"><ele>825.0</ele><time>2026-05-01T14:11:20Z</time></trkpt><trkpt lat="44.734117751794784" lon="9.159358767318313"><ele>825.0</ele><time>2026-05-01T14:11:21Z</time></trkpt><trkpt lat="44.73403755456773" lon="9.15934289345182"><ele>826.0</ele><time>2026-05-01T14:11:22Z</time></trkpt><trkpt lat="44.733951811767646" lon="9.159306309931804"><ele>827.0</ele><time>2026-05-01T14:11:23Z</time></trkpt><trkpt lat="44.733861861006105" lon="9.159265128607524"><ele>828.0</ele><time>2026-05-01T14:11:24Z</time></trkpt><trkpt lat="44.73376345767265" lon="9.159192061744422"><ele>829.0</ele><time>2026-05-01T14:11:25Z</time></trkpt><trkpt lat="44.733673066427535" lon="9.159086471410514"><ele>830.0</ele><time>2026-05-01T14:11:26Z</time></trkpt><trkpt lat="44.733571149285176" lon="9.158971745708387"><ele>831.0</ele><time>2026-05-01T14:11:27Z</time></trkpt><trkpt lat="44.73346686016115" lon="9.158864935366937"><ele>832.0</ele><time>2026-05-01T14:11:28.001Z</time></trkpt><trkpt lat="44.733358793096784" lon="9.158764710460478"><ele>833.0</ele><time>2026-05-01T14:11:29.001Z</time></trkpt><trkpt lat="44.73326295651783" lon="9.158668617103947"><ele>834.0</ele><time>2026-05-01T14:11:30.001Z</time></trkpt><trkpt lat="44.733177259266235" lon="9.158574071731591"><ele>834.0</ele><time>2026-05-01T14:11:31.001Z</time></trkpt><trkpt lat="44.73312254391889" lon="9.158475344892256"><ele>834.0</ele><time>2026-05-01T14:11:32.001Z</time></trkpt><trkpt lat="44.733081450306344" lon="9.158366322792912"><ele>834.0</ele><time>2026-05-01T14:11:33.001Z</time></trkpt><trkpt lat="44.733051408238495" lon="9.15823690987108"><ele>834.0</ele><time>2026-05-01T14:11:34.001Z</time></trkpt><trkpt lat="44.73302953191054" lon="9.158080362680671"><ele>834.0</ele><time>2026-05-01T14:11:35.001Z</time></trkpt><trkpt lat="44.73301399358183" lon="9.157948643852935"><ele>836.6</ele><time>2026-05-01T14:11:36.001Z</time></trkpt><trkpt lat="44.73299452106495" lon="9.157840428734612"><ele>839.2</ele><time>2026-05-01T14:11:37.001Z</time></trkpt><trkpt lat="44.73295699140202" lon="9.15773402764118"><ele>841.8000000000001</ele><time>2026-05-01T14:11:38.001Z</time></trkpt><trkpt lat="44.73290737004672" lon="9.157616574005903"><ele>844.4000000000001</ele><time>2026-05-01T14:11:39.001Z</time></trkpt><trkpt lat="44.73285094099099" lon="9.157485518589741"><ele>847.0</ele><time>2026-05-01T14:11:40.001Z</time></trkpt><trkpt lat="44.732803295997094" lon="9.157359820309594"><ele>848.3333333333333</ele><time>2026-05-01T14:11:41.001Z</time></trkpt><trkpt lat="44.73276799422094" lon="9.157239181630192"><ele>849.6666666666666</ele><time>2026-05-01T14:11:42.001Z</time></trkpt><trkpt lat="44.7327315044284" lon="9.157133786506202"><ele>851.0</ele><time>2026-05-01T14:11:43.001Z</time></trkpt><trkpt lat="44.73269097500279" lon="9.157060211763167"><ele>852.3333333333333</ele><time>2026-05-01T14:11:44.001Z</time></trkpt><trkpt lat="44.73263485579637" lon="9.157010297251716"><ele>853.6666666666666</ele><time>2026-05-01T14:11:45.001Z</time></trkpt><trkpt lat="44.73252159378516" lon="9.157048802421762"><ele>855.0</ele><time>2026-05-01T14:11:47.001Z</time></trkpt><trkpt lat="44.732477494396335" lon="9.1571370005679"><ele>855.0</ele><time>2026-05-01T14:11:48.001Z</time></trkpt><trkpt lat="44.73244450476566" lon="9.157237256925313"><ele>855.0</ele><time>2026-05-01T14:11:49.001Z</time></trkpt><trkpt lat="44.73240853514332" lon="9.15734179132634"><ele>855.0</ele><time>2026-05-01T14:11:50.001Z</time></trkpt><trkpt lat="44.7323631903864" lon="9.157452819680453"><ele>855.0</ele><time>2026-05-01T14:11:51.001Z</time></trkpt><trkpt lat="44.732313447400976" lon="9.157557256549024"><ele>855.0</ele><time>2026-05-01T14:11:52.001Z</time></trkpt><trkpt lat="44.732231692815404" lon="9.157646109428546"><ele>855.0</ele><time>2026-05-01T14:11:53.001Z</time></trkpt><trkpt lat="44.73216159915087" lon="9.157750204182946"><ele>854.6</ele><time>2026-05-01T14:11:54.001Z</time></trkpt><trkpt lat="44.732081972904325" lon="9.157857761758185"><ele>854.2</ele><time>2026-05-01T14:11:55.001Z</time></trkpt><trkpt lat="44.73200269976043" lon="9.157970209646477"><ele>853.8</ele><time>2026-05-01T14:11:56.001Z</time></trkpt><trkpt lat="44.73192367435657" lon="9.158061841263681"><ele>853.4</ele><time>2026-05-01T14:11:57.001Z</time></trkpt><trkpt lat="44.73184177553922" lon="9.158133975349784"><ele>853.0</ele><time>2026-05-01T14:11:58.002Z</time></trkpt><trkpt lat="44.73174499372298" lon="9.15819776705147"><ele>848.0</ele><time>2026-05-01T14:11:59.002Z</time></trkpt><trkpt lat="44.73164658177296" lon="9.158227974263955"><ele>843.0</ele><time>2026-05-01T14:12:00.002Z</time></trkpt><trkpt lat="44.73151960374304" lon="9.158261819277389"><ele>838.0</ele><time>2026-05-01T14:12:01.002Z</time></trkpt><trkpt lat="44.73139860751445" lon="9.158316020745486"><ele>833.0</ele><time>2026-05-01T14:12:02.002Z</time></trkpt><trkpt lat="44.731286451207225" lon="9.158390543036907"><ele>833.0</ele><time>2026-05-01T14:12:03.002Z</time></trkpt><trkpt lat="44.731182793186164" lon="9.158476388804345"><ele>833.0</ele><time>2026-05-01T14:12:04.002Z</time></trkpt><trkpt lat="44.73112008665983" lon="9.158577627758957"><ele>833.0</ele><time>2026-05-01T14:12:05.002Z</time></trkpt><trkpt lat="44.73104076881062" lon="9.158720116466395"><ele>833.0</ele><time>2026-05-01T14:12:06.002Z</time></trkpt><trkpt lat="44.73095360763761" lon="9.158853581798729"><ele>832.0</ele><time>2026-05-01T14:12:07.002Z</time></trkpt><trkpt lat="44.73087792053766" lon="9.158993531175293"><ele>831.0</ele><time>2026-05-01T14:12:08.002Z</time></trkpt><trkpt lat="44.7308198880596" lon="9.159120192029613"><ele>830.0</ele><time>2026-05-01T14:12:09.002Z</time></trkpt><trkpt lat="44.7307600061524" lon="9.159252511952063"><ele>829.0</ele><time>2026-05-01T14:12:10.002Z</time></trkpt><trkpt lat="44.73071100572565" lon="9.15938821636641"><ele>829.0</ele><time>2026-05-01T14:12:11.002Z</time></trkpt><trkpt lat="44.73066599772345" lon="9.159509843157938"><ele>829.0</ele><time>2026-05-01T14:12:12.002Z</time></trkpt><trkpt lat="44.730617191772666" lon="9.159606167093113"><ele>829.0</ele><time>2026-05-01T14:12:13.002Z</time></trkpt><trkpt lat="44.73055887409379" lon="9.159685460276823"><ele>829.0</ele><time>2026-05-01T14:12:14.002Z</time></trkpt><trkpt lat="44.73047627892835" lon="9.15973512429129"><ele>829.0</ele><time>2026-05-01T14:12:15.002Z</time></trkpt><trkpt lat="44.73036618136985" lon="9.159765301481157"><ele>829.0</ele><time>2026-05-01T14:12:16.002Z</time></trkpt><trkpt lat="44.73025249544438" lon="9.159791116860625"><ele>829.0</ele><time>2026-05-01T14:12:17.002Z</time></trkpt><trkpt lat="44.730154250280194" lon="9.159815952360264"><ele>829.0</ele><time>2026-05-01T14:12:18.002Z</time></trkpt><trkpt lat="44.730069998058056" lon="9.159823817014734"><ele>829.0</ele><time>2026-05-01T14:12:19.002Z</time></trkpt><trkpt lat="44.72999397189318" lon="9.159782723378937"><ele>829.0</ele><time>2026-05-01T14:12:20.002Z</time></trkpt><trkpt lat="44.72993195551944" lon="9.159702888188015"><ele>830.3333333333333</ele><time>2026-05-01T14:12:21.002Z</time></trkpt><trkpt lat="44.72988641056164" lon="9.159598471716082"><ele>831.6666666666666</ele><time>2026-05-01T14:12:22.002Z</time></trkpt><trkpt lat="44.72985341636633" lon="9.159484391460367"><ele>833.0</ele><time>2026-05-01T14:12:23.002Z</time></trkpt><trkpt lat="44.729798694512766" lon="9.15940526407623"><ele>834.3333333333333</ele><time>2026-05-01T14:12:24.002Z</time></trkpt><trkpt lat="44.729715740047084" lon="9.159327848488275"><ele>835.6666666666666</ele><time>2026-05-01T14:12:25.002Z</time></trkpt><trkpt lat="44.729622467470065" lon="9.159295255670912"><ele>837.0</ele><time>2026-05-01T14:12:26.002Z</time></trkpt><trkpt lat="44.729518305134334" lon="9.159302185158866"><ele>837.0</ele><time>2026-05-01T14:12:27.002Z</time></trkpt><trkpt lat="44.72941508411418" lon="9.159327873080263"><ele>837.0</ele><time>2026-05-01T14:12:28.002Z</time></trkpt><trkpt lat="44.72931041607959" lon="9.1593627815845"><ele>837.0</ele><time>2026-05-01T14:12:29.002Z</time></trkpt><trkpt lat="44.72919936021139" lon="9.159422174892946"><ele>837.0</ele><time>2026-05-01T14:12:30.002Z</time></trkpt><trkpt lat="44.72909921380823" lon="9.159488588099212"><ele>837.0</ele><time>2026-05-01T14:12:31.003Z</time></trkpt><trkpt lat="44.72899989277917" lon="9.159537989094687"><ele>835.6</ele><time>2026-05-01T14:12:32.003Z</time></trkpt><trkpt lat="44.72890662825318" lon="9.15955430491404"><ele>834.2</ele><time>2026-05-01T14:12:33.003Z</time></trkpt><trkpt lat="44.728817564385935" lon="9.159554437073487"><ele>832.8</ele><time>2026-05-01T14:12:34.003Z</time></trkpt><trkpt lat="44.728739944154796" lon="9.159535183515334"><ele>831.4</ele><time>2026-05-01T14:12:35.003Z</time></trkpt><trkpt lat="44.72866414550931" lon="9.159489432926463"><ele>830.0</ele><time>2026-05-01T14:12:36.003Z</time></trkpt><trkpt lat="44.72857534420489" lon="9.159406415922971"><ele>828.4</ele><time>2026-05-01T14:12:37.003Z</time></trkpt><trkpt lat="44.72848999065437" lon="9.159316712492535"><ele>826.8</ele><time>2026-05-01T14:12:38.003Z</time></trkpt><trkpt lat="44.72839956189718" lon="9.159221246287474"><ele>825.2</ele><time>2026-05-01T14:12:39.003Z</time></trkpt><trkpt lat="44.72830885130542" lon="9.159125363863314"><ele>823.6</ele><time>2026-05-01T14:12:40.003Z</time></trkpt><trkpt lat="44.72822992771624" lon="9.159030051031058"><ele>822.0</ele><time>2026-05-01T14:12:41.003Z</time></trkpt><trkpt lat="44.728157610956664" lon="9.158930995192328"><ele>825.2</ele><time>2026-05-01T14:12:42.003Z</time></trkpt><trkpt lat="44.72810374529589" lon="9.158802590595267"><ele>828.4000000000001</ele><time>2026-05-01T14:12:43.003Z</time></trkpt><trkpt lat="44.72805167501328" lon="9.158673012336703"><ele>831.5999999999999</ele><time>2026-05-01T14:12:44.003Z</time></trkpt><trkpt lat="44.728003762875886" lon="9.158543661652088"><ele>834.8</ele><time>2026-05-01T14:12:45.003Z</time></trkpt><trkpt lat="44.72796019866508" lon="9.158417781696285"><ele>838.0</ele><time>2026-05-01T14:12:46.003Z</time></trkpt><trkpt lat="44.72791812407113" lon="9.158332569818002"><ele>837.9999999999999</ele><time>2026-05-01T14:12:47.003Z</time></trkpt><trkpt lat="44.727855500740326" lon="9.158313762035284"><ele>838.0</ele><time>2026-05-01T14:12:48.003Z</time></trkpt><trkpt lat="44.72779227075419" lon="9.158328072182721"><ele>838.0</ele><time>2026-05-01T14:12:49.003Z</time></trkpt><trkpt lat="44.72773105388668" lon="9.158384289825824"><ele>838.0</ele><time>2026-05-01T14:12:50.003Z</time></trkpt><trkpt lat="44.72767183167659" lon="9.158457083125239"><ele>837.9999999999999</ele><time>2026-05-01T14:12:51.003Z</time></trkpt><trkpt lat="44.72761485219047" lon="9.158555925864137"><ele>838.0</ele><time>2026-05-01T14:12:52.003Z</time></trkpt><trkpt lat="44.72756047295361" lon="9.15867776756333"><ele>837.2</ele><time>2026-05-01T14:12:53.003Z</time></trkpt><trkpt lat="44.727519734969675" lon="9.15882389992389"><ele>836.4</ele><time>2026-05-01T14:12:54.003Z</time></trkpt><trkpt lat="44.727473687234976" lon="9.158965994333542"><ele>835.6</ele><time>2026-05-01T14:12:55.003Z</time></trkpt><trkpt lat="44.72742420812858" lon="9.159097697688214"><ele>834.8000000000001</ele><time>2026-05-01T14:12:56.003Z</time></trkpt><trkpt lat="44.72735773227433" lon="9.159209720240932"><ele>834.0</ele><time>2026-05-01T14:12:57.003Z</time></trkpt><trkpt lat="44.72728614757982" lon="9.15931297229347"><ele>831.75</ele><time>2026-05-01T14:12:58.003Z</time></trkpt><trkpt lat="44.72718487966804" lon="9.159382391819126"><ele>829.5</ele><time>2026-05-01T14:12:59Z</time></trkpt><trkpt lat="44.72707255489317" lon="9.15945838027675"><ele>827.25</ele><time>2026-05-01T14:13:00Z</time></trkpt><trkpt lat="44.72694663000548" lon="9.159519320717752"><ele>825.0</ele><time>2026-05-01T14:13:01Z</time></trkpt><trkpt lat="44.72683307647515" lon="9.159567992353697"><ele>826.6</ele><time>2026-05-01T14:13:02Z</time></trkpt><trkpt lat="44.72673590567568" lon="9.159631657937545"><ele>828.2</ele><time>2026-05-01T14:13:03Z</time></trkpt><trkpt lat="44.72664396330978" lon="9.15972885825815"><ele>829.8</ele><time>2026-05-01T14:13:04Z</time></trkpt><trkpt lat="44.72657106603782" lon="9.159803434077663"><ele>831.4</ele><time>2026-05-01T14:13:05Z</time></trkpt><trkpt lat="44.726526074484674" lon="9.15989867892089"><ele>833.0</ele><time>2026-05-01T14:13:06Z</time></trkpt><trkpt lat="44.72649836629687" lon="9.160057671284292"><ele>833.0</ele><time>2026-05-01T14:13:08Z</time></trkpt><trkpt lat="44.726547900985764" lon="9.160237384963589"><ele>833.0</ele><time>2026-05-01T14:13:10Z</time></trkpt><trkpt lat="44.72655064034868" lon="9.160338352178366"><ele>833.0</ele><time>2026-05-01T14:13:11Z</time></trkpt><trkpt lat="44.72653790594612" lon="9.160445023547924"><ele>833.0</ele><time>2026-05-01T14:13:12Z</time></trkpt><trkpt lat="44.72651536966869" lon="9.16055924477112"><ele>833.0</ele><time>2026-05-01T14:13:13Z</time></trkpt><trkpt lat="44.726465085592864" lon="9.160686479067742"><ele>832.0</ele><time>2026-05-01T14:13:14Z</time></trkpt><trkpt lat="44.72639397166975" lon="9.160815160151685"><ele>831.0</ele><time>2026-05-01T14:13:15Z</time></trkpt><trkpt lat="44.72631382495305" lon="9.160956525494045"><ele>830.0</ele><time>2026-05-01T14:13:16Z</time></trkpt><trkpt lat="44.72623511000686" lon="9.161095364681403"><ele>829.0</ele><time>2026-05-01T14:13:17Z</time></trkpt><trkpt lat="44.726172588138255" lon="9.16122664410373"><ele>829.0</ele><time>2026-05-01T14:13:18Z</time></trkpt><trkpt lat="44.72613459915697" lon="9.161348852782224"><ele>829.0</ele><time>2026-05-01T14:13:19Z</time></trkpt><trkpt lat="44.7261180824647" lon="9.161475238277019"><ele>829.0</ele><time>2026-05-01T14:13:20Z</time></trkpt><trkpt lat="44.726107890049605" lon="9.161602159445543"><ele>829.0</ele><time>2026-05-01T14:13:21Z</time></trkpt><trkpt lat="44.726149840884055" lon="9.16173505130365"><ele>829.0</ele><time>2026-05-01T14:13:22Z</time></trkpt><trkpt lat="44.72618977139839" lon="9.161864047550756"><ele>829.4000000000001</ele><time>2026-05-01T14:13:23Z</time></trkpt><trkpt lat="44.72624511269186" lon="9.162008003141597"><ele>829.8</ele><time>2026-05-01T14:13:24Z</time></trkpt><trkpt lat="44.72628630273809" lon="9.162146171078252"><ele>830.2</ele><time>2026-05-01T14:13:25Z</time></trkpt><trkpt lat="44.7263178849101" lon="9.162256911206505"><ele>830.5999999999999</ele><time>2026-05-01T14:13:26Z</time></trkpt><trkpt lat="44.72634375878797" lon="9.162363390370203"><ele>831.0</ele><time>2026-05-01T14:13:27.001Z</time></trkpt><trkpt lat="44.72636262982732" lon="9.162482779958411"><ele>831.0</ele><time>2026-05-01T14:13:28.001Z</time></trkpt><trkpt lat="44.72634419815474" lon="9.162608873265174"><ele>831.0</ele><time>2026-05-01T14:13:29.001Z</time></trkpt><trkpt lat="44.72631756335654" lon="9.162750853503885"><ele>831.0</ele><time>2026-05-01T14:13:30.001Z</time></trkpt><trkpt lat="44.726287173433896" lon="9.162901801318476"><ele>831.0</ele><time>2026-05-01T14:13:31.001Z</time></trkpt><trkpt lat="44.726237197960266" lon="9.16306433537037"><ele>831.0</ele><time>2026-05-01T14:13:32.001Z</time></trkpt><trkpt lat="44.72616292572549" lon="9.163232276245237"><ele>831.0</ele><time>2026-05-01T14:13:33.001Z</time></trkpt><trkpt lat="44.72609149226972" lon="9.163418992471607"><ele>831.0</ele><time>2026-05-01T14:13:34.001Z</time></trkpt><trkpt lat="44.72602060644367" lon="9.163589804587819"><ele>831.0</ele><time>2026-05-01T14:13:35.001Z</time></trkpt><trkpt lat="44.72595705105927" lon="9.16374127760136"><ele>831.0</ele><time>2026-05-01T14:13:36.001Z</time></trkpt><trkpt lat="44.72588927435188" lon="9.163899857731943"><ele>835.75</ele><time>2026-05-01T14:13:37.001Z</time></trkpt><trkpt lat="44.72582586457181" lon="9.164048790858951"><ele>840.5</ele><time>2026-05-01T14:13:38.001Z</time></trkpt><trkpt lat="44.725752142919305" lon="9.164167093103487"><ele>845.25</ele><time>2026-05-01T14:13:39.001Z</time></trkpt><trkpt lat="44.72569325835575" lon="9.1643291858553"><ele>850.0</ele><time>2026-05-01T14:13:40.001Z</time></trkpt><trkpt lat="44.725634973131214" lon="9.164452449464966"><ele>850.0</ele><time>2026-05-01T14:13:41.001Z</time></trkpt><trkpt lat="44.72555469627063" lon="9.164559020906776"><ele>850.0</ele><time>2026-05-01T14:13:42.001Z</time></trkpt><trkpt lat="44.7254502516285" lon="9.164653471603499"><ele>850.0</ele><time>2026-05-01T14:13:43.001Z</time></trkpt><trkpt lat="44.7253348513773" lon="9.164733662901547"><ele>850.0</ele><time>2026-05-01T14:13:44.001Z</time></trkpt><trkpt lat="44.72523096129977" lon="9.164836093714294"><ele>853.0</ele><time>2026-05-01T14:13:45.001Z</time></trkpt><trkpt lat="44.725156266456956" lon="9.164954103991052"><ele>856.0</ele><time>2026-05-01T14:13:46.001Z</time></trkpt><trkpt lat="44.72508990606627" lon="9.165092260711852"><ele>859.0</ele><time>2026-05-01T14:13:47.001Z</time></trkpt><trkpt lat="44.72503978340645" lon="9.165188415297349"><ele>862.0</ele><time>2026-05-01T14:13:48.001Z</time></trkpt><trkpt lat="44.72494885851112" lon="9.165248251298989"><ele>865.0</ele><time>2026-05-01T14:13:50.001Z</time></trkpt><trkpt lat="44.72488049530865" lon="9.165246281940789"><ele>865.0</ele><time>2026-05-01T14:13:51.001Z</time></trkpt><trkpt lat="44.72479235936358" lon="9.165216125648403"><ele>865.0</ele><time>2026-05-01T14:13:52.001Z</time></trkpt><trkpt lat="44.724692389553354" lon="9.165177736292385"><ele>865.0</ele><time>2026-05-01T14:13:53.001Z</time></trkpt><trkpt lat="44.72458983437629" lon="9.165128049091505"><ele>865.0</ele><time>2026-05-01T14:13:54.001Z</time></trkpt><trkpt lat="44.72449093613537" lon="9.165086352186279"><ele>865.0</ele><time>2026-05-01T14:13:55.001Z</time></trkpt><trkpt lat="44.72438999009543" lon="9.16501138373326"><ele>866.2</ele><time>2026-05-01T14:13:56.001Z</time></trkpt><trkpt lat="44.72429233148226" lon="9.164941535182137"><ele>867.4</ele><time>2026-05-01T14:13:57.001Z</time></trkpt><trkpt lat="44.724200559526" lon="9.164892906773217"><ele>868.5999999999999</ele><time>2026-05-01T14:13:58.001Z</time></trkpt><trkpt lat="44.724098416078206" lon="9.164883129484998"><ele>869.8</ele><time>2026-05-01T14:13:59.001Z</time></trkpt><trkpt lat="44.72400274879047" lon="9.164887514095827"><ele>871.0</ele><time>2026-05-01T14:14:00.002Z</time></trkpt><trkpt lat="44.723905666763905" lon="9.164937054743058"><ele>871.0</ele><time>2026-05-01T14:14:01.002Z</time></trkpt><trkpt lat="44.72381380663504" lon="9.164968173697126"><ele>870.9999999999999</ele><time>2026-05-01T14:14:02.002Z</time></trkpt><trkpt lat="44.72371244721309" lon="9.16498813884866"><ele>870.9999999999999</ele><time>2026-05-01T14:14:03.002Z</time></trkpt><trkpt lat="44.72359986492419" lon="9.164989517041436"><ele>871.0</ele><time>2026-05-01T14:14:04.002Z</time></trkpt><trkpt lat="44.72347699850094" lon="9.164969961842747"><ele>871.0</ele><time>2026-05-01T14:14:05.002Z</time></trkpt><trkpt lat="44.72335078402146" lon="9.164933962033405"><ele>871.0</ele><time>2026-05-01T14:14:06.002Z</time></trkpt><trkpt lat="44.723224939552566" lon="9.164905265036852"><ele>870.9999999999999</ele><time>2026-05-01T14:14:07.002Z</time></trkpt><trkpt lat="44.72311686771935" lon="9.16490941696905"><ele>870.9999999999999</ele><time>2026-05-01T14:14:08.002Z</time></trkpt><trkpt lat="44.723019385103754" lon="9.164911923099641"><ele>871.0</ele><time>2026-05-01T14:14:09.002Z</time></trkpt><trkpt lat="44.7229174450781" lon="9.164958862218523"><ele>871.0</ele><time>2026-05-01T14:14:10.002Z</time></trkpt><trkpt lat="44.722828855699134" lon="9.165056514195909"><ele>871.0</ele><time>2026-05-01T14:14:11.002Z</time></trkpt><trkpt lat="44.72275322059981" lon="9.165162984559194"><ele>871.0</ele><time>2026-05-01T14:14:12.002Z</time></trkpt><trkpt lat="44.7226737172918" lon="9.16529189363368"><ele>871.0</ele><time>2026-05-01T14:14:13.002Z</time></trkpt><trkpt lat="44.72258464987537" lon="9.165426854853846"><ele>871.0</ele><time>2026-05-01T14:14:14.002Z</time></trkpt><trkpt lat="44.72248404184596" lon="9.16556100879212"><ele>871.75</ele><time>2026-05-01T14:14:15.002Z</time></trkpt><trkpt lat="44.72239115203366" lon="9.165688967066945"><ele>872.5</ele><time>2026-05-01T14:14:16.002Z</time></trkpt><trkpt lat="44.72230077063337" lon="9.165803154016862"><ele>873.25</ele><time>2026-05-01T14:14:17.002Z</time></trkpt><trkpt lat="44.72219209882759" lon="9.165910432174432"><ele>874.0</ele><time>2026-05-01T14:14:18.002Z</time></trkpt><trkpt lat="44.7220831740007" lon="9.166018656182143"><ele>874.0</ele><time>2026-05-01T14:14:19.002Z</time></trkpt><trkpt lat="44.72197471627431" lon="9.16612519746583"><ele>874.0</ele><time>2026-05-01T14:14:20.002Z</time></trkpt><trkpt lat="44.721867508276965" lon="9.166228744754363"><ele>874.0</ele><time>2026-05-01T14:14:21.002Z</time></trkpt><trkpt lat="44.721764743489075" lon="9.166312381369446"><ele>874.0</ele><time>2026-05-01T14:14:22.002Z</time></trkpt><trkpt lat="44.721665433967274" lon="9.166383841967"><ele>876.5714285714286</ele><time>2026-05-01T14:14:23.002Z</time></trkpt><trkpt lat="44.72158126592293" lon="9.166436541113178"><ele>879.1428571428572</ele><time>2026-05-01T14:14:24.002Z</time></trkpt><trkpt lat="44.7215134515207" lon="9.166488609066606"><ele>881.7142857142858</ele><time>2026-05-01T14:14:25.002Z</time></trkpt><trkpt lat="44.72147924771783" lon="9.166564884381554"><ele>884.2857142857142</ele><time>2026-05-01T14:14:26.002Z</time></trkpt><trkpt lat="44.72146793327367" lon="9.166656586884447"><ele>886.8571428571429</ele><time>2026-05-01T14:14:27.002Z</time></trkpt><trkpt lat="44.721495769666625" lon="9.166740695820685"><ele>889.4285714285714</ele><time>2026-05-01T14:14:28.002Z</time></trkpt><trkpt lat="44.721528242844805" lon="9.166823071427373"><ele>892.0</ele><time>2026-05-01T14:14:29.002Z</time></trkpt><trkpt lat="44.72158460752763" lon="9.166914334707181"><ele>891.9999999999999</ele><time>2026-05-01T14:14:30.002Z</time></trkpt><trkpt lat="44.72163366008282" lon="9.16701872920151"><ele>892.0</ele><time>2026-05-01T14:14:31.002Z</time></trkpt><trkpt lat="44.721668251931" lon="9.167127332061826"><ele>892.0</ele><time>2026-05-01T14:14:32.002Z</time></trkpt><trkpt lat="44.72167658798178" lon="9.1672426396889"><ele>892.0</ele><time>2026-05-01T14:14:33.002Z</time></trkpt><trkpt lat="44.7216709434344" lon="9.167353194689907"><ele>891.9999999999999</ele><time>2026-05-01T14:14:34.003Z</time></trkpt><trkpt lat="44.721648858961345" lon="9.167457561448122"><ele>892.0</ele><time>2026-05-01T14:14:35.003Z</time></trkpt><trkpt lat="44.721620029427285" lon="9.167551853119237"><ele>892.2</ele><time>2026-05-01T14:14:36.003Z</time></trkpt><trkpt lat="44.72156939997225" lon="9.167645963000002"><ele>892.4000000000001</ele><time>2026-05-01T14:14:37.003Z</time></trkpt><trkpt lat="44.72151638931586" lon="9.167743520434916"><ele>892.5999999999999</ele><time>2026-05-01T14:14:38.003Z</time></trkpt><trkpt lat="44.72148834466092" lon="9.167869350465603"><ele>892.8</ele><time>2026-05-01T14:14:39.003Z</time></trkpt><trkpt lat="44.72148002008742" lon="9.1680211675154"><ele>893.0</ele><time>2026-05-01T14:14:40.003Z</time></trkpt><trkpt lat="44.721497548659414" lon="9.168175429219785"><ele>893.25</ele><time>2026-05-01T14:14:41.003Z</time></trkpt><trkpt lat="44.721532290653606" lon="9.168316285065526"><ele>893.5</ele><time>2026-05-01T14:14:42.003Z</time></trkpt><trkpt lat="44.72158542127545" lon="9.168466747503656"><ele>893.75</ele><time>2026-05-01T14:14:43.003Z</time></trkpt><trkpt lat="44.72162852131899" lon="9.168623956628569"><ele>894.0</ele><time>2026-05-01T14:14:44.003Z</time></trkpt><trkpt lat="44.72165981284947" lon="9.168768970661294"><ele>894.0</ele><time>2026-05-01T14:14:45.003Z</time></trkpt><trkpt lat="44.7216748729938" lon="9.168897857644122"><ele>894.0000000000001</ele><time>2026-05-01T14:14:46.003Z</time></trkpt><trkpt lat="44.72161762313815" lon="9.169003415764523"><ele>894.0000000000001</ele><time>2026-05-01T14:14:47.003Z</time></trkpt><trkpt lat="44.721544724194025" lon="9.169121504582687"><ele>894.0</ele><time>2026-05-01T14:14:48.003Z</time></trkpt><trkpt lat="44.72152720056007" lon="9.169256066705934"><ele>894.0</ele><time>2026-05-01T14:14:49.003Z</time></trkpt><trkpt lat="44.72148799184565" lon="9.16938668682514"><ele>895.0</ele><time>2026-05-01T14:14:50.003Z</time></trkpt><trkpt lat="44.721455352184144" lon="9.169505044678903"><ele>896.0000000000001</ele><time>2026-05-01T14:14:51.003Z</time></trkpt><trkpt lat="44.72139405344498" lon="9.169614063560623"><ele>897.0000000000001</ele><time>2026-05-01T14:14:52.003Z</time></trkpt><trkpt lat="44.72133077305727" lon="9.169713936070513"><ele>898.0</ele><time>2026-05-01T14:14:53.003Z</time></trkpt><trkpt lat="44.721259473037726" lon="9.169814740400337"><ele>899.0</ele><time>2026-05-01T14:14:54.003Z</time></trkpt><trkpt lat="44.72118398260289" lon="9.16991438707137"><ele>899.0</ele><time>2026-05-01T14:14:55.003Z</time></trkpt><trkpt lat="44.721100706919074" lon="9.170011021158519"><ele>899.0000000000001</ele><time>2026-05-01T14:14:56.003Z</time></trkpt><trkpt lat="44.7210286783846" lon="9.170093888390412"><ele>899.0000000000001</ele><time>2026-05-01T14:14:57.003Z</time></trkpt><trkpt lat="44.72094869283994" lon="9.170164624309992"><ele>899.0</ele><time>2026-05-01T14:14:58.003Z</time></trkpt><trkpt lat="44.720854573605635" lon="9.170219625357614"><ele>899.0</ele><time>2026-05-01T14:14:59.003Z</time></trkpt><trkpt lat="44.72074829031948" lon="9.170248315438773"><ele>901.75</ele><time>2026-05-01T14:15:00.003Z</time></trkpt><trkpt lat="44.72061906323383" lon="9.170245320439369"><ele>904.5</ele><time>2026-05-01T14:15:01.003Z</time></trkpt><trkpt lat="44.72049461722396" lon="9.170257822009505"><ele>907.25</ele><time>2026-05-01T14:15:02.003Z</time></trkpt><trkpt lat="44.72036122887403" lon="9.170264529290638"><ele>910.0</ele><time>2026-05-01T14:15:03.003Z</time></trkpt><trkpt lat="44.72022539307868" lon="9.170281849704596"><ele>912.25</ele><time>2026-05-01T14:15:04.003Z</time></trkpt><trkpt lat="44.72008366539619" lon="9.170295794275473"><ele>914.5</ele><time>2026-05-01T14:15:05Z</time></trkpt><trkpt lat="44.7199511819455" lon="9.17030920505284"><ele>916.75</ele><time>2026-05-01T14:15:06Z</time></trkpt><trkpt lat="44.71982153568324" lon="9.170327717419894"><ele>919.0</ele><time>2026-05-01T14:15:07Z</time></trkpt><trkpt lat="44.719692579314064" lon="9.170345025855974"><ele>919.0</ele><time>2026-05-01T14:15:08Z</time></trkpt><trkpt lat="44.71956400277974" lon="9.170367694881818"><ele>919.0</ele><time>2026-05-01T14:15:09Z</time></trkpt><trkpt lat="44.71943593787215" lon="9.17036972377942"><ele>919.0</ele><time>2026-05-01T14:15:10Z</time></trkpt><trkpt lat="44.71931920558716" lon="9.170387758072504"><ele>919.0</ele><time>2026-05-01T14:15:11Z</time></trkpt><trkpt lat="44.7192094604679" lon="9.17039638630523"><ele>921.25</ele><time>2026-05-01T14:15:12Z</time></trkpt><trkpt lat="44.7191048620578" lon="9.17039442758631"><ele>923.5</ele><time>2026-05-01T14:15:13Z</time></trkpt><trkpt lat="44.71899580048433" lon="9.170379209606294"><ele>925.75</ele><time>2026-05-01T14:15:14Z</time></trkpt><trkpt lat="44.718880800520246" lon="9.170352646633651"><ele>928.0</ele><time>2026-05-01T14:15:15Z</time></trkpt><trkpt lat="44.71875388479284" lon="9.170351276173223"><ele>928.0</ele><time>2026-05-01T14:15:16Z</time></trkpt><trkpt lat="44.71863599267689" lon="9.170377562963619"><ele>928.0</ele><time>2026-05-01T14:15:17Z</time></trkpt><trkpt lat="44.718513559840325" lon="9.170437488353041"><ele>928.0</ele><time>2026-05-01T14:15:18Z</time></trkpt><trkpt lat="44.71840184202188" lon="9.170524429103478"><ele>928.0</ele><time>2026-05-01T14:15:19Z</time></trkpt><trkpt lat="44.7182880351372" lon="9.170602182218568"><ele>928.0</ele><time>2026-05-01T14:15:20Z</time></trkpt><trkpt lat="44.71817739178661" lon="9.170691565690896"><ele>928.0</ele><time>2026-05-01T14:15:21Z</time></trkpt><trkpt lat="44.71805772798329" lon="9.170772348459678"><ele>928.0</ele><time>2026-05-01T14:15:22Z</time></trkpt><trkpt lat="44.717951852389284" lon="9.170848777323632"><ele>928.0</ele><time>2026-05-01T14:15:23Z</time></trkpt><trkpt lat="44.71784296538682" lon="9.170921272059473"><ele>928.0</ele><time>2026-05-01T14:15:24Z</time></trkpt><trkpt lat="44.71773575201592" lon="9.1709999846972"><ele>928.0</ele><time>2026-05-01T14:15:25Z</time></trkpt><trkpt lat="44.71762233911017" lon="9.171053498003596"><ele>928.0</ele><time>2026-05-01T14:15:26Z</time></trkpt><trkpt lat="44.71751222778061" lon="9.171116944216573"><ele>928.0</ele><time>2026-05-01T14:15:27Z</time></trkpt><trkpt lat="44.71741286801616" lon="9.171167495432131"><ele>929.3333333333333</ele><time>2026-05-01T14:15:28Z</time></trkpt><trkpt lat="44.71732478186789" lon="9.171221744218789"><ele>930.6666666666666</ele><time>2026-05-01T14:15:29Z</time></trkpt><trkpt lat="44.71725062185692" lon="9.17127494541862"><ele>932.0</ele><time>2026-05-01T14:15:30Z</time></trkpt><trkpt lat="44.71719057759463" lon="9.17133172219982"><ele>933.3333333333333</ele><time>2026-05-01T14:15:31Z</time></trkpt><trkpt lat="44.71716144557409" lon="9.171411002893898"><ele>934.6666666666666</ele><time>2026-05-01T14:15:32Z</time></trkpt><trkpt lat="44.71714952567906" lon="9.171502123645809"><ele>936.0</ele><time>2026-05-01T14:15:33Z</time></trkpt><trkpt lat="44.717184605739355" lon="9.171649203298065"><ele>936.4</ele><time>2026-05-01T14:15:35.001Z</time></trkpt><trkpt lat="44.7173009268172" lon="9.171736028456978"><ele>936.8</ele><time>2026-05-01T14:15:37.001Z</time></trkpt><trkpt lat="44.71738392819918" lon="9.171741992664938"><ele>937.1999999999999</ele><time>2026-05-01T14:15:38.001Z</time></trkpt><trkpt lat="44.71745403425329" lon="9.171762186236906"><ele>937.5999999999999</ele><time>2026-05-01T14:15:39.001Z</time></trkpt><trkpt lat="44.71753111104516" lon="9.171810400736856"><ele>938.0</ele><time>2026-05-01T14:15:40.001Z</time></trkpt><trkpt lat="44.71760399725804" lon="9.171926760190635"><ele>938.0000000000001</ele><time>2026-05-01T14:15:41.001Z</time></trkpt><trkpt lat="44.71768335540627" lon="9.172024232881922"><ele>938.0</ele><time>2026-05-01T14:15:42.001Z</time></trkpt><trkpt lat="44.717773516649146" lon="9.172050465070624"><ele>938.0</ele><time>2026-05-01T14:15:43.001Z</time></trkpt><trkpt lat="44.71784583277209" lon="9.172125376377286"><ele>938.0</ele><time>2026-05-01T14:15:44.001Z</time></trkpt><trkpt lat="44.71790936796278" lon="9.172171267874909"><ele>938.0000000000001</ele><time>2026-05-01T14:15:45.001Z</time></trkpt><trkpt lat="44.71796941746811" lon="9.172217813506242"><ele>938.0</ele><time>2026-05-01T14:15:46.001Z</time></trkpt><trkpt lat="44.71803024110686" lon="9.172313453235178"><ele>938.0</ele><time>2026-05-01T14:15:48.001Z</time></trkpt><trkpt lat="44.717973465328974" lon="9.172416647560318"><ele>938.0</ele><time>2026-05-01T14:15:51.001Z</time></trkpt><trkpt lat="44.7179053372355" lon="9.172370037223564"><ele>938.0</ele><time>2026-05-01T14:15:53.001Z</time></trkpt><trkpt lat="44.71785204989265" lon="9.172265637675082"><ele>938.0</ele><time>2026-05-01T14:15:55.001Z</time></trkpt><trkpt lat="44.717752816826284" lon="9.172185353459746"><ele>938.0</ele><time>2026-05-01T14:15:57.001Z</time></trkpt><trkpt lat="44.71767583375198" lon="9.172142828638972"><ele>938.0000000000001</ele><time>2026-05-01T14:15:58.001Z</time></trkpt><trkpt lat="44.717594173571804" lon="9.17210818323704"><ele>938.0</ele><time>2026-05-01T14:15:59.001Z</time></trkpt><trkpt lat="44.717522123017254" lon="9.172071141014124"><ele>938.0</ele><time>2026-05-01T14:16:00.001Z</time></trkpt><trkpt lat="44.71744297257566" lon="9.172032604745505"><ele>938.0</ele><time>2026-05-01T14:16:01.001Z</time></trkpt><trkpt lat="44.71736758337563" lon="9.172009897287035"><ele>938.0000000000001</ele><time>2026-05-01T14:16:02.001Z</time></trkpt><trkpt lat="44.71729199768726" lon="9.172000491289479"><ele>938.0</ele><time>2026-05-01T14:16:03.001Z</time></trkpt><trkpt lat="44.71718710160318" lon="9.172005188986855"><ele>938.0</ele><time>2026-05-01T14:16:04.001Z</time></trkpt><trkpt lat="44.71711157101958" lon="9.171993768746104"><ele>938.0</ele><time>2026-05-01T14:16:05.001Z</time></trkpt><trkpt lat="44.71707323875901" lon="9.17209146588832"><ele>938.0</ele><time>2026-05-01T14:16:07.001Z</time></trkpt><trkpt lat="44.71707867153367" lon="9.172203206624916"><ele>938.0</ele><time>2026-05-01T14:16:09.002Z</time></trkpt><trkpt lat="44.717207520374494" lon="9.172236832774237"><ele>938.0</ele><time>2026-05-01T14:16:11.002Z</time></trkpt><trkpt lat="44.717317908649335" lon="9.172279593428785"><ele>938.0</ele><time>2026-05-01T14:16:13.002Z</time></trkpt><trkpt lat="44.71738625943785" lon="9.172331062988775"><ele>938.0</ele><time>2026-05-01T14:16:15.002Z</time></trkpt><trkpt lat="44.717427066150535" lon="9.17255163858217"><ele>938.0</ele><time>2026-05-01T14:16:17.002Z</time></trkpt><trkpt lat="44.71742916410687" lon="9.172672188384825"><ele>938.0</ele><time>2026-05-01T14:16:18.002Z</time></trkpt><trkpt lat="44.71745166177406" lon="9.172794677913526"><ele>938.0</ele><time>2026-05-01T14:16:19.002Z</time></trkpt><trkpt lat="44.717465734882175" lon="9.172889757367864"><ele>942.4</ele><time>2026-05-01T14:16:20.002Z</time></trkpt><trkpt lat="44.71746989575814" lon="9.172994484551412"><ele>946.8</ele><time>2026-05-01T14:16:21.002Z</time></trkpt><trkpt lat="44.71747125548433" lon="9.173107278881364"><ele>951.2</ele><time>2026-05-01T14:16:22.002Z</time></trkpt><trkpt lat="44.717516782655075" lon="9.173229163450827"><ele>955.6</ele><time>2026-05-01T14:16:23.002Z</time></trkpt><trkpt lat="44.71759762393666" lon="9.173356261237647"><ele>960.0</ele><time>2026-05-01T14:16:24.002Z</time></trkpt><trkpt lat="44.71760119151422" lon="9.17349930230931"><ele>962.4</ele><time>2026-05-01T14:16:25.002Z</time></trkpt><trkpt lat="44.71761651008238" lon="9.173635768558075"><ele>964.8</ele><time>2026-05-01T14:16:26.002Z</time></trkpt><trkpt lat="44.71763298789231" lon="9.173784310340727"><ele>967.2</ele><time>2026-05-01T14:16:27.002Z</time></trkpt><trkpt lat="44.717653112225264" lon="9.173911396260317"><ele>969.6</ele><time>2026-05-01T14:16:28.002Z</time></trkpt><trkpt lat="44.717675845479306" lon="9.174043884857072"><ele>972.0</ele><time>2026-05-01T14:16:29.002Z</time></trkpt><trkpt lat="44.717707566032644" lon="9.174177488867532"><ele>972.4000000000001</ele><time>2026-05-01T14:16:30.002Z</time></trkpt><trkpt lat="44.717723391647766" lon="9.174313371783036"><ele>972.8000000000001</ele><time>2026-05-01T14:16:31.002Z</time></trkpt><trkpt lat="44.71773594583676" lon="9.17445272412234"><ele>973.2</ele><time>2026-05-01T14:16:32.002Z</time></trkpt><trkpt lat="44.71775766363263" lon="9.174590550197758"><ele>973.6</ele><time>2026-05-01T14:16:33.002Z</time></trkpt><trkpt lat="44.717790340477684" lon="9.174728858063693"><ele>974.0</ele><time>2026-05-01T14:16:34.002Z</time></trkpt><trkpt lat="44.71781867106677" lon="9.174866661453278"><ele>971.3333333333334</ele><time>2026-05-01T14:16:35.002Z</time></trkpt><trkpt lat="44.71783765883338" lon="9.175003721467547"><ele>968.6666666666667</ele><time>2026-05-01T14:16:36.002Z</time></trkpt><trkpt lat="44.71786868371052" lon="9.17514129418097"><ele>966.0</ele><time>2026-05-01T14:16:37.002Z</time></trkpt><trkpt lat="44.717891846752885" lon="9.17527101781809"><ele>963.3333333333333</ele><time>2026-05-01T14:16:38.002Z</time></trkpt><trkpt lat="44.71791011340689" lon="9.175383320540158"><ele>960.6666666666666</ele><time>2026-05-01T14:16:39.002Z</time></trkpt><trkpt lat="44.717918413355044" lon="9.175478199198881"><ele>958.0</ele><time>2026-05-01T14:16:40.002Z</time></trkpt><trkpt lat="44.71786675087776" lon="9.175639821027326"><ele>955.4</ele><time>2026-05-01T14:16:42.002Z</time></trkpt><trkpt lat="44.717793773092325" lon="9.175705537327529"><ele>952.8</ele><time>2026-05-01T14:16:43.003Z</time></trkpt><trkpt lat="44.717699048073165" lon="9.175767626638638"><ele>950.2</ele><time>2026-05-01T14:16:44.003Z</time></trkpt><trkpt lat="44.71758859079809" lon="9.175847013852982"><ele>947.6</ele><time>2026-05-01T14:16:45.003Z</time></trkpt><trkpt lat="44.71747415706992" lon="9.175930942692142"><ele>945.0</ele><time>2026-05-01T14:16:46.003Z</time></trkpt><trkpt lat="44.71742286306639" lon="9.176018656979869"><ele>948.4</ele><time>2026-05-01T14:16:47.003Z</time></trkpt><trkpt lat="44.71736561121377" lon="9.17612650258598"><ele>951.8</ele><time>2026-05-01T14:16:48.003Z</time></trkpt><trkpt lat="44.71731440151431" lon="9.176238660938385"><ele>955.2</ele><time>2026-05-01T14:16:49.003Z</time></trkpt><trkpt lat="44.717260193821794" lon="9.176363432702281"><ele>958.6</ele><time>2026-05-01T14:16:50.003Z</time></trkpt><trkpt lat="44.71721458818437" lon="9.176497374889216"><ele>962.0</ele><time>2026-05-01T14:16:51.003Z</time></trkpt><trkpt lat="44.717171736764776" lon="9.176631632712404"><ele>962.0</ele><time>2026-05-01T14:16:52.003Z</time></trkpt><trkpt lat="44.71711701437191" lon="9.176746149959026"><ele>962.0</ele><time>2026-05-01T14:16:53.003Z</time></trkpt><trkpt lat="44.71705724565749" lon="9.176855592177109"><ele>962.0</ele><time>2026-05-01T14:16:54.003Z</time></trkpt><trkpt lat="44.71697835384726" lon="9.176957431732841"><ele>962.0</ele><time>2026-05-01T14:16:55.003Z</time></trkpt><trkpt lat="44.716895316619805" lon="9.177049677583794"><ele>962.0</ele><time>2026-05-01T14:16:56.003Z</time></trkpt><trkpt lat="44.71681000450455" lon="9.177134419545217"><ele>966.8</ele><time>2026-05-01T14:16:57.003Z</time></trkpt><trkpt lat="44.71673255673814" lon="9.177227901572337"><ele>971.6</ele><time>2026-05-01T14:16:58.003Z</time></trkpt><trkpt lat="44.71666705625479" lon="9.177330062513514"><ele>976.3999999999999</ele><time>2026-05-01T14:16:59.003Z</time></trkpt><trkpt lat="44.716620354411994" lon="9.177445474538239"><ele>981.1999999999999</ele><time>2026-05-01T14:17:00.003Z</time></trkpt><trkpt lat="44.71657501858864" lon="9.177574067787864"><ele>986.0</ele><time>2026-05-01T14:17:01.003Z</time></trkpt><trkpt lat="44.71652877407094" lon="9.17771184515603"><ele>986.0</ele><time>2026-05-01T14:17:02.003Z</time></trkpt><trkpt lat="44.71648775123668" lon="9.17785082231476"><ele>985.9999999999999</ele><time>2026-05-01T14:17:03.003Z</time></trkpt><trkpt lat="44.71645511128579" lon="9.177977995998873"><ele>985.9999999999999</ele><time>2026-05-01T14:17:04.003Z</time></trkpt><trkpt lat="44.716395534104464" lon="9.178093726657737"><ele>986.0</ele><time>2026-05-01T14:17:05.003Z</time></trkpt><trkpt lat="44.71631952640571" lon="9.178205447803979"><ele>986.0</ele><time>2026-05-01T14:17:06.003Z</time></trkpt><trkpt lat="44.71623844751257" lon="9.178309874520528"><ele>981.5999999999999</ele><time>2026-05-01T14:17:07.003Z</time></trkpt><trkpt lat="44.7161595425033" lon="9.178427403245308"><ele>977.1999999999999</ele><time>2026-05-01T14:17:08.003Z</time></trkpt><trkpt lat="44.71608320375198" lon="9.17854481618347"><ele>972.8000000000001</ele><time>2026-05-01T14:17:09.003Z</time></trkpt><trkpt lat="44.71601979835837" lon="9.178658201367133"><ele>968.4000000000001</ele><time>2026-05-01T14:17:10.003Z</time></trkpt><trkpt lat="44.71594511297491" lon="9.178766829830789"><ele>964.0</ele><time>2026-05-01T14:17:11Z</time></trkpt><trkpt lat="44.715879941908995" lon="9.178882431757344"><ele>967.4999999999999</ele><time>2026-05-01T14:17:12Z</time></trkpt><trkpt lat="44.71582485279444" lon="9.17900593296428"><ele>971.0</ele><time>2026-05-01T14:17:13Z</time></trkpt><trkpt lat="44.71577837406772" lon="9.179121334680097"><ele>974.5</ele><time>2026-05-01T14:17:14Z</time></trkpt><trkpt lat="44.71573509164266" lon="9.179198987287409"><ele>978.0</ele><time>2026-05-01T14:17:15Z</time></trkpt><trkpt lat="44.71567919289117" lon="9.179260264394108"><ele>981.4999999999999</ele><time>2026-05-01T14:17:16Z</time></trkpt><trkpt lat="44.71559552988594" lon="9.179318362875234"><ele>985.0</ele><time>2026-05-01T14:17:17Z</time></trkpt><trkpt lat="44.71551006931085" lon="9.179375837549344"><ele>985.0</ele><time>2026-05-01T14:17:18Z</time></trkpt><trkpt lat="44.71543111472874" lon="9.179457090250706"><ele>985.0</ele><time>2026-05-01T14:17:19Z</time></trkpt><trkpt lat="44.715368304628605" lon="9.179553916767528"><ele>985.0</ele><time>2026-05-01T14:17:20Z</time></trkpt><trkpt lat="44.71531041596732" lon="9.179700515121658"><ele>985.0</ele><time>2026-05-01T14:17:21Z</time></trkpt><trkpt lat="44.715292634412634" lon="9.17983923155075"><ele>985.0</ele><time>2026-05-01T14:17:22Z</time></trkpt><trkpt lat="44.71526793828069" lon="9.1799685203592"><ele>988.8</ele><time>2026-05-01T14:17:23Z</time></trkpt><trkpt lat="44.71522925138524" lon="9.180079598367115"><ele>992.6</ele><time>2026-05-01T14:17:24Z</time></trkpt><trkpt lat="44.715157135271326" lon="9.180176832185628"><ele>996.4000000000001</ele><time>2026-05-01T14:17:25Z</time></trkpt><trkpt lat="44.715077153513796" lon="9.180269912114193"><ele>1000.2</ele><time>2026-05-01T14:17:26Z</time></trkpt><trkpt lat="44.71501325293793" lon="9.180390919770002"><ele>1004.0</ele><time>2026-05-01T14:17:27Z</time></trkpt><trkpt lat="44.714919068820045" lon="9.180473328766185"><ele>1004.0000000000001</ele><time>2026-05-01T14:17:28Z</time></trkpt><trkpt lat="44.714833221396525" lon="9.180568928886927"><ele>1004.0</ele><time>2026-05-01T14:17:29Z</time></trkpt><trkpt lat="44.71477926770137" lon="9.180686631246726"><ele>1004.0</ele><time>2026-05-01T14:17:30Z</time></trkpt><trkpt lat="44.714733642612146" lon="9.180784680622104"><ele>1004.0</ele><time>2026-05-01T14:17:31Z</time></trkpt><trkpt lat="44.71468400853948" lon="9.180876100645113"><ele>1004.0000000000001</ele><time>2026-05-01T14:17:32Z</time></trkpt><trkpt lat="44.71463423670948" lon="9.180946033906478"><ele>1004.0</ele><time>2026-05-01T14:17:33Z</time></trkpt><trkpt lat="44.714560835780865" lon="9.181001486012496"><ele>1004.8000000000001</ele><time>2026-05-01T14:17:34Z</time></trkpt><trkpt lat="44.71448262841399" lon="9.181039092076443"><ele>1005.6000000000001</ele><time>2026-05-01T14:17:35.001Z</time></trkpt><trkpt lat="44.714399977120515" lon="9.181078657444118"><ele>1006.4</ele><time>2026-05-01T14:17:36.001Z</time></trkpt><trkpt lat="44.71428939710369" lon="9.181103277894492"><ele>1007.2</ele><time>2026-05-01T14:17:37.001Z</time></trkpt><trkpt lat="44.71416317961786" lon="9.181117106935792"><ele>1008.0</ele><time>2026-05-01T14:17:38.001Z</time></trkpt><trkpt lat="44.71404448781143" lon="9.181131354213534"><ele>1008.0</ele><time>2026-05-01T14:17:39.001Z</time></trkpt><trkpt lat="44.7139250083632" lon="9.181141138588108"><ele>1008.0</ele><time>2026-05-01T14:17:40.001Z</time></trkpt><trkpt lat="44.71380689926504" lon="9.181185403189033"><ele>1008.0</ele><time>2026-05-01T14:17:41.001Z</time></trkpt><trkpt lat="44.71367765571042" lon="9.18123574642775"><ele>1008.0</ele><time>2026-05-01T14:17:42.001Z</time></trkpt><trkpt lat="44.71356564443733" lon="9.181264172985278"><ele>1007.0</ele><time>2026-05-01T14:17:43.001Z</time></trkpt><trkpt lat="44.71346037103338" lon="9.181297689051766"><ele>1006.0</ele><time>2026-05-01T14:17:44.001Z</time></trkpt><trkpt lat="44.71337856788939" lon="9.181336514100533"><ele>1005.0</ele><time>2026-05-01T14:17:45.001Z</time></trkpt><trkpt lat="44.71331748751527" lon="9.181401307036806"><ele>1004.0</ele><time>2026-05-01T14:17:46.001Z</time></trkpt><trkpt lat="44.71325183729542" lon="9.181547855457465"><ele>1003.0</ele><time>2026-05-01T14:17:47.001Z</time></trkpt><trkpt lat="44.71318250156209" lon="9.181649044766482"><ele>1002.9999999999999</ele><time>2026-05-01T14:17:48.001Z</time></trkpt><trkpt lat="44.71316255554895" lon="9.181780943893271"><ele>1003.0</ele><time>2026-05-01T14:17:49.001Z</time></trkpt><trkpt lat="44.71309563444734" lon="9.181885021982103"><ele>1003.0</ele><time>2026-05-01T14:17:50.001Z</time></trkpt><trkpt lat="44.7130749822686" lon="9.181971054767649"><ele>1003.0</ele><time>2026-05-01T14:17:51.001Z</time></trkpt><trkpt lat="44.71305694840798" lon="9.182078085133965"><ele>1002.9999999999999</ele><time>2026-05-01T14:17:52.001Z</time></trkpt><trkpt lat="44.71308522986359" lon="9.182192912921039"><ele>1003.0</ele><time>2026-05-01T14:17:53.001Z</time></trkpt><trkpt lat="44.71312788065373" lon="9.182320556110106"><ele>1002.2</ele><time>2026-05-01T14:17:54.001Z</time></trkpt><trkpt lat="44.71317723588297" lon="9.182445557653821"><ele>1001.4</ele><time>2026-05-01T14:17:55.001Z</time></trkpt><trkpt lat="44.71321260859415" lon="9.182589366503008"><ele>1000.6000000000001</ele><time>2026-05-01T14:17:56.001Z</time></trkpt><trkpt lat="44.7132556392016" lon="9.18272832655605"><ele>999.8000000000001</ele><time>2026-05-01T14:17:57.001Z</time></trkpt><trkpt lat="44.7133074904818" lon="9.1828588356125"><ele>999.0</ele><time>2026-05-01T14:17:58.001Z</time></trkpt><trkpt lat="44.71328733367582" lon="9.182964307774808"><ele>999.0</ele><time>2026-05-01T14:17:59.001Z</time></trkpt><trkpt lat="44.713256578126085" lon="9.183078229016985"><ele>999.0000000000001</ele><time>2026-05-01T14:18:00.001Z</time></trkpt><trkpt lat="44.713197653734746" lon="9.183186968405488"><ele>999.0000000000001</ele><time>2026-05-01T14:18:01.001Z</time></trkpt><trkpt lat="44.713142076964196" lon="9.183285925866095"><ele>999.0</ele><time>2026-05-01T14:18:02.001Z</time></trkpt><trkpt lat="44.71306744190101" lon="9.183377543942896"><ele>999.0</ele><time>2026-05-01T14:18:03.001Z</time></trkpt><trkpt lat="44.712978774224844" lon="9.183465933280482"><ele>997.25</ele><time>2026-05-01T14:18:04.001Z</time></trkpt><trkpt lat="44.71287707074646" lon="9.183547044456493"><ele>995.5</ele><time>2026-05-01T14:18:05.001Z</time></trkpt><trkpt lat="44.712752893341325" lon="9.18362730263317"><ele>993.75</ele><time>2026-05-01T14:18:06.001Z</time></trkpt><trkpt lat="44.712658444803765" lon="9.18372621557309"><ele>992.0</ele><time>2026-05-01T14:18:07.001Z</time></trkpt><trkpt lat="44.71257128888461" lon="9.183844041737757"><ele>994.6</ele><time>2026-05-01T14:18:08.001Z</time></trkpt><trkpt lat="44.71248565097432" lon="9.183953688691288"><ele>997.2</ele><time>2026-05-01T14:18:09.001Z</time></trkpt><trkpt lat="44.71241019060038" lon="9.184053102343078"><ele>999.8</ele><time>2026-05-01T14:18:10.001Z</time></trkpt><trkpt lat="44.71233217962962" lon="9.184125037530931"><ele>1002.4</ele><time>2026-05-01T14:18:11.001Z</time></trkpt><trkpt lat="44.71223044666136" lon="9.18416830067309"><ele>1005.0</ele><time>2026-05-01T14:18:12.001Z</time></trkpt><trkpt lat="44.71213097728023" lon="9.184207831742972"><ele>1005.0</ele><time>2026-05-01T14:18:13.001Z</time></trkpt><trkpt lat="44.712022476647086" lon="9.18425111464103"><ele>1005.0</ele><time>2026-05-01T14:18:14.002Z</time></trkpt><trkpt lat="44.71194043776339" lon="9.184295213531986"><ele>1005.0</ele><time>2026-05-01T14:18:15.002Z</time></trkpt><trkpt lat="44.711830777491386" lon="9.184338435138287"><ele>1005.0</ele><time>2026-05-01T14:18:16.002Z</time></trkpt><trkpt lat="44.711743505816266" lon="9.184385117555564"><ele>1005.0</ele><time>2026-05-01T14:18:17.002Z</time></trkpt><trkpt lat="44.71163385887541" lon="9.184412927659883"><ele>1006.5</ele><time>2026-05-01T14:18:18.002Z</time></trkpt><trkpt lat="44.711528539480604" lon="9.184399263744895"><ele>1008.0</ele><time>2026-05-01T14:18:19.002Z</time></trkpt><trkpt lat="44.71143563521759" lon="9.184393449687171"><ele>1009.5</ele><time>2026-05-01T14:18:20.002Z</time></trkpt><trkpt lat="44.71134572376483" lon="9.184430080311719"><ele>1011.0</ele><time>2026-05-01T14:18:21.002Z</time></trkpt><trkpt lat="44.71127314538411" lon="9.18448281104813"><ele>1012.5</ele><time>2026-05-01T14:18:22.002Z</time></trkpt><trkpt lat="44.7112223020688" lon="9.184557350749603"><ele>1014.0</ele><time>2026-05-01T14:18:23.002Z</time></trkpt><trkpt lat="44.7112101053227" lon="9.184659059221186"><ele>1014.0</ele><time>2026-05-01T14:18:24.002Z</time></trkpt><trkpt lat="44.711181225577704" lon="9.1847579974377"><ele>1014.0</ele><time>2026-05-01T14:18:25.002Z</time></trkpt><trkpt lat="44.711146214093" lon="9.184892851343541"><ele>1014.0</ele><time>2026-05-01T14:18:26.002Z</time></trkpt><trkpt lat="44.71111408791003" lon="9.184997106341214"><ele>1014.0</ele><time>2026-05-01T14:18:27.002Z</time></trkpt><trkpt lat="44.71105506630859" lon="9.185083346409332"><ele>1014.0</ele><time>2026-05-01T14:18:28.002Z</time></trkpt><trkpt lat="44.711001848440446" lon="9.1851644411458"><ele>1014.0</ele><time>2026-05-01T14:18:29.002Z</time></trkpt><trkpt lat="44.71096394295735" lon="9.185242938420396"><ele>1015.0</ele><time>2026-05-01T14:18:30.002Z</time></trkpt><trkpt lat="44.710925739407905" lon="9.185385391013895"><ele>1016.0000000000001</ele><time>2026-05-01T14:18:32.002Z</time></trkpt><trkpt lat="44.710902703681256" lon="9.185514056050522"><ele>1017.0000000000001</ele><time>2026-05-01T14:18:34.002Z</time></trkpt><trkpt lat="44.710809536347" lon="9.185672316926652"><ele>1018.0</ele><time>2026-05-01T14:18:36.002Z</time></trkpt><trkpt lat="44.710748617203635" lon="9.18577533924371"><ele>1019.0</ele><time>2026-05-01T14:18:37.002Z</time></trkpt><trkpt lat="44.71068962036215" lon="9.18588666582663"><ele>1019.0000000000001</ele><time>2026-05-01T14:18:38.002Z</time></trkpt><trkpt lat="44.710642115951735" lon="9.185984634419075"><ele>1019.0</ele><time>2026-05-01T14:18:39.002Z</time></trkpt><trkpt lat="44.7105920631514" lon="9.186078591962037"><ele>1019.0</ele><time>2026-05-01T14:18:40.002Z</time></trkpt><trkpt lat="44.71054012917211" lon="9.18614365441425"><ele>1019.0</ele><time>2026-05-01T14:18:41.002Z</time></trkpt><trkpt lat="44.71049987511046" lon="9.186212002606705"><ele>1019.0000000000001</ele><time>2026-05-01T14:18:44.002Z</time></trkpt><trkpt lat="44.71059618339092" lon="9.1862287855234"><ele>1019.0</ele><time>2026-05-01T14:18:51.003Z</time></trkpt><trkpt lat="44.710681127123905" lon="9.186368432470216"><ele>1019.0</ele><time>2026-05-01T14:18:53.003Z</time></trkpt><trkpt lat="44.71072382947659" lon="9.186477559796257"><ele>1019.0000000000001</ele><time>2026-05-01T14:18:54.003Z</time></trkpt><trkpt lat="44.710824964384415" lon="9.186440603177713"><ele>1019.0000000000001</ele><time>2026-05-01T14:18:56.003Z</time></trkpt><trkpt lat="44.710899554177935" lon="9.18629754945271"><ele>1019.0</ele><time>2026-05-01T14:18:58.003Z</time></trkpt><trkpt lat="44.71094083712475" lon="9.18620857548697"><ele>1019.0</ele><time>2026-05-01T14:18:59.003Z</time></trkpt><trkpt lat="44.71098587761184" lon="9.186117025146178"><ele>1019.0000000000001</ele><time>2026-05-01T14:19:00.003Z</time></trkpt><trkpt lat="44.71104302909839" lon="9.186015499995996"><ele>1019.0</ele><time>2026-05-01T14:19:01.003Z</time></trkpt><trkpt lat="44.71108642454289" lon="9.185901247002947"><ele>1019.0</ele><time>2026-05-01T14:19:02.003Z</time></trkpt><trkpt lat="44.71113538921082" lon="9.185827824776155"><ele>1019.0</ele><time>2026-05-01T14:19:03.003Z</time></trkpt><trkpt lat="44.71119522065305" lon="9.185741252100994"><ele>1019.0000000000001</ele><time>2026-05-01T14:19:04.003Z</time></trkpt><trkpt lat="44.711268167316206" lon="9.185660798447339"><ele>1019.0</ele><time>2026-05-01T14:19:05.003Z</time></trkpt><trkpt lat="44.711337461123264" lon="9.185567131775734"><ele>1018.5000000000001</ele><time>2026-05-01T14:19:06.003Z</time></trkpt><trkpt lat="44.711393412194475" lon="9.185473657350409"><ele>1018.0</ele><time>2026-05-01T14:19:07.003Z</time></trkpt><trkpt lat="44.71144662953984" lon="9.185394259397986"><ele>1017.5</ele><time>2026-05-01T14:19:08.003Z</time></trkpt><trkpt lat="44.71149887510992" lon="9.185341585595099"><ele>1017.0</ele><time>2026-05-01T14:19:09.003Z</time></trkpt><trkpt lat="44.711586764349" lon="9.185330021083294"><ele>1016.5000000000001</ele><time>2026-05-01T14:19:11.003Z</time></trkpt><trkpt lat="44.71159831525015" lon="9.185430224922769"><ele>1016.0</ele><time>2026-05-01T14:19:13.003Z</time></trkpt><trkpt lat="44.71156229322998" lon="9.185541670110728"><ele>1016.0000000000001</ele><time>2026-05-01T14:19:15.003Z</time></trkpt><trkpt lat="44.7115248615835" lon="9.185628276788885"><ele>1016.0</ele><time>2026-05-01T14:19:16.003Z</time></trkpt><trkpt lat="44.711499728008754" lon="9.18573159788144"><ele>1016.0</ele><time>2026-05-01T14:19:17Z</time></trkpt><trkpt lat="44.71146421543332" lon="9.185837362647224"><ele>1016.0</ele><time>2026-05-01T14:19:18Z</time></trkpt><trkpt lat="44.711426630784025" lon="9.185936341138762"><ele>1016.0000000000001</ele><time>2026-05-01T14:19:19Z</time></trkpt><trkpt lat="44.71139225125723" lon="9.186031962362302"><ele>1016.0</ele><time>2026-05-01T14:19:20Z</time></trkpt><trkpt lat="44.71138713322972" lon="9.186123621527729"><ele>1019.4</ele><time>2026-05-01T14:19:21Z</time></trkpt><trkpt lat="44.71137420637053" lon="9.186238585183922"><ele>1022.8</ele><time>2026-05-01T14:19:23Z</time></trkpt><trkpt lat="44.711450734908574" lon="9.186248494326641"><ele>1026.1999999999998</ele><time>2026-05-01T14:19:25Z</time></trkpt><trkpt lat="44.71150261488575" lon="9.186170393847577"><ele>1029.6</ele><time>2026-05-01T14:19:27Z</time></trkpt><trkpt lat="44.71157296193657" lon="9.186030724383853"><ele>1033.0</ele><time>2026-05-01T14:19:29Z</time></trkpt><trkpt lat="44.711637235721504" lon="9.18591239437539"><ele>1033.0</ele><time>2026-05-01T14:19:31Z</time></trkpt><trkpt lat="44.71171840337576" lon="9.185778306658907"><ele>1033.0</ele><time>2026-05-01T14:19:33Z</time></trkpt><trkpt lat="44.71178816424774" lon="9.185755839747817"><ele>1033.0</ele><time>2026-05-01T14:19:34Z</time></trkpt><trkpt lat="44.711847849920126" lon="9.185702795579285"><ele>1033.0</ele><time>2026-05-01T14:19:35Z</time></trkpt><trkpt lat="44.71191954467389" lon="9.185690499051033"><ele>1033.0</ele><time>2026-05-01T14:19:36Z</time></trkpt><trkpt lat="44.712045910965585" lon="9.185710513437499"><ele>1031.1666666666665</ele><time>2026-05-01T14:19:38Z</time></trkpt><trkpt lat="44.71211065033646" lon="9.18574057719984"><ele>1029.3333333333333</ele><time>2026-05-01T14:19:39Z</time></trkpt><trkpt lat="44.71219241733319" lon="9.185752542577763"><ele>1027.5</ele><time>2026-05-01T14:19:40Z</time></trkpt><trkpt lat="44.712284083996266" lon="9.185745318735606"><ele>1025.6666666666667</ele><time>2026-05-01T14:19:41Z</time></trkpt><trkpt lat="44.71236128390765" lon="9.185723151072741"><ele>1023.8333333333334</ele><time>2026-05-01T14:19:42Z</time></trkpt><trkpt lat="44.71242143339811" lon="9.185672945577194"><ele>1022.0</ele><time>2026-05-01T14:19:43Z</time></trkpt><trkpt lat="44.712488971802294" lon="9.185625488619305"><ele>1022.0000000000001</ele><time>2026-05-01T14:19:44Z</time></trkpt><trkpt lat="44.712563394190504" lon="9.185553304315498"><ele>1022.0</ele><time>2026-05-01T14:19:45Z</time></trkpt><trkpt lat="44.71263353303934" lon="9.185518763037393"><ele>1022.0</ele><time>2026-05-01T14:19:46Z</time></trkpt><trkpt lat="44.71273850922107" lon="9.185463636920417"><ele>1022.0</ele><time>2026-05-01T14:19:48Z</time></trkpt><trkpt lat="44.712801064090506" lon="9.1855055535471"><ele>1022.0000000000001</ele><time>2026-05-01T14:19:49Z</time></trkpt><trkpt lat="44.71286360201604" lon="9.185540906052678"><ele>1022.0</ele><time>2026-05-01T14:19:50.001Z</time></trkpt><trkpt lat="44.712930072427014" lon="9.185552039856697"><ele>1023.6666666666667</ele><time>2026-05-01T14:19:51.001Z</time></trkpt><trkpt lat="44.71306390085655" lon="9.18554053208926"><ele>1025.3333333333335</ele><time>2026-05-01T14:19:53.001Z</time></trkpt><trkpt lat="44.71313129032138" lon="9.185529201032125"><ele>1027.0</ele><time>2026-05-01T14:19:54.001Z</time></trkpt><trkpt lat="44.713195347156336" lon="9.185526396863073"><ele>1028.6666666666667</ele><time>2026-05-01T14:19:56.001Z</time></trkpt><trkpt lat="44.71321235435514" lon="9.185618131503396"><ele>1030.3333333333333</ele><time>2026-05-01T14:19:59.001Z</time></trkpt><trkpt lat="44.713130100340265" lon="9.185684616905723"><ele>1032.0</ele><time>2026-05-01T14:20:01.001Z</time></trkpt><trkpt lat="44.71308718216399" lon="9.185755487502306"><ele>1037.3333333333333</ele><time>2026-05-01T14:20:02.001Z</time></trkpt><trkpt lat="44.71306253302036" lon="9.185926686239114"><ele>1042.6666666666667</ele><time>2026-05-01T14:20:04.001Z</time></trkpt><trkpt lat="44.71305481439255" lon="9.186015412412333"><ele>1048.0</ele><time>2026-05-01T14:20:05.001Z</time></trkpt><trkpt lat="44.7130429328146" lon="9.186107695666097"><ele>1053.3333333333335</ele><time>2026-05-01T14:20:06.001Z</time></trkpt><trkpt lat="44.71299751166029" lon="9.186220950033071"><ele>1058.6666666666667</ele><time>2026-05-01T14:20:08.001Z</time></trkpt><trkpt lat="44.712896024962625" lon="9.186243919752933"><ele>1064.0</ele><time>2026-05-01T14:20:10.001Z</time></trkpt><trkpt lat="44.712795546060484" lon="9.186284377803565"><ele>1064.4</ele><time>2026-05-01T14:20:12.001Z</time></trkpt><trkpt lat="44.71272449751363" lon="9.186329723446248"><ele>1064.8000000000002</ele><time>2026-05-01T14:20:15.001Z</time></trkpt><trkpt lat="44.712665104300754" lon="9.186376878755302"><ele>1065.1999999999998</ele><time>2026-05-01T14:20:17.001Z</time></trkpt><trkpt lat="44.71258085851916" lon="9.186483436424156"><ele>1065.6</ele><time>2026-05-01T14:20:19.001Z</time></trkpt><trkpt lat="44.712498299001275" lon="9.186625684963062"><ele>1066.0</ele><time>2026-05-01T14:20:21.001Z</time></trkpt><trkpt lat="44.71245274854102" lon="9.186767387957953"><ele>1066.0</ele><time>2026-05-01T14:20:23.001Z</time></trkpt><trkpt lat="44.71245678587395" lon="9.186858352271493"><ele>1066.0</ele><time>2026-05-01T14:20:24.001Z</time></trkpt><trkpt lat="44.712484809328984" lon="9.186943879549784"><ele>1066.0</ele><time>2026-05-01T14:20:25.002Z</time></trkpt><trkpt lat="44.71255155901545" lon="9.187064002962101"><ele>1066.0</ele><time>2026-05-01T14:20:27.002Z</time></trkpt><trkpt lat="44.712616918447466" lon="9.187077450913847"><ele>1066.0</ele><time>2026-05-01T14:20:28.002Z</time></trkpt><trkpt lat="44.7127319337675" lon="9.187052118765209"><ele>1066.0</ele><time>2026-05-01T14:20:30.002Z</time></trkpt><trkpt lat="44.71284479112874" lon="9.186974541314997"><ele>1069.2</ele><time>2026-05-01T14:20:32.002Z</time></trkpt><trkpt lat="44.71291093960374" lon="9.18695373886268"><ele>1072.3999999999999</ele><time>2026-05-01T14:20:33.002Z</time></trkpt><trkpt lat="44.713022535256805" lon="9.186986519730398"><ele>1075.6</ele><time>2026-05-01T14:20:35.002Z</time></trkpt><trkpt lat="44.713140077847896" lon="9.187001050202618"><ele>1078.8</ele><time>2026-05-01T14:20:37.002Z</time></trkpt><trkpt lat="44.71321561625779" lon="9.187011264531604"><ele>1082.0</ele><time>2026-05-01T14:20:38.002Z</time></trkpt><trkpt lat="44.71328976065902" lon="9.187012356106354"><ele>1082.0</ele><time>2026-05-01T14:20:39.002Z</time></trkpt><trkpt lat="44.71336270928031" lon="9.1870055686833"><ele>1082.0</ele><time>2026-05-01T14:20:40.002Z</time></trkpt><trkpt lat="44.713440019624336" lon="9.186993161750268"><ele>1082.0</ele><time>2026-05-01T14:20:41.002Z</time></trkpt><trkpt lat="44.713517424458345" lon="9.18695663978512"><ele>1082.0</ele><time>2026-05-01T14:20:42.002Z</time></trkpt><trkpt lat="44.71358850399166" lon="9.18691450082247"><ele>1082.0</ele><time>2026-05-01T14:20:43.002Z</time></trkpt><trkpt lat="44.713658347767314" lon="9.18687454461309"><ele>1082.0</ele><time>2026-05-01T14:20:44.002Z</time></trkpt><trkpt lat="44.7137191506463" lon="9.186828381321702"><ele>1085.0</ele><time>2026-05-01T14:20:45.002Z</time></trkpt><trkpt lat="44.713782429338714" lon="9.18677210299491"><ele>1088.0</ele><time>2026-05-01T14:20:46.002Z</time></trkpt><trkpt lat="44.71385113819216" lon="9.186707887731258"><ele>1091.0</ele><time>2026-05-01T14:20:47.002Z</time></trkpt><trkpt lat="44.71391849948414" lon="9.186653512340966"><ele>1094.0</ele><time>2026-05-01T14:20:48.002Z</time></trkpt><trkpt lat="44.71398714136695" lon="9.18660942088456"><ele>1097.0</ele><time>2026-05-01T14:20:49.002Z</time></trkpt><trkpt lat="44.71405693491443" lon="9.18658053148647"><ele>1100.0</ele><time>2026-05-01T14:20:50.002Z</time></trkpt><trkpt lat="44.7141283389032" lon="9.18655907033196"><ele>1100.0</ele><time>2026-05-01T14:20:51.002Z</time></trkpt><trkpt lat="44.71419445317728" lon="9.18653275413509"><ele>1100.0</ele><time>2026-05-01T14:20:52.002Z</time></trkpt><trkpt lat="44.714305039987615" lon="9.186527451998325"><ele>1100.0</ele><time>2026-05-01T14:20:54.002Z</time></trkpt><trkpt lat="44.71437178708229" lon="9.186529224870881"><ele>1100.0</ele><time>2026-05-01T14:20:55.002Z</time></trkpt><trkpt lat="44.71443607326924" lon="9.186535517676974"><ele>1100.0</ele><time>2026-05-01T14:20:56.002Z</time></trkpt><trkpt lat="44.71450753915502" lon="9.18653528974731"><ele>1100.0</ele><time>2026-05-01T14:20:57.002Z</time></trkpt><trkpt lat="44.71456873575667" lon="9.18656452237977"><ele>1100.0</ele><time>2026-05-01T14:20:58.002Z</time></trkpt><trkpt lat="44.71463269929731" lon="9.186583646621466"><ele>1099.8</ele><time>2026-05-01T14:20:59.002Z</time></trkpt><trkpt lat="44.71469625784846" lon="9.18658895854326"><ele>1099.6</ele><time>2026-05-01T14:21:00.003Z</time></trkpt><trkpt lat="44.71475933508138" lon="9.18658987799949"><ele>1099.4</ele><time>2026-05-01T14:21:01.003Z</time></trkpt><trkpt lat="44.71488523237693" lon="9.186577970595845"><ele>1099.2</ele><time>2026-05-01T14:21:03.003Z</time></trkpt><trkpt lat="44.71496855497803" lon="9.186492238566856"><ele>1099.0</ele><time>2026-05-01T14:21:05.003Z</time></trkpt><trkpt lat="44.71504134549249" lon="9.18640243220405"><ele>1099.0</ele><time>2026-05-01T14:21:07.003Z</time></trkpt><trkpt lat="44.71510994208497" lon="9.186331371810063"><ele>1099.0</ele><time>2026-05-01T14:21:09.003Z</time></trkpt><trkpt lat="44.715191751565776" lon="9.186283896025113"><ele>1099.0</ele><time>2026-05-01T14:21:11.003Z</time></trkpt><trkpt lat="44.71530032728157" lon="9.186262587758955"><ele>1099.0</ele><time>2026-05-01T14:21:13.003Z</time></trkpt><trkpt lat="44.71536895648874" lon="9.186245662029009"><ele>1099.0</ele><time>2026-05-01T14:21:14.003Z</time></trkpt><trkpt lat="44.71543815576144" lon="9.186207162312163"><ele>1099.0</ele><time>2026-05-01T14:21:15.003Z</time></trkpt><trkpt lat="44.71551357423463" lon="9.18620633573866"><ele>1100.8333333333333</ele><time>2026-05-01T14:21:16.003Z</time></trkpt><trkpt lat="44.715584234615825" lon="9.186179615671838"><ele>1102.6666666666665</ele><time>2026-05-01T14:21:17.003Z</time></trkpt><trkpt lat="44.7156523184596" lon="9.186153231895204"><ele>1104.5</ele><time>2026-05-01T14:21:18.003Z</time></trkpt><trkpt lat="44.715715096930005" lon="9.186130055870631"><ele>1106.3333333333333</ele><time>2026-05-01T14:21:19.003Z</time></trkpt><trkpt lat="44.7158131719724" lon="9.186142803027801"><ele>1108.1666666666667</ele><time>2026-05-01T14:21:21.003Z</time></trkpt><trkpt lat="44.71590043682698" lon="9.186236538661403"><ele>1110.0</ele><time>2026-05-01T14:21:22.999Z</time></trkpt><trkpt lat="44.71595320267945" lon="9.186319686040186"><ele>1110.0</ele><time>2026-05-01T14:21:23.999Z</time></trkpt><trkpt lat="44.71602504093223" lon="9.186396606151826"><ele>1110.0</ele><time>2026-05-01T14:21:24.999Z</time></trkpt><trkpt lat="44.716109345495326" lon="9.18645415412541"><ele>1110.0</ele><time>2026-05-01T14:21:25.999Z</time></trkpt><trkpt lat="44.71618026675391" lon="9.186538718650253"><ele>1110.0</ele><time>2026-05-01T14:21:26.999Z</time></trkpt><trkpt lat="44.71625187887141" lon="9.186597623706097"><ele>1110.0</ele><time>2026-05-01T14:21:27.999Z</time></trkpt><trkpt lat="44.71633658461439" lon="9.186643281571603"><ele>1114.1666666666667</ele><time>2026-05-01T14:21:28.999Z</time></trkpt><trkpt lat="44.71641730282354" lon="9.186668694217826"><ele>1118.3333333333333</ele><time>2026-05-01T14:21:29.999Z</time></trkpt><trkpt lat="44.71649396237897" lon="9.186680186572744"><ele>1122.5</ele><time>2026-05-01T14:21:30.999Z</time></trkpt><trkpt lat="44.71657012128783" lon="9.186705175016643"><ele>1126.6666666666665</ele><time>2026-05-01T14:21:31.999Z</time></trkpt><trkpt lat="44.71669690743598" lon="9.186754079775096"><ele>1130.8333333333333</ele><time>2026-05-01T14:21:33.999Z</time></trkpt><trkpt lat="44.71677183651566" lon="9.186747587177285"><ele>1135.0</ele><time>2026-05-01T14:21:34.999Z</time></trkpt><trkpt lat="44.71684541281239" lon="9.186734812903682"><ele>1137.0</ele><time>2026-05-01T14:21:35.999Z</time></trkpt><trkpt lat="44.716951299727675" lon="9.186646272321655"><ele>1139.0</ele><time>2026-05-01T14:21:37.999Z</time></trkpt><trkpt lat="44.71700140590698" lon="9.186580093218492"><ele>1141.0</ele><time>2026-05-01T14:21:39Z</time></trkpt><trkpt lat="44.71705484366039" lon="9.186525817482128"><ele>1143.0</ele><time>2026-05-01T14:21:40Z</time></trkpt><trkpt lat="44.71716312992753" lon="9.186479846243955"><ele>1145.0</ele><time>2026-05-01T14:21:42Z</time></trkpt><trkpt lat="44.71728562848125" lon="9.186440962821134"><ele>1145.0</ele><time>2026-05-01T14:21:44Z</time></trkpt><trkpt lat="44.717349781977255" lon="9.186428473846242"><ele>1145.0</ele><time>2026-05-01T14:21:45Z</time></trkpt><trkpt lat="44.7174318534337" lon="9.186443098992818"><ele>1145.0</ele><time>2026-05-01T14:21:47Z</time></trkpt><trkpt lat="44.71740905526908" lon="9.186544650666539"><ele>1145.0</ele><time>2026-05-01T14:21:51Z</time></trkpt><trkpt lat="44.71733113725687" lon="9.186564172482155"><ele>1145.0</ele><time>2026-05-01T14:21:53Z</time></trkpt><trkpt lat="44.71726743395605" lon="9.186610360546007"><ele>1145.0</ele><time>2026-05-01T14:21:54Z</time></trkpt><trkpt lat="44.71716730216594" lon="9.186699267374673"><ele>1145.0</ele><time>2026-05-01T14:21:56Z</time></trkpt><trkpt lat="44.71711166193366" lon="9.186756922275984"><ele>1145.0</ele><time>2026-05-01T14:21:57Z</time></trkpt><trkpt lat="44.717051649508235" lon="9.186825200365035"><ele>1145.0</ele><time>2026-05-01T14:21:58Z</time></trkpt><trkpt lat="44.71699765963072" lon="9.186891986219234"><ele>1145.0</ele><time>2026-05-01T14:21:59Z</time></trkpt><trkpt lat="44.71694498009939" lon="9.186984833709246"><ele>1145.0</ele><time>2026-05-01T14:22:00Z</time></trkpt><trkpt lat="44.716899354195114" lon="9.187067193445587"><ele>1145.0</ele><time>2026-05-01T14:22:01Z</time></trkpt><trkpt lat="44.716837697870815" lon="9.187180975412721"><ele>1143.3333333333335</ele><time>2026-05-01T14:22:02Z</time></trkpt><trkpt lat="44.71676808826084" lon="9.187313624918662"><ele>1141.6666666666667</ele><time>2026-05-01T14:22:04.001Z</time></trkpt><trkpt lat="44.71672872543851" lon="9.187388635404671"><ele>1140.0</ele><time>2026-05-01T14:22:05.001Z</time></trkpt><trkpt lat="44.71670592821305" lon="9.187484791209487"><ele>1138.3333333333333</ele><time>2026-05-01T14:22:06.001Z</time></trkpt><trkpt lat="44.716669254126394" lon="9.187566534859577"><ele>1136.6666666666665</ele><time>2026-05-01T14:22:07.001Z</time></trkpt><trkpt lat="44.71664375984417" lon="9.187674659213132"><ele>1135.0</ele><time>2026-05-01T14:22:08.001Z</time></trkpt><trkpt lat="44.71662883814795" lon="9.187775527187014"><ele>1139.6666666666665</ele><time>2026-05-01T14:22:09.001Z</time></trkpt><trkpt lat="44.71658318335287" lon="9.18784854195624"><ele>1144.3333333333333</ele><time>2026-05-01T14:22:10.001Z</time></trkpt><trkpt lat="44.7165537215737" lon="9.187941270876713"><ele>1149.0</ele><time>2026-05-01T14:22:11.001Z</time></trkpt><trkpt lat="44.71653930879592" lon="9.18804243305634"><ele>1153.6666666666667</ele><time>2026-05-01T14:22:12.001Z</time></trkpt><trkpt lat="44.71649920330781" lon="9.18814872903222"><ele>1158.3333333333335</ele><time>2026-05-01T14:22:13.001Z</time></trkpt><trkpt lat="44.71647454856988" lon="9.188254461768599"><ele>1163.0</ele><time>2026-05-01T14:22:14.001Z</time></trkpt><trkpt lat="44.716411087704955" lon="9.188448494475503"><ele>1165.1666666666667</ele><time>2026-05-01T14:22:16.001Z</time></trkpt><trkpt lat="44.716386549490124" lon="9.18855767619969"><ele>1167.3333333333335</ele><time>2026-05-01T14:22:17.001Z</time></trkpt><trkpt lat="44.716366395109254" lon="9.18864434031849"><ele>1169.5</ele><time>2026-05-01T14:22:18.001Z</time></trkpt><trkpt lat="44.71633856249584" lon="9.188752182162505"><ele>1171.6666666666667</ele><time>2026-05-01T14:22:19.001Z</time></trkpt><trkpt lat="44.71630802606292" lon="9.188838180923948"><ele>1173.8333333333333</ele><time>2026-05-01T14:22:20.001Z</time></trkpt><trkpt lat="44.716198810839636" lon="9.188906963766115"><ele>1176.0</ele><time>2026-05-01T14:22:22.001Z</time></trkpt><trkpt lat="44.71609204440976" lon="9.188895265969828"><ele>1176.3999999999999</ele><time>2026-05-01T14:22:24.001Z</time></trkpt><trkpt lat="44.71600181828703" lon="9.188794141336793"><ele>1176.8</ele><time>2026-05-01T14:22:26.001Z</time></trkpt><trkpt lat="44.71591502118804" lon="9.188652820614212"><ele>1177.1999999999998</ele><time>2026-05-01T14:22:28.001Z</time></trkpt><trkpt lat="44.715853925309595" lon="9.18858743102109"><ele>1177.6</ele><time>2026-05-01T14:22:29.001Z</time></trkpt><trkpt lat="44.71580902130634" lon="9.188518466614847"><ele>1178.0</ele><time>2026-05-01T14:22:30.001Z</time></trkpt><trkpt lat="44.715758991686734" lon="9.188454435999963"><ele>1178.0</ele><time>2026-05-01T14:22:31.001Z</time></trkpt><trkpt lat="44.71569758923142" lon="9.188415103431007"><ele>1178.0</ele><time>2026-05-01T14:22:32.001Z</time></trkpt><trkpt lat="44.71559997918172" lon="9.188372454740959"><ele>1178.0</ele><time>2026-05-01T14:22:34.001Z</time></trkpt><trkpt lat="44.71553349760873" lon="9.188431981439798"><ele>1178.0</ele><time>2026-05-01T14:22:36.002Z</time></trkpt><trkpt lat="44.71550236437485" lon="9.188561389338982"><ele>1178.0</ele><time>2026-05-01T14:22:38.002Z</time></trkpt><trkpt lat="44.71555345695213" lon="9.188734248037463"><ele>1178.0</ele><time>2026-05-01T14:22:40.002Z</time></trkpt><trkpt lat="44.715583500264316" lon="9.18883299730973"><ele>1178.0</ele><time>2026-05-01T14:22:41.002Z</time></trkpt><trkpt lat="44.71560048054525" lon="9.188943905137169"><ele>1178.0</ele><time>2026-05-01T14:22:42.002Z</time></trkpt><trkpt lat="44.715624641171665" lon="9.18903790374752"><ele>1178.0</ele><time>2026-05-01T14:22:43.002Z</time></trkpt><trkpt lat="44.71563758048354" lon="9.189128690711781"><ele>1178.0</ele><time>2026-05-01T14:22:44.002Z</time></trkpt><trkpt lat="44.71566618769961" lon="9.18921141142586"><ele>1178.0</ele><time>2026-05-01T14:22:45.002Z</time></trkpt><trkpt lat="44.715701676634765" lon="9.189292713423836"><ele>1178.0</ele><time>2026-05-01T14:22:46.002Z</time></trkpt><trkpt lat="44.71574453824137" lon="9.189369471924904"><ele>1180.1666666666667</ele><time>2026-05-01T14:22:47.002Z</time></trkpt><trkpt lat="44.715787577456524" lon="9.18945367455757"><ele>1182.3333333333335</ele><time>2026-05-01T14:22:48.002Z</time></trkpt><trkpt lat="44.71582534352687" lon="9.189537793680195"><ele>1184.5</ele><time>2026-05-01T14:22:49.002Z</time></trkpt><trkpt lat="44.71583294844342" lon="9.189685126904386"><ele>1186.6666666666667</ele><time>2026-05-01T14:22:51.002Z</time></trkpt><trkpt lat="44.71580197978248" lon="9.189782628805357"><ele>1188.8333333333333</ele><time>2026-05-01T14:22:53.002Z</time></trkpt><trkpt lat="44.71572787574381" lon="9.189756656539995"><ele>1191.0</ele><time>2026-05-01T14:22:55.002Z</time></trkpt><trkpt lat="44.71569878924545" lon="9.189647924802271"><ele>1191.0</ele><time>2026-05-01T14:22:57.002Z</time></trkpt><trkpt lat="44.71566722053534" lon="9.1895605718219"><ele>1191.0</ele><time>2026-05-01T14:22:58.002Z</time></trkpt><trkpt lat="44.7156132826169" lon="9.189471761598032"><ele>1191.0</ele><time>2026-05-01T14:23:00.002Z</time></trkpt><trkpt lat="44.71552354984008" lon="9.18948254007484"><ele>1191.0</ele><time>2026-05-01T14:23:02.002Z</time></trkpt><trkpt lat="44.71548361515465" lon="9.189555744969805"><ele>1191.0</ele><time>2026-05-01T14:23:03.002Z</time></trkpt><trkpt lat="44.71551396421722" lon="9.18970932151636"><ele>1191.0</ele><time>2026-05-01T14:23:05.002Z</time></trkpt><trkpt lat="44.715524092006376" lon="9.189872437209345"><ele>1193.3999999999999</ele><time>2026-05-01T14:23:07.002Z</time></trkpt><trkpt lat="44.71554109873366" lon="9.190051193009669"><ele>1195.8</ele><time>2026-05-01T14:23:09.003Z</time></trkpt><trkpt lat="44.71561852379804" lon="9.190190597441367"><ele>1198.1999999999998</ele><time>2026-05-01T14:23:11.003Z</time></trkpt><trkpt lat="44.71571123482312" lon="9.190318513870517"><ele>1200.6</ele><time>2026-05-01T14:23:13.003Z</time></trkpt><trkpt lat="44.71575056766361" lon="9.190392599243879"><ele>1203.0</ele><time>2026-05-01T14:23:14.003Z</time></trkpt><trkpt lat="44.715790077519756" lon="9.190466953840248"><ele>1203.0</ele><time>2026-05-01T14:23:15.003Z</time></trkpt><trkpt lat="44.71582799319991" lon="9.190544494047192"><ele>1203.0</ele><time>2026-05-01T14:23:16.003Z</time></trkpt><trkpt lat="44.71587848132582" lon="9.190606087638042"><ele>1203.0</ele><time>2026-05-01T14:23:17.003Z</time></trkpt><trkpt lat="44.71592670069735" lon="9.190693130670985"><ele>1203.0</ele><time>2026-05-01T14:23:18.003Z</time></trkpt><trkpt lat="44.71598186447743" lon="9.190762174898277"><ele>1203.0</ele><time>2026-05-01T14:23:19.003Z</time></trkpt><trkpt lat="44.71602935399749" lon="9.190845132322135"><ele>1203.0</ele><time>2026-05-01T14:23:20.003Z</time></trkpt><trkpt lat="44.71611789754521" lon="9.190999298432958"><ele>1206.6666666666667</ele><time>2026-05-01T14:23:22.003Z</time></trkpt><trkpt lat="44.71617313466101" lon="9.191077910749868"><ele>1210.3333333333333</ele><time>2026-05-01T14:23:23.003Z</time></trkpt><trkpt lat="44.71623512285556" lon="9.191144976211051"><ele>1214.0</ele><time>2026-05-01T14:23:24.003Z</time></trkpt><trkpt lat="44.71629393802187" lon="9.191203958660502"><ele>1217.6666666666665</ele><time>2026-05-01T14:23:25.003Z</time></trkpt><trkpt lat="44.71636248977724" lon="9.191236367692724"><ele>1221.3333333333333</ele><time>2026-05-01T14:23:26.003Z</time></trkpt><trkpt lat="44.71647322379811" lon="9.191244212413535"><ele>1225.0</ele><time>2026-05-01T14:23:28.003Z</time></trkpt><trkpt lat="44.71657035213824" lon="9.191184211675727"><ele>1225.0</ele><time>2026-05-01T14:23:29.999Z</time></trkpt><trkpt lat="44.71666521031676" lon="9.191088282381857"><ele>1225.0</ele><time>2026-05-01T14:23:31.999Z</time></trkpt><trkpt lat="44.716753475951805" lon="9.191008588649796"><ele>1225.0</ele><time>2026-05-01T14:23:33.999Z</time></trkpt><trkpt lat="44.71685821959687" lon="9.190949092286534"><ele>1225.0</ele><time>2026-05-01T14:23:35.999Z</time></trkpt><trkpt lat="44.71695359790111" lon="9.190881544960584"><ele>1225.0</ele><time>2026-05-01T14:23:37.999Z</time></trkpt><trkpt lat="44.71704129102804" lon="9.190825412403495"><ele>1227.5</ele><time>2026-05-01T14:23:39.999Z</time></trkpt><trkpt lat="44.717145998326934" lon="9.19082150624841"><ele>1230.0</ele><time>2026-05-01T14:23:41.999Z</time></trkpt><trkpt lat="44.717252056207904" lon="9.190882909917677"><ele>1232.5</ele><time>2026-05-01T14:23:43.999Z</time></trkpt><trkpt lat="44.71737024472488" lon="9.190949325752559"><ele>1235.0</ele><time>2026-05-01T14:23:46Z</time></trkpt><trkpt lat="44.71748483518951" lon="9.190990363489476"><ele>1235.0</ele><time>2026-05-01T14:23:48Z</time></trkpt><trkpt lat="44.71759849766534" lon="9.190955725275924"><ele>1235.0</ele><time>2026-05-01T14:23:50Z</time></trkpt><trkpt lat="44.71768952550233" lon="9.190952834713995"><ele>1235.0</ele><time>2026-05-01T14:23:52Z</time></trkpt><trkpt lat="44.71774160654753" lon="9.19103944317514"><ele>1235.0</ele><time>2026-05-01T14:23:54Z</time></trkpt><trkpt lat="44.71770891145042" lon="9.19117955674252"><ele>1235.0</ele><time>2026-05-01T14:23:56Z</time></trkpt><trkpt lat="44.717688016134" lon="9.19133529903408"><ele>1234.9999999999998</ele><time>2026-05-01T14:23:58Z</time></trkpt><trkpt lat="44.71767897335987" lon="9.19142310206465"><ele>1235.0</ele><time>2026-05-01T14:23:59Z</time></trkpt><trkpt lat="44.71766891622097" lon="9.191525850696662"><ele>1235.0</ele><time>2026-05-01T14:24:00Z</time></trkpt><trkpt lat="44.71766122109923" lon="9.191631909860357"><ele>1235.0</ele><time>2026-05-01T14:24:01Z</time></trkpt><trkpt lat="44.71765541081708" lon="9.191740267836844"><ele>1235.0</ele><time>2026-05-01T14:24:02Z</time></trkpt><trkpt lat="44.71766663097269" lon="9.19184586975584"><ele>1234.9999999999998</ele><time>2026-05-01T14:24:03Z</time></trkpt><trkpt lat="44.71766463423107" lon="9.19195679179199"><ele>1235.0</ele><time>2026-05-01T14:24:04Z</time></trkpt><trkpt lat="44.7176645393435" lon="9.192057988417284"><ele>1237.8333333333335</ele><time>2026-05-01T14:24:05.001Z</time></trkpt><trkpt lat="44.71765471007319" lon="9.192158664575892"><ele>1240.6666666666667</ele><time>2026-05-01T14:24:06.001Z</time></trkpt><trkpt lat="44.7176666818353" lon="9.192256755299294"><ele>1243.5</ele><time>2026-05-01T14:24:07.001Z</time></trkpt><trkpt lat="44.71767752738682" lon="9.192355385494329"><ele>1246.3333333333333</ele><time>2026-05-01T14:24:08.001Z</time></trkpt><trkpt lat="44.71766924524068" lon="9.192444975888858"><ele>1249.1666666666665</ele><time>2026-05-01T14:24:09.001Z</time></trkpt><trkpt lat="44.71768282491193" lon="9.192624877994566"><ele>1252.0</ele><time>2026-05-01T14:24:11.001Z</time></trkpt><trkpt lat="44.717667388852846" lon="9.19273709902081"><ele>1252.7142857142858</ele><time>2026-05-01T14:24:12.001Z</time></trkpt><trkpt lat="44.7176675442212" lon="9.192829329693394"><ele>1253.4285714285716</ele><time>2026-05-01T14:24:13.001Z</time></trkpt><trkpt lat="44.717681650395534" lon="9.192922267600867"><ele>1254.1428571428573</ele><time>2026-05-01T14:24:14.001Z</time></trkpt><trkpt lat="44.71769929711046" lon="9.193016415919569"><ele>1254.857142857143</ele><time>2026-05-01T14:24:15.001Z</time></trkpt><trkpt lat="44.71772211150028" lon="9.19312745014941"><ele>1255.5714285714287</ele><time>2026-05-01T14:24:16.001Z</time></trkpt><trkpt lat="44.717759014045846" lon="9.193213117113126"><ele>1256.2857142857144</ele><time>2026-05-01T14:24:17.001Z</time></trkpt><trkpt lat="44.71779316686811" lon="9.193309943713716"><ele>1257.0</ele><time>2026-05-01T14:24:18.001Z</time></trkpt><trkpt lat="44.717840080631326" lon="9.193407580613455"><ele>1257.0</ele><time>2026-05-01T14:24:19.001Z</time></trkpt><trkpt lat="44.71789100527089" lon="9.193491153778147"><ele>1257.0</ele><time>2026-05-01T14:24:20.001Z</time></trkpt><trkpt lat="44.717934405306465" lon="9.193572736707555"><ele>1257.0</ele><time>2026-05-01T14:24:21.001Z</time></trkpt><trkpt lat="44.71798494308017" lon="9.193646018830847"><ele>1257.0</ele><time>2026-05-01T14:24:22.001Z</time></trkpt><trkpt lat="44.71803497359704" lon="9.193711891674184"><ele>1257.0</ele><time>2026-05-01T14:24:23.001Z</time></trkpt><trkpt lat="44.71807627384615" lon="9.193781349573761"><ele>1257.0</ele><time>2026-05-01T14:24:24.001Z</time></trkpt><trkpt lat="44.71813801964415" lon="9.193910991490098"><ele>1261.0</ele><time>2026-05-01T14:24:26.001Z</time></trkpt><trkpt lat="44.718144271861526" lon="9.194070945321178"><ele>1265.0</ele><time>2026-05-01T14:24:28.001Z</time></trkpt><trkpt lat="44.71815841005164" lon="9.194258860160188"><ele>1269.0</ele><time>2026-05-01T14:24:30.001Z</time></trkpt><trkpt lat="44.71817825034314" lon="9.19434730494372"><ele>1273.0</ele><time>2026-05-01T14:24:31.001Z</time></trkpt><trkpt lat="44.718201194640365" lon="9.194433888536311"><ele>1277.0</ele><time>2026-05-01T14:24:32.001Z</time></trkpt><trkpt lat="44.71822868859972" lon="9.194532785859863"><ele>1277.0</ele><time>2026-05-01T14:24:33.001Z</time></trkpt><trkpt lat="44.718266999697924" lon="9.194650884651848"><ele>1277.0</ele><time>2026-05-01T14:24:34.002Z</time></trkpt><trkpt lat="44.71830508005795" lon="9.194754272634336"><ele>1277.0</ele><time>2026-05-01T14:24:35.002Z</time></trkpt><trkpt lat="44.71834473979601" lon="9.194846617617255"><ele>1277.0</ele><time>2026-05-01T14:24:36.002Z</time></trkpt><trkpt lat="44.71838090639344" lon="9.194922275514745"><ele>1277.0</ele><time>2026-05-01T14:24:37.002Z</time></trkpt><trkpt lat="44.718459002420076" lon="9.195055772625771"><ele>1277.0</ele><time>2026-05-01T14:24:39.002Z</time></trkpt><trkpt lat="44.718554350478655" lon="9.195152780179072"><ele>1277.8</ele><time>2026-05-01T14:24:41.002Z</time></trkpt><trkpt lat="44.71866927749318" lon="9.195146984010583"><ele>1278.6</ele><time>2026-05-01T14:24:43.002Z</time></trkpt><trkpt lat="44.71879282486588" lon="9.195194853110468"><ele>1279.3999999999999</ele><time>2026-05-01T14:24:45.002Z</time></trkpt><trkpt lat="44.718868314413605" lon="9.195220741050674"><ele>1280.2</ele><time>2026-05-01T14:24:46.002Z</time></trkpt><trkpt lat="44.7189441164558" lon="9.195260090529466"><ele>1281.0</ele><time>2026-05-01T14:24:47.002Z</time></trkpt><trkpt lat="44.71903045761164" lon="9.195293038248915"><ele>1281.0</ele><time>2026-05-01T14:24:48.002Z</time></trkpt><trkpt lat="44.71911934919719" lon="9.195312952770234"><ele>1281.0</ele><time>2026-05-01T14:24:49.002Z</time></trkpt><trkpt lat="44.71919899186651" lon="9.195343364783989"><ele>1281.0</ele><time>2026-05-01T14:24:50.002Z</time></trkpt><trkpt lat="44.71928206851364" lon="9.195373330188826"><ele>1281.0</ele><time>2026-05-01T14:24:51.002Z</time></trkpt><trkpt lat="44.71936784004432" lon="9.19540118429523"><ele>1281.0</ele><time>2026-05-01T14:24:52.002Z</time></trkpt><trkpt lat="44.71944827520412" lon="9.195455804463434"><ele>1281.0</ele><time>2026-05-01T14:24:53.002Z</time></trkpt><trkpt lat="44.71952281994142" lon="9.195505678277089"><ele>1282.6666666666667</ele><time>2026-05-01T14:24:54.002Z</time></trkpt><trkpt lat="44.719583364592395" lon="9.19557198415051"><ele>1284.3333333333333</ele><time>2026-05-01T14:24:55.002Z</time></trkpt><trkpt lat="44.71965859558191" lon="9.19564639603282"><ele>1286.0</ele><time>2026-05-01T14:24:56.002Z</time></trkpt><trkpt lat="44.71974356590172" lon="9.195703116841976"><ele>1287.6666666666665</ele><time>2026-05-01T14:24:57.002Z</time></trkpt><trkpt lat="44.719824668722545" lon="9.195768681747515"><ele>1289.3333333333333</ele><time>2026-05-01T14:24:58.002Z</time></trkpt><trkpt lat="44.71989915388606" lon="9.195833523971592"><ele>1291.0</ele><time>2026-05-01T14:24:59.002Z</time></trkpt><trkpt lat="44.71995769521617" lon="9.195882888760742"><ele>1291.0</ele><time>2026-05-01T14:25:00.002Z</time></trkpt><trkpt lat="44.720018232157834" lon="9.195934892665178"><ele>1291.0</ele><time>2026-05-01T14:25:01.002Z</time></trkpt><trkpt lat="44.72004692938075" lon="9.196016578802176"><ele>1291.0</ele><time>2026-05-01T14:25:02.002Z</time></trkpt><trkpt lat="44.72006353344364" lon="9.196120535388378"><ele>1291.0</ele><time>2026-05-01T14:25:03.002Z</time></trkpt><trkpt lat="44.72015442403502" lon="9.196255108066666"><ele>1291.0</ele><time>2026-05-01T14:25:05.002Z</time></trkpt><trkpt lat="44.72021595553355" lon="9.196302032483132"><ele>1291.0</ele><time>2026-05-01T14:25:06.002Z</time></trkpt><trkpt lat="44.72027608815663" lon="9.196365567530455"><ele>1292.3333333333333</ele><time>2026-05-01T14:25:07.003Z</time></trkpt><trkpt lat="44.7203541090053" lon="9.19643288380954"><ele>1293.6666666666665</ele><time>2026-05-01T14:25:08.003Z</time></trkpt><trkpt lat="44.720426410830484" lon="9.19646944398541"><ele>1295.0</ele><time>2026-05-01T14:25:09.003Z</time></trkpt><trkpt lat="44.720500092241465" lon="9.196489410990234"><ele>1296.3333333333333</ele><time>2026-05-01T14:25:10.003Z</time></trkpt><trkpt lat="44.72056684683343" lon="9.196501825906488"><ele>1297.6666666666667</ele><time>2026-05-01T14:25:11.003Z</time></trkpt><trkpt lat="44.720630203256405" lon="9.196622225193206"><ele>1299.0</ele><time>2026-05-01T14:25:13.003Z</time></trkpt><trkpt lat="44.72067211075304" lon="9.19679603123268"><ele>1299.0</ele><time>2026-05-01T14:25:15.003Z</time></trkpt><trkpt lat="44.72071416915827" lon="9.19686760477431"><ele>1299.0</ele><time>2026-05-01T14:25:16.003Z</time></trkpt><trkpt lat="44.72076510271961" lon="9.196921749025543"><ele>1299.0</ele><time>2026-05-01T14:25:17.003Z</time></trkpt><trkpt lat="44.720823252383084" lon="9.196978776912104"><ele>1299.0</ele><time>2026-05-01T14:25:18.003Z</time></trkpt><trkpt lat="44.720931615949766" lon="9.19705148737727"><ele>1299.0</ele><time>2026-05-01T14:25:20.003Z</time></trkpt><trkpt lat="44.721042074867434" lon="9.19713798036857"><ele>1299.0</ele><time>2026-05-01T14:25:22.003Z</time></trkpt><trkpt lat="44.72110954259662" lon="9.19720025728545"><ele>1298.6666666666667</ele><time>2026-05-01T14:25:23.003Z</time></trkpt><trkpt lat="44.72118583964878" lon="9.19725309739989"><ele>1298.3333333333333</ele><time>2026-05-01T14:25:24.003Z</time></trkpt><trkpt lat="44.72125713508653" lon="9.197284850482564"><ele>1298.0</ele><time>2026-05-01T14:25:25.003Z</time></trkpt><trkpt lat="44.72133136862106" lon="9.197311467314304"><ele>1297.6666666666665</ele><time>2026-05-01T14:25:26.003Z</time></trkpt><trkpt lat="44.72139353115127" lon="9.197352466928004"><ele>1297.3333333333333</ele><time>2026-05-01T14:25:27.003Z</time></trkpt><trkpt lat="44.721457926290924" lon="9.197385560420555"><ele>1297.0</ele><time>2026-05-01T14:25:28.003Z</time></trkpt><trkpt lat="44.721525547505884" lon="9.197435839495888"><ele>1299.8333333333333</ele><time>2026-05-01T14:25:29.003Z</time></trkpt><trkpt lat="44.721601990588326" lon="9.197481810957036"><ele>1302.6666666666665</ele><time>2026-05-01T14:25:30.003Z</time></trkpt><trkpt lat="44.721649604747185" lon="9.197570564581563"><ele>1305.5</ele><time>2026-05-01T14:25:31.003Z</time></trkpt><trkpt lat="44.72171355013173" lon="9.197639369213576"><ele>1308.3333333333333</ele><time>2026-05-01T14:25:32.003Z</time></trkpt><trkpt lat="44.72177302705324" lon="9.197699821188506"><ele>1311.1666666666667</ele><time>2026-05-01T14:25:33.003Z</time></trkpt><trkpt lat="44.72183499816489" lon="9.197774829170978"><ele>1314.0</ele><time>2026-05-01T14:25:34.003Z</time></trkpt><trkpt lat="44.721930036067675" lon="9.197869450774077"><ele>1314.5</ele><time>2026-05-01T14:25:35.999Z</time></trkpt><trkpt lat="44.72196594538402" lon="9.197958986356394"><ele>1315.0</ele><time>2026-05-01T14:25:37.999Z</time></trkpt><trkpt lat="44.721937491228175" lon="9.198063744195979"><ele>1315.5</ele><time>2026-05-01T14:25:42.999Z</time></trkpt><trkpt lat="44.72183930779115" lon="9.198173034655618"><ele>1316.0</ele><time>2026-05-01T14:25:44.999Z</time></trkpt><trkpt lat="44.72175623135084" lon="9.198198117705344"><ele>1316.5</ele><time>2026-05-01T14:25:45.999Z</time></trkpt><trkpt lat="44.72168998925639" lon="9.198227234185746"><ele>1317.0</ele><time>2026-05-01T14:25:47Z</time></trkpt><trkpt lat="44.72156414320541" lon="9.198286579363607"><ele>1320.5</ele><time>2026-05-01T14:25:49Z</time></trkpt><trkpt lat="44.72150023525678" lon="9.19831747817252"><ele>1324.0</ele><time>2026-05-01T14:25:50Z</time></trkpt><trkpt lat="44.72142693219324" lon="9.198347734918674"><ele>1327.5</ele><time>2026-05-01T14:25:51Z</time></trkpt><trkpt lat="44.72134525819349" lon="9.198372473205907"><ele>1331.0</ele><time>2026-05-01T14:25:52Z</time></trkpt><trkpt lat="44.721272165536476" lon="9.198373635019742"><ele>1334.5</ele><time>2026-05-01T14:25:53Z</time></trkpt><trkpt lat="44.72120825635246" lon="9.198374077443557"><ele>1338.0</ele><time>2026-05-01T14:25:54Z</time></trkpt><trkpt lat="44.72108672531893" lon="9.198342982418904"><ele>1339.3333333333333</ele><time>2026-05-01T14:25:56Z</time></trkpt><trkpt lat="44.720987996319835" lon="9.198343254731528"><ele>1340.6666666666667</ele><time>2026-05-01T14:25:58Z</time></trkpt><trkpt lat="44.720930217601804" lon="9.198398432204646"><ele>1342.0</ele><time>2026-05-01T14:25:59Z</time></trkpt><trkpt lat="44.720823557295155" lon="9.198509503826143"><ele>1343.3333333333335</ele><time>2026-05-01T14:26:01Z</time></trkpt><trkpt lat="44.72076197037204" lon="9.198544849175523"><ele>1344.6666666666667</ele><time>2026-05-01T14:26:02Z</time></trkpt><trkpt lat="44.720694967536154" lon="9.198563703582694"><ele>1346.0</ele><time>2026-05-01T14:26:03Z</time></trkpt><trkpt lat="44.72061560700234" lon="9.198569239747009"><ele>1346.0</ele><time>2026-05-01T14:26:04Z</time></trkpt><trkpt lat="44.72054024468367" lon="9.198578995532914"><ele>1346.0</ele><time>2026-05-01T14:26:05Z</time></trkpt><trkpt lat="44.720459065074024" lon="9.19855896364534"><ele>1346.0</ele><time>2026-05-01T14:26:06Z</time></trkpt><trkpt lat="44.72037740592867" lon="9.198511483024708"><ele>1346.0</ele><time>2026-05-01T14:26:07Z</time></trkpt><trkpt lat="44.720305769575674" lon="9.19845801815171"><ele>1346.0</ele><time>2026-05-01T14:26:08Z</time></trkpt><trkpt lat="44.72025170043922" lon="9.19838812161743"><ele>1346.0</ele><time>2026-05-01T14:26:09.001Z</time></trkpt><trkpt lat="44.720181120544154" lon="9.198361953938381"><ele>1345.6</ele><time>2026-05-01T14:26:10.001Z</time></trkpt><trkpt lat="44.72009531559675" lon="9.198272562814482"><ele>1345.1999999999998</ele><time>2026-05-01T14:26:12.001Z</time></trkpt><trkpt lat="44.72003829685427" lon="9.198148363686025"><ele>1344.8000000000002</ele><time>2026-05-01T14:26:14.001Z</time></trkpt><trkpt lat="44.72000092932242" lon="9.198073825846551"><ele>1344.4</ele><time>2026-05-01T14:26:15.001Z</time></trkpt><trkpt lat="44.71992072286071" lon="9.197955305669542"><ele>1344.0</ele><time>2026-05-01T14:26:17.001Z</time></trkpt><trkpt lat="44.719861862566056" lon="9.197887956906728"><ele>1344.0</ele><time>2026-05-01T14:26:18.001Z</time></trkpt><trkpt lat="44.719791405739684" lon="9.197840983303388"><ele>1344.0</ele><time>2026-05-01T14:26:19.001Z</time></trkpt><trkpt lat="44.719716340500625" lon="9.1978083441838"><ele>1344.0</ele><time>2026-05-01T14:26:20.001Z</time></trkpt><trkpt lat="44.71964701399924" lon="9.197785067187297"><ele>1344.0</ele><time>2026-05-01T14:26:21.001Z</time></trkpt><trkpt lat="44.71957220547272" lon="9.197781672663552"><ele>1344.0</ele><time>2026-05-01T14:26:22.001Z</time></trkpt><trkpt lat="44.719505269213364" lon="9.197774862520633"><ele>1344.0</ele><time>2026-05-01T14:26:23.001Z</time></trkpt><trkpt lat="44.719440199080815" lon="9.197764416700457"><ele>1344.0</ele><time>2026-05-01T14:26:24.001Z</time></trkpt><trkpt lat="44.7193284674023" lon="9.197779196965293"><ele>1346.3333333333333</ele><time>2026-05-01T14:26:26.001Z</time></trkpt><trkpt lat="44.71925926581755" lon="9.197800234998764"><ele>1348.6666666666667</ele><time>2026-05-01T14:26:27.001Z</time></trkpt><trkpt lat="44.71919934592357" lon="9.197828121943875"><ele>1351.0</ele><time>2026-05-01T14:26:28.001Z</time></trkpt><trkpt lat="44.71910586839044" lon="9.197922444424513"><ele>1353.3333333333335</ele><time>2026-05-01T14:26:30.001Z</time></trkpt><trkpt lat="44.71907095174837" lon="9.19799804417848"><ele>1355.6666666666667</ele><time>2026-05-01T14:26:31.001Z</time></trkpt><trkpt lat="44.71902289304677" lon="9.198063495432185"><ele>1358.0</ele><time>2026-05-01T14:26:32.001Z</time></trkpt><trkpt lat="44.71898447422426" lon="9.198147054062412"><ele>1360.8000000000002</ele><time>2026-05-01T14:26:33.001Z</time></trkpt><trkpt lat="44.71895175619726" lon="9.198230181486492"><ele>1363.6</ele><time>2026-05-01T14:26:34.001Z</time></trkpt><trkpt lat="44.71893219380379" lon="9.198386083664705"><ele>1366.4</ele><time>2026-05-01T14:26:36.001Z</time></trkpt><trkpt lat="44.71894073917" lon="9.198535072979123"><ele>1369.1999999999998</ele><time>2026-05-01T14:26:38.002Z</time></trkpt><trkpt lat="44.71896797872778" lon="9.1986194485706"><ele>1372.0</ele><time>2026-05-01T14:26:39.002Z</time></trkpt><trkpt lat="44.71904891549377" lon="9.198759938854645"><ele>1372.0</ele><time>2026-05-01T14:26:41.002Z</time></trkpt><trkpt lat="44.719095536450396" lon="9.198824241607655"><ele>1372.0</ele><time>2026-05-01T14:26:42.002Z</time></trkpt><trkpt lat="44.719136396475186" lon="9.198903143700097"><ele>1372.0</ele><time>2026-05-01T14:26:43.002Z</time></trkpt><trkpt lat="44.719194953399274" lon="9.198973657359504"><ele>1372.0</ele><time>2026-05-01T14:26:44.002Z</time></trkpt><trkpt lat="44.719237798912545" lon="9.199062582636797"><ele>1372.0</ele><time>2026-05-01T14:26:45.002Z</time></trkpt><trkpt lat="44.7192875011268" lon="9.199145350620238"><ele>1372.0</ele><time>2026-05-01T14:26:46.002Z</time></trkpt><trkpt lat="44.71933246421249" lon="9.199226735234825"><ele>1372.0</ele><time>2026-05-01T14:26:47.002Z</time></trkpt><trkpt lat="44.71938048680786" lon="9.199318734619066"><ele>1374.0</ele><time>2026-05-01T14:26:48.002Z</time></trkpt><trkpt lat="44.719427434621196" lon="9.199408674410858"><ele>1376.0</ele><time>2026-05-01T14:26:49.002Z</time></trkpt><trkpt lat="44.71946149736562" lon="9.199504846436664"><ele>1378.0</ele><time>2026-05-01T14:26:50.002Z</time></trkpt><trkpt lat="44.71949575059155" lon="9.199594422541109"><ele>1380.0</ele><time>2026-05-01T14:26:51.002Z</time></trkpt><trkpt lat="44.71952996554677" lon="9.1997006508601"><ele>1382.0</ele><time>2026-05-01T14:26:52.002Z</time></trkpt><trkpt lat="44.71956207076248" lon="9.199803647146924"><ele>1384.0</ele><time>2026-05-01T14:26:53.002Z</time></trkpt><trkpt lat="44.71959240189395" lon="9.199898670524538"><ele>1386.6666666666665</ele><time>2026-05-01T14:26:54.002Z</time></trkpt><trkpt lat="44.719624756138636" lon="9.199996894987045"><ele>1389.3333333333333</ele><time>2026-05-01T14:26:55.002Z</time></trkpt><trkpt lat="44.71966237027749" lon="9.200093147511073"><ele>1392.0</ele><time>2026-05-01T14:26:56.002Z</time></trkpt><trkpt lat="44.71967820817936" lon="9.200181013604995"><ele>1394.6666666666667</ele><time>2026-05-01T14:26:57.002Z</time></trkpt><trkpt lat="44.71977360969425" lon="9.200293368817642"><ele>1397.3333333333335</ele><time>2026-05-01T14:26:59.002Z</time></trkpt><trkpt lat="44.719834664592" lon="9.200320297588652"><ele>1400.0</ele><time>2026-05-01T14:27:00.002Z</time></trkpt><trkpt lat="44.71996683389549" lon="9.200321871308356"><ele>1400.0</ele><time>2026-05-01T14:27:02.002Z</time></trkpt><trkpt lat="44.72004661132802" lon="9.200328695575624"><ele>1400.0</ele><time>2026-05-01T14:27:03.002Z</time></trkpt><trkpt lat="44.72016681753097" lon="9.200346713279615"><ele>1400.0</ele><time>2026-05-01T14:27:05.002Z</time></trkpt><trkpt lat="44.7202793332405" lon="9.200378823431462"><ele>1400.0</ele><time>2026-05-01T14:27:07.002Z</time></trkpt><trkpt lat="44.72035369357416" lon="9.200397730183106"><ele>1400.0</ele><time>2026-05-01T14:27:08.002Z</time></trkpt><trkpt lat="44.720415991290686" lon="9.20043502430757"><ele>1400.5</ele><time>2026-05-01T14:27:09.002Z</time></trkpt><trkpt lat="44.720487314168516" lon="9.200478806191146"><ele>1401.0</ele><time>2026-05-01T14:27:10.002Z</time></trkpt><trkpt lat="44.720556359785704" lon="9.20048780723577"><ele>1401.5</ele><time>2026-05-01T14:27:11.003Z</time></trkpt><trkpt lat="44.720656398603246" lon="9.200499169565068"><ele>1402.0</ele><time>2026-05-01T14:27:12.003Z</time></trkpt><trkpt lat="44.72073864559401" lon="9.20052247826579"><ele>1402.5</ele><time>2026-05-01T14:27:13.003Z</time></trkpt><trkpt lat="44.72080310092185" lon="9.200564085989239"><ele>1403.0</ele><time>2026-05-01T14:27:14.003Z</time></trkpt><trkpt lat="44.720872921342455" lon="9.200587341143294"><ele>1403.0</ele><time>2026-05-01T14:27:15.003Z</time></trkpt><trkpt lat="44.72095893725942" lon="9.200572975895803"><ele>1403.0</ele><time>2026-05-01T14:27:16.003Z</time></trkpt><trkpt lat="44.72103514818875" lon="9.200578086753925"><ele>1403.0</ele><time>2026-05-01T14:27:17.003Z</time></trkpt><trkpt lat="44.72114687643349" lon="9.200561729803647"><ele>1403.0</ele><time>2026-05-01T14:27:19.003Z</time></trkpt><trkpt lat="44.721222654596836" lon="9.200550016395562"><ele>1403.0</ele><time>2026-05-01T14:27:20.003Z</time></trkpt><trkpt lat="44.721353969847726" lon="9.200553576940475"><ele>1403.8333333333335</ele><time>2026-05-01T14:27:22.003Z</time></trkpt><trkpt lat="44.72142923178021" lon="9.20056287803347"><ele>1404.6666666666667</ele><time>2026-05-01T14:27:23.003Z</time></trkpt><trkpt lat="44.72148714095891" lon="9.20060560421345"><ele>1405.5</ele><time>2026-05-01T14:27:24.003Z</time></trkpt><trkpt lat="44.72160104451909" lon="9.200692497657665"><ele>1406.3333333333333</ele><time>2026-05-01T14:27:26.003Z</time></trkpt><trkpt lat="44.72165629490585" lon="9.200741638602226"><ele>1407.1666666666665</ele><time>2026-05-01T14:27:27.003Z</time></trkpt><trkpt lat="44.72175281951081" lon="9.200818417075421"><ele>1408.0</ele><time>2026-05-01T14:27:28.003Z</time></trkpt><trkpt lat="44.72180598113804" lon="9.200912777639786"><ele>1412.1666666666665</ele><time>2026-05-01T14:27:29.003Z</time></trkpt><trkpt lat="44.72185673122826" lon="9.200988596391648"><ele>1416.3333333333333</ele><time>2026-05-01T14:27:30.003Z</time></trkpt><trkpt lat="44.721896847074284" lon="9.201075709727927"><ele>1420.5</ele><time>2026-05-01T14:27:31.003Z</time></trkpt><trkpt lat="44.721952222505315" lon="9.20115835772802"><ele>1424.6666666666667</ele><time>2026-05-01T14:27:32.003Z</time></trkpt><trkpt lat="44.72201134238552" lon="9.20121149232429"><ele>1428.8333333333335</ele><time>2026-05-01T14:27:33.003Z</time></trkpt><trkpt lat="44.72209965964047" lon="9.201237981649461"><ele>1433.0</ele><time>2026-05-01T14:27:34.003Z</time></trkpt><trkpt lat="44.72218856715275" lon="9.2012538072643"><ele>1433.6666666666667</ele><time>2026-05-01T14:27:35.003Z</time></trkpt><trkpt lat="44.7222761365756" lon="9.20125558323412"><ele>1434.3333333333335</ele><time>2026-05-01T14:27:36.003Z</time></trkpt><trkpt lat="44.72236221790584" lon="9.20123676574344"><ele>1435.0</ele><time>2026-05-01T14:27:37.003Z</time></trkpt><trkpt lat="44.72243506374652" lon="9.20115868850078"><ele>1435.6666666666667</ele><time>2026-05-01T14:27:38.003Z</time></trkpt><trkpt lat="44.72250882538087" lon="9.201150908651968"><ele>1436.3333333333333</ele><time>2026-05-01T14:27:39.003Z</time></trkpt><trkpt lat="44.722611266214706" lon="9.201100453575418"><ele>1437.0</ele><time>2026-05-01T14:27:41Z</time></trkpt><trkpt lat="44.72269335483575" lon="9.200993680943933"><ele>1437.0</ele><time>2026-05-01T14:27:43Z</time></trkpt><trkpt lat="44.722665827019526" lon="9.200872381829589"><ele>1437.0</ele><time>2026-05-01T14:27:44Z</time></trkpt><trkpt lat="44.722682826302595" lon="9.200776298589876"><ele>1437.0</ele><time>2026-05-01T14:27:45Z</time></trkpt><trkpt lat="44.722722996692184" lon="9.200707461672508"><ele>1437.0</ele><time>2026-05-01T14:27:46Z</time></trkpt><trkpt lat="44.7227798379735" lon="9.200646660864727"><ele>1437.0</ele><time>2026-05-01T14:27:47Z</time></trkpt><trkpt lat="44.72284217742265" lon="9.200618159894306"><ele>1437.0</ele><time>2026-05-01T14:27:48Z</time></trkpt><trkpt lat="44.7229085843462" lon="9.20059018180613"><ele>1437.0</ele><time>2026-05-01T14:27:49Z</time></trkpt><trkpt lat="44.72298216568123" lon="9.200547270971258"><ele>1435.3333333333333</ele><time>2026-05-01T14:27:50Z</time></trkpt><trkpt lat="44.72305654478433" lon="9.200506075145418"><ele>1433.6666666666667</ele><time>2026-05-01T14:27:51Z</time></trkpt><trkpt lat="44.72312703529324" lon="9.200466592629164"><ele>1432.0</ele><time>2026-05-01T14:27:52Z</time></trkpt><trkpt lat="44.72320020066167" lon="9.200444007959563"><ele>1430.3333333333335</ele><time>2026-05-01T14:27:53Z</time></trkpt><trkpt lat="44.723267682168945" lon="9.200443749354974"><ele>1428.6666666666667</ele><time>2026-05-01T14:27:54Z</time></trkpt><trkpt lat="44.72338609191635" lon="9.200510712724727"><ele>1427.0</ele><time>2026-05-01T14:27:56Z</time></trkpt><trkpt lat="44.723444269482094" lon="9.200580468367528"><ele>1429.5</ele><time>2026-05-01T14:27:57Z</time></trkpt><trkpt lat="44.723518712140766" lon="9.200730206826313"><ele>1432.0</ele><time>2026-05-01T14:27:59Z</time></trkpt><trkpt lat="44.72357403721539" lon="9.20082059232031"><ele>1434.5</ele><time>2026-05-01T14:28:00Z</time></trkpt><trkpt lat="44.72361538207981" lon="9.200901223988641"><ele>1437.0</ele><time>2026-05-01T14:28:01Z</time></trkpt><trkpt lat="44.723672071542474" lon="9.20098506797148"><ele>1439.5</ele><time>2026-05-01T14:28:02Z</time></trkpt><trkpt lat="44.72372051059557" lon="9.20107204196905"><ele>1442.0</ele><time>2026-05-01T14:28:03Z</time></trkpt><trkpt lat="44.72376622789802" lon="9.201152512516668"><ele>1442.0</ele><time>2026-05-01T14:28:04Z</time></trkpt><trkpt lat="44.72379666668775" lon="9.201258534292522"><ele>1442.0</ele><time>2026-05-01T14:28:06Z</time></trkpt><trkpt lat="44.72374138912066" lon="9.20134574171955"><ele>1442.0</ele><time>2026-05-01T14:28:08Z</time></trkpt><trkpt lat="44.723646655314894" lon="9.201312537032946"><ele>1442.0</ele><time>2026-05-01T14:28:10Z</time></trkpt><trkpt lat="44.723583228029476" lon="9.201340115976706"><ele>1442.0</ele><time>2026-05-01T14:28:11Z</time></trkpt><trkpt lat="44.72350936234984" lon="9.201346773575683"><ele>1442.0</ele><time>2026-05-01T14:28:12.001Z</time></trkpt><trkpt lat="44.72342989356971" lon="9.201372359816334"><ele>1443.1666666666667</ele><time>2026-05-01T14:28:13.001Z</time></trkpt><trkpt lat="44.723356093052686" lon="9.201408110738463"><ele>1444.3333333333335</ele><time>2026-05-01T14:28:14.001Z</time></trkpt><trkpt lat="44.72329470046121" lon="9.201450778909958"><ele>1445.5</ele><time>2026-05-01T14:28:15.001Z</time></trkpt><trkpt lat="44.72323984753321" lon="9.201502457365551"><ele>1446.6666666666667</ele><time>2026-05-01T14:28:16.001Z</time></trkpt><trkpt lat="44.723184246057" lon="9.201545527478922"><ele>1447.8333333333333</ele><time>2026-05-01T14:28:17.001Z</time></trkpt><trkpt lat="44.72312510601288" lon="9.201647024227478"><ele>1449.0</ele><time>2026-05-01T14:28:18.001Z</time></trkpt><trkpt lat="44.723038963312575" lon="9.201705573080432"><ele>1451.6666666666667</ele><time>2026-05-01T14:28:20.001Z</time></trkpt><trkpt lat="44.722977553595506" lon="9.20173934899799"><ele>1454.3333333333333</ele><time>2026-05-01T14:28:21.001Z</time></trkpt><trkpt lat="44.72288854151705" lon="9.201772114030836"><ele>1457.0</ele><time>2026-05-01T14:28:22.001Z</time></trkpt><trkpt lat="44.72277505835039" lon="9.201812073794093"><ele>1459.6666666666665</ele><time>2026-05-01T14:28:24.001Z</time></trkpt><trkpt lat="44.72271721588132" lon="9.201852809313063"><ele>1462.3333333333333</ele><time>2026-05-01T14:28:25.001Z</time></trkpt><trkpt lat="44.72264363822863" lon="9.201847137931539"><ele>1465.0</ele><time>2026-05-01T14:28:26.001Z</time></trkpt><trkpt lat="44.72254569984156" lon="9.201878045471291"><ele>1465.0</ele><time>2026-05-01T14:28:27.001Z</time></trkpt><trkpt lat="44.72244502303356" lon="9.201894611263556"><ele>1465.0</ele><time>2026-05-01T14:28:28.001Z</time></trkpt><trkpt lat="44.72235870315011" lon="9.201923953288226"><ele>1465.0</ele><time>2026-05-01T14:28:29.001Z</time></trkpt><trkpt lat="44.72228227749135" lon="9.201974176897311"><ele>1465.0</ele><time>2026-05-01T14:28:30.001Z</time></trkpt><trkpt lat="44.72219498471804" lon="9.201993593660974"><ele>1465.0</ele><time>2026-05-01T14:28:31.001Z</time></trkpt><trkpt lat="44.72212769266208" lon="9.202001317356126"><ele>1465.0</ele><time>2026-05-01T14:28:32.001Z</time></trkpt><trkpt lat="44.72205054526516" lon="9.20202186653671"><ele>1465.0</ele><time>2026-05-01T14:28:33.001Z</time></trkpt><trkpt lat="44.72197348462279" lon="9.20203354797693"><ele>1465.0</ele><time>2026-05-01T14:28:34.001Z</time></trkpt><trkpt lat="44.72190282849309" lon="9.202074254627405"><ele>1465.0</ele><time>2026-05-01T14:28:35.001Z</time></trkpt><trkpt lat="44.72182577955951" lon="9.202112117952085"><ele>1465.0</ele><time>2026-05-01T14:28:36.001Z</time></trkpt><trkpt lat="44.721745522855315" lon="9.202150311996682"><ele>1465.0</ele><time>2026-05-01T14:28:37.001Z</time></trkpt><trkpt lat="44.72167449785421" lon="9.202191586904455"><ele>1465.0</ele><time>2026-05-01T14:28:38.001Z</time></trkpt><trkpt lat="44.72159871439731" lon="9.202234901844925"><ele>1464.5</ele><time>2026-05-01T14:28:39.001Z</time></trkpt><trkpt lat="44.72152251221425" lon="9.202269227553531"><ele>1464.0</ele><time>2026-05-01T14:28:40.001Z</time></trkpt><trkpt lat="44.72145151051977" lon="9.20232831879991"><ele>1463.5</ele><time>2026-05-01T14:28:41.001Z</time></trkpt><trkpt lat="44.72137634626611" lon="9.202395352298169"><ele>1463.0</ele><time>2026-05-01T14:28:42.001Z</time></trkpt><trkpt lat="44.72130362686289" lon="9.202465343481263"><ele>1462.5</ele><time>2026-05-01T14:28:43.001Z</time></trkpt><trkpt lat="44.721222163184336" lon="9.202538139152425"><ele>1462.0</ele><time>2026-05-01T14:28:44.001Z</time></trkpt><trkpt lat="44.72113759943338" lon="9.202603433285255"><ele>1464.0</ele><time>2026-05-01T14:28:45.002Z</time></trkpt><trkpt lat="44.721058259093084" lon="9.2026539140762"><ele>1466.0</ele><time>2026-05-01T14:28:46.002Z</time></trkpt><trkpt lat="44.720982646446856" lon="9.202700524188964"><ele>1468.0</ele><time>2026-05-01T14:28:47.002Z</time></trkpt><trkpt lat="44.72092783604207" lon="9.202765994035456"><ele>1470.0</ele><time>2026-05-01T14:28:48.002Z</time></trkpt><trkpt lat="44.720878727915675" lon="9.20284196902587"><ele>1472.0</ele><time>2026-05-01T14:28:49.002Z</time></trkpt><trkpt lat="44.720838480962385" lon="9.20293094915044"><ele>1474.0</ele><time>2026-05-01T14:28:50.002Z</time></trkpt><trkpt lat="44.72077907334706" lon="9.203034483503973"><ele>1474.0</ele><time>2026-05-01T14:28:52.002Z</time></trkpt><trkpt lat="44.72074795093068" lon="9.203120261363727"><ele>1474.0</ele><time>2026-05-01T14:28:54.002Z</time></trkpt><trkpt lat="44.72071900729984" lon="9.203201731960263"><ele>1474.0</ele><time>2026-05-01T14:28:57.002Z</time></trkpt><trkpt lat="44.72064436196955" lon="9.20321519559441"><ele>1474.0</ele><time>2026-05-01T14:28:59.002Z</time></trkpt><trkpt lat="44.7205694618475" lon="9.203290738295953"><ele>1474.0</ele><time>2026-05-01T14:29:01.002Z</time></trkpt><trkpt lat="44.72046181749786" lon="9.203440002631883"><ele>1474.6</ele><time>2026-05-01T14:36:35.001Z</time></trkpt><trkpt lat="44.72048790289754" lon="9.203550929325534"><ele>1475.2</ele><time>2026-05-01T14:36:38.001Z</time></trkpt><trkpt lat="44.72044993296184" lon="9.203684822043934"><ele>1475.8</ele><time>2026-05-01T14:36:41.001Z</time></trkpt><trkpt lat="44.7203019066475" lon="9.203649585882006"><ele>1476.3999999999999</ele><time>2026-05-01T14:36:42.001Z</time></trkpt><trkpt lat="44.72024167512078" lon="9.203720775804465"><ele>1477.0</ele><time>2026-05-01T14:36:44.001Z</time></trkpt><trkpt lat="44.72016969064175" lon="9.203794202226254"><ele>1477.0</ele><time>2026-05-01T14:36:46.001Z</time></trkpt><trkpt lat="44.720216884558575" lon="9.203715902408225"><ele>1477.0</ele><time>2026-05-01T14:37:36.001Z</time></trkpt><trkpt lat="44.72029930429668" lon="9.203612078792474"><ele>1477.0</ele><time>2026-05-01T14:37:38.001Z</time></trkpt><trkpt lat="44.72036196507326" lon="9.203519527674864"><ele>1477.0</ele><time>2026-05-01T14:37:40.001Z</time></trkpt><trkpt lat="44.72040621588317" lon="9.203434047440394"><ele>1477.0</ele><time>2026-05-01T14:37:42.001Z</time></trkpt><trkpt lat="44.72046709192889" lon="9.203386252822728"><ele>1477.0</ele><time>2026-05-01T14:37:44.001Z</time></trkpt><trkpt lat="44.72052876641485" lon="9.203351859246524"><ele>1477.3999999999999</ele><time>2026-05-01T14:37:46.001Z</time></trkpt><trkpt lat="44.72060086964879" lon="9.20327381449667"><ele>1477.8</ele><time>2026-05-01T14:38:39.001Z</time></trkpt><trkpt lat="44.72067584768936" lon="9.203198213606207"><ele>1478.2</ele><time>2026-05-01T14:38:41.001Z</time></trkpt><trkpt lat="44.72074947030945" lon="9.203151758928627"><ele>1478.6</ele><time>2026-05-01T14:38:43.001Z</time></trkpt><trkpt lat="44.72085636939749" lon="9.203134185836733"><ele>1479.0</ele><time>2026-05-01T14:38:56.001Z</time></trkpt><trkpt lat="44.720950320500656" lon="9.2031470450686"><ele>1479.0</ele><time>2026-05-01T14:38:59.001Z</time></trkpt><trkpt lat="44.72108643530453" lon="9.203162429267532"><ele>1479.0</ele><time>2026-05-01T14:39:03.001Z</time></trkpt><trkpt lat="44.72101715581029" lon="9.203188726975403"><ele>1479.0</ele><time>2026-05-01T14:39:34Z</time></trkpt><trkpt lat="44.7209404293962" lon="9.203205656814172"><ele>1479.0</ele><time>2026-05-01T14:39:37Z</time></trkpt><trkpt lat="44.72086802676135" lon="9.203183604744721"><ele>1479.0</ele><time>2026-05-01T14:39:40Z</time></trkpt><trkpt lat="44.720789470318266" lon="9.203175853621106"><ele>1479.0</ele><time>2026-05-01T14:39:42Z</time></trkpt><trkpt lat="44.72072440291053" lon="9.203162636646761"><ele>1479.0</ele><time>2026-05-01T14:39:44Z</time></trkpt><trkpt lat="44.72064583462241" lon="9.203213799086672"><ele>1479.0</ele><time>2026-05-01T14:39:47Z</time></trkpt><trkpt lat="44.72058621965346" lon="9.203274265798091"><ele>1479.0</ele><time>2026-05-01T14:39:49Z</time></trkpt><trkpt lat="44.7205633154479" lon="9.203440538542186"><ele>1479.0</ele><time>2026-05-01T14:39:52Z</time></trkpt><trkpt lat="44.72063791112405" lon="9.20345287417761"><ele>1479.0</ele><time>2026-05-01T14:39:53Z</time></trkpt><trkpt lat="44.72071685667678" lon="9.203485061814504"><ele>1479.0</ele><time>2026-05-01T14:39:55Z</time></trkpt><trkpt lat="44.720794793620264" lon="9.203510391830214"><ele>1479.0</ele><time>2026-05-01T14:39:57Z</time></trkpt><trkpt lat="44.72087141410004" lon="9.203545555463615"><ele>1479.0</ele><time>2026-05-01T14:39:59Z</time></trkpt><trkpt lat="44.72093504746396" lon="9.203590632523497"><ele>1479.0</ele><time>2026-05-01T14:40:01Z</time></trkpt><trkpt lat="44.72099873862532" lon="9.203650056182342"><ele>1479.0</ele><time>2026-05-01T14:40:04Z</time></trkpt><trkpt lat="44.72106013235891" lon="9.203687760816177"><ele>1479.0</ele><time>2026-05-01T14:40:07Z</time></trkpt><trkpt lat="44.72110841397621" lon="9.203745488447325"><ele>1479.0</ele><time>2026-05-01T14:40:12Z</time></trkpt><trkpt lat="44.72114024900881" lon="9.203825070381264"><ele>1479.0</ele><time>2026-05-01T14:40:13Z</time></trkpt><trkpt lat="44.721208982206406" lon="9.2038994042257"><ele>1478.2</ele><time>2026-05-01T14:40:15Z</time></trkpt><trkpt lat="44.72127934287947" lon="9.20399074780071"><ele>1477.4</ele><time>2026-05-01T14:40:18Z</time></trkpt><trkpt lat="44.72135300379007" lon="9.204102087586406"><ele>1476.6</ele><time>2026-05-01T14:40:20Z</time></trkpt><trkpt lat="44.72140795126077" lon="9.204229874957798"><ele>1475.8</ele><time>2026-05-01T14:40:22Z</time></trkpt><trkpt lat="44.721486140166775" lon="9.204307137136183"><ele>1475.0</ele><time>2026-05-01T14:40:24Z</time></trkpt><trkpt lat="44.72151226412755" lon="9.204429594177235"><ele>1475.0</ele><time>2026-05-01T14:40:26Z</time></trkpt><trkpt lat="44.721445652009194" lon="9.204496648585568"><ele>1475.0</ele><time>2026-05-01T14:40:28Z</time></trkpt><trkpt lat="44.72137297095933" lon="9.204439035655497"><ele>1475.0</ele><time>2026-05-01T14:40:31Z</time></trkpt><trkpt lat="44.72129046576088" lon="9.204378913935942"><ele>1475.0</ele><time>2026-05-01T14:40:33Z</time></trkpt><trkpt lat="44.72119446174419" lon="9.204330538418924"><ele>1475.0</ele><time>2026-05-01T14:40:35Z</time></trkpt><trkpt lat="44.72109661282731" lon="9.20431115206898"><ele>1473.8</ele><time>2026-05-01T14:40:37Z</time></trkpt><trkpt lat="44.72103096526151" lon="9.204332865512862"><ele>1472.6</ele><time>2026-05-01T14:40:38Z</time></trkpt><trkpt lat="44.720962952731014" lon="9.204344457153297"><ele>1471.4</ele><time>2026-05-01T14:40:39Z</time></trkpt><trkpt lat="44.72085563363304" lon="9.204344077255316"><ele>1470.2</ele><time>2026-05-01T14:40:41Z</time></trkpt><trkpt lat="44.72074830389477" lon="9.204320177647473"><ele>1469.0</ele><time>2026-05-01T14:40:43Z</time></trkpt><trkpt lat="44.72064468319315" lon="9.204304856026896"><ele>1469.0</ele><time>2026-05-01T14:40:45Z</time></trkpt><trkpt lat="44.72055174228938" lon="9.204317458729365"><ele>1469.0</ele><time>2026-05-01T14:40:48Z</time></trkpt><trkpt lat="44.72049593759029" lon="9.20437953509395"><ele>1469.0</ele><time>2026-05-01T14:40:51Z</time></trkpt><trkpt lat="44.720430533112896" lon="9.204428641691857"><ele>1469.0</ele><time>2026-05-01T14:40:53Z</time></trkpt><trkpt lat="44.720372216788554" lon="9.204511675082063"><ele>1469.0</ele><time>2026-05-01T14:40:55Z</time></trkpt><trkpt lat="44.72033655052331" lon="9.204597097863005"><ele>1469.0</ele><time>2026-05-01T14:40:57Z</time></trkpt><trkpt lat="44.72034523079891" lon="9.204715770120131"><ele>1469.0</ele><time>2026-05-01T14:40:59Z</time></trkpt><trkpt lat="44.72039281607369" lon="9.204819411307806"><ele>1469.0</ele><time>2026-05-01T14:41:01Z</time></trkpt><trkpt lat="44.72045475736905" lon="9.204929430883363"><ele>1469.0</ele><time>2026-05-01T14:41:03Z</time></trkpt><trkpt lat="44.720498594149156" lon="9.205050381514274"><ele>1469.0</ele><time>2026-05-01T14:41:05Z</time></trkpt><trkpt lat="44.720451474947616" lon="9.205155262602117"><ele>1469.0</ele><time>2026-05-01T14:41:08Z</time></trkpt><trkpt lat="44.72036163887555" lon="9.205247730944656"><ele>1466.2</ele><time>2026-05-01T14:41:10Z</time></trkpt><trkpt lat="44.72030294329871" lon="9.205319993817213"><ele>1463.4</ele><time>2026-05-01T14:41:11Z</time></trkpt><trkpt lat="44.72021552733271" lon="9.205428387589283"><ele>1460.6</ele><time>2026-05-01T14:41:13Z</time></trkpt><trkpt lat="44.72013841988705" lon="9.205526279046053"><ele>1457.8</ele><time>2026-05-01T14:41:15Z</time></trkpt><trkpt lat="44.72007037063031" lon="9.205623501437369"><ele>1455.0</ele><time>2026-05-01T14:41:17Z</time></trkpt><trkpt lat="44.72001307035934" lon="9.205736653040535"><ele>1452.4</ele><time>2026-05-01T14:41:19Z</time></trkpt><trkpt lat="44.71997802217218" lon="9.20589859094252"><ele>1449.8</ele><time>2026-05-01T14:41:21Z</time></trkpt><trkpt lat="44.719961577028954" lon="9.206054885363667"><ele>1447.1999999999998</ele><time>2026-05-01T14:41:23Z</time></trkpt><trkpt lat="44.71994953097469" lon="9.206188777885075"><ele>1444.6</ele><time>2026-05-01T14:41:25Z</time></trkpt><trkpt lat="44.71992203614828" lon="9.20630327881083"><ele>1442.0</ele><time>2026-05-01T14:41:27Z</time></trkpt><trkpt lat="44.719870280443345" lon="9.206407458403373"><ele>1442.0</ele><time>2026-05-01T14:41:29Z</time></trkpt><trkpt lat="44.71977996810856" lon="9.206483635779104"><ele>1442.0</ele><time>2026-05-01T14:41:31Z</time></trkpt><trkpt lat="44.71969439297918" lon="9.206574369656238"><ele>1442.0</ele><time>2026-05-01T14:41:33Z</time></trkpt><trkpt lat="44.719661315028816" lon="9.20665356962411"><ele>1442.0</ele><time>2026-05-01T14:41:34Z</time></trkpt><trkpt lat="44.71965131313247" lon="9.206748419018036"><ele>1442.0</ele><time>2026-05-01T14:41:35Z</time></trkpt><trkpt lat="44.71965038651468" lon="9.206837827970615"><ele>1442.0</ele><time>2026-05-01T14:41:36Z</time></trkpt><trkpt lat="44.71964802945999" lon="9.206936173518331"><ele>1439.8333333333335</ele><time>2026-05-01T14:41:37Z</time></trkpt><trkpt lat="44.719646561999646" lon="9.207034570380955"><ele>1437.6666666666667</ele><time>2026-05-01T14:41:38Z</time></trkpt><trkpt lat="44.71962721266109" lon="9.207171627669686"><ele>1435.5</ele><time>2026-05-01T14:41:40Z</time></trkpt><trkpt lat="44.71960751557218" lon="9.207261409810469"><ele>1433.3333333333333</ele><time>2026-05-01T14:41:41Z</time></trkpt><trkpt lat="44.71955932508073" lon="9.207390190815852"><ele>1431.1666666666665</ele><time>2026-05-01T14:41:43Z</time></trkpt><trkpt lat="44.71952605699807" lon="9.207471483410705"><ele>1429.0</ele><time>2026-05-01T14:41:44Z</time></trkpt><trkpt lat="44.71948096171789" lon="9.20756720989752"><ele>1426.6</ele><time>2026-05-01T14:41:45Z</time></trkpt><trkpt lat="44.71945911030091" lon="9.207726287398437"><ele>1424.2</ele><time>2026-05-01T14:41:47Z</time></trkpt><trkpt lat="44.71942739364753" lon="9.207856983022555"><ele>1421.8</ele><time>2026-05-01T14:41:49Z</time></trkpt><trkpt lat="44.71940855706573" lon="9.208016151615544"><ele>1419.3999999999999</ele><time>2026-05-01T14:41:51Z</time></trkpt><trkpt lat="44.71941141489498" lon="9.208113978175662"><ele>1417.0</ele><time>2026-05-01T14:41:52Z</time></trkpt><trkpt lat="44.719337989664034" lon="9.208254451005741"><ele>1417.0</ele><time>2026-05-01T14:41:54Z</time></trkpt><trkpt lat="44.71923415978307" lon="9.208333274573434"><ele>1417.0</ele><time>2026-05-01T14:41:56Z</time></trkpt><trkpt lat="44.71912863701357" lon="9.208405358436982"><ele>1417.0</ele><time>2026-05-01T14:41:58Z</time></trkpt><trkpt lat="44.71904202769188" lon="9.208445535782344"><ele>1417.0</ele><time>2026-05-01T14:42:00Z</time></trkpt><trkpt lat="44.718964670832314" lon="9.208443653882032"><ele>1417.0</ele><time>2026-05-01T14:42:01Z</time></trkpt><trkpt lat="44.718890198433876" lon="9.208432028329945"><ele>1417.0</ele><time>2026-05-01T14:42:02Z</time></trkpt><trkpt lat="44.71880392637557" lon="9.208401790289798"><ele>1417.0</ele><time>2026-05-01T14:42:03Z</time></trkpt><trkpt lat="44.718729183778514" lon="9.208362539095296"><ele>1417.0</ele><time>2026-05-01T14:42:04Z</time></trkpt><trkpt lat="44.718657636644124" lon="9.208331968040653"><ele>1417.0</ele><time>2026-05-01T14:42:05Z</time></trkpt><trkpt lat="44.71858958052794" lon="9.208301323885335"><ele>1417.0</ele><time>2026-05-01T14:42:06Z</time></trkpt><trkpt lat="44.718530691047725" lon="9.208268269579117"><ele>1417.0</ele><time>2026-05-01T14:42:07Z</time></trkpt><trkpt lat="44.71845703342352" lon="9.208250101442525"><ele>1418.3999999999999</ele><time>2026-05-01T14:42:08Z</time></trkpt><trkpt lat="44.71839544962989" lon="9.208182774000212"><ele>1419.8</ele><time>2026-05-01T14:42:09Z</time></trkpt><trkpt lat="44.71827090510583" lon="9.20812835323894"><ele>1421.2</ele><time>2026-05-01T14:42:11Z</time></trkpt><trkpt lat="44.71819540761172" lon="9.208116852866924"><ele>1422.6</ele><time>2026-05-01T14:42:12Z</time></trkpt><trkpt lat="44.718127064620845" lon="9.208117218801691"><ele>1424.0</ele><time>2026-05-01T14:42:13Z</time></trkpt><trkpt lat="44.71801565692658" lon="9.208146506127314"><ele>1424.0</ele><time>2026-05-01T14:42:15Z</time></trkpt><trkpt lat="44.71789480870043" lon="9.208151087376235"><ele>1424.0</ele><time>2026-05-01T14:42:17Z</time></trkpt><trkpt lat="44.717810462566355" lon="9.208162145062468"><ele>1424.0</ele><time>2026-05-01T14:42:18Z</time></trkpt><trkpt lat="44.71774398717549" lon="9.208164054927664"><ele>1424.0</ele><time>2026-05-01T14:42:19Z</time></trkpt><trkpt lat="44.71763920692181" lon="9.208112274345547"><ele>1424.0</ele><time>2026-05-01T14:42:21Z</time></trkpt><trkpt lat="44.71751101637748" lon="9.208047242191343"><ele>1422.6</ele><time>2026-05-01T14:42:22.999Z</time></trkpt><trkpt lat="44.71740512880784" lon="9.208042497927005"><ele>1421.2</ele><time>2026-05-01T14:42:24.999Z</time></trkpt><trkpt lat="44.71729207109329" lon="9.208079097307392"><ele>1419.8</ele><time>2026-05-01T14:42:26.999Z</time></trkpt><trkpt lat="44.717201696439176" lon="9.208147773935655"><ele>1418.3999999999999</ele><time>2026-05-01T14:42:28.999Z</time></trkpt><trkpt lat="44.71714139577141" lon="9.208240739996484"><ele>1417.0</ele><time>2026-05-01T14:42:30.999Z</time></trkpt><trkpt lat="44.71711660169099" lon="9.208399655948346"><ele>1414.5</ele><time>2026-05-01T14:42:32.999Z</time></trkpt><trkpt lat="44.71712450050823" lon="9.208543784379435"><ele>1412.0</ele><time>2026-05-01T14:42:34.999Z</time></trkpt><trkpt lat="44.71708816191535" lon="9.208626469996783"><ele>1409.5</ele><time>2026-05-01T14:42:36.999Z</time></trkpt><trkpt lat="44.71701118095098" lon="9.208610480780086"><ele>1407.0</ele><time>2026-05-01T14:42:38.999Z</time></trkpt><trkpt lat="44.71694017707242" lon="9.2085357144434"><ele>1404.5</ele><time>2026-05-01T14:42:40.999Z</time></trkpt><trkpt lat="44.716886405588525" lon="9.208440748109128"><ele>1402.0</ele><time>2026-05-01T14:42:42.999Z</time></trkpt><trkpt lat="44.71683197688214" lon="9.208320441405588"><ele>1402.8333333333333</ele><time>2026-05-01T14:42:44.999Z</time></trkpt><trkpt lat="44.716750579987796" lon="9.208233925410603"><ele>1403.6666666666665</ele><time>2026-05-01T14:42:46.999Z</time></trkpt><trkpt lat="44.716683643445926" lon="9.20820547161733"><ele>1404.5</ele><time>2026-05-01T14:42:47.999Z</time></trkpt><trkpt lat="44.71657538376235" lon="9.208260779383162"><ele>1405.3333333333333</ele><time>2026-05-01T14:42:49.999Z</time></trkpt><trkpt lat="44.71650401474879" lon="9.208237509734154"><ele>1406.1666666666667</ele><time>2026-05-01T14:42:50.999Z</time></trkpt><trkpt lat="44.71643200811616" lon="9.208225171031835"><ele>1407.0</ele><time>2026-05-01T14:42:52.999Z</time></trkpt><trkpt lat="44.71634067125507" lon="9.208145539122345"><ele>1407.0</ele><time>2026-05-01T14:42:54.999Z</time></trkpt><trkpt lat="44.71625772251583" lon="9.208040798749485"><ele>1407.0</ele><time>2026-05-01T14:42:56.999Z</time></trkpt><trkpt lat="44.716149310072254" lon="9.207976326520486"><ele>1407.0</ele><time>2026-05-01T14:42:58.999Z</time></trkpt><trkpt lat="44.71608381101337" lon="9.20798400752741"><ele>1407.0</ele><time>2026-05-01T14:42:59.999Z</time></trkpt><trkpt lat="44.716016307960096" lon="9.208029272295848"><ele>1407.0</ele><time>2026-05-01T14:43:00.999Z</time></trkpt><trkpt lat="44.715935008861" lon="9.2080997210103"><ele>1405.0</ele><time>2026-05-01T14:43:02.999Z</time></trkpt><trkpt lat="44.71585214529984" lon="9.208145633345005"><ele>1403.0</ele><time>2026-05-01T14:43:03.999Z</time></trkpt><trkpt lat="44.71577873555729" lon="9.208190542310637"><ele>1401.0</ele><time>2026-05-01T14:43:04.999Z</time></trkpt><trkpt lat="44.715663532062415" lon="9.2082606829987"><ele>1399.0</ele><time>2026-05-01T14:43:06.999Z</time></trkpt><trkpt lat="44.71556093389533" lon="9.208317664280349"><ele>1397.0</ele><time>2026-05-01T14:43:08.999Z</time></trkpt><trkpt lat="44.71551683034838" lon="9.208405223065716"><ele>1398.25</ele><time>2026-05-01T14:43:10.999Z</time></trkpt><trkpt lat="44.715460954934315" lon="9.208478888231808"><ele>1399.5</ele><time>2026-05-01T14:43:19.999Z</time></trkpt><trkpt lat="44.71525876114486" lon="9.20822887330445"><ele>1400.75</ele><time>2026-05-01T14:43:22.999Z</time></trkpt><trkpt lat="44.71518143855466" lon="9.208166165008661"><ele>1402.0</ele><time>2026-05-01T14:43:23.999Z</time></trkpt><trkpt lat="44.715099676169814" lon="9.208079900257253"><ele>1402.0</ele><time>2026-05-01T14:43:25Z</time></trkpt><trkpt lat="44.715007014709535" lon="9.208013545420142"><ele>1402.0</ele><time>2026-05-01T14:43:25.999Z</time></trkpt><trkpt lat="44.71491116564358" lon="9.207963396647513"><ele>1402.0</ele><time>2026-05-01T14:43:26.999Z</time></trkpt><trkpt lat="44.71482773497293" lon="9.207940737484359"><ele>1402.0</ele><time>2026-05-01T14:43:27.999Z</time></trkpt><trkpt lat="44.71472999459734" lon="9.20793773524716"><ele>1402.0</ele><time>2026-05-01T14:43:29Z</time></trkpt><trkpt lat="44.714622243009465" lon="9.207965512343899"><ele>1402.0</ele><time>2026-05-01T14:43:30Z</time></trkpt><trkpt lat="44.71451674242764" lon="9.208000712834943"><ele>1402.0</ele><time>2026-05-01T14:43:31Z</time></trkpt><trkpt lat="44.714403998339925" lon="9.208044881456884"><ele>1402.0</ele><time>2026-05-01T14:43:32Z</time></trkpt><trkpt lat="44.71429280985982" lon="9.2080792632019"><ele>1402.0</ele><time>2026-05-01T14:43:33Z</time></trkpt><trkpt lat="44.71418116379738" lon="9.20810648103648"><ele>1404.3999999999999</ele><time>2026-05-01T14:43:34Z</time></trkpt><trkpt lat="44.71407374072834" lon="9.208125156976942"><ele>1406.8</ele><time>2026-05-01T14:43:35Z</time></trkpt><trkpt lat="44.71397861548284" lon="9.20814571366469"><ele>1409.2</ele><time>2026-05-01T14:43:36Z</time></trkpt><trkpt lat="44.71389495466379" lon="9.20819263956736"><ele>1411.6</ele><time>2026-05-01T14:43:37Z</time></trkpt><trkpt lat="44.71381435515339" lon="9.208279781901547"><ele>1414.0</ele><time>2026-05-01T14:43:38Z</time></trkpt><trkpt lat="44.71374877060114" lon="9.208398457503295"><ele>1409.75</ele><time>2026-05-01T14:43:39Z</time></trkpt><trkpt lat="44.71366924066451" lon="9.208512487327752"><ele>1405.5</ele><time>2026-05-01T14:43:40Z</time></trkpt><trkpt lat="44.713567876844856" lon="9.208591040338566"><ele>1401.25</ele><time>2026-05-01T14:43:41Z</time></trkpt><trkpt lat="44.71346014788304" lon="9.20866850088036"><ele>1397.0</ele><time>2026-05-01T14:43:42Z</time></trkpt><trkpt lat="44.71336412846766" lon="9.208741000644238"><ele>1397.0</ele><time>2026-05-01T14:43:43Z</time></trkpt><trkpt lat="44.71329538127754" lon="9.208814264194642"><ele>1397.0</ele><time>2026-05-01T14:43:44Z</time></trkpt><trkpt lat="44.71323195711356" lon="9.208909129380515"><ele>1397.0</ele><time>2026-05-01T14:43:45Z</time></trkpt><trkpt lat="44.71317416504395" lon="9.209053790065528"><ele>1397.0</ele><time>2026-05-01T14:43:46Z</time></trkpt><trkpt lat="44.71314430318823" lon="9.209203445826809"><ele>1397.0</ele><time>2026-05-01T14:43:47Z</time></trkpt><trkpt lat="44.713121287782414" lon="9.209346595065345"><ele>1397.1999999999998</ele><time>2026-05-01T14:43:48Z</time></trkpt><trkpt lat="44.7130249894055" lon="9.20949984146563"><ele>1397.4</ele><time>2026-05-01T14:43:50Z</time></trkpt><trkpt lat="44.71294488914928" lon="9.209524633155384"><ele>1397.6</ele><time>2026-05-01T14:43:51Z</time></trkpt><trkpt lat="44.71284508852384" lon="9.209560930354064"><ele>1397.8000000000002</ele><time>2026-05-01T14:43:52Z</time></trkpt><trkpt lat="44.712748800791296" lon="9.209592694951011"><ele>1398.0</ele><time>2026-05-01T14:43:53Z</time></trkpt><trkpt lat="44.712620601250784" lon="9.209621830058767"><ele>1398.0</ele><time>2026-05-01T14:43:54Z</time></trkpt><trkpt lat="44.712453188558214" lon="9.20958255886242"><ele>1398.0</ele><time>2026-05-01T14:43:55Z</time></trkpt><trkpt lat="44.71230473646351" lon="9.20957397691754"><ele>1398.0</ele><time>2026-05-01T14:43:56Z</time></trkpt><trkpt lat="44.712156810408295" lon="9.209587292940776"><ele>1398.0</ele><time>2026-05-01T14:43:57Z</time></trkpt><trkpt lat="44.71201875635651" lon="9.209604701577863"><ele>1398.0</ele><time>2026-05-01T14:43:58Z</time></trkpt><trkpt lat="44.71188690039754" lon="9.209596343073564"><ele>1398.0</ele><time>2026-05-01T14:43:59Z</time></trkpt><trkpt lat="44.71176124743243" lon="9.209570622426588"><ele>1398.0</ele><time>2026-05-01T14:44:00Z</time></trkpt><trkpt lat="44.71161401913463" lon="9.2095032687714"><ele>1397.5</ele><time>2026-05-01T14:44:01Z</time></trkpt><trkpt lat="44.711484850663524" lon="9.20940835068135"><ele>1397.0</ele><time>2026-05-01T14:44:02Z</time></trkpt><trkpt lat="44.71137777809293" lon="9.209311867360057"><ele>1396.5</ele><time>2026-05-01T14:44:03Z</time></trkpt><trkpt lat="44.71126248415406" lon="9.209264649304728"><ele>1396.0</ele><time>2026-05-01T14:44:04Z</time></trkpt><trkpt lat="44.71115115003729" lon="9.209246506122152"><ele>1394.25</ele><time>2026-05-01T14:44:05Z</time></trkpt><trkpt lat="44.71102563391962" lon="9.20927417169772"><ele>1392.5</ele><time>2026-05-01T14:44:06Z</time></trkpt><trkpt lat="44.71089335946936" lon="9.209308705310805"><ele>1390.75</ele><time>2026-05-01T14:44:07Z</time></trkpt><trkpt lat="44.71075861536487" lon="9.20937288686018"><ele>1389.0</ele><time>2026-05-01T14:44:08Z</time></trkpt><trkpt lat="44.710642245279786" lon="9.209404759771534"><ele>1389.0</ele><time>2026-05-01T14:44:09Z</time></trkpt><trkpt lat="44.71052320526449" lon="9.209409223666713"><ele>1389.0</ele><time>2026-05-01T14:44:10Z</time></trkpt><trkpt lat="44.71039101398489" lon="9.209409142228736"><ele>1389.0</ele><time>2026-05-01T14:44:11Z</time></trkpt><trkpt lat="44.71024981518265" lon="9.20939589233087"><ele>1389.0</ele><time>2026-05-01T14:44:12Z</time></trkpt><trkpt lat="44.710108447067874" lon="9.209372627199397"><ele>1387.6666666666667</ele><time>2026-05-01T14:44:13Z</time></trkpt><trkpt lat="44.709963058389825" lon="9.209328054724086"><ele>1386.3333333333335</ele><time>2026-05-01T14:44:14Z</time></trkpt><trkpt lat="44.70979787225542" lon="9.209278947406586"><ele>1385.0</ele><time>2026-05-01T14:44:15Z</time></trkpt><trkpt lat="44.70964071026612" lon="9.209226717322764"><ele>1385.0</ele><time>2026-05-01T14:44:16Z</time></trkpt><trkpt lat="44.70949680917697" lon="9.20918176370172"><ele>1385.0</ele><time>2026-05-01T14:44:17Z</time></trkpt><trkpt lat="44.70936010022671" lon="9.209128632490822"><ele>1385.0</ele><time>2026-05-01T14:44:18Z</time></trkpt><trkpt lat="44.709238700663136" lon="9.209059145804039"><ele>1385.0</ele><time>2026-05-01T14:44:19Z</time></trkpt><trkpt lat="44.70912387816928" lon="9.209008872842194"><ele>1384.0</ele><time>2026-05-01T14:44:20Z</time></trkpt><trkpt lat="44.709002329226415" lon="9.209003540274566"><ele>1383.0</ele><time>2026-05-01T14:44:21Z</time></trkpt><trkpt lat="44.70886861546079" lon="9.209040066811843"><ele>1382.0</ele><time>2026-05-01T14:44:22Z</time></trkpt><trkpt lat="44.708738233021144" lon="9.209089489504583"><ele>1381.0</ele><time>2026-05-01T14:44:23Z</time></trkpt><trkpt lat="44.70860438978081" lon="9.20913125414778"><ele>1383.25</ele><time>2026-05-01T14:44:24Z</time></trkpt><trkpt lat="44.70847787554334" lon="9.209137451824263"><ele>1385.5</ele><time>2026-05-01T14:44:25Z</time></trkpt><trkpt lat="44.708343949892694" lon="9.209148210848912"><ele>1387.75</ele><time>2026-05-01T14:44:26Z</time></trkpt><trkpt lat="44.70822823860652" lon="9.20920312427156"><ele>1390.0</ele><time>2026-05-01T14:44:27Z</time></trkpt><trkpt lat="44.708108788490705" lon="9.209274354619335"><ele>1390.0</ele><time>2026-05-01T14:44:28Z</time></trkpt><trkpt lat="44.707984764815514" lon="9.209380500167716"><ele>1390.0</ele><time>2026-05-01T14:44:28.998Z</time></trkpt><trkpt lat="44.70786190324543" lon="9.209496258109509"><ele>1390.0</ele><time>2026-05-01T14:44:29.998Z</time></trkpt><trkpt lat="44.7077439432209" lon="9.209612796071903"><ele>1390.0</ele><time>2026-05-01T14:44:30.998Z</time></trkpt><trkpt lat="44.707600942735965" lon="9.209712348333237"><ele>1388.0</ele><time>2026-05-01T14:44:31.998Z</time></trkpt><trkpt lat="44.70748974753326" lon="9.209802233637014"><ele>1386.0</ele><time>2026-05-01T14:44:32.998Z</time></trkpt><trkpt lat="44.7073994110773" lon="9.209913465209844"><ele>1384.0</ele><time>2026-05-01T14:44:33.998Z</time></trkpt><trkpt lat="44.70731015119428" lon="9.210076963078901"><ele>1382.0</ele><time>2026-05-01T14:44:34.998Z</time></trkpt><trkpt lat="44.707222781013265" lon="9.210248739793464"><ele>1382.0</ele><time>2026-05-01T14:44:35.998Z</time></trkpt><trkpt lat="44.707128529706225" lon="9.21040443832981"><ele>1382.0</ele><time>2026-05-01T14:44:36.998Z</time></trkpt><trkpt lat="44.707013749068146" lon="9.210552653888188"><ele>1382.0</ele><time>2026-05-01T14:44:37.998Z</time></trkpt><trkpt lat="44.70690850475277" lon="9.210678794724041"><ele>1382.0</ele><time>2026-05-01T14:44:38.998Z</time></trkpt><trkpt lat="44.70681066024959" lon="9.210791514708488"><ele>1383.1999999999998</ele><time>2026-05-01T14:44:39.998Z</time></trkpt><trkpt lat="44.706721799618094" lon="9.210878131437253"><ele>1384.4</ele><time>2026-05-01T14:44:40.998Z</time></trkpt><trkpt lat="44.70663761323798" lon="9.210931134863433"><ele>1385.6</ele><time>2026-05-01T14:44:41.999Z</time></trkpt><trkpt lat="44.706530205196316" lon="9.210957363799434"><ele>1386.8000000000002</ele><time>2026-05-01T14:44:42.999Z</time></trkpt><trkpt lat="44.70641591835713" lon="9.210942234862305"><ele>1388.0</ele><time>2026-05-01T14:44:43.999Z</time></trkpt><trkpt lat="44.70628985829324" lon="9.21090341403354"><ele>1388.0</ele><time>2026-05-01T14:44:44.999Z</time></trkpt><trkpt lat="44.706159747880925" lon="9.210830687024519"><ele>1388.0</ele><time>2026-05-01T14:44:45.999Z</time></trkpt><trkpt lat="44.706016505808094" lon="9.210746398994212"><ele>1388.0</ele><time>2026-05-01T14:44:46.999Z</time></trkpt><trkpt lat="44.70586136083818" lon="9.210671222526237"><ele>1399.75</ele><time>2026-05-01T14:44:47.999Z</time></trkpt><trkpt lat="44.70577090163846" lon="9.210627715758738"><ele>1411.5</ele><time>2026-05-01T14:44:48.999Z</time></trkpt><trkpt lat="44.70564590752794" lon="9.210578627903189"><ele>1423.25</ele><time>2026-05-01T14:44:49.999Z</time></trkpt><trkpt lat="44.70551477076432" lon="9.210579624097624"><ele>1435.0</ele><time>2026-05-01T14:44:50.999Z</time></trkpt><trkpt lat="44.70536593769748" lon="9.210568763503295"><ele>1440.6666666666665</ele><time>2026-05-01T14:44:51.999Z</time></trkpt><trkpt lat="44.70520410750258" lon="9.21058556022598"><ele>1446.3333333333333</ele><time>2026-05-01T14:44:52.999Z</time></trkpt><trkpt lat="44.705036144032086" lon="9.21066396826493"><ele>1452.0</ele><time>2026-05-01T14:44:53.999Z</time></trkpt><trkpt lat="44.704864720276554" lon="9.210763162741904"><ele>1438.0</ele><time>2026-05-01T14:44:54.999Z</time></trkpt><trkpt lat="44.70470107781714" lon="9.210919984952332"><ele>1424.0</ele><time>2026-05-01T14:44:55.999Z</time></trkpt><trkpt lat="44.70458342827994" lon="9.211072102967975"><ele>1410.0</ele><time>2026-05-01T14:44:56.999Z</time></trkpt><trkpt lat="44.70447775533935" lon="9.2112541519251"><ele>1410.5</ele><time>2026-05-01T14:44:57.999Z</time></trkpt><trkpt lat="44.704376661566556" lon="9.211356594258799"><ele>1411.0</ele><time>2026-05-01T14:44:58.999Z</time></trkpt><trkpt lat="44.70432126576548" lon="9.211440246664639"><ele>1411.5</ele><time>2026-05-01T14:44:59.999Z</time></trkpt><trkpt lat="44.704210976786435" lon="9.211536179881792"><ele>1412.0</ele><time>2026-05-01T14:45:00.999Z</time></trkpt><trkpt lat="44.70412886904943" lon="9.211688644992872"><ele>1412.0</ele><time>2026-05-01T14:45:01.999Z</time></trkpt><trkpt lat="44.704086213698936" lon="9.211832025940973"><ele>1412.0</ele><time>2026-05-01T14:45:02.999Z</time></trkpt><trkpt lat="44.70405744758695" lon="9.212019437612902"><ele>1412.0</ele><time>2026-05-01T14:45:03.999Z</time></trkpt><trkpt lat="44.70401324604025" lon="9.212171977795245"><ele>1412.0</ele><time>2026-05-01T14:45:04.999Z</time></trkpt><trkpt lat="44.70392130133254" lon="9.2123228197527"><ele>1406.5</ele><time>2026-05-01T14:45:05.999Z</time></trkpt><trkpt lat="44.70387164361845" lon="9.212498075129124"><ele>1401.0</ele><time>2026-05-01T14:45:06.999Z</time></trkpt><trkpt lat="44.70383588859821" lon="9.212686227907069"><ele>1395.5</ele><time>2026-05-01T14:45:07.999Z</time></trkpt><trkpt lat="44.703759806511435" lon="9.212872065546732"><ele>1390.0</ele><time>2026-05-01T14:45:08.999Z</time></trkpt><trkpt lat="44.703678578695666" lon="9.213045634247404"><ele>1385.0</ele><time>2026-05-01T14:45:09.999Z</time></trkpt><trkpt lat="44.70360048549445" lon="9.213211211086461"><ele>1380.0</ele><time>2026-05-01T14:45:10.999Z</time></trkpt><trkpt lat="44.70353384604427" lon="9.21340735094818"><ele>1375.0</ele><time>2026-05-01T14:45:11.999Z</time></trkpt><trkpt lat="44.703472394269006" lon="9.213633973639128"><ele>1388.6666666666665</ele><time>2026-05-01T14:45:13Z</time></trkpt><trkpt lat="44.7034069131825" lon="9.213865769273418"><ele>1402.3333333333333</ele><time>2026-05-01T14:45:14Z</time></trkpt><trkpt lat="44.703352105772794" lon="9.214076984974156"><ele>1416.0</ele><time>2026-05-01T14:45:15Z</time></trkpt><trkpt lat="44.70330012645805" lon="9.214302509301847"><ele>1416.0</ele><time>2026-05-01T14:45:16Z</time></trkpt><trkpt lat="44.70323593696894" lon="9.214519849698664"><ele>1416.0</ele><time>2026-05-01T14:45:17Z</time></trkpt><trkpt lat="44.70318355467043" lon="9.214730106101632"><ele>1416.0</ele><time>2026-05-01T14:45:18Z</time></trkpt><trkpt lat="44.703137495097806" lon="9.21491571366203"><ele>1414.1999999999998</ele><time>2026-05-01T14:45:19Z</time></trkpt><trkpt lat="44.703091924588726" lon="9.215084774356077"><ele>1412.3999999999999</ele><time>2026-05-01T14:45:20Z</time></trkpt><trkpt lat="44.70303204506" lon="9.215246486916548"><ele>1410.6</ele><time>2026-05-01T14:45:21Z</time></trkpt><trkpt lat="44.702980096137836" lon="9.215363990309346"><ele>1408.8</ele><time>2026-05-01T14:45:22Z</time></trkpt><trkpt lat="44.7029134824746" lon="9.21544461447973"><ele>1407.0</ele><time>2026-05-01T14:45:23Z</time></trkpt><trkpt lat="44.7028439237063" lon="9.215495796083976"><ele>1407.0</ele><time>2026-05-01T14:45:24Z</time></trkpt><trkpt lat="44.702762194893474" lon="9.215499470316155"><ele>1407.0</ele><time>2026-05-01T14:45:25Z</time></trkpt><trkpt lat="44.70266497838775" lon="9.21547509643123"><ele>1407.0</ele><time>2026-05-01T14:45:26Z</time></trkpt><trkpt lat="44.70256496610595" lon="9.21542592429388"><ele>1407.0</ele><time>2026-05-01T14:45:27Z</time></trkpt><trkpt lat="44.70248385732997" lon="9.215362342155807"><ele>1407.0</ele><time>2026-05-01T14:45:28Z</time></trkpt><trkpt lat="44.70239158059291" lon="9.215260045933704"><ele>1411.0</ele><time>2026-05-01T14:45:30Z</time></trkpt><trkpt lat="44.70235209090062" lon="9.215138481864113"><ele>1415.0</ele><time>2026-05-01T14:45:31Z</time></trkpt><trkpt lat="44.70235271009579" lon="9.214965688671532"><ele>1419.0</ele><time>2026-05-01T14:45:32Z</time></trkpt><trkpt lat="44.702332766968" lon="9.214808489168028"><ele>1423.0</ele><time>2026-05-01T14:45:33Z</time></trkpt><trkpt lat="44.70229781840681" lon="9.21465173554664"><ele>1427.0</ele><time>2026-05-01T14:45:34Z</time></trkpt><trkpt lat="44.702272831269354" lon="9.214473672062455"><ele>1430.0</ele><time>2026-05-01T14:45:35Z</time></trkpt><trkpt lat="44.70221835369488" lon="9.214320333196719"><ele>1433.0</ele><time>2026-05-01T14:45:36Z</time></trkpt><trkpt lat="44.70215493478875" lon="9.214190425975698"><ele>1436.0</ele><time>2026-05-01T14:45:37Z</time></trkpt><trkpt lat="44.70207986013622" lon="9.214070016582635"><ele>1439.0</ele><time>2026-05-01T14:45:38Z</time></trkpt><trkpt lat="44.70199140492167" lon="9.213991755830387"><ele>1437.75</ele><time>2026-05-01T14:45:39Z</time></trkpt><trkpt lat="44.70188836574348" lon="9.213933085125772"><ele>1436.5</ele><time>2026-05-01T14:45:40Z</time></trkpt><trkpt lat="44.701781145018195" lon="9.213864297863932"><ele>1435.25</ele><time>2026-05-01T14:45:41Z</time></trkpt><trkpt lat="44.70169407542134" lon="9.2137762987338"><ele>1434.0</ele><time>2026-05-01T14:45:42Z</time></trkpt><trkpt lat="44.70160556664125" lon="9.213660040075276"><ele>1434.0</ele><time>2026-05-01T14:45:43Z</time></trkpt><trkpt lat="44.701532864495654" lon="9.213497567913334"><ele>1434.0</ele><time>2026-05-01T14:45:44Z</time></trkpt><trkpt lat="44.70145747703237" lon="9.21333454857712"><ele>1434.0</ele><time>2026-05-01T14:45:45Z</time></trkpt><trkpt lat="44.70138141477586" lon="9.213173226077343"><ele>1434.0</ele><time>2026-05-01T14:45:46Z</time></trkpt><trkpt lat="44.70130517993528" lon="9.21297358234949"><ele>1436.6666666666667</ele><time>2026-05-01T14:45:47Z</time></trkpt><trkpt lat="44.70123426493424" lon="9.212756488463308"><ele>1439.3333333333335</ele><time>2026-05-01T14:45:48Z</time></trkpt><trkpt lat="44.70117574656549" lon="9.212543757881978"><ele>1442.0</ele><time>2026-05-01T14:45:49Z</time></trkpt><trkpt lat="44.70113887803974" lon="9.21234592503811"><ele>1440.25</ele><time>2026-05-01T14:45:50Z</time></trkpt><trkpt lat="44.7011143151729" lon="9.21215927197565"><ele>1438.5</ele><time>2026-05-01T14:45:51Z</time></trkpt><trkpt lat="44.7010753477617" lon="9.212003114365611"><ele>1436.75</ele><time>2026-05-01T14:45:52Z</time></trkpt><trkpt lat="44.70101977150325" lon="9.2118554347625"><ele>1435.0</ele><time>2026-05-01T14:45:53Z</time></trkpt><trkpt lat="44.70095489918559" lon="9.211709328991594"><ele>1435.0</ele><time>2026-05-01T14:45:54Z</time></trkpt><trkpt lat="44.7008996907873" lon="9.21157321787979"><ele>1435.0</ele><time>2026-05-01T14:45:55Z</time></trkpt><trkpt lat="44.700869793870936" lon="9.211442186479575"><ele>1435.0</ele><time>2026-05-01T14:45:56Z</time></trkpt><trkpt lat="44.70087615754782" lon="9.211299851231823"><ele>1435.0</ele><time>2026-05-01T14:45:57Z</time></trkpt><trkpt lat="44.70087324605758" lon="9.211164975775691"><ele>1435.0</ele><time>2026-05-01T14:45:58Z</time></trkpt><trkpt lat="44.70084696274484" lon="9.211059178052988"><ele>1437.6</ele><time>2026-05-01T14:45:59Z</time></trkpt><trkpt lat="44.70078488992261" lon="9.210994400644127"><ele>1440.2</ele><time>2026-05-01T14:46:00Z</time></trkpt><trkpt lat="44.70070931329614" lon="9.210961335059684"><ele>1442.8000000000002</ele><time>2026-05-01T14:46:01Z</time></trkpt><trkpt lat="44.70061785425564" lon="9.210962889812144"><ele>1445.4</ele><time>2026-05-01T14:46:02Z</time></trkpt><trkpt lat="44.70050173979666" lon="9.210967565583694"><ele>1448.0</ele><time>2026-05-01T14:46:03Z</time></trkpt><trkpt lat="44.70038196478995" lon="9.210919315460147"><ele>1448.0</ele><time>2026-05-01T14:46:04Z</time></trkpt><trkpt lat="44.700273345292906" lon="9.210836476715297"><ele>1448.0</ele><time>2026-05-01T14:46:05Z</time></trkpt><trkpt lat="44.70013716173221" lon="9.210801431977227"><ele>1448.0</ele><time>2026-05-01T14:46:06Z</time></trkpt><trkpt lat="44.6999893666979" lon="9.210789610175311"><ele>1448.0</ele><time>2026-05-01T14:46:07Z</time></trkpt><trkpt lat="44.69984137737112" lon="9.21081591202299"><ele>1448.2</ele><time>2026-05-01T14:46:08Z</time></trkpt><trkpt lat="44.69971073866491" lon="9.210828904129384"><ele>1448.4</ele><time>2026-05-01T14:46:09Z</time></trkpt><trkpt lat="44.69959374150296" lon="9.210788541706874"><ele>1448.6000000000001</ele><time>2026-05-01T14:46:10Z</time></trkpt><trkpt lat="44.69951364687201" lon="9.210723396006433"><ele>1448.8000000000002</ele><time>2026-05-01T14:46:11Z</time></trkpt><trkpt lat="44.69944734357063" lon="9.210622093898811"><ele>1449.0</ele><time>2026-05-01T14:46:12Z</time></trkpt><trkpt lat="44.699380849064376" lon="9.21043524273621"><ele>1450.6666666666667</ele><time>2026-05-01T14:46:13Z</time></trkpt><trkpt lat="44.69929519274358" lon="9.210262007828668"><ele>1452.3333333333335</ele><time>2026-05-01T14:46:14Z</time></trkpt><trkpt lat="44.69918167208308" lon="9.210114402946148"><ele>1454.0</ele><time>2026-05-01T14:46:15Z</time></trkpt><trkpt lat="44.699054004149765" lon="9.209985849963003"><ele>1454.0</ele><time>2026-05-01T14:46:16Z</time></trkpt><trkpt lat="44.69892561419823" lon="9.209887303710223"><ele>1454.0</ele><time>2026-05-01T14:46:17Z</time></trkpt><trkpt lat="44.6987920805596" lon="9.209783424996578"><ele>1454.0</ele><time>2026-05-01T14:46:18Z</time></trkpt><trkpt lat="44.6986620025963" lon="9.209675223945863"><ele>1456.0</ele><time>2026-05-01T14:46:19Z</time></trkpt><trkpt lat="44.69853896169284" lon="9.209574876233402"><ele>1458.0</ele><time>2026-05-01T14:46:20Z</time></trkpt><trkpt lat="44.6984216403597" lon="9.209479103199245"><ele>1460.0</ele><time>2026-05-01T14:46:21Z</time></trkpt><trkpt lat="44.69830750031054" lon="9.209403526787053"><ele>1462.0</ele><time>2026-05-01T14:46:22Z</time></trkpt><trkpt lat="44.69819735246866" lon="9.209328424588946"><ele>1462.0</ele><time>2026-05-01T14:46:23Z</time></trkpt><trkpt lat="44.69809242146159" lon="9.209227199486154"><ele>1462.0</ele><time>2026-05-01T14:46:24Z</time></trkpt><trkpt lat="44.69801866599092" lon="9.209098612377051"><ele>1462.0</ele><time>2026-05-01T14:46:25Z</time></trkpt><trkpt lat="44.697966820654614" lon="9.208947686661583"><ele>1462.0</ele><time>2026-05-01T14:46:26Z</time></trkpt><trkpt lat="44.69791058496398" lon="9.208806100858551"><ele>1464.6</ele><time>2026-05-01T14:46:27Z</time></trkpt><trkpt lat="44.69784393037911" lon="9.208697565392704"><ele>1467.1999999999998</ele><time>2026-05-01T14:46:28Z</time></trkpt><trkpt lat="44.69775656407754" lon="9.208630646108611"><ele>1469.8</ele><time>2026-05-01T14:46:29Z</time></trkpt><trkpt lat="44.69764817352847" lon="9.208628199773095"><ele>1472.4</ele><time>2026-05-01T14:46:30Z</time></trkpt><trkpt lat="44.69752457457889" lon="9.208651647859806"><ele>1475.0</ele><time>2026-05-01T14:46:31Z</time></trkpt><trkpt lat="44.69738586434821" lon="9.208694959423719"><ele>1475.0</ele><time>2026-05-01T14:46:32Z</time></trkpt><trkpt lat="44.69729351523246" lon="9.208679644960947"><ele>1475.0</ele><time>2026-05-01T14:46:33Z</time></trkpt><trkpt lat="44.69717299440963" lon="9.208661908326818"><ele>1475.0</ele><time>2026-05-01T14:46:34Z</time></trkpt><trkpt lat="44.69704478242228" lon="9.208641465107997"><ele>1475.0</ele><time>2026-05-01T14:46:34.999Z</time></trkpt><trkpt lat="44.69692371030776" lon="9.208587944446103"><ele>1471.6666666666667</ele><time>2026-05-01T14:46:35.999Z</time></trkpt><trkpt lat="44.696782814389415" lon="9.208493587206055"><ele>1468.3333333333333</ele><time>2026-05-01T14:46:36.999Z</time></trkpt><trkpt lat="44.69663281683268" lon="9.20836891767278"><ele>1465.0</ele><time>2026-05-01T14:46:37.999Z</time></trkpt><trkpt lat="44.69648000025236" lon="9.208208105692112"><ele>1467.0</ele><time>2026-05-01T14:46:38.999Z</time></trkpt><trkpt lat="44.69631031481072" lon="9.208071821459784"><ele>1469.0</ele><time>2026-05-01T14:46:39.999Z</time></trkpt><trkpt lat="44.696141223278836" lon="9.207947232810408"><ele>1471.0</ele><time>2026-05-01T14:46:40.999Z</time></trkpt><trkpt lat="44.695968001034416" lon="9.20780869524719"><ele>1471.0</ele><time>2026-05-01T14:46:41.999Z</time></trkpt><trkpt lat="44.69579712072111" lon="9.207671798380407"><ele>1471.0</ele><time>2026-05-01T14:46:42.999Z</time></trkpt><trkpt lat="44.695644301008706" lon="9.207539392646693"><ele>1471.0</ele><time>2026-05-01T14:46:43.999Z</time></trkpt><trkpt lat="44.695501027086976" lon="9.207406257076045"><ele>1474.3333333333333</ele><time>2026-05-01T14:46:44.999Z</time></trkpt><trkpt lat="44.6953607384905" lon="9.20729419375112"><ele>1477.6666666666667</ele><time>2026-05-01T14:46:45.999Z</time></trkpt><trkpt lat="44.69522312271305" lon="9.207189676639329"><ele>1481.0</ele><time>2026-05-01T14:46:46.999Z</time></trkpt><trkpt lat="44.695091739012206" lon="9.207101762493396"><ele>1481.0</ele><time>2026-05-01T14:46:47.999Z</time></trkpt><trkpt lat="44.69495650628971" lon="9.207031694352406"><ele>1481.0</ele><time>2026-05-01T14:46:48.999Z</time></trkpt><trkpt lat="44.69481866150179" lon="9.206996534289186"><ele>1481.0</ele><time>2026-05-01T14:46:49.999Z</time></trkpt><trkpt lat="44.694678321887125" lon="9.206972214735163"><ele>1481.0</ele><time>2026-05-01T14:46:50.999Z</time></trkpt><trkpt lat="44.69453368625732" lon="9.206980100028915"><ele>1481.25</ele><time>2026-05-01T14:46:51.999Z</time></trkpt><trkpt lat="44.69439275599036" lon="9.206954988694854"><ele>1481.5</ele><time>2026-05-01T14:46:52.999Z</time></trkpt><trkpt lat="44.69424682038325" lon="9.20693762639826"><ele>1481.75</ele><time>2026-05-01T14:46:54Z</time></trkpt><trkpt lat="44.694111365993216" lon="9.206909479286633"><ele>1482.0</ele><time>2026-05-01T14:46:55Z</time></trkpt><trkpt lat="44.69396933106411" lon="9.206882635887297"><ele>1482.0</ele><time>2026-05-01T14:46:56Z</time></trkpt><trkpt lat="44.69381186215694" lon="9.20686845232893"><ele>1482.0</ele><time>2026-05-01T14:46:57Z</time></trkpt><trkpt lat="44.69365808514781" lon="9.206835494945228"><ele>1482.0</ele><time>2026-05-01T14:46:58Z</time></trkpt><trkpt lat="44.693510632888966" lon="9.206802091093708"><ele>1482.0</ele><time>2026-05-01T14:46:59Z</time></trkpt><trkpt lat="44.693371509846465" lon="9.206758947104598"><ele>1482.0</ele><time>2026-05-01T14:47:00Z</time></trkpt><trkpt lat="44.69324070885937" lon="9.206726597924266"><ele>1482.0</ele><time>2026-05-01T14:47:01Z</time></trkpt><trkpt lat="44.69312584812136" lon="9.206695385456793"><ele>1482.0</ele><time>2026-05-01T14:47:02Z</time></trkpt><trkpt lat="44.693027896791484" lon="9.206684456933417"><ele>1482.0</ele><time>2026-05-01T14:47:03Z</time></trkpt><trkpt lat="44.69293886227179" lon="9.206701058589484"><ele>1482.0</ele><time>2026-05-01T14:47:04Z</time></trkpt><trkpt lat="44.692864896765606" lon="9.206753296164019"><ele>1482.0</ele><time>2026-05-01T14:47:05Z</time></trkpt><trkpt lat="44.692790268920945" lon="9.206845482959181"><ele>1482.0</ele><time>2026-05-01T14:47:06Z</time></trkpt><trkpt lat="44.69271631293447" lon="9.206978036290975"><ele>1482.0</ele><time>2026-05-01T14:47:07Z</time></trkpt><trkpt lat="44.69264382542969" lon="9.20707447497899"><ele>1481.8</ele><time>2026-05-01T14:47:08Z</time></trkpt><trkpt lat="44.69256344564871" lon="9.20717471266187"><ele>1481.6</ele><time>2026-05-01T14:47:09Z</time></trkpt><trkpt lat="44.6924722421827" lon="9.207251141751808"><ele>1481.3999999999999</ele><time>2026-05-01T14:47:10Z</time></trkpt><trkpt lat="44.69239484154346" lon="9.20733957051879"><ele>1481.1999999999998</ele><time>2026-05-01T14:47:11Z</time></trkpt><trkpt lat="44.69234119245654" lon="9.207478807489991"><ele>1481.0</ele><time>2026-05-01T14:47:12Z</time></trkpt><trkpt lat="44.69231422453259" lon="9.207670863881154"><ele>1478.3333333333335</ele><time>2026-05-01T14:47:13Z</time></trkpt><trkpt lat="44.69231454060815" lon="9.207917185178298"><ele>1475.6666666666667</ele><time>2026-05-01T14:47:14Z</time></trkpt><trkpt lat="44.69231125768983" lon="9.208162311040079"><ele>1473.0</ele><time>2026-05-01T14:47:15Z</time></trkpt><trkpt lat="44.69221534270686" lon="9.208048605656392"><ele>1470.8000000000002</ele><time>2026-05-01T14:47:16Z</time></trkpt><trkpt lat="44.69217591514949" lon="9.208209159494888"><ele>1468.6</ele><time>2026-05-01T14:47:17Z</time></trkpt><trkpt lat="44.69213972176418" lon="9.208343277767566"><ele>1466.4</ele><time>2026-05-01T14:47:18Z</time></trkpt><trkpt lat="44.69206043209077" lon="9.208462394921554"><ele>1464.1999999999998</ele><time>2026-05-01T14:47:19Z</time></trkpt><trkpt lat="44.69199618290546" lon="9.208554321849098"><ele>1462.0</ele><time>2026-05-01T14:47:20Z</time></trkpt><trkpt lat="44.69192340966667" lon="9.208627723006957"><ele>1464.0</ele><time>2026-05-01T14:47:21Z</time></trkpt><trkpt lat="44.69180650689891" lon="9.208655944160425"><ele>1466.0</ele><time>2026-05-01T14:47:22Z</time></trkpt><trkpt lat="44.691682359194694" lon="9.208695035007178"><ele>1468.0</ele><time>2026-05-01T14:47:23Z</time></trkpt><trkpt lat="44.691582655628025" lon="9.208727315011682"><ele>1470.0</ele><time>2026-05-01T14:47:24Z</time></trkpt><trkpt lat="44.69145831680124" lon="9.208725378859011"><ele>1470.0</ele><time>2026-05-01T14:47:25Z</time></trkpt><trkpt lat="44.691350688858606" lon="9.208734429957884"><ele>1470.0</ele><time>2026-05-01T14:47:26Z</time></trkpt><trkpt lat="44.69124169602757" lon="9.208714799151272"><ele>1470.0</ele><time>2026-05-01T14:47:27Z</time></trkpt><trkpt lat="44.69113845089503" lon="9.208668776373306"><ele>1470.0</ele><time>2026-05-01T14:47:28Z</time></trkpt><trkpt lat="44.69104577731828" lon="9.208572058793797"><ele>1470.0</ele><time>2026-05-01T14:47:29Z</time></trkpt><trkpt lat="44.69095022141384" lon="9.208443054774031"><ele>1471.75</ele><time>2026-05-01T14:47:30Z</time></trkpt><trkpt lat="44.690841142682544" lon="9.208307944511269"><ele>1473.5</ele><time>2026-05-01T14:47:31Z</time></trkpt><trkpt lat="44.69073589291134" lon="9.208181467796718"><ele>1475.25</ele><time>2026-05-01T14:47:32Z</time></trkpt><trkpt lat="44.69064289747098" lon="9.208048844419318"><ele>1477.0</ele><time>2026-05-01T14:47:33Z</time></trkpt><trkpt lat="44.69054586823775" lon="9.20794080703617"><ele>1477.0</ele><time>2026-05-01T14:47:34Z</time></trkpt><trkpt lat="44.69043803878097" lon="9.207854005348125"><ele>1477.0</ele><time>2026-05-01T14:47:35Z</time></trkpt><trkpt lat="44.69033662054405" lon="9.20785973426034"><ele>1477.0</ele><time>2026-05-01T14:47:36Z</time></trkpt><trkpt lat="44.69023494986628" lon="9.207836096701438"><ele>1477.0</ele><time>2026-05-01T14:47:37Z</time></trkpt><trkpt lat="44.690068962609985" lon="9.207911958754432"><ele>1473.3333333333333</ele><time>2026-05-01T14:47:38Z</time></trkpt><trkpt lat="44.69000438457947" lon="9.207998210849205"><ele>1469.6666666666667</ele><time>2026-05-01T14:47:39Z</time></trkpt><trkpt lat="44.68985821044899" lon="9.207996534656896"><ele>1466.0</ele><time>2026-05-01T14:47:40Z</time></trkpt><trkpt lat="44.689621634558605" lon="9.207967490127913"><ele>1466.0</ele><time>2026-05-01T14:47:41Z</time></trkpt><trkpt lat="44.68945726015306" lon="9.207794618249508"><ele>1466.0</ele><time>2026-05-01T14:47:42Z</time></trkpt><trkpt lat="44.6893083269765" lon="9.207670717769295"><ele>1466.0</ele><time>2026-05-01T14:47:43Z</time></trkpt><trkpt lat="44.68917614666116" lon="9.207522335812707"><ele>1462.0</ele><time>2026-05-01T14:47:44Z</time></trkpt><trkpt lat="44.689087110955974" lon="9.207403785995348"><ele>1458.0</ele><time>2026-05-01T14:47:45Z</time></trkpt><trkpt lat="44.68898869854304" lon="9.207382591590717"><ele>1454.0</ele><time>2026-05-01T14:47:46Z</time></trkpt><trkpt lat="44.688886954238924" lon="9.20751860812102"><ele>1450.0</ele><time>2026-05-01T14:47:47Z</time></trkpt><trkpt lat="44.68876073679217" lon="9.207570027520886"><ele>1450.0</ele><time>2026-05-01T14:47:48Z</time></trkpt><trkpt lat="44.68862801186427" lon="9.207654366035044"><ele>1450.0</ele><time>2026-05-01T14:47:49Z</time></trkpt><trkpt lat="44.68850565582692" lon="9.207715681347837"><ele>1450.0</ele><time>2026-05-01T14:47:50Z</time></trkpt><trkpt lat="44.68831836598454" lon="9.207711199617695"><ele>1450.3333333333333</ele><time>2026-05-01T14:47:51Z</time></trkpt><trkpt lat="44.68812307923873" lon="9.207774546930892"><ele>1450.6666666666667</ele><time>2026-05-01T14:47:52Z</time></trkpt><trkpt lat="44.68797815466044" lon="9.207810291669258"><ele>1451.0</ele><time>2026-05-01T14:47:53Z</time></trkpt><trkpt lat="44.68783465621347" lon="9.207851680177601"><ele>1451.5</ele><time>2026-05-01T14:47:54Z</time></trkpt><trkpt lat="44.68768571948737" lon="9.207907085639494"><ele>1452.0</ele><time>2026-05-01T14:47:55Z</time></trkpt><trkpt lat="44.68754547010611" lon="9.207978140085368"><ele>1452.5</ele><time>2026-05-01T14:47:56Z</time></trkpt><trkpt lat="44.687419782067636" lon="9.208051387316086"><ele>1453.0</ele><time>2026-05-01T14:47:57Z</time></trkpt><trkpt lat="44.68727770108749" lon="9.208235614633088"><ele>1450.6666666666665</ele><time>2026-05-01T14:47:58Z</time></trkpt><trkpt lat="44.68713512177398" lon="9.208414625720273"><ele>1448.3333333333333</ele><time>2026-05-01T14:47:59Z</time></trkpt><trkpt lat="44.68702833645594" lon="9.208570831048776"><ele>1446.0</ele><time>2026-05-01T14:48:00Z</time></trkpt><trkpt lat="44.68691933009752" lon="9.208635455440353"><ele>1446.0</ele><time>2026-05-01T14:48:01Z</time></trkpt><trkpt lat="44.68683492402672" lon="9.208689824354854"><ele>1446.0</ele><time>2026-05-01T14:48:02Z</time></trkpt><trkpt lat="44.68675573295935" lon="9.20873714423034"><ele>1446.0</ele><time>2026-05-01T14:48:03Z</time></trkpt><trkpt lat="44.686680355175326" lon="9.208824659085382"><ele>1446.0</ele><time>2026-05-01T14:48:05Z</time></trkpt><trkpt lat="44.68669352101837" lon="9.20897176503479"><ele>1446.0</ele><time>2026-05-01T14:48:09.001Z</time></trkpt><trkpt lat="44.68672716241827" lon="9.209059473484675"><ele>1444.6666666666667</ele><time>2026-05-01T14:48:10.001Z</time></trkpt><trkpt lat="44.686756306389746" lon="9.209147188667167"><ele>1443.3333333333333</ele><time>2026-05-01T14:48:11.001Z</time></trkpt><trkpt lat="44.686781492103165" lon="9.20926505463459"><ele>1442.0</ele><time>2026-05-01T14:48:12.001Z</time></trkpt><trkpt lat="44.686799676711544" lon="9.209371849853781"><ele>1440.6666666666665</ele><time>2026-05-01T14:48:13.001Z</time></trkpt><trkpt lat="44.68681363996825" lon="9.209478670235999"><ele>1439.3333333333333</ele><time>2026-05-01T14:48:14.001Z</time></trkpt><trkpt lat="44.68682544372174" lon="9.209572576292588"><ele>1438.0</ele><time>2026-05-01T14:48:15.001Z</time></trkpt><trkpt lat="44.686854360527605" lon="9.209684580327929"><ele>1438.0</ele><time>2026-05-01T14:48:17.001Z</time></trkpt><trkpt lat="44.68692231490415" lon="9.2096512728895"><ele>1438.0</ele><time>2026-05-01T14:49:49.001Z</time></trkpt><trkpt lat="44.68692914110357" lon="9.209473056004468"><ele>1438.0</ele><time>2026-05-01T14:53:03.999Z</time></trkpt><trkpt lat="44.686884782282476" lon="9.209340760971397"><ele>1438.0</ele><time>2026-05-01T14:53:05.999Z</time></trkpt><trkpt lat="44.68683085247599" lon="9.209212617432948"><ele>1438.0</ele><time>2026-05-01T14:53:07.999Z</time></trkpt><trkpt lat="44.68678593624414" lon="9.209090676473748"><ele>1437.9999999999998</ele><time>2026-05-01T14:53:09.999Z</time></trkpt><trkpt lat="44.686747512041094" lon="9.209009617945524"><ele>1438.0</ele><time>2026-05-01T14:53:11.999Z</time></trkpt><trkpt lat="44.686693188863295" lon="9.208920280958933"><ele>1438.0</ele><time>2026-05-01T14:53:14.999Z</time></trkpt><trkpt lat="44.68663648719146" lon="9.208879816204524"><ele>1438.0</ele><time>2026-05-01T14:53:19Z</time></trkpt><trkpt lat="44.686555416924534" lon="9.208910014238446"><ele>1438.0</ele><time>2026-05-01T14:53:21Z</time></trkpt><trkpt lat="44.686503368109854" lon="9.208971755050053"><ele>1437.9999999999998</ele><time>2026-05-01T14:53:22Z</time></trkpt><trkpt lat="44.68644519004468" lon="9.209041375108766"><ele>1438.0</ele><time>2026-05-01T14:53:23Z</time></trkpt><trkpt lat="44.68633252188288" lon="9.209166018779646"><ele>1438.0</ele><time>2026-05-01T14:53:25Z</time></trkpt><trkpt lat="44.686268511029674" lon="9.209239283564418"><ele>1438.0</ele><time>2026-05-01T14:53:26Z</time></trkpt><trkpt lat="44.686203763956094" lon="9.209321237545465"><ele>1438.0</ele><time>2026-05-01T14:53:27Z</time></trkpt><trkpt lat="44.68613216209761" lon="9.209413101920473"><ele>1438.0</ele><time>2026-05-01T14:53:28Z</time></trkpt><trkpt lat="44.68606161890314" lon="9.209515540911688"><ele>1438.0</ele><time>2026-05-01T14:53:29Z</time></trkpt><trkpt lat="44.68598983093906" lon="9.209614375732203"><ele>1439.5</ele><time>2026-05-01T14:53:30Z</time></trkpt><trkpt lat="44.68591443523214" lon="9.209715614358915"><ele>1441.0</ele><time>2026-05-01T14:53:31Z</time></trkpt><trkpt lat="44.68583439248654" lon="9.209830261371236"><ele>1442.5</ele><time>2026-05-01T14:53:32Z</time></trkpt><trkpt lat="44.685743866508155" lon="9.20994060293545"><ele>1444.0</ele><time>2026-05-01T14:53:33Z</time></trkpt><trkpt lat="44.68565517461592" lon="9.210067272204817"><ele>1440.75</ele><time>2026-05-01T14:53:34Z</time></trkpt><trkpt lat="44.68556715869974" lon="9.210193897420142"><ele>1437.5</ele><time>2026-05-01T14:53:35Z</time></trkpt><trkpt lat="44.68547715859839" lon="9.210324800571978"><ele>1434.25</ele><time>2026-05-01T14:53:36Z</time></trkpt><trkpt lat="44.685386845406576" lon="9.21045461221198"><ele>1431.0</ele><time>2026-05-01T14:53:37Z</time></trkpt><trkpt lat="44.68529913074096" lon="9.21058416634983"><ele>1430.1999999999998</ele><time>2026-05-01T14:53:38Z</time></trkpt><trkpt lat="44.68521496972352" lon="9.2107052726404"><ele>1429.3999999999999</ele><time>2026-05-01T14:53:39Z</time></trkpt><trkpt lat="44.6851357776592" lon="9.210814857125147"><ele>1428.6</ele><time>2026-05-01T14:53:40Z</time></trkpt><trkpt lat="44.68505815609015" lon="9.210896056807925"><ele>1427.8</ele><time>2026-05-01T14:53:41Z</time></trkpt><trkpt lat="44.68496859308123" lon="9.210954768364411"><ele>1427.0</ele><time>2026-05-01T14:53:42Z</time></trkpt><trkpt lat="44.684867050475496" lon="9.210998028192215"><ele>1427.0</ele><time>2026-05-01T14:53:43Z</time></trkpt><trkpt lat="44.68477575839153" lon="9.21104001433465"><ele>1427.0</ele><time>2026-05-01T14:53:44Z</time></trkpt><trkpt lat="44.68466599253575" lon="9.21111319288729"><ele>1427.0</ele><time>2026-05-01T14:53:45Z</time></trkpt><trkpt lat="44.684580993939086" lon="9.21114728386999"><ele>1427.0</ele><time>2026-05-01T14:53:46Z</time></trkpt><trkpt lat="44.6845090356968" lon="9.211205874396791"><ele>1427.0</ele><time>2026-05-01T14:53:47Z</time></trkpt><trkpt lat="44.68444425215582" lon="9.211199181209473"><ele>1425.8</ele><time>2026-05-01T14:53:48Z</time></trkpt><trkpt lat="44.68434518429707" lon="9.211095610139342"><ele>1424.6</ele><time>2026-05-01T14:53:50Z</time></trkpt><trkpt lat="44.684316251619826" lon="9.21098956429522"><ele>1423.3999999999999</ele><time>2026-05-01T14:53:51Z</time></trkpt><trkpt lat="44.68428360000878" lon="9.210886475342194"><ele>1422.1999999999998</ele><time>2026-05-01T14:53:52Z</time></trkpt><trkpt lat="44.68423581033145" lon="9.21078429384209"><ele>1421.0</ele><time>2026-05-01T14:53:53Z</time></trkpt><trkpt lat="44.684170899015726" lon="9.210714618032519"><ele>1421.0</ele><time>2026-05-01T14:53:54Z</time></trkpt><trkpt lat="44.68409743451693" lon="9.210686522682948"><ele>1421.0</ele><time>2026-05-01T14:53:55Z</time></trkpt><trkpt lat="44.684024342180685" lon="9.210689524966671"><ele>1421.0</ele><time>2026-05-01T14:53:56Z</time></trkpt><trkpt lat="44.68395419979525" lon="9.210681443500297"><ele>1421.0</ele><time>2026-05-01T14:53:57Z</time></trkpt><trkpt lat="44.68389764994966" lon="9.210760658783267"><ele>1421.0</ele><time>2026-05-01T14:53:58Z</time></trkpt><trkpt lat="44.68387053859589" lon="9.21085438738283"><ele>1421.0</ele><time>2026-05-01T14:53:59Z</time></trkpt><trkpt lat="44.68387468065606" lon="9.210947820532052"><ele>1421.0</ele><time>2026-05-01T14:54:00Z</time></trkpt><trkpt lat="44.68393483380538" lon="9.211018841309652"><ele>1421.0</ele><time>2026-05-01T14:54:01Z</time></trkpt><trkpt lat="44.684002392414484" lon="9.211059140874108"><ele>1421.0</ele><time>2026-05-01T14:54:02Z</time></trkpt><trkpt lat="44.68408657823491" lon="9.211078844564934"><ele>1421.0</ele><time>2026-05-01T14:54:03Z</time></trkpt><trkpt lat="44.6841571654381" lon="9.211110293565078"><ele>1421.0</ele><time>2026-05-01T14:54:04Z</time></trkpt><trkpt lat="44.68422631866908" lon="9.211242551489875"><ele>1421.0</ele><time>2026-05-01T14:54:06Z</time></trkpt><trkpt lat="44.6841733273624" lon="9.211391031374278"><ele>1421.0</ele><time>2026-05-01T14:54:08Z</time></trkpt><trkpt lat="44.684108173326045" lon="9.211420178210478"><ele>1421.0</ele><time>2026-05-01T14:54:09Z</time></trkpt><trkpt lat="44.684043321096134" lon="9.211400543210122"><ele>1421.0</ele><time>2026-05-01T14:54:10Z</time></trkpt><trkpt lat="44.68397890297629" lon="9.211336039160562"><ele>1421.0</ele><time>2026-05-01T14:54:11Z</time></trkpt><trkpt lat="44.683926519964345" lon="9.211249151629948"><ele>1421.0</ele><time>2026-05-01T14:54:12Z</time></trkpt><trkpt lat="44.683876444124124" lon="9.211179722006412"><ele>1421.0</ele><time>2026-05-01T14:54:13Z</time></trkpt><trkpt lat="44.683772953433" lon="9.21114848661027"><ele>1421.0</ele><time>2026-05-01T14:54:15Z</time></trkpt><trkpt lat="44.68366843817196" lon="9.21121682046109"><ele>1421.0</ele><time>2026-05-01T14:54:17Z</time></trkpt><trkpt lat="44.683755562979485" lon="9.211431616964797"><ele>1421.0</ele><time>2026-05-01T14:54:20.001Z</time></trkpt><trkpt lat="44.68381290599749" lon="9.211493743517304"><ele>1421.0</ele><time>2026-05-01T14:54:21.001Z</time></trkpt><trkpt lat="44.68388158577686" lon="9.211567485420742"><ele>1418.1999999999998</ele><time>2026-05-01T14:54:22.001Z</time></trkpt><trkpt lat="44.68395208648485" lon="9.211664567809152"><ele>1415.3999999999999</ele><time>2026-05-01T14:54:23.001Z</time></trkpt><trkpt lat="44.684032778796116" lon="9.211742694026826"><ele>1412.6</ele><time>2026-05-01T14:54:24.001Z</time></trkpt><trkpt lat="44.68409305803296" lon="9.21184683212485"><ele>1409.8</ele><time>2026-05-01T14:54:25.001Z</time></trkpt><trkpt lat="44.684112584800026" lon="9.211998356896395"><ele>1407.0</ele><time>2026-05-01T14:54:26.001Z</time></trkpt><trkpt lat="44.68409719791634" lon="9.212234159064023"><ele>1404.5</ele><time>2026-05-01T14:54:28.001Z</time></trkpt><trkpt lat="44.684073966425" lon="9.212383867342911"><ele>1402.0</ele><time>2026-05-01T14:54:29.001Z</time></trkpt><trkpt lat="44.68405064596809" lon="9.212553789659212"><ele>1399.5</ele><time>2026-05-01T14:54:30.001Z</time></trkpt><trkpt lat="44.684014692735346" lon="9.212716137625529"><ele>1397.0</ele><time>2026-05-01T14:54:31.001Z</time></trkpt><trkpt lat="44.6839786916459" lon="9.212886645632688"><ele>1397.0</ele><time>2026-05-01T14:54:32.001Z</time></trkpt><trkpt lat="44.68394330249533" lon="9.213055543345813"><ele>1397.0</ele><time>2026-05-01T14:54:33.001Z</time></trkpt><trkpt lat="44.68391515406173" lon="9.213225117943159"><ele>1397.0</ele><time>2026-05-01T14:54:34.001Z</time></trkpt><trkpt lat="44.68388615843506" lon="9.213388050064362"><ele>1397.0</ele><time>2026-05-01T14:54:35.001Z</time></trkpt><trkpt lat="44.68386565649904" lon="9.213553267125564"><ele>1395.0</ele><time>2026-05-01T14:54:36.001Z</time></trkpt><trkpt lat="44.68386026711977" lon="9.213713269750594"><ele>1393.0</ele><time>2026-05-01T14:54:37.001Z</time></trkpt><trkpt lat="44.68387526144803" lon="9.213872224753349"><ele>1391.0</ele><time>2026-05-01T14:54:38.001Z</time></trkpt><trkpt lat="44.683916989666535" lon="9.214033030179241"><ele>1389.0</ele><time>2026-05-01T14:54:39.001Z</time></trkpt><trkpt lat="44.68397454907102" lon="9.214195764994283"><ele>1386.5</ele><time>2026-05-01T14:54:40.001Z</time></trkpt><trkpt lat="44.68399721062404" lon="9.214361982480694"><ele>1384.0</ele><time>2026-05-01T14:54:41.001Z</time></trkpt><trkpt lat="44.684006236071475" lon="9.214524575755958"><ele>1381.5</ele><time>2026-05-01T14:54:42.001Z</time></trkpt><trkpt lat="44.68399959680992" lon="9.214692917493506"><ele>1379.0</ele><time>2026-05-01T14:54:43.001Z</time></trkpt><trkpt lat="44.684010028532064" lon="9.214874476423606"><ele>1376.75</ele><time>2026-05-01T14:54:44.001Z</time></trkpt><trkpt lat="44.68398502122802" lon="9.21505489844548"><ele>1374.5</ele><time>2026-05-01T14:54:45.001Z</time></trkpt><trkpt lat="44.683954558178336" lon="9.215224560077205"><ele>1372.25</ele><time>2026-05-01T14:54:46.001Z</time></trkpt><trkpt lat="44.68391352633887" lon="9.21537624911969"><ele>1370.0</ele><time>2026-05-01T14:54:47.001Z</time></trkpt><trkpt lat="44.68387590545016" lon="9.215510285568092"><ele>1370.0</ele><time>2026-05-01T14:54:48.001Z</time></trkpt><trkpt lat="44.68383898974666" lon="9.215637855336483"><ele>1370.0</ele><time>2026-05-01T14:54:49.001Z</time></trkpt><trkpt lat="44.683790218724056" lon="9.215758473304595"><ele>1370.0</ele><time>2026-05-01T14:54:50.001Z</time></trkpt><trkpt lat="44.683751640006186" lon="9.21587780644881"><ele>1370.0</ele><time>2026-05-01T14:54:51.001Z</time></trkpt><trkpt lat="44.68371637160877" lon="9.215981367305266"><ele>1370.0</ele><time>2026-05-01T14:54:52.001Z</time></trkpt><trkpt lat="44.68369691298282" lon="9.21610424694196"><ele>1370.4</ele><time>2026-05-01T14:54:53.001Z</time></trkpt><trkpt lat="44.68366536556808" lon="9.216234001219915"><ele>1370.8</ele><time>2026-05-01T14:54:54.001Z</time></trkpt><trkpt lat="44.68362078616228" lon="9.21635427124861"><ele>1371.1999999999998</ele><time>2026-05-01T14:54:55.001Z</time></trkpt><trkpt lat="44.68359994454659" lon="9.216478483631402"><ele>1371.6</ele><time>2026-05-01T14:54:56.001Z</time></trkpt><trkpt lat="44.68359529282447" lon="9.216602614667266"><ele>1372.0</ele><time>2026-05-01T14:54:57.001Z</time></trkpt><trkpt lat="44.683635577255096" lon="9.21671147614849"><ele>1371.1999999999998</ele><time>2026-05-01T14:54:58.001Z</time></trkpt><trkpt lat="44.683670634043054" lon="9.216791620711886"><ele>1370.4</ele><time>2026-05-01T14:54:58.998Z</time></trkpt><trkpt lat="44.683736973229585" lon="9.216917128186358"><ele>1369.6</ele><time>2026-05-01T14:55:00.998Z</time></trkpt><trkpt lat="44.68367355042247" lon="9.217103042339085"><ele>1368.8000000000002</ele><time>2026-05-01T14:55:03.998Z</time></trkpt><trkpt lat="44.683648406915985" lon="9.217214113593885"><ele>1368.0</ele><time>2026-05-01T14:55:04.998Z</time></trkpt><trkpt lat="44.683635654021586" lon="9.217344909029329"><ele>1367.2</ele><time>2026-05-01T14:55:05.998Z</time></trkpt><trkpt lat="44.68363637889122" lon="9.217487991975956"><ele>1366.4</ele><time>2026-05-01T14:55:06.998Z</time></trkpt><trkpt lat="44.683642269946475" lon="9.21764085062899"><ele>1365.6000000000001</ele><time>2026-05-01T14:55:07.998Z</time></trkpt><trkpt lat="44.68366221183404" lon="9.217793663159911"><ele>1364.8000000000002</ele><time>2026-05-01T14:55:08.998Z</time></trkpt><trkpt lat="44.68371342854138" lon="9.217937455956859"><ele>1364.0</ele><time>2026-05-01T14:55:09.998Z</time></trkpt><trkpt lat="44.683771693990074" lon="9.218066065563152"><ele>1362.0</ele><time>2026-05-01T14:55:10.998Z</time></trkpt><trkpt lat="44.68381368336351" lon="9.218200235785693"><ele>1360.0</ele><time>2026-05-01T14:55:11.998Z</time></trkpt><trkpt lat="44.683840084262975" lon="9.218345741444649"><ele>1358.0</ele><time>2026-05-01T14:55:12.998Z</time></trkpt><trkpt lat="44.683855056821514" lon="9.218507836889732"><ele>1356.0</ele><time>2026-05-01T14:55:13.998Z</time></trkpt><trkpt lat="44.68387274750114" lon="9.218682482603496"><ele>1356.0</ele><time>2026-05-01T14:55:14.998Z</time></trkpt><trkpt lat="44.6838698759196" lon="9.218877220342183"><ele>1356.0</ele><time>2026-05-01T14:55:15.999Z</time></trkpt><trkpt lat="44.68386628497876" lon="9.219078520053767"><ele>1356.0</ele><time>2026-05-01T14:55:16.999Z</time></trkpt><trkpt lat="44.683870404280924" lon="9.219270199818569"><ele>1356.0</ele><time>2026-05-01T14:55:17.999Z</time></trkpt><trkpt lat="44.68387352804534" lon="9.219447217977077"><ele>1357.5</ele><time>2026-05-01T14:55:18.999Z</time></trkpt><trkpt lat="44.683878129062194" lon="9.2196315330803"><ele>1359.0</ele><time>2026-05-01T14:55:19.999Z</time></trkpt><trkpt lat="44.68386656100172" lon="9.219817443869744"><ele>1360.5</ele><time>2026-05-01T14:55:20.999Z</time></trkpt><trkpt lat="44.68387674453944" lon="9.219996381334553"><ele>1362.0</ele><time>2026-05-01T14:55:21.999Z</time></trkpt><trkpt lat="44.68388709276971" lon="9.220163303354923"><ele>1363.25</ele><time>2026-05-01T14:55:22.999Z</time></trkpt><trkpt lat="44.68389848000167" lon="9.22031952456285"><ele>1364.5</ele><time>2026-05-01T14:55:23.999Z</time></trkpt><trkpt lat="44.683914776426654" lon="9.220484422784724"><ele>1365.75</ele><time>2026-05-01T14:55:24.999Z</time></trkpt><trkpt lat="44.683914408801904" lon="9.220648327778575"><ele>1367.0</ele><time>2026-05-01T14:55:25.999Z</time></trkpt><trkpt lat="44.68389373921052" lon="9.220805160147787"><ele>1367.0</ele><time>2026-05-01T14:55:26.999Z</time></trkpt><trkpt lat="44.68387799800669" lon="9.220945985409964"><ele>1367.0</ele><time>2026-05-01T14:55:27.999Z</time></trkpt><trkpt lat="44.68386754258719" lon="9.2211078855858"><ele>1367.0</ele><time>2026-05-01T14:55:28.999Z</time></trkpt><trkpt lat="44.68386807178451" lon="9.221286065515237"><ele>1367.0</ele><time>2026-05-01T14:55:29.999Z</time></trkpt><trkpt lat="44.68387883092652" lon="9.221450342122607"><ele>1367.5</ele><time>2026-05-01T14:55:30.999Z</time></trkpt><trkpt lat="44.68388681994565" lon="9.221630301528268"><ele>1368.0</ele><time>2026-05-01T14:55:31.999Z</time></trkpt><trkpt lat="44.68389754552928" lon="9.22181156971752"><ele>1368.5</ele><time>2026-05-01T14:55:32.999Z</time></trkpt><trkpt lat="44.68392025587918" lon="9.22198105014782"><ele>1369.0</ele><time>2026-05-01T14:55:33.999Z</time></trkpt><trkpt lat="44.68390085952676" lon="9.222149656502394"><ele>1369.0</ele><time>2026-05-01T14:55:34.999Z</time></trkpt><trkpt lat="44.683878190404265" lon="9.222288195020019"><ele>1369.0</ele><time>2026-05-01T14:55:35.999Z</time></trkpt><trkpt lat="44.68385855798511" lon="9.222390384660235"><ele>1369.0</ele><time>2026-05-01T14:55:36.999Z</time></trkpt><trkpt lat="44.68383677966294" lon="9.222479071395409"><ele>1369.0</ele><time>2026-05-01T14:55:37.999Z</time></trkpt><trkpt lat="44.68382926773035" lon="9.222591486533709"><ele>1369.0</ele><time>2026-05-01T14:55:38.999Z</time></trkpt><trkpt lat="44.68382410642461" lon="9.222719786070286"><ele>1369.0</ele><time>2026-05-01T14:55:40Z</time></trkpt><trkpt lat="44.683803644750896" lon="9.222857005159526"><ele>1370.0</ele><time>2026-05-01T14:55:41Z</time></trkpt><trkpt lat="44.68377807416852" lon="9.222990720652872"><ele>1371.0</ele><time>2026-05-01T14:55:42Z</time></trkpt><trkpt lat="44.68376747884517" lon="9.223151287864452"><ele>1372.0</ele><time>2026-05-01T14:55:43Z</time></trkpt><trkpt lat="44.68374676140807" lon="9.223317934840663"><ele>1373.0</ele><time>2026-05-01T14:55:44Z</time></trkpt><trkpt lat="44.68372721055716" lon="9.223466717002655"><ele>1374.0</ele><time>2026-05-01T14:55:45Z</time></trkpt><trkpt lat="44.68372804544945" lon="9.223612478260078"><ele>1374.25</ele><time>2026-05-01T14:55:46Z</time></trkpt><trkpt lat="44.68374683766206" lon="9.223770014261495"><ele>1374.5</ele><time>2026-05-01T14:55:47Z</time></trkpt><trkpt lat="44.68377415862412" lon="9.223911789670424"><ele>1374.75</ele><time>2026-05-01T14:55:48Z</time></trkpt><trkpt lat="44.68380909832709" lon="9.22404617305131"><ele>1375.0</ele><time>2026-05-01T14:55:49Z</time></trkpt><trkpt lat="44.68386776793379" lon="9.224243253485348"><ele>1377.5</ele><time>2026-05-01T14:55:50Z</time></trkpt><trkpt lat="44.683925193139764" lon="9.224429043284166"><ele>1380.0</ele><time>2026-05-01T14:55:51Z</time></trkpt><trkpt lat="44.6839724517541" lon="9.22458572237358"><ele>1382.5</ele><time>2026-05-01T14:55:52Z</time></trkpt><trkpt lat="44.68402056288401" lon="9.224729450402009"><ele>1385.0</ele><time>2026-05-01T14:55:53Z</time></trkpt><trkpt lat="44.68407064277426" lon="9.224860307232143"><ele>1386.25</ele><time>2026-05-01T14:55:54Z</time></trkpt><trkpt lat="44.684146934794946" lon="9.224993454238945"><ele>1387.5</ele><time>2026-05-01T14:55:55Z</time></trkpt><trkpt lat="44.68421098244716" lon="9.225127865786106"><ele>1388.75</ele><time>2026-05-01T14:55:56Z</time></trkpt><trkpt lat="44.68426023915878" lon="9.225285518140518"><ele>1390.0</ele><time>2026-05-01T14:55:57Z</time></trkpt><trkpt lat="44.68433689947021" lon="9.22542938855577"><ele>1390.0</ele><time>2026-05-01T14:55:58Z</time></trkpt><trkpt lat="44.68441585798014" lon="9.225567411680558"><ele>1390.0</ele><time>2026-05-01T14:55:59Z</time></trkpt><trkpt lat="44.68449836289255" lon="9.225680739973175"><ele>1390.0</ele><time>2026-05-01T14:56:00Z</time></trkpt><trkpt lat="44.68456563565518" lon="9.225781752308883"><ele>1390.0</ele><time>2026-05-01T14:56:01Z</time></trkpt><trkpt lat="44.684603004807" lon="9.225876675448385"><ele>1390.0</ele><time>2026-05-01T14:56:02Z</time></trkpt><trkpt lat="44.68461719335018" lon="9.225971585999297"><ele>1390.0</ele><time>2026-05-01T14:56:03Z</time></trkpt><trkpt lat="44.68457584687739" lon="9.226128970321353"><ele>1390.0</ele><time>2026-05-01T14:56:05Z</time></trkpt><trkpt lat="44.68449618884494" lon="9.226154335491335"><ele>1390.0</ele><time>2026-05-01T14:56:06Z</time></trkpt><trkpt lat="44.68443509906207" lon="9.226224386979556"><ele>1390.0</ele><time>2026-05-01T14:56:07Z</time></trkpt><trkpt lat="44.684358579588704" lon="9.22626610423419"><ele>1390.0</ele><time>2026-05-01T14:56:08Z</time></trkpt><trkpt lat="44.68429060424334" lon="9.226360387750564"><ele>1387.2</ele><time>2026-05-01T14:56:09Z</time></trkpt><trkpt lat="44.68421683061093" lon="9.22650248288568"><ele>1384.4</ele><time>2026-05-01T14:56:10Z</time></trkpt><trkpt lat="44.684167569463966" lon="9.226591528488468"><ele>1381.6</ele><time>2026-05-01T14:56:11Z</time></trkpt><trkpt lat="44.68410688323787" lon="9.226692726751711"><ele>1378.8</ele><time>2026-05-01T14:56:12Z</time></trkpt><trkpt lat="44.68406343388287" lon="9.226784339803029"><ele>1376.0</ele><time>2026-05-01T14:56:13Z</time></trkpt><trkpt lat="44.68404059285034" lon="9.22689073047307"><ele>1376.0</ele><time>2026-05-01T14:56:14Z</time></trkpt><trkpt lat="44.68405865113539" lon="9.22701169539708"><ele>1376.0</ele><time>2026-05-01T14:56:15Z</time></trkpt><trkpt lat="44.684100600193574" lon="9.227112509843433"><ele>1376.0</ele><time>2026-05-01T14:56:16Z</time></trkpt><trkpt lat="44.684150742535216" lon="9.227217485851716"><ele>1376.0</ele><time>2026-05-01T14:56:17Z</time></trkpt><trkpt lat="44.684218733795724" lon="9.227319831629403"><ele>1376.0</ele><time>2026-05-01T14:56:18Z</time></trkpt><trkpt lat="44.68426240764519" lon="9.227470289293894"><ele>1374.4</ele><time>2026-05-01T14:56:19Z</time></trkpt><trkpt lat="44.68431021959169" lon="9.227617945350518"><ele>1372.8</ele><time>2026-05-01T14:56:20Z</time></trkpt><trkpt lat="44.684376454845896" lon="9.227749952947965"><ele>1371.2</ele><time>2026-05-01T14:56:21Z</time></trkpt><trkpt lat="44.68444304244773" lon="9.227876759591574"><ele>1369.6000000000001</ele><time>2026-05-01T14:56:22Z</time></trkpt><trkpt lat="44.6845097916586" lon="9.227992538371648"><ele>1368.0</ele><time>2026-05-01T14:56:23Z</time></trkpt><trkpt lat="44.68457694619978" lon="9.22812267208361"><ele>1369.5</ele><time>2026-05-01T14:56:24Z</time></trkpt><trkpt lat="44.684646419992454" lon="9.22824347102867"><ele>1371.0</ele><time>2026-05-01T14:56:25Z</time></trkpt><trkpt lat="44.684712997631486" lon="9.228376609398447"><ele>1372.5</ele><time>2026-05-01T14:56:26Z</time></trkpt><trkpt lat="44.684772887793464" lon="9.228509836648186"><ele>1374.0</ele><time>2026-05-01T14:56:27Z</time></trkpt><trkpt lat="44.68482395913332" lon="9.228649059412264"><ele>1374.0</ele><time>2026-05-01T14:56:28Z</time></trkpt><trkpt lat="44.68487123005914" lon="9.228785699712601"><ele>1374.0</ele><time>2026-05-01T14:56:29Z</time></trkpt><trkpt lat="44.684914874683855" lon="9.228915080974128"><ele>1374.0</ele><time>2026-05-01T14:56:30Z</time></trkpt><trkpt lat="44.6849690757134" lon="9.229017982281938"><ele>1374.0</ele><time>2026-05-01T14:56:31.001Z</time></trkpt><trkpt lat="44.685033852699576" lon="9.229106265904221"><ele>1374.0</ele><time>2026-05-01T14:56:32.001Z</time></trkpt><trkpt lat="44.68513566796125" lon="9.229159453778722"><ele>1372.8000000000002</ele><time>2026-05-01T14:56:33.001Z</time></trkpt><trkpt lat="44.68520770566792" lon="9.229244520934119"><ele>1371.6000000000001</ele><time>2026-05-01T14:56:34.001Z</time></trkpt><trkpt lat="44.68527895176729" lon="9.229339251378166"><ele>1370.4</ele><time>2026-05-01T14:56:35.001Z</time></trkpt><trkpt lat="44.68533949103292" lon="9.229448602932782"><ele>1369.2</ele><time>2026-05-01T14:56:36.001Z</time></trkpt><trkpt lat="44.68539716881388" lon="9.229567665180642"><ele>1368.0</ele><time>2026-05-01T14:56:37.001Z</time></trkpt><trkpt lat="44.685439471405495" lon="9.229678838418321"><ele>1370.8000000000002</ele><time>2026-05-01T14:56:38.001Z</time></trkpt><trkpt lat="44.68547886278128" lon="9.229815006949378"><ele>1373.6</ele><time>2026-05-01T14:56:39.001Z</time></trkpt><trkpt lat="44.68549204000786" lon="9.22992085727271"><ele>1376.4</ele><time>2026-05-01T14:56:40.001Z</time></trkpt><trkpt lat="44.68549632031737" lon="9.230062752797943"><ele>1379.1999999999998</ele><time>2026-05-01T14:56:41.001Z</time></trkpt><trkpt lat="44.68548392916541" lon="9.230204498484005"><ele>1382.0</ele><time>2026-05-01T14:56:42.001Z</time></trkpt><trkpt lat="44.685474089161204" lon="9.230366997368952"><ele>1382.0</ele><time>2026-05-01T14:56:43.001Z</time></trkpt><trkpt lat="44.68548693309648" lon="9.230515955897625"><ele>1382.0</ele><time>2026-05-01T14:56:44.001Z</time></trkpt><trkpt lat="44.68554122412629" lon="9.230653210211972"><ele>1382.0</ele><time>2026-05-01T14:56:45.001Z</time></trkpt><trkpt lat="44.685567428423624" lon="9.230792761989742"><ele>1382.0</ele><time>2026-05-01T14:56:46.001Z</time></trkpt><trkpt lat="44.68562804925248" lon="9.230947866456649"><ele>1382.0</ele><time>2026-05-01T14:56:47.001Z</time></trkpt><trkpt lat="44.685674990449414" lon="9.231108928377038"><ele>1384.75</ele><time>2026-05-01T14:56:48.001Z</time></trkpt><trkpt lat="44.68571497930909" lon="9.231263849231201"><ele>1387.5</ele><time>2026-05-01T14:56:49.001Z</time></trkpt><trkpt lat="44.68576609537079" lon="9.231420809096438"><ele>1390.25</ele><time>2026-05-01T14:56:50.001Z</time></trkpt><trkpt lat="44.685809316300485" lon="9.231571886093755"><ele>1393.0</ele><time>2026-05-01T14:56:51.001Z</time></trkpt><trkpt lat="44.6858255506226" lon="9.23173132948943"><ele>1398.0</ele><time>2026-05-01T14:56:52.001Z</time></trkpt><trkpt lat="44.68588495225917" lon="9.231896737636827"><ele>1403.0</ele><time>2026-05-01T14:56:53.001Z</time></trkpt><trkpt lat="44.6859535912262" lon="9.232045995184281"><ele>1408.0</ele><time>2026-05-01T14:56:54.001Z</time></trkpt><trkpt lat="44.68600530256911" lon="9.232172100218877"><ele>1413.0</ele><time>2026-05-01T14:56:55.001Z</time></trkpt><trkpt lat="44.686052013402275" lon="9.232279469046754"><ele>1412.0</ele><time>2026-05-01T14:56:56.001Z</time></trkpt><trkpt lat="44.68608686099059" lon="9.232366341504514"><ele>1411.0</ele><time>2026-05-01T14:56:57.001Z</time></trkpt><trkpt lat="44.68617578407648" lon="9.232459879089493"><ele>1410.0</ele><time>2026-05-01T14:56:59.001Z</time></trkpt><trkpt lat="44.68625011164602" lon="9.232537242267682"><ele>1409.0</ele><time>2026-05-01T14:57:00.001Z</time></trkpt><trkpt lat="44.686344442137944" lon="9.232596488407937"><ele>1408.0</ele><time>2026-05-01T14:57:01.001Z</time></trkpt><trkpt lat="44.68644940065401" lon="9.232627779495813"><ele>1408.0</ele><time>2026-05-01T14:57:02.001Z</time></trkpt><trkpt lat="44.68654666745321" lon="9.232670520003506"><ele>1408.0</ele><time>2026-05-01T14:57:03.001Z</time></trkpt><trkpt lat="44.68661605884828" lon="9.232687985821965"><ele>1408.0</ele><time>2026-05-01T14:57:04.001Z</time></trkpt><trkpt lat="44.6867257724394" lon="9.232795817106917"><ele>1408.0</ele><time>2026-05-01T14:57:05.999Z</time></trkpt><trkpt lat="44.68675601719421" lon="9.232885333105907"><ele>1408.0</ele><time>2026-05-01T14:57:06.999Z</time></trkpt><trkpt lat="44.6867666277585" lon="9.232995566069794"><ele>1412.75</ele><time>2026-05-01T14:57:07.999Z</time></trkpt><trkpt lat="44.68680030739463" lon="9.233159211312067"><ele>1417.5</ele><time>2026-05-01T14:57:08.999Z</time></trkpt><trkpt lat="44.686803166382596" lon="9.233322568473602"><ele>1422.25</ele><time>2026-05-01T14:57:09.999Z</time></trkpt><trkpt lat="44.68681273574638" lon="9.233480613703394"><ele>1427.0</ele><time>2026-05-01T14:57:10.999Z</time></trkpt><trkpt lat="44.68682225524685" lon="9.233674845954727"><ele>1427.0</ele><time>2026-05-01T14:57:11.999Z</time></trkpt><trkpt lat="44.68681234636363" lon="9.233859829615584"><ele>1427.0</ele><time>2026-05-01T14:57:12.999Z</time></trkpt><trkpt lat="44.686809785454244" lon="9.234031697248122"><ele>1427.0</ele><time>2026-05-01T14:57:13.999Z</time></trkpt><trkpt lat="44.68680985014339" lon="9.234194765168333"><ele>1427.0</ele><time>2026-05-01T14:57:14.999Z</time></trkpt><trkpt lat="44.686788615751766" lon="9.234358240631504"><ele>1428.75</ele><time>2026-05-01T14:57:15.999Z</time></trkpt><trkpt lat="44.68680215249694" lon="9.234529430016357"><ele>1430.5</ele><time>2026-05-01T14:57:16.999Z</time></trkpt><trkpt lat="44.68681335837093" lon="9.234697239908433"><ele>1432.25</ele><time>2026-05-01T14:57:17.999Z</time></trkpt><trkpt lat="44.68681498866611" lon="9.234870840906941"><ele>1434.0</ele><time>2026-05-01T14:57:18.999Z</time></trkpt><trkpt lat="44.68681818527212" lon="9.235021839303716"><ele>1434.1666666666667</ele><time>2026-05-01T14:57:19.999Z</time></trkpt><trkpt lat="44.68682069451206" lon="9.235160060712477"><ele>1434.3333333333333</ele><time>2026-05-01T14:57:20.999Z</time></trkpt><trkpt lat="44.68681337272613" lon="9.235260235512976"><ele>1434.5</ele><time>2026-05-01T14:57:21.999Z</time></trkpt><trkpt lat="44.68679803577961" lon="9.235356301842485"><ele>1434.6666666666665</ele><time>2026-05-01T14:57:22.999Z</time></trkpt><trkpt lat="44.686710332249895" lon="9.235479324610324"><ele>1434.8333333333333</ele><time>2026-05-01T14:57:24.999Z</time></trkpt><trkpt lat="44.68664580817367" lon="9.235516561017926"><ele>1435.0</ele><time>2026-05-01T14:57:25.999Z</time></trkpt><trkpt lat="44.686561966837814" lon="9.235552969361091"><ele>1435.0</ele><time>2026-05-01T14:57:26.999Z</time></trkpt><trkpt lat="44.686461058167076" lon="9.235615828701816"><ele>1435.0</ele><time>2026-05-01T14:57:27.999Z</time></trkpt><trkpt lat="44.686381079371216" lon="9.23567386013246"><ele>1435.0</ele><time>2026-05-01T14:57:28.999Z</time></trkpt><trkpt lat="44.686302434645576" lon="9.235767506052728"><ele>1435.0</ele><time>2026-05-01T14:57:29.999Z</time></trkpt><trkpt lat="44.68623299126083" lon="9.23590253786616"><ele>1435.0</ele><time>2026-05-01T14:57:31Z</time></trkpt><trkpt lat="44.68617190305091" lon="9.236025121366147"><ele>1436.0</ele><time>2026-05-01T14:57:32Z</time></trkpt><trkpt lat="44.68613138153002" lon="9.236128126795853"><ele>1437.0</ele><time>2026-05-01T14:57:33Z</time></trkpt><trkpt lat="44.6860490416817" lon="9.236286982444028"><ele>1438.0</ele><time>2026-05-01T14:57:34Z</time></trkpt><trkpt lat="44.6859820490543" lon="9.236427964071547"><ele>1439.0</ele><time>2026-05-01T14:57:35Z</time></trkpt><trkpt lat="44.685922581456715" lon="9.23657203715661"><ele>1439.0</ele><time>2026-05-01T14:57:36Z</time></trkpt><trkpt lat="44.68585085358446" lon="9.236705039336114"><ele>1439.0</ele><time>2026-05-01T14:57:37Z</time></trkpt><trkpt lat="44.68581343369305" lon="9.23682937401326"><ele>1439.0</ele><time>2026-05-01T14:57:38Z</time></trkpt><trkpt lat="44.68578838706603" lon="9.236938102554282"><ele>1439.0</ele><time>2026-05-01T14:57:39Z</time></trkpt><trkpt lat="44.68577785878865" lon="9.237040481068698"><ele>1439.0</ele><time>2026-05-01T14:57:40Z</time></trkpt><trkpt lat="44.68578181599267" lon="9.23715372174573"><ele>1439.0</ele><time>2026-05-01T14:57:41Z</time></trkpt><trkpt lat="44.68579293440895" lon="9.237287600766754"><ele>1439.0</ele><time>2026-05-01T14:57:42Z</time></trkpt><trkpt lat="44.68581345452716" lon="9.237409795719016"><ele>1439.0</ele><time>2026-05-01T14:57:43Z</time></trkpt><trkpt lat="44.68583335730683" lon="9.237543405393348"><ele>1439.0</ele><time>2026-05-01T14:57:44Z</time></trkpt><trkpt lat="44.685886757092554" lon="9.237658741961011"><ele>1439.0</ele><time>2026-05-01T14:57:45Z</time></trkpt><trkpt lat="44.685934562971354" lon="9.237769262905696"><ele>1440.6</ele><time>2026-05-01T14:57:46Z</time></trkpt><trkpt lat="44.68601800342528" lon="9.237861085251323"><ele>1442.2</ele><time>2026-05-01T14:57:47Z</time></trkpt><trkpt lat="44.6860936089069" lon="9.237940889194315"><ele>1443.8</ele><time>2026-05-01T14:57:48Z</time></trkpt><trkpt lat="44.68614548673241" lon="9.238044698413539"><ele>1445.3999999999999</ele><time>2026-05-01T14:57:50Z</time></trkpt><trkpt lat="44.68611436394466" lon="9.238227709023443"><ele>1447.0</ele><time>2026-05-01T14:57:52Z</time></trkpt><trkpt lat="44.68608948432787" lon="9.238350948679638"><ele>1449.6</ele><time>2026-05-01T14:57:53Z</time></trkpt><trkpt lat="44.686089216652505" lon="9.238468586228365"><ele>1452.1999999999998</ele><time>2026-05-01T14:57:54Z</time></trkpt><trkpt lat="44.68607649321216" lon="9.238619942726187"><ele>1454.8</ele><time>2026-05-01T14:57:55Z</time></trkpt><trkpt lat="44.68606152989488" lon="9.238782733947268"><ele>1457.4</ele><time>2026-05-01T14:57:56Z</time></trkpt><trkpt lat="44.68608749507933" lon="9.238926853548673"><ele>1460.0</ele><time>2026-05-01T14:57:57Z</time></trkpt><trkpt lat="44.68611751074217" lon="9.239045280460424"><ele>1451.8</ele><time>2026-05-01T14:57:58Z</time></trkpt><trkpt lat="44.686148547249545" lon="9.239171856306022"><ele>1443.6</ele><time>2026-05-01T14:57:59Z</time></trkpt><trkpt lat="44.68620059607886" lon="9.239338765471643"><ele>1435.4</ele><time>2026-05-01T14:58:00Z</time></trkpt><trkpt lat="44.686244811368525" lon="9.239451659172984"><ele>1427.2</ele><time>2026-05-01T14:58:01Z</time></trkpt><trkpt lat="44.686296933071766" lon="9.239525296172454"><ele>1419.0</ele><time>2026-05-01T14:58:02Z</time></trkpt><trkpt lat="44.68632835457338" lon="9.23970673019574"><ele>1420.6</ele><time>2026-05-01T14:58:04Z</time></trkpt><trkpt lat="44.68629710775938" lon="9.239806964123323"><ele>1422.2</ele><time>2026-05-01T14:58:05Z</time></trkpt><trkpt lat="44.68628461629846" lon="9.239956357011135"><ele>1423.8</ele><time>2026-05-01T14:58:06Z</time></trkpt><trkpt lat="44.68630087833144" lon="9.240118248112468"><ele>1425.3999999999999</ele><time>2026-05-01T14:58:07Z</time></trkpt><trkpt lat="44.68628481443577" lon="9.240307431589857"><ele>1427.0</ele><time>2026-05-01T14:58:08.001Z</time></trkpt><trkpt lat="44.686299176703564" lon="9.240479836463923"><ele>1427.0</ele><time>2026-05-01T14:58:09.001Z</time></trkpt><trkpt lat="44.68628400579232" lon="9.240632710713149"><ele>1427.0</ele><time>2026-05-01T14:58:10.001Z</time></trkpt><trkpt lat="44.686289757121585" lon="9.240825209077236"><ele>1427.0</ele><time>2026-05-01T14:58:11.001Z</time></trkpt><trkpt lat="44.686272458129444" lon="9.24101071143711"><ele>1427.0</ele><time>2026-05-01T14:58:12.001Z</time></trkpt><trkpt lat="44.68625947671348" lon="9.241198208195028"><ele>1427.0</ele><time>2026-05-01T14:58:13.001Z</time></trkpt><trkpt lat="44.686249438345435" lon="9.241377361221417"><ele>1427.0</ele><time>2026-05-01T14:58:14.001Z</time></trkpt><trkpt lat="44.68625863690374" lon="9.241554853116442"><ele>1427.0</ele><time>2026-05-01T14:58:15.001Z</time></trkpt><trkpt lat="44.68624765291652" lon="9.241716264903712"><ele>1427.0</ele><time>2026-05-01T14:58:16.001Z</time></trkpt><trkpt lat="44.686246620537794" lon="9.24183585071929"><ele>1428.5</ele><time>2026-05-01T14:58:17.001Z</time></trkpt><trkpt lat="44.686257754573774" lon="9.241958672639432"><ele>1430.0</ele><time>2026-05-01T14:58:18.001Z</time></trkpt><trkpt lat="44.686293177661945" lon="9.242057759158438"><ele>1431.5</ele><time>2026-05-01T14:58:19.001Z</time></trkpt><trkpt lat="44.68632268321617" lon="9.242161815730503"><ele>1433.0</ele><time>2026-05-01T14:58:20.001Z</time></trkpt><trkpt lat="44.68637080901447" lon="9.242279737967298"><ele>1434.5</ele><time>2026-05-01T14:58:21.001Z</time></trkpt><trkpt lat="44.68646385630457" lon="9.242349102880828"><ele>1436.0</ele><time>2026-05-01T14:58:22.001Z</time></trkpt><trkpt lat="44.686536805882085" lon="9.242414689669287"><ele>1435.5</ele><time>2026-05-01T14:58:23.001Z</time></trkpt><trkpt lat="44.68661619726986" lon="9.242451759923297"><ele>1435.0</ele><time>2026-05-01T14:58:24.001Z</time></trkpt><trkpt lat="44.68669568639996" lon="9.242516133316357"><ele>1434.5</ele><time>2026-05-01T14:58:25.001Z</time></trkpt><trkpt lat="44.686776783654885" lon="9.242541826986539"><ele>1434.0</ele><time>2026-05-01T14:58:26.001Z</time></trkpt><trkpt lat="44.6868728140144" lon="9.242534695535555"><ele>1433.5</ele><time>2026-05-01T14:58:27.001Z</time></trkpt><trkpt lat="44.68696422931054" lon="9.242504571261962"><ele>1433.0</ele><time>2026-05-01T14:58:28.001Z</time></trkpt><trkpt lat="44.687037154005615" lon="9.242517585398913"><ele>1433.0</ele><time>2026-05-01T14:58:29.001Z</time></trkpt><trkpt lat="44.687108764793756" lon="9.242515429277477"><ele>1433.0</ele><time>2026-05-01T14:58:30.001Z</time></trkpt><trkpt lat="44.687224143868406" lon="9.242535381695347"><ele>1433.0</ele><time>2026-05-01T14:58:32.001Z</time></trkpt><trkpt lat="44.68727794599707" lon="9.24261198476379"><ele>1433.0</ele><time>2026-05-01T14:58:34.001Z</time></trkpt><trkpt lat="44.68731961906289" lon="9.242847954463105"><ele>1433.0</ele><time>2026-05-01T14:58:36.001Z</time></trkpt><trkpt lat="44.68732238105651" lon="9.243011726750257"><ele>1435.8000000000002</ele><time>2026-05-01T14:58:37.001Z</time></trkpt><trkpt lat="44.68732076389523" lon="9.243170875277281"><ele>1438.6</ele><time>2026-05-01T14:58:38.001Z</time></trkpt><trkpt lat="44.687310730006786" lon="9.24332200908088"><ele>1441.4</ele><time>2026-05-01T14:58:39.001Z</time></trkpt><trkpt lat="44.687304561463264" lon="9.243475117532746"><ele>1444.1999999999998</ele><time>2026-05-01T14:58:40.001Z</time></trkpt><trkpt lat="44.68729159200476" lon="9.243624714587133"><ele>1447.0</ele><time>2026-05-01T14:58:41.001Z</time></trkpt><trkpt lat="44.6872948216981" lon="9.24381286859952"><ele>1449.0</ele><time>2026-05-01T14:58:42.001Z</time></trkpt><trkpt lat="44.687288487025505" lon="9.243972748152984"><ele>1451.0</ele><time>2026-05-01T14:58:43.001Z</time></trkpt><trkpt lat="44.68729907215919" lon="9.244115841942623"><ele>1453.0</ele><time>2026-05-01T14:58:44.001Z</time></trkpt><trkpt lat="44.68731016866517" lon="9.24425789800162"><ele>1455.0</ele><time>2026-05-01T14:58:45.001Z</time></trkpt><trkpt lat="44.687334715752996" lon="9.244421069077793"><ele>1457.0</ele><time>2026-05-01T14:58:46.001Z</time></trkpt><trkpt lat="44.68738018157072" lon="9.24460782478967"><ele>1457.0</ele><time>2026-05-01T14:58:47.001Z</time></trkpt><trkpt lat="44.687411408017006" lon="9.244764676698212"><ele>1457.0</ele><time>2026-05-01T14:58:48.001Z</time></trkpt><trkpt lat="44.687451449749354" lon="9.2449355320328"><ele>1457.0</ele><time>2026-05-01T14:58:49.001Z</time></trkpt><trkpt lat="44.68746338282117" lon="9.24507563801465"><ele>1457.0</ele><time>2026-05-01T14:58:50.001Z</time></trkpt><trkpt lat="44.687473704388914" lon="9.245258525651002"><ele>1458.75</ele><time>2026-05-01T14:58:51.001Z</time></trkpt><trkpt lat="44.68746537371592" lon="9.245438355146652"><ele>1460.5</ele><time>2026-05-01T14:58:52.001Z</time></trkpt><trkpt lat="44.687474009896896" lon="9.245608032457627"><ele>1462.25</ele><time>2026-05-01T14:58:53.001Z</time></trkpt><trkpt lat="44.68748721684537" lon="9.245764414373827"><ele>1464.0</ele><time>2026-05-01T14:58:54.001Z</time></trkpt><trkpt lat="44.687508267560304" lon="9.245930219841693"><ele>1464.8000000000002</ele><time>2026-05-01T14:58:55.002Z</time></trkpt><trkpt lat="44.68750542837068" lon="9.246088061020236"><ele>1465.6000000000001</ele><time>2026-05-01T14:58:56.002Z</time></trkpt><trkpt lat="44.68752380921447" lon="9.246233924022789"><ele>1466.4</ele><time>2026-05-01T14:58:57.002Z</time></trkpt><trkpt lat="44.68754695410624" lon="9.24637025693718"><ele>1467.2</ele><time>2026-05-01T14:58:58.002Z</time></trkpt><trkpt lat="44.687549932822684" lon="9.246537213508072"><ele>1468.0</ele><time>2026-05-01T14:58:59.002Z</time></trkpt><trkpt lat="44.68753670169994" lon="9.246685970822796"><ele>1470.2</ele><time>2026-05-01T14:59:00.002Z</time></trkpt><trkpt lat="44.68753707288592" lon="9.246844008310912"><ele>1472.4</ele><time>2026-05-01T14:59:01.002Z</time></trkpt><trkpt lat="44.68753209633738" lon="9.246987613251449"><ele>1474.6000000000001</ele><time>2026-05-01T14:59:02.002Z</time></trkpt><trkpt lat="44.68752706953918" lon="9.24712193057246"><ele>1476.8000000000002</ele><time>2026-05-01T14:59:03.002Z</time></trkpt><trkpt lat="44.68753522092277" lon="9.247226409436136"><ele>1479.0</ele><time>2026-05-01T14:59:04.002Z</time></trkpt><trkpt lat="44.68756568658178" lon="9.247341420962654"><ele>1481.6</ele><time>2026-05-01T14:59:05.002Z</time></trkpt><trkpt lat="44.68762609715887" lon="9.247459822271582"><ele>1484.2</ele><time>2026-05-01T14:59:06.002Z</time></trkpt><trkpt lat="44.68765650789383" lon="9.24759442400703"><ele>1486.8</ele><time>2026-05-01T14:59:07.002Z</time></trkpt><trkpt lat="44.68769670922155" lon="9.247702201569416"><ele>1489.3999999999999</ele><time>2026-05-01T14:59:08.002Z</time></trkpt><trkpt lat="44.687762748732084" lon="9.247821197551213"><ele>1492.0</ele><time>2026-05-01T14:59:09.002Z</time></trkpt><trkpt lat="44.68783479377718" lon="9.24791923130501"><ele>1488.3999999999999</ele><time>2026-05-01T14:59:10.002Z</time></trkpt><trkpt lat="44.68792042459667" lon="9.24800349018888"><ele>1484.8</ele><time>2026-05-01T14:59:11Z</time></trkpt><trkpt lat="44.68802141492611" lon="9.248089571165817"><ele>1481.2</ele><time>2026-05-01T14:59:12Z</time></trkpt><trkpt lat="44.68810834162805" lon="9.248153066895268"><ele>1477.6</ele><time>2026-05-01T14:59:13Z</time></trkpt><trkpt lat="44.68816575539336" lon="9.248200977679232"><ele>1474.0</ele><time>2026-05-01T14:59:14Z</time></trkpt><trkpt lat="44.68823061092172" lon="9.248287501372662"><ele>1474.0</ele><time>2026-05-01T14:59:16Z</time></trkpt><trkpt lat="44.68824365113035" lon="9.248443199167143"><ele>1474.0</ele><time>2026-05-01T14:59:18Z</time></trkpt><trkpt lat="44.688230341781534" lon="9.248664280123432"><ele>1474.0</ele><time>2026-05-01T14:59:20Z</time></trkpt><trkpt lat="44.68825348071674" lon="9.248791910655717"><ele>1474.0</ele><time>2026-05-01T14:59:21Z</time></trkpt><trkpt lat="44.68829669950151" lon="9.248934849918966"><ele>1473.0</ele><time>2026-05-01T14:59:22Z</time></trkpt><trkpt lat="44.68837475237692" lon="9.249031053604412"><ele>1472.0</ele><time>2026-05-01T14:59:23Z</time></trkpt><trkpt lat="44.688483646741496" lon="9.249125078523146"><ele>1471.0</ele><time>2026-05-01T14:59:24Z</time></trkpt><trkpt lat="44.688550940792695" lon="9.249191426789029"><ele>1470.0</ele><time>2026-05-01T14:59:25Z</time></trkpt><trkpt lat="44.688644372096455" lon="9.24926507971474"><ele>1469.0</ele><time>2026-05-01T14:59:26Z</time></trkpt><trkpt lat="44.688765933416924" lon="9.249317077808573"><ele>1469.0</ele><time>2026-05-01T14:59:27Z</time></trkpt><trkpt lat="44.6888733564824" lon="9.24934999531523"><ele>1469.0</ele><time>2026-05-01T14:59:28Z</time></trkpt><trkpt lat="44.688970901741165" lon="9.249376954271424"><ele>1469.0</ele><time>2026-05-01T14:59:29Z</time></trkpt><trkpt lat="44.68905419898981" lon="9.249399801252082"><ele>1469.0</ele><time>2026-05-01T14:59:30Z</time></trkpt><trkpt lat="44.689119943178255" lon="9.249439275562096"><ele>1469.0</ele><time>2026-05-01T14:59:31Z</time></trkpt><trkpt lat="44.68920945243355" lon="9.249498195561303"><ele>1469.0</ele><time>2026-05-01T14:59:33Z</time></trkpt><trkpt lat="44.689256602887355" lon="9.24958210045072"><ele>1469.0</ele><time>2026-05-01T14:59:35Z</time></trkpt><trkpt lat="44.68926376180374" lon="9.249676694154779"><ele>1469.0</ele><time>2026-05-01T14:59:36Z</time></trkpt><trkpt lat="44.68923114200546" lon="9.24981508199905"><ele>1469.0</ele><time>2026-05-01T14:59:38.001Z</time></trkpt><trkpt lat="44.689227303353555" lon="9.249990905509723"><ele>1469.0</ele><time>2026-05-01T14:59:40.001Z</time></trkpt><trkpt lat="44.689247473263855" lon="9.25014938254902"><ele>1472.2</ele><time>2026-05-01T14:59:42.001Z</time></trkpt><trkpt lat="44.689207347805734" lon="9.25027507208933"><ele>1475.4</ele><time>2026-05-01T14:59:44.001Z</time></trkpt><trkpt lat="44.68919204767021" lon="9.250423526802615"><ele>1478.6</ele><time>2026-05-01T14:59:46.001Z</time></trkpt><trkpt lat="44.68912641906466" lon="9.250576944857471"><ele>1481.8</ele><time>2026-05-01T14:59:48.001Z</time></trkpt><trkpt lat="44.68909250523932" lon="9.250728978204698"><ele>1485.0</ele><time>2026-05-01T14:59:50.001Z</time></trkpt><trkpt lat="44.68907218854344" lon="9.250814423520877"><ele>1486.8</ele><time>2026-05-01T14:59:51.001Z</time></trkpt><trkpt lat="44.689122000130084" lon="9.250935493421702"><ele>1488.6</ele><time>2026-05-01T14:59:53.001Z</time></trkpt><trkpt lat="44.68925948825833" lon="9.25096458809615"><ele>1490.4</ele><time>2026-05-01T14:59:55.001Z</time></trkpt><trkpt lat="44.689331495411466" lon="9.250967688368368"><ele>1492.2</ele><time>2026-05-01T14:59:56.001Z</time></trkpt><trkpt lat="44.689398874970166" lon="9.25096165799287"><ele>1494.0</ele><time>2026-05-01T14:59:57.001Z</time></trkpt><trkpt lat="44.68948622585054" lon="9.25095401406653"><ele>1490.2</ele><time>2026-05-01T14:59:58.001Z</time></trkpt><trkpt lat="44.6895896782815" lon="9.250992329089296"><ele>1486.4</ele><time>2026-05-01T14:59:59.001Z</time></trkpt><trkpt lat="44.68966601889433" lon="9.25103239859272"><ele>1482.6</ele><time>2026-05-01T15:00:00.001Z</time></trkpt><trkpt lat="44.689744773451984" lon="9.251103681956424"><ele>1478.8</ele><time>2026-05-01T15:00:01.001Z</time></trkpt><trkpt lat="44.68982214137086" lon="9.251128415381967"><ele>1475.0</ele><time>2026-05-01T15:00:02.001Z</time></trkpt><trkpt lat="44.68991064081368" lon="9.251104069545855"><ele>1475.0</ele><time>2026-05-01T15:00:03.001Z</time></trkpt><trkpt lat="44.68998268166759" lon="9.251023660170945"><ele>1475.0</ele><time>2026-05-01T15:00:04.001Z</time></trkpt><trkpt lat="44.69003610217198" lon="9.250975689557714"><ele>1475.0</ele><time>2026-05-01T15:00:05.001Z</time></trkpt><trkpt lat="44.69015191121863" lon="9.250899964500027"><ele>1475.0</ele><time>2026-05-01T15:00:07.001Z</time></trkpt><trkpt lat="44.69021651547314" lon="9.250889559433292"><ele>1475.0</ele><time>2026-05-01T15:00:08.001Z</time></trkpt><trkpt lat="44.69029528482363" lon="9.250876253140113"><ele>1475.0</ele><time>2026-05-01T15:00:09.001Z</time></trkpt><trkpt lat="44.69037269761112" lon="9.250892745328938"><ele>1474.4</ele><time>2026-05-01T15:00:10.001Z</time></trkpt><trkpt lat="44.69045469748455" lon="9.250927353459549"><ele>1473.8</ele><time>2026-05-01T15:00:11.001Z</time></trkpt><trkpt lat="44.69054064529093" lon="9.250972204968226"><ele>1473.1999999999998</ele><time>2026-05-01T15:00:12.001Z</time></trkpt><trkpt lat="44.69063685891911" lon="9.251020085068117"><ele>1472.6</ele><time>2026-05-01T15:00:13.001Z</time></trkpt><trkpt lat="44.69076542069046" lon="9.251042596398898"><ele>1472.0</ele><time>2026-05-01T15:00:14.001Z</time></trkpt><trkpt lat="44.690854595654145" lon="9.251020013781202"><ele>1472.0</ele><time>2026-05-01T15:00:15.001Z</time></trkpt><trkpt lat="44.6909694525799" lon="9.250995089558645"><ele>1472.0</ele><time>2026-05-01T15:00:16.001Z</time></trkpt><trkpt lat="44.69107827952872" lon="9.250984683016704"><ele>1472.0</ele><time>2026-05-01T15:00:17.001Z</time></trkpt><trkpt lat="44.691160727195914" lon="9.251000702253384"><ele>1472.0</ele><time>2026-05-01T15:00:18.001Z</time></trkpt><trkpt lat="44.69130775946455" lon="9.250993204257705"><ele>1470.1666666666667</ele><time>2026-05-01T15:00:20.001Z</time></trkpt><trkpt lat="44.69138951248537" lon="9.250962599853693"><ele>1468.3333333333335</ele><time>2026-05-01T15:00:21.001Z</time></trkpt><trkpt lat="44.691471190869784" lon="9.25092561973556"><ele>1466.5</ele><time>2026-05-01T15:00:22.001Z</time></trkpt><trkpt lat="44.691534902513396" lon="9.250933768784064"><ele>1464.6666666666667</ele><time>2026-05-01T15:00:23.001Z</time></trkpt><trkpt lat="44.6915940312533" lon="9.250993730823447"><ele>1462.8333333333333</ele><time>2026-05-01T15:00:24.001Z</time></trkpt><trkpt lat="44.691655085446655" lon="9.25111555882039"><ele>1461.0</ele><time>2026-05-01T15:00:25.001Z</time></trkpt><trkpt lat="44.691714319757835" lon="9.251270064286219"><ele>1461.0</ele><time>2026-05-01T15:00:26.001Z</time></trkpt><trkpt lat="44.69181247442858" lon="9.251388770525663"><ele>1461.0</ele><time>2026-05-01T15:00:27.001Z</time></trkpt><trkpt lat="44.69189884038545" lon="9.251505291129572"><ele>1461.0</ele><time>2026-05-01T15:00:28.001Z</time></trkpt><trkpt lat="44.69197613411754" lon="9.251602039610109"><ele>1461.0</ele><time>2026-05-01T15:00:29.001Z</time></trkpt><trkpt lat="44.6920415513795" lon="9.25167957797974"><ele>1461.0</ele><time>2026-05-01T15:00:30.001Z</time></trkpt><trkpt lat="44.69211648286242" lon="9.251767269461547"><ele>1462.0</ele><time>2026-05-01T15:00:31.001Z</time></trkpt><trkpt lat="44.69225033112441" lon="9.251825896422343"><ele>1463.0</ele><time>2026-05-01T15:00:33.002Z</time></trkpt><trkpt lat="44.692347742342236" lon="9.251825815545514"><ele>1464.0</ele><time>2026-05-01T15:00:34.002Z</time></trkpt><trkpt lat="44.69246977656131" lon="9.251826863005096"><ele>1465.0</ele><time>2026-05-01T15:00:35.002Z</time></trkpt><trkpt lat="44.692577807992635" lon="9.251777804936296"><ele>1465.0</ele><time>2026-05-01T15:00:36.002Z</time></trkpt><trkpt lat="44.692690383135655" lon="9.251706705046592"><ele>1465.0</ele><time>2026-05-01T15:00:37.002Z</time></trkpt><trkpt lat="44.69280135722359" lon="9.251672740268967"><ele>1465.0</ele><time>2026-05-01T15:00:38.002Z</time></trkpt><trkpt lat="44.692890008369616" lon="9.251611203955052"><ele>1465.0</ele><time>2026-05-01T15:00:39.002Z</time></trkpt><trkpt lat="44.69297929381456" lon="9.251577072493882"><ele>1465.0</ele><time>2026-05-01T15:00:40.002Z</time></trkpt><trkpt lat="44.693087279560245" lon="9.251586121241312"><ele>1464.6</ele><time>2026-05-01T15:00:41.002Z</time></trkpt><trkpt lat="44.6932018277849" lon="9.251564351251835"><ele>1464.2</ele><time>2026-05-01T15:00:42.002Z</time></trkpt><trkpt lat="44.6932999631925" lon="9.251509231307368"><ele>1463.8000000000002</ele><time>2026-05-01T15:00:43.002Z</time></trkpt><trkpt lat="44.69339003919805" lon="9.251484600514027"><ele>1463.4</ele><time>2026-05-01T15:00:44.002Z</time></trkpt><trkpt lat="44.693468722956744" lon="9.251503336094498"><ele>1463.0</ele><time>2026-05-01T15:00:45.002Z</time></trkpt><trkpt lat="44.693533679813385" lon="9.251531283149067"><ele>1462.2</ele><time>2026-05-01T15:00:46.002Z</time></trkpt><trkpt lat="44.69360308263759" lon="9.251593447985323"><ele>1461.4</ele><time>2026-05-01T15:00:47.002Z</time></trkpt><trkpt lat="44.693684747265706" lon="9.251685202810737"><ele>1460.6000000000001</ele><time>2026-05-01T15:00:48.002Z</time></trkpt><trkpt lat="44.69379071443607" lon="9.251766791377845"><ele>1459.8000000000002</ele><time>2026-05-01T15:00:49.002Z</time></trkpt><trkpt lat="44.693905274792435" lon="9.251817693266233"><ele>1459.0</ele><time>2026-05-01T15:00:50.002Z</time></trkpt><trkpt lat="44.69401365829857" lon="9.25184382444468"><ele>1459.0</ele><time>2026-05-01T15:00:51.002Z</time></trkpt><trkpt lat="44.69412282717025" lon="9.251859767697232"><ele>1459.0</ele><time>2026-05-01T15:00:52.002Z</time></trkpt><trkpt lat="44.694232249549046" lon="9.25187334465881"><ele>1459.0</ele><time>2026-05-01T15:00:53.002Z</time></trkpt><trkpt lat="44.694341053698" lon="9.251870377647405"><ele>1459.0</ele><time>2026-05-01T15:00:54.002Z</time></trkpt><trkpt lat="44.69443577679785" lon="9.251923604996183"><ele>1459.0</ele><time>2026-05-01T15:00:55.002Z</time></trkpt><trkpt lat="44.69453613921385" lon="9.251972892289949"><ele>1457.4</ele><time>2026-05-01T15:00:56.002Z</time></trkpt><trkpt lat="44.69464135210386" lon="9.252022086405246"><ele>1455.8000000000002</ele><time>2026-05-01T15:00:57.002Z</time></trkpt><trkpt lat="44.694738865192534" lon="9.252046915775553"><ele>1454.1999999999998</ele><time>2026-05-01T15:00:58.002Z</time></trkpt><trkpt lat="44.69483960997927" lon="9.252049859169297"><ele>1452.6</ele><time>2026-05-01T15:00:59.002Z</time></trkpt><trkpt lat="44.69495581560118" lon="9.252047245683958"><ele>1451.0</ele><time>2026-05-01T15:01:00.002Z</time></trkpt><trkpt lat="44.69505761670015" lon="9.252044128650537"><ele>1451.0</ele><time>2026-05-01T15:01:01.002Z</time></trkpt><trkpt lat="44.695152980874276" lon="9.252043352897736"><ele>1451.0</ele><time>2026-05-01T15:01:02.002Z</time></trkpt><trkpt lat="44.695248357191076" lon="9.252030085488434"><ele>1451.0</ele><time>2026-05-01T15:01:03.002Z</time></trkpt><trkpt lat="44.695336980886275" lon="9.2520178275377"><ele>1451.0</ele><time>2026-05-01T15:01:04.002Z</time></trkpt><trkpt lat="44.695431192108096" lon="9.252012863275725"><ele>1451.0</ele><time>2026-05-01T15:01:05.002Z</time></trkpt><trkpt lat="44.69552810002622" lon="9.252018985777568"><ele>1449.0</ele><time>2026-05-01T15:01:06.002Z</time></trkpt><trkpt lat="44.69560603350969" lon="9.252035240101119"><ele>1447.0</ele><time>2026-05-01T15:01:07.002Z</time></trkpt><trkpt lat="44.69568025746504" lon="9.252053379789464"><ele>1445.0</ele><time>2026-05-01T15:01:08.002Z</time></trkpt><trkpt lat="44.69575287270978" lon="9.252074666052113"><ele>1443.0</ele><time>2026-05-01T15:01:09.002Z</time></trkpt><trkpt lat="44.69583974930962" lon="9.252111495998687"><ele>1441.0</ele><time>2026-05-01T15:01:10.002Z</time></trkpt><trkpt lat="44.69591971800294" lon="9.2521817765142"><ele>1439.0</ele><time>2026-05-01T15:01:11.002Z</time></trkpt><trkpt lat="44.696005531820596" lon="9.252287699462876"><ele>1438.0</ele><time>2026-05-01T15:01:12.002Z</time></trkpt><trkpt lat="44.696105144793115" lon="9.252403416717296"><ele>1437.0</ele><time>2026-05-01T15:01:13.002Z</time></trkpt><trkpt lat="44.696211256955706" lon="9.252530793698968"><ele>1436.0</ele><time>2026-05-01T15:01:14.002Z</time></trkpt><trkpt lat="44.69631407581944" lon="9.252659950657447"><ele>1435.0</ele><time>2026-05-01T15:01:15.002Z</time></trkpt><trkpt lat="44.696418274890554" lon="9.252794441594753"><ele>1435.0</ele><time>2026-05-01T15:01:16.002Z</time></trkpt><trkpt lat="44.69654609108897" lon="9.252914507119549"><ele>1435.0</ele><time>2026-05-01T15:01:17Z</time></trkpt><trkpt lat="44.696655055244015" lon="9.253042527580755"><ele>1435.0</ele><time>2026-05-01T15:01:18Z</time></trkpt><trkpt lat="44.69677919756062" lon="9.253124665386771"><ele>1435.0</ele><time>2026-05-01T15:01:19Z</time></trkpt><trkpt lat="44.69689217847865" lon="9.253207455017952"><ele>1436.0</ele><time>2026-05-01T15:01:20Z</time></trkpt><trkpt lat="44.69699004230765" lon="9.253312541236035"><ele>1437.0</ele><time>2026-05-01T15:01:21Z</time></trkpt><trkpt lat="44.69708331786114" lon="9.253421517525494"><ele>1438.0</ele><time>2026-05-01T15:01:22Z</time></trkpt><trkpt lat="44.69717312240018" lon="9.253515331496192"><ele>1439.0</ele><time>2026-05-01T15:01:23Z</time></trkpt><trkpt lat="44.697264829282524" lon="9.253585775822074"><ele>1439.0</ele><time>2026-05-01T15:01:24Z</time></trkpt><trkpt lat="44.69736891672107" lon="9.253607326508043"><ele>1439.0</ele><time>2026-05-01T15:01:25Z</time></trkpt><trkpt lat="44.697482149751906" lon="9.253585502260995"><ele>1439.0</ele><time>2026-05-01T15:01:26Z</time></trkpt><trkpt lat="44.69760198917208" lon="9.253569178969263"><ele>1439.0</ele><time>2026-05-01T15:01:27Z</time></trkpt><trkpt lat="44.697713585106456" lon="9.253553978500424"><ele>1437.25</ele><time>2026-05-01T15:01:28Z</time></trkpt><trkpt lat="44.69782058470397" lon="9.253521408635159"><ele>1435.5</ele><time>2026-05-01T15:01:29Z</time></trkpt><trkpt lat="44.69792773262343" lon="9.253456918834534"><ele>1433.75</ele><time>2026-05-01T15:01:30Z</time></trkpt><trkpt lat="44.69803236865942" lon="9.253367893483114"><ele>1432.0</ele><time>2026-05-01T15:01:31Z</time></trkpt><trkpt lat="44.6981412834105" lon="9.253274379180581"><ele>1432.0</ele><time>2026-05-01T15:01:32Z</time></trkpt><trkpt lat="44.69824488444463" lon="9.253187077533378"><ele>1432.0</ele><time>2026-05-01T15:01:33Z</time></trkpt><trkpt lat="44.69834557363499" lon="9.253106561788014"><ele>1432.0</ele><time>2026-05-01T15:01:34Z</time></trkpt><trkpt lat="44.69845127291073" lon="9.253041641766185"><ele>1432.0</ele><time>2026-05-01T15:01:35Z</time></trkpt><trkpt lat="44.69854730011404" lon="9.252976313643398"><ele>1431.8333333333333</ele><time>2026-05-01T15:01:36Z</time></trkpt><trkpt lat="44.69863884935432" lon="9.252967729296246"><ele>1431.6666666666665</ele><time>2026-05-01T15:01:37Z</time></trkpt><trkpt lat="44.69871195697046" lon="9.252984502080663"><ele>1431.5</ele><time>2026-05-01T15:01:38Z</time></trkpt><trkpt lat="44.69876764148877" lon="9.253027381155812"><ele>1431.3333333333333</ele><time>2026-05-01T15:01:39Z</time></trkpt><trkpt lat="44.69881966041916" lon="9.253116377451983"><ele>1431.1666666666667</ele><time>2026-05-01T15:01:40Z</time></trkpt><trkpt lat="44.69887175723609" lon="9.253213165944937"><ele>1431.0</ele><time>2026-05-01T15:01:41Z</time></trkpt><trkpt lat="44.69896195699839" lon="9.253282869614855"><ele>1431.0</ele><time>2026-05-01T15:01:42Z</time></trkpt><trkpt lat="44.699049875177536" lon="9.25330835837437"><ele>1431.0</ele><time>2026-05-01T15:01:43Z</time></trkpt><trkpt lat="44.69914430623022" lon="9.253296175362884"><ele>1431.0</ele><time>2026-05-01T15:01:44Z</time></trkpt><trkpt lat="44.69924836021495" lon="9.253291404983987"><ele>1431.0</ele><time>2026-05-01T15:01:45Z</time></trkpt><trkpt lat="44.699362691846936" lon="9.253285635982374"><ele>1431.0</ele><time>2026-05-01T15:01:46Z</time></trkpt><trkpt lat="44.699464600499525" lon="9.253265109592816"><ele>1431.0</ele><time>2026-05-01T15:01:47Z</time></trkpt><trkpt lat="44.69956645981155" lon="9.253238040249034"><ele>1431.0</ele><time>2026-05-01T15:01:48Z</time></trkpt><trkpt lat="44.69966599270417" lon="9.253187929623536"><ele>1431.0</ele><time>2026-05-01T15:01:49Z</time></trkpt><trkpt lat="44.69975297289817" lon="9.253122744164338"><ele>1431.0</ele><time>2026-05-01T15:01:50Z</time></trkpt><trkpt lat="44.69988914854419" lon="9.253067592947614"><ele>1426.25</ele><time>2026-05-01T15:01:51Z</time></trkpt><trkpt lat="44.70000592456967" lon="9.25298668273596"><ele>1421.5</ele><time>2026-05-01T15:01:52.001Z</time></trkpt><trkpt lat="44.70011110759492" lon="9.252910071141992"><ele>1416.75</ele><time>2026-05-01T15:01:53.001Z</time></trkpt><trkpt lat="44.70021500094889" lon="9.252825823698267"><ele>1412.0</ele><time>2026-05-01T15:01:54.001Z</time></trkpt><trkpt lat="44.70032674469336" lon="9.252737784107985"><ele>1412.0</ele><time>2026-05-01T15:01:55.001Z</time></trkpt><trkpt lat="44.70043985123134" lon="9.252667435166922"><ele>1412.0</ele><time>2026-05-01T15:01:56.001Z</time></trkpt><trkpt lat="44.700561294485276" lon="9.252582430702239"><ele>1412.0</ele><time>2026-05-01T15:01:57.001Z</time></trkpt><trkpt lat="44.70069487065425" lon="9.252502308591454"><ele>1412.0</ele><time>2026-05-01T15:01:58.001Z</time></trkpt><trkpt lat="44.700808045892806" lon="9.252428393162694"><ele>1412.0</ele><time>2026-05-01T15:01:59.001Z</time></trkpt><trkpt lat="44.70090929442203" lon="9.252344252697648"><ele>1412.0</ele><time>2026-05-01T15:02:00.001Z</time></trkpt><trkpt lat="44.70102614557448" lon="9.252306164235884"><ele>1412.0</ele><time>2026-05-01T15:02:01.001Z</time></trkpt><trkpt lat="44.70112491433115" lon="9.25226898806536"><ele>1412.0</ele><time>2026-05-01T15:02:02.001Z</time></trkpt><trkpt lat="44.701212805753066" lon="9.25225875543811"><ele>1412.0</ele><time>2026-05-01T15:02:03.001Z</time></trkpt><trkpt lat="44.701285358204025" lon="9.252259833878313"><ele>1410.1999999999998</ele><time>2026-05-01T15:02:04.001Z</time></trkpt><trkpt lat="44.701358950224915" lon="9.252312584472863"><ele>1408.4</ele><time>2026-05-01T15:02:05.001Z</time></trkpt><trkpt lat="44.70143423356762" lon="9.25239444511206"><ele>1406.6</ele><time>2026-05-01T15:02:06.001Z</time></trkpt><trkpt lat="44.70151055817899" lon="9.25249602245775"><ele>1404.8000000000002</ele><time>2026-05-01T15:02:07.001Z</time></trkpt><trkpt lat="44.70159310311922" lon="9.252577532605239"><ele>1403.0</ele><time>2026-05-01T15:02:08.001Z</time></trkpt><trkpt lat="44.701689911437875" lon="9.25266223926226"><ele>1403.0</ele><time>2026-05-01T15:02:09.001Z</time></trkpt><trkpt lat="44.701785966299035" lon="9.25274108882629"><ele>1403.0</ele><time>2026-05-01T15:02:10.001Z</time></trkpt><trkpt lat="44.70184404438828" lon="9.252860389639428"><ele>1403.0</ele><time>2026-05-01T15:02:11.001Z</time></trkpt><trkpt lat="44.70191800285069" lon="9.252935369827341"><ele>1403.0</ele><time>2026-05-01T15:02:12.001Z</time></trkpt><trkpt lat="44.70196727567762" lon="9.252997891776191"><ele>1403.0</ele><time>2026-05-01T15:02:13.001Z</time></trkpt><trkpt lat="44.70201294771958" lon="9.253071468487958"><ele>1403.0</ele><time>2026-05-01T15:02:14.001Z</time></trkpt><trkpt lat="44.702053647100605" lon="9.253166678563149"><ele>1402.1666666666667</ele><time>2026-05-01T15:02:15.001Z</time></trkpt><trkpt lat="44.70210175465538" lon="9.253257749248464"><ele>1401.3333333333335</ele><time>2026-05-01T15:02:16.001Z</time></trkpt><trkpt lat="44.70215637481021" lon="9.253325099108407"><ele>1400.5</ele><time>2026-05-01T15:02:17.001Z</time></trkpt><trkpt lat="44.70222281330243" lon="9.253357930284647"><ele>1399.6666666666667</ele><time>2026-05-01T15:02:18.001Z</time></trkpt><trkpt lat="44.702313822482125" lon="9.253442446420527"><ele>1398.8333333333333</ele><time>2026-05-01T15:02:20.001Z</time></trkpt><trkpt lat="44.70240389647557" lon="9.253435773331649"><ele>1398.0</ele><time>2026-05-01T15:02:21.001Z</time></trkpt><trkpt lat="44.70247478232501" lon="9.253397279176506"><ele>1398.0</ele><time>2026-05-01T15:02:22.001Z</time></trkpt><trkpt lat="44.7025541456681" lon="9.253369173989698"><ele>1398.0</ele><time>2026-05-01T15:02:23.001Z</time></trkpt><trkpt lat="44.702616450895825" lon="9.253347641735404"><ele>1398.0</ele><time>2026-05-01T15:02:24.001Z</time></trkpt><trkpt lat="44.70267905648905" lon="9.253364480060293"><ele>1398.0</ele><time>2026-05-01T15:02:25.001Z</time></trkpt><trkpt lat="44.70277146844566" lon="9.25344107028563"><ele>1398.0</ele><time>2026-05-01T15:02:27.001Z</time></trkpt><trkpt lat="44.70284421020962" lon="9.253555295396133"><ele>1398.0</ele><time>2026-05-01T15:02:28.001Z</time></trkpt><trkpt lat="44.70289762447991" lon="9.253752997780918"><ele>1395.0</ele><time>2026-05-01T15:02:29.001Z</time></trkpt><trkpt lat="44.702945772894836" lon="9.253941692765736"><ele>1392.0</ele><time>2026-05-01T15:02:30.001Z</time></trkpt><trkpt lat="44.70297051052171" lon="9.254118477792712"><ele>1389.0</ele><time>2026-05-01T15:02:31.001Z</time></trkpt><trkpt lat="44.70300854289454" lon="9.254260267064318"><ele>1386.0</ele><time>2026-05-01T15:02:32.001Z</time></trkpt><trkpt lat="44.70307475259467" lon="9.254371783623599"><ele>1386.0</ele><time>2026-05-01T15:02:33.001Z</time></trkpt><trkpt lat="44.70313838380374" lon="9.254487796929968"><ele>1386.0</ele><time>2026-05-01T15:02:34.001Z</time></trkpt><trkpt lat="44.703201118026485" lon="9.25459721595063"><ele>1386.0</ele><time>2026-05-01T15:02:35.001Z</time></trkpt><trkpt lat="44.70327835402993" lon="9.254682317764876"><ele>1386.0</ele><time>2026-05-01T15:02:36.001Z</time></trkpt><trkpt lat="44.70333811667512" lon="9.254791851378984"><ele>1386.0</ele><time>2026-05-01T15:02:37.001Z</time></trkpt><trkpt lat="44.70339031806273" lon="9.254936274147088"><ele>1387.6</ele><time>2026-05-01T15:02:38.001Z</time></trkpt><trkpt lat="44.70348562393886" lon="9.255031444354225"><ele>1389.1999999999998</ele><time>2026-05-01T15:02:39.001Z</time></trkpt><trkpt lat="44.70358095056207" lon="9.255111641119834"><ele>1390.8000000000002</ele><time>2026-05-01T15:02:40.001Z</time></trkpt><trkpt lat="44.70367195983162" lon="9.255169043209431"><ele>1392.4</ele><time>2026-05-01T15:02:41.001Z</time></trkpt><trkpt lat="44.703765867386" lon="9.255193024070206"><ele>1394.0</ele><time>2026-05-01T15:02:42.001Z</time></trkpt><trkpt lat="44.7038502844342" lon="9.255199645390736"><ele>1394.0</ele><time>2026-05-01T15:02:43.001Z</time></trkpt><trkpt lat="44.70394339126381" lon="9.255174838312746"><ele>1394.0</ele><time>2026-05-01T15:02:44.001Z</time></trkpt><trkpt lat="44.70405212340492" lon="9.255119139831"><ele>1394.0</ele><time>2026-05-01T15:02:45.001Z</time></trkpt><trkpt lat="44.704155141644435" lon="9.255059328812859"><ele>1394.0</ele><time>2026-05-01T15:02:46.002Z</time></trkpt><trkpt lat="44.70426589515473" lon="9.255022928387508"><ele>1394.0</ele><time>2026-05-01T15:02:47.002Z</time></trkpt><trkpt lat="44.704377603528926" lon="9.255012207513744"><ele>1393.4</ele><time>2026-05-01T15:02:48.002Z</time></trkpt><trkpt lat="44.704485599523885" lon="9.254991492263787"><ele>1392.8000000000002</ele><time>2026-05-01T15:02:49.002Z</time></trkpt><trkpt lat="44.70458855451056" lon="9.254948255878555"><ele>1392.1999999999998</ele><time>2026-05-01T15:02:50.002Z</time></trkpt><trkpt lat="44.70468778222181" lon="9.25490411696312"><ele>1391.6</ele><time>2026-05-01T15:02:51.002Z</time></trkpt><trkpt lat="44.70478536192256" lon="9.254851417377452"><ele>1391.0</ele><time>2026-05-01T15:02:52.002Z</time></trkpt><trkpt lat="44.70486457961486" lon="9.254815812689122"><ele>1391.0</ele><time>2026-05-01T15:02:53.002Z</time></trkpt><trkpt lat="44.70494300029137" lon="9.254797179359802"><ele>1391.0</ele><time>2026-05-01T15:02:54.002Z</time></trkpt><trkpt lat="44.70503372805163" lon="9.254795542945262"><ele>1391.0</ele><time>2026-05-01T15:02:55.002Z</time></trkpt><trkpt lat="44.70513148941325" lon="9.254814603391637"><ele>1391.0</ele><time>2026-05-01T15:02:56.002Z</time></trkpt><trkpt lat="44.705238354780796" lon="9.254840193055502"><ele>1391.0</ele><time>2026-05-01T15:02:57.002Z</time></trkpt><trkpt lat="44.705333880044535" lon="9.254903552423183"><ele>1390.6</ele><time>2026-05-01T15:02:58.002Z</time></trkpt><trkpt lat="44.70541177592177" lon="9.254965927838166"><ele>1390.1999999999998</ele><time>2026-05-01T15:02:59.002Z</time></trkpt><trkpt lat="44.70550209763208" lon="9.254927173515155"><ele>1389.8000000000002</ele><time>2026-05-01T15:03:00.002Z</time></trkpt><trkpt lat="44.70560835313977" lon="9.254888200902656"><ele>1389.4</ele><time>2026-05-01T15:03:01.002Z</time></trkpt><trkpt lat="44.70569054726685" lon="9.254803892323453"><ele>1389.0</ele><time>2026-05-01T15:03:02.002Z</time></trkpt><trkpt lat="44.705780468590376" lon="9.254761306120583"><ele>1384.6</ele><time>2026-05-01T15:03:03.002Z</time></trkpt><trkpt lat="44.70588221285302" lon="9.254732566703769"><ele>1380.2</ele><time>2026-05-01T15:03:04.002Z</time></trkpt><trkpt lat="44.705988201572545" lon="9.254731070139842"><ele>1375.8</ele><time>2026-05-01T15:03:05.002Z</time></trkpt><trkpt lat="44.706104377851986" lon="9.25474459125503"><ele>1371.3999999999999</ele><time>2026-05-01T15:03:06.002Z</time></trkpt><trkpt lat="44.70620462750735" lon="9.254770800360157"><ele>1367.0</ele><time>2026-05-01T15:03:07.002Z</time></trkpt><trkpt lat="44.70631237893402" lon="9.254773842577254"><ele>1368.8</ele><time>2026-05-01T15:03:08.002Z</time></trkpt><trkpt lat="44.70640771836826" lon="9.25478165069803"><ele>1370.6</ele><time>2026-05-01T15:03:09.002Z</time></trkpt><trkpt lat="44.70650418607767" lon="9.254789031310468"><ele>1372.3999999999999</ele><time>2026-05-01T15:03:10.002Z</time></trkpt><trkpt lat="44.70660612933325" lon="9.254828965525734"><ele>1374.1999999999998</ele><time>2026-05-01T15:03:11.002Z</time></trkpt><trkpt lat="44.70670245532473" lon="9.254892844233595"><ele>1376.0</ele><time>2026-05-01T15:03:12.002Z</time></trkpt><trkpt lat="44.70679081211739" lon="9.254972837565333"><ele>1376.0</ele><time>2026-05-01T15:03:13.002Z</time></trkpt><trkpt lat="44.706872983032085" lon="9.255053354404222"><ele>1376.0</ele><time>2026-05-01T15:03:14.002Z</time></trkpt><trkpt lat="44.70694524638743" lon="9.255149024164849"><ele>1376.0</ele><time>2026-05-01T15:03:15.002Z</time></trkpt><trkpt lat="44.70700497669101" lon="9.255237365771974"><ele>1376.0</ele><time>2026-05-01T15:03:16.002Z</time></trkpt><trkpt lat="44.70706806320242" lon="9.255333821515217"><ele>1376.0</ele><time>2026-05-01T15:03:17.002Z</time></trkpt><trkpt lat="44.70712384678446" lon="9.255458740566707"><ele>1373.25</ele><time>2026-05-01T15:03:18.002Z</time></trkpt><trkpt lat="44.70717817462448" lon="9.255590560519062"><ele>1370.5</ele><time>2026-05-01T15:03:19.002Z</time></trkpt><trkpt lat="44.707275508381024" lon="9.255728175153214"><ele>1367.75</ele><time>2026-05-01T15:03:20.002Z</time></trkpt><trkpt lat="44.707327451001184" lon="9.255891175721391"><ele>1365.0</ele><time>2026-05-01T15:03:21.002Z</time></trkpt><trkpt lat="44.70738505245629" lon="9.2560295521702"><ele>1365.0</ele><time>2026-05-01T15:03:22.002Z</time></trkpt><trkpt lat="44.70744998368067" lon="9.256163682603692"><ele>1365.0</ele><time>2026-05-01T15:03:23Z</time></trkpt><trkpt lat="44.707500796794996" lon="9.256291282161206"><ele>1365.0</ele><time>2026-05-01T15:03:24Z</time></trkpt><trkpt lat="44.70759217542541" lon="9.256390347815087"><ele>1365.0</ele><time>2026-05-01T15:03:25Z</time></trkpt><trkpt lat="44.70768977938712" lon="9.256479426203073"><ele>1362.4</ele><time>2026-05-01T15:03:26Z</time></trkpt><trkpt lat="44.70777935377753" lon="9.256561282811013"><ele>1359.8</ele><time>2026-05-01T15:03:27Z</time></trkpt><trkpt lat="44.70786358081663" lon="9.256617270121255"><ele>1357.1999999999998</ele><time>2026-05-01T15:03:28Z</time></trkpt><trkpt lat="44.7079389475382" lon="9.256696180390927"><ele>1354.6</ele><time>2026-05-01T15:03:29Z</time></trkpt><trkpt lat="44.708008023560616" lon="9.256788354576617"><ele>1352.0</ele><time>2026-05-01T15:03:30Z</time></trkpt><trkpt lat="44.708074965855616" lon="9.256904417107958"><ele>1352.0</ele><time>2026-05-01T15:03:31Z</time></trkpt><trkpt lat="44.70813388971511" lon="9.257046820854484"><ele>1352.0</ele><time>2026-05-01T15:03:32Z</time></trkpt><trkpt lat="44.70817307566417" lon="9.257200725240452"><ele>1352.0</ele><time>2026-05-01T15:03:33Z</time></trkpt><trkpt lat="44.70823137314995" lon="9.257327749564254"><ele>1352.0</ele><time>2026-05-01T15:03:34Z</time></trkpt><trkpt lat="44.70828086023353" lon="9.25746482466987"><ele>1353.8</ele><time>2026-05-01T15:03:35Z</time></trkpt><trkpt lat="44.70828522444238" lon="9.257616938193559"><ele>1355.6</ele><time>2026-05-01T15:03:36Z</time></trkpt><trkpt lat="44.7082968333892" lon="9.257773860796354"><ele>1357.3999999999999</ele><time>2026-05-01T15:03:37Z</time></trkpt><trkpt lat="44.708327858244516" lon="9.25791252176802"><ele>1359.1999999999998</ele><time>2026-05-01T15:03:38Z</time></trkpt><trkpt lat="44.70836362602012" lon="9.258037565879976"><ele>1361.0</ele><time>2026-05-01T15:03:39Z</time></trkpt><trkpt lat="44.70841787661233" lon="9.258163468707485"><ele>1361.6</ele><time>2026-05-01T15:03:40Z</time></trkpt><trkpt lat="44.70848252796717" lon="9.258279931993581"><ele>1362.1999999999998</ele><time>2026-05-01T15:03:41Z</time></trkpt><trkpt lat="44.70855868522974" lon="9.258370069466054"><ele>1362.8000000000002</ele><time>2026-05-01T15:03:42Z</time></trkpt><trkpt lat="44.708606256193896" lon="9.258485857618911"><ele>1363.4</ele><time>2026-05-01T15:03:43Z</time></trkpt><trkpt lat="44.70863402902013" lon="9.258615654226197"><ele>1364.0</ele><time>2026-05-01T15:03:44Z</time></trkpt><trkpt lat="44.708667166421854" lon="9.25877859826242"><ele>1361.4</ele><time>2026-05-01T15:03:45Z</time></trkpt><trkpt lat="44.70868030152317" lon="9.258921416945029"><ele>1358.8000000000002</ele><time>2026-05-01T15:03:46Z</time></trkpt><trkpt lat="44.708709411643184" lon="9.259055296002664"><ele>1356.1999999999998</ele><time>2026-05-01T15:03:47.001Z</time></trkpt><trkpt lat="44.70875308713915" lon="9.259178238431518"><ele>1353.6</ele><time>2026-05-01T15:03:48.001Z</time></trkpt><trkpt lat="44.708804919781066" lon="9.259281124976596"><ele>1351.0</ele><time>2026-05-01T15:03:49.001Z</time></trkpt><trkpt lat="44.70887875488638" lon="9.259340823251621"><ele>1351.0</ele><time>2026-05-01T15:03:50.001Z</time></trkpt><trkpt lat="44.70894365506133" lon="9.259401915424966"><ele>1351.0</ele><time>2026-05-01T15:03:51.001Z</time></trkpt><trkpt lat="44.709023877721016" lon="9.259454885683738"><ele>1351.0</ele><time>2026-05-01T15:03:52.001Z</time></trkpt><trkpt lat="44.70910702653841" lon="9.259511038752716"><ele>1351.0</ele><time>2026-05-01T15:03:53.001Z</time></trkpt><trkpt lat="44.70920232011667" lon="9.259564858308256"><ele>1351.0</ele><time>2026-05-01T15:03:54.001Z</time></trkpt><trkpt lat="44.709299047272026" lon="9.259601201614696"><ele>1351.0</ele><time>2026-05-01T15:03:55.001Z</time></trkpt><trkpt lat="44.709395700574994" lon="9.259647411161467"><ele>1351.0</ele><time>2026-05-01T15:03:56.001Z</time></trkpt><trkpt lat="44.70948722736252" lon="9.259694540731424"><ele>1351.0</ele><time>2026-05-01T15:03:57.001Z</time></trkpt><trkpt lat="44.709577735305494" lon="9.259745704184128"><ele>1351.0</ele><time>2026-05-01T15:03:58.001Z</time></trkpt><trkpt lat="44.70967780201862" lon="9.259796154127676"><ele>1351.0</ele><time>2026-05-01T15:03:59.001Z</time></trkpt><trkpt lat="44.70978224355074" lon="9.259843304092167"><ele>1353.4</ele><time>2026-05-01T15:04:00.001Z</time></trkpt><trkpt lat="44.70987595826875" lon="9.259902551971546"><ele>1355.8</ele><time>2026-05-01T15:04:01.001Z</time></trkpt><trkpt lat="44.70997398403525" lon="9.25995512059737"><ele>1358.2</ele><time>2026-05-01T15:04:02.001Z</time></trkpt><trkpt lat="44.71007328464973" lon="9.260004757214258"><ele>1360.6000000000001</ele><time>2026-05-01T15:04:03.001Z</time></trkpt><trkpt lat="44.71017869182759" lon="9.260064823020457"><ele>1363.0</ele><time>2026-05-01T15:04:04.001Z</time></trkpt><trkpt lat="44.710280841254416" lon="9.260118344790625"><ele>1363.0</ele><time>2026-05-01T15:04:05.001Z</time></trkpt><trkpt lat="44.710393170889" lon="9.260167243301751"><ele>1363.0</ele><time>2026-05-01T15:04:06.001Z</time></trkpt><trkpt lat="44.71050260892075" lon="9.260209818152523"><ele>1363.0</ele><time>2026-05-01T15:04:07.001Z</time></trkpt><trkpt lat="44.71062171549425" lon="9.260247480445532"><ele>1363.0</ele><time>2026-05-01T15:04:08.001Z</time></trkpt><trkpt lat="44.71073277246652" lon="9.260302004405986"><ele>1363.0</ele><time>2026-05-01T15:04:09.001Z</time></trkpt><trkpt lat="44.71083698860164" lon="9.260352414863975"><ele>1363.0</ele><time>2026-05-01T15:04:10.001Z</time></trkpt><trkpt lat="44.7109445448332" lon="9.26039738929408"><ele>1363.0</ele><time>2026-05-01T15:04:11.001Z</time></trkpt><trkpt lat="44.71105435648861" lon="9.260422796582516"><ele>1363.0</ele><time>2026-05-01T15:04:12.001Z</time></trkpt><trkpt lat="44.711163701018954" lon="9.260426498465439"><ele>1363.0</ele><time>2026-05-01T15:04:13.001Z</time></trkpt><trkpt lat="44.71126760291296" lon="9.260426099263162"><ele>1362.6000000000001</ele><time>2026-05-01T15:04:14.001Z</time></trkpt><trkpt lat="44.71135385002035" lon="9.260432563986171"><ele>1362.2</ele><time>2026-05-01T15:04:15.001Z</time></trkpt><trkpt lat="44.711446553109326" lon="9.260474198212746"><ele>1361.8</ele><time>2026-05-01T15:04:16.001Z</time></trkpt><trkpt lat="44.7115457853919" lon="9.26056115102625"><ele>1361.4</ele><time>2026-05-01T15:04:17.001Z</time></trkpt><trkpt lat="44.711640348647656" lon="9.26066579462603"><ele>1361.0</ele><time>2026-05-01T15:04:18.001Z</time></trkpt><trkpt lat="44.711733436776065" lon="9.260763789025122"><ele>1366.5</ele><time>2026-05-01T15:04:19.001Z</time></trkpt><trkpt lat="44.711822361903934" lon="9.260829366083126"><ele>1372.0</ele><time>2026-05-01T15:04:20.001Z</time></trkpt><trkpt lat="44.71192196402311" lon="9.260870715039708"><ele>1377.5</ele><time>2026-05-01T15:04:21.001Z</time></trkpt><trkpt lat="44.712047241918505" lon="9.260870185976305"><ele>1383.0</ele><time>2026-05-01T15:04:22.001Z</time></trkpt><trkpt lat="44.71216893065227" lon="9.26088835593429"><ele>1384.25</ele><time>2026-05-01T15:04:23.001Z</time></trkpt><trkpt lat="44.71229264823856" lon="9.260904494022114"><ele>1385.5</ele><time>2026-05-01T15:04:24.001Z</time></trkpt><trkpt lat="44.71241897067304" lon="9.260896136869594"><ele>1386.75</ele><time>2026-05-01T15:04:25.001Z</time></trkpt><trkpt lat="44.7125473269477" lon="9.26089231262455"><ele>1388.0</ele><time>2026-05-01T15:04:26.001Z</time></trkpt><trkpt lat="44.712669620435705" lon="9.260879772046293"><ele>1389.0</ele><time>2026-05-01T15:04:27.001Z</time></trkpt><trkpt lat="44.71278440459986" lon="9.260875226324739"><ele>1390.0</ele><time>2026-05-01T15:04:28.001Z</time></trkpt><trkpt lat="44.712912502377804" lon="9.260876354883017"><ele>1391.0</ele><time>2026-05-01T15:04:29.001Z</time></trkpt><trkpt lat="44.71303263722033" lon="9.260893239273777"><ele>1392.0</ele><time>2026-05-01T15:04:30.001Z</time></trkpt><trkpt lat="44.71315685590443" lon="9.260902668188791"><ele>1392.0</ele><time>2026-05-01T15:04:31.001Z</time></trkpt><trkpt lat="44.71327978526944" lon="9.260885505150418"><ele>1392.0</ele><time>2026-05-01T15:04:32.001Z</time></trkpt><trkpt lat="44.713410932013" lon="9.260866381074905"><ele>1392.0</ele><time>2026-05-01T15:04:33.001Z</time></trkpt><trkpt lat="44.71353673752924" lon="9.2608485069255"><ele>1392.0</ele><time>2026-05-01T15:04:34.001Z</time></trkpt><trkpt lat="44.71365330771804" lon="9.260831791109103"><ele>1393.0</ele><time>2026-05-01T15:04:35.001Z</time></trkpt><trkpt lat="44.71378182274973" lon="9.260826796154223"><ele>1394.0</ele><time>2026-05-01T15:04:36.001Z</time></trkpt><trkpt lat="44.71390966167645" lon="9.260840697517926"><ele>1395.0</ele><time>2026-05-01T15:04:37.001Z</time></trkpt><trkpt lat="44.7140367157076" lon="9.260863150408976"><ele>1396.0</ele><time>2026-05-01T15:04:38.001Z</time></trkpt><trkpt lat="44.71416659432669" lon="9.26087139174752"><ele>1396.0</ele><time>2026-05-01T15:04:39.001Z</time></trkpt><trkpt lat="44.71428852451006" lon="9.260870266882502"><ele>1396.0</ele><time>2026-05-01T15:04:40.001Z</time></trkpt><trkpt lat="44.714406981602615" lon="9.260941412563959"><ele>1396.0</ele><time>2026-05-01T15:04:41.001Z</time></trkpt><trkpt lat="44.714549374425275" lon="9.260937716445383"><ele>1396.0</ele><time>2026-05-01T15:04:42.001Z</time></trkpt><trkpt lat="44.714697308027304" lon="9.260927641546385"><ele>1396.5</ele><time>2026-05-01T15:04:43.001Z</time></trkpt><trkpt lat="44.7148355389277" lon="9.260910247085118"><ele>1397.0</ele><time>2026-05-01T15:04:44.001Z</time></trkpt><trkpt lat="44.71496656689837" lon="9.260880460580365"><ele>1397.5</ele><time>2026-05-01T15:04:45.001Z</time></trkpt><trkpt lat="44.71508191203952" lon="9.260839676796921"><ele>1398.0</ele><time>2026-05-01T15:04:46.001Z</time></trkpt><trkpt lat="44.71517822692093" lon="9.260786257227087"><ele>1400.8000000000002</ele><time>2026-05-01T15:04:47.002Z</time></trkpt><trkpt lat="44.71528701891286" lon="9.260752158154892"><ele>1403.6</ele><time>2026-05-01T15:04:48.002Z</time></trkpt><trkpt lat="44.71538784390639" lon="9.260721434068508"><ele>1406.4</ele><time>2026-05-01T15:04:49.002Z</time></trkpt><trkpt lat="44.71547887688608" lon="9.26072125815067"><ele>1409.1999999999998</ele><time>2026-05-01T15:04:50.002Z</time></trkpt><trkpt lat="44.71556621769432" lon="9.260735006653535"><ele>1412.0</ele><time>2026-05-01T15:04:51.002Z</time></trkpt><trkpt lat="44.715634793983185" lon="9.260721811636628"><ele>1412.0</ele><time>2026-05-01T15:04:52.002Z</time></trkpt><trkpt lat="44.71569247868043" lon="9.260668984576707"><ele>1412.0</ele><time>2026-05-01T15:04:53.002Z</time></trkpt><trkpt lat="44.71574075370256" lon="9.260579910833957"><ele>1412.0</ele><time>2026-05-01T15:04:54.002Z</time></trkpt><trkpt lat="44.715789191113764" lon="9.260479914388101"><ele>1412.0</ele><time>2026-05-01T15:04:55.002Z</time></trkpt><trkpt lat="44.71582419199294" lon="9.260358849829684"><ele>1412.0</ele><time>2026-05-01T15:04:56.002Z</time></trkpt><trkpt lat="44.715855871644145" lon="9.260231214981708"><ele>1412.0</ele><time>2026-05-01T15:04:57.002Z</time></trkpt><trkpt lat="44.715878128081414" lon="9.260083840126534"><ele>1409.6666666666667</ele><time>2026-05-01T15:04:58.002Z</time></trkpt><trkpt lat="44.71588404429904" lon="9.259952022236305"><ele>1407.3333333333335</ele><time>2026-05-01T15:04:59.002Z</time></trkpt><trkpt lat="44.7158811440913" lon="9.259830673313838"><ele>1405.0</ele><time>2026-05-01T15:05:00.002Z</time></trkpt><trkpt lat="44.71589328184995" lon="9.259732346572285"><ele>1402.6666666666667</ele><time>2026-05-01T15:05:01.002Z</time></trkpt><trkpt lat="44.715929103570964" lon="9.259617901202965"><ele>1400.3333333333333</ele><time>2026-05-01T15:05:02.002Z</time></trkpt><trkpt lat="44.71597478351763" lon="9.259520274331782"><ele>1398.0</ele><time>2026-05-01T15:05:03.002Z</time></trkpt><trkpt lat="44.71605224998238" lon="9.259440696382015"><ele>1399.6000000000001</ele><time>2026-05-01T15:05:04.002Z</time></trkpt><trkpt lat="44.71614684108204" lon="9.259389283639386"><ele>1401.2</ele><time>2026-05-01T15:05:05.002Z</time></trkpt><trkpt lat="44.71624763224627" lon="9.259354226700857"><ele>1402.8</ele><time>2026-05-01T15:05:06.002Z</time></trkpt><trkpt lat="44.71635890090365" lon="9.259299783483943"><ele>1404.4</ele><time>2026-05-01T15:05:07.002Z</time></trkpt><trkpt lat="44.71644966631441" lon="9.259217503331811"><ele>1406.0</ele><time>2026-05-01T15:05:08.002Z</time></trkpt><trkpt lat="44.716533716986426" lon="9.259168433988226"><ele>1406.0</ele><time>2026-05-01T15:05:09.002Z</time></trkpt><trkpt lat="44.716639154377496" lon="9.259130644836976"><ele>1406.0</ele><time>2026-05-01T15:05:10.002Z</time></trkpt><trkpt lat="44.716763819486914" lon="9.259028392216399"><ele>1406.0</ele><time>2026-05-01T15:05:11.002Z</time></trkpt><trkpt lat="44.716846918566866" lon="9.258925888750477"><ele>1406.0</ele><time>2026-05-01T15:05:12.002Z</time></trkpt><trkpt lat="44.7169375519561" lon="9.258826988460777"><ele>1404.0</ele><time>2026-05-01T15:05:13.002Z</time></trkpt><trkpt lat="44.71702258675009" lon="9.258736704103649"><ele>1402.0</ele><time>2026-05-01T15:05:14.002Z</time></trkpt><trkpt lat="44.71712350577512" lon="9.25863494983091"><ele>1400.0</ele><time>2026-05-01T15:05:15.002Z</time></trkpt><trkpt lat="44.717267120638944" lon="9.258577007557758"><ele>1398.0</ele><time>2026-05-01T15:05:16.002Z</time></trkpt><trkpt lat="44.71737573436904" lon="9.258526253706309"><ele>1398.0</ele><time>2026-05-01T15:05:17.002Z</time></trkpt><trkpt lat="44.71745468306093" lon="9.258466846576605"><ele>1398.0</ele><time>2026-05-01T15:05:18.002Z</time></trkpt><trkpt lat="44.71754707141654" lon="9.258434351124148"><ele>1398.0</ele><time>2026-05-01T15:05:19.002Z</time></trkpt><trkpt lat="44.717656949099855" lon="9.258407141419859"><ele>1398.0</ele><time>2026-05-01T15:05:20.002Z</time></trkpt><trkpt lat="44.717744459694906" lon="9.258392651972299"><ele>1398.0</ele><time>2026-05-01T15:05:21.002Z</time></trkpt><trkpt lat="44.717835712838834" lon="9.258372507298574"><ele>1397.2</ele><time>2026-05-01T15:05:22.002Z</time></trkpt><trkpt lat="44.71794362307089" lon="9.258391837296175"><ele>1396.4</ele><time>2026-05-01T15:05:23.002Z</time></trkpt><trkpt lat="44.71804842427416" lon="9.258416351385808"><ele>1395.6000000000001</ele><time>2026-05-01T15:05:24.002Z</time></trkpt><trkpt lat="44.71814438312675" lon="9.258452008204232"><ele>1394.8000000000002</ele><time>2026-05-01T15:05:25.002Z</time></trkpt><trkpt lat="44.718264051713454" lon="9.258498545657291"><ele>1394.0</ele><time>2026-05-01T15:05:26.002Z</time></trkpt><trkpt lat="44.71839956193715" lon="9.258542108401645"><ele>1394.0</ele><time>2026-05-01T15:05:27.002Z</time></trkpt><trkpt lat="44.718530457838" lon="9.258569110017605"><ele>1394.0</ele><time>2026-05-01T15:05:28.002Z</time></trkpt><trkpt lat="44.718687564649294" lon="9.258569774927354"><ele>1394.0</ele><time>2026-05-01T15:05:29.001Z</time></trkpt><trkpt lat="44.718837537095894" lon="9.258581141775636"><ele>1394.0</ele><time>2026-05-01T15:05:30.001Z</time></trkpt><trkpt lat="44.71897497634211" lon="9.258605018429657"><ele>1391.6</ele><time>2026-05-01T15:05:31.001Z</time></trkpt><trkpt lat="44.71909914908196" lon="9.258613906805445"><ele>1389.2</ele><time>2026-05-01T15:05:32.001Z</time></trkpt><trkpt lat="44.719203884009126" lon="9.258609532881925"><ele>1386.8</ele><time>2026-05-01T15:05:33.001Z</time></trkpt><trkpt lat="44.719279287653144" lon="9.258635995189689"><ele>1384.3999999999999</ele><time>2026-05-01T15:05:34.001Z</time></trkpt><trkpt lat="44.71935652061316" lon="9.25867066596366"><ele>1382.0</ele><time>2026-05-01T15:05:35.001Z</time></trkpt><trkpt lat="44.71943528255121" lon="9.258736885579225"><ele>1379.5</ele><time>2026-05-01T15:05:36.001Z</time></trkpt><trkpt lat="44.719547196494226" lon="9.258801432853385"><ele>1377.0</ele><time>2026-05-01T15:05:37.001Z</time></trkpt><trkpt lat="44.71966609052476" lon="9.258878315485525"><ele>1374.5</ele><time>2026-05-01T15:05:38.001Z</time></trkpt><trkpt lat="44.71978558160285" lon="9.25893345810473"><ele>1372.0</ele><time>2026-05-01T15:05:39.001Z</time></trkpt><trkpt lat="44.719937501973426" lon="9.258969532905459"><ele>1377.8</ele><time>2026-05-01T15:05:40.001Z</time></trkpt><trkpt lat="44.72004125723943" lon="9.258966940777606"><ele>1383.6</ele><time>2026-05-01T15:05:41.001Z</time></trkpt><trkpt lat="44.72015392621242" lon="9.258960551233239"><ele>1389.3999999999999</ele><time>2026-05-01T15:05:42.001Z</time></trkpt><trkpt lat="44.7202596381994" lon="9.258960244302061"><ele>1395.1999999999998</ele><time>2026-05-01T15:05:43.001Z</time></trkpt><trkpt lat="44.720359691901045" lon="9.258987393326125"><ele>1401.0</ele><time>2026-05-01T15:05:44.001Z</time></trkpt><trkpt lat="44.72046564390277" lon="9.259017132952591"><ele>1401.8</ele><time>2026-05-01T15:05:45.001Z</time></trkpt><trkpt lat="44.72056982460192" lon="9.259043330810918"><ele>1402.6</ele><time>2026-05-01T15:05:46.001Z</time></trkpt><trkpt lat="44.72066777528375" lon="9.259041229705078"><ele>1403.4</ele><time>2026-05-01T15:05:47.001Z</time></trkpt><trkpt lat="44.7207577847093" lon="9.259064946470215"><ele>1404.2</ele><time>2026-05-01T15:05:48.001Z</time></trkpt><trkpt lat="44.72085941270117" lon="9.258986259882187"><ele>1405.0</ele><time>2026-05-01T15:05:49.001Z</time></trkpt><trkpt lat="44.720970322427235" lon="9.258948344900473"><ele>1399.75</ele><time>2026-05-01T15:05:50.001Z</time></trkpt><trkpt lat="44.721079241130816" lon="9.258894896204206"><ele>1394.5</ele><time>2026-05-01T15:05:51.001Z</time></trkpt><trkpt lat="44.721200304060474" lon="9.258830220042409"><ele>1389.25</ele><time>2026-05-01T15:05:52.001Z</time></trkpt><trkpt lat="44.72133637217273" lon="9.25876378830743"><ele>1384.0</ele><time>2026-05-01T15:05:53.001Z</time></trkpt><trkpt lat="44.721457119391076" lon="9.258706562046664"><ele>1384.0</ele><time>2026-05-01T15:05:54.001Z</time></trkpt><trkpt lat="44.7215893092968" lon="9.258669285651006"><ele>1384.0</ele><time>2026-05-01T15:05:55.001Z</time></trkpt><trkpt lat="44.7217354402555" lon="9.258619857359804"><ele>1384.0</ele><time>2026-05-01T15:05:56.001Z</time></trkpt><trkpt lat="44.721864349710025" lon="9.258567758460805"><ele>1384.0</ele><time>2026-05-01T15:05:57.001Z</time></trkpt><trkpt lat="44.721994061773536" lon="9.258543537240218"><ele>1386.5</ele><time>2026-05-01T15:05:58.001Z</time></trkpt><trkpt lat="44.72213659254528" lon="9.258527744490548"><ele>1389.0</ele><time>2026-05-01T15:05:59.001Z</time></trkpt><trkpt lat="44.722252757209155" lon="9.258510483659643"><ele>1391.5</ele><time>2026-05-01T15:06:00.001Z</time></trkpt><trkpt lat="44.7223502769974" lon="9.258517644320465"><ele>1394.0</ele><time>2026-05-01T15:06:01.001Z</time></trkpt><trkpt lat="44.722447908272684" lon="9.258514108401934"><ele>1394.0</ele><time>2026-05-01T15:06:02.001Z</time></trkpt><trkpt lat="44.72253199948621" lon="9.258471638217827"><ele>1394.0</ele><time>2026-05-01T15:06:03.001Z</time></trkpt><trkpt lat="44.72259748332183" lon="9.258397184414225"><ele>1394.0</ele><time>2026-05-01T15:06:04.001Z</time></trkpt><trkpt lat="44.722638867690925" lon="9.258312086217279"><ele>1394.0</ele><time>2026-05-01T15:06:05.001Z</time></trkpt><trkpt lat="44.72268397476866" lon="9.258210437379127"><ele>1394.0</ele><time>2026-05-01T15:06:06.001Z</time></trkpt><trkpt lat="44.72274649509507" lon="9.258121941886928"><ele>1394.0</ele><time>2026-05-01T15:06:07.001Z</time></trkpt><trkpt lat="44.722843463419416" lon="9.258085590640563"><ele>1393.75</ele><time>2026-05-01T15:06:08.001Z</time></trkpt><trkpt lat="44.72294377538565" lon="9.258027684496371"><ele>1393.5</ele><time>2026-05-01T15:06:09.001Z</time></trkpt><trkpt lat="44.723045539358125" lon="9.257945794914297"><ele>1393.25</ele><time>2026-05-01T15:06:10.001Z</time></trkpt><trkpt lat="44.723160176627744" lon="9.257902040253267"><ele>1393.0</ele><time>2026-05-01T15:06:11.001Z</time></trkpt><trkpt lat="44.723282378293334" lon="9.25781395698791"><ele>1393.0</ele><time>2026-05-01T15:06:12.001Z</time></trkpt><trkpt lat="44.723419840921515" lon="9.257750274572805"><ele>1393.0</ele><time>2026-05-01T15:06:13.001Z</time></trkpt><trkpt lat="44.72355282005735" lon="9.257687188819144"><ele>1393.0</ele><time>2026-05-01T15:06:14.001Z</time></trkpt><trkpt lat="44.723686807736804" lon="9.25761564860033"><ele>1393.0</ele><time>2026-05-01T15:06:15.001Z</time></trkpt><trkpt lat="44.72381932223343" lon="9.257535794425282"><ele>1395.0</ele><time>2026-05-01T15:06:16.001Z</time></trkpt><trkpt lat="44.72396537282188" lon="9.25748121778398"><ele>1397.0</ele><time>2026-05-01T15:06:17.001Z</time></trkpt><trkpt lat="44.724106464264544" lon="9.257409550312323"><ele>1399.0</ele><time>2026-05-01T15:06:18.001Z</time></trkpt><trkpt lat="44.72425137664021" lon="9.257339818226237"><ele>1396.25</ele><time>2026-05-01T15:06:19.001Z</time></trkpt><trkpt lat="44.72439454411224" lon="9.257264868097186"><ele>1393.5</ele><time>2026-05-01T15:06:20.001Z</time></trkpt><trkpt lat="44.724533688191634" lon="9.257201418788515"><ele>1390.75</ele><time>2026-05-01T15:06:21.001Z</time></trkpt><trkpt lat="44.724668393555774" lon="9.25713229408851"><ele>1388.0</ele><time>2026-05-01T15:06:22.001Z</time></trkpt><trkpt lat="44.72480126235124" lon="9.257068504506378"><ele>1388.0</ele><time>2026-05-01T15:06:23.001Z</time></trkpt><trkpt lat="44.724926508574704" lon="9.256995695583674"><ele>1388.0</ele><time>2026-05-01T15:06:24.001Z</time></trkpt><trkpt lat="44.72504491342336" lon="9.256938412120771"><ele>1388.0</ele><time>2026-05-01T15:06:25.001Z</time></trkpt><trkpt lat="44.72515208409097" lon="9.256895473826027"><ele>1388.0</ele><time>2026-05-01T15:06:26.001Z</time></trkpt><trkpt lat="44.72525757655676" lon="9.256873831335477"><ele>1388.25</ele><time>2026-05-01T15:06:27.001Z</time></trkpt><trkpt lat="44.72537376050858" lon="9.256864712720638"><ele>1388.5</ele><time>2026-05-01T15:06:28.001Z</time></trkpt><trkpt lat="44.72549708832876" lon="9.256863173767421"><ele>1388.75</ele><time>2026-05-01T15:06:29.001Z</time></trkpt><trkpt lat="44.72560661361808" lon="9.256873948168684"><ele>1389.0</ele><time>2026-05-01T15:06:30.001Z</time></trkpt><trkpt lat="44.725715160268024" lon="9.256914949579388"><ele>1389.0</ele><time>2026-05-01T15:06:31.001Z</time></trkpt><trkpt lat="44.72582261668663" lon="9.256974915585102"><ele>1389.0</ele><time>2026-05-01T15:06:32.001Z</time></trkpt><trkpt lat="44.725921670626654" lon="9.257063161577864"><ele>1389.0</ele><time>2026-05-01T15:06:33.001Z</time></trkpt><trkpt lat="44.72602226773997" lon="9.257117637893703"><ele>1389.0</ele><time>2026-05-01T15:06:34.001Z</time></trkpt><trkpt lat="44.72613332467449" lon="9.257159728956536"><ele>1385.0</ele><time>2026-05-01T15:06:35.001Z</time></trkpt><trkpt lat="44.72625459670715" lon="9.257194291484817"><ele>1381.0</ele><time>2026-05-01T15:06:36.001Z</time></trkpt><trkpt lat="44.72637481140035" lon="9.257195286843691"><ele>1377.0</ele><time>2026-05-01T15:06:37.001Z</time></trkpt><trkpt lat="44.72651426357386" lon="9.25718897004644"><ele>1373.0</ele><time>2026-05-01T15:06:38.001Z</time></trkpt><trkpt lat="44.7266545135937" lon="9.257202059171792"><ele>1373.0</ele><time>2026-05-01T15:06:39.001Z</time></trkpt><trkpt lat="44.726785415606884" lon="9.257226491127428"><ele>1373.0</ele><time>2026-05-01T15:06:40.001Z</time></trkpt><trkpt lat="44.72690874071572" lon="9.257257784483832"><ele>1373.0</ele><time>2026-05-01T15:06:41.001Z</time></trkpt><trkpt lat="44.72702929416846" lon="9.257296288491329"><ele>1373.0</ele><time>2026-05-01T15:06:42.001Z</time></trkpt><trkpt lat="44.727139470048996" lon="9.2573677354054"><ele>1377.0</ele><time>2026-05-01T15:06:43.001Z</time></trkpt><trkpt lat="44.72724352221397" lon="9.257419001017348"><ele>1381.0</ele><time>2026-05-01T15:06:44.001Z</time></trkpt><trkpt lat="44.727355984185" lon="9.2574615507723"><ele>1385.0</ele><time>2026-05-01T15:06:45.001Z</time></trkpt><trkpt lat="44.727469044182214" lon="9.257479055892702"><ele>1389.0</ele><time>2026-05-01T15:06:46.001Z</time></trkpt><trkpt lat="44.727579577501956" lon="9.25747368650617"><ele>1389.0</ele><time>2026-05-01T15:06:47.001Z</time></trkpt><trkpt lat="44.7276783706599" lon="9.257494521043727"><ele>1389.0</ele><time>2026-05-01T15:06:48.001Z</time></trkpt><trkpt lat="44.72778234985141" lon="9.257537324209748"><ele>1389.0</ele><time>2026-05-01T15:06:49.001Z</time></trkpt><trkpt lat="44.72788222413792" lon="9.25757314011804"><ele>1389.0</ele><time>2026-05-01T15:06:50.001Z</time></trkpt><trkpt lat="44.727995576029834" lon="9.25757394987803"><ele>1389.0</ele><time>2026-05-01T15:06:51.001Z</time></trkpt><trkpt lat="44.72812237919984" lon="9.2575823708755"><ele>1385.3333333333333</ele><time>2026-05-01T15:06:52.001Z</time></trkpt><trkpt lat="44.728257680489236" lon="9.257584688612962"><ele>1381.6666666666665</ele><time>2026-05-01T15:06:53.001Z</time></trkpt><trkpt lat="44.72840283244185" lon="9.257599277256292"><ele>1378.0</ele><time>2026-05-01T15:06:54.001Z</time></trkpt><trkpt lat="44.72860319321787" lon="9.257603110160527"><ele>1373.6666666666665</ele><time>2026-05-01T15:06:55.001Z</time></trkpt><trkpt lat="44.72880799962093" lon="9.257557413433679"><ele>1369.3333333333333</ele><time>2026-05-01T15:06:56.001Z</time></trkpt><trkpt lat="44.72900417017897" lon="9.257518124674505"><ele>1365.0</ele><time>2026-05-01T15:06:57.001Z</time></trkpt><trkpt lat="44.729198390376" lon="9.257472905903278"><ele>1365.0</ele><time>2026-05-01T15:06:58.002Z</time></trkpt><trkpt lat="44.729385250037524" lon="9.257435559896567"><ele>1365.0</ele><time>2026-05-01T15:06:59.002Z</time></trkpt><trkpt lat="44.72961423818772" lon="9.257361652767685"><ele>1365.0</ele><time>2026-05-01T15:07:00.002Z</time></trkpt><trkpt lat="44.729097334081914" lon="9.258792136107173"><ele>1365.5</ele><time>2026-05-01T15:07:01.002Z</time></trkpt><trkpt lat="44.72920596522916" lon="9.258912614313758"><ele>1366.0</ele><time>2026-05-01T15:07:02.002Z</time></trkpt><trkpt lat="44.729298559101835" lon="9.259042752159772"><ele>1366.5</ele><time>2026-05-01T15:07:03.002Z</time></trkpt><trkpt lat="44.72940759481255" lon="9.259180151933997"><ele>1367.0</ele><time>2026-05-01T15:07:04.002Z</time></trkpt><trkpt lat="44.72949640659945" lon="9.259312442304724"><ele>1365.5</ele><time>2026-05-01T15:07:05.002Z</time></trkpt><trkpt lat="44.72958626690157" lon="9.259443440042357"><ele>1364.0</ele><time>2026-05-01T15:07:06.002Z</time></trkpt><trkpt lat="44.729670542499214" lon="9.25957602349763"><ele>1362.5</ele><time>2026-05-01T15:07:07.002Z</time></trkpt><trkpt lat="44.7297537308193" lon="9.259690311015103"><ele>1361.0</ele><time>2026-05-01T15:07:08.002Z</time></trkpt><trkpt lat="44.729840003609766" lon="9.25979682467584"><ele>1361.0</ele><time>2026-05-01T15:07:09.002Z</time></trkpt><trkpt lat="44.72993173519385" lon="9.259893091615952"><ele>1361.0</ele><time>2026-05-01T15:07:10.002Z</time></trkpt><trkpt lat="44.730017303428895" lon="9.259995730935561"><ele>1361.0</ele><time>2026-05-01T15:07:11.002Z</time></trkpt><trkpt lat="44.73009328246762" lon="9.260117887907272"><ele>1361.0</ele><time>2026-05-01T15:07:12.002Z</time></trkpt><trkpt lat="44.7301600505777" lon="9.260243054234303"><ele>1361.0</ele><time>2026-05-01T15:07:13.002Z</time></trkpt><trkpt lat="44.730198468059235" lon="9.260386751168763"><ele>1361.0</ele><time>2026-05-01T15:07:14.002Z</time></trkpt><trkpt lat="44.7302205772113" lon="9.260567626121727"><ele>1361.0</ele><time>2026-05-01T15:07:15.002Z</time></trkpt><trkpt lat="44.73021559954032" lon="9.260766573060804"><ele>1361.0</ele><time>2026-05-01T15:07:16.002Z</time></trkpt><trkpt lat="44.73021733120688" lon="9.260957024908649"><ele>1357.0</ele><time>2026-05-01T15:07:17.002Z</time></trkpt><trkpt lat="44.73025488905908" lon="9.261109906940503"><ele>1353.0</ele><time>2026-05-01T15:07:18.002Z</time></trkpt><trkpt lat="44.730304794709795" lon="9.261264660436558"><ele>1349.0</ele><time>2026-05-01T15:07:19.002Z</time></trkpt><trkpt lat="44.730374374155645" lon="9.261404370526039"><ele>1345.0</ele><time>2026-05-01T15:07:20.002Z</time></trkpt><trkpt lat="44.730469168223955" lon="9.261525264124067"><ele>1345.0</ele><time>2026-05-01T15:07:21.002Z</time></trkpt><trkpt lat="44.730577001011284" lon="9.26164943803607"><ele>1345.0</ele><time>2026-05-01T15:07:22.002Z</time></trkpt><trkpt lat="44.730674266617235" lon="9.261761897188986"><ele>1345.0</ele><time>2026-05-01T15:07:23.002Z</time></trkpt><trkpt lat="44.73076162776087" lon="9.26189581519857"><ele>1345.0</ele><time>2026-05-01T15:07:24.002Z</time></trkpt><trkpt lat="44.73083586767591" lon="9.26204124318595"><ele>1345.0</ele><time>2026-05-01T15:07:25.002Z</time></trkpt><trkpt lat="44.730851542489624" lon="9.262133120594136"><ele>1345.0</ele><time>2026-05-01T15:07:26.002Z</time></trkpt><trkpt lat="44.73085046899619" lon="9.262224802992975"><ele>1345.0</ele><time>2026-05-01T15:07:27.002Z</time></trkpt><trkpt lat="44.730810832066034" lon="9.26232789646847"><ele>1345.0</ele><time>2026-05-01T15:07:28.002Z</time></trkpt><trkpt lat="44.730751170414436" lon="9.262437632279598"><ele>1345.0</ele><time>2026-05-01T15:07:29.002Z</time></trkpt><trkpt lat="44.73066392283116" lon="9.262540322062556"><ele>1345.0</ele><time>2026-05-01T15:07:30.002Z</time></trkpt><trkpt lat="44.73061311681016" lon="9.262672998517166"><ele>1344.0</ele><time>2026-05-01T15:07:31.002Z</time></trkpt><trkpt lat="44.73053516816378" lon="9.262818851158654"><ele>1343.0</ele><time>2026-05-01T15:07:32.002Z</time></trkpt><trkpt lat="44.73046496191412" lon="9.26301654767958"><ele>1342.0</ele><time>2026-05-01T15:07:33.002Z</time></trkpt><trkpt lat="44.730385798037446" lon="9.263207687519964"><ele>1341.0</ele><time>2026-05-01T15:07:34.002Z</time></trkpt><trkpt lat="44.73029881702764" lon="9.263404901609732"><ele>1341.6666666666667</ele><time>2026-05-01T15:07:35.001Z</time></trkpt><trkpt lat="44.73020110747376" lon="9.263581647474384"><ele>1342.3333333333335</ele><time>2026-05-01T15:07:36.001Z</time></trkpt><trkpt lat="44.730125843822506" lon="9.263753381948009"><ele>1343.0</ele><time>2026-05-01T15:07:37.001Z</time></trkpt><trkpt lat="44.73001573995999" lon="9.263929448062118"><ele>1332.0</ele><time>2026-05-01T15:07:38.001Z</time></trkpt><trkpt lat="44.72987681714366" lon="9.2640911508067"><ele>1321.0</ele><time>2026-05-01T15:07:39.001Z</time></trkpt><trkpt lat="44.729746559706456" lon="9.264273466531666"><ele>1310.0</ele><time>2026-05-01T15:07:40.001Z</time></trkpt><trkpt lat="44.72962817662309" lon="9.264425418821228"><ele>1310.0</ele><time>2026-05-01T15:07:41.001Z</time></trkpt><trkpt lat="44.72951413016433" lon="9.264596592135511"><ele>1310.0</ele><time>2026-05-01T15:07:42.001Z</time></trkpt><trkpt lat="44.72942600088793" lon="9.264729398670477"><ele>1310.0</ele><time>2026-05-01T15:07:43.001Z</time></trkpt><trkpt lat="44.72936003335904" lon="9.264860560034414"><ele>1310.0</ele><time>2026-05-01T15:07:44.001Z</time></trkpt><trkpt lat="44.72932683727243" lon="9.26499142207578"><ele>1310.6</ele><time>2026-05-01T15:07:45.001Z</time></trkpt><trkpt lat="44.72930815130556" lon="9.265121635697426"><ele>1311.2</ele><time>2026-05-01T15:07:46.001Z</time></trkpt><trkpt lat="44.72932359109991" lon="9.26523848978173"><ele>1311.8000000000002</ele><time>2026-05-01T15:07:47.001Z</time></trkpt><trkpt lat="44.72936206466372" lon="9.265348596022152"><ele>1312.4</ele><time>2026-05-01T15:07:48.001Z</time></trkpt><trkpt lat="44.729424466241284" lon="9.265419475739215"><ele>1313.0</ele><time>2026-05-01T15:07:49.001Z</time></trkpt><trkpt lat="44.729531384165305" lon="9.265460220531663"><ele>1307.75</ele><time>2026-05-01T15:07:50.001Z</time></trkpt><trkpt lat="44.72964345096919" lon="9.265503882606648"><ele>1302.5</ele><time>2026-05-01T15:07:51.001Z</time></trkpt><trkpt lat="44.72977975300155" lon="9.265528850253888"><ele>1297.25</ele><time>2026-05-01T15:07:52.001Z</time></trkpt><trkpt lat="44.72991528599069" lon="9.265558052312258"><ele>1292.0</ele><time>2026-05-01T15:07:53.001Z</time></trkpt><trkpt lat="44.73004724058723" lon="9.265589866254082"><ele>1292.0</ele><time>2026-05-01T15:07:54.001Z</time></trkpt><trkpt lat="44.73016715775456" lon="9.265615291099728"><ele>1292.0</ele><time>2026-05-01T15:07:55.001Z</time></trkpt><trkpt lat="44.7302698848748" lon="9.265639435677826"><ele>1292.0</ele><time>2026-05-01T15:07:56.001Z</time></trkpt><trkpt lat="44.73034983354313" lon="9.265671247528374"><ele>1292.0</ele><time>2026-05-01T15:07:57.001Z</time></trkpt><trkpt lat="44.73042893751505" lon="9.26575196732731"><ele>1292.0</ele><time>2026-05-01T15:07:58.001Z</time></trkpt><trkpt lat="44.73050436140082" lon="9.265846119868938"><ele>1289.6</ele><time>2026-05-01T15:07:59.001Z</time></trkpt><trkpt lat="44.73057807945918" lon="9.265954385544346"><ele>1287.1999999999998</ele><time>2026-05-01T15:08:00.001Z</time></trkpt><trkpt lat="44.730653730994774" lon="9.26606320221186"><ele>1284.8</ele><time>2026-05-01T15:08:01.001Z</time></trkpt><trkpt lat="44.730708409154005" lon="9.266179666861378"><ele>1282.4</ele><time>2026-05-01T15:08:02.001Z</time></trkpt><trkpt lat="44.73075212284458" lon="9.26631382330902"><ele>1280.0</ele><time>2026-05-01T15:08:03.001Z</time></trkpt><trkpt lat="44.73078965634561" lon="9.266472940539243"><ele>1280.0</ele><time>2026-05-01T15:08:04.001Z</time></trkpt><trkpt lat="44.730832185880054" lon="9.26659738230166"><ele>1280.0</ele><time>2026-05-01T15:08:05.001Z</time></trkpt><trkpt lat="44.73087982178726" lon="9.266659798565632"><ele>1280.0</ele><time>2026-05-01T15:08:06.001Z</time></trkpt><trkpt lat="44.730997252212674" lon="9.266731846531405"><ele>1280.0</ele><time>2026-05-01T15:08:07.001Z</time></trkpt><trkpt lat="44.73110233719783" lon="9.266810017009687"><ele>1280.0</ele><time>2026-05-01T15:08:08.001Z</time></trkpt><trkpt lat="44.731217664123726" lon="9.266882293807958"><ele>1279.0</ele><time>2026-05-01T15:08:09.001Z</time></trkpt><trkpt lat="44.73133767845367" lon="9.266960362127508"><ele>1278.0</ele><time>2026-05-01T15:08:10.001Z</time></trkpt><trkpt lat="44.73147331156794" lon="9.266994429726822"><ele>1277.0</ele><time>2026-05-01T15:08:11.001Z</time></trkpt><trkpt lat="44.73163163337238" lon="9.267008766098636"><ele>1276.0</ele><time>2026-05-01T15:08:12.001Z</time></trkpt><trkpt lat="44.73178062170433" lon="9.267027838855673"><ele>1273.0</ele><time>2026-05-01T15:08:13.001Z</time></trkpt><trkpt lat="44.73192278422299" lon="9.26705734531028"><ele>1270.0</ele><time>2026-05-01T15:08:14.001Z</time></trkpt><trkpt lat="44.732068318841684" lon="9.26709500374819"><ele>1267.0</ele><time>2026-05-01T15:08:15.001Z</time></trkpt><trkpt lat="44.73220810762445" lon="9.267136127175025"><ele>1264.0</ele><time>2026-05-01T15:08:16.001Z</time></trkpt><trkpt lat="44.73234076061589" lon="9.267177351597008"><ele>1264.0</ele><time>2026-05-01T15:08:17.001Z</time></trkpt><trkpt lat="44.73245923651763" lon="9.267208069880413"><ele>1264.0</ele><time>2026-05-01T15:08:18.001Z</time></trkpt><trkpt lat="44.73255001187728" lon="9.267269489740931"><ele>1264.0</ele><time>2026-05-01T15:08:19.001Z</time></trkpt><trkpt lat="44.73261394231203" lon="9.267321298938706"><ele>1264.0</ele><time>2026-05-01T15:08:20.001Z</time></trkpt><trkpt lat="44.732672636653454" lon="9.267408967348533"><ele>1264.0</ele><time>2026-05-01T15:08:21.001Z</time></trkpt><trkpt lat="44.732733841311074" lon="9.267542120981098"><ele>1263.25</ele><time>2026-05-01T15:08:22.001Z</time></trkpt><trkpt lat="44.732763665075964" lon="9.267734453777427"><ele>1262.5</ele><time>2026-05-01T15:08:23.001Z</time></trkpt><trkpt lat="44.732798776133265" lon="9.267927171755519"><ele>1261.75</ele><time>2026-05-01T15:08:24.001Z</time></trkpt><trkpt lat="44.73284640254642" lon="9.268096814353065"><ele>1261.0</ele><time>2026-05-01T15:08:25.001Z</time></trkpt><trkpt lat="44.73289921433371" lon="9.268236634769261"><ele>1261.0</ele><time>2026-05-01T15:08:26.001Z</time></trkpt><trkpt lat="44.732949507310764" lon="9.268375313390502"><ele>1261.0</ele><time>2026-05-01T15:08:27.001Z</time></trkpt><trkpt lat="44.73300291350985" lon="9.26846733684483"><ele>1261.0</ele><time>2026-05-01T15:08:28.001Z</time></trkpt><trkpt lat="44.73307213734201" lon="9.268533082731267"><ele>1261.0</ele><time>2026-05-01T15:08:29.001Z</time></trkpt><trkpt lat="44.73313642055963" lon="9.268558121975795"><ele>1261.0</ele><time>2026-05-01T15:08:30.001Z</time></trkpt><trkpt lat="44.7331983656648" lon="9.268533228258224"><ele>1261.0</ele><time>2026-05-01T15:08:31.001Z</time></trkpt><trkpt lat="44.733247287128286" lon="9.268465047708963"><ele>1261.0</ele><time>2026-05-01T15:08:32.001Z</time></trkpt><trkpt lat="44.73327553359109" lon="9.268372687733983"><ele>1261.0</ele><time>2026-05-01T15:08:33.001Z</time></trkpt><trkpt lat="44.7332804403786" lon="9.268259876613767"><ele>1261.0</ele><time>2026-05-01T15:08:34.001Z</time></trkpt><trkpt lat="44.733248839384835" lon="9.268162062043816"><ele>1261.0</ele><time>2026-05-01T15:08:35.001Z</time></trkpt><trkpt lat="44.73318682857232" lon="9.268032211890455"><ele>1261.0</ele><time>2026-05-01T15:08:36.001Z</time></trkpt><trkpt lat="44.73314029944439" lon="9.267897118701237"><ele>1261.0</ele><time>2026-05-01T15:08:37.001Z</time></trkpt><trkpt lat="44.733114303180095" lon="9.267739435752507"><ele>1259.75</ele><time>2026-05-01T15:08:38.001Z</time></trkpt><trkpt lat="44.733096550133965" lon="9.267565263725317"><ele>1258.5</ele><time>2026-05-01T15:08:39.001Z</time></trkpt><trkpt lat="44.73308588797583" lon="9.267404160577424"><ele>1257.25</ele><time>2026-05-01T15:08:40.001Z</time></trkpt><trkpt lat="44.73308677326755" lon="9.267237907756073"><ele>1256.0</ele><time>2026-05-01T15:08:41.001Z</time></trkpt><trkpt lat="44.733066685531696" lon="9.267083022394292"><ele>1253.0</ele><time>2026-05-01T15:08:42.001Z</time></trkpt><trkpt lat="44.73304358871698" lon="9.266890753015346"><ele>1250.0</ele><time>2026-05-01T15:08:43.001Z</time></trkpt><trkpt lat="44.73301655028073" lon="9.266760602737193"><ele>1247.0</ele><time>2026-05-01T15:08:44.001Z</time></trkpt><trkpt lat="44.73299753044775" lon="9.266631181603437"><ele>1244.0</ele><time>2026-05-01T15:08:45.001Z</time></trkpt><trkpt lat="44.73297193976311" lon="9.266526536577416"><ele>1241.0</ele><time>2026-05-01T15:08:46.001Z</time></trkpt><trkpt lat="44.73290563204357" lon="9.266463296263108"><ele>1240.0</ele><time>2026-05-01T15:08:47.001Z</time></trkpt><trkpt lat="44.73280272444504" lon="9.26640862678162"><ele>1239.0</ele><time>2026-05-01T15:08:48.001Z</time></trkpt><trkpt lat="44.73268972469594" lon="9.266369488147628"><ele>1238.0</ele><time>2026-05-01T15:08:49.001Z</time></trkpt><trkpt lat="44.73257948886166" lon="9.266285569693549"><ele>1237.0</ele><time>2026-05-01T15:08:50.001Z</time></trkpt><trkpt lat="44.732458313542296" lon="9.26619693394337"><ele>1237.0</ele><time>2026-05-01T15:08:51.001Z</time></trkpt><trkpt lat="44.73234449387568" lon="9.266109530640497"><ele>1237.0</ele><time>2026-05-01T15:08:52.001Z</time></trkpt><trkpt lat="44.73222669480614" lon="9.266037688222873"><ele>1237.0</ele><time>2026-05-01T15:08:53.001Z</time></trkpt><trkpt lat="44.732110439450366" lon="9.265976500821427"><ele>1237.0</ele><time>2026-05-01T15:08:54.001Z</time></trkpt><trkpt lat="44.731995173454806" lon="9.265908390480197"><ele>1237.0</ele><time>2026-05-01T15:08:55.001Z</time></trkpt><trkpt lat="44.73192368203075" lon="9.265747898988613"><ele>1237.0</ele><time>2026-05-01T15:08:56.001Z</time></trkpt><trkpt lat="44.73179262932739" lon="9.265648392998083"><ele>1237.0</ele><time>2026-05-01T15:08:57.001Z</time></trkpt><trkpt lat="44.731684841022464" lon="9.265549489909084"><ele>1237.0</ele><time>2026-05-01T15:08:58.001Z</time></trkpt><trkpt lat="44.73162039450982" lon="9.265420602275505"><ele>1237.8</ele><time>2026-05-01T15:08:59.001Z</time></trkpt><trkpt lat="44.73154737737648" lon="9.265294981924335"><ele>1238.6</ele><time>2026-05-01T15:09:00.001Z</time></trkpt><trkpt lat="44.73148376786142" lon="9.265172413705034"><ele>1239.3999999999999</ele><time>2026-05-01T15:09:01.002Z</time></trkpt><trkpt lat="44.73141749680942" lon="9.265082087155866"><ele>1240.2</ele><time>2026-05-01T15:09:02.002Z</time></trkpt><trkpt lat="44.731364876799205" lon="9.26499742321753"><ele>1241.0</ele><time>2026-05-01T15:09:03.002Z</time></trkpt><trkpt lat="44.73132158507125" lon="9.26493265510846"><ele>1241.0</ele><time>2026-05-01T15:09:04.002Z</time></trkpt><trkpt lat="44.731321256463126" lon="9.264841269544911"><ele>1241.0</ele><time>2026-05-01T15:09:05.002Z</time></trkpt><trkpt lat="44.73140946939296" lon="9.264730992971185"><ele>1241.0</ele><time>2026-05-01T15:09:07.002Z</time></trkpt><trkpt lat="44.73154467768948" lon="9.264813959510136"><ele>1241.0</ele><time>2026-05-01T15:09:09.002Z</time></trkpt><trkpt lat="44.731605645004905" lon="9.264896446976927"><ele>1241.0</ele><time>2026-05-01T15:09:10.002Z</time></trkpt><trkpt lat="44.731652033343245" lon="9.265006516072505"><ele>1241.0</ele><time>2026-05-01T15:09:11.002Z</time></trkpt><trkpt lat="44.73169782744562" lon="9.265111365485296"><ele>1241.0</ele><time>2026-05-01T15:09:12.002Z</time></trkpt><trkpt lat="44.73176566850271" lon="9.265214243996514"><ele>1241.0</ele><time>2026-05-01T15:09:13.002Z</time></trkpt><trkpt lat="44.73188555430603" lon="9.265287399896378"><ele>1241.0</ele><time>2026-05-01T15:09:14.002Z</time></trkpt><trkpt lat="44.73199146240074" lon="9.265328650958217"><ele>1241.0</ele><time>2026-05-01T15:09:15.002Z</time></trkpt><trkpt lat="44.73209981666746" lon="9.265394928147069"><ele>1235.25</ele><time>2026-05-01T15:09:16.002Z</time></trkpt><trkpt lat="44.732216745010355" lon="9.265461513095275"><ele>1229.5</ele><time>2026-05-01T15:09:17.002Z</time></trkpt><trkpt lat="44.73234527876743" lon="9.265479351077436"><ele>1223.75</ele><time>2026-05-01T15:09:18.002Z</time></trkpt><trkpt lat="44.73248554576316" lon="9.26548092932881"><ele>1218.0</ele><time>2026-05-01T15:09:19.002Z</time></trkpt><trkpt lat="44.73261565614541" lon="9.265511080804117"><ele>1211.75</ele><time>2026-05-01T15:09:20.002Z</time></trkpt><trkpt lat="44.732755072759915" lon="9.26550984612266"><ele>1205.5</ele><time>2026-05-01T15:09:21.002Z</time></trkpt><trkpt lat="44.73290130074109" lon="9.265506740529778"><ele>1199.25</ele><time>2026-05-01T15:09:22.002Z</time></trkpt><trkpt lat="44.733044052509996" lon="9.265520848902446"><ele>1193.0</ele><time>2026-05-01T15:09:23.002Z</time></trkpt><trkpt lat="44.73319317685075" lon="9.265544576841686"><ele>1193.0</ele><time>2026-05-01T15:09:24.002Z</time></trkpt><trkpt lat="44.73332985096416" lon="9.265561126575612"><ele>1193.0</ele><time>2026-05-01T15:09:25.002Z</time></trkpt><trkpt lat="44.73348090724151" lon="9.265573776502539"><ele>1193.0</ele><time>2026-05-01T15:09:26.002Z</time></trkpt><trkpt lat="44.733620093883125" lon="9.26559467737981"><ele>1193.0</ele><time>2026-05-01T15:09:27.002Z</time></trkpt><trkpt lat="44.73375394748416" lon="9.26563372273287"><ele>1191.8333333333335</ele><time>2026-05-01T15:09:28.002Z</time></trkpt><trkpt lat="44.733859581821726" lon="9.265666559968508"><ele>1190.6666666666667</ele><time>2026-05-01T15:09:29.002Z</time></trkpt><trkpt lat="44.733940081405066" lon="9.265706490776434"><ele>1189.5</ele><time>2026-05-01T15:09:30.002Z</time></trkpt><trkpt lat="44.733992382343004" lon="9.265756024218184"><ele>1188.3333333333333</ele><time>2026-05-01T15:09:31.002Z</time></trkpt><trkpt lat="44.734005720262765" lon="9.265898785013569"><ele>1187.1666666666665</ele><time>2026-05-01T15:09:33.002Z</time></trkpt><trkpt lat="44.73398397921404" lon="9.265992251449227"><ele>1186.0</ele><time>2026-05-01T15:09:34.002Z</time></trkpt><trkpt lat="44.733962834079826" lon="9.266106764357147"><ele>1186.0</ele><time>2026-05-01T15:09:35.002Z</time></trkpt><trkpt lat="44.73396040004096" lon="9.266221367219934"><ele>1186.0</ele><time>2026-05-01T15:09:36.002Z</time></trkpt><trkpt lat="44.73398817874296" lon="9.26633618951924"><ele>1186.0</ele><time>2026-05-01T15:09:37.002Z</time></trkpt><trkpt lat="44.73405070608363" lon="9.26642843732977"><ele>1186.0</ele><time>2026-05-01T15:09:38.002Z</time></trkpt><trkpt lat="44.73413425663779" lon="9.266485937901422"><ele>1186.0</ele><time>2026-05-01T15:09:39.002Z</time></trkpt><trkpt lat="44.73423231066094" lon="9.266518374271659"><ele>1184.5</ele><time>2026-05-01T15:09:40.002Z</time></trkpt><trkpt lat="44.734332893734084" lon="9.266514333149612"><ele>1183.0</ele><time>2026-05-01T15:09:41.001Z</time></trkpt><trkpt lat="44.734417580254835" lon="9.266501912335961"><ele>1181.5</ele><time>2026-05-01T15:09:42.001Z</time></trkpt><trkpt lat="44.734503073053915" lon="9.26649949360526"><ele>1180.0</ele><time>2026-05-01T15:09:43.001Z</time></trkpt><trkpt lat="44.73458239664856" lon="9.266520404070304"><ele>1178.5</ele><time>2026-05-01T15:09:44.001Z</time></trkpt><trkpt lat="44.734640136031345" lon="9.266571625809414"><ele>1177.0</ele><time>2026-05-01T15:09:45.001Z</time></trkpt><trkpt lat="44.73471000175876" lon="9.26665151056187"><ele>1177.0</ele><time>2026-05-01T15:09:46.001Z</time></trkpt><trkpt lat="44.73478268763866" lon="9.26674225000493"><ele>1177.0</ele><time>2026-05-01T15:09:47.001Z</time></trkpt><trkpt lat="44.73486782873501" lon="9.266830507462698"><ele>1177.0</ele><time>2026-05-01T15:09:48.001Z</time></trkpt><trkpt lat="44.73496499921184" lon="9.266882881352647"><ele>1177.0</ele><time>2026-05-01T15:09:49.001Z</time></trkpt><trkpt lat="44.735046814360146" lon="9.26693760287379"><ele>1177.0</ele><time>2026-05-01T15:09:50.001Z</time></trkpt><trkpt lat="44.73509333404722" lon="9.267015836560232"><ele>1177.0</ele><time>2026-05-01T15:09:51.001Z</time></trkpt><trkpt lat="44.735118949402846" lon="9.26711615522719"><ele>1177.0</ele><time>2026-05-01T15:09:52.001Z</time></trkpt><trkpt lat="44.735135212998934" lon="9.267207807782121"><ele>1177.0</ele><time>2026-05-01T15:09:53.001Z</time></trkpt><trkpt lat="44.73514487242575" lon="9.26731343186449"><ele>1177.0</ele><time>2026-05-01T15:09:54.001Z</time></trkpt><trkpt lat="44.735170221504504" lon="9.267414181252848"><ele>1177.0</ele><time>2026-05-01T15:09:55.001Z</time></trkpt><trkpt lat="44.73522066150125" lon="9.267471426771653"><ele>1177.0</ele><time>2026-05-01T15:09:56.001Z</time></trkpt><trkpt lat="44.73528974822369" lon="9.267476272221524"><ele>1177.0</ele><time>2026-05-01T15:09:57.001Z</time></trkpt><trkpt lat="44.73535958048538" lon="9.267423488924434"><ele>1171.0</ele><time>2026-05-01T15:09:58.001Z</time></trkpt><trkpt lat="44.735391670942" lon="9.26734288363266"><ele>1165.0</ele><time>2026-05-01T15:09:59.001Z</time></trkpt><trkpt lat="44.73538868508156" lon="9.267200009584693"><ele>1159.0</ele><time>2026-05-01T15:10:00.001Z</time></trkpt><trkpt lat="44.73537287163413" lon="9.267073752228129"><ele>1153.0</ele><time>2026-05-01T15:10:01.001Z</time></trkpt><trkpt lat="44.73532367316134" lon="9.266916155829415"><ele>1147.0</ele><time>2026-05-01T15:10:02.001Z</time></trkpt><trkpt lat="44.73527830507728" lon="9.266798532550835"><ele>1148.75</ele><time>2026-05-01T15:10:03.001Z</time></trkpt><trkpt lat="44.735203280896584" lon="9.266639279667936"><ele>1150.5</ele><time>2026-05-01T15:10:04.001Z</time></trkpt><trkpt lat="44.73511361335687" lon="9.266508157409266"><ele>1152.25</ele><time>2026-05-01T15:10:05.001Z</time></trkpt><trkpt lat="44.73503422990688" lon="9.266389986085136"><ele>1154.0</ele><time>2026-05-01T15:10:06.001Z</time></trkpt><trkpt lat="44.73495545292925" lon="9.266269036811869"><ele>1154.0</ele><time>2026-05-01T15:10:07.001Z</time></trkpt><trkpt lat="44.73487739354866" lon="9.266148737965262"><ele>1154.0</ele><time>2026-05-01T15:10:08.001Z</time></trkpt><trkpt lat="44.734814137829495" lon="9.26604999117113"><ele>1154.0</ele><time>2026-05-01T15:10:09.001Z</time></trkpt><trkpt lat="44.734775388879676" lon="9.265954264257147"><ele>1154.0</ele><time>2026-05-01T15:10:10.001Z</time></trkpt><trkpt lat="44.73481487088066" lon="9.265883316217844"><ele>1154.0</ele><time>2026-05-01T15:10:13.001Z</time></trkpt><trkpt lat="44.73492190972793" lon="9.265927895823827"><ele>1154.0</ele><time>2026-05-01T15:10:15.001Z</time></trkpt><trkpt lat="44.73498152397725" lon="9.266016833368424"><ele>1154.0</ele><time>2026-05-01T15:10:16.001Z</time></trkpt><trkpt lat="44.735051785295674" lon="9.266107619340163"><ele>1154.0</ele><time>2026-05-01T15:10:17.001Z</time></trkpt><trkpt lat="44.73513759026048" lon="9.266184575164562"><ele>1154.0</ele><time>2026-05-01T15:10:18.001Z</time></trkpt><trkpt lat="44.73523945178292" lon="9.266270197212881"><ele>1154.0</ele><time>2026-05-01T15:10:19.001Z</time></trkpt><trkpt lat="44.735348129858004" lon="9.266343189296677"><ele>1152.25</ele><time>2026-05-01T15:10:20.001Z</time></trkpt><trkpt lat="44.73546727494788" lon="9.266440375525022"><ele>1150.5</ele><time>2026-05-01T15:10:21.001Z</time></trkpt><trkpt lat="44.735583371484275" lon="9.26652227873659"><ele>1148.75</ele><time>2026-05-01T15:10:22.001Z</time></trkpt><trkpt lat="44.73569756580125" lon="9.266608111506951"><ele>1147.0</ele><time>2026-05-01T15:10:23.001Z</time></trkpt><trkpt lat="44.735817180808034" lon="9.266683204147425"><ele>1147.0</ele><time>2026-05-01T15:10:24.001Z</time></trkpt><trkpt lat="44.735895365240246" lon="9.26677845879861"><ele>1147.0</ele><time>2026-05-01T15:10:25.001Z</time></trkpt><trkpt lat="44.735938855865584" lon="9.266883495801464"><ele>1147.0</ele><time>2026-05-01T15:10:26.001Z</time></trkpt><trkpt lat="44.73599915829738" lon="9.26698669496632"><ele>1147.0</ele><time>2026-05-01T15:10:27.001Z</time></trkpt><trkpt lat="44.73599357389782" lon="9.267134703911507"><ele>1147.0</ele><time>2026-05-01T15:10:28.001Z</time></trkpt><trkpt lat="44.73596896934009" lon="9.267284593870155"><ele>1146.4</ele><time>2026-05-01T15:10:29.001Z</time></trkpt><trkpt lat="44.73588725793962" lon="9.26736732202634"><ele>1145.8000000000002</ele><time>2026-05-01T15:10:30.001Z</time></trkpt><trkpt lat="44.7358089695747" lon="9.267502601702363"><ele>1145.2</ele><time>2026-05-01T15:10:31.001Z</time></trkpt><trkpt lat="44.73576149705786" lon="9.26759286672919"><ele>1144.6000000000001</ele><time>2026-05-01T15:10:32.001Z</time></trkpt><trkpt lat="44.73570246057951" lon="9.267707115884276"><ele>1144.0</ele><time>2026-05-01T15:10:33.001Z</time></trkpt><trkpt lat="44.73561122263031" lon="9.26788411747048"><ele>1144.0</ele><time>2026-05-01T15:10:34.001Z</time></trkpt><trkpt lat="44.7355307048183" lon="9.26805254030101"><ele>1144.0</ele><time>2026-05-01T15:10:35.001Z</time></trkpt><trkpt lat="44.735444151865266" lon="9.26823384469828"><ele>1144.0</ele><time>2026-05-01T15:10:36.001Z</time></trkpt><trkpt lat="44.735363182239745" lon="9.268404728280546"><ele>1144.0</ele><time>2026-05-01T15:10:37.001Z</time></trkpt><trkpt lat="44.735282484421056" lon="9.268579321334453"><ele>1143.0</ele><time>2026-05-01T15:10:38.001Z</time></trkpt><trkpt lat="44.73520962104503" lon="9.26873972441096"><ele>1142.0</ele><time>2026-05-01T15:10:39.001Z</time></trkpt><trkpt lat="44.7351425776043" lon="9.268898142885618"><ele>1141.0</ele><time>2026-05-01T15:10:40.001Z</time></trkpt><trkpt lat="44.73506935917218" lon="9.269077942081525"><ele>1140.0</ele><time>2026-05-01T15:10:41.001Z</time></trkpt><trkpt lat="44.734992830532725" lon="9.269264588783942"><ele>1140.0</ele><time>2026-05-01T15:10:42.001Z</time></trkpt><trkpt lat="44.734930381173335" lon="9.269406599461618"><ele>1140.0</ele><time>2026-05-01T15:10:43.001Z</time></trkpt><trkpt lat="44.73485481196722" lon="9.269545549935275"><ele>1140.0</ele><time>2026-05-01T15:10:44.001Z</time></trkpt><trkpt lat="44.73475897263251" lon="9.269702306660298"><ele>1140.0</ele><time>2026-05-01T15:10:45.001Z</time></trkpt><trkpt lat="44.73465586386117" lon="9.269876225815942"><ele>1130.0</ele><time>2026-05-01T15:10:46.001Z</time></trkpt><trkpt lat="44.734563707892676" lon="9.270061036128908"><ele>1120.0</ele><time>2026-05-01T15:10:47.001Z</time></trkpt><trkpt lat="44.73447922993621" lon="9.270244560495597"><ele>1110.0</ele><time>2026-05-01T15:10:48.001Z</time></trkpt><trkpt lat="44.73439910561054" lon="9.270435182308319"><ele>1112.25</ele><time>2026-05-01T15:10:49.001Z</time></trkpt><trkpt lat="44.73429582146453" lon="9.270597175616818"><ele>1114.5</ele><time>2026-05-01T15:10:50.001Z</time></trkpt><trkpt lat="44.73418864414165" lon="9.270745795197024"><ele>1116.75</ele><time>2026-05-01T15:10:51.001Z</time></trkpt><trkpt lat="44.734091916484076" lon="9.270894050045412"><ele>1119.0</ele><time>2026-05-01T15:10:52.001Z</time></trkpt><trkpt lat="44.73402255696844" lon="9.27104601850702"><ele>1119.0</ele><time>2026-05-01T15:10:53.001Z</time></trkpt><trkpt lat="44.733969336686876" lon="9.271198542229808"><ele>1119.0</ele><time>2026-05-01T15:10:54.001Z</time></trkpt><trkpt lat="44.733893756316924" lon="9.271385915344418"><ele>1119.0</ele><time>2026-05-01T15:10:55.001Z</time></trkpt><trkpt lat="44.733802694865034" lon="9.271524931116726"><ele>1119.0</ele><time>2026-05-01T15:10:56.001Z</time></trkpt><trkpt lat="44.73371841462831" lon="9.271662301528682"><ele>1119.0</ele><time>2026-05-01T15:10:57.001Z</time></trkpt><trkpt lat="44.733623789056594" lon="9.27178572433053"><ele>1119.0</ele><time>2026-05-01T15:10:58.001Z</time></trkpt><trkpt lat="44.73352669077716" lon="9.271882881931832"><ele>1119.0</ele><time>2026-05-01T15:10:59.001Z</time></trkpt><trkpt lat="44.73342460081621" lon="9.27196933511817"><ele>1119.0</ele><time>2026-05-01T15:11:00.001Z</time></trkpt><trkpt lat="44.73332118760205" lon="9.272063277328092"><ele>1119.0</ele><time>2026-05-01T15:11:01.001Z</time></trkpt><trkpt lat="44.733227075267884" lon="9.272159025115172"><ele>1119.0</ele><time>2026-05-01T15:11:02.001Z</time></trkpt><trkpt lat="44.73314209122008" lon="9.272252902000732"><ele>1119.0</ele><time>2026-05-01T15:11:03.001Z</time></trkpt><trkpt lat="44.7330626680768" lon="9.272332697573319"><ele>1119.0</ele><time>2026-05-01T15:11:04.001Z</time></trkpt><trkpt lat="44.73296975474835" lon="9.272400858877145"><ele>1119.0</ele><time>2026-05-01T15:11:05.001Z</time></trkpt><trkpt lat="44.73287937787978" lon="9.272411336235324"><ele>1112.2</ele><time>2026-05-01T15:11:06.001Z</time></trkpt><trkpt lat="44.73277404785609" lon="9.272421246683324"><ele>1105.4</ele><time>2026-05-01T15:11:07.001Z</time></trkpt><trkpt lat="44.73266269223776" lon="9.272404256412996"><ele>1098.6</ele><time>2026-05-01T15:11:08.001Z</time></trkpt><trkpt lat="44.73256252654682" lon="9.272417964341134"><ele>1091.8</ele><time>2026-05-01T15:11:09.001Z</time></trkpt><trkpt lat="44.73245486139015" lon="9.272428056037427"><ele>1085.0</ele><time>2026-05-01T15:11:10.001Z</time></trkpt><trkpt lat="44.732355989695776" lon="9.272446127929223"><ele>1085.0</ele><time>2026-05-01T15:11:11.001Z</time></trkpt><trkpt lat="44.7322864791543" lon="9.272461278969157"><ele>1085.0</ele><time>2026-05-01T15:11:12.001Z</time></trkpt><trkpt lat="44.73223544855085" lon="9.27253753047026"><ele>1085.0</ele><time>2026-05-01T15:11:14.001Z</time></trkpt><trkpt lat="44.732266012588205" lon="9.27265740094955"><ele>1085.0</ele><time>2026-05-01T15:11:17.001Z</time></trkpt><trkpt lat="44.7324103644734" lon="9.27263241651597"><ele>1085.0</ele><time>2026-05-01T15:11:19.001Z</time></trkpt><trkpt lat="44.732493615907295" lon="9.272626457006186"><ele>1085.0</ele><time>2026-05-01T15:11:20.001Z</time></trkpt><trkpt lat="44.7325911692642" lon="9.272618254648018"><ele>1085.0</ele><time>2026-05-01T15:11:21.001Z</time></trkpt><trkpt lat="44.732695666874925" lon="9.272679567869707"><ele>1085.0</ele><time>2026-05-01T15:11:22.001Z</time></trkpt><trkpt lat="44.73281715507446" lon="9.272718966026904"><ele>1085.0</ele><time>2026-05-01T15:11:23.001Z</time></trkpt><trkpt lat="44.73294296397307" lon="9.272757925145301"><ele>1084.0</ele><time>2026-05-01T15:11:24.001Z</time></trkpt><trkpt lat="44.73306539182968" lon="9.272789453784021"><ele>1083.0</ele><time>2026-05-01T15:11:25.001Z</time></trkpt><trkpt lat="44.733182636755664" lon="9.272815347395348"><ele>1082.0</ele><time>2026-05-01T15:11:26.002Z</time></trkpt><trkpt lat="44.73329746224134" lon="9.272843791107773"><ele>1081.0</ele><time>2026-05-01T15:11:27.002Z</time></trkpt><trkpt lat="44.73341169957618" lon="9.272836231686819"><ele>1081.0</ele><time>2026-05-01T15:11:28.002Z</time></trkpt><trkpt lat="44.73353960895552" lon="9.27281062201318"><ele>1081.0</ele><time>2026-05-01T15:11:29.002Z</time></trkpt><trkpt lat="44.7336640946142" lon="9.272791804790986"><ele>1081.0</ele><time>2026-05-01T15:11:30.002Z</time></trkpt><trkpt lat="44.73378169433391" lon="9.272776571118264"><ele>1081.0</ele><time>2026-05-01T15:11:31.002Z</time></trkpt><trkpt lat="44.73390199669605" lon="9.272748524682228"><ele>1078.6</ele><time>2026-05-01T15:11:32.002Z</time></trkpt><trkpt lat="44.73401430281133" lon="9.272688263064943"><ele>1076.1999999999998</ele><time>2026-05-01T15:11:33.002Z</time></trkpt><trkpt lat="44.73409772469301" lon="9.272670327061007"><ele>1073.8000000000002</ele><time>2026-05-01T15:11:34.002Z</time></trkpt><trkpt lat="44.7341998659006" lon="9.272708970044755"><ele>1071.4</ele><time>2026-05-01T15:11:36.002Z</time></trkpt><trkpt lat="44.73419467725959" lon="9.272835682676217"><ele>1069.0</ele><time>2026-05-01T15:11:38.002Z</time></trkpt><trkpt lat="44.73408265833617" lon="9.27288016548482"><ele>1069.0</ele><time>2026-05-01T15:11:40.002Z</time></trkpt><trkpt lat="44.734013673408576" lon="9.27290599372059"><ele>1069.0</ele><time>2026-05-01T15:11:41.002Z</time></trkpt><trkpt lat="44.73393246058669" lon="9.272905144109872"><ele>1069.0</ele><time>2026-05-01T15:11:42.002Z</time></trkpt><trkpt lat="44.733838795120434" lon="9.272923125732081"><ele>1069.0</ele><time>2026-05-01T15:11:43.002Z</time></trkpt><trkpt lat="44.733734960099966" lon="9.272969891971396"><ele>1069.0</ele><time>2026-05-01T15:11:44.002Z</time></trkpt><trkpt lat="44.73363757510265" lon="9.273031243560327"><ele>1066.0</ele><time>2026-05-01T15:11:45.002Z</time></trkpt><trkpt lat="44.7335456299001" lon="9.2731093661738"><ele>1063.0</ele><time>2026-05-01T15:11:46.002Z</time></trkpt><trkpt lat="44.73346797800681" lon="9.273197693891852"><ele>1060.0</ele><time>2026-05-01T15:11:47Z</time></trkpt><trkpt lat="44.73339423450361" lon="9.273279464945963"><ele>1057.0</ele><time>2026-05-01T15:11:48Z</time></trkpt><trkpt lat="44.733383262644914" lon="9.273409705387696"><ele>1054.0</ele><time>2026-05-01T15:11:49Z</time></trkpt><trkpt lat="44.73339041743973" lon="9.27350851344146"><ele>1054.0</ele><time>2026-05-01T15:11:50Z</time></trkpt><trkpt lat="44.733414937424115" lon="9.273603846428893"><ele>1054.0</ele><time>2026-05-01T15:11:51Z</time></trkpt><trkpt lat="44.73345739161813" lon="9.273709534782473"><ele>1054.0</ele><time>2026-05-01T15:11:52Z</time></trkpt><trkpt lat="44.73351337545431" lon="9.273834876652044"><ele>1054.0</ele><time>2026-05-01T15:11:53Z</time></trkpt><trkpt lat="44.73357237811964" lon="9.273974090266034"><ele>1054.0</ele><time>2026-05-01T15:11:54Z</time></trkpt><trkpt lat="44.73363696228203" lon="9.274120218891632"><ele>1051.25</ele><time>2026-05-01T15:11:55Z</time></trkpt><trkpt lat="44.73370283030516" lon="9.274277799382357"><ele>1048.5</ele><time>2026-05-01T15:11:56Z</time></trkpt><trkpt lat="44.73376389263322" lon="9.274429552257692"><ele>1045.75</ele><time>2026-05-01T15:11:57Z</time></trkpt><trkpt lat="44.73382816371541" lon="9.2745772860301"><ele>1043.0</ele><time>2026-05-01T15:11:58Z</time></trkpt><trkpt lat="44.73388946376738" lon="9.274725568704891"><ele>1040.8</ele><time>2026-05-01T15:11:59Z</time></trkpt><trkpt lat="44.73397054639855" lon="9.274832758259038"><ele>1038.6</ele><time>2026-05-01T15:12:00Z</time></trkpt><trkpt lat="44.73404801997235" lon="9.274909282066211"><ele>1036.4</ele><time>2026-05-01T15:12:01Z</time></trkpt><trkpt lat="44.734127294543036" lon="9.27496633072504"><ele>1034.2</ele><time>2026-05-01T15:12:02Z</time></trkpt><trkpt lat="44.73422526088716" lon="9.27496409752139"><ele>1032.0</ele><time>2026-05-01T15:12:03Z</time></trkpt><trkpt lat="44.73432866327349" lon="9.274944783990131"><ele>1033.25</ele><time>2026-05-01T15:12:04Z</time></trkpt><trkpt lat="44.7344395943184" lon="9.27489057629592"><ele>1034.5</ele><time>2026-05-01T15:12:05Z</time></trkpt><trkpt lat="44.73454675430153" lon="9.27482321750084"><ele>1035.75</ele><time>2026-05-01T15:12:06Z</time></trkpt><trkpt lat="44.73465793481749" lon="9.27477047455388"><ele>1037.0</ele><time>2026-05-01T15:12:07Z</time></trkpt><trkpt lat="44.73477544247049" lon="9.274751236340983"><ele>1037.0</ele><time>2026-05-01T15:12:08Z</time></trkpt><trkpt lat="44.73487612985501" lon="9.274788446073021"><ele>1037.0</ele><time>2026-05-01T15:12:09Z</time></trkpt><trkpt lat="44.73496731244571" lon="9.274849407705227"><ele>1037.0</ele><time>2026-05-01T15:12:10Z</time></trkpt><trkpt lat="44.73504849014784" lon="9.274899152869402"><ele>1037.0</ele><time>2026-05-01T15:12:11Z</time></trkpt><trkpt lat="44.73512113726308" lon="9.274891050445886"><ele>1037.0</ele><time>2026-05-01T15:12:12Z</time></trkpt><trkpt lat="44.73520692510356" lon="9.274751372719988"><ele>1037.0</ele><time>2026-05-01T15:12:14Z</time></trkpt><trkpt lat="44.7352185123447" lon="9.274636793309872"><ele>1037.0</ele><time>2026-05-01T15:12:15Z</time></trkpt><trkpt lat="44.73524670960991" lon="9.274508364544007"><ele>1037.0</ele><time>2026-05-01T15:12:16Z</time></trkpt><trkpt lat="44.73527207935097" lon="9.274391119983807"><ele>1037.0</ele><time>2026-05-01T15:12:17Z</time></trkpt><trkpt lat="44.73531639653096" lon="9.274269492266173"><ele>1037.0</ele><time>2026-05-01T15:12:18Z</time></trkpt><trkpt lat="44.7353957214317" lon="9.274162752330842"><ele>1033.6</ele><time>2026-05-01T15:12:19Z</time></trkpt><trkpt lat="44.7354866699818" lon="9.274057202874607"><ele>1030.2</ele><time>2026-05-01T15:12:20Z</time></trkpt><trkpt lat="44.73556062607275" lon="9.273936989027455"><ele>1026.8</ele><time>2026-05-01T15:12:21Z</time></trkpt><trkpt lat="44.735644805918675" lon="9.273838073735298"><ele>1023.4</ele><time>2026-05-01T15:12:22Z</time></trkpt><trkpt lat="44.735709999051906" lon="9.273727696926263"><ele>1020.0</ele><time>2026-05-01T15:12:23Z</time></trkpt><trkpt lat="44.73577161831847" lon="9.273620634471948"><ele>1020.0</ele><time>2026-05-01T15:12:24Z</time></trkpt><trkpt lat="44.73580493862045" lon="9.273509656850356"><ele>1020.0</ele><time>2026-05-01T15:12:25Z</time></trkpt><trkpt lat="44.7358026210561" lon="9.273398258630014"><ele>1020.0</ele><time>2026-05-01T15:12:26Z</time></trkpt><trkpt lat="44.73576317899057" lon="9.273295388407202"><ele>1020.0</ele><time>2026-05-01T15:12:27Z</time></trkpt><trkpt lat="44.73572378621215" lon="9.273177761780554"><ele>1020.0</ele><time>2026-05-01T15:12:28Z</time></trkpt><trkpt lat="44.73567181811502" lon="9.273059833944801"><ele>1020.0</ele><time>2026-05-01T15:12:29Z</time></trkpt><trkpt lat="44.73564783868275" lon="9.272963122483926"><ele>1019.6</ele><time>2026-05-01T15:12:30Z</time></trkpt><trkpt lat="44.73562544048065" lon="9.27286275572595"><ele>1019.2</ele><time>2026-05-01T15:12:31Z</time></trkpt><trkpt lat="44.73564103018933" lon="9.272739257783204"><ele>1018.8</ele><time>2026-05-01T15:12:32Z</time></trkpt><trkpt lat="44.73568849080683" lon="9.272600377768633"><ele>1018.4</ele><time>2026-05-01T15:12:33Z</time></trkpt><trkpt lat="44.73573474319708" lon="9.272469609980698"><ele>1018.0</ele><time>2026-05-01T15:12:34.001Z</time></trkpt><trkpt lat="44.735764815167734" lon="9.272346556178773"><ele>1017.9999999999999</ele><time>2026-05-01T15:12:35.001Z</time></trkpt><trkpt lat="44.735804702736445" lon="9.27225531876829"><ele>1018.0</ele><time>2026-05-01T15:12:36.001Z</time></trkpt><trkpt lat="44.73590436474044" lon="9.272209754748333"><ele>1018.0</ele><time>2026-05-01T15:12:38.001Z</time></trkpt><trkpt lat="44.735965034709395" lon="9.272317495269016"><ele>1018.0</ele><time>2026-05-01T15:12:40.001Z</time></trkpt><trkpt lat="44.7359523895896" lon="9.272427435078315"><ele>1017.9999999999999</ele><time>2026-05-01T15:12:41.001Z</time></trkpt><trkpt lat="44.73591212474281" lon="9.272536052678278"><ele>1018.0</ele><time>2026-05-01T15:12:42.001Z</time></trkpt><trkpt lat="44.735873105190045" lon="9.272647890987765"><ele>1017.9999999999999</ele><time>2026-05-01T15:12:43.001Z</time></trkpt><trkpt lat="44.73585400828127" lon="9.272759832638771"><ele>1018.0</ele><time>2026-05-01T15:12:44.001Z</time></trkpt><trkpt lat="44.735863727285995" lon="9.272871183247451"><ele>1018.0</ele><time>2026-05-01T15:12:45.001Z</time></trkpt><trkpt lat="44.73590453090956" lon="9.272975523516925"><ele>1018.0</ele><time>2026-05-01T15:12:46.001Z</time></trkpt><trkpt lat="44.73596292221235" lon="9.273078095477965"><ele>1017.9999999999999</ele><time>2026-05-01T15:12:47.001Z</time></trkpt><trkpt lat="44.7360297587554" lon="9.273179038941278"><ele>1018.0</ele><time>2026-05-01T15:12:48.001Z</time></trkpt><trkpt lat="44.73609818826837" lon="9.273266193949793"><ele>1015.4999999999999</ele><time>2026-05-01T15:12:49.001Z</time></trkpt><trkpt lat="44.73616033198416" lon="9.273355260895604"><ele>1013.0</ele><time>2026-05-01T15:12:50.001Z</time></trkpt><trkpt lat="44.73621312986434" lon="9.27344333248679"><ele>1010.5</ele><time>2026-05-01T15:12:51.001Z</time></trkpt><trkpt lat="44.7362546775073" lon="9.273544213372311"><ele>1008.0</ele><time>2026-05-01T15:12:52.001Z</time></trkpt><trkpt lat="44.736285408559695" lon="9.27365881811597"><ele>1005.4999999999999</ele><time>2026-05-01T15:12:53.001Z</time></trkpt><trkpt lat="44.73629977011951" lon="9.273768320674415"><ele>1003.0</ele><time>2026-05-01T15:12:54.001Z</time></trkpt><trkpt lat="44.736332279883854" lon="9.273882041437071"><ele>1002.3333333333333</ele><time>2026-05-01T15:12:55.001Z</time></trkpt><trkpt lat="44.73629911078891" lon="9.274033650867644"><ele>1001.6666666666666</ele><time>2026-05-01T15:12:56.001Z</time></trkpt><trkpt lat="44.73624377947407" lon="9.274134322329282"><ele>1001.0</ele><time>2026-05-01T15:12:57.001Z</time></trkpt><trkpt lat="44.7361944903264" lon="9.274220232449709"><ele>1000.3333333333333</ele><time>2026-05-01T15:12:58.001Z</time></trkpt><trkpt lat="44.73613774223191" lon="9.274295389643537"><ele>999.6666666666666</ele><time>2026-05-01T15:12:59.001Z</time></trkpt><trkpt lat="44.736087703543966" lon="9.274370239580067"><ele>999.0</ele><time>2026-05-01T15:13:00.001Z</time></trkpt><trkpt lat="44.73599700955939" lon="9.274460273060154"><ele>1000.0</ele><time>2026-05-01T15:13:01.001Z</time></trkpt><trkpt lat="44.73590111759074" lon="9.274561087319706"><ele>1001.0000000000001</ele><time>2026-05-01T15:13:02.001Z</time></trkpt><trkpt lat="44.735807682949336" lon="9.274639313328532"><ele>1002.0000000000001</ele><time>2026-05-01T15:13:03.001Z</time></trkpt><trkpt lat="44.73573549937163" lon="9.274709620608773"><ele>1003.0</ele><time>2026-05-01T15:13:04.001Z</time></trkpt><trkpt lat="44.73567762857339" lon="9.274805427298213"><ele>1004.0</ele><time>2026-05-01T15:13:05.001Z</time></trkpt><trkpt lat="44.73563589089748" lon="9.27490539205086"><ele>1004.0000000000001</ele><time>2026-05-01T15:13:06.001Z</time></trkpt><trkpt lat="44.735618442540726" lon="9.275012327368527"><ele>1004.0</ele><time>2026-05-01T15:13:07.001Z</time></trkpt><trkpt lat="44.735628734754485" lon="9.27511042631517"><ele>1004.0</ele><time>2026-05-01T15:13:08.001Z</time></trkpt><trkpt lat="44.73566555221972" lon="9.275214244572235"><ele>1004.0</ele><time>2026-05-01T15:13:09.001Z</time></trkpt><trkpt lat="44.73573204874831" lon="9.275315483344674"><ele>1004.0000000000001</ele><time>2026-05-01T15:13:10.001Z</time></trkpt><trkpt lat="44.735819867612875" lon="9.275403622543552"><ele>1004.0</ele><time>2026-05-01T15:13:11.001Z</time></trkpt><trkpt lat="44.73588593821169" lon="9.2754970803136"><ele>1004.0</ele><time>2026-05-01T15:13:12.001Z</time></trkpt><trkpt lat="44.73592690975816" lon="9.275594347205665"><ele>1004.0000000000001</ele><time>2026-05-01T15:13:13.001Z</time></trkpt><trkpt lat="44.73595659617879" lon="9.275696625873382"><ele>1004.0000000000001</ele><time>2026-05-01T15:13:14.001Z</time></trkpt><trkpt lat="44.735974749467665" lon="9.275807239691625"><ele>1004.0</ele><time>2026-05-01T15:13:15.001Z</time></trkpt><trkpt lat="44.73597250436806" lon="9.27595653829681"><ele>1004.0</ele><time>2026-05-01T15:13:16.001Z</time></trkpt><trkpt lat="44.73595857943106" lon="9.276120572237833"><ele>1002.0</ele><time>2026-05-01T15:13:17.001Z</time></trkpt><trkpt lat="44.7359411396292" lon="9.276289580197604"><ele>1000.0</ele><time>2026-05-01T15:13:18.001Z</time></trkpt><trkpt lat="44.73591427736735" lon="9.276454184097966"><ele>998.0</ele><time>2026-05-01T15:13:19.001Z</time></trkpt><trkpt lat="44.73589199371852" lon="9.27660488695174"><ele>996.0</ele><time>2026-05-01T15:13:20.001Z</time></trkpt><trkpt lat="44.73588933166059" lon="9.27675865154684"><ele>994.5</ele><time>2026-05-01T15:13:21.001Z</time></trkpt><trkpt lat="44.73591421937845" lon="9.276921314437026"><ele>993.0</ele><time>2026-05-01T15:13:22.001Z</time></trkpt><trkpt lat="44.73595201768085" lon="9.27709349361393"><ele>991.5</ele><time>2026-05-01T15:13:23.001Z</time></trkpt><trkpt lat="44.735984164045185" lon="9.277269907399383"><ele>990.0</ele><time>2026-05-01T15:13:24.001Z</time></trkpt><trkpt lat="44.73600998721279" lon="9.27744184025423"><ele>989.0</ele><time>2026-05-01T15:13:25.001Z</time></trkpt><trkpt lat="44.73604291803214" lon="9.27760274413743"><ele>988.0</ele><time>2026-05-01T15:13:26.001Z</time></trkpt><trkpt lat="44.736079475542795" lon="9.277750963267895"><ele>987.0</ele><time>2026-05-01T15:13:27.001Z</time></trkpt><trkpt lat="44.73612949390225" lon="9.277885413416733"><ele>986.0</ele><time>2026-05-01T15:13:28.001Z</time></trkpt><trkpt lat="44.736207136418685" lon="9.278000358934506"><ele>983.1999999999999</ele><time>2026-05-01T15:13:29.001Z</time></trkpt><trkpt lat="44.736291179090884" lon="9.278098969233945"><ele>980.3999999999999</ele><time>2026-05-01T15:13:30.001Z</time></trkpt><trkpt lat="44.736353540334825" lon="9.278223948780445"><ele>977.6</ele><time>2026-05-01T15:13:31.001Z</time></trkpt><trkpt lat="44.7364267136003" lon="9.278334155332814"><ele>974.8</ele><time>2026-05-01T15:13:32.001Z</time></trkpt><trkpt lat="44.73648648100464" lon="9.278418362783933"><ele>972.0</ele><time>2026-05-01T15:13:33.001Z</time></trkpt><trkpt lat="44.736532873023805" lon="9.278518868612617"><ele>972.0</ele><time>2026-05-01T15:13:34.001Z</time></trkpt><trkpt lat="44.73659806710799" lon="9.278608094118505"><ele>972.0</ele><time>2026-05-01T15:13:35.001Z</time></trkpt><trkpt lat="44.736665154605454" lon="9.278677696337839"><ele>972.0</ele><time>2026-05-01T15:13:36.001Z</time></trkpt><trkpt lat="44.73674147063932" lon="9.278739134643788"><ele>972.0</ele><time>2026-05-01T15:13:37.001Z</time></trkpt><trkpt lat="44.736820259473596" lon="9.278788822444676"><ele>972.0</ele><time>2026-05-01T15:13:38.001Z</time></trkpt><trkpt lat="44.73690606873301" lon="9.278816410395832"><ele>972.0</ele><time>2026-05-01T15:13:39.001Z</time></trkpt><trkpt lat="44.736991501927925" lon="9.278814234757407"><ele>969.2</ele><time>2026-05-01T15:13:40.001Z</time></trkpt><trkpt lat="44.737074952903825" lon="9.27878201821773"><ele>966.4000000000001</ele><time>2026-05-01T15:13:41.001Z</time></trkpt><trkpt lat="44.73714836174171" lon="9.278796233971182"><ele>963.5999999999999</ele><time>2026-05-01T15:13:42.001Z</time></trkpt><trkpt lat="44.73724397077041" lon="9.278841419048584"><ele>960.8</ele><time>2026-05-01T15:13:44.001Z</time></trkpt><trkpt lat="44.73725825772097" lon="9.27893518806776"><ele>958.0</ele><time>2026-05-01T15:13:46.001Z</time></trkpt><trkpt lat="44.737361099705225" lon="9.279341520172098"><ele>957.9999999999999</ele><time>2026-05-01T15:13:48.001Z</time></trkpt><trkpt lat="44.73739393432471" lon="9.279460600304347"><ele>958.0</ele><time>2026-05-01T15:13:49.001Z</time></trkpt><trkpt lat="44.73742665054056" lon="9.279576286793013"><ele>958.0</ele><time>2026-05-01T15:13:50.001Z</time></trkpt><trkpt lat="44.737456329087244" lon="9.279681796758812"><ele>958.0</ele><time>2026-05-01T15:13:51.001Z</time></trkpt><trkpt lat="44.73749061017114" lon="9.279788547412819"><ele>957.9999999999999</ele><time>2026-05-01T15:13:52.001Z</time></trkpt><trkpt lat="44.73753609536207" lon="9.279881862403624"><ele>958.0</ele><time>2026-05-01T15:13:53Z</time></trkpt><trkpt lat="44.737582217366885" lon="9.279967508420357"><ele>957.9999999999999</ele><time>2026-05-01T15:13:54Z</time></trkpt><trkpt lat="44.73763724112238" lon="9.280038013690502"><ele>958.0</ele><time>2026-05-01T15:13:55Z</time></trkpt><trkpt lat="44.73770124502519" lon="9.280103795728362"><ele>958.0</ele><time>2026-05-01T15:13:56Z</time></trkpt><trkpt lat="44.7377484459338" lon="9.28018794403351"><ele>958.0</ele><time>2026-05-01T15:13:57Z</time></trkpt><trkpt lat="44.73780048264486" lon="9.280276878218288"><ele>957.9999999999999</ele><time>2026-05-01T15:13:58Z</time></trkpt><trkpt lat="44.73784070832516" lon="9.280380674990766"><ele>958.0</ele><time>2026-05-01T15:13:59Z</time></trkpt><trkpt lat="44.73786454126973" lon="9.280504340734693"><ele>956.9999999999999</ele><time>2026-05-01T15:14:00Z</time></trkpt><trkpt lat="44.73790479114755" lon="9.280604188731587"><ele>956.0</ele><time>2026-05-01T15:14:01Z</time></trkpt><trkpt lat="44.73795657741998" lon="9.280702314885426"><ele>955.0</ele><time>2026-05-01T15:14:02Z</time></trkpt><trkpt lat="44.73800301534888" lon="9.280782746800062"><ele>954.0</ele><time>2026-05-01T15:14:03Z</time></trkpt><trkpt lat="44.73809348074827" lon="9.280872975386895"><ele>952.9999999999999</ele><time>2026-05-01T15:14:05Z</time></trkpt><trkpt lat="44.7381515234328" lon="9.280942284784386"><ele>952.0</ele><time>2026-05-01T15:14:08Z</time></trkpt><trkpt lat="44.7381470859038" lon="9.281107872368521"><ele>952.0</ele><time>2026-05-01T15:14:13Z</time></trkpt><trkpt lat="44.73814804742442" lon="9.281219709223233"><ele>952.0</ele><time>2026-05-01T15:14:17Z</time></trkpt><trkpt lat="44.73825204653962" lon="9.281345302854106"><ele>952.0</ele><time>2026-05-01T15:14:20Z</time></trkpt><trkpt lat="44.738294694480764" lon="9.281435234737431"><ele>952.0</ele><time>2026-05-01T15:14:21Z</time></trkpt><trkpt lat="44.73833860389556" lon="9.281548252940185"><ele>952.0</ele><time>2026-05-01T15:14:22Z</time></trkpt><trkpt lat="44.738407605758724" lon="9.281699447042989"><ele>952.75</ele><time>2026-05-01T15:14:23Z</time></trkpt><trkpt lat="44.73851311075287" lon="9.281836504919019"><ele>953.5</ele><time>2026-05-01T15:14:24Z</time></trkpt><trkpt lat="44.738608127748876" lon="9.28192725353664"><ele>954.25</ele><time>2026-05-01T15:14:25Z</time></trkpt><trkpt lat="44.73869580314778" lon="9.282023050211357"><ele>955.0</ele><time>2026-05-01T15:14:27Z</time></trkpt><trkpt lat="44.73876998796777" lon="9.282127462126759"><ele>955.0</ele><time>2026-05-01T15:14:28Z</time></trkpt><trkpt lat="44.73883178168044" lon="9.282258113158138"><ele>955.0</ele><time>2026-05-01T15:14:29Z</time></trkpt><trkpt lat="44.7388823753558" lon="9.28240665980572"><ele>955.0</ele><time>2026-05-01T15:14:30Z</time></trkpt><trkpt lat="44.73892469797051" lon="9.282561635807191"><ele>955.0</ele><time>2026-05-01T15:14:31Z</time></trkpt><trkpt lat="44.7389617985766" lon="9.282708427720918"><ele>956.6</ele><time>2026-05-01T15:14:32Z</time></trkpt><trkpt lat="44.73900124141725" lon="9.282849050087613"><ele>958.2</ele><time>2026-05-01T15:14:33Z</time></trkpt><trkpt lat="44.73902126091265" lon="9.28298821404417"><ele>959.8</ele><time>2026-05-01T15:14:34Z</time></trkpt><trkpt lat="44.7390562989571" lon="9.283103978437845"><ele>961.4</ele><time>2026-05-01T15:14:35Z</time></trkpt><trkpt lat="44.73911048922446" lon="9.28319093945337"><ele>963.0</ele><time>2026-05-01T15:14:36Z</time></trkpt><trkpt lat="44.73913548538943" lon="9.283311244881235"><ele>964.25</ele><time>2026-05-01T15:14:37Z</time></trkpt><trkpt lat="44.739278551980966" lon="9.283360507315662"><ele>965.5</ele><time>2026-05-01T15:14:38Z</time></trkpt><trkpt lat="44.73939743942533" lon="9.283418868647196"><ele>966.75</ele><time>2026-05-01T15:14:39.001Z</time></trkpt><trkpt lat="44.739527976876104" lon="9.283448871743667"><ele>968.0</ele><time>2026-05-01T15:14:40.001Z</time></trkpt><trkpt lat="44.73965903219179" lon="9.283503161880422"><ele>968.75</ele><time>2026-05-01T15:14:41.001Z</time></trkpt><trkpt lat="44.73977871716332" lon="9.283539108139482"><ele>969.5</ele><time>2026-05-01T15:14:42.001Z</time></trkpt><trkpt lat="44.73989907476736" lon="9.283594108726925"><ele>970.25</ele><time>2026-05-01T15:14:43.001Z</time></trkpt><trkpt lat="44.74001202242623" lon="9.283655765194963"><ele>971.0</ele><time>2026-05-01T15:14:44.001Z</time></trkpt><trkpt lat="44.74008826282321" lon="9.283719518886082"><ele>971.0</ele><time>2026-05-01T15:14:45.001Z</time></trkpt><trkpt lat="44.74015143903677" lon="9.28379457052803"><ele>971.0</ele><time>2026-05-01T15:14:46.001Z</time></trkpt><trkpt lat="44.74022626396112" lon="9.283895733171974"><ele>971.0</ele><time>2026-05-01T15:14:47.001Z</time></trkpt><trkpt lat="44.74034235724149" lon="9.283995439108429"><ele>971.0</ele><time>2026-05-01T15:14:48.001Z</time></trkpt><trkpt lat="44.74044231601649" lon="9.284131675279626"><ele>972.0</ele><time>2026-05-01T15:14:49.001Z</time></trkpt><trkpt lat="44.74055779482348" lon="9.28425064557159"><ele>973.0</ele><time>2026-05-01T15:14:50.001Z</time></trkpt><trkpt lat="44.74067312028159" lon="9.284367475636863"><ele>974.0</ele><time>2026-05-01T15:14:51.001Z</time></trkpt><trkpt lat="44.7407806419292" lon="9.284504499836148"><ele>975.0</ele><time>2026-05-01T15:14:52.001Z</time></trkpt><trkpt lat="44.74088878070344" lon="9.28466159542198"><ele>974.0</ele><time>2026-05-01T15:14:53.001Z</time></trkpt><trkpt lat="44.74099811926481" lon="9.284829109221056"><ele>973.0</ele><time>2026-05-01T15:14:54.001Z</time></trkpt><trkpt lat="44.7411109426304" lon="9.284995425662881"><ele>972.0</ele><time>2026-05-01T15:14:55.001Z</time></trkpt><trkpt lat="44.741219472931256" lon="9.285121451578343"><ele>972.0</ele><time>2026-05-01T15:14:56.001Z</time></trkpt><trkpt lat="44.741313840610815" lon="9.285282948491298"><ele>972.0</ele><time>2026-05-01T15:14:57.001Z</time></trkpt><trkpt lat="44.741434094865724" lon="9.285427779472183"><ele>972.0</ele><time>2026-05-01T15:14:58.001Z</time></trkpt><trkpt lat="44.741570474334715" lon="9.285545718147379"><ele>972.6666666666667</ele><time>2026-05-01T15:14:59.001Z</time></trkpt><trkpt lat="44.74170258580133" lon="9.285679352450307"><ele>973.3333333333334</ele><time>2026-05-01T15:15:00.001Z</time></trkpt><trkpt lat="44.741834295917776" lon="9.285796456471694"><ele>974.0</ele><time>2026-05-01T15:15:01.001Z</time></trkpt><trkpt lat="44.74196731607311" lon="9.285881280257282"><ele>974.0</ele><time>2026-05-01T15:15:02.001Z</time></trkpt><trkpt lat="44.7420980646997" lon="9.285955334765111"><ele>974.0</ele><time>2026-05-01T15:15:03.001Z</time></trkpt><trkpt lat="44.742220422114784" lon="9.286028151783885"><ele>974.0</ele><time>2026-05-01T15:15:04.001Z</time></trkpt><trkpt lat="44.742331223524715" lon="9.286112997814476"><ele>974.0</ele><time>2026-05-01T15:15:05.001Z</time></trkpt><trkpt lat="44.74243755446664" lon="9.28618048327928"><ele>974.0</ele><time>2026-05-01T15:15:06.001Z</time></trkpt><trkpt lat="44.74254657926917" lon="9.286214359314943"><ele>974.0000000000001</ele><time>2026-05-01T15:15:07.001Z</time></trkpt><trkpt lat="44.74265980882824" lon="9.286203080293749"><ele>974.0000000000001</ele><time>2026-05-01T15:15:08.001Z</time></trkpt><trkpt lat="44.74277287878409" lon="9.286175999315088"><ele>974.0</ele><time>2026-05-01T15:15:09.001Z</time></trkpt><trkpt lat="44.742874343146646" lon="9.286133266098057"><ele>974.0</ele><time>2026-05-01T15:15:10.001Z</time></trkpt><trkpt lat="44.74296324785667" lon="9.286136050079351"><ele>973.0000000000001</ele><time>2026-05-01T15:15:11.001Z</time></trkpt><trkpt lat="44.743028089410295" lon="9.28617356578099"><ele>972.0</ele><time>2026-05-01T15:15:12.001Z</time></trkpt><trkpt lat="44.743063540616646" lon="9.286254907913431"><ele>971.0</ele><time>2026-05-01T15:15:13.001Z</time></trkpt><trkpt lat="44.74307074239023" lon="9.286355151601391"><ele>970.0</ele><time>2026-05-01T15:15:14.001Z</time></trkpt><trkpt lat="44.74304311333792" lon="9.286476922537604"><ele>969.0000000000001</ele><time>2026-05-01T15:15:15.001Z</time></trkpt><trkpt lat="44.74303280435924" lon="9.286645261806015"><ele>968.0</ele><time>2026-05-01T15:15:16.001Z</time></trkpt><trkpt lat="44.743013054129094" lon="9.286814954351344"><ele>968.0</ele><time>2026-05-01T15:15:17.001Z</time></trkpt><trkpt lat="44.743027146294565" lon="9.287004721204017"><ele>968.0</ele><time>2026-05-01T15:15:18.001Z</time></trkpt><trkpt lat="44.74306239086287" lon="9.287193938156173"><ele>968.0</ele><time>2026-05-01T15:15:19.001Z</time></trkpt><trkpt lat="44.74310216726624" lon="9.287353963655837"><ele>968.0</ele><time>2026-05-01T15:15:20.001Z</time></trkpt><trkpt lat="44.74313353740919" lon="9.287485965932675"><ele>971.0</ele><time>2026-05-01T15:15:21.001Z</time></trkpt><trkpt lat="44.74319162242002" lon="9.287572375799844"><ele>974.0</ele><time>2026-05-01T15:15:22.001Z</time></trkpt><trkpt lat="44.74329662751351" lon="9.287627089010208"><ele>977.0</ele><time>2026-05-01T15:15:23.001Z</time></trkpt><trkpt lat="44.74341045474025" lon="9.287684805363009"><ele>980.0</ele><time>2026-05-01T15:15:24.001Z</time></trkpt><trkpt lat="44.74352844570114" lon="9.28778027827932"><ele>978.75</ele><time>2026-05-01T15:15:25.001Z</time></trkpt><trkpt lat="44.74366068438756" lon="9.28786871736771"><ele>977.5</ele><time>2026-05-01T15:15:26.001Z</time></trkpt><trkpt lat="44.743795331185126" lon="9.287932796308802"><ele>976.25</ele><time>2026-05-01T15:15:27.001Z</time></trkpt><trkpt lat="44.74391079401887" lon="9.288017106265478"><ele>975.0</ele><time>2026-05-01T15:15:28.001Z</time></trkpt><trkpt lat="44.74402113403993" lon="9.288060517929422"><ele>975.0</ele><time>2026-05-01T15:15:29.001Z</time></trkpt><trkpt lat="44.744115700208695" lon="9.288068953847997"><ele>975.0</ele><time>2026-05-01T15:15:30.001Z</time></trkpt><trkpt lat="44.744202761968666" lon="9.288017079018768"><ele>975.0</ele><time>2026-05-01T15:15:31.001Z</time></trkpt><trkpt lat="44.74429554661994" lon="9.287913843568305"><ele>975.0</ele><time>2026-05-01T15:15:32.001Z</time></trkpt><trkpt lat="44.74437745862153" lon="9.28778963038478"><ele>975.0</ele><time>2026-05-01T15:15:33.001Z</time></trkpt><trkpt lat="44.74446088265477" lon="9.287695857807988"><ele>975.75</ele><time>2026-05-01T15:15:34.001Z</time></trkpt><trkpt lat="44.744559729707056" lon="9.28769178776348"><ele>976.5</ele><time>2026-05-01T15:15:35.001Z</time></trkpt><trkpt lat="44.74466700350041" lon="9.287680229217154"><ele>977.25</ele><time>2026-05-01T15:15:36.001Z</time></trkpt><trkpt lat="44.74479699249215" lon="9.287704024519298"><ele>978.0</ele><time>2026-05-01T15:15:37.001Z</time></trkpt><trkpt lat="44.7449135765208" lon="9.287640504086657"><ele>978.0</ele><time>2026-05-01T15:15:38.001Z</time></trkpt><trkpt lat="44.74503734744626" lon="9.287591021137013"><ele>978.0</ele><time>2026-05-01T15:15:39.001Z</time></trkpt><trkpt lat="44.745164818809535" lon="9.287502933016983"><ele>978.0</ele><time>2026-05-01T15:15:40.001Z</time></trkpt><trkpt lat="44.7453105676794" lon="9.287512923981247"><ele>978.0</ele><time>2026-05-01T15:15:41.001Z</time></trkpt><trkpt lat="44.74545627857695" lon="9.28748209883428"><ele>977.25</ele><time>2026-05-01T15:15:42.001Z</time></trkpt><trkpt lat="44.74558003868555" lon="9.287377542074125"><ele>976.5</ele><time>2026-05-01T15:15:43.001Z</time></trkpt><trkpt lat="44.74571311593994" lon="9.287288717333805"><ele>975.75</ele><time>2026-05-01T15:15:44.001Z</time></trkpt><trkpt lat="44.745832224786675" lon="9.287195974016466"><ele>975.0</ele><time>2026-05-01T15:15:45.001Z</time></trkpt><trkpt lat="44.745926498237026" lon="9.287097952595847"><ele>975.0</ele><time>2026-05-01T15:15:46.001Z</time></trkpt><trkpt lat="44.7459980822147" lon="9.286970044433424"><ele>975.0</ele><time>2026-05-01T15:15:47.001Z</time></trkpt><trkpt lat="44.74604718017317" lon="9.286816509607297"><ele>975.0</ele><time>2026-05-01T15:15:48.001Z</time></trkpt><trkpt lat="44.74608271190705" lon="9.28663419632422"><ele>975.0</ele><time>2026-05-01T15:15:49.001Z</time></trkpt><trkpt lat="44.7461121340959" lon="9.28644709806598"><ele>977.75</ele><time>2026-05-01T15:15:50.001Z</time></trkpt><trkpt lat="44.746166735532235" lon="9.286278966294809"><ele>980.5</ele><time>2026-05-01T15:15:51.001Z</time></trkpt><trkpt lat="44.74621165712496" lon="9.286115352142513"><ele>983.25</ele><time>2026-05-01T15:15:52.001Z</time></trkpt><trkpt lat="44.74625577054047" lon="9.285974220309567"><ele>986.0</ele><time>2026-05-01T15:15:53.001Z</time></trkpt><trkpt lat="44.746316510338616" lon="9.285877064580855"><ele>986.0</ele><time>2026-05-01T15:15:54.001Z</time></trkpt><trkpt lat="44.746397150247425" lon="9.285811264522573"><ele>986.0</ele><time>2026-05-01T15:15:55.001Z</time></trkpt><trkpt lat="44.746504654555565" lon="9.285760402978104"><ele>986.0</ele><time>2026-05-01T15:15:56.001Z</time></trkpt><trkpt lat="44.74663675145842" lon="9.285712941160691"><ele>986.0</ele><time>2026-05-01T15:15:57.001Z</time></trkpt><trkpt lat="44.74677769934362" lon="9.28566570573928"><ele>988.5</ele><time>2026-05-01T15:15:58.001Z</time></trkpt><trkpt lat="44.746915682578994" lon="9.285630682157601"><ele>991.0</ele><time>2026-05-01T15:15:59Z</time></trkpt><trkpt lat="44.74705513140215" lon="9.285626055679227"><ele>993.5</ele><time>2026-05-01T15:16:00Z</time></trkpt><trkpt lat="44.74717407147828" lon="9.285640196316642"><ele>996.0</ele><time>2026-05-01T15:16:01Z</time></trkpt><trkpt lat="44.74727760694301" lon="9.285623697740814"><ele>993.5999999999999</ele><time>2026-05-01T15:16:02Z</time></trkpt><trkpt lat="44.7473639388252" lon="9.285546215366189"><ele>991.1999999999999</ele><time>2026-05-01T15:16:03Z</time></trkpt><trkpt lat="44.74741974647416" lon="9.285404279205395"><ele>988.8000000000001</ele><time>2026-05-01T15:16:04Z</time></trkpt><trkpt lat="44.747474192814494" lon="9.2852519957362"><ele>986.4000000000001</ele><time>2026-05-01T15:16:05Z</time></trkpt><trkpt lat="44.747558007425226" lon="9.285162339739031"><ele>984.0</ele><time>2026-05-01T15:16:06Z</time></trkpt><trkpt lat="44.74763701691726" lon="9.285109701565169"><ele>985.25</ele><time>2026-05-01T15:16:07Z</time></trkpt><trkpt lat="44.74773118906444" lon="9.285100368427003"><ele>986.5</ele><time>2026-05-01T15:16:08Z</time></trkpt><trkpt lat="44.74784097239354" lon="9.285124443774643"><ele>987.75</ele><time>2026-05-01T15:16:09Z</time></trkpt><trkpt lat="44.7479680831356" lon="9.285145976974489"><ele>989.0</ele><time>2026-05-01T15:16:10Z</time></trkpt><trkpt lat="44.748099632077924" lon="9.28517487313227"><ele>989.0</ele><time>2026-05-01T15:16:11Z</time></trkpt><trkpt lat="44.74823075220382" lon="9.285220395405862"><ele>989.0</ele><time>2026-05-01T15:16:12Z</time></trkpt><trkpt lat="44.74836703210602" lon="9.28528315952977"><ele>989.0</ele><time>2026-05-01T15:16:13Z</time></trkpt><trkpt lat="44.74851538089903" lon="9.285357074474238"><ele>989.0</ele><time>2026-05-01T15:16:14Z</time></trkpt><trkpt lat="44.74867219712284" lon="9.28538349137388"><ele>987.6666666666667</ele><time>2026-05-01T15:16:15Z</time></trkpt><trkpt lat="44.74882914205631" lon="9.28542519616014"><ele>986.3333333333333</ele><time>2026-05-01T15:16:16Z</time></trkpt><trkpt lat="44.74898481810756" lon="9.285461489254988"><ele>985.0</ele><time>2026-05-01T15:16:17Z</time></trkpt><trkpt lat="44.74913620133927" lon="9.285507407627081"><ele>985.0</ele><time>2026-05-01T15:16:18Z</time></trkpt><trkpt lat="44.749276895064654" lon="9.285532267938605"><ele>985.0</ele><time>2026-05-01T15:16:19Z</time></trkpt><trkpt lat="44.749410867360055" lon="9.285539107545903"><ele>985.0</ele><time>2026-05-01T15:16:20Z</time></trkpt><trkpt lat="44.74952980221131" lon="9.285533318543722"><ele>985.0</ele><time>2026-05-01T15:16:21Z</time></trkpt><trkpt lat="44.749625039420124" lon="9.285504674904706"><ele>987.4</ele><time>2026-05-01T15:16:22Z</time></trkpt><trkpt lat="44.74971043218853" lon="9.28545705729692"><ele>989.8</ele><time>2026-05-01T15:16:23Z</time></trkpt><trkpt lat="44.74979043007221" lon="9.28539322823692"><ele>992.2</ele><time>2026-05-01T15:16:24Z</time></trkpt><trkpt lat="44.74983214436564" lon="9.285251384862155"><ele>994.6</ele><time>2026-05-01T15:16:25Z</time></trkpt><trkpt lat="44.749868794170155" lon="9.285107556392871"><ele>997.0</ele><time>2026-05-01T15:16:26Z</time></trkpt><trkpt lat="44.74988945089357" lon="9.284950330463927"><ele>997.0</ele><time>2026-05-01T15:16:27Z</time></trkpt><trkpt lat="44.749952635623806" lon="9.284824240158445"><ele>997.0</ele><time>2026-05-01T15:16:28Z</time></trkpt><trkpt lat="44.75002741845216" lon="9.284693740371159"><ele>997.0</ele><time>2026-05-01T15:16:29Z</time></trkpt><trkpt lat="44.75008591351442" lon="9.284557319128448"><ele>997.0</ele><time>2026-05-01T15:16:30Z</time></trkpt><trkpt lat="44.75013070130808" lon="9.284424452260618"><ele>997.0</ele><time>2026-05-01T15:16:31Z</time></trkpt><trkpt lat="44.75014016372776" lon="9.28427983348826"><ele>996.8</ele><time>2026-05-01T15:16:32Z</time></trkpt><trkpt lat="44.75010779498722" lon="9.284142994812328"><ele>996.6</ele><time>2026-05-01T15:16:33Z</time></trkpt><trkpt lat="44.75004822127974" lon="9.284035738899366"><ele>996.3999999999999</ele><time>2026-05-01T15:16:34Z</time></trkpt><trkpt lat="44.74996738244002" lon="9.283958133038595"><ele>996.1999999999999</ele><time>2026-05-01T15:16:35Z</time></trkpt><trkpt lat="44.749905122180934" lon="9.283865111709247"><ele>996.0</ele><time>2026-05-01T15:16:36Z</time></trkpt><trkpt lat="44.749858282126795" lon="9.28375565153858"><ele>997.4</ele><time>2026-05-01T15:16:37Z</time></trkpt><trkpt lat="44.749844484049355" lon="9.28364023828532"><ele>998.8</ele><time>2026-05-01T15:16:38Z</time></trkpt><trkpt lat="44.749858046421465" lon="9.283525972307883"><ele>1000.1999999999999</ele><time>2026-05-01T15:16:39Z</time></trkpt><trkpt lat="44.749891984564535" lon="9.283406906487055"><ele>1001.5999999999999</ele><time>2026-05-01T15:16:40Z</time></trkpt><trkpt lat="44.74996404733053" lon="9.283300022896011"><ele>1003.0</ele><time>2026-05-01T15:16:41Z</time></trkpt><trkpt lat="44.750010047972935" lon="9.28315548604416"><ele>1003.2</ele><time>2026-05-01T15:16:42Z</time></trkpt><trkpt lat="44.750054817142214" lon="9.283006026627953"><ele>1003.4</ele><time>2026-05-01T15:16:43Z</time></trkpt><trkpt lat="44.75009475744829" lon="9.282872688936823"><ele>1003.6000000000001</ele><time>2026-05-01T15:16:44Z</time></trkpt><trkpt lat="44.750137730071955" lon="9.282752082800073"><ele>1003.8000000000001</ele><time>2026-05-01T15:16:45Z</time></trkpt><trkpt lat="44.75017015128132" lon="9.282630746168401"><ele>1004.0</ele><time>2026-05-01T15:16:46Z</time></trkpt><trkpt lat="44.750244890525494" lon="9.282540266858854"><ele>1006.2</ele><time>2026-05-01T15:16:47Z</time></trkpt><trkpt lat="44.750340485283274" lon="9.282487799677337"><ele>1008.4000000000001</ele><time>2026-05-01T15:16:48Z</time></trkpt><trkpt lat="44.75043325947439" lon="9.282479417111023"><ele>1010.6</ele><time>2026-05-01T15:16:49Z</time></trkpt><trkpt lat="44.750525948914216" lon="9.282513644172322"><ele>1012.8</ele><time>2026-05-01T15:16:50Z</time></trkpt><trkpt lat="44.75062445250236" lon="9.282548937569302"><ele>1015.0</ele><time>2026-05-01T15:16:51Z</time></trkpt><trkpt lat="44.75071766338253" lon="9.282573173313317"><ele>1014.9999999999999</ele><time>2026-05-01T15:16:52Z</time></trkpt><trkpt lat="44.750799706199025" lon="9.282571808442276"><ele>1015.0</ele><time>2026-05-01T15:16:53Z</time></trkpt><trkpt lat="44.75088572525323" lon="9.28256392102132"><ele>1015.0</ele><time>2026-05-01T15:16:54Z</time></trkpt><trkpt lat="44.750960091812004" lon="9.282572214557623"><ele>1015.0</ele><time>2026-05-01T15:16:55Z</time></trkpt><trkpt lat="44.751031622532345" lon="9.282595379718565"><ele>1014.9999999999999</ele><time>2026-05-01T15:16:56Z</time></trkpt><trkpt lat="44.7510815932424" lon="9.282653343441567"><ele>1015.0</ele><time>2026-05-01T15:16:57Z</time></trkpt><trkpt lat="44.7511556786693" lon="9.2827717783777"><ele>1014.6</ele><time>2026-05-01T15:16:59Z</time></trkpt><trkpt lat="44.7511740793282" lon="9.282879969084268"><ele>1014.2</ele><time>2026-05-01T15:17:00.001Z</time></trkpt><trkpt lat="44.75116394710506" lon="9.28299034126531"><ele>1013.8</ele><time>2026-05-01T15:17:01.001Z</time></trkpt><trkpt lat="44.751146334660596" lon="9.283124929258783"><ele>1013.4</ele><time>2026-05-01T15:17:02.001Z</time></trkpt><trkpt lat="44.75111896215144" lon="9.283275165080942"><ele>1013.0</ele><time>2026-05-01T15:17:03.001Z</time></trkpt><trkpt lat="44.751085953677105" lon="9.283427698743406"><ele>1013.2</ele><time>2026-05-01T15:17:04.001Z</time></trkpt><trkpt lat="44.75106055871878" lon="9.283571701914568"><ele>1013.4</ele><time>2026-05-01T15:17:05.001Z</time></trkpt><trkpt lat="44.75105001288757" lon="9.283689807983839"><ele>1013.6000000000001</ele><time>2026-05-01T15:17:06.001Z</time></trkpt><trkpt lat="44.75102985502154" lon="9.283818278387487"><ele>1013.8000000000001</ele><time>2026-05-01T15:17:07.001Z</time></trkpt><trkpt lat="44.75103419787053" lon="9.28394593512341"><ele>1014.0</ele><time>2026-05-01T15:17:08.001Z</time></trkpt><trkpt lat="44.75104087567201" lon="9.28407414847641"><ele>1017.4000000000001</ele><time>2026-05-01T15:17:10.001Z</time></trkpt><trkpt lat="44.751170206258735" lon="9.284078653199847"><ele>1020.8000000000001</ele><time>2026-05-01T15:17:13.001Z</time></trkpt><trkpt lat="44.751254086472514" lon="9.284027515264286"><ele>1024.1999999999998</ele><time>2026-05-01T15:17:15.001Z</time></trkpt><trkpt lat="44.75139141359961" lon="9.284051024548766"><ele>1027.6</ele><time>2026-05-01T15:17:17.001Z</time></trkpt><trkpt lat="44.75147889906363" lon="9.284051294613446"><ele>1031.0</ele><time>2026-05-01T15:17:18.001Z</time></trkpt><trkpt lat="44.75156394697626" lon="9.284097955154618"><ele>1031.0</ele><time>2026-05-01T15:17:19.001Z</time></trkpt><trkpt lat="44.751647155401656" lon="9.284167864647173"><ele>1031.0</ele><time>2026-05-01T15:17:20.001Z</time></trkpt><trkpt lat="44.751734398684754" lon="9.284250373061981"><ele>1031.0</ele><time>2026-05-01T15:17:21.001Z</time></trkpt><trkpt lat="44.75183110206106" lon="9.284343743111798"><ele>1031.0</ele><time>2026-05-01T15:17:22.001Z</time></trkpt><trkpt lat="44.75190912060463" lon="9.284429045991766"><ele>1031.0</ele><time>2026-05-01T15:17:23.001Z</time></trkpt><trkpt lat="44.75195481076152" lon="9.284536655483235"><ele>1032.8</ele><time>2026-05-01T15:17:24.001Z</time></trkpt><trkpt lat="44.75202353515144" lon="9.284635821514998"><ele>1034.6</ele><time>2026-05-01T15:17:25.001Z</time></trkpt><trkpt lat="44.752083982416444" lon="9.284744093539443"><ele>1036.4</ele><time>2026-05-01T15:17:26.001Z</time></trkpt><trkpt lat="44.75215716724846" lon="9.284853907954044"><ele>1038.2</ele><time>2026-05-01T15:17:27.001Z</time></trkpt><trkpt lat="44.75223523290409" lon="9.284958639548087"><ele>1040.0</ele><time>2026-05-01T15:17:28.001Z</time></trkpt><trkpt lat="44.75232012312651" lon="9.285045793188432"><ele>1041.3333333333335</ele><time>2026-05-01T15:17:29.001Z</time></trkpt><trkpt lat="44.752396902762435" lon="9.285112844380878"><ele>1042.6666666666667</ele><time>2026-05-01T15:17:30.001Z</time></trkpt><trkpt lat="44.75246398825435" lon="9.285168979828013"><ele>1044.0</ele><time>2026-05-01T15:17:31.001Z</time></trkpt><trkpt lat="44.752523100295356" lon="9.285208571686919"><ele>1045.3333333333333</ele><time>2026-05-01T15:17:32.001Z</time></trkpt><trkpt lat="44.75259320575638" lon="9.285268002262855"><ele>1046.6666666666665</ele><time>2026-05-01T15:17:34.001Z</time></trkpt><trkpt lat="44.75267430400691" lon="9.285186153626675"><ele>1048.0</ele><time>2026-05-01T15:17:37.001Z</time></trkpt><trkpt lat="44.752756308658505" lon="9.285085226166165"><ele>1052.0</ele><time>2026-05-01T15:17:39.001Z</time></trkpt><trkpt lat="44.75283191935434" lon="9.285049785723405"><ele>1056.0</ele><time>2026-05-01T15:17:40.001Z</time></trkpt><trkpt lat="44.752901776626494" lon="9.284997662238316"><ele>1060.0</ele><time>2026-05-01T15:17:41.001Z</time></trkpt><trkpt lat="44.752991467239994" lon="9.284967764232459"><ele>1064.0</ele><time>2026-05-01T15:17:42.001Z</time></trkpt><trkpt lat="44.753092263490956" lon="9.284927901868846"><ele>1068.0</ele><time>2026-05-01T15:17:43.001Z</time></trkpt><trkpt lat="44.75319746976399" lon="9.28489374329086"><ele>1068.0</ele><time>2026-05-01T15:17:44.001Z</time></trkpt><trkpt lat="44.75327629651975" lon="9.284819861907087"><ele>1068.0</ele><time>2026-05-01T15:17:45.001Z</time></trkpt><trkpt lat="44.75332918608964" lon="9.284689362704519"><ele>1068.0</ele><time>2026-05-01T15:17:46.001Z</time></trkpt><trkpt lat="44.75334770034388" lon="9.28454540422575"><ele>1068.0</ele><time>2026-05-01T15:17:47.001Z</time></trkpt><trkpt lat="44.75337473435628" lon="9.28440836114838"><ele>1068.0</ele><time>2026-05-01T15:17:48.001Z</time></trkpt><trkpt lat="44.75341976122288" lon="9.284286661492265"><ele>1069.6</ele><time>2026-05-01T15:17:49.001Z</time></trkpt><trkpt lat="44.75348285986479" lon="9.284178772869463"><ele>1071.1999999999998</ele><time>2026-05-01T15:17:50.001Z</time></trkpt><trkpt lat="44.75356591325441" lon="9.28409118807667"><ele>1072.8</ele><time>2026-05-01T15:17:51.001Z</time></trkpt><trkpt lat="44.75366098235786" lon="9.28403171436645"><ele>1074.3999999999999</ele><time>2026-05-01T15:17:52.001Z</time></trkpt><trkpt lat="44.75376496968972" lon="9.28399009799842"><ele>1076.0</ele><time>2026-05-01T15:17:53.001Z</time></trkpt><trkpt lat="44.75386487095318" lon="9.283930719313762"><ele>1076.0</ele><time>2026-05-01T15:17:54.001Z</time></trkpt><trkpt lat="44.75394792367815" lon="9.283870224571585"><ele>1076.0</ele><time>2026-05-01T15:17:55.001Z</time></trkpt><trkpt lat="44.75402220349287" lon="9.283837487686037"><ele>1076.0</ele><time>2026-05-01T15:17:56.001Z</time></trkpt><trkpt lat="44.75408699080283" lon="9.283847071971312"><ele>1076.0</ele><time>2026-05-01T15:17:57.001Z</time></trkpt><trkpt lat="44.754154571080534" lon="9.283898528247517"><ele>1076.0</ele><time>2026-05-01T15:17:58.001Z</time></trkpt><trkpt lat="44.75421786739474" lon="9.283997150748458"><ele>1076.0</ele><time>2026-05-01T15:17:59.001Z</time></trkpt><trkpt lat="44.75427332195783" lon="9.284086696974683"><ele>1076.0</ele><time>2026-05-01T15:18:00.001Z</time></trkpt><trkpt lat="44.75434225702025" lon="9.284148194227415"><ele>1076.0</ele><time>2026-05-01T15:18:01.001Z</time></trkpt><trkpt lat="44.75441452245076" lon="9.284134565940532"><ele>1076.0</ele><time>2026-05-01T15:18:02.001Z</time></trkpt><trkpt lat="44.75449252101382" lon="9.284067268819985"><ele>1076.0</ele><time>2026-05-01T15:18:03.001Z</time></trkpt><trkpt lat="44.754574159252904" lon="9.283997458671095"><ele>1076.0</ele><time>2026-05-01T15:18:04.001Z</time></trkpt><trkpt lat="44.75465936200275" lon="9.283883654644452"><ele>1075.5</ele><time>2026-05-01T15:18:05Z</time></trkpt><trkpt lat="44.75473953685627" lon="9.283765183737113"><ele>1075.0</ele><time>2026-05-01T15:18:06Z</time></trkpt><trkpt lat="44.75485121639523" lon="9.283659522957544"><ele>1074.5</ele><time>2026-05-01T15:18:07Z</time></trkpt><trkpt lat="44.75497608612414" lon="9.283605000436532"><ele>1074.0</ele><time>2026-05-01T15:18:08Z</time></trkpt><trkpt lat="44.7550908178532" lon="9.283584535906996"><ele>1074.0</ele><time>2026-05-01T15:18:09Z</time></trkpt><trkpt lat="44.755199577400305" lon="9.2835506808072"><ele>1074.0</ele><time>2026-05-01T15:18:10Z</time></trkpt><trkpt lat="44.75530384627934" lon="9.283544078096167"><ele>1074.0</ele><time>2026-05-01T15:18:11Z</time></trkpt><trkpt lat="44.75540141916967" lon="9.283569309863475"><ele>1074.0</ele><time>2026-05-01T15:18:12Z</time></trkpt><trkpt lat="44.755492540093044" lon="9.283618373845625"><ele>1074.0</ele><time>2026-05-01T15:18:13Z</time></trkpt><trkpt lat="44.75558759651831" lon="9.283704274969839"><ele>1075.0</ele><time>2026-05-01T15:18:14Z</time></trkpt><trkpt lat="44.755679151522806" lon="9.28378808600659"><ele>1076.0</ele><time>2026-05-01T15:18:15Z</time></trkpt><trkpt lat="44.75575449313762" lon="9.28384896828807"><ele>1077.0</ele><time>2026-05-01T15:18:16Z</time></trkpt><trkpt lat="44.755798563412164" lon="9.28393083165491"><ele>1078.0</ele><time>2026-05-01T15:18:17Z</time></trkpt><trkpt lat="44.75584100122938" lon="9.284064254466406"><ele>1079.0</ele><time>2026-05-01T15:18:19Z</time></trkpt><trkpt lat="44.75575868619593" lon="9.284166883496198"><ele>1081.0</ele><time>2026-05-01T15:18:21Z</time></trkpt><trkpt lat="44.75568691182611" lon="9.284127075680455"><ele>1083.0</ele><time>2026-05-01T15:18:22Z</time></trkpt><trkpt lat="44.75560290133381" lon="9.284087418347946"><ele>1085.0</ele><time>2026-05-01T15:18:23Z</time></trkpt><trkpt lat="44.755528210743094" lon="9.284006640764066"><ele>1087.0</ele><time>2026-05-01T15:18:24Z</time></trkpt><trkpt lat="44.7554428570972" lon="9.283966825863937"><ele>1089.0</ele><time>2026-05-01T15:18:25Z</time></trkpt><trkpt lat="44.75535266904051" lon="9.283976376696163"><ele>1091.0</ele><time>2026-05-01T15:18:26Z</time></trkpt><trkpt lat="44.75526080683836" lon="9.284015477380015"><ele>1089.75</ele><time>2026-05-01T15:18:27Z</time></trkpt><trkpt lat="44.755135569346514" lon="9.284104834451252"><ele>1088.5</ele><time>2026-05-01T15:18:28Z</time></trkpt><trkpt lat="44.75503971440876" lon="9.284234724467044"><ele>1087.25</ele><time>2026-05-01T15:18:29Z</time></trkpt><trkpt lat="44.754941198681784" lon="9.284327454057223"><ele>1086.0</ele><time>2026-05-01T15:18:30Z</time></trkpt><trkpt lat="44.754846999962275" lon="9.284470306520866"><ele>1086.0</ele><time>2026-05-01T15:18:31Z</time></trkpt><trkpt lat="44.75474214325207" lon="9.284605754086538"><ele>1086.0</ele><time>2026-05-01T15:18:32Z</time></trkpt><trkpt lat="44.754631866234334" lon="9.28472686133585"><ele>1086.0</ele><time>2026-05-01T15:18:33Z</time></trkpt><trkpt lat="44.754510990166764" lon="9.284829667463905"><ele>1086.0</ele><time>2026-05-01T15:18:34Z</time></trkpt><trkpt lat="44.754400590710816" lon="9.284909741122773"><ele>1087.2</ele><time>2026-05-01T15:18:35Z</time></trkpt><trkpt lat="44.75431057393521" lon="9.284982974471317"><ele>1088.3999999999999</ele><time>2026-05-01T15:18:36Z</time></trkpt><trkpt lat="44.75424092960257" lon="9.28508221979865"><ele>1089.6</ele><time>2026-05-01T15:18:37Z</time></trkpt><trkpt lat="44.754176057705365" lon="9.28519478058809"><ele>1090.8</ele><time>2026-05-01T15:18:38Z</time></trkpt><trkpt lat="44.75415497830824" lon="9.285345721424466"><ele>1092.0</ele><time>2026-05-01T15:18:39Z</time></trkpt><trkpt lat="44.75415571206179" lon="9.285511517153006"><ele>1092.0</ele><time>2026-05-01T15:18:40Z</time></trkpt><trkpt lat="44.75416151889561" lon="9.285673646453748"><ele>1092.0</ele><time>2026-05-01T15:18:41Z</time></trkpt><trkpt lat="44.75417059076286" lon="9.285815919508881"><ele>1092.0</ele><time>2026-05-01T15:18:42Z</time></trkpt><trkpt lat="44.75418586445716" lon="9.285926630321274"><ele>1092.0</ele><time>2026-05-01T15:18:43Z</time></trkpt><trkpt lat="44.75419797028936" lon="9.286041646242646"><ele>1092.0</ele><time>2026-05-01T15:18:44Z</time></trkpt><trkpt lat="44.75423177440977" lon="9.286144300602738"><ele>1092.0</ele><time>2026-05-01T15:18:45Z</time></trkpt><trkpt lat="44.754292246849175" lon="9.28622855486072"><ele>1092.0</ele><time>2026-05-01T15:18:46Z</time></trkpt><trkpt lat="44.754389904183455" lon="9.286308595905057"><ele>1092.0</ele><time>2026-05-01T15:18:47Z</time></trkpt><trkpt lat="44.75449207862379" lon="9.286397191812549"><ele>1092.0</ele><time>2026-05-01T15:18:48Z</time></trkpt><trkpt lat="44.75458670938879" lon="9.286518356583223"><ele>1092.0</ele><time>2026-05-01T15:18:49Z</time></trkpt><trkpt lat="44.75464216655632" lon="9.286687221459081"><ele>1096.75</ele><time>2026-05-01T15:18:50Z</time></trkpt><trkpt lat="44.75469197377764" lon="9.286871688945114"><ele>1101.5</ele><time>2026-05-01T15:18:51Z</time></trkpt><trkpt lat="44.75473822931495" lon="9.28706144443547"><ele>1106.25</ele><time>2026-05-01T15:18:52Z</time></trkpt><trkpt lat="44.754795748059614" lon="9.287227772024501"><ele>1111.0</ele><time>2026-05-01T15:18:53Z</time></trkpt><trkpt lat="44.75483483332912" lon="9.287406641799766"><ele>1111.0</ele><time>2026-05-01T15:18:54Z</time></trkpt><trkpt lat="44.754877274765136" lon="9.287590295893326"><ele>1111.0</ele><time>2026-05-01T15:18:55Z</time></trkpt><trkpt lat="44.75492885423112" lon="9.28778171290957"><ele>1111.0</ele><time>2026-05-01T15:18:56Z</time></trkpt><trkpt lat="44.754951335429006" lon="9.287973834454272"><ele>1111.0</ele><time>2026-05-01T15:18:57Z</time></trkpt><trkpt lat="44.75498660672799" lon="9.288158209499551"><ele>1111.0</ele><time>2026-05-01T15:18:58Z</time></trkpt><trkpt lat="44.75503875910374" lon="9.288324777828658"><ele>1111.0</ele><time>2026-05-01T15:18:59Z</time></trkpt><trkpt lat="44.75506367184922" lon="9.288477588673958"><ele>1111.0</ele><time>2026-05-01T15:19:00Z</time></trkpt><trkpt lat="44.75508372330894" lon="9.288614721064643"><ele>1111.0</ele><time>2026-05-01T15:19:01.001Z</time></trkpt><trkpt lat="44.75509004591309" lon="9.288757852798728"><ele>1111.0</ele><time>2026-05-01T15:19:02.001Z</time></trkpt><trkpt lat="44.755065731316684" lon="9.288910032881319"><ele>1111.5</ele><time>2026-05-01T15:19:03.001Z</time></trkpt><trkpt lat="44.755024117779065" lon="9.289066710407244"><ele>1112.0</ele><time>2026-05-01T15:19:04.001Z</time></trkpt><trkpt lat="44.75499637538277" lon="9.28923990311362"><ele>1112.5</ele><time>2026-05-01T15:19:05.001Z</time></trkpt><trkpt lat="44.75499530613145" lon="9.289428383850609"><ele>1113.0</ele><time>2026-05-01T15:19:06.001Z</time></trkpt><trkpt lat="44.75498484072679" lon="9.289628610717562"><ele>1113.5</ele><time>2026-05-01T15:19:07.001Z</time></trkpt><trkpt lat="44.755006318799474" lon="9.289833373082196"><ele>1114.0</ele><time>2026-05-01T15:19:08.001Z</time></trkpt><trkpt lat="44.755046078003694" lon="9.290010109368279"><ele>1114.5</ele><time>2026-05-01T15:19:09.001Z</time></trkpt><trkpt lat="44.75504656598877" lon="9.290177498940059"><ele>1115.0</ele><time>2026-05-01T15:19:10.001Z</time></trkpt><trkpt lat="44.75502012189303" lon="9.29035102629347"><ele>1115.0</ele><time>2026-05-01T15:19:11.001Z</time></trkpt><trkpt lat="44.75496102032378" lon="9.290526814264496"><ele>1115.0</ele><time>2026-05-01T15:19:12.001Z</time></trkpt><trkpt lat="44.75488896645671" lon="9.290707789282667"><ele>1115.0</ele><time>2026-05-01T15:19:13.001Z</time></trkpt><trkpt lat="44.75481566494997" lon="9.290890980846216"><ele>1115.0</ele><time>2026-05-01T15:19:14.001Z</time></trkpt><trkpt lat="44.75474529462825" lon="9.291050727781657"><ele>1116.0</ele><time>2026-05-01T15:19:15.001Z</time></trkpt><trkpt lat="44.75468565996793" lon="9.291201635389523"><ele>1117.0</ele><time>2026-05-01T15:19:16.001Z</time></trkpt><trkpt lat="44.75465092613333" lon="9.291350721107493"><ele>1118.0</ele><time>2026-05-01T15:19:17.001Z</time></trkpt><trkpt lat="44.75464192016075" lon="9.291482918735566"><ele>1119.0</ele><time>2026-05-01T15:19:18.001Z</time></trkpt><trkpt lat="44.75465626067596" lon="9.291599123164424"><ele>1120.0</ele><time>2026-05-01T15:19:19.001Z</time></trkpt><trkpt lat="44.75469371730647" lon="9.291684344290742"><ele>1121.0</ele><time>2026-05-01T15:19:20.001Z</time></trkpt><trkpt lat="44.75476011260715" lon="9.291742948608132"><ele>1122.0</ele><time>2026-05-01T15:19:24.001Z</time></trkpt><trkpt lat="44.75472601139426" lon="9.291865481183253"><ele>1123.0</ele><time>2026-05-01T15:19:25.001Z</time></trkpt><trkpt lat="44.75475573596472" lon="9.291968513852588"><ele>1124.0</ele><time>2026-05-01T15:19:26.001Z</time></trkpt><trkpt lat="44.75477550822388" lon="9.29208637805999"><ele>1125.0</ele><time>2026-05-01T15:19:27.001Z</time></trkpt><trkpt lat="44.754794101162894" lon="9.292188819017323"><ele>1126.0</ele><time>2026-05-01T15:19:28.001Z</time></trkpt><trkpt lat="44.75481511291549" lon="9.29231487152036"><ele>1126.0</ele><time>2026-05-01T15:19:29.001Z</time></trkpt><trkpt lat="44.754817507636375" lon="9.292464069808572"><ele>1126.0</ele><time>2026-05-01T15:19:30.001Z</time></trkpt><trkpt lat="44.75480737091244" lon="9.29261368124165"><ele>1126.0</ele><time>2026-05-01T15:19:31.001Z</time></trkpt><trkpt lat="44.75478327117164" lon="9.292763989876129"><ele>1126.0</ele><time>2026-05-01T15:19:32.001Z</time></trkpt><trkpt lat="44.754758614202835" lon="9.292904399451746"><ele>1126.0</ele><time>2026-05-01T15:19:33.001Z</time></trkpt><trkpt lat="44.754728857757215" lon="9.29304276318155"><ele>1126.1666666666665</ele><time>2026-05-01T15:19:34.001Z</time></trkpt><trkpt lat="44.75470627452199" lon="9.293163844829085"><ele>1126.3333333333333</ele><time>2026-05-01T15:19:35.001Z</time></trkpt><trkpt lat="44.75469442671114" lon="9.293266132639525"><ele>1126.5</ele><time>2026-05-01T15:19:36.001Z</time></trkpt><trkpt lat="44.75466867961389" lon="9.293360049562711"><ele>1126.6666666666667</ele><time>2026-05-01T15:19:37.001Z</time></trkpt><trkpt lat="44.75464385119162" lon="9.293467783099375"><ele>1126.8333333333335</ele><time>2026-05-01T15:19:38.001Z</time></trkpt><trkpt lat="44.75466120985832" lon="9.293621708533463"><ele>1127.0</ele><time>2026-05-01T15:19:40.001Z</time></trkpt><trkpt lat="44.7547991507451" lon="9.293647325864713"><ele>1127.0</ele><time>2026-05-01T15:19:42.001Z</time></trkpt><trkpt lat="44.754889195152714" lon="9.293630837353017"><ele>1127.0</ele><time>2026-05-01T15:19:43.001Z</time></trkpt><trkpt lat="44.75497202405516" lon="9.293671869363296"><ele>1127.0</ele><time>2026-05-01T15:19:44.001Z</time></trkpt><trkpt lat="44.75504603822039" lon="9.293758894162243"><ele>1127.0</ele><time>2026-05-01T15:19:45.001Z</time></trkpt><trkpt lat="44.7551273322269" lon="9.29382663529904"><ele>1127.0</ele><time>2026-05-01T15:19:46.001Z</time></trkpt><trkpt lat="44.75525165362662" lon="9.293847588328537"><ele>1124.3333333333335</ele><time>2026-05-01T15:19:47.001Z</time></trkpt><trkpt lat="44.7553944445913" lon="9.293818057397267"><ele>1121.6666666666667</ele><time>2026-05-01T15:19:48.001Z</time></trkpt><trkpt lat="44.75557412915812" lon="9.293735377699685"><ele>1119.0</ele><time>2026-05-01T15:19:49.001Z</time></trkpt><trkpt lat="44.75571260292514" lon="9.29364301122549"><ele>1119.0</ele><time>2026-05-01T15:19:50.001Z</time></trkpt><trkpt lat="44.75582503527727" lon="9.29364221065373"><ele>1119.0</ele><time>2026-05-01T15:19:51.001Z</time></trkpt><trkpt lat="44.75595832184558" lon="9.293629425615237"><ele>1119.0</ele><time>2026-05-01T15:19:52.001Z</time></trkpt><trkpt lat="44.75588055009426" lon="9.293617704859747"><ele>1119.0</ele><time>2026-05-01T15:19:53.001Z</time></trkpt><trkpt lat="44.75598988052093" lon="9.293619396510689"><ele>1119.0</ele><time>2026-05-01T15:19:54.001Z</time></trkpt><trkpt lat="44.75608809307041" lon="9.29360883218893"><ele>1113.6666666666667</ele><time>2026-05-01T15:19:55.001Z</time></trkpt><trkpt lat="44.75618639630058" lon="9.293588851721607"><ele>1108.3333333333333</ele><time>2026-05-01T15:19:56.001Z</time></trkpt><trkpt lat="44.756265345917114" lon="9.293549008659507"><ele>1103.0</ele><time>2026-05-01T15:19:57.001Z</time></trkpt><trkpt lat="44.75631970515318" lon="9.293500064976966"><ele>1097.6666666666665</ele><time>2026-05-01T15:19:58.001Z</time></trkpt><trkpt lat="44.75634491450315" lon="9.29341414758129"><ele>1092.3333333333333</ele><time>2026-05-01T15:19:59.001Z</time></trkpt><trkpt lat="44.756359190285195" lon="9.293306141590303"><ele>1087.0</ele><time>2026-05-01T15:20:00.001Z</time></trkpt><trkpt lat="44.75635437679175" lon="9.293165520564242"><ele>1088.8</ele><time>2026-05-01T15:20:01.001Z</time></trkpt><trkpt lat="44.756351748573884" lon="9.29302631508666"><ele>1090.6</ele><time>2026-05-01T15:20:02.001Z</time></trkpt><trkpt lat="44.756347297940984" lon="9.29286893427529"><ele>1092.3999999999999</ele><time>2026-05-01T15:20:03.001Z</time></trkpt><trkpt lat="44.75635571942209" lon="9.29272869105044"><ele>1094.2</ele><time>2026-05-01T15:20:04.001Z</time></trkpt><trkpt lat="44.75638348769338" lon="9.29259094794462"><ele>1096.0</ele><time>2026-05-01T15:20:05.001Z</time></trkpt><trkpt lat="44.75642345595833" lon="9.292479462257525"><ele>1096.0</ele><time>2026-05-01T15:20:06.001Z</time></trkpt><trkpt lat="44.75650925918511" lon="9.29239842972581"><ele>1096.0</ele><time>2026-05-01T15:20:07.001Z</time></trkpt><trkpt lat="44.75660313977155" lon="9.292306003396375"><ele>1096.0</ele><time>2026-05-01T15:20:08.001Z</time></trkpt><trkpt lat="44.75666366076817" lon="9.29219456062468"><ele>1096.0</ele><time>2026-05-01T15:20:09.001Z</time></trkpt><trkpt lat="44.756696808565074" lon="9.292049678145776"><ele>1096.0</ele><time>2026-05-01T15:20:10.001Z</time></trkpt><trkpt lat="44.75672997066858" lon="9.291924180830886"><ele>1097.6</ele><time>2026-05-01T15:20:11Z</time></trkpt><trkpt lat="44.756790941891765" lon="9.291841937056104"><ele>1099.1999999999998</ele><time>2026-05-01T15:20:12Z</time></trkpt><trkpt lat="44.75686918624496" lon="9.291834097181965"><ele>1100.8000000000002</ele><time>2026-05-01T15:20:13Z</time></trkpt><trkpt lat="44.75694109083701" lon="9.291875916934893"><ele>1102.4</ele><time>2026-05-01T15:20:14Z</time></trkpt><trkpt lat="44.757005183427104" lon="9.291967344466743"><ele>1104.0</ele><time>2026-05-01T15:20:15Z</time></trkpt><trkpt lat="44.75712655904548" lon="9.292045866200988"><ele>1104.0</ele><time>2026-05-01T15:20:16Z</time></trkpt><trkpt lat="44.757250619525735" lon="9.292121142309142"><ele>1104.0</ele><time>2026-05-01T15:20:17Z</time></trkpt><trkpt lat="44.75738501289957" lon="9.292198586894138"><ele>1104.0</ele><time>2026-05-01T15:20:18Z</time></trkpt><trkpt lat="44.75752742634027" lon="9.29228352154892"><ele>1104.0</ele><time>2026-05-01T15:20:19Z</time></trkpt><trkpt lat="44.757657475857236" lon="9.292367776492071"><ele>1097.75</ele><time>2026-05-01T15:20:20Z</time></trkpt><trkpt lat="44.75778895244719" lon="9.29244921480649"><ele>1091.5</ele><time>2026-05-01T15:20:21Z</time></trkpt><trkpt lat="44.75791462349659" lon="9.292527686927203"><ele>1085.25</ele><time>2026-05-01T15:20:22Z</time></trkpt><trkpt lat="44.75801887487795" lon="9.292650106809324"><ele>1079.0</ele><time>2026-05-01T15:20:23Z</time></trkpt><trkpt lat="44.7581306520118" lon="9.292754675121387"><ele>1079.0</ele><time>2026-05-01T15:20:24Z</time></trkpt><trkpt lat="44.758229491078104" lon="9.292844914230756"><ele>1079.0</ele><time>2026-05-01T15:20:25Z</time></trkpt><trkpt lat="44.75831483868803" lon="9.292919254678909"><ele>1079.0</ele><time>2026-05-01T15:20:26Z</time></trkpt><trkpt lat="44.758384339222786" lon="9.29297205349385"><ele>1079.0</ele><time>2026-05-01T15:20:27Z</time></trkpt><trkpt lat="44.75844596119996" lon="9.293012700266482"><ele>1079.0</ele><time>2026-05-01T15:20:28Z</time></trkpt><trkpt lat="44.7585119371471" lon="9.293008885017468"><ele>1079.0</ele><time>2026-05-01T15:20:29Z</time></trkpt><trkpt lat="44.75860586215972" lon="9.292888940411224"><ele>1073.2</ele><time>2026-05-01T15:20:31Z</time></trkpt><trkpt lat="44.7586032062283" lon="9.292752006543394"><ele>1067.4</ele><time>2026-05-01T15:20:32Z</time></trkpt><trkpt lat="44.75859694006664" lon="9.292605528734624"><ele>1061.6</ele><time>2026-05-01T15:20:33Z</time></trkpt><trkpt lat="44.75859342841212" lon="9.292443727506168"><ele>1055.8</ele><time>2026-05-01T15:20:34Z</time></trkpt><trkpt lat="44.7586177657868" lon="9.292272916280067"><ele>1050.0</ele><time>2026-05-01T15:20:35Z</time></trkpt><trkpt lat="44.75864282230683" lon="9.292117708463655"><ele>1050.0</ele><time>2026-05-01T15:20:36Z</time></trkpt><trkpt lat="44.75867521148393" lon="9.292008115543803"><ele>1050.0</ele><time>2026-05-01T15:20:37Z</time></trkpt><trkpt lat="44.7587257521614" lon="9.291885946680079"><ele>1050.0</ele><time>2026-05-01T15:20:39Z</time></trkpt><trkpt lat="44.75879374122976" lon="9.291909120026343"><ele>1050.0</ele><time>2026-05-01T15:20:42Z</time></trkpt><trkpt lat="44.758824620913224" lon="9.291755863607044"><ele>1050.0</ele><time>2026-05-01T15:21:04Z</time></trkpt><trkpt lat="44.7588309085564" lon="9.291665700865872"><ele>1050.0</ele><time>2026-05-01T15:21:05Z</time></trkpt><trkpt lat="44.758828285601155" lon="9.291538156321383"><ele>1050.0</ele><time>2026-05-01T15:21:07.001Z</time></trkpt><trkpt lat="44.75882370602926" lon="9.291448561591235"><ele>1050.0</ele><time>2026-05-01T15:21:08.001Z</time></trkpt><trkpt lat="44.75881884065182" lon="9.291353375967512"><ele>1050.0</ele><time>2026-05-01T15:21:09.001Z</time></trkpt><trkpt lat="44.758816844060135" lon="9.291256574356593"><ele>1050.0</ele><time>2026-05-01T15:21:10.001Z</time></trkpt><trkpt lat="44.758828014609215" lon="9.29113124034513"><ele>1050.0</ele><time>2026-05-01T15:21:12.001Z</time></trkpt><trkpt lat="44.75884366585811" lon="9.291028709215063"><ele>1050.0</ele><time>2026-05-01T15:21:14.001Z</time></trkpt><trkpt lat="44.75889656615051" lon="9.290937757751484"><ele>1050.0</ele><time>2026-05-01T15:21:16.001Z</time></trkpt><trkpt lat="44.758963621225746" lon="9.290821199118767"><ele>1050.8333333333333</ele><time>2026-05-01T15:21:18.001Z</time></trkpt><trkpt lat="44.75900454694835" lon="9.290744019267194"><ele>1051.6666666666667</ele><time>2026-05-01T15:21:19.001Z</time></trkpt><trkpt lat="44.75902801355293" lon="9.290646848448006"><ele>1052.5</ele><time>2026-05-01T15:21:20.001Z</time></trkpt><trkpt lat="44.75906719473075" lon="9.2905534740915"><ele>1053.3333333333335</ele><time>2026-05-01T15:21:21.001Z</time></trkpt><trkpt lat="44.75910294296687" lon="9.290442821161994"><ele>1054.1666666666667</ele><time>2026-05-01T15:21:22.001Z</time></trkpt><trkpt lat="44.75912397483091" lon="9.290324129727008"><ele>1055.0</ele><time>2026-05-01T15:21:23.001Z</time></trkpt><trkpt lat="44.75915425448534" lon="9.290242254455135"><ele>1056.6666666666667</ele><time>2026-05-01T15:21:24.001Z</time></trkpt><trkpt lat="44.759176956427716" lon="9.290156360871872"><ele>1058.3333333333335</ele><time>2026-05-01T15:21:25.001Z</time></trkpt><trkpt lat="44.75921306551613" lon="9.290078828045976"><ele>1060.0</ele><time>2026-05-01T15:21:26.001Z</time></trkpt><trkpt lat="44.75927505276872" lon="9.290020468681211"><ele>1061.6666666666667</ele><time>2026-05-01T15:21:27.001Z</time></trkpt><trkpt lat="44.759320867558095" lon="9.289937116398248"><ele>1063.3333333333333</ele><time>2026-05-01T15:21:28.001Z</time></trkpt><trkpt lat="44.75936103738263" lon="9.289803393931424"><ele>1065.0</ele><time>2026-05-01T15:21:30.001Z</time></trkpt><trkpt lat="44.75942828374091" lon="9.289676739036922"><ele>1065.2</ele><time>2026-05-01T15:21:32.001Z</time></trkpt><trkpt lat="44.75950717648332" lon="9.289528379670935"><ele>1065.4</ele><time>2026-05-01T15:21:34.001Z</time></trkpt><trkpt lat="44.7596187597914" lon="9.289422657137855"><ele>1065.6</ele><time>2026-05-01T15:21:36.001Z</time></trkpt><trkpt lat="44.75968685174231" lon="9.289396060140927"><ele>1065.8</ele><time>2026-05-01T15:21:37.001Z</time></trkpt><trkpt lat="44.75975089830706" lon="9.289410562202582"><ele>1066.0</ele><time>2026-05-01T15:21:38.001Z</time></trkpt><trkpt lat="44.75985008069895" lon="9.289374367496306"><ele>1066.0</ele><time>2026-05-01T15:21:40.001Z</time></trkpt><trkpt lat="44.759926994683276" lon="9.289386240871346"><ele>1066.0</ele><time>2026-05-01T15:21:42.001Z</time></trkpt><trkpt lat="44.760000103067426" lon="9.289377283321425"><ele>1066.0</ele><time>2026-05-01T15:21:44.001Z</time></trkpt><trkpt lat="44.760064109796325" lon="9.289351276993477"><ele>1066.0</ele><time>2026-05-01T15:21:47.001Z</time></trkpt><trkpt lat="44.76013699108212" lon="9.2893399984914"><ele>1066.0</ele><time>2026-05-01T15:21:51.001Z</time></trkpt><trkpt lat="44.76020878103182" lon="9.289339222511035"><ele>1066.0</ele><time>2026-05-01T15:21:53.001Z</time></trkpt><trkpt lat="44.76028111651961" lon="9.289331928127778"><ele>1066.0</ele><time>2026-05-01T15:21:55.001Z</time></trkpt><trkpt lat="44.76036252745542" lon="9.289330535518646"><ele>1065.5</ele><time>2026-05-01T15:21:57.001Z</time></trkpt><trkpt lat="44.76043633600833" lon="9.289356606166209"><ele>1065.0</ele><time>2026-05-01T15:21:59.001Z</time></trkpt><trkpt lat="44.7605226327796" lon="9.289418285924787"><ele>1064.5</ele><time>2026-05-01T15:22:01.001Z</time></trkpt><trkpt lat="44.76058308103396" lon="9.289493009476065"><ele>1064.0</ele><time>2026-05-01T15:22:03.001Z</time></trkpt><trkpt lat="44.7606628029444" lon="9.289477012029312"><ele>1063.5</ele><time>2026-05-01T15:22:06.001Z</time></trkpt><trkpt lat="44.76074687524208" lon="9.289436984268841"><ele>1063.0</ele><time>2026-05-01T15:22:08.001Z</time></trkpt><trkpt lat="44.76082714560728" lon="9.28939310600072"><ele>1063.0</ele><time>2026-05-01T15:22:10.001Z</time></trkpt><trkpt lat="44.76091420655529" lon="9.289349362519006"><ele>1063.0</ele><time>2026-05-01T15:22:12.001Z</time></trkpt><trkpt lat="44.76095788212797" lon="9.28928001570392"><ele>1063.0</ele><time>2026-05-01T15:22:22Z</time></trkpt><trkpt lat="44.76100266894492" lon="9.289205301789217"><ele>1063.0</ele><time>2026-05-01T15:22:38Z</time></trkpt><trkpt lat="44.76108184348474" lon="9.289143481817069"><ele>1063.0</ele><time>2026-05-01T15:22:42Z</time></trkpt><trkpt lat="44.76115690355521" lon="9.289099596582057"><ele>1063.0</ele><time>2026-05-01T15:22:45Z</time></trkpt><trkpt lat="44.76124944197758" lon="9.289040634668428"><ele>1063.0</ele><time>2026-05-01T15:22:47Z</time></trkpt><trkpt lat="44.761334149108684" lon="9.28901868450518"><ele>1063.0</ele><time>2026-05-01T15:22:50Z</time></trkpt><trkpt lat="44.76140081885671" lon="9.288980365066125"><ele>1063.0</ele><time>2026-05-01T15:22:52Z</time></trkpt><trkpt lat="44.76147697706675" lon="9.288924522252906"><ele>1063.0</ele><time>2026-05-01T15:22:55.001Z</time></trkpt><trkpt lat="44.76153943256852" lon="9.28890066269096"><ele>1063.0</ele><time>2026-05-01T15:22:58.001Z</time></trkpt><trkpt lat="44.761616862462766" lon="9.288865759333547"><ele>1063.0</ele><time>2026-05-01T15:23:01.001Z</time></trkpt><trkpt lat="44.76169607597731" lon="9.288828283182694"><ele>1065.0</ele><time>2026-05-01T15:23:03.001Z</time></trkpt><trkpt lat="44.76176246938336" lon="9.28881533294631"><ele>1067.0</ele><time>2026-05-01T15:23:05.001Z</time></trkpt><trkpt lat="44.76183270841323" lon="9.288771220092901"><ele>1069.0</ele><time>2026-05-01T15:23:07.001Z</time></trkpt><trkpt lat="44.76192737714399" lon="9.28880730805071"><ele>1071.0</ele><time>2026-05-01T15:23:09.001Z</time></trkpt><trkpt lat="44.76199481127858" lon="9.288862385852246"><ele>1073.0</ele><time>2026-05-01T15:23:11.001Z</time></trkpt><trkpt lat="44.76208527779536" lon="9.28887742797152"><ele>1075.0</ele><time>2026-05-01T15:23:13.001Z</time></trkpt><trkpt lat="44.76216294273619" lon="9.288839221694657"><ele>1075.0</ele><time>2026-05-01T15:23:15.001Z</time></trkpt><trkpt lat="44.762253867567445" lon="9.288747906002257"><ele>1075.0</ele><time>2026-05-01T15:23:17.001Z</time></trkpt><trkpt lat="44.7623595632825" lon="9.288774045884935"><ele>1075.0</ele><time>2026-05-01T15:23:19.001Z</time></trkpt><trkpt lat="44.76243068056612" lon="9.288797948671066"><ele>1075.0</ele><time>2026-05-01T15:23:20.001Z</time></trkpt><trkpt lat="44.76248987652394" lon="9.288829218558796"><ele>1075.0</ele><time>2026-05-01T15:23:21.001Z</time></trkpt><trkpt lat="44.76256726603115" lon="9.288833455190389"><ele>1075.0</ele><time>2026-05-01T15:23:22.001Z</time></trkpt><trkpt lat="44.76266414238434" lon="9.2888178631733"><ele>1075.0</ele><time>2026-05-01T15:23:24.001Z</time></trkpt><trkpt lat="44.762703371684864" lon="9.288738256010243"><ele>1075.0</ele><time>2026-05-01T15:23:25.001Z</time></trkpt><trkpt lat="44.76272221236789" lon="9.288618848915386"><ele>1075.0</ele><time>2026-05-01T15:23:27.001Z</time></trkpt><trkpt lat="44.76265340808334" lon="9.288504952218025"><ele>1075.0</ele><time>2026-05-01T15:23:28.001Z</time></trkpt><trkpt lat="44.76263304404963" lon="9.288374673864096"><ele>1075.0</ele><time>2026-05-01T15:23:30.001Z</time></trkpt><trkpt lat="44.762708241241576" lon="9.288317689103268"><ele>1075.0</ele><time>2026-05-01T15:23:32.001Z</time></trkpt><trkpt lat="44.762800772265166" lon="9.28827303679648"><ele>1075.5</ele><time>2026-05-01T15:23:34.001Z</time></trkpt><trkpt lat="44.762832707605504" lon="9.288158836658015"><ele>1076.0</ele><time>2026-05-01T15:23:35.001Z</time></trkpt><trkpt lat="44.76286105229684" lon="9.28807373891957"><ele>1076.5</ele><time>2026-05-01T15:23:40.001Z</time></trkpt><trkpt lat="44.76293355191146" lon="9.288068923188451"><ele>1077.0</ele><time>2026-05-01T15:23:46.001Z</time></trkpt><trkpt lat="44.762989294949584" lon="9.288006474103712"><ele>1077.5</ele><time>2026-05-01T15:23:51.001Z</time></trkpt><trkpt lat="44.763033120631775" lon="9.287937616854238"><ele>1078.0</ele><time>2026-05-01T15:23:54.001Z</time></trkpt><trkpt lat="44.76311255591592" lon="9.287835543341568"><ele>1078.0</ele><time>2026-05-01T15:23:56.001Z</time></trkpt><trkpt lat="44.763153834321194" lon="9.287735502063367"><ele>1078.0</ele><time>2026-05-01T15:23:58.001Z</time></trkpt><trkpt lat="44.76312535737236" lon="9.287625325939414"><ele>1078.0</ele><time>2026-05-01T15:24:01.001Z</time></trkpt><trkpt lat="44.76323174750639" lon="9.28764904533951"><ele>1078.0</ele><time>2026-05-01T15:24:04.001Z</time></trkpt><trkpt lat="44.76330108951875" lon="9.287634636383828"><ele>1078.0</ele><time>2026-05-01T15:24:07.001Z</time></trkpt><trkpt lat="44.76338150956198" lon="9.287582742967006"><ele>1078.0</ele><time>2026-05-01T15:24:10.001Z</time></trkpt><trkpt lat="44.763440089385035" lon="9.287541532257034"><ele>1078.0</ele><time>2026-05-01T15:24:13.001Z</time></trkpt><trkpt lat="44.763502333937254" lon="9.287510097719192"><ele>1078.0</ele><time>2026-05-01T15:24:24.001Z</time></trkpt><trkpt lat="44.76357837561893" lon="9.287501919163597"><ele>1078.0</ele><time>2026-05-01T15:24:30.001Z</time></trkpt><trkpt lat="44.76364344682708" lon="9.287528238416451"><ele>1078.0</ele><time>2026-05-01T15:24:33.001Z</time></trkpt><trkpt lat="44.76371226592245" lon="9.287542257631223"><ele>1078.0</ele><time>2026-05-01T15:24:36.001Z</time></trkpt><trkpt lat="44.76379430477379" lon="9.287539004666074"><ele>1078.0</ele><time>2026-05-01T15:24:41.001Z</time></trkpt><trkpt lat="44.76385720242848" lon="9.287554612445584"><ele>1078.0</ele><time>2026-05-01T15:24:44.001Z</time></trkpt><trkpt lat="44.76392054924365" lon="9.287543848378718"><ele>1076.3333333333333</ele><time>2026-05-01T15:24:49.001Z</time></trkpt><trkpt lat="44.76398613961883" lon="9.287531730061266"><ele>1074.6666666666665</ele><time>2026-05-01T15:24:57.001Z</time></trkpt><trkpt lat="44.764059628978636" lon="9.287595191821666"><ele>1073.0</ele><time>2026-05-01T15:25:00.001Z</time></trkpt><trkpt lat="44.764114011714945" lon="9.287639893422568"><ele>1071.3333333333333</ele><time>2026-05-01T15:25:02.001Z</time></trkpt><trkpt lat="44.76418883006768" lon="9.287604620914143"><ele>1069.6666666666667</ele><time>2026-05-01T15:25:04.001Z</time></trkpt><trkpt lat="44.76426909799803" lon="9.287603618731172"><ele>1068.0</ele><time>2026-05-01T15:25:06.001Z</time></trkpt><trkpt lat="44.76434312221889" lon="9.287644501274855"><ele>1066.8333333333333</ele><time>2026-05-01T15:25:08.001Z</time></trkpt><trkpt lat="44.76440251460966" lon="9.287599239517197"><ele>1065.6666666666667</ele><time>2026-05-01T15:25:20.001Z</time></trkpt><trkpt lat="44.76446871614404" lon="9.287517207339773"><ele>1064.5</ele><time>2026-05-01T15:25:22.001Z</time></trkpt><trkpt lat="44.76454330135129" lon="9.28759361421304"><ele>1063.3333333333335</ele><time>2026-05-01T15:25:24.001Z</time></trkpt><trkpt lat="44.7646118317336" lon="9.287622623346016"><ele>1062.1666666666667</ele><time>2026-05-01T15:25:26.001Z</time></trkpt><trkpt lat="44.764681909264326" lon="9.287632897810836"><ele>1061.0</ele><time>2026-05-01T15:25:29.001Z</time></trkpt><trkpt lat="44.76474304290033" lon="9.2876022154622"><ele>1061.0000000000002</ele><time>2026-05-01T15:25:31.001Z</time></trkpt><trkpt lat="44.76478973578606" lon="9.28753337226149"><ele>1061.0</ele><time>2026-05-01T15:25:34.001Z</time></trkpt><trkpt lat="44.7648593529088" lon="9.287459040048082"><ele>1061.0</ele><time>2026-05-01T15:25:37.001Z</time></trkpt><trkpt lat="44.76490981711128" lon="9.28740309821689"><ele>1061.0</ele><time>2026-05-01T15:25:40.001Z</time></trkpt><trkpt lat="44.76498460105045" lon="9.287363016143837"><ele>1061.0</ele><time>2026-05-01T15:25:45.001Z</time></trkpt><trkpt lat="44.76504852106326" lon="9.287347300019768"><ele>1061.0000000000002</ele><time>2026-05-01T15:25:47.001Z</time></trkpt><trkpt lat="44.765123128276365" lon="9.287332120561242"><ele>1061.0</ele><time>2026-05-01T15:25:50.001Z</time></trkpt><trkpt lat="44.7652127771115" lon="9.287318011684528"><ele>1060.6666666666667</ele><time>2026-05-01T15:25:53.001Z</time></trkpt><trkpt lat="44.765279148971786" lon="9.287310565400528"><ele>1060.3333333333335</ele><time>2026-05-01T15:25:55.001Z</time></trkpt><trkpt lat="44.7653514663663" lon="9.287317024961194"><ele>1060.0</ele><time>2026-05-01T15:25:57.001Z</time></trkpt><trkpt lat="44.7654363541044" lon="9.287325928485267"><ele>1059.6666666666667</ele><time>2026-05-01T15:25:59.001Z</time></trkpt><trkpt lat="44.76552654056369" lon="9.28733601147433"><ele>1059.3333333333333</ele><time>2026-05-01T15:26:01.001Z</time></trkpt><trkpt lat="44.765612664656025" lon="9.287347023960846"><ele>1059.0</ele><time>2026-05-01T15:26:03.001Z</time></trkpt><trkpt lat="44.7656867700749" lon="9.287382279707883"><ele>1059.0</ele><time>2026-05-01T15:26:05.001Z</time></trkpt><trkpt lat="44.76577646252694" lon="9.287405459174074"><ele>1059.0</ele><time>2026-05-01T15:26:08.001Z</time></trkpt><trkpt lat="44.76582476058247" lon="9.287468541255057"><ele>1059.0</ele><time>2026-05-01T15:26:17.002Z</time></trkpt><trkpt lat="44.76589359781504" lon="9.287512902538282"><ele>1059.0</ele><time>2026-05-01T15:26:22.002Z</time></trkpt><trkpt lat="44.76597369703935" lon="9.287562351301673"><ele>1059.0</ele><time>2026-05-01T15:26:25.002Z</time></trkpt><trkpt lat="44.766036591753476" lon="9.287587401326327"><ele>1059.0</ele><time>2026-05-01T15:26:28.002Z</time></trkpt><trkpt lat="44.76610456766389" lon="9.287619873662063"><ele>1061.0</ele><time>2026-05-01T15:26:36.001Z</time></trkpt><trkpt lat="44.76615946856703" lon="9.287667699727395"><ele>1063.0</ele><time>2026-05-01T15:26:38.001Z</time></trkpt><trkpt lat="44.766235829046124" lon="9.287719986587597"><ele>1065.0</ele><time>2026-05-01T15:26:41.001Z</time></trkpt><trkpt lat="44.766322295488685" lon="9.287725407218515"><ele>1067.0</ele><time>2026-05-01T15:26:47.001Z</time></trkpt><trkpt lat="44.766373857018884" lon="9.287795899306852"><ele>1069.0</ele><time>2026-05-01T15:26:49.001Z</time></trkpt><trkpt lat="44.76640036023693" lon="9.287918031890241"><ele>1071.0</ele><time>2026-05-01T15:26:51.001Z</time></trkpt><trkpt lat="44.76638624499965" lon="9.288050074680116"><ele>1069.7142857142858</ele><time>2026-05-01T15:26:53.001Z</time></trkpt><trkpt lat="44.76636214936427" lon="9.288140952787568"><ele>1068.4285714285716</ele><time>2026-05-01T15:26:55.001Z</time></trkpt><trkpt lat="44.76634497837816" lon="9.288229989858875"><ele>1067.142857142857</ele><time>2026-05-01T15:26:57.001Z</time></trkpt><trkpt lat="44.76635624674487" lon="9.288324673026615"><ele>1065.857142857143</ele><time>2026-05-01T15:26:59.001Z</time></trkpt><trkpt lat="44.76638615054465" lon="9.28840551395169"><ele>1064.5714285714287</ele><time>2026-05-01T15:27:01.001Z</time></trkpt><trkpt lat="44.766419313948546" lon="9.28848669862611"><ele>1063.2857142857142</ele><time>2026-05-01T15:27:05.001Z</time></trkpt><trkpt lat="44.76643950105259" lon="9.288611962342724"><ele>1062.0</ele><time>2026-05-01T15:27:09.001Z</time></trkpt><trkpt lat="44.766446805295985" lon="9.288727443686872"><ele>1062.0</ele><time>2026-05-01T15:27:11.001Z</time></trkpt><trkpt lat="44.76647921142722" lon="9.288849846917337"><ele>1062.0</ele><time>2026-05-01T15:27:13.001Z</time></trkpt><trkpt lat="44.766498898333644" lon="9.288943757749292"><ele>1062.0</ele><time>2026-05-01T15:27:15.001Z</time></trkpt><trkpt lat="44.76652249725553" lon="9.289043327048033"><ele>1062.0</ele><time>2026-05-01T15:27:17.001Z</time></trkpt><trkpt lat="44.766549326703974" lon="9.289155189910652"><ele>1062.0</ele><time>2026-05-01T15:27:19.001Z</time></trkpt><trkpt lat="44.7665745286628" lon="9.289240793090618"><ele>1062.0</ele><time>2026-05-01T15:27:21.001Z</time></trkpt><trkpt lat="44.76661444146002" lon="9.28933690198858"><ele>1060.3333333333333</ele><time>2026-05-01T15:27:23.001Z</time></trkpt><trkpt lat="44.766654333043725" lon="9.289452881045602"><ele>1058.6666666666667</ele><time>2026-05-01T15:27:25.001Z</time></trkpt><trkpt lat="44.76670542174648" lon="9.28955856357758"><ele>1057.0</ele><time>2026-05-01T15:27:27.001Z</time></trkpt><trkpt lat="44.76671512097075" lon="9.289681687523437"><ele>1055.3333333333335</ele><time>2026-05-01T15:27:30.001Z</time></trkpt><trkpt lat="44.766720844660014" lon="9.289783241867932"><ele>1053.6666666666667</ele><time>2026-05-01T15:27:34.001Z</time></trkpt><trkpt lat="44.76672530920288" lon="9.289890193549644"><ele>1052.0</ele><time>2026-05-01T15:27:39.001Z</time></trkpt><trkpt lat="44.76673809831932" lon="9.28998175590249"><ele>1051.3333333333335</ele><time>2026-05-01T15:27:42.001Z</time></trkpt><trkpt lat="44.766756477978575" lon="9.290104623682756"><ele>1050.6666666666667</ele><time>2026-05-01T15:27:45.001Z</time></trkpt><trkpt lat="44.76675929025923" lon="9.290250492700563"><ele>1050.0</ele><time>2026-05-01T15:27:49.001Z</time></trkpt><trkpt lat="44.766759999072036" lon="9.290358515409995"><ele>1049.3333333333333</ele><time>2026-05-01T15:27:52.001Z</time></trkpt><trkpt lat="44.76679251783771" lon="9.29045892423481"><ele>1048.6666666666665</ele><time>2026-05-01T15:27:56.001Z</time></trkpt><trkpt lat="44.76687142874464" lon="9.29048596583847"><ele>1048.0</ele><time>2026-05-01T15:27:59.001Z</time></trkpt><trkpt lat="44.766954254531406" lon="9.290456115522586"><ele>1048.0</ele><time>2026-05-01T15:28:02.001Z</time></trkpt><trkpt lat="44.767045694400146" lon="9.290462942896077"><ele>1048.0</ele><time>2026-05-01T15:28:05.001Z</time></trkpt><trkpt lat="44.7671432773656" lon="9.29048883022189"><ele>1048.0</ele><time>2026-05-01T15:28:08.001Z</time></trkpt><trkpt lat="44.76720862174781" lon="9.290526752871356"><ele>1048.0</ele><time>2026-05-01T15:28:10.001Z</time></trkpt><trkpt lat="44.76727262862202" lon="9.290555321822179"><ele>1048.0</ele><time>2026-05-01T15:28:26.001Z</time></trkpt><trkpt lat="44.76732033190393" lon="9.290613773198016"><ele>1048.0</ele><time>2026-05-01T15:28:32.001Z</time></trkpt><trkpt lat="44.767356047161385" lon="9.290689073060959"><ele>1044.8333333333333</ele><time>2026-05-01T15:28:38Z</time></trkpt><trkpt lat="44.767411939860196" lon="9.290738278074762"><ele>1041.6666666666665</ele><time>2026-05-01T15:28:45Z</time></trkpt><trkpt lat="44.7674822469105" lon="9.290784408724006"><ele>1038.5</ele><time>2026-05-01T15:28:48Z</time></trkpt><trkpt lat="44.767554958531015" lon="9.290821924840875"><ele>1035.3333333333333</ele><time>2026-05-01T15:28:51Z</time></trkpt><trkpt lat="44.76762452033634" lon="9.290851768141438"><ele>1032.1666666666667</ele><time>2026-05-01T15:28:54Z</time></trkpt><trkpt lat="44.76770718358769" lon="9.290896182573702"><ele>1029.0</ele><time>2026-05-01T15:28:57Z</time></trkpt><trkpt lat="44.76777861397232" lon="9.290902798723502"><ele>1029.0</ele><time>2026-05-01T15:28:59Z</time></trkpt><trkpt lat="44.76787491291036" lon="9.290895116341627"><ele>1029.0</ele><time>2026-05-01T15:29:01Z</time></trkpt><trkpt lat="44.76796294517107" lon="9.290925844271106"><ele>1029.0</ele><time>2026-05-01T15:29:04Z</time></trkpt><trkpt lat="44.76805197843918" lon="9.29094268572518"><ele>1029.0</ele><time>2026-05-01T15:29:07Z</time></trkpt><trkpt lat="44.76812822950732" lon="9.290889050914751"><ele>1029.0</ele><time>2026-05-01T15:29:09Z</time></trkpt><trkpt lat="44.768209095242995" lon="9.290843428695931"><ele>1029.0</ele><time>2026-05-01T15:29:11Z</time></trkpt><trkpt lat="44.76830214759793" lon="9.290763416180667"><ele>1029.0</ele><time>2026-05-01T15:29:13Z</time></trkpt><trkpt lat="44.76837010826962" lon="9.290744100380104"><ele>1029.0</ele><time>2026-05-01T15:29:15Z</time></trkpt><trkpt lat="44.76843503478614" lon="9.29070067536832"><ele>1029.0</ele><time>2026-05-01T15:29:17Z</time></trkpt><trkpt lat="44.76850095457485" lon="9.290637255655783"><ele>1029.0</ele><time>2026-05-01T15:29:20Z</time></trkpt><trkpt lat="44.76857377956015" lon="9.290606539323534"><ele>1029.0</ele><time>2026-05-01T15:29:22Z</time></trkpt><trkpt lat="44.76865973686793" lon="9.29059098472722"><ele>1029.0</ele><time>2026-05-01T15:29:24Z</time></trkpt><trkpt lat="44.768734292085306" lon="9.290660793820345"><ele>1030.5</ele><time>2026-05-01T15:29:26Z</time></trkpt><trkpt lat="44.76880379192586" lon="9.29076157484832"><ele>1032.0</ele><time>2026-05-01T15:29:28Z</time></trkpt><trkpt lat="44.768880234656905" lon="9.290800004156067"><ele>1033.5</ele><time>2026-05-01T15:29:30Z</time></trkpt><trkpt lat="44.768942090597164" lon="9.290778376660782"><ele>1035.0</ele><time>2026-05-01T15:29:32Z</time></trkpt><trkpt lat="44.76905765842018" lon="9.29071420304938"><ele>1036.5</ele><time>2026-05-01T15:29:34Z</time></trkpt><trkpt lat="44.76912336045077" lon="9.29075397699574"><ele>1038.0</ele><time>2026-05-01T15:29:35Z</time></trkpt><trkpt lat="44.76921938143968" lon="9.290748813162567"><ele>1038.0</ele><time>2026-05-01T15:29:37Z</time></trkpt><trkpt lat="44.769291966597244" lon="9.290762363167318"><ele>1038.0</ele><time>2026-05-01T15:29:39Z</time></trkpt><trkpt lat="44.769371018602236" lon="9.290779626034542"><ele>1038.0</ele><time>2026-05-01T15:29:42Z</time></trkpt><trkpt lat="44.76947176206738" lon="9.290751458083061"><ele>1038.0</ele><time>2026-05-01T15:29:44Z</time></trkpt><trkpt lat="44.76958088978732" lon="9.290738550273788"><ele>1038.0</ele><time>2026-05-01T15:29:46Z</time></trkpt><trkpt lat="44.76966416585039" lon="9.290757401143809"><ele>1040.5</ele><time>2026-05-01T15:29:48Z</time></trkpt><trkpt lat="44.76973033642805" lon="9.290784274552863"><ele>1043.0</ele><time>2026-05-01T15:29:50Z</time></trkpt><trkpt lat="44.76980440404954" lon="9.290810105558604"><ele>1045.5</ele><time>2026-05-01T15:29:51Z</time></trkpt><trkpt lat="44.76989261884781" lon="9.290853128627019"><ele>1048.0</ele><time>2026-05-01T15:29:53Z</time></trkpt><trkpt lat="44.769946689353446" lon="9.290922287043783"><ele>1050.5</ele><time>2026-05-01T15:29:56Z</time></trkpt><trkpt lat="44.769951395442874" lon="9.291016530799714"><ele>1053.0</ele><time>2026-05-01T15:29:58Z</time></trkpt><trkpt lat="44.769975919627555" lon="9.291178457930725"><ele>1053.0</ele><time>2026-05-01T15:30:00.001Z</time></trkpt><trkpt lat="44.77005054722401" lon="9.291294850508129"><ele>1053.0</ele><time>2026-05-01T15:30:02.001Z</time></trkpt><trkpt lat="44.77011896173556" lon="9.291379016078215"><ele>1053.0</ele><time>2026-05-01T15:30:04.001Z</time></trkpt><trkpt lat="44.77018232023306" lon="9.291470171808754"><ele>1053.0</ele><time>2026-05-01T15:30:06.001Z</time></trkpt><trkpt lat="44.77019601203437" lon="9.291566313142106"><ele>1053.0</ele><time>2026-05-01T15:30:07.001Z</time></trkpt><trkpt lat="44.77023496513629" lon="9.291707921540866"><ele>1054.6</ele><time>2026-05-01T15:30:09.001Z</time></trkpt><trkpt lat="44.77026818958464" lon="9.291851815471126"><ele>1056.1999999999998</ele><time>2026-05-01T15:30:11.001Z</time></trkpt><trkpt lat="44.77027747626656" lon="9.292003775903193"><ele>1057.8</ele><time>2026-05-01T15:30:13.001Z</time></trkpt><trkpt lat="44.77031119394746" lon="9.292140148000868"><ele>1059.3999999999999</ele><time>2026-05-01T15:30:15.001Z</time></trkpt><trkpt lat="44.77035680568917" lon="9.292213399555155"><ele>1061.0</ele><time>2026-05-01T15:30:17.001Z</time></trkpt><trkpt lat="44.77044576005677" lon="9.292265027949812"><ele>1061.0</ele><time>2026-05-01T15:30:19.001Z</time></trkpt><trkpt lat="44.7705214293773" lon="9.292345999528482"><ele>1061.0</ele><time>2026-05-01T15:30:21.001Z</time></trkpt><trkpt lat="44.77058474444949" lon="9.292470367709223"><ele>1061.0</ele><time>2026-05-01T15:30:23.001Z</time></trkpt><trkpt lat="44.77060895240884" lon="9.292582038268309"><ele>1061.0</ele><time>2026-05-01T15:30:25.001Z</time></trkpt><trkpt lat="44.770637457211556" lon="9.292687037141942"><ele>1061.0</ele><time>2026-05-01T15:30:28.001Z</time></trkpt><trkpt lat="44.7706829528544" lon="9.29281615229454"><ele>1061.0</ele><time>2026-05-01T15:30:30.001Z</time></trkpt><trkpt lat="44.770708749225044" lon="9.29290370767089"><ele>1061.0</ele><time>2026-05-01T15:30:31.001Z</time></trkpt><trkpt lat="44.77073802581365" lon="9.293003901824093"><ele>1061.0</ele><time>2026-05-01T15:30:32.001Z</time></trkpt><trkpt lat="44.770787238345946" lon="9.29310287571574"><ele>1061.0</ele><time>2026-05-01T15:30:33.001Z</time></trkpt><trkpt lat="44.770828455988884" lon="9.293192903124991"><ele>1061.0</ele><time>2026-05-01T15:30:34.001Z</time></trkpt><trkpt lat="44.7708648270908" lon="9.293266028616745"><ele>1061.0</ele><time>2026-05-01T15:30:35.001Z</time></trkpt><trkpt lat="44.77093119743586" lon="9.293399427618812"><ele>1060.6</ele><time>2026-05-01T15:30:37.001Z</time></trkpt><trkpt lat="44.77093023812228" lon="9.29355992364832"><ele>1060.1999999999998</ele><time>2026-05-01T15:30:39.001Z</time></trkpt><trkpt lat="44.770879163773564" lon="9.293689910387045"><ele>1059.8000000000002</ele><time>2026-05-01T15:30:41Z</time></trkpt><trkpt lat="44.77078851586382" lon="9.293794986971703"><ele>1059.4</ele><time>2026-05-01T15:30:43Z</time></trkpt><trkpt lat="44.77074111580275" lon="9.293864109620136"><ele>1059.0</ele><time>2026-05-01T15:30:44Z</time></trkpt><trkpt lat="44.77070205937822" lon="9.29393393800862"><ele>1059.0</ele><time>2026-05-01T15:30:45Z</time></trkpt><trkpt lat="44.77065955402697" lon="9.294059693051867"><ele>1059.0</ele><time>2026-05-01T15:30:47Z</time></trkpt><trkpt lat="44.770635228285464" lon="9.294148334558358"><ele>1059.0</ele><time>2026-05-01T15:30:57Z</time></trkpt><trkpt lat="44.770657723736626" lon="9.294285541493887"><ele>1059.0</ele><time>2026-05-01T15:31:00Z</time></trkpt><trkpt lat="44.77075309993613" lon="9.294293794984714"><ele>1059.0</ele><time>2026-05-01T15:31:02Z</time></trkpt><trkpt lat="44.77084928850657" lon="9.294310338580702"><ele>1059.0</ele><time>2026-05-01T15:31:04Z</time></trkpt><trkpt lat="44.77092552860233" lon="9.294356074352304"><ele>1059.0</ele><time>2026-05-01T15:31:08Z</time></trkpt><trkpt lat="44.771003248079495" lon="9.294443046039659"><ele>1059.0</ele><time>2026-05-01T15:31:10Z</time></trkpt><trkpt lat="44.77107317915358" lon="9.294561819176185"><ele>1059.0</ele><time>2026-05-01T15:31:12Z</time></trkpt><trkpt lat="44.77111067947762" lon="9.294695964273743"><ele>1059.0</ele><time>2026-05-01T15:31:14Z</time></trkpt><trkpt lat="44.77118134172049" lon="9.294828518087279"><ele>1060.2857142857142</ele><time>2026-05-01T15:31:16Z</time></trkpt><trkpt lat="44.771228882397345" lon="9.294887799020154"><ele>1061.5714285714284</ele><time>2026-05-01T15:31:17Z</time></trkpt><trkpt lat="44.77128870547986" lon="9.294932690725647"><ele>1062.857142857143</ele><time>2026-05-01T15:31:18Z</time></trkpt><trkpt lat="44.771367240079925" lon="9.294986803575485"><ele>1064.142857142857</ele><time>2026-05-01T15:31:19Z</time></trkpt><trkpt lat="44.771436430926876" lon="9.295003842232695"><ele>1065.4285714285716</ele><time>2026-05-01T15:31:20Z</time></trkpt><trkpt lat="44.77148317580129" lon="9.295087203680719"><ele>1066.7142857142858</ele><time>2026-05-01T15:31:21Z</time></trkpt><trkpt lat="44.77153719757602" lon="9.295141086007973"><ele>1068.0</ele><time>2026-05-01T15:31:22Z</time></trkpt><trkpt lat="44.7715888472526" lon="9.295196217566996"><ele>1068.0</ele><time>2026-05-01T15:31:23Z</time></trkpt><trkpt lat="44.771673439953034" lon="9.295300982168206"><ele>1068.0</ele><time>2026-05-01T15:31:25Z</time></trkpt><trkpt lat="44.771731061792" lon="9.295354040570691"><ele>1068.0</ele><time>2026-05-01T15:31:27Z</time></trkpt><trkpt lat="44.77173756467054" lon="9.295443424974197"><ele>1068.0</ele><time>2026-05-01T15:31:29Z</time></trkpt><trkpt lat="44.77170788995071" lon="9.295528658128172"><ele>1068.0</ele><time>2026-05-01T15:31:30Z</time></trkpt><trkpt lat="44.77168395174577" lon="9.295651062976491"><ele>1068.0</ele><time>2026-05-01T15:31:32Z</time></trkpt><trkpt lat="44.77173102262313" lon="9.295761775416256"><ele>1066.0</ele><time>2026-05-01T15:31:34Z</time></trkpt><trkpt lat="44.771808690644775" lon="9.295883847013572"><ele>1064.0</ele><time>2026-05-01T15:31:36Z</time></trkpt><trkpt lat="44.771871729314796" lon="9.295965462855555"><ele>1062.0</ele><time>2026-05-01T15:31:38Z</time></trkpt><trkpt lat="44.77186833767987" lon="9.296059141076768"><ele>1060.0</ele><time>2026-05-01T15:31:40Z</time></trkpt><trkpt lat="44.77190844544636" lon="9.296218404436592"><ele>1058.0</ele><time>2026-05-01T15:31:42Z</time></trkpt><trkpt lat="44.77193735380661" lon="9.296299027930543"><ele>1057.5</ele><time>2026-05-01T15:31:43Z</time></trkpt><trkpt lat="44.77194517983709" lon="9.296411601197136"><ele>1057.0</ele><time>2026-05-01T15:31:45Z</time></trkpt><trkpt lat="44.771942645874574" lon="9.296516305001463"><ele>1056.5</ele><time>2026-05-01T15:31:47Z</time></trkpt><trkpt lat="44.77190514205434" lon="9.296648643555319"><ele>1056.0</ele><time>2026-05-01T15:31:49Z</time></trkpt><trkpt lat="44.771893861799654" lon="9.29678484500433"><ele>1055.5</ele><time>2026-05-01T15:31:51Z</time></trkpt><trkpt lat="44.77187074149937" lon="9.296867957210159"><ele>1055.0</ele><time>2026-05-01T15:31:52Z</time></trkpt><trkpt lat="44.77182195551726" lon="9.296967329919896"><ele>1055.0</ele><time>2026-05-01T15:31:54Z</time></trkpt><trkpt lat="44.77177543171981" lon="9.29702772201966"><ele>1055.0</ele><time>2026-05-01T15:31:55Z</time></trkpt><trkpt lat="44.77172345025442" lon="9.2971471551468"><ele>1055.0</ele><time>2026-05-01T15:31:57Z</time></trkpt><trkpt lat="44.771734305696434" lon="9.297276930223658"><ele>1055.0</ele><time>2026-05-01T15:31:59.001Z</time></trkpt><trkpt lat="44.771795966548105" lon="9.297374806100223"><ele>1055.0</ele><time>2026-05-01T15:32:01.001Z</time></trkpt><trkpt lat="44.77184035628662" lon="9.297485022699266"><ele>1055.0</ele><time>2026-05-01T15:32:03.001Z</time></trkpt><trkpt lat="44.771823781505866" lon="9.297574168442226"><ele>1055.0</ele><time>2026-05-01T15:32:04.001Z</time></trkpt><trkpt lat="44.77179978063224" lon="9.297665305446197"><ele>1055.0</ele><time>2026-05-01T15:32:06.001Z</time></trkpt><trkpt lat="44.77180166613689" lon="9.297782224170335"><ele>1055.0</ele><time>2026-05-01T15:32:08.001Z</time></trkpt><trkpt lat="44.77177884667721" lon="9.297884268454567"><ele>1055.0</ele><time>2026-05-01T15:32:09.001Z</time></trkpt><trkpt lat="44.77171785586854" lon="9.29797342795476"><ele>1055.0</ele><time>2026-05-01T15:32:11.001Z</time></trkpt><trkpt lat="44.77162547246003" lon="9.29810400997225"><ele>1055.0</ele><time>2026-05-01T15:32:13.001Z</time></trkpt><trkpt lat="44.77158174531318" lon="9.298239560615702"><ele>1055.0</ele><time>2026-05-01T15:32:15.001Z</time></trkpt><trkpt lat="44.771546862979335" lon="9.29836815168802"><ele>1055.0</ele><time>2026-05-01T15:32:17.001Z</time></trkpt><trkpt lat="44.77151976392759" lon="9.298491458322362"><ele>1055.0</ele><time>2026-05-01T15:32:19.001Z</time></trkpt><trkpt lat="44.77151292936595" lon="9.298584701696173"><ele>1055.0</ele><time>2026-05-01T15:32:22.001Z</time></trkpt><trkpt lat="44.771574608332855" lon="9.298604458364997"><ele>1055.0</ele><time>2026-05-01T15:32:28.001Z</time></trkpt><trkpt lat="44.771635776352056" lon="9.298568120497494"><ele>1055.0</ele><time>2026-05-01T15:32:29.001Z</time></trkpt><trkpt lat="44.771705969474986" lon="9.298482408480954"><ele>1055.0</ele><time>2026-05-01T15:32:30.001Z</time></trkpt><trkpt lat="44.771797803890145" lon="9.298421648411166"><ele>1055.0</ele><time>2026-05-01T15:32:31.001Z</time></trkpt><trkpt lat="44.77186957668015" lon="9.298386528556653"><ele>1055.0</ele><time>2026-05-01T15:32:32.001Z</time></trkpt><trkpt lat="44.771938764366226" lon="9.298359810107836"><ele>1055.0</ele><time>2026-05-01T15:32:33.001Z</time></trkpt><trkpt lat="44.772056178382954" lon="9.298306004391836"><ele>1055.0</ele><time>2026-05-01T15:32:35.001Z</time></trkpt><trkpt lat="44.772143205520244" lon="9.298243562043837"><ele>1056.8</ele><time>2026-05-01T15:32:37.001Z</time></trkpt><trkpt lat="44.77226042243738" lon="9.298222883704113"><ele>1058.6</ele><time>2026-05-01T15:32:39.001Z</time></trkpt><trkpt lat="44.77233339365886" lon="9.29820151383161"><ele>1060.4</ele><time>2026-05-01T15:32:40.001Z</time></trkpt><trkpt lat="44.77242589314775" lon="9.29816180546719"><ele>1062.2</ele><time>2026-05-01T15:32:41.001Z</time></trkpt><trkpt lat="44.772526105849344" lon="9.29815623391407"><ele>1064.0</ele><time>2026-05-01T15:32:42.001Z</time></trkpt><trkpt lat="44.77262356582506" lon="9.29814439662184"><ele>1066.1666666666667</ele><time>2026-05-01T15:32:43.001Z</time></trkpt><trkpt lat="44.7727144543121" lon="9.298133172509697"><ele>1068.3333333333335</ele><time>2026-05-01T15:32:44.001Z</time></trkpt><trkpt lat="44.77279874654852" lon="9.298122730403595"><ele>1070.5</ele><time>2026-05-01T15:32:45.001Z</time></trkpt><trkpt lat="44.772883224734166" lon="9.298119857666961"><ele>1072.6666666666667</ele><time>2026-05-01T15:32:46.001Z</time></trkpt><trkpt lat="44.77295739668689" lon="9.298119301704066"><ele>1074.8333333333333</ele><time>2026-05-01T15:32:47Z</time></trkpt><trkpt lat="44.77302292525815" lon="9.298104993134924"><ele>1077.0</ele><time>2026-05-01T15:32:48Z</time></trkpt><trkpt lat="44.77310753047039" lon="9.298060849664761"><ele>1077.0</ele><time>2026-05-01T15:32:50Z</time></trkpt><trkpt lat="44.7731826789913" lon="9.298124528886364"><ele>1077.0</ele><time>2026-05-01T15:32:54Z</time></trkpt><trkpt lat="44.773238988713224" lon="9.298221664008397"><ele>1077.0</ele><time>2026-05-01T15:32:57Z</time></trkpt><trkpt lat="44.77330777829208" lon="9.298379565525803"><ele>1077.0</ele><time>2026-05-01T15:32:59Z</time></trkpt><trkpt lat="44.773363883461094" lon="9.298459175527912"><ele>1077.0</ele><time>2026-05-01T15:33:00Z</time></trkpt><trkpt lat="44.773423622809524" lon="9.29852834160146"><ele>1077.0</ele><time>2026-05-01T15:33:01Z</time></trkpt><trkpt lat="44.773488493022505" lon="9.298594141590007"><ele>1077.0</ele><time>2026-05-01T15:33:02Z</time></trkpt><trkpt lat="44.7735258467174" lon="9.298676112245266"><ele>1077.0</ele><time>2026-05-01T15:33:03Z</time></trkpt><trkpt lat="44.77355961992899" lon="9.298778130647511"><ele>1077.0</ele><time>2026-05-01T15:33:05Z</time></trkpt><trkpt lat="44.77356324974144" lon="9.298908105664056"><ele>1077.0</ele><time>2026-05-01T15:33:07Z</time></trkpt><trkpt lat="44.773625922586454" lon="9.29904639544888"><ele>1077.0</ele><time>2026-05-01T15:33:09Z</time></trkpt><trkpt lat="44.7736892840536" lon="9.299086745684079"><ele>1079.1666666666667</ele><time>2026-05-01T15:33:10Z</time></trkpt><trkpt lat="44.77374935771503" lon="9.299143632686786"><ele>1081.3333333333333</ele><time>2026-05-01T15:33:11Z</time></trkpt><trkpt lat="44.77386732544754" lon="9.299208664716577"><ele>1083.5</ele><time>2026-05-01T15:33:13Z</time></trkpt><trkpt lat="44.77394302631531" lon="9.299226391170054"><ele>1085.6666666666665</ele><time>2026-05-01T15:33:14Z</time></trkpt><trkpt lat="44.7740144154336" lon="9.29926454391141"><ele>1087.8333333333333</ele><time>2026-05-01T15:33:15Z</time></trkpt><trkpt lat="44.7740910192424" lon="9.299300447029522"><ele>1090.0</ele><time>2026-05-01T15:33:16Z</time></trkpt><trkpt lat="44.77417165754715" lon="9.299346126043142"><ele>1090.0</ele><time>2026-05-01T15:33:17Z</time></trkpt><trkpt lat="44.774259054694426" lon="9.299401481755027"><ele>1090.0</ele><time>2026-05-01T15:33:18Z</time></trkpt><trkpt lat="44.7743317043835" lon="9.299447879828087"><ele>1090.0</ele><time>2026-05-01T15:33:19Z</time></trkpt><trkpt lat="44.77440480919856" lon="9.299481843706046"><ele>1090.0</ele><time>2026-05-01T15:33:20Z</time></trkpt><trkpt lat="44.77446996593068" lon="9.299527055852073"><ele>1090.0</ele><time>2026-05-01T15:33:21Z</time></trkpt><trkpt lat="44.774548187405195" lon="9.299628527289943"><ele>1090.0</ele><time>2026-05-01T15:33:23Z</time></trkpt><trkpt lat="44.774575339615915" lon="9.299719665963476"><ele>1093.1666666666665</ele><time>2026-05-01T15:33:25Z</time></trkpt><trkpt lat="44.7745273301989" lon="9.299836559970718"><ele>1096.3333333333333</ele><time>2026-05-01T15:33:27Z</time></trkpt><trkpt lat="44.774507418167055" lon="9.299932486923012"><ele>1099.5</ele><time>2026-05-01T15:33:28Z</time></trkpt><trkpt lat="44.77449117043121" lon="9.30004882887813"><ele>1102.6666666666667</ele><time>2026-05-01T15:33:29Z</time></trkpt><trkpt lat="44.77445832283589" lon="9.300163564816565"><ele>1105.8333333333335</ele><time>2026-05-01T15:33:30Z</time></trkpt><trkpt lat="44.774392033437564" lon="9.3002804184558"><ele>1109.0</ele><time>2026-05-01T15:33:32Z</time></trkpt><trkpt lat="44.774355740627215" lon="9.30037080451175"><ele>1107.6000000000001</ele><time>2026-05-01T15:33:33Z</time></trkpt><trkpt lat="44.774301194531276" lon="9.300454567573675"><ele>1106.2</ele><time>2026-05-01T15:33:34Z</time></trkpt><trkpt lat="44.77424717861398" lon="9.30054120641649"><ele>1104.8000000000002</ele><time>2026-05-01T15:33:35Z</time></trkpt><trkpt lat="44.774198198808186" lon="9.300628109664096"><ele>1103.4</ele><time>2026-05-01T15:33:36Z</time></trkpt><trkpt lat="44.77412424711967" lon="9.300787444140587"><ele>1102.0</ele><time>2026-05-01T15:33:38Z</time></trkpt><trkpt lat="44.774083218842655" lon="9.30087557933842"><ele>1101.9999999999998</ele><time>2026-05-01T15:33:39Z</time></trkpt><trkpt lat="44.77405620642362" lon="9.300956162258199"><ele>1102.0</ele><time>2026-05-01T15:33:40Z</time></trkpt><trkpt lat="44.77399873782616" lon="9.30105277568098"><ele>1102.0</ele><time>2026-05-01T15:33:41Z</time></trkpt><trkpt lat="44.773952117830405" lon="9.301142111652211"><ele>1102.0</ele><time>2026-05-01T15:33:42Z</time></trkpt><trkpt lat="44.77389560363098" lon="9.301211326793105"><ele>1102.0</ele><time>2026-05-01T15:33:43Z</time></trkpt><trkpt lat="44.77384974401323" lon="9.301293514243913"><ele>1101.9999999999998</ele><time>2026-05-01T15:33:44Z</time></trkpt><trkpt lat="44.773810048302806" lon="9.301370321046416"><ele>1102.0</ele><time>2026-05-01T15:33:45Z</time></trkpt><trkpt lat="44.77376220950246" lon="9.301452021750976"><ele>1102.8333333333333</ele><time>2026-05-01T15:33:46Z</time></trkpt><trkpt lat="44.77370768239727" lon="9.3015409430459"><ele>1103.6666666666665</ele><time>2026-05-01T15:33:47Z</time></trkpt><trkpt lat="44.7736558101659" lon="9.301610524544046"><ele>1104.5</ele><time>2026-05-01T15:33:48Z</time></trkpt><trkpt lat="44.773587421038364" lon="9.301666184737357"><ele>1105.3333333333333</ele><time>2026-05-01T15:33:49Z</time></trkpt><trkpt lat="44.77352878227045" lon="9.301741095880159"><ele>1106.1666666666667</ele><time>2026-05-01T15:33:50Z</time></trkpt><trkpt lat="44.773446166952446" lon="9.301833517722853"><ele>1107.0</ele><time>2026-05-01T15:33:52Z</time></trkpt><trkpt lat="44.7733417418451" lon="9.301855386955602"><ele>1107.0</ele><time>2026-05-01T15:33:54Z</time></trkpt><trkpt lat="44.77327816626584" lon="9.3017975992024"><ele>1107.0</ele><time>2026-05-01T15:33:55Z</time></trkpt><trkpt lat="44.7731672705573" lon="9.301733277139922"><ele>1107.0</ele><time>2026-05-01T15:33:57Z</time></trkpt><trkpt lat="44.77304681844276" lon="9.301692885947402"><ele>1107.0</ele><time>2026-05-01T15:33:59Z</time></trkpt><trkpt lat="44.77294403938429" lon="9.301651837483588"><ele>1107.0</ele><time>2026-05-01T15:34:01Z</time></trkpt><trkpt lat="44.77284346363704" lon="9.301679509308338"><ele>1107.0</ele><time>2026-05-01T15:34:03Z</time></trkpt><trkpt lat="44.7727640732625" lon="9.301795542851323"><ele>1107.0</ele><time>2026-05-01T15:34:05Z</time></trkpt><trkpt lat="44.772713021371565" lon="9.301882782579005"><ele>1107.0</ele><time>2026-05-01T15:34:06Z</time></trkpt><trkpt lat="44.77265949718728" lon="9.301981753101717"><ele>1107.0</ele><time>2026-05-01T15:34:07Z</time></trkpt><trkpt lat="44.772608865249204" lon="9.302084537783749"><ele>1107.0</ele><time>2026-05-01T15:34:08Z</time></trkpt><trkpt lat="44.77256062371759" lon="9.302173842500022"><ele>1107.6666666666667</ele><time>2026-05-01T15:34:09Z</time></trkpt><trkpt lat="44.772526450840836" lon="9.30230025185698"><ele>1108.3333333333333</ele><time>2026-05-01T15:34:11.001Z</time></trkpt><trkpt lat="44.772533418360936" lon="9.302453029045976"><ele>1109.0</ele><time>2026-05-01T15:34:13.001Z</time></trkpt><trkpt lat="44.77253946865078" lon="9.302546950511267"><ele>1109.6666666666665</ele><time>2026-05-01T15:34:14.001Z</time></trkpt><trkpt lat="44.77253810792372" lon="9.302641869140107"><ele>1110.3333333333333</ele><time>2026-05-01T15:34:15.001Z</time></trkpt><trkpt lat="44.772533705652165" lon="9.302739160822384"><ele>1111.0</ele><time>2026-05-01T15:34:16.001Z</time></trkpt><trkpt lat="44.77246901041773" lon="9.30287081215677"><ele>1111.0</ele><time>2026-05-01T15:34:18.001Z</time></trkpt><trkpt lat="44.77243095416594" lon="9.30300253656352"><ele>1111.0</ele><time>2026-05-01T15:34:20.001Z</time></trkpt><trkpt lat="44.77243751833993" lon="9.303152506671584"><ele>1111.0</ele><time>2026-05-01T15:34:22.001Z</time></trkpt><trkpt lat="44.772450556531595" lon="9.303259970629298"><ele>1111.0</ele><time>2026-05-01T15:34:23.001Z</time></trkpt><trkpt lat="44.772449418429" lon="9.303367723663799"><ele>1111.0</ele><time>2026-05-01T15:34:24.001Z</time></trkpt><trkpt lat="44.772411854667574" lon="9.303467169772285"><ele>1111.0</ele><time>2026-05-01T15:34:25.001Z</time></trkpt><trkpt lat="44.772398673367256" lon="9.303556012899662"><ele>1113.6</ele><time>2026-05-01T15:34:26.001Z</time></trkpt><trkpt lat="44.7723562409943" lon="9.303708714178233"><ele>1116.1999999999998</ele><time>2026-05-01T15:34:28.001Z</time></trkpt><trkpt lat="44.772327141143776" lon="9.30386772602817"><ele>1118.8000000000002</ele><time>2026-05-01T15:34:30.001Z</time></trkpt><trkpt lat="44.772278366339826" lon="9.303996110553427"><ele>1121.4</ele><time>2026-05-01T15:34:32.001Z</time></trkpt><trkpt lat="44.772179484238286" lon="9.304036834369127"><ele>1124.0</ele><time>2026-05-01T15:34:34.001Z</time></trkpt><trkpt lat="44.77206516541713" lon="9.304027155976511"><ele>1124.0</ele><time>2026-05-01T15:34:36.001Z</time></trkpt><trkpt lat="44.77201729873363" lon="9.303967292567858"><ele>1124.0</ele><time>2026-05-01T15:34:37.001Z</time></trkpt><trkpt lat="44.77193075032746" lon="9.303912642890289"><ele>1124.0</ele><time>2026-05-01T15:34:39.001Z</time></trkpt><trkpt lat="44.77184562966606" lon="9.30395186203932"><ele>1124.0</ele><time>2026-05-01T15:34:41.003Z</time></trkpt><trkpt lat="44.771814362813856" lon="9.304035699431841"><ele>1124.0</ele><time>2026-05-01T15:34:42.001Z</time></trkpt><trkpt lat="44.77177533717332" lon="9.30414548299486"><ele>1124.0</ele><time>2026-05-01T15:34:43.001Z</time></trkpt><trkpt lat="44.77173345845074" lon="9.30423367958266"><ele>1125.0</ele><time>2026-05-01T15:34:44.001Z</time></trkpt><trkpt lat="44.77169004710514" lon="9.304325839947108"><ele>1126.0</ele><time>2026-05-01T15:34:45.001Z</time></trkpt><trkpt lat="44.77164906685195" lon="9.304412839193127"><ele>1127.0</ele><time>2026-05-01T15:34:46.001Z</time></trkpt><trkpt lat="44.771606334813626" lon="9.3045035573726"><ele>1128.0</ele><time>2026-05-01T15:34:47.001Z</time></trkpt><trkpt lat="44.771577952436914" lon="9.304602077723155"><ele>1129.0</ele><time>2026-05-01T15:34:48.001Z</time></trkpt><trkpt lat="44.77153842388052" lon="9.304676394557427"><ele>1130.0</ele><time>2026-05-01T15:34:49.001Z</time></trkpt><trkpt lat="44.77148150974116" lon="9.304818182446317"><ele>1130.0</ele><time>2026-05-01T15:34:51.001Z</time></trkpt><trkpt lat="44.77146358745415" lon="9.30491165524939"><ele>1130.0</ele><time>2026-05-01T15:34:52.001Z</time></trkpt><trkpt lat="44.771462013441266" lon="9.305008375776488"><ele>1130.0</ele><time>2026-05-01T15:34:52.999Z</time></trkpt><trkpt lat="44.77145693672692" lon="9.30515846981446"><ele>1130.0</ele><time>2026-05-01T15:34:54.999Z</time></trkpt><trkpt lat="44.77152100510792" lon="9.305291072975917"><ele>1130.0</ele><time>2026-05-01T15:34:56.999Z</time></trkpt><trkpt lat="44.77156968626204" lon="9.305349601149409"><ele>1130.0</ele><time>2026-05-01T15:34:57.999Z</time></trkpt><trkpt lat="44.77163217395672" lon="9.305422995412467"><ele>1129.9999999999998</ele><time>2026-05-01T15:34:58.999Z</time></trkpt><trkpt lat="44.77167025642608" lon="9.30550726201251"><ele>1130.0</ele><time>2026-05-01T15:34:59.999Z</time></trkpt><trkpt lat="44.771720607126774" lon="9.305595061071934"><ele>1130.0</ele><time>2026-05-01T15:35:00.999Z</time></trkpt><trkpt lat="44.771780518138264" lon="9.305655392470706"><ele>1130.0</ele><time>2026-05-01T15:35:01.999Z</time></trkpt><trkpt lat="44.77183205979217" lon="9.305726772262595"><ele>1130.0</ele><time>2026-05-01T15:35:02.999Z</time></trkpt><trkpt lat="44.771889302265706" lon="9.305784664236487"><ele>1129.9999999999998</ele><time>2026-05-01T15:35:03.999Z</time></trkpt><trkpt lat="44.77194725792451" lon="9.305831038940758"><ele>1130.0</ele><time>2026-05-01T15:35:04.999Z</time></trkpt><trkpt lat="44.772016412335006" lon="9.3058867682056"><ele>1134.5</ele><time>2026-05-01T15:35:05.999Z</time></trkpt><trkpt lat="44.77208390884895" lon="9.30595649254088"><ele>1139.0</ele><time>2026-05-01T15:35:06.999Z</time></trkpt><trkpt lat="44.77214209509135" lon="9.306032677824993"><ele>1143.5</ele><time>2026-05-01T15:35:08Z</time></trkpt><trkpt lat="44.772202612119656" lon="9.306121951674891"><ele>1148.0</ele><time>2026-05-01T15:35:09Z</time></trkpt><trkpt lat="44.772252509728425" lon="9.306219294638609"><ele>1152.5</ele><time>2026-05-01T15:35:10Z</time></trkpt><trkpt lat="44.77230750170254" lon="9.30631162488961"><ele>1157.0</ele><time>2026-05-01T15:35:11Z</time></trkpt><trkpt lat="44.77235725717844" lon="9.306404235779196"><ele>1154.8</ele><time>2026-05-01T15:35:12Z</time></trkpt><trkpt lat="44.77241156015526" lon="9.30652150094042"><ele>1152.6</ele><time>2026-05-01T15:35:13Z</time></trkpt><trkpt lat="44.77246090269049" lon="9.306636901885218"><ele>1150.3999999999999</ele><time>2026-05-01T15:35:14Z</time></trkpt><trkpt lat="44.77251086059905" lon="9.306755980585372"><ele>1148.2</ele><time>2026-05-01T15:35:15Z</time></trkpt><trkpt lat="44.77255897500773" lon="9.306875910730508"><ele>1146.0</ele><time>2026-05-01T15:35:16Z</time></trkpt><trkpt lat="44.772621779497086" lon="9.306986704625634"><ele>1146.0</ele><time>2026-05-01T15:35:17Z</time></trkpt><trkpt lat="44.772659694291846" lon="9.30710364499215"><ele>1146.0</ele><time>2026-05-01T15:35:18Z</time></trkpt><trkpt lat="44.772707095901396" lon="9.307214007199457"><ele>1146.0</ele><time>2026-05-01T15:35:19Z</time></trkpt><trkpt lat="44.77275397863492" lon="9.307330585510268"><ele>1146.0</ele><time>2026-05-01T15:35:20Z</time></trkpt><trkpt lat="44.77278835584296" lon="9.307453926275038"><ele>1146.0</ele><time>2026-05-01T15:35:21Z</time></trkpt><trkpt lat="44.77282309354506" lon="9.307552100838802"><ele>1153.5</ele><time>2026-05-01T15:35:22Z</time></trkpt><trkpt lat="44.77285116076394" lon="9.307643386452089"><ele>1161.0</ele><time>2026-05-01T15:35:23Z</time></trkpt><trkpt lat="44.77286565367241" lon="9.3078139083113"><ele>1168.5</ele><time>2026-05-01T15:35:25Z</time></trkpt><trkpt lat="44.77283737323494" lon="9.307906113593742"><ele>1176.0</ele><time>2026-05-01T15:35:26Z</time></trkpt><trkpt lat="44.77281513203976" lon="9.308005789124877"><ele>1183.5</ele><time>2026-05-01T15:35:27Z</time></trkpt><trkpt lat="44.772811826693456" lon="9.308122694042378"><ele>1191.0</ele><time>2026-05-01T15:35:28Z</time></trkpt><trkpt lat="44.772796888019045" lon="9.30823889545082"><ele>1191.1666666666667</ele><time>2026-05-01T15:35:29Z</time></trkpt><trkpt lat="44.77277253056192" lon="9.308356024636712"><ele>1191.3333333333333</ele><time>2026-05-01T15:35:30Z</time></trkpt><trkpt lat="44.77278163949037" lon="9.308485753234615"><ele>1191.5</ele><time>2026-05-01T15:35:31Z</time></trkpt><trkpt lat="44.77277016504009" lon="9.30860151716874"><ele>1191.6666666666665</ele><time>2026-05-01T15:35:32Z</time></trkpt><trkpt lat="44.77279682921373" lon="9.308706159962888"><ele>1191.8333333333333</ele><time>2026-05-01T15:35:33Z</time></trkpt><trkpt lat="44.772780647614866" lon="9.30879835729898"><ele>1192.0</ele><time>2026-05-01T15:35:34Z</time></trkpt><trkpt lat="44.77273123528274" lon="9.308923088143384"><ele>1186.3333333333333</ele><time>2026-05-01T15:35:36Z</time></trkpt><trkpt lat="44.772658792298" lon="9.309079554440498"><ele>1180.6666666666665</ele><time>2026-05-01T15:35:38Z</time></trkpt><trkpt lat="44.77263314789265" lon="9.309168045268187"><ele>1175.0</ele><time>2026-05-01T15:35:39Z</time></trkpt><trkpt lat="44.77261196298719" lon="9.309265379563318"><ele>1169.3333333333333</ele><time>2026-05-01T15:35:40Z</time></trkpt><trkpt lat="44.77261002300134" lon="9.309367253110377"><ele>1163.6666666666667</ele><time>2026-05-01T15:35:41Z</time></trkpt><trkpt lat="44.772600473723124" lon="9.309467792298891"><ele>1158.0</ele><time>2026-05-01T15:35:42Z</time></trkpt><trkpt lat="44.772593878890326" lon="9.30956966933086"><ele>1158.0</ele><time>2026-05-01T15:35:43Z</time></trkpt><trkpt lat="44.77260103714199" lon="9.309661659077378"><ele>1158.0</ele><time>2026-05-01T15:35:44Z</time></trkpt><trkpt lat="44.772651162753164" lon="9.3097931104344"><ele>1158.0</ele><time>2026-05-01T15:35:46Z</time></trkpt><trkpt lat="44.772723996870404" lon="9.309961359447938"><ele>1158.0</ele><time>2026-05-01T15:35:48Z</time></trkpt><trkpt lat="44.77277733692516" lon="9.31004130341132"><ele>1158.0</ele><time>2026-05-01T15:35:49Z</time></trkpt><trkpt lat="44.77282555774733" lon="9.31017682771528"><ele>1164.3333333333333</ele><time>2026-05-01T15:35:51Z</time></trkpt><trkpt lat="44.77279676273828" lon="9.310299995505218"><ele>1170.6666666666667</ele><time>2026-05-01T15:35:53Z</time></trkpt><trkpt lat="44.772741298577635" lon="9.310350097205065"><ele>1177.0</ele><time>2026-05-01T15:35:54Z</time></trkpt><trkpt lat="44.77272096117317" lon="9.31044657968796"><ele>1183.3333333333335</ele><time>2026-05-01T15:35:55Z</time></trkpt><trkpt lat="44.77270690389123" lon="9.310548076386185"><ele>1189.6666666666667</ele><time>2026-05-01T15:35:56Z</time></trkpt><trkpt lat="44.772709528958956" lon="9.310651218880762"><ele>1196.0</ele><time>2026-05-01T15:35:57Z</time></trkpt><trkpt lat="44.77269263139917" lon="9.31075743641329"><ele>1197.5</ele><time>2026-05-01T15:35:58Z</time></trkpt><trkpt lat="44.772679947995115" lon="9.310852337013387"><ele>1199.0</ele><time>2026-05-01T15:35:59Z</time></trkpt><trkpt lat="44.772666743766436" lon="9.310940973314477"><ele>1200.5</ele><time>2026-05-01T15:36:00Z</time></trkpt><trkpt lat="44.77266605024513" lon="9.31109263666694"><ele>1202.0</ele><time>2026-05-01T15:36:02Z</time></trkpt><trkpt lat="44.7727409707393" lon="9.311190926480055"><ele>1203.5</ele><time>2026-05-01T15:36:04Z</time></trkpt><trkpt lat="44.772801188321736" lon="9.311233967014896"><ele>1205.0</ele><time>2026-05-01T15:36:05Z</time></trkpt><trkpt lat="44.77286182118893" lon="9.311287125750344"><ele>1205.0</ele><time>2026-05-01T15:36:06Z</time></trkpt><trkpt lat="44.77292576848297" lon="9.311323412756547"><ele>1205.0</ele><time>2026-05-01T15:36:07Z</time></trkpt><trkpt lat="44.77299367704797" lon="9.311384498047774"><ele>1205.0</ele><time>2026-05-01T15:36:08Z</time></trkpt><trkpt lat="44.773052001751815" lon="9.311473505057911"><ele>1205.0</ele><time>2026-05-01T15:36:09Z</time></trkpt><trkpt lat="44.773115057868836" lon="9.311544327043558"><ele>1205.0</ele><time>2026-05-01T15:36:10Z</time></trkpt><trkpt lat="44.773168854428874" lon="9.311624308098665"><ele>1205.0</ele><time>2026-05-01T15:36:11Z</time></trkpt><trkpt lat="44.773216635894556" lon="9.311717499291715"><ele>1202.4</ele><time>2026-05-01T15:36:12Z</time></trkpt><trkpt lat="44.773262227135014" lon="9.311832125827358"><ele>1199.8</ele><time>2026-05-01T15:36:13Z</time></trkpt><trkpt lat="44.773304927102224" lon="9.311949196925825"><ele>1197.2</ele><time>2026-05-01T15:36:14Z</time></trkpt><trkpt lat="44.773359106224255" lon="9.31206345176046"><ele>1194.6</ele><time>2026-05-01T15:36:15Z</time></trkpt><trkpt lat="44.77340118509502" lon="9.312176561461017"><ele>1192.0</ele><time>2026-05-01T15:36:16Z</time></trkpt><trkpt lat="44.773422586801885" lon="9.312296460183491"><ele>1189.8333333333333</ele><time>2026-05-01T15:36:17Z</time></trkpt><trkpt lat="44.77346174527072" lon="9.312418665681394"><ele>1187.6666666666665</ele><time>2026-05-01T15:36:18Z</time></trkpt><trkpt lat="44.77348157161167" lon="9.312526075442264"><ele>1185.5</ele><time>2026-05-01T15:36:19.001Z</time></trkpt><trkpt lat="44.773497743884704" lon="9.312631744711501"><ele>1183.3333333333333</ele><time>2026-05-01T15:36:20.001Z</time></trkpt><trkpt lat="44.77350517894274" lon="9.312773870314729"><ele>1181.1666666666667</ele><time>2026-05-01T15:36:21.001Z</time></trkpt><trkpt lat="44.77350256069044" lon="9.312888830725067"><ele>1179.0</ele><time>2026-05-01T15:36:22.001Z</time></trkpt><trkpt lat="44.77348503597554" lon="9.313014109408165"><ele>1179.6666666666667</ele><time>2026-05-01T15:36:23.001Z</time></trkpt><trkpt lat="44.77348865452989" lon="9.313135919369739"><ele>1180.3333333333333</ele><time>2026-05-01T15:36:24.001Z</time></trkpt><trkpt lat="44.77347694853195" lon="9.313244814682038"><ele>1181.0</ele><time>2026-05-01T15:36:25.001Z</time></trkpt><trkpt lat="44.7734658144228" lon="9.313354231618735"><ele>1181.6666666666665</ele><time>2026-05-01T15:36:26.001Z</time></trkpt><trkpt lat="44.77348966888714" lon="9.31350589889382"><ele>1182.3333333333333</ele><time>2026-05-01T15:36:28.001Z</time></trkpt><trkpt lat="44.77350258385319" lon="9.313596470697256"><ele>1183.0</ele><time>2026-05-01T15:36:29.001Z</time></trkpt><trkpt lat="44.77354129567044" lon="9.313769784160058"><ele>1181.8</ele><time>2026-05-01T15:36:31.001Z</time></trkpt><trkpt lat="44.77358361210412" lon="9.313881586998832"><ele>1180.6</ele><time>2026-05-01T15:36:32.001Z</time></trkpt><trkpt lat="44.7736481291658" lon="9.314000524963227"><ele>1179.4</ele><time>2026-05-01T15:36:34.001Z</time></trkpt><trkpt lat="44.77377202198143" lon="9.314041956202354"><ele>1178.2</ele><time>2026-05-01T15:36:36.001Z</time></trkpt><trkpt lat="44.77384807188433" lon="9.314027518560254"><ele>1177.0</ele><time>2026-05-01T15:36:37.001Z</time></trkpt><trkpt lat="44.77392003865801" lon="9.314011741018083"><ele>1177.0</ele><time>2026-05-01T15:36:38.001Z</time></trkpt><trkpt lat="44.77409150345093" lon="9.313949762881423"><ele>1177.0</ele><time>2026-05-01T15:36:40.001Z</time></trkpt><trkpt lat="44.774179007672956" lon="9.313928471201832"><ele>1177.0</ele><time>2026-05-01T15:36:41.001Z</time></trkpt><trkpt lat="44.774269201408416" lon="9.313906219315022"><ele>1177.0</ele><time>2026-05-01T15:36:42.001Z</time></trkpt><trkpt lat="44.7743449930887" lon="9.313883375588333"><ele>1177.0</ele><time>2026-05-01T15:36:43.001Z</time></trkpt><trkpt lat="44.77441684073591" lon="9.313863878769338"><ele>1182.6</ele><time>2026-05-01T15:36:44.001Z</time></trkpt><trkpt lat="44.7744936197964" lon="9.31382255719318"><ele>1188.2</ele><time>2026-05-01T15:36:45.001Z</time></trkpt><trkpt lat="44.77457131896629" lon="9.313799540143021"><ele>1193.8</ele><time>2026-05-01T15:36:46.001Z</time></trkpt><trkpt lat="44.77465962610816" lon="9.313772575629317"><ele>1199.4</ele><time>2026-05-01T15:36:47.001Z</time></trkpt><trkpt lat="44.77474990136047" lon="9.313719590339558"><ele>1205.0</ele><time>2026-05-01T15:36:48.001Z</time></trkpt><trkpt lat="44.774863185859935" lon="9.313689192993726"><ele>1205.0</ele><time>2026-05-01T15:36:49.001Z</time></trkpt><trkpt lat="44.774952940094074" lon="9.313664001833521"><ele>1205.0</ele><time>2026-05-01T15:36:50.001Z</time></trkpt><trkpt lat="44.775037670633424" lon="9.313648372793098"><ele>1205.0</ele><time>2026-05-01T15:36:51.001Z</time></trkpt><trkpt lat="44.775164842667145" lon="9.313637124382511"><ele>1205.0</ele><time>2026-05-01T15:36:52.001Z</time></trkpt><trkpt lat="44.77525489494173" lon="9.313614792108297"><ele>1205.0</ele><time>2026-05-01T15:36:53.001Z</time></trkpt><trkpt lat="44.77534227379843" lon="9.313617623013009"><ele>1201.8</ele><time>2026-05-01T15:36:54.001Z</time></trkpt><trkpt lat="44.77551582237462" lon="9.313609035731718"><ele>1198.6</ele><time>2026-05-01T15:36:56.001Z</time></trkpt><trkpt lat="44.77558592692039" lon="9.313627274617714"><ele>1195.4</ele><time>2026-05-01T15:36:57.001Z</time></trkpt><trkpt lat="44.77565829290004" lon="9.313629303293462"><ele>1192.2</ele><time>2026-05-01T15:36:58.001Z</time></trkpt><trkpt lat="44.77572778766352" lon="9.313631251474424"><ele>1189.0</ele><time>2026-05-01T15:36:59Z</time></trkpt><trkpt lat="44.77580175592214" lon="9.313633837876626"><ele>1189.0</ele><time>2026-05-01T15:37:00Z</time></trkpt><trkpt lat="44.77588012002715" lon="9.313620895852567"><ele>1189.0</ele><time>2026-05-01T15:37:01Z</time></trkpt><trkpt lat="44.776003601090046" lon="9.313641882562933"><ele>1189.0</ele><time>2026-05-01T15:37:03Z</time></trkpt><trkpt lat="44.77610077835045" lon="9.313659933211932"><ele>1189.0</ele><time>2026-05-01T15:37:04Z</time></trkpt><trkpt lat="44.77621221222339" lon="9.313710752185775"><ele>1189.0</ele><time>2026-05-01T15:37:05Z</time></trkpt><trkpt lat="44.77631204974637" lon="9.313742439721947"><ele>1191.5</ele><time>2026-05-01T15:37:06Z</time></trkpt><trkpt lat="44.77640054218475" lon="9.31377530489671"><ele>1194.0</ele><time>2026-05-01T15:37:07Z</time></trkpt><trkpt lat="44.77647886031249" lon="9.313808606863065"><ele>1196.5</ele><time>2026-05-01T15:37:08Z</time></trkpt><trkpt lat="44.77654559023194" lon="9.313822866569456"><ele>1199.0</ele><time>2026-05-01T15:37:09Z</time></trkpt><trkpt lat="44.77659750913157" lon="9.313886141199161"><ele>1201.5</ele><time>2026-05-01T15:37:10Z</time></trkpt><trkpt lat="44.776660176273936" lon="9.313947757536459"><ele>1204.0</ele><time>2026-05-01T15:37:11Z</time></trkpt><trkpt lat="44.77671971016424" lon="9.314047382828718"><ele>1199.6666666666665</ele><time>2026-05-01T15:37:12Z</time></trkpt><trkpt lat="44.77676089341042" lon="9.314127208512858"><ele>1195.3333333333333</ele><time>2026-05-01T15:37:13Z</time></trkpt><trkpt lat="44.77681717465093" lon="9.314263324221365"><ele>1191.0</ele><time>2026-05-01T15:37:15Z</time></trkpt><trkpt lat="44.776864288565136" lon="9.314325407478234"><ele>1186.6666666666667</ele><time>2026-05-01T15:37:16Z</time></trkpt><trkpt lat="44.776925929114526" lon="9.31437466644977"><ele>1182.3333333333335</ele><time>2026-05-01T15:37:17Z</time></trkpt><trkpt lat="44.777035794402174" lon="9.314389186176559"><ele>1178.0</ele><time>2026-05-01T15:37:18Z</time></trkpt><trkpt lat="44.77711263688922" lon="9.314382380007622"><ele>1178.0</ele><time>2026-05-01T15:37:19Z</time></trkpt><trkpt lat="44.77718898242639" lon="9.314374683624086"><ele>1178.0</ele><time>2026-05-01T15:37:20Z</time></trkpt><trkpt lat="44.7772751104187" lon="9.314381054538503"><ele>1178.0</ele><time>2026-05-01T15:37:21Z</time></trkpt><trkpt lat="44.777364335166546" lon="9.314379869079335"><ele>1178.0</ele><time>2026-05-01T15:37:22Z</time></trkpt><trkpt lat="44.77744136120553" lon="9.314382110001436"><ele>1178.0</ele><time>2026-05-01T15:37:23Z</time></trkpt><trkpt lat="44.77752406738175" lon="9.314420640279382"><ele>1178.0</ele><time>2026-05-01T15:37:24Z</time></trkpt><trkpt lat="44.7776405356886" lon="9.314463784870666"><ele>1182.2</ele><time>2026-05-01T15:37:26Z</time></trkpt><trkpt lat="44.77773988548817" lon="9.314552076918153"><ele>1186.4</ele><time>2026-05-01T15:37:28Z</time></trkpt><trkpt lat="44.7778199403328" lon="9.314680029123398"><ele>1190.6000000000001</ele><time>2026-05-01T15:37:30Z</time></trkpt><trkpt lat="44.77789226009765" lon="9.314817612399493"><ele>1194.8</ele><time>2026-05-01T15:37:32Z</time></trkpt><trkpt lat="44.77794672549913" lon="9.314898768117152"><ele>1199.0</ele><time>2026-05-01T15:37:33Z</time></trkpt><trkpt lat="44.777979408523976" lon="9.31500931654497"><ele>1199.0</ele><time>2026-05-01T15:37:34Z</time></trkpt><trkpt lat="44.77800620314018" lon="9.315098164271543"><ele>1199.0</ele><time>2026-05-01T15:37:35Z</time></trkpt><trkpt lat="44.77802362279708" lon="9.315266160423695"><ele>1199.0</ele><time>2026-05-01T15:37:37Z</time></trkpt><trkpt lat="44.77802723277997" lon="9.315452209697"><ele>1199.0</ele><time>2026-05-01T15:37:39Z</time></trkpt><trkpt lat="44.77800616065942" lon="9.315578911527938"><ele>1199.0</ele><time>2026-05-01T15:37:40Z</time></trkpt><trkpt lat="44.778008825431314" lon="9.315689368270787"><ele>1197.1666666666667</ele><time>2026-05-01T15:37:41Z</time></trkpt><trkpt lat="44.778010860847154" lon="9.315806673572872"><ele>1195.3333333333335</ele><time>2026-05-01T15:37:42Z</time></trkpt><trkpt lat="44.77799413830166" lon="9.315902885249741"><ele>1193.5</ele><time>2026-05-01T15:37:43Z</time></trkpt><trkpt lat="44.777981782504376" lon="9.316054334994769"><ele>1191.6666666666667</ele><time>2026-05-01T15:37:45Z</time></trkpt><trkpt lat="44.77798485120207" lon="9.31614959905951"><ele>1189.8333333333333</ele><time>2026-05-01T15:37:46Z</time></trkpt><trkpt lat="44.77799813586891" lon="9.316250450694392"><ele>1188.0</ele><time>2026-05-01T15:37:47Z</time></trkpt><trkpt lat="44.77800656898608" lon="9.316358182154143"><ele>1186.857142857143</ele><time>2026-05-01T15:37:48Z</time></trkpt><trkpt lat="44.77802938356057" lon="9.31645442448128"><ele>1185.7142857142858</ele><time>2026-05-01T15:37:49Z</time></trkpt><trkpt lat="44.77804915012225" lon="9.316541446313236"><ele>1184.5714285714287</ele><time>2026-05-01T15:37:50Z</time></trkpt><trkpt lat="44.77807733953022" lon="9.316633118330756"><ele>1183.4285714285716</ele><time>2026-05-01T15:37:51Z</time></trkpt><trkpt lat="44.77811510442022" lon="9.316715522717013"><ele>1182.2857142857142</ele><time>2026-05-01T15:37:52Z</time></trkpt><trkpt lat="44.778161303945005" lon="9.316806302805698"><ele>1181.1428571428573</ele><time>2026-05-01T15:37:53Z</time></trkpt><trkpt lat="44.778213520167505" lon="9.316911554086802"><ele>1180.0</ele><time>2026-05-01T15:37:54Z</time></trkpt><trkpt lat="44.778246129938545" lon="9.31700292939212"><ele>1180.0</ele><time>2026-05-01T15:37:55Z</time></trkpt><trkpt lat="44.77826559412237" lon="9.317108261025801"><ele>1180.0</ele><time>2026-05-01T15:37:56Z</time></trkpt><trkpt lat="44.77828044440161" lon="9.317214580529855"><ele>1180.0</ele><time>2026-05-01T15:37:57Z</time></trkpt><trkpt lat="44.77830767134366" lon="9.31733595064851"><ele>1180.0</ele><time>2026-05-01T15:37:58.001Z</time></trkpt><trkpt lat="44.77834224281737" lon="9.317449939618308"><ele>1180.0</ele><time>2026-05-01T15:38:00.001Z</time></trkpt><trkpt lat="44.77835057470697" lon="9.317577844497881"><ele>1180.0</ele><time>2026-05-01T15:38:04.001Z</time></trkpt><trkpt lat="44.778384514441605" lon="9.317727454453545"><ele>1179.4285714285716</ele><time>2026-05-01T15:38:06.001Z</time></trkpt><trkpt lat="44.77837191995845" lon="9.31783488794545"><ele>1178.857142857143</ele><time>2026-05-01T15:38:07.001Z</time></trkpt><trkpt lat="44.77837091688362" lon="9.317939370082946"><ele>1178.2857142857142</ele><time>2026-05-01T15:38:08.001Z</time></trkpt><trkpt lat="44.77836559578277" lon="9.318045268518627"><ele>1177.7142857142858</ele><time>2026-05-01T15:38:09.001Z</time></trkpt><trkpt lat="44.778352919414594" lon="9.318145859098378"><ele>1177.142857142857</ele><time>2026-05-01T15:38:10.001Z</time></trkpt><trkpt lat="44.77833366476659" lon="9.318233352038382"><ele>1176.5714285714287</ele><time>2026-05-01T15:38:11.001Z</time></trkpt><trkpt lat="44.7783249562026" lon="9.318330359023793"><ele>1176.0</ele><time>2026-05-01T15:38:12.001Z</time></trkpt><trkpt lat="44.77830360289031" lon="9.318415753271307"><ele>1176.0</ele><time>2026-05-01T15:38:13.001Z</time></trkpt><trkpt lat="44.77827513126574" lon="9.318567804471419"><ele>1176.0</ele><time>2026-05-01T15:38:15.001Z</time></trkpt><trkpt lat="44.778281910449756" lon="9.318701885191222"><ele>1176.0</ele><time>2026-05-01T15:38:17.001Z</time></trkpt><trkpt lat="44.77828023148797" lon="9.318803444618792"><ele>1176.0</ele><time>2026-05-01T15:38:18.001Z</time></trkpt><trkpt lat="44.77827722179644" lon="9.318972886415706"><ele>1176.0</ele><time>2026-05-01T15:38:20.001Z</time></trkpt><trkpt lat="44.77828382398046" lon="9.319087792029023"><ele>1175.857142857143</ele><time>2026-05-01T15:38:21.001Z</time></trkpt><trkpt lat="44.77829480873809" lon="9.319180569378991"><ele>1175.7142857142858</ele><time>2026-05-01T15:38:22.001Z</time></trkpt><trkpt lat="44.77833135235854" lon="9.319271842225888"><ele>1175.5714285714284</ele><time>2026-05-01T15:38:23.001Z</time></trkpt><trkpt lat="44.77835257809925" lon="9.319374586571058"><ele>1175.4285714285716</ele><time>2026-05-01T15:38:24.001Z</time></trkpt><trkpt lat="44.77838084935092" lon="9.319458863704057"><ele>1175.2857142857142</ele><time>2026-05-01T15:38:25.001Z</time></trkpt><trkpt lat="44.77839088347" lon="9.319563404402288"><ele>1175.142857142857</ele><time>2026-05-01T15:38:26.001Z</time></trkpt><trkpt lat="44.778411803683085" lon="9.319659779904365"><ele>1175.0</ele><time>2026-05-01T15:38:27.001Z</time></trkpt><trkpt lat="44.778431070405624" lon="9.319756939904853"><ele>1173.5</ele><time>2026-05-01T15:38:28.001Z</time></trkpt><trkpt lat="44.77845143092133" lon="9.319866878245845"><ele>1172.0</ele><time>2026-05-01T15:38:29.001Z</time></trkpt><trkpt lat="44.77847002156366" lon="9.319984879243497"><ele>1170.5</ele><time>2026-05-01T15:38:30.001Z</time></trkpt><trkpt lat="44.7784948488816" lon="9.320069898337163"><ele>1169.0</ele><time>2026-05-01T15:38:31.001Z</time></trkpt><trkpt lat="44.7785197521354" lon="9.320205134925512"><ele>1167.5</ele><time>2026-05-01T15:38:32.001Z</time></trkpt><trkpt lat="44.77854773064251" lon="9.32032402019514"><ele>1166.0</ele><time>2026-05-01T15:38:33.001Z</time></trkpt><trkpt lat="44.77855706616606" lon="9.320447429843137"><ele>1174.6666666666667</ele><time>2026-05-01T15:38:34.001Z</time></trkpt><trkpt lat="44.77856982108722" lon="9.320549571163742"><ele>1183.3333333333335</ele><time>2026-05-01T15:38:35.001Z</time></trkpt><trkpt lat="44.778589405593145" lon="9.320637305539114"><ele>1192.0</ele><time>2026-05-01T15:38:36.001Z</time></trkpt><trkpt lat="44.77857935687774" lon="9.320756466479546"><ele>1200.6666666666667</ele><time>2026-05-01T15:38:37.001Z</time></trkpt><trkpt lat="44.77856790537293" lon="9.320867454767379"><ele>1209.3333333333333</ele><time>2026-05-01T15:38:38.001Z</time></trkpt><trkpt lat="44.778559356671934" lon="9.32097888673927"><ele>1218.0</ele><time>2026-05-01T15:38:39.001Z</time></trkpt><trkpt lat="44.778549796383714" lon="9.321095333968726"><ele>1218.0</ele><time>2026-05-01T15:38:40.001Z</time></trkpt><trkpt lat="44.77855638384123" lon="9.32121165167941"><ele>1218.0</ele><time>2026-05-01T15:38:41.001Z</time></trkpt><trkpt lat="44.77853987821287" lon="9.321306830848805"><ele>1218.0</ele><time>2026-05-01T15:38:42.001Z</time></trkpt><trkpt lat="44.77853267269946" lon="9.321428842699635"><ele>1218.0</ele><time>2026-05-01T15:38:43.001Z</time></trkpt><trkpt lat="44.77850906638985" lon="9.321582987447297"><ele>1218.0</ele><time>2026-05-01T15:38:45.001Z</time></trkpt><trkpt lat="44.77849735130448" lon="9.32173394014503"><ele>1214.6</ele><time>2026-05-01T15:38:47.001Z</time></trkpt><trkpt lat="44.77852232958452" lon="9.321858936255197"><ele>1211.1999999999998</ele><time>2026-05-01T15:38:49.001Z</time></trkpt><trkpt lat="44.778564599998866" lon="9.321947139171746"><ele>1207.8</ele><time>2026-05-01T15:38:51.001Z</time></trkpt><trkpt lat="44.77866563953385" lon="9.322062924455283"><ele>1204.3999999999999</ele><time>2026-05-01T15:38:53.001Z</time></trkpt><trkpt lat="44.77871934282971" lon="9.32213537921688"><ele>1201.0</ele><time>2026-05-01T15:38:54.001Z</time></trkpt><trkpt lat="44.77882312617802" lon="9.32224299000044"><ele>1197.1666666666665</ele><time>2026-05-01T15:38:56.001Z</time></trkpt><trkpt lat="44.77888890993061" lon="9.32228764138216"><ele>1193.3333333333333</ele><time>2026-05-01T15:38:57.001Z</time></trkpt><trkpt lat="44.778947144881435" lon="9.322348389979597"><ele>1189.5</ele><time>2026-05-01T15:38:58.001Z</time></trkpt><trkpt lat="44.778996247774565" lon="9.322422506842052"><ele>1185.6666666666667</ele><time>2026-05-01T15:38:59.001Z</time></trkpt><trkpt lat="44.779051886511795" lon="9.32247013258661"><ele>1181.8333333333335</ele><time>2026-05-01T15:39:00.001Z</time></trkpt><trkpt lat="44.7791093493629" lon="9.322512255685124"><ele>1178.0</ele><time>2026-05-01T15:39:01.001Z</time></trkpt><trkpt lat="44.779227740005126" lon="9.322584110010864"><ele>1178.0</ele><time>2026-05-01T15:39:03.001Z</time></trkpt><trkpt lat="44.77930091534846" lon="9.322622254960827"><ele>1178.0</ele><time>2026-05-01T15:39:04.001Z</time></trkpt><trkpt lat="44.77938283519552" lon="9.32265834046169"><ele>1178.0</ele><time>2026-05-01T15:39:05Z</time></trkpt><trkpt lat="44.77948178781632" lon="9.322693382418333"><ele>1178.0</ele><time>2026-05-01T15:39:06Z</time></trkpt><trkpt lat="44.77957772484381" lon="9.322719521179028"><ele>1178.0</ele><time>2026-05-01T15:39:07Z</time></trkpt><trkpt lat="44.77966475615853" lon="9.322736419548102"><ele>1179.6666666666667</ele><time>2026-05-01T15:39:08Z</time></trkpt><trkpt lat="44.779749578245664" lon="9.32274748284068"><ele>1181.3333333333335</ele><time>2026-05-01T15:39:10Z</time></trkpt><trkpt lat="44.7798146435611" lon="9.32275006537041"><ele>1183.0</ele><time>2026-05-01T15:39:11Z</time></trkpt><trkpt lat="44.77988021810338" lon="9.322748562638974"><ele>1184.6666666666667</ele><time>2026-05-01T15:39:12Z</time></trkpt><trkpt lat="44.77996199398314" lon="9.322738232902253"><ele>1186.3333333333333</ele><time>2026-05-01T15:39:14Z</time></trkpt><trkpt lat="44.78003405989174" lon="9.322734063105464"><ele>1188.0</ele><time>2026-05-01T15:39:15Z</time></trkpt><trkpt lat="44.780120905250016" lon="9.322663315576026"><ele>1186.0</ele><time>2026-05-01T15:39:17Z</time></trkpt><trkpt lat="44.780195920097434" lon="9.322584899330398"><ele>1184.0</ele><time>2026-05-01T15:39:18Z</time></trkpt><trkpt lat="44.78025357229667" lon="9.322539865241986"><ele>1182.0</ele><time>2026-05-01T15:39:19Z</time></trkpt><trkpt lat="44.78036206779053" lon="9.322463865475122"><ele>1180.0</ele><time>2026-05-01T15:39:21Z</time></trkpt><trkpt lat="44.78043103813661" lon="9.322431946253783"><ele>1178.0</ele><time>2026-05-01T15:39:22Z</time></trkpt><trkpt lat="44.780511776925955" lon="9.322408004267754"><ele>1176.0</ele><time>2026-05-01T15:39:23Z</time></trkpt><trkpt lat="44.780580479826" lon="9.322393877023934"><ele>1176.0</ele><time>2026-05-01T15:39:24Z</time></trkpt><trkpt lat="44.78065607895282" lon="9.32235554691563"><ele>1176.0</ele><time>2026-05-01T15:39:25Z</time></trkpt><trkpt lat="44.78074414280833" lon="9.322347673730599"><ele>1176.0</ele><time>2026-05-01T15:39:26Z</time></trkpt><trkpt lat="44.78082462925946" lon="9.32233117299232"><ele>1176.0</ele><time>2026-05-01T15:39:27Z</time></trkpt><trkpt lat="44.78089365748406" lon="9.322307858190404"><ele>1176.0</ele><time>2026-05-01T15:39:28Z</time></trkpt><trkpt lat="44.781025502506296" lon="9.32229223600434"><ele>1176.5</ele><time>2026-05-01T15:39:30Z</time></trkpt><trkpt lat="44.78111274489922" lon="9.32227290970219"><ele>1177.0</ele><time>2026-05-01T15:39:31Z</time></trkpt><trkpt lat="44.78119115571411" lon="9.322256391656122"><ele>1177.5</ele><time>2026-05-01T15:39:32Z</time></trkpt><trkpt lat="44.781257306576514" lon="9.322243336128606"><ele>1178.0</ele><time>2026-05-01T15:39:33Z</time></trkpt><trkpt lat="44.781328329828575" lon="9.322210995378875"><ele>1178.5</ele><time>2026-05-01T15:39:34Z</time></trkpt><trkpt lat="44.78141796435291" lon="9.32221220962371"><ele>1179.0</ele><time>2026-05-01T15:39:35Z</time></trkpt><trkpt lat="44.78148608038046" lon="9.322199481612671"><ele>1188.4</ele><time>2026-05-01T15:39:36Z</time></trkpt><trkpt lat="44.78160592401617" lon="9.322165322470275"><ele>1197.8000000000002</ele><time>2026-05-01T15:39:38Z</time></trkpt><trkpt lat="44.781727699056425" lon="9.322167765288281"><ele>1207.1999999999998</ele><time>2026-05-01T15:39:39Z</time></trkpt><trkpt lat="44.781807861727195" lon="9.32216469943355"><ele>1216.6</ele><time>2026-05-01T15:39:40Z</time></trkpt><trkpt lat="44.781932647494436" lon="9.322170028037112"><ele>1226.0</ele><time>2026-05-01T15:39:42Z</time></trkpt><trkpt lat="44.782001040907836" lon="9.32217904192448"><ele>1226.6666666666667</ele><time>2026-05-01T15:39:43Z</time></trkpt><trkpt lat="44.782066287406295" lon="9.32218873047384"><ele>1227.3333333333335</ele><time>2026-05-01T15:39:44Z</time></trkpt><trkpt lat="44.78213199845515" lon="9.322180378792822"><ele>1228.0</ele><time>2026-05-01T15:39:45Z</time></trkpt><trkpt lat="44.78223372567302" lon="9.322204728181932"><ele>1228.6666666666667</ele><time>2026-05-01T15:39:47Z</time></trkpt><trkpt lat="44.78230221206002" lon="9.322213959976308"><ele>1229.3333333333333</ele><time>2026-05-01T15:39:48.001Z</time></trkpt><trkpt lat="44.782381764518185" lon="9.322250136543023"><ele>1230.0</ele><time>2026-05-01T15:39:49.001Z</time></trkpt><trkpt lat="44.78247339194966" lon="9.32226958016255"><ele>1225.142857142857</ele><time>2026-05-01T15:39:51.001Z</time></trkpt><trkpt lat="44.782554893310866" lon="9.322296543246665"><ele>1220.2857142857144</ele><time>2026-05-01T15:39:52.001Z</time></trkpt><trkpt lat="44.78261752955908" lon="9.322317309315517"><ele>1215.4285714285716</ele><time>2026-05-01T15:39:53.001Z</time></trkpt><trkpt lat="44.782679766525845" lon="9.322361030841357"><ele>1210.5714285714284</ele><time>2026-05-01T15:39:54.001Z</time></trkpt><trkpt lat="44.782748537486164" lon="9.322421986889955"><ele>1205.7142857142858</ele><time>2026-05-01T15:39:55.001Z</time></trkpt><trkpt lat="44.78280179892208" lon="9.322471124050045"><ele>1200.857142857143</ele><time>2026-05-01T15:39:56.001Z</time></trkpt><trkpt lat="44.78285837705456" lon="9.322519573750343"><ele>1196.0</ele><time>2026-05-01T15:39:57.001Z</time></trkpt><trkpt lat="44.78291402562066" lon="9.32256722746757"><ele>1196.0</ele><time>2026-05-01T15:39:58.001Z</time></trkpt><trkpt lat="44.78298767877721" lon="9.322610537090748"><ele>1196.0</ele><time>2026-05-01T15:39:59.001Z</time></trkpt><trkpt lat="44.78304824641761" lon="9.322663769418282"><ele>1196.0</ele><time>2026-05-01T15:40:00.001Z</time></trkpt><trkpt lat="44.78314697598288" lon="9.32272526072422"><ele>1196.0</ele><time>2026-05-01T15:40:02.001Z</time></trkpt><trkpt lat="44.783212033871436" lon="9.322754511290574"><ele>1196.0</ele><time>2026-05-01T15:40:03.001Z</time></trkpt><trkpt lat="44.78330483009074" lon="9.322785019504254"><ele>1196.0</ele><time>2026-05-01T15:40:04.001Z</time></trkpt><trkpt lat="44.78337325484133" lon="9.322828934791962"><ele>1196.0</ele><time>2026-05-01T15:40:05.001Z</time></trkpt><trkpt lat="44.783446293069915" lon="9.322856264928236"><ele>1196.0</ele><time>2026-05-01T15:40:06.001Z</time></trkpt><trkpt lat="44.783522879732125" lon="9.322883309356786"><ele>1196.0</ele><time>2026-05-01T15:40:07.001Z</time></trkpt><trkpt lat="44.783593457912126" lon="9.322902957476456"><ele>1196.0</ele><time>2026-05-01T15:40:08.001Z</time></trkpt><trkpt lat="44.78366352089563" lon="9.322908321907555"><ele>1196.0</ele><time>2026-05-01T15:40:09.001Z</time></trkpt><trkpt lat="44.78373427392777" lon="9.322912362129646"><ele>1196.0</ele><time>2026-05-01T15:40:10.001Z</time></trkpt><trkpt lat="44.78385345849065" lon="9.322924862001727"><ele>1198.142857142857</ele><time>2026-05-01T15:40:12.001Z</time></trkpt><trkpt lat="44.78393291435808" lon="9.322913748288379"><ele>1200.2857142857142</ele><time>2026-05-01T15:40:13.001Z</time></trkpt><trkpt lat="44.78399731973458" lon="9.32290879539642"><ele>1202.4285714285716</ele><time>2026-05-01T15:40:14.001Z</time></trkpt><trkpt lat="44.784063647222425" lon="9.322885924276582"><ele>1204.5714285714284</ele><time>2026-05-01T15:40:15.001Z</time></trkpt><trkpt lat="44.784145815726724" lon="9.322899823097538"><ele>1206.7142857142858</ele><time>2026-05-01T15:40:16.001Z</time></trkpt><trkpt lat="44.784217886348436" lon="9.322917189451271"><ele>1208.857142857143</ele><time>2026-05-01T15:40:17.001Z</time></trkpt><trkpt lat="44.7842903888683" lon="9.322934852477836"><ele>1211.0</ele><time>2026-05-01T15:40:18.001Z</time></trkpt><trkpt lat="44.784414134160365" lon="9.322966785235158"><ele>1207.0</ele><time>2026-05-01T15:40:20.001Z</time></trkpt><trkpt lat="44.78448069028224" lon="9.323029342674847"><ele>1203.0</ele><time>2026-05-01T15:40:21.001Z</time></trkpt><trkpt lat="44.78455137652307" lon="9.323074792625974"><ele>1199.0</ele><time>2026-05-01T15:40:22.001Z</time></trkpt><trkpt lat="44.784625292127906" lon="9.32312474327581"><ele>1195.0</ele><time>2026-05-01T15:40:23.001Z</time></trkpt><trkpt lat="44.78470413004226" lon="9.32316165875385"><ele>1191.0</ele><time>2026-05-01T15:40:24.001Z</time></trkpt><trkpt lat="44.784797061757274" lon="9.32322285512486"><ele>1187.0</ele><time>2026-05-01T15:40:25.001Z</time></trkpt><trkpt lat="44.78487863740961" lon="9.323304629461546"><ele>1187.0</ele><time>2026-05-01T15:40:26.001Z</time></trkpt><trkpt lat="44.78494995973887" lon="9.32336183546321"><ele>1187.0</ele><time>2026-05-01T15:40:27.001Z</time></trkpt><trkpt lat="44.785020862218715" lon="9.323424096519611"><ele>1187.0</ele><time>2026-05-01T15:40:28.001Z</time></trkpt><trkpt lat="44.78507665055685" lon="9.323476693333932"><ele>1187.0</ele><time>2026-05-01T15:40:29.001Z</time></trkpt><trkpt lat="44.78516967204499" lon="9.323568331434311"><ele>1187.0</ele><time>2026-05-01T15:40:31.001Z</time></trkpt><trkpt lat="44.78528220932488" lon="9.32368454926601"><ele>1187.1666666666667</ele><time>2026-05-01T15:40:33.001Z</time></trkpt><trkpt lat="44.785339916032996" lon="9.323726147026024"><ele>1187.3333333333335</ele><time>2026-05-01T15:40:34.001Z</time></trkpt><trkpt lat="44.78539585970944" lon="9.323792436512443"><ele>1187.5</ele><time>2026-05-01T15:40:35.001Z</time></trkpt><trkpt lat="44.7854900126328" lon="9.323930669236091"><ele>1187.6666666666667</ele><time>2026-05-01T15:40:37.001Z</time></trkpt><trkpt lat="44.785571098105585" lon="9.324003347539016"><ele>1187.8333333333333</ele><time>2026-05-01T15:40:38.001Z</time></trkpt><trkpt lat="44.78562023406317" lon="9.324068732693904"><ele>1188.0</ele><time>2026-05-01T15:40:39.001Z</time></trkpt><trkpt lat="44.78569383920584" lon="9.324203733940067"><ele>1188.0</ele><time>2026-05-01T15:40:41.001Z</time></trkpt><trkpt lat="44.78572045483868" lon="9.324314693910596"><ele>1188.0</ele><time>2026-05-01T15:40:43.001Z</time></trkpt><trkpt lat="44.785721168258526" lon="9.324436928653355"><ele>1188.0</ele><time>2026-05-01T15:40:45.001Z</time></trkpt><trkpt lat="44.78573103636684" lon="9.32458282910092"><ele>1188.0</ele><time>2026-05-01T15:40:47.001Z</time></trkpt><trkpt lat="44.78573710188109" lon="9.324703610306615"><ele>1188.0</ele><time>2026-05-01T15:40:48.001Z</time></trkpt><trkpt lat="44.78575534038895" lon="9.32484562666834"><ele>1186.3333333333333</ele><time>2026-05-01T15:40:50.001Z</time></trkpt><trkpt lat="44.78577518296285" lon="9.324931402062735"><ele>1184.6666666666667</ele><time>2026-05-01T15:40:51.001Z</time></trkpt><trkpt lat="44.785818701018" lon="9.325078063910542"><ele>1183.0</ele><time>2026-05-01T15:40:53.001Z</time></trkpt><trkpt lat="44.78584964020768" lon="9.325155828329203"><ele>1181.3333333333335</ele><time>2026-05-01T15:40:54.001Z</time></trkpt><trkpt lat="44.785893444836354" lon="9.32522833107751"><ele>1179.6666666666667</ele><time>2026-05-01T15:40:55.001Z</time></trkpt><trkpt lat="44.78594787519463" lon="9.32529633133534"><ele>1178.0</ele><time>2026-05-01T15:40:56.001Z</time></trkpt><trkpt lat="44.78600194214276" lon="9.325365977736844"><ele>1181.0</ele><time>2026-05-01T15:40:57.001Z</time></trkpt><trkpt lat="44.78605638925652" lon="9.32544249810792"><ele>1184.0</ele><time>2026-05-01T15:40:58.001Z</time></trkpt><trkpt lat="44.786116110932724" lon="9.325532867480396"><ele>1187.0</ele><time>2026-05-01T15:40:59.001Z</time></trkpt><trkpt lat="44.786179243955516" lon="9.325630555522565"><ele>1190.0</ele><time>2026-05-01T15:41:00.001Z</time></trkpt><trkpt lat="44.78623272910143" lon="9.32571616160022"><ele>1193.0</ele><time>2026-05-01T15:41:01.001Z</time></trkpt><trkpt lat="44.786279451113764" lon="9.325801284291098"><ele>1196.0</ele><time>2026-05-01T15:41:02.001Z</time></trkpt><trkpt lat="44.78631315400149" lon="9.325887063227022"><ele>1196.0</ele><time>2026-05-01T15:41:03.001Z</time></trkpt><trkpt lat="44.786335533089826" lon="9.32597071069651"><ele>1196.0</ele><time>2026-05-01T15:41:04.001Z</time></trkpt><trkpt lat="44.78634273354244" lon="9.326074531763826"><ele>1196.0</ele><time>2026-05-01T15:41:06.001Z</time></trkpt><trkpt lat="44.78633442534955" lon="9.326237633547144"><ele>1196.0</ele><time>2026-05-01T15:41:08.001Z</time></trkpt><trkpt lat="44.78632935428154" lon="9.326347168024665"><ele>1196.0</ele><time>2026-05-01T15:41:09.001Z</time></trkpt><trkpt lat="44.786335863387585" lon="9.326488908624443"><ele>1196.0</ele><time>2026-05-01T15:41:11Z</time></trkpt><trkpt lat="44.78641752759957" lon="9.326596308815551"><ele>1192.3999999999999</ele><time>2026-05-01T15:41:13Z</time></trkpt><trkpt lat="44.786495633796974" lon="9.326578001884991"><ele>1188.8</ele><time>2026-05-01T15:41:14Z</time></trkpt><trkpt lat="44.78661765887467" lon="9.326573820725782"><ele>1185.1999999999998</ele><time>2026-05-01T15:41:16Z</time></trkpt><trkpt lat="44.78672798276718" lon="9.326543316280608"><ele>1181.6</ele><time>2026-05-01T15:41:18Z</time></trkpt><trkpt lat="44.786847863093264" lon="9.326485061588771"><ele>1178.0</ele><time>2026-05-01T15:41:20Z</time></trkpt><trkpt lat="44.786926119184784" lon="9.32647713413325"><ele>1176.2</ele><time>2026-05-01T15:41:21Z</time></trkpt><trkpt lat="44.78701876796195" lon="9.32642063724646"><ele>1174.4</ele><time>2026-05-01T15:41:23Z</time></trkpt><trkpt lat="44.78712789788035" lon="9.326401941461693"><ele>1172.6000000000001</ele><time>2026-05-01T15:41:25Z</time></trkpt><trkpt lat="44.78723128009293" lon="9.32634268817016"><ele>1170.8</ele><time>2026-05-01T15:41:27Z</time></trkpt><trkpt lat="44.78729233183605" lon="9.326306467771827"><ele>1169.0</ele><time>2026-05-01T15:41:28Z</time></trkpt><trkpt lat="44.787366859899016" lon="9.326231964612811"><ele>1172.8</ele><time>2026-05-01T15:41:29Z</time></trkpt><trkpt lat="44.78747375650699" lon="9.32616794549945"><ele>1176.6000000000001</ele><time>2026-05-01T15:41:31Z</time></trkpt><trkpt lat="44.78753491936895" lon="9.326117814601497"><ele>1180.4</ele><time>2026-05-01T15:41:33Z</time></trkpt><trkpt lat="44.78760126272304" lon="9.32605281529539"><ele>1184.2</ele><time>2026-05-01T15:41:35Z</time></trkpt><trkpt lat="44.787702367389734" lon="9.325974663765795"><ele>1188.0</ele><time>2026-05-01T15:41:36Z</time></trkpt><trkpt lat="44.78775932801891" lon="9.325922509762501"><ele>1188.0</ele><time>2026-05-01T15:41:37Z</time></trkpt><trkpt lat="44.7878603055172" lon="9.325838154944549"><ele>1188.0</ele><time>2026-05-01T15:41:39Z</time></trkpt><trkpt lat="44.78794336325838" lon="9.325786511771609"><ele>1188.0</ele><time>2026-05-01T15:41:40Z</time></trkpt><trkpt lat="44.788010734945814" lon="9.325755143726907"><ele>1188.0</ele><time>2026-05-01T15:41:41Z</time></trkpt><trkpt lat="44.78810471154866" lon="9.32571657352655"><ele>1188.0</ele><time>2026-05-01T15:41:43Z</time></trkpt><trkpt lat="44.78816836742906" lon="9.325700645619353"><ele>1188.0</ele><time>2026-05-01T15:41:44Z</time></trkpt><trkpt lat="44.788318138648926" lon="9.325663445609571"><ele>1188.0</ele><time>2026-05-01T15:41:45Z</time></trkpt><trkpt lat="44.78841186959096" lon="9.32567031929913"><ele>1188.0</ele><time>2026-05-01T15:41:46Z</time></trkpt><trkpt lat="44.788506223149504" lon="9.325646927173691"><ele>1188.0</ele><time>2026-05-01T15:41:47Z</time></trkpt><trkpt lat="44.78859445016805" lon="9.325643235169638"><ele>1188.0</ele><time>2026-05-01T15:41:48Z</time></trkpt><trkpt lat="44.78867147018283" lon="9.325641257555205"><ele>1188.0</ele><time>2026-05-01T15:41:49Z</time></trkpt><trkpt lat="44.78874797915976" lon="9.325634380713554"><ele>1188.0</ele><time>2026-05-01T15:41:50Z</time></trkpt><trkpt lat="44.78883818038469" lon="9.325623416257745"><ele>1187.5</ele><time>2026-05-01T15:41:51Z</time></trkpt><trkpt lat="44.78892112099001" lon="9.325628899072075"><ele>1187.0</ele><time>2026-05-01T15:41:52Z</time></trkpt><trkpt lat="44.78898309384994" lon="9.325588768562271"><ele>1186.5</ele><time>2026-05-01T15:41:53Z</time></trkpt><trkpt lat="44.78906953524857" lon="9.3255701181056"><ele>1186.0</ele><time>2026-05-01T15:41:54Z</time></trkpt><trkpt lat="44.78919840986567" lon="9.325543998086278"><ele>1185.5</ele><time>2026-05-01T15:41:56Z</time></trkpt><trkpt lat="44.78927489052687" lon="9.325543935010932"><ele>1185.0</ele><time>2026-05-01T15:41:57Z</time></trkpt><trkpt lat="44.78936908421776" lon="9.325550558083814"><ele>1185.0</ele><time>2026-05-01T15:41:58Z</time></trkpt><trkpt lat="44.78944143672866" lon="9.325556463025697"><ele>1185.0</ele><time>2026-05-01T15:41:59Z</time></trkpt><trkpt lat="44.789516539499964" lon="9.325547264043292"><ele>1185.0</ele><time>2026-05-01T15:42:00Z</time></trkpt><trkpt lat="44.789626713539306" lon="9.325560184725362"><ele>1185.0</ele><time>2026-05-01T15:42:01Z</time></trkpt><trkpt lat="44.78976694754157" lon="9.325558325219433"><ele>1185.0</ele><time>2026-05-01T15:42:02Z</time></trkpt><trkpt lat="44.78986259423494" lon="9.325595868537526"><ele>1185.0</ele><time>2026-05-01T15:42:03Z</time></trkpt><trkpt lat="44.78992704851411" lon="9.32562519703865"><ele>1185.0</ele><time>2026-05-01T15:42:04Z</time></trkpt><trkpt lat="44.789986101905924" lon="9.325662231138164"><ele>1185.0</ele><time>2026-05-01T15:42:05Z</time></trkpt><trkpt lat="44.790088874461176" lon="9.325673785552787"><ele>1185.0</ele><time>2026-05-01T15:42:07Z</time></trkpt><trkpt lat="44.790195410148144" lon="9.325657923612981"><ele>1185.0</ele><time>2026-05-01T15:42:09Z</time></trkpt><trkpt lat="44.790292476134134" lon="9.325680591441792"><ele>1185.0</ele><time>2026-05-01T15:42:11.001Z</time></trkpt><trkpt lat="44.79035701963988" lon="9.325712520351983"><ele>1190.6</ele><time>2026-05-01T15:42:12.001Z</time></trkpt><trkpt lat="44.79047865594519" lon="9.32581107938844"><ele>1196.2</ele><time>2026-05-01T15:42:14.001Z</time></trkpt><trkpt lat="44.79055153019645" lon="9.325877425593196"><ele>1201.8</ele><time>2026-05-01T15:42:15.001Z</time></trkpt><trkpt lat="44.790612444390305" lon="9.325971289748557"><ele>1207.4</ele><time>2026-05-01T15:42:16.001Z</time></trkpt><trkpt lat="44.79067959917002" lon="9.326059807663308"><ele>1213.0</ele><time>2026-05-01T15:42:17.001Z</time></trkpt><trkpt lat="44.79074738097325" lon="9.326158873966946"><ele>1213.0</ele><time>2026-05-01T15:42:18.001Z</time></trkpt><trkpt lat="44.79080479400794" lon="9.326243310245637"><ele>1213.0</ele><time>2026-05-01T15:42:19.001Z</time></trkpt><trkpt lat="44.79089134850401" lon="9.326336840877715"><ele>1213.0</ele><time>2026-05-01T15:42:20.001Z</time></trkpt><trkpt lat="44.79094430631865" lon="9.32642653450659"><ele>1213.0</ele><time>2026-05-01T15:42:21.001Z</time></trkpt><trkpt lat="44.79102063160854" lon="9.32648413676866"><ele>1213.0</ele><time>2026-05-01T15:42:22.001Z</time></trkpt><trkpt lat="44.791084091003285" lon="9.326551553333081"><ele>1213.0</ele><time>2026-05-01T15:42:23.001Z</time></trkpt><trkpt lat="44.79113138904664" lon="9.326618045768697"><ele>1212.0</ele><time>2026-05-01T15:42:24.001Z</time></trkpt><trkpt lat="44.79119127650927" lon="9.326678965212817"><ele>1211.0</ele><time>2026-05-01T15:42:25.001Z</time></trkpt><trkpt lat="44.7912732363869" lon="9.326762338924839"><ele>1210.0</ele><time>2026-05-01T15:42:26.001Z</time></trkpt><trkpt lat="44.79133753237545" lon="9.326808711747123"><ele>1209.0</ele><time>2026-05-01T15:42:27.001Z</time></trkpt><trkpt lat="44.79143168544569" lon="9.32692504203761"><ele>1208.0</ele><time>2026-05-01T15:42:29.001Z</time></trkpt><trkpt lat="44.7915184459391" lon="9.327000034666689"><ele>1208.0</ele><time>2026-05-01T15:42:31.001Z</time></trkpt><trkpt lat="44.79160365307289" lon="9.327094258656917"><ele>1208.0</ele><time>2026-05-01T15:42:33.001Z</time></trkpt><trkpt lat="44.791662678752566" lon="9.327146848454122"><ele>1208.0</ele><time>2026-05-01T15:42:34.001Z</time></trkpt><trkpt lat="44.791736366250625" lon="9.327211456734519"><ele>1208.0</ele><time>2026-05-01T15:42:35.001Z</time></trkpt><trkpt lat="44.79179348726084" lon="9.327261248355034"><ele>1208.0</ele><time>2026-05-01T15:42:36.001Z</time></trkpt><trkpt lat="44.791875591269985" lon="9.327327261111801"><ele>1208.0</ele><time>2026-05-01T15:42:37.001Z</time></trkpt><trkpt lat="44.791951248792486" lon="9.32738024538854"><ele>1201.2</ele><time>2026-05-01T15:42:39.001Z</time></trkpt><trkpt lat="44.792027310440616" lon="9.327400399234149"><ele>1194.4</ele><time>2026-05-01T15:42:41.001Z</time></trkpt><trkpt lat="44.79212951798551" lon="9.327415596117328"><ele>1187.6000000000001</ele><time>2026-05-01T15:42:43.001Z</time></trkpt><trkpt lat="44.79222073012318" lon="9.32741242328289"><ele>1180.8</ele><time>2026-05-01T15:42:45.001Z</time></trkpt><trkpt lat="44.7922946677151" lon="9.327406330692291"><ele>1174.0</ele><time>2026-05-01T15:42:46.001Z</time></trkpt><trkpt lat="44.79240103820034" lon="9.327370784096372"><ele>1174.0</ele><time>2026-05-01T15:42:48.001Z</time></trkpt><trkpt lat="44.792467088693776" lon="9.327376438778138"><ele>1174.0</ele><time>2026-05-01T15:42:49.001Z</time></trkpt><trkpt lat="44.79253997640007" lon="9.327378619584854"><ele>1174.0</ele><time>2026-05-01T15:42:50.001Z</time></trkpt><trkpt lat="44.792628735460966" lon="9.327375102429329"><ele>1174.0</ele><time>2026-05-01T15:42:52.001Z</time></trkpt><trkpt lat="44.79271660989571" lon="9.327356426363496"><ele>1174.0</ele><time>2026-05-01T15:42:54.001Z</time></trkpt><trkpt lat="44.792806640049946" lon="9.327308254118934"><ele>1174.0</ele><time>2026-05-01T15:42:55.001Z</time></trkpt><trkpt lat="44.792898887199996" lon="9.327228582421903"><ele>1173.3333333333333</ele><time>2026-05-01T15:42:57.001Z</time></trkpt><trkpt lat="44.79296367943132" lon="9.327123414290702"><ele>1172.6666666666665</ele><time>2026-05-01T15:42:59.001Z</time></trkpt><trkpt lat="44.79300554028205" lon="9.327031113263514"><ele>1172.0</ele><time>2026-05-01T15:43:00.001Z</time></trkpt><trkpt lat="44.793032559299384" lon="9.326950056398795"><ele>1171.3333333333333</ele><time>2026-05-01T15:43:01.001Z</time></trkpt><trkpt lat="44.79305739854736" lon="9.326848904622013"><ele>1170.6666666666667</ele><time>2026-05-01T15:43:02.001Z</time></trkpt><trkpt lat="44.79308284780547" lon="9.3267373281218"><ele>1170.0</ele><time>2026-05-01T15:43:03.001Z</time></trkpt><trkpt lat="44.7931094933924" lon="9.326617198923472"><ele>1170.0</ele><time>2026-05-01T15:43:04.001Z</time></trkpt><trkpt lat="44.79313877883609" lon="9.326494294286078"><ele>1170.0</ele><time>2026-05-01T15:43:05.001Z</time></trkpt><trkpt lat="44.79316753789049" lon="9.326385028586172"><ele>1170.0</ele><time>2026-05-01T15:43:06.001Z</time></trkpt><trkpt lat="44.79319686522624" lon="9.326290161913251"><ele>1170.0</ele><time>2026-05-01T15:43:07.001Z</time></trkpt><trkpt lat="44.793225558911814" lon="9.326195502208543"><ele>1170.0</ele><time>2026-05-01T15:43:08.001Z</time></trkpt><trkpt lat="44.79325331093603" lon="9.326103948782327"><ele>1170.0</ele><time>2026-05-01T15:43:09.001Z</time></trkpt><trkpt lat="44.79327068093987" lon="9.326014532636599"><ele>1170.6</ele><time>2026-05-01T15:43:10.001Z</time></trkpt><trkpt lat="44.79329820902797" lon="9.325912240377695"><ele>1171.2</ele><time>2026-05-01T15:43:11.001Z</time></trkpt><trkpt lat="44.79334029903041" lon="9.325748674361387"><ele>1171.8</ele><time>2026-05-01T15:43:13.001Z</time></trkpt><trkpt lat="44.79334132742187" lon="9.325658311518236"><ele>1172.4</ele><time>2026-05-01T15:43:14.001Z</time></trkpt><trkpt lat="44.79335142823541" lon="9.32555251983858"><ele>1173.0</ele><time>2026-05-01T15:43:16.001Z</time></trkpt><trkpt lat="44.79330318349937" lon="9.325382698794922"><ele>1173.0</ele><time>2026-05-01T15:43:18Z</time></trkpt><trkpt lat="44.793281818840434" lon="9.325223497814287"><ele>1173.0</ele><time>2026-05-01T15:43:20Z</time></trkpt><trkpt lat="44.793271295821796" lon="9.325057389288425"><ele>1173.0</ele><time>2026-05-01T15:43:22Z</time></trkpt><trkpt lat="44.793237186874435" lon="9.324944804128577"><ele>1173.0</ele><time>2026-05-01T15:43:23Z</time></trkpt><trkpt lat="44.79322877718603" lon="9.32484683749828"><ele>1173.0</ele><time>2026-05-01T15:43:24Z</time></trkpt><trkpt lat="44.79320539538254" lon="9.324712076572974"><ele>1173.0000000000002</ele><time>2026-05-01T15:43:25Z</time></trkpt><trkpt lat="44.793192371298176" lon="9.324614453743616"><ele>1173.0</ele><time>2026-05-01T15:43:26Z</time></trkpt><trkpt lat="44.79317157210445" lon="9.324527171659282"><ele>1173.0</ele><time>2026-05-01T15:43:27Z</time></trkpt><trkpt lat="44.79314268302894" lon="9.324417017928939"><ele>1173.0</ele><time>2026-05-01T15:43:28Z</time></trkpt><trkpt lat="44.79311211083584" lon="9.324329032104538"><ele>1173.0</ele><time>2026-05-01T15:43:29Z</time></trkpt><trkpt lat="44.793094649841535" lon="9.324241716362256"><ele>1173.0000000000002</ele><time>2026-05-01T15:43:30Z</time></trkpt><trkpt lat="44.793095444468676" lon="9.324137951755848"><ele>1173.0</ele><time>2026-05-01T15:43:31Z</time></trkpt><trkpt lat="44.79314790769424" lon="9.324049867519493"><ele>1173.0</ele><time>2026-05-01T15:43:34Z</time></trkpt><trkpt lat="44.79326058770174" lon="9.324084719066294"><ele>1173.0</ele><time>2026-05-01T15:43:36Z</time></trkpt><trkpt lat="44.79330165273149" lon="9.324166999772059"><ele>1173.0</ele><time>2026-05-01T15:43:37Z</time></trkpt><trkpt lat="44.79338120083395" lon="9.324273151393557"><ele>1173.0</ele><time>2026-05-01T15:43:39Z</time></trkpt><trkpt lat="44.793429861544155" lon="9.32435669408158"><ele>1173.0</ele><time>2026-05-01T15:43:41Z</time></trkpt><trkpt lat="44.79352008405349" lon="9.324460897094701"><ele>1172.5</ele><time>2026-05-01T15:43:43Z</time></trkpt><trkpt lat="44.79358749710406" lon="9.324534669817428"><ele>1172.0</ele><time>2026-05-01T15:43:45Z</time></trkpt><trkpt lat="44.793650958358974" lon="9.324575076297934"><ele>1171.5</ele><time>2026-05-01T15:43:47Z</time></trkpt><trkpt lat="44.793710813558214" lon="9.324651147230114"><ele>1171.0</ele><time>2026-05-01T15:43:50Z</time></trkpt><trkpt lat="44.79376699645586" lon="9.324733498523981"><ele>1170.5</ele><time>2026-05-01T15:43:53Z</time></trkpt><trkpt lat="44.79381201012951" lon="9.324811150181878"><ele>1170.0</ele><time>2026-05-01T15:44:01.001Z</time></trkpt><trkpt lat="44.79387229649551" lon="9.324851209136357"><ele>1170.0</ele><time>2026-05-01T15:44:03.001Z</time></trkpt><trkpt lat="44.79391837917634" lon="9.324927977110232"><ele>1170.0</ele><time>2026-05-01T15:44:07.001Z</time></trkpt><trkpt lat="44.79397080614463" lon="9.325051547437049"><ele>1170.0</ele><time>2026-05-01T15:50:22.001Z</time></trkpt><trkpt lat="44.79402571207247" lon="9.325176259200308"><ele>1170.0</ele><time>2026-05-01T15:50:24.001Z</time></trkpt><trkpt lat="44.79410692760982" lon="9.325300166868521"><ele>1170.0</ele><time>2026-05-01T15:50:26.001Z</time></trkpt><trkpt lat="44.7941351373437" lon="9.325382154180424"><ele>1170.0</ele><time>2026-05-01T15:50:27.001Z</time></trkpt><trkpt lat="44.79415759924826" lon="9.325472831431453"><ele>1170.0</ele><time>2026-05-01T15:50:28.001Z</time></trkpt><trkpt lat="44.79419653923428" lon="9.325594252959583"><ele>1170.0</ele><time>2026-05-01T15:50:29.001Z</time></trkpt><trkpt lat="44.79421194930753" lon="9.325712723004168"><ele>1170.0</ele><time>2026-05-01T15:50:30.001Z</time></trkpt><trkpt lat="44.794232633536346" lon="9.32580899264391"><ele>1170.0</ele><time>2026-05-01T15:50:31.001Z</time></trkpt><trkpt lat="44.79426123007793" lon="9.325979817541459"><ele>1170.0</ele><time>2026-05-01T15:50:33.001Z</time></trkpt><trkpt lat="44.794282736335596" lon="9.32613632011531"><ele>1168.8333333333333</ele><time>2026-05-01T15:50:34.001Z</time></trkpt><trkpt lat="44.79430402624406" lon="9.326245796819675"><ele>1167.6666666666667</ele><time>2026-05-01T15:50:35.001Z</time></trkpt><trkpt lat="44.79429555345437" lon="9.32635195135475"><ele>1166.5</ele><time>2026-05-01T15:50:36.001Z</time></trkpt><trkpt lat="44.794301015602606" lon="9.326467588453088"><ele>1165.3333333333335</ele><time>2026-05-01T15:50:37.001Z</time></trkpt><trkpt lat="44.794287756149146" lon="9.3265689102817"><ele>1164.1666666666667</ele><time>2026-05-01T15:50:38.001Z</time></trkpt><trkpt lat="44.794281010757814" lon="9.326661599210315"><ele>1163.0</ele><time>2026-05-01T15:50:39.001Z</time></trkpt><trkpt lat="44.794305297616404" lon="9.326783030895223"><ele>1161.3333333333335</ele><time>2026-05-01T15:50:40.001Z</time></trkpt><trkpt lat="44.79433674098534" lon="9.326896977619516"><ele>1159.6666666666667</ele><time>2026-05-01T15:50:41.001Z</time></trkpt><trkpt lat="44.794373414465674" lon="9.327005054805023"><ele>1158.0</ele><time>2026-05-01T15:50:42.001Z</time></trkpt><trkpt lat="44.79440043995874" lon="9.327115890624148"><ele>1156.3333333333333</ele><time>2026-05-01T15:50:43.001Z</time></trkpt><trkpt lat="44.794443026974314" lon="9.327238606999654"><ele>1154.6666666666665</ele><time>2026-05-01T15:50:44.001Z</time></trkpt><trkpt lat="44.79446764726105" lon="9.327329124390626"><ele>1153.0</ele><time>2026-05-01T15:50:45.001Z</time></trkpt><trkpt lat="44.79447535431767" lon="9.327422950795354"><ele>1154.4285714285716</ele><time>2026-05-01T15:50:46.001Z</time></trkpt><trkpt lat="44.79450648190278" lon="9.32751644067255"><ele>1155.857142857143</ele><time>2026-05-01T15:50:47.001Z</time></trkpt><trkpt lat="44.794530088252294" lon="9.327620300680632"><ele>1157.2857142857142</ele><time>2026-05-01T15:50:48.001Z</time></trkpt><trkpt lat="44.794504854675196" lon="9.327734475319641"><ele>1158.7142857142858</ele><time>2026-05-01T15:50:49.001Z</time></trkpt><trkpt lat="44.794489561010614" lon="9.32783661803356"><ele>1160.142857142857</ele><time>2026-05-01T15:50:50.001Z</time></trkpt><trkpt lat="44.794485837596135" lon="9.327934622334602"><ele>1161.5714285714287</ele><time>2026-05-01T15:50:51.001Z</time></trkpt><trkpt lat="44.794497982305856" lon="9.328025878624471"><ele>1163.0</ele><time>2026-05-01T15:50:52.001Z</time></trkpt><trkpt lat="44.794506952042646" lon="9.328181900613727"><ele>1163.0</ele><time>2026-05-01T15:50:54.001Z</time></trkpt><trkpt lat="44.7945979362558" lon="9.328298529770514"><ele>1163.0</ele><time>2026-05-01T15:50:56.001Z</time></trkpt><trkpt lat="44.79465109494459" lon="9.328368284960941"><ele>1163.0</ele><time>2026-05-01T15:50:57.001Z</time></trkpt><trkpt lat="44.794699237077765" lon="9.328446091891955"><ele>1163.0</ele><time>2026-05-01T15:50:58.001Z</time></trkpt><trkpt lat="44.794763930372426" lon="9.328523594892083"><ele>1163.0</ele><time>2026-05-01T15:50:59.001Z</time></trkpt><trkpt lat="44.794819471916696" lon="9.328578029262593"><ele>1163.0</ele><time>2026-05-01T15:51:00.001Z</time></trkpt><trkpt lat="44.79488085154169" lon="9.32863427011188"><ele>1163.0</ele><time>2026-05-01T15:51:01.001Z</time></trkpt><trkpt lat="44.79495191193826" lon="9.32869132444186"><ele>1163.0</ele><time>2026-05-01T15:51:02.001Z</time></trkpt><trkpt lat="44.795022609088164" lon="9.328731656539071"><ele>1163.0</ele><time>2026-05-01T15:51:03.001Z</time></trkpt><trkpt lat="44.79510448175474" lon="9.32878704727443"><ele>1163.0</ele><time>2026-05-01T15:51:04.001Z</time></trkpt><trkpt lat="44.79518080321992" lon="9.32883472523574"><ele>1163.0</ele><time>2026-05-01T15:51:05.001Z</time></trkpt><trkpt lat="44.79524362654524" lon="9.32889892241853"><ele>1163.0</ele><time>2026-05-01T15:51:06.001Z</time></trkpt><trkpt lat="44.795314776631656" lon="9.328991101920995"><ele>1160.3333333333335</ele><time>2026-05-01T15:51:07.001Z</time></trkpt><trkpt lat="44.79537642219272" lon="9.329072479751739"><ele>1157.6666666666667</ele><time>2026-05-01T15:51:08.001Z</time></trkpt><trkpt lat="44.79545488354623" lon="9.32912712389527"><ele>1155.0</ele><time>2026-05-01T15:51:09.001Z</time></trkpt><trkpt lat="44.79552656614908" lon="9.329202202370372"><ele>1152.3333333333333</ele><time>2026-05-01T15:51:10.001Z</time></trkpt><trkpt lat="44.795586546242454" lon="9.329289043731368"><ele>1149.6666666666665</ele><time>2026-05-01T15:51:11.001Z</time></trkpt><trkpt lat="44.79565314604093" lon="9.329364519318817"><ele>1147.0</ele><time>2026-05-01T15:51:12.001Z</time></trkpt><trkpt lat="44.79571615122034" lon="9.329444151925852"><ele>1147.0</ele><time>2026-05-01T15:51:13.001Z</time></trkpt><trkpt lat="44.7957800970274" lon="9.329545234120106"><ele>1147.0</ele><time>2026-05-01T15:51:14.001Z</time></trkpt><trkpt lat="44.795871546267385" lon="9.32966702597373"><ele>1147.0</ele><time>2026-05-01T15:51:16.001Z</time></trkpt><trkpt lat="44.79596518344283" lon="9.329734698185062"><ele>1147.0</ele><time>2026-05-01T15:51:18.001Z</time></trkpt><trkpt lat="44.79603687292009" lon="9.329722985286132"><ele>1147.0</ele><time>2026-05-01T15:51:20.001Z</time></trkpt><trkpt lat="44.796090354281354" lon="9.329623615758624"><ele>1146.0</ele><time>2026-05-01T15:51:23.001Z</time></trkpt><trkpt lat="44.796118466554034" lon="9.329466973516539"><ele>1145.0</ele><time>2026-05-01T15:51:25.001Z</time></trkpt><trkpt lat="44.79618556943973" lon="9.329408119027754"><ele>1144.0</ele><time>2026-05-01T15:51:26.001Z</time></trkpt><trkpt lat="44.796238897975954" lon="9.329348449358612"><ele>1143.0</ele><time>2026-05-01T15:51:27.001Z</time></trkpt><trkpt lat="44.79629168995626" lon="9.329286123631908"><ele>1142.0</ele><time>2026-05-01T15:51:29Z</time></trkpt><trkpt lat="44.79635551414155" lon="9.329166074339605"><ele>1141.0</ele><time>2026-05-01T15:51:31Z</time></trkpt><trkpt lat="44.79640162219426" lon="9.329060286613716"><ele>1141.0</ele><time>2026-05-01T15:51:32Z</time></trkpt><trkpt lat="44.79644489088579" lon="9.328943111494794"><ele>1141.0</ele><time>2026-05-01T15:51:33Z</time></trkpt><trkpt lat="44.79649419038935" lon="9.32884981639012"><ele>1141.0</ele><time>2026-05-01T15:51:34Z</time></trkpt><trkpt lat="44.796547957233564" lon="9.328775331988465"><ele>1141.0</ele><time>2026-05-01T15:51:35Z</time></trkpt><trkpt lat="44.79668044811936" lon="9.328754904193575"><ele>1141.0</ele><time>2026-05-01T15:51:37Z</time></trkpt><trkpt lat="44.79675693888097" lon="9.32877418159934"><ele>1140.75</ele><time>2026-05-01T15:51:38Z</time></trkpt><trkpt lat="44.796844812675374" lon="9.328874733248082"><ele>1140.5</ele><time>2026-05-01T15:51:39Z</time></trkpt><trkpt lat="44.79692453038072" lon="9.328992932406122"><ele>1140.25</ele><time>2026-05-01T15:51:40Z</time></trkpt><trkpt lat="44.79702327552683" lon="9.329093284145204"><ele>1140.0</ele><time>2026-05-01T15:51:41Z</time></trkpt><trkpt lat="44.797111504019576" lon="9.32921670236783"><ele>1139.25</ele><time>2026-05-01T15:51:42Z</time></trkpt><trkpt lat="44.79719653648741" lon="9.32933819899016"><ele>1138.5</ele><time>2026-05-01T15:51:43Z</time></trkpt><trkpt lat="44.79731727464638" lon="9.329443061274345"><ele>1137.75</ele><time>2026-05-01T15:51:44Z</time></trkpt><trkpt lat="44.79743692647942" lon="9.329501012058099"><ele>1137.0</ele><time>2026-05-01T15:51:45Z</time></trkpt><trkpt lat="44.79757485482615" lon="9.329540781955473"><ele>1135.75</ele><time>2026-05-01T15:51:46Z</time></trkpt><trkpt lat="44.79769491284333" lon="9.329611175175112"><ele>1134.5</ele><time>2026-05-01T15:51:47Z</time></trkpt><trkpt lat="44.79782204286157" lon="9.329738569822261"><ele>1133.25</ele><time>2026-05-01T15:51:48Z</time></trkpt><trkpt lat="44.797929069284095" lon="9.329825400124411"><ele>1132.0</ele><time>2026-05-01T15:51:49Z</time></trkpt><trkpt lat="44.79806836996607" lon="9.329906505550994"><ele>1131.0</ele><time>2026-05-01T15:51:50Z</time></trkpt><trkpt lat="44.7981929241794" lon="9.329963311849111"><ele>1130.0</ele><time>2026-05-01T15:51:51Z</time></trkpt><trkpt lat="44.798307317669696" lon="9.330031331898441"><ele>1129.0</ele><time>2026-05-01T15:51:52Z</time></trkpt><trkpt lat="44.79840858846148" lon="9.330118324589161"><ele>1128.0</ele><time>2026-05-01T15:51:53Z</time></trkpt><trkpt lat="44.79851882876181" lon="9.330216431548132"><ele>1128.25</ele><time>2026-05-01T15:51:54Z</time></trkpt><trkpt lat="44.798615603008784" lon="9.330362172063912"><ele>1128.5</ele><time>2026-05-01T15:51:55Z</time></trkpt><trkpt lat="44.798714601650744" lon="9.330515919686318"><ele>1128.75</ele><time>2026-05-01T15:51:56Z</time></trkpt><trkpt lat="44.79879870983553" lon="9.330688673356942"><ele>1129.0</ele><time>2026-05-01T15:51:57Z</time></trkpt><trkpt lat="44.79888533652235" lon="9.330833289175807"><ele>1129.0</ele><time>2026-05-01T15:51:58Z</time></trkpt><trkpt lat="44.79894384468735" lon="9.331017721804"><ele>1129.0</ele><time>2026-05-01T15:51:59Z</time></trkpt><trkpt lat="44.799000019749776" lon="9.331185065870915"><ele>1129.0</ele><time>2026-05-01T15:52:00Z</time></trkpt><trkpt lat="44.79904276254279" lon="9.331334284563921"><ele>1129.0</ele><time>2026-05-01T15:52:01Z</time></trkpt><trkpt lat="44.799088610047896" lon="9.331476607972375"><ele>1125.75</ele><time>2026-05-01T15:52:02Z</time></trkpt><trkpt lat="44.79917298250142" lon="9.331623662002714"><ele>1122.5</ele><time>2026-05-01T15:52:03Z</time></trkpt><trkpt lat="44.799273612345715" lon="9.331764705859825"><ele>1119.25</ele><time>2026-05-01T15:52:04Z</time></trkpt><trkpt lat="44.799397743719496" lon="9.331928298590922"><ele>1116.0</ele><time>2026-05-01T15:52:05Z</time></trkpt><trkpt lat="44.79948963745396" lon="9.332046928561864"><ele>1116.0</ele><time>2026-05-01T15:52:06Z</time></trkpt><trkpt lat="44.79958620816238" lon="9.332168859818225"><ele>1116.0</ele><time>2026-05-01T15:52:07Z</time></trkpt><trkpt lat="44.799686181444784" lon="9.332296688268748"><ele>1116.0</ele><time>2026-05-01T15:52:08Z</time></trkpt><trkpt lat="44.79981419764849" lon="9.332391668870144"><ele>1116.0</ele><time>2026-05-01T15:52:09Z</time></trkpt><trkpt lat="44.799961539827805" lon="9.332459749541842"><ele>1111.3333333333333</ele><time>2026-05-01T15:52:10Z</time></trkpt><trkpt lat="44.800116574949875" lon="9.332525236710737"><ele>1106.6666666666665</ele><time>2026-05-01T15:52:11Z</time></trkpt><trkpt lat="44.80026490436867" lon="9.332587323641345"><ele>1102.0</ele><time>2026-05-01T15:52:12Z</time></trkpt><trkpt lat="44.80041366404149" lon="9.332649590624824"><ele>1102.0</ele><time>2026-05-01T15:52:13Z</time></trkpt><trkpt lat="44.80055675852689" lon="9.332711800606388"><ele>1102.0</ele><time>2026-05-01T15:52:14Z</time></trkpt><trkpt lat="44.80069228630761" lon="9.332784830001449"><ele>1102.0</ele><time>2026-05-01T15:52:15Z</time></trkpt><trkpt lat="44.800819826520474" lon="9.332867415844582"><ele>1102.0</ele><time>2026-05-01T15:52:16Z</time></trkpt><trkpt lat="44.800944259561135" lon="9.332955464223591"><ele>1102.25</ele><time>2026-05-01T15:52:17Z</time></trkpt><trkpt lat="44.8010589493905" lon="9.333034266233893"><ele>1102.5</ele><time>2026-05-01T15:52:18Z</time></trkpt><trkpt lat="44.801148777895854" lon="9.333157804601385"><ele>1102.75</ele><time>2026-05-01T15:52:19Z</time></trkpt><trkpt lat="44.80122017551938" lon="9.333336938967724"><ele>1103.0</ele><time>2026-05-01T15:52:20Z</time></trkpt><trkpt lat="44.80131517480821" lon="9.333530301191749"><ele>1103.0</ele><time>2026-05-01T15:52:21Z</time></trkpt><trkpt lat="44.80139985431272" lon="9.333727017615779"><ele>1103.0</ele><time>2026-05-01T15:52:22Z</time></trkpt><trkpt lat="44.80148231639292" lon="9.333854755587721"><ele>1103.0</ele><time>2026-05-01T15:52:23Z</time></trkpt><trkpt lat="44.80158884032818" lon="9.333871375780578"><ele>1103.0</ele><time>2026-05-01T15:52:24Z</time></trkpt><trkpt lat="44.80169798262088" lon="9.333931017802316"><ele>1099.0</ele><time>2026-05-01T15:52:25Z</time></trkpt><trkpt lat="44.80175907693526" lon="9.334050996576853"><ele>1095.0</ele><time>2026-05-01T15:52:26Z</time></trkpt><trkpt lat="44.80180311776951" lon="9.33415122239985"><ele>1091.0</ele><time>2026-05-01T15:52:27Z</time></trkpt><trkpt lat="44.801815981985115" lon="9.334255129878352"><ele>1087.0</ele><time>2026-05-01T15:52:28Z</time></trkpt><trkpt lat="44.80180162061857" lon="9.334404073034841"><ele>1083.0</ele><time>2026-05-01T15:52:29Z</time></trkpt><trkpt lat="44.801778441216555" lon="9.334561489052627"><ele>1083.0</ele><time>2026-05-01T15:52:30Z</time></trkpt><trkpt lat="44.8017757818883" lon="9.334720472978894"><ele>1083.0</ele><time>2026-05-01T15:52:31Z</time></trkpt><trkpt lat="44.80181036711796" lon="9.334888899712487"><ele>1083.0</ele><time>2026-05-01T15:52:32Z</time></trkpt><trkpt lat="44.80188700098318" lon="9.335046056406958"><ele>1083.0</ele><time>2026-05-01T15:52:33Z</time></trkpt><trkpt lat="44.80194717079889" lon="9.335214661152149"><ele>1080.3333333333333</ele><time>2026-05-01T15:52:34Z</time></trkpt><trkpt lat="44.80201507652468" lon="9.335410416482206"><ele>1077.6666666666665</ele><time>2026-05-01T15:52:35Z</time></trkpt><trkpt lat="44.80211085568794" lon="9.33561380591566"><ele>1075.0</ele><time>2026-05-01T15:52:36Z</time></trkpt><trkpt lat="44.80219538275577" lon="9.335814386244175"><ele>1075.0</ele><time>2026-05-01T15:52:37Z</time></trkpt><trkpt lat="44.80228573735247" lon="9.336017985688189"><ele>1075.0</ele><time>2026-05-01T15:52:38Z</time></trkpt><trkpt lat="44.80237712132297" lon="9.336191342137981"><ele>1075.0</ele><time>2026-05-01T15:52:39Z</time></trkpt><trkpt lat="44.80246183718271" lon="9.336359455409713"><ele>1075.0</ele><time>2026-05-01T15:52:40Z</time></trkpt><trkpt lat="44.80256097323318" lon="9.33652557286222"><ele>1075.0</ele><time>2026-05-01T15:52:41Z</time></trkpt><trkpt lat="44.80267259300229" lon="9.336688148409824"><ele>1075.0</ele><time>2026-05-01T15:52:42Z</time></trkpt><trkpt lat="44.802798577031275" lon="9.33684725982762"><ele>1075.0</ele><time>2026-05-01T15:52:43Z</time></trkpt><trkpt lat="44.80293680689983" lon="9.336999708977439"><ele>1075.0</ele><time>2026-05-01T15:52:44Z</time></trkpt><trkpt lat="44.80307803348363" lon="9.337150446100003"><ele>1075.0</ele><time>2026-05-01T15:52:45Z</time></trkpt><trkpt lat="44.80321498912209" lon="9.337305755818148"><ele>1066.6666666666665</ele><time>2026-05-01T15:52:46Z</time></trkpt><trkpt lat="44.803350489495884" lon="9.3374498980866"><ele>1058.3333333333333</ele><time>2026-05-01T15:52:47Z</time></trkpt><trkpt lat="44.80348171398992" lon="9.337585302499136"><ele>1050.0</ele><time>2026-05-01T15:52:48Z</time></trkpt><trkpt lat="44.80360153324666" lon="9.33771581891102"><ele>1050.0</ele><time>2026-05-01T15:52:49Z</time></trkpt><trkpt lat="44.8036859655046" lon="9.337852477587273"><ele>1050.0</ele><time>2026-05-01T15:52:50Z</time></trkpt><trkpt lat="44.80376196661945" lon="9.33799523241925"><ele>1050.0</ele><time>2026-05-01T15:52:51Z</time></trkpt><trkpt lat="44.803810315632106" lon="9.338136643401507"><ele>1050.0</ele><time>2026-05-01T15:52:52Z</time></trkpt><trkpt lat="44.80383853558302" lon="9.33827479740583"><ele>1046.25</ele><time>2026-05-01T15:52:53Z</time></trkpt><trkpt lat="44.80383649775737" lon="9.33843253944064"><ele>1042.5</ele><time>2026-05-01T15:52:54Z</time></trkpt><trkpt lat="44.803812765201364" lon="9.338586683692531"><ele>1038.75</ele><time>2026-05-01T15:52:55Z</time></trkpt><trkpt lat="44.80377249936637" lon="9.33873516305841"><ele>1035.0</ele><time>2026-05-01T15:52:56Z</time></trkpt><trkpt lat="44.803712350409455" lon="9.338894029570099"><ele>1035.0</ele><time>2026-05-01T15:52:57Z</time></trkpt><trkpt lat="44.80364443416892" lon="9.339054177882117"><ele>1035.0</ele><time>2026-05-01T15:52:58Z</time></trkpt><trkpt lat="44.80359336936293" lon="9.339225033864587"><ele>1035.0</ele><time>2026-05-01T15:52:59Z</time></trkpt><trkpt lat="44.80353265169014" lon="9.339398592456577"><ele>1035.0</ele><time>2026-05-01T15:53:00Z</time></trkpt><trkpt lat="44.80348483224798" lon="9.339581255644253"><ele>1036.2</ele><time>2026-05-01T15:53:01Z</time></trkpt><trkpt lat="44.80343231733075" lon="9.33971749420565"><ele>1037.4</ele><time>2026-05-01T15:53:02Z</time></trkpt><trkpt lat="44.803407562529635" lon="9.33986209190778"><ele>1038.6</ele><time>2026-05-01T15:53:03Z</time></trkpt><trkpt lat="44.80341169395046" lon="9.339983290626439"><ele>1039.8</ele><time>2026-05-01T15:53:04Z</time></trkpt><trkpt lat="44.80345964379159" lon="9.340097568908167"><ele>1041.0</ele><time>2026-05-01T15:53:05Z</time></trkpt><trkpt lat="44.803549854377" lon="9.340195990466936"><ele>1041.0</ele><time>2026-05-01T15:53:06Z</time></trkpt><trkpt lat="44.80366080532944" lon="9.340265623080672"><ele>1041.0</ele><time>2026-05-01T15:53:07Z</time></trkpt><trkpt lat="44.803771547799066" lon="9.340317862946076"><ele>1041.0</ele><time>2026-05-01T15:53:08Z</time></trkpt><trkpt lat="44.803889781605214" lon="9.340374327781113"><ele>1041.0</ele><time>2026-05-01T15:53:09Z</time></trkpt><trkpt lat="44.80400478472643" lon="9.340432933194952"><ele>1041.0</ele><time>2026-05-01T15:53:10Z</time></trkpt><trkpt lat="44.804117863701954" lon="9.340505498616004"><ele>1041.0</ele><time>2026-05-01T15:53:11Z</time></trkpt><trkpt lat="44.80419312010451" lon="9.340587778249649"><ele>1041.0</ele><time>2026-05-01T15:53:12Z</time></trkpt><trkpt lat="44.80423579177107" lon="9.340699864952729"><ele>1041.0</ele><time>2026-05-01T15:53:13Z</time></trkpt><trkpt lat="44.804263860451194" lon="9.340843890806369"><ele>1041.0</ele><time>2026-05-01T15:53:14Z</time></trkpt><trkpt lat="44.80426745124055" lon="9.340998513437007"><ele>1038.6</ele><time>2026-05-01T15:53:15Z</time></trkpt><trkpt lat="44.80425077996123" lon="9.341147442217208"><ele>1036.1999999999998</ele><time>2026-05-01T15:53:16Z</time></trkpt><trkpt lat="44.80423539798249" lon="9.341297265308075"><ele>1033.8000000000002</ele><time>2026-05-01T15:53:17Z</time></trkpt><trkpt lat="44.804219532869794" lon="9.341435595025176"><ele>1031.4</ele><time>2026-05-01T15:53:18Z</time></trkpt><trkpt lat="44.80420789055165" lon="9.34156928148676"><ele>1029.0</ele><time>2026-05-01T15:53:19Z</time></trkpt><trkpt lat="44.80418881244779" lon="9.341685005332076"><ele>1029.8333333333333</ele><time>2026-05-01T15:53:20Z</time></trkpt><trkpt lat="44.80419446058816" lon="9.341798289999193"><ele>1030.6666666666667</ele><time>2026-05-01T15:53:21Z</time></trkpt><trkpt lat="44.8042203408398" lon="9.341907303519168"><ele>1031.5</ele><time>2026-05-01T15:53:22Z</time></trkpt><trkpt lat="44.80425553666064" lon="9.342009111569075"><ele>1032.3333333333335</ele><time>2026-05-01T15:53:23Z</time></trkpt><trkpt lat="44.804308989697994" lon="9.34209477042608"><ele>1033.1666666666667</ele><time>2026-05-01T15:53:24Z</time></trkpt><trkpt lat="44.80436813020827" lon="9.342157421711697"><ele>1034.0</ele><time>2026-05-01T15:53:25Z</time></trkpt><trkpt lat="44.804431807990326" lon="9.342213586306556"><ele>1032.8333333333335</ele><time>2026-05-01T15:53:26Z</time></trkpt><trkpt lat="44.80449727320454" lon="9.342269207000832"><ele>1031.6666666666667</ele><time>2026-05-01T15:53:27Z</time></trkpt><trkpt lat="44.80454270528688" lon="9.342359598687596"><ele>1030.5</ele><time>2026-05-01T15:53:28Z</time></trkpt><trkpt lat="44.80459483395679" lon="9.342423392441056"><ele>1029.3333333333333</ele><time>2026-05-01T15:53:29Z</time></trkpt><trkpt lat="44.80464412584564" lon="9.342493022077695"><ele>1028.1666666666665</ele><time>2026-05-01T15:53:30Z</time></trkpt><trkpt lat="44.804699329174944" lon="9.34266249315829"><ele>1027.0</ele><time>2026-05-01T15:53:32Z</time></trkpt><trkpt lat="44.80472321466466" lon="9.342766314594394"><ele>1027.0</ele><time>2026-05-01T15:53:33Z</time></trkpt><trkpt lat="44.80469341428489" lon="9.342867113019622"><ele>1027.0</ele><time>2026-05-01T15:53:34Z</time></trkpt><trkpt lat="44.80468309485419" lon="9.342965351618634"><ele>1027.0</ele><time>2026-05-01T15:53:35Z</time></trkpt><trkpt lat="44.804636541627" lon="9.343052951861473"><ele>1027.0</ele><time>2026-05-01T15:53:36Z</time></trkpt><trkpt lat="44.80457854551761" lon="9.343142705653491"><ele>1027.0</ele><time>2026-05-01T15:53:37Z</time></trkpt><trkpt lat="44.804499865393154" lon="9.343239447324708"><ele>1027.0</ele><time>2026-05-01T15:53:38Z</time></trkpt><trkpt lat="44.80439461869303" lon="9.343349015272217"><ele>1019.6666666666666</ele><time>2026-05-01T15:53:39Z</time></trkpt><trkpt lat="44.80425897432362" lon="9.343465403097737"><ele>1012.3333333333333</ele><time>2026-05-01T15:53:40Z</time></trkpt><trkpt lat="44.80411758391456" lon="9.343572733252996"><ele>1005.0</ele><time>2026-05-01T15:53:41Z</time></trkpt><trkpt lat="44.803991541630296" lon="9.343668116594134"><ele>1005.0</ele><time>2026-05-01T15:53:42Z</time></trkpt><trkpt lat="44.80387594635208" lon="9.343766421761421"><ele>1005.0</ele><time>2026-05-01T15:53:43Z</time></trkpt><trkpt lat="44.80378796737148" lon="9.343883755216453"><ele>1005.0</ele><time>2026-05-01T15:53:44Z</time></trkpt><trkpt lat="44.803727186902485" lon="9.344029360344862"><ele>1005.0</ele><time>2026-05-01T15:53:45Z</time></trkpt><trkpt lat="44.803663752076936" lon="9.344162990495299"><ele>1005.2</ele><time>2026-05-01T15:53:46Z</time></trkpt><trkpt lat="44.80363260774768" lon="9.344308765479376"><ele>1005.4</ele><time>2026-05-01T15:53:46.999Z</time></trkpt><trkpt lat="44.80362945511231" lon="9.34444728089366"><ele>1005.5999999999999</ele><time>2026-05-01T15:53:47.999Z</time></trkpt><trkpt lat="44.80367215927581" lon="9.344529569971245"><ele>1005.8</ele><time>2026-05-01T15:53:48.999Z</time></trkpt><trkpt lat="44.80375913220651" lon="9.344581456519384"><ele>1006.0</ele><time>2026-05-01T15:53:49.999Z</time></trkpt><trkpt lat="44.80384942818342" lon="9.344631770506144"><ele>1006.0</ele><time>2026-05-01T15:53:50.999Z</time></trkpt><trkpt lat="44.803953503792016" lon="9.344678002249653"><ele>1005.9999999999999</ele><time>2026-05-01T15:53:51.999Z</time></trkpt><trkpt lat="44.80404463299247" lon="9.344735706051395"><ele>1005.9999999999999</ele><time>2026-05-01T15:53:52.999Z</time></trkpt><trkpt lat="44.80413127410756" lon="9.344793309640401"><ele>1006.0</ele><time>2026-05-01T15:53:53.999Z</time></trkpt><trkpt lat="44.804186203678846" lon="9.34486730595817"><ele>1006.0</ele><time>2026-05-01T15:53:54.999Z</time></trkpt><trkpt lat="44.80418397195631" lon="9.344964708070908"><ele>1004.0</ele><time>2026-05-01T15:53:55.999Z</time></trkpt><trkpt lat="44.80418509286022" lon="9.345076062584441"><ele>1002.0</ele><time>2026-05-01T15:53:56.999Z</time></trkpt><trkpt lat="44.80418065293891" lon="9.345247477160896"><ele>1000.0</ele><time>2026-05-01T15:53:57.999Z</time></trkpt><trkpt lat="44.8041783098294" lon="9.345436672258831"><ele>998.0</ele><time>2026-05-01T15:53:58.999Z</time></trkpt><trkpt lat="44.80417591000273" lon="9.345630508116438"><ele>995.2</ele><time>2026-05-01T15:53:59.999Z</time></trkpt><trkpt lat="44.804193020288196" lon="9.345814036556046"><ele>992.4</ele><time>2026-05-01T15:54:00.999Z</time></trkpt><trkpt lat="44.80421382764089" lon="9.345939126293567"><ele>989.6000000000001</ele><time>2026-05-01T15:54:01.999Z</time></trkpt><trkpt lat="44.80426288136417" lon="9.346031334594391"><ele>986.8000000000001</ele><time>2026-05-01T15:54:02.999Z</time></trkpt><trkpt lat="44.80431893592844" lon="9.34610706456391"><ele>984.0</ele><time>2026-05-01T15:54:03.999Z</time></trkpt><trkpt lat="44.80440592332487" lon="9.346195798108909"><ele>984.5</ele><time>2026-05-01T15:54:04.999Z</time></trkpt><trkpt lat="44.804528324382574" lon="9.346320156715088"><ele>985.0</ele><time>2026-05-01T15:54:05.999Z</time></trkpt><trkpt lat="44.80464705507607" lon="9.346440220760744"><ele>985.5</ele><time>2026-05-01T15:54:06.999Z</time></trkpt><trkpt lat="44.804753811407075" lon="9.346548175822557"><ele>986.0</ele><time>2026-05-01T15:54:07.999Z</time></trkpt><trkpt lat="44.804853299297704" lon="9.346647910895303"><ele>986.0</ele><time>2026-05-01T15:54:08.999Z</time></trkpt><trkpt lat="44.80497600242678" lon="9.346724573205538"><ele>986.0</ele><time>2026-05-01T15:54:09.999Z</time></trkpt><trkpt lat="44.805116644775055" lon="9.346779201747536"><ele>986.0</ele><time>2026-05-01T15:54:10.999Z</time></trkpt><trkpt lat="44.805270060281124" lon="9.346836800559311"><ele>986.0</ele><time>2026-05-01T15:54:11.999Z</time></trkpt><trkpt lat="44.805400421998065" lon="9.346886806169557"><ele>989.75</ele><time>2026-05-01T15:54:12.999Z</time></trkpt><trkpt lat="44.8055283637507" lon="9.34693588355404"><ele>993.5</ele><time>2026-05-01T15:54:13.999Z</time></trkpt><trkpt lat="44.805644667882945" lon="9.346980498738924"><ele>997.25</ele><time>2026-05-01T15:54:14.999Z</time></trkpt><trkpt lat="44.80577282690146" lon="9.347032148058819"><ele>1001.0</ele><time>2026-05-01T15:54:15.999Z</time></trkpt><trkpt lat="44.80590093584659" lon="9.347102505789655"><ele>996.6666666666667</ele><time>2026-05-01T15:54:16.999Z</time></trkpt><trkpt lat="44.80602085607434" lon="9.347215847718967"><ele>992.3333333333333</ele><time>2026-05-01T15:54:17.999Z</time></trkpt><trkpt lat="44.80615602008598" lon="9.347357425993202"><ele>988.0</ele><time>2026-05-01T15:54:18.999Z</time></trkpt><trkpt lat="44.806297727041105" lon="9.347506594840334"><ele>988.0</ele><time>2026-05-01T15:54:19.999Z</time></trkpt><trkpt lat="44.80643168038347" lon="9.347647602122176"><ele>988.0</ele><time>2026-05-01T15:54:20.999Z</time></trkpt><trkpt lat="44.80655192114586" lon="9.347781845512488"><ele>988.0</ele><time>2026-05-01T15:54:21.999Z</time></trkpt><trkpt lat="44.80667119714873" lon="9.347902401346289"><ele>988.0</ele><time>2026-05-01T15:54:22.999Z</time></trkpt><trkpt lat="44.80674477331402" lon="9.348026360462194"><ele>988.0</ele><time>2026-05-01T15:54:23.999Z</time></trkpt><trkpt lat="44.806794656705556" lon="9.348139475593156"><ele>988.0</ele><time>2026-05-01T15:54:24.999Z</time></trkpt><trkpt lat="44.80681792264425" lon="9.348258816872358"><ele>988.0</ele><time>2026-05-01T15:54:25.999Z</time></trkpt><trkpt lat="44.8068108960534" lon="9.348408670519769"><ele>988.0</ele><time>2026-05-01T15:54:26.999Z</time></trkpt><trkpt lat="44.80678837087884" lon="9.348590997680784"><ele>982.0</ele><time>2026-05-01T15:54:27.999Z</time></trkpt><trkpt lat="44.80675594740979" lon="9.348800246652248"><ele>976.0</ele><time>2026-05-01T15:54:28.999Z</time></trkpt><trkpt lat="44.80674069486262" lon="9.349024158237592"><ele>970.0</ele><time>2026-05-01T15:54:29.999Z</time></trkpt><trkpt lat="44.80671310467817" lon="9.34925042106596"><ele>969.75</ele><time>2026-05-01T15:54:30.999Z</time></trkpt><trkpt lat="44.80668426971835" lon="9.349460211934804"><ele>969.5</ele><time>2026-05-01T15:54:31.999Z</time></trkpt><trkpt lat="44.80664793430978" lon="9.349653692506447"><ele>969.25</ele><time>2026-05-01T15:54:32.999Z</time></trkpt><trkpt lat="44.80662525756888" lon="9.349800679464034"><ele>969.0</ele><time>2026-05-01T15:54:33.999Z</time></trkpt><trkpt lat="44.80659150712947" lon="9.349911965914368"><ele>969.0</ele><time>2026-05-01T15:54:34.999Z</time></trkpt><trkpt lat="44.80654512207149" lon="9.350025093454523"><ele>969.0000000000001</ele><time>2026-05-01T15:54:35.999Z</time></trkpt><trkpt lat="44.806462257325045" lon="9.350099267583564"><ele>969.0000000000001</ele><time>2026-05-01T15:54:36.999Z</time></trkpt><trkpt lat="44.80636766017736" lon="9.350153804944537"><ele>969.0</ele><time>2026-05-01T15:54:37.999Z</time></trkpt><trkpt lat="44.8062583302432" lon="9.35019013485299"><ele>969.0</ele><time>2026-05-01T15:54:38.999Z</time></trkpt><trkpt lat="44.80614977552846" lon="9.35023446909211"><ele>969.0</ele><time>2026-05-01T15:54:39.999Z</time></trkpt><trkpt lat="44.8060509404308" lon="9.350285378280269"><ele>969.0000000000001</ele><time>2026-05-01T15:54:40.999Z</time></trkpt><trkpt lat="44.80597583211226" lon="9.35036103214841"><ele>969.0000000000001</ele><time>2026-05-01T15:54:41.999Z</time></trkpt><trkpt lat="44.805947854550126" lon="9.350479915707668"><ele>969.0</ele><time>2026-05-01T15:54:42.999Z</time></trkpt><trkpt lat="44.80592201569431" lon="9.350593223328136"><ele>969.0</ele><time>2026-05-01T15:54:43.999Z</time></trkpt><trkpt lat="44.80589334181035" lon="9.350753471857976"><ele>965.3333333333333</ele><time>2026-05-01T15:54:44.999Z</time></trkpt><trkpt lat="44.80586345355681" lon="9.350967796287025"><ele>961.6666666666666</ele><time>2026-05-01T15:54:45.999Z</time></trkpt><trkpt lat="44.8058308305299" lon="9.351167499794464"><ele>958.0</ele><time>2026-05-01T15:54:46.999Z</time></trkpt><trkpt lat="44.80579476382344" lon="9.351374572667646"><ele>958.0</ele><time>2026-05-01T15:54:47.999Z</time></trkpt><trkpt lat="44.805764247565726" lon="9.351561740767224"><ele>958.0</ele><time>2026-05-01T15:54:48.999Z</time></trkpt><trkpt lat="44.80573268685241" lon="9.35173631757615"><ele>958.0</ele><time>2026-05-01T15:54:49.999Z</time></trkpt><trkpt lat="44.805721742692036" lon="9.351894188524652"><ele>958.0</ele><time>2026-05-01T15:54:50.999Z</time></trkpt><trkpt lat="44.805729206561175" lon="9.35203833691044"><ele>958.0</ele><time>2026-05-01T15:54:51.999Z</time></trkpt><trkpt lat="44.805756068462095" lon="9.352176390122235"><ele>958.0</ele><time>2026-05-01T15:54:52.999Z</time></trkpt><trkpt lat="44.80580688336382" lon="9.352303321163959"><ele>958.0</ele><time>2026-05-01T15:54:53.999Z</time></trkpt><trkpt lat="44.80584958178294" lon="9.352438479142197"><ele>958.0</ele><time>2026-05-01T15:54:54.999Z</time></trkpt><trkpt lat="44.80585154327667" lon="9.352585200705677"><ele>958.0</ele><time>2026-05-01T15:54:55.999Z</time></trkpt><trkpt lat="44.80582487345724" lon="9.352761010227779"><ele>957.25</ele><time>2026-05-01T15:54:56.999Z</time></trkpt><trkpt lat="44.80576581174168" lon="9.352936942084337"><ele>956.5</ele><time>2026-05-01T15:54:57.999Z</time></trkpt><trkpt lat="44.80569963113903" lon="9.35313408147807"><ele>955.75</ele><time>2026-05-01T15:54:58.999Z</time></trkpt><trkpt lat="44.80564334252181" lon="9.35330040097966"><ele>955.0</ele><time>2026-05-01T15:54:59.999Z</time></trkpt><trkpt lat="44.80555517644099" lon="9.353460876638174"><ele>955.25</ele><time>2026-05-01T15:55:00.999Z</time></trkpt><trkpt lat="44.80547008951893" lon="9.353610057521223"><ele>955.5</ele><time>2026-05-01T15:55:01.999Z</time></trkpt><trkpt lat="44.805380167831004" lon="9.353761657358984"><ele>955.75</ele><time>2026-05-01T15:55:02.999Z</time></trkpt><trkpt lat="44.80528524808198" lon="9.353913286332737"><ele>956.0</ele><time>2026-05-01T15:55:03.999Z</time></trkpt><trkpt lat="44.80517973841078" lon="9.354061180678867"><ele>951.5</ele><time>2026-05-01T15:55:04.999Z</time></trkpt><trkpt lat="44.80506232543653" lon="9.35418721179949"><ele>947.0</ele><time>2026-05-01T15:55:05.999Z</time></trkpt><trkpt lat="44.80493849542038" lon="9.354317576928507"><ele>942.5</ele><time>2026-05-01T15:55:06.999Z</time></trkpt><trkpt lat="44.80482158017535" lon="9.35443904542339"><ele>938.0</ele><time>2026-05-01T15:55:07.999Z</time></trkpt><trkpt lat="44.804712913405695" lon="9.3545544858545"><ele>938.0</ele><time>2026-05-01T15:55:08.999Z</time></trkpt><trkpt lat="44.80463808822485" lon="9.35467113688209"><ele>938.0</ele><time>2026-05-01T15:55:09.999Z</time></trkpt><trkpt lat="44.80456816056488" lon="9.354760473063966"><ele>938.0</ele><time>2026-05-01T15:55:10.999Z</time></trkpt><trkpt lat="44.80454368402373" lon="9.354864577066389"><ele>938.0</ele><time>2026-05-01T15:55:11.999Z</time></trkpt><trkpt lat="44.80454947392271" lon="9.35499018112274"><ele>938.0</ele><time>2026-05-01T15:55:12.999Z</time></trkpt><trkpt lat="44.804568119300136" lon="9.355146030767656"><ele>939.5</ele><time>2026-05-01T15:55:13.999Z</time></trkpt><trkpt lat="44.80459077060747" lon="9.35532088911057"><ele>941.0</ele><time>2026-05-01T15:55:14.999Z</time></trkpt><trkpt lat="44.80459041527426" lon="9.355515595860586"><ele>942.5</ele><time>2026-05-01T15:55:15.999Z</time></trkpt><trkpt lat="44.804582944121364" lon="9.355706982965835"><ele>944.0</ele><time>2026-05-01T15:55:16.999Z</time></trkpt><trkpt lat="44.804576436816944" lon="9.35588222476306"><ele>945.2</ele><time>2026-05-01T15:55:17.999Z</time></trkpt><trkpt lat="44.804555854443834" lon="9.356045605559999"><ele>946.4000000000001</ele><time>2026-05-01T15:55:18.999Z</time></trkpt><trkpt lat="44.80451594807145" lon="9.356170775706905"><ele>947.6</ele><time>2026-05-01T15:55:19.999Z</time></trkpt><trkpt lat="44.80445779898509" lon="9.356262466571398"><ele>948.8</ele><time>2026-05-01T15:55:20.999Z</time></trkpt><trkpt lat="44.80437540086847" lon="9.356264641124405"><ele>950.0</ele><time>2026-05-01T15:55:21.999Z</time></trkpt><trkpt lat="44.80429426664571" lon="9.35630953151272"><ele>945.4</ele><time>2026-05-01T15:55:22.999Z</time></trkpt><trkpt lat="44.80420794698631" lon="9.356337704902657"><ele>940.8</ele><time>2026-05-01T15:55:23.999Z</time></trkpt><trkpt lat="44.80412586146168" lon="9.356368512966567"><ele>936.2</ele><time>2026-05-01T15:55:24.999Z</time></trkpt><trkpt lat="44.80405435454395" lon="9.356454843476007"><ele>931.6</ele><time>2026-05-01T15:55:25.999Z</time></trkpt><trkpt lat="44.804020178213406" lon="9.356595271079764"><ele>927.0</ele><time>2026-05-01T15:55:26.999Z</time></trkpt><trkpt lat="44.80402230287712" lon="9.356760319083103"><ele>927.0</ele><time>2026-05-01T15:55:27.999Z</time></trkpt><trkpt lat="44.80401588931551" lon="9.356942220021763"><ele>927.0</ele><time>2026-05-01T15:55:28.999Z</time></trkpt><trkpt lat="44.804002039945274" lon="9.357118370505267"><ele>927.0</ele><time>2026-05-01T15:55:29.999Z</time></trkpt><trkpt lat="44.803997837547556" lon="9.357282355563537"><ele>927.0</ele><time>2026-05-01T15:55:30.999Z</time></trkpt><trkpt lat="44.80394997394887" lon="9.35742784046391"><ele>926.75</ele><time>2026-05-01T15:55:31.999Z</time></trkpt><trkpt lat="44.80388168575075" lon="9.357602856807981"><ele>926.5</ele><time>2026-05-01T15:55:32.999Z</time></trkpt><trkpt lat="44.803821245150615" lon="9.357793660467875"><ele>926.25</ele><time>2026-05-01T15:55:33.999Z</time></trkpt><trkpt lat="44.803735223269214" lon="9.357976059461611"><ele>926.0</ele><time>2026-05-01T15:55:34.999Z</time></trkpt><trkpt lat="44.803654929481176" lon="9.358159443305665"><ele>926.5</ele><time>2026-05-01T15:55:35.999Z</time></trkpt><trkpt lat="44.8035787267214" lon="9.358329221483583"><ele>927.0</ele><time>2026-05-01T15:55:36.999Z</time></trkpt><trkpt lat="44.80350552394288" lon="9.358492453070296"><ele>927.5</ele><time>2026-05-01T15:55:37.999Z</time></trkpt><trkpt lat="44.80344509007388" lon="9.35862545439681"><ele>928.0</ele><time>2026-05-01T15:55:38.999Z</time></trkpt><trkpt lat="44.80339161260353" lon="9.358716699841237"><ele>923.8</ele><time>2026-05-01T15:55:39.999Z</time></trkpt><trkpt lat="44.80331570876413" lon="9.35876972678644"><ele>919.5999999999999</ele><time>2026-05-01T15:55:40.999Z</time></trkpt><trkpt lat="44.803230500176575" lon="9.358778728281246"><ele>915.4000000000001</ele><time>2026-05-01T15:55:41.999Z</time></trkpt><trkpt lat="44.80314372322243" lon="9.358747298582845"><ele>911.2</ele><time>2026-05-01T15:55:42.999Z</time></trkpt><trkpt lat="44.803057925536315" lon="9.358678538673495"><ele>907.0</ele><time>2026-05-01T15:55:43.999Z</time></trkpt><trkpt lat="44.802969181336195" lon="9.358605328739523"><ele>907.0</ele><time>2026-05-01T15:55:44.999Z</time></trkpt><trkpt lat="44.802865082984084" lon="9.358551222024092"><ele>907.0</ele><time>2026-05-01T15:55:45.999Z</time></trkpt><trkpt lat="44.802741826335556" lon="9.358532070847158"><ele>907.0</ele><time>2026-05-01T15:55:46.999Z</time></trkpt><trkpt lat="44.80260224621817" lon="9.358538618387001"><ele>907.0</ele><time>2026-05-01T15:55:47.999Z</time></trkpt><trkpt lat="44.80245092090288" lon="9.358546712235052"><ele>903.5</ele><time>2026-05-01T15:55:48.999Z</time></trkpt><trkpt lat="44.80230121762529" lon="9.358548837122797"><ele>900.0</ele><time>2026-05-01T15:55:49.999Z</time></trkpt><trkpt lat="44.8021654436289" lon="9.358554463754032"><ele>896.5</ele><time>2026-05-01T15:55:50.999Z</time></trkpt><trkpt lat="44.8020294269452" lon="9.358595628224347"><ele>893.0</ele><time>2026-05-01T15:55:51.999Z</time></trkpt><trkpt lat="44.801900602963634" lon="9.35861622843862"><ele>893.5</ele><time>2026-05-01T15:55:52.998Z</time></trkpt><trkpt lat="44.80177674297275" lon="9.358662839515484"><ele>894.0</ele><time>2026-05-01T15:55:53.999Z</time></trkpt><trkpt lat="44.80166510981286" lon="9.358716857959314"><ele>894.5</ele><time>2026-05-01T15:55:54.999Z</time></trkpt><trkpt lat="44.801578318680015" lon="9.358804360712456"><ele>895.0</ele><time>2026-05-01T15:55:55.999Z</time></trkpt><trkpt lat="44.80150445834546" lon="9.358922429054527"><ele>895.0</ele><time>2026-05-01T15:55:56.999Z</time></trkpt><trkpt lat="44.80143219749443" lon="9.359026580823542"><ele>895.0</ele><time>2026-05-01T15:55:57.999Z</time></trkpt><trkpt lat="44.801374699876284" lon="9.35912387799492"><ele>895.0</ele><time>2026-05-01T15:55:58.999Z</time></trkpt><trkpt lat="44.80130657962692" lon="9.35923549879842"><ele>895.0</ele><time>2026-05-01T15:55:59.999Z</time></trkpt><trkpt lat="44.801245983612525" lon="9.35933273902062"><ele>895.0</ele><time>2026-05-01T15:56:00.999Z</time></trkpt><trkpt lat="44.80116762799001" lon="9.359383100738572"><ele>895.0</ele><time>2026-05-01T15:56:01.999Z</time></trkpt><trkpt lat="44.801090235169674" lon="9.359378411962213"><ele>895.0</ele><time>2026-05-01T15:56:02.999Z</time></trkpt><trkpt lat="44.801006250489145" lon="9.359317119460703"><ele>895.0</ele><time>2026-05-01T15:56:03.999Z</time></trkpt><trkpt lat="44.80092878013492" lon="9.359243079931062"><ele>895.0</ele><time>2026-05-01T15:56:04.999Z</time></trkpt><trkpt lat="44.80083219599647" lon="9.359146471993585"><ele>895.0</ele><time>2026-05-01T15:56:05.999Z</time></trkpt><trkpt lat="44.80072423383712" lon="9.359049020137759"><ele>893.6</ele><time>2026-05-01T15:56:06.999Z</time></trkpt><trkpt lat="44.800623846665616" lon="9.358944822700044"><ele>892.2</ele><time>2026-05-01T15:56:07.999Z</time></trkpt><trkpt lat="44.80052612500218" lon="9.358850797771938"><ele>890.8</ele><time>2026-05-01T15:56:08.999Z</time></trkpt><trkpt lat="44.80043733229038" lon="9.358750533358853"><ele>889.4</ele><time>2026-05-01T15:56:09.999Z</time></trkpt><trkpt lat="44.80035095961997" lon="9.358715251811192"><ele>888.0</ele><time>2026-05-01T15:56:10.999Z</time></trkpt><trkpt lat="44.80026889832069" lon="9.35867067991376"><ele>885.5999999999999</ele><time>2026-05-01T15:56:11.999Z</time></trkpt><trkpt lat="44.80016925235679" lon="9.358725401909608"><ele>883.1999999999999</ele><time>2026-05-01T15:56:12.999Z</time></trkpt><trkpt lat="44.80008968674369" lon="9.35883020447258"><ele>880.8</ele><time>2026-05-01T15:56:13.999Z</time></trkpt><trkpt lat="44.79999266285752" lon="9.358870371527656"><ele>878.4</ele><time>2026-05-01T15:56:14.999Z</time></trkpt><trkpt lat="44.799895322999184" lon="9.358901933977151"><ele>876.0</ele><time>2026-05-01T15:56:15.999Z</time></trkpt><trkpt lat="44.79979526050731" lon="9.358899042111197"><ele>876.0</ele><time>2026-05-01T15:56:16.999Z</time></trkpt><trkpt lat="44.799693271449826" lon="9.358859635511207"><ele>875.9999999999999</ele><time>2026-05-01T15:56:17.999Z</time></trkpt><trkpt lat="44.79959531401076" lon="9.35883290036093"><ele>875.9999999999999</ele><time>2026-05-01T15:56:18.999Z</time></trkpt><trkpt lat="44.799501583470494" lon="9.358820136599261"><ele>876.0</ele><time>2026-05-01T15:56:19.999Z</time></trkpt><trkpt lat="44.79941389168974" lon="9.358835691164057"><ele>876.0</ele><time>2026-05-01T15:56:20.999Z</time></trkpt><trkpt lat="44.79934365681154" lon="9.358889727619609"><ele>872.8333333333334</ele><time>2026-05-01T15:56:21.999Z</time></trkpt><trkpt lat="44.79927441113398" lon="9.358969526874123"><ele>869.6666666666667</ele><time>2026-05-01T15:56:22.999Z</time></trkpt><trkpt lat="44.7992381114563" lon="9.359063673541012"><ele>866.5</ele><time>2026-05-01T15:56:23.999Z</time></trkpt><trkpt lat="44.799205411433036" lon="9.359182816270854"><ele>863.3333333333334</ele><time>2026-05-01T15:56:24.999Z</time></trkpt><trkpt lat="44.79922334215892" lon="9.359314854584479"><ele>860.1666666666667</ele><time>2026-05-01T15:56:25.999Z</time></trkpt><trkpt lat="44.799257697578106" lon="9.359417907090437"><ele>857.0</ele><time>2026-05-01T15:56:26.999Z</time></trkpt><trkpt lat="44.799308137501825" lon="9.359512670992151"><ele>860.8</ele><time>2026-05-01T15:56:27.999Z</time></trkpt><trkpt lat="44.7993501788994" lon="9.359608574767403"><ele>864.6</ele><time>2026-05-01T15:56:28.999Z</time></trkpt><trkpt lat="44.799375620621205" lon="9.359725884916749"><ele>868.3999999999999</ele><time>2026-05-01T15:56:29.999Z</time></trkpt><trkpt lat="44.79936638670921" lon="9.359870075063405"><ele>872.1999999999999</ele><time>2026-05-01T15:56:30.999Z</time></trkpt><trkpt lat="44.79937406309177" lon="9.360006850405227"><ele>876.0</ele><time>2026-05-01T15:56:31.999Z</time></trkpt><trkpt lat="44.799346177534616" lon="9.360145536239585"><ele>873.1999999999999</ele><time>2026-05-01T15:56:32.999Z</time></trkpt><trkpt lat="44.79928869579349" lon="9.360278875476952"><ele>870.3999999999999</ele><time>2026-05-01T15:56:33.999Z</time></trkpt><trkpt lat="44.79921108842582" lon="9.360399315130023"><ele>867.6</ele><time>2026-05-01T15:56:34.999Z</time></trkpt><trkpt lat="44.79912735160645" lon="9.36050407215907"><ele>864.8</ele><time>2026-05-01T15:56:35.999Z</time></trkpt><trkpt lat="44.79905119300392" lon="9.360610854237047"><ele>862.0</ele><time>2026-05-01T15:56:36.999Z</time></trkpt><trkpt lat="44.798979852628904" lon="9.360710878317342"><ele>862.0</ele><time>2026-05-01T15:56:38Z</time></trkpt><trkpt lat="44.798914679250146" lon="9.360817911947112"><ele>862.0</ele><time>2026-05-01T15:56:39Z</time></trkpt><trkpt lat="44.79885562105912" lon="9.360920351145799"><ele>862.0</ele><time>2026-05-01T15:56:40Z</time></trkpt><trkpt lat="44.798794880777365" lon="9.361017659003645"><ele>862.0</ele><time>2026-05-01T15:56:41Z</time></trkpt><trkpt lat="44.79876480311275" lon="9.361136355098465"><ele>862.0</ele><time>2026-05-01T15:56:42Z</time></trkpt><trkpt lat="44.79876845299916" lon="9.361281745040458"><ele>861.75</ele><time>2026-05-01T15:56:43Z</time></trkpt><trkpt lat="44.798797406352946" lon="9.361438058902314"><ele>861.5</ele><time>2026-05-01T15:56:44Z</time></trkpt><trkpt lat="44.798811026379546" lon="9.361597765151915"><ele>861.25</ele><time>2026-05-01T15:56:45Z</time></trkpt><trkpt lat="44.79880332681364" lon="9.361762974129201"><ele>861.0</ele><time>2026-05-01T15:56:46Z</time></trkpt><trkpt lat="44.79879104264686" lon="9.361920973708337"><ele>861.0</ele><time>2026-05-01T15:56:47Z</time></trkpt><trkpt lat="44.79877770298744" lon="9.36205565888508"><ele>861.0</ele><time>2026-05-01T15:56:48Z</time></trkpt><trkpt lat="44.79876145464799" lon="9.362147050622875"><ele>861.0</ele><time>2026-05-01T15:56:49Z</time></trkpt><trkpt lat="44.798712659820175" lon="9.36223006619178"><ele>861.0</ele><time>2026-05-01T15:56:50Z</time></trkpt><trkpt lat="44.798625200221345" lon="9.362276637879912"><ele>861.0</ele><time>2026-05-01T15:56:51Z</time></trkpt><trkpt lat="44.798535293256876" lon="9.36229882162867"><ele>861.0</ele><time>2026-05-01T15:56:52Z</time></trkpt><trkpt lat="44.79844626469729" lon="9.362307299271771"><ele>857.3333333333334</ele><time>2026-05-01T15:56:53Z</time></trkpt><trkpt lat="44.798367331967796" lon="9.362320492304752"><ele>853.6666666666667</ele><time>2026-05-01T15:56:54Z</time></trkpt><trkpt lat="44.79828667018717" lon="9.362339115927764"><ele>850.0</ele><time>2026-05-01T15:56:55Z</time></trkpt><trkpt lat="44.79821048574963" lon="9.362373766505158"><ele>846.3333333333334</ele><time>2026-05-01T15:56:56Z</time></trkpt><trkpt lat="44.79812666662867" lon="9.362439543230094"><ele>842.6666666666667</ele><time>2026-05-01T15:56:57Z</time></trkpt><trkpt lat="44.79805704179467" lon="9.362523440230303"><ele>839.0</ele><time>2026-05-01T15:56:58Z</time></trkpt><trkpt lat="44.79799834543217" lon="9.362633674077609"><ele>839.0</ele><time>2026-05-01T15:56:59Z</time></trkpt><trkpt lat="44.797931960462215" lon="9.362755291571894"><ele>839.0</ele><time>2026-05-01T15:57:00Z</time></trkpt><trkpt lat="44.79786353582529" lon="9.362890435570632"><ele>839.0</ele><time>2026-05-01T15:57:01Z</time></trkpt><trkpt lat="44.79778003115802" lon="9.36298716694563"><ele>839.0</ele><time>2026-05-01T15:57:02Z</time></trkpt><trkpt lat="44.79770294437375" lon="9.363091523333845"><ele>839.0</ele><time>2026-05-01T15:57:03Z</time></trkpt><trkpt lat="44.79763435935353" lon="9.363192201693652"><ele>836.0</ele><time>2026-05-01T15:57:04Z</time></trkpt><trkpt lat="44.79756878804314" lon="9.363279262062965"><ele>833.0</ele><time>2026-05-01T15:57:05Z</time></trkpt><trkpt lat="44.79752947533892" lon="9.363399498973012"><ele>830.0</ele><time>2026-05-01T15:57:06Z</time></trkpt><trkpt lat="44.797476592291375" lon="9.363462299146192"><ele>827.0</ele><time>2026-05-01T15:57:07Z</time></trkpt><trkpt lat="44.797427383948275" lon="9.363651296771867"><ele>824.0</ele><time>2026-05-01T15:57:09Z</time></trkpt><trkpt lat="44.79738523171966" lon="9.363760413966972"><ele>824.0000000000001</ele><time>2026-05-01T15:57:11Z</time></trkpt><trkpt lat="44.79734382503595" lon="9.363828104372866"><ele>824.0</ele><time>2026-05-01T15:57:52Z</time></trkpt><trkpt lat="44.79729934480067" lon="9.363909338870952"><ele>824.0</ele><time>2026-05-01T15:57:55Z</time></trkpt><trkpt lat="44.7972348744799" lon="9.364027081347372"><ele>824.0</ele><time>2026-05-01T15:57:57Z</time></trkpt><trkpt lat="44.797157189797026" lon="9.364169712065143"><ele>824.0000000000001</ele><time>2026-05-01T15:57:58.999Z</time></trkpt><trkpt lat="44.797115783970675" lon="9.364247495171767"><ele>824.0</ele><time>2026-05-01T15:57:59.999Z</time></trkpt><trkpt lat="44.797069109982125" lon="9.364337779833354"><ele>824.2</ele><time>2026-05-01T15:58:00.999Z</time></trkpt><trkpt lat="44.79702155910134" lon="9.364444416043609"><ele>824.4000000000001</ele><time>2026-05-01T15:58:01.999Z</time></trkpt><trkpt lat="44.79698417733038" lon="9.364546100472255"><ele>824.6</ele><time>2026-05-01T15:58:02.999Z</time></trkpt><trkpt lat="44.796951913211004" lon="9.364654280421533"><ele>824.8</ele><time>2026-05-01T15:58:03.999Z</time></trkpt><trkpt lat="44.796919936239135" lon="9.36477745694191"><ele>825.0</ele><time>2026-05-01T15:58:04.999Z</time></trkpt><trkpt lat="44.79689199400996" lon="9.364929014613896"><ele>825.0</ele><time>2026-05-01T15:58:05.999Z</time></trkpt><trkpt lat="44.79686769102168" lon="9.365076216713081"><ele>825.0</ele><time>2026-05-01T15:58:06.999Z</time></trkpt><trkpt lat="44.796844643234486" lon="9.365229245850728"><ele>825.0</ele><time>2026-05-01T15:58:07.999Z</time></trkpt><trkpt lat="44.79683995992993" lon="9.365399766999712"><ele>825.0</ele><time>2026-05-01T15:58:08.999Z</time></trkpt><trkpt lat="44.79681536397168" lon="9.365565029318208"><ele>819.0</ele><time>2026-05-01T15:58:09.999Z</time></trkpt><trkpt lat="44.796782050935406" lon="9.36573119030684"><ele>813.0</ele><time>2026-05-01T15:58:10.999Z</time></trkpt><trkpt lat="44.79673197198849" lon="9.365903160938226"><ele>807.0</ele><time>2026-05-01T15:58:11.999Z</time></trkpt><trkpt lat="44.79666446257932" lon="9.366073413763129"><ele>801.0</ele><time>2026-05-01T15:58:12.999Z</time></trkpt><trkpt lat="44.79658127076686" lon="9.366238636747294"><ele>801.0</ele><time>2026-05-01T15:58:14Z</time></trkpt><trkpt lat="44.7964805713905" lon="9.366392404935189"><ele>801.0</ele><time>2026-05-01T15:58:15Z</time></trkpt><trkpt lat="44.79636574110485" lon="9.366537781239899"><ele>801.0</ele><time>2026-05-01T15:58:16Z</time></trkpt><trkpt lat="44.796246912246396" lon="9.366682194130933"><ele>801.0</ele><time>2026-05-01T15:58:17Z</time></trkpt><trkpt lat="44.796132319940504" lon="9.366823633256027"><ele>801.0</ele><time>2026-05-01T15:58:18Z</time></trkpt><trkpt lat="44.79602083995794" lon="9.366956911354627"><ele>801.0</ele><time>2026-05-01T15:58:19Z</time></trkpt><trkpt lat="44.795910606358945" lon="9.367085613688339"><ele>801.0</ele><time>2026-05-01T15:58:20Z</time></trkpt><trkpt lat="44.79580737788432" lon="9.3672071863846"><ele>798.5</ele><time>2026-05-01T15:58:21Z</time></trkpt><trkpt lat="44.795707193872914" lon="9.367330608178731"><ele>796.0</ele><time>2026-05-01T15:58:22Z</time></trkpt><trkpt lat="44.79560514741544" lon="9.367447471401945"><ele>793.5</ele><time>2026-05-01T15:58:23Z</time></trkpt><trkpt lat="44.79551211607933" lon="9.367572163716721"><ele>791.0</ele><time>2026-05-01T15:58:24Z</time></trkpt><trkpt lat="44.795425802841024" lon="9.36770587203301"><ele>791.0</ele><time>2026-05-01T15:58:25Z</time></trkpt><trkpt lat="44.79536142226486" lon="9.367850447071145"><ele>791.0</ele><time>2026-05-01T15:58:26Z</time></trkpt><trkpt lat="44.795303682153865" lon="9.368004199263309"><ele>791.0</ele><time>2026-05-01T15:58:27Z</time></trkpt><trkpt lat="44.79526675253603" lon="9.36816045351935"><ele>791.0</ele><time>2026-05-01T15:58:28Z</time></trkpt><trkpt lat="44.79524895489554" lon="9.36831671215339"><ele>791.25</ele><time>2026-05-01T15:58:29Z</time></trkpt><trkpt lat="44.79525344559798" lon="9.368478750796756"><ele>791.5</ele><time>2026-05-01T15:58:30Z</time></trkpt><trkpt lat="44.795278412158986" lon="9.36864823553058"><ele>791.75</ele><time>2026-05-01T15:58:31Z</time></trkpt><trkpt lat="44.79532706261279" lon="9.368819943282368"><ele>792.0</ele><time>2026-05-01T15:58:32Z</time></trkpt><trkpt lat="44.7953871382728" lon="9.368981490233672"><ele>793.6</ele><time>2026-05-01T15:58:33Z</time></trkpt><trkpt lat="44.79543348657896" lon="9.369144680532298"><ele>795.2</ele><time>2026-05-01T15:58:34Z</time></trkpt><trkpt lat="44.79545717817333" lon="9.36929624479386"><ele>796.8</ele><time>2026-05-01T15:58:35Z</time></trkpt><trkpt lat="44.79544980871915" lon="9.369432077848142"><ele>798.4</ele><time>2026-05-01T15:58:36Z</time></trkpt><trkpt lat="44.79540970988565" lon="9.369554813767826"><ele>800.0</ele><time>2026-05-01T15:58:37Z</time></trkpt><trkpt lat="44.79534251181604" lon="9.369635975711748"><ele>800.0</ele><time>2026-05-01T15:58:38Z</time></trkpt><trkpt lat="44.795256137627796" lon="9.369686738463853"><ele>800.0</ele><time>2026-05-01T15:58:39Z</time></trkpt><trkpt lat="44.79515338355348" lon="9.369737576121675"><ele>800.0</ele><time>2026-05-01T15:58:40Z</time></trkpt><trkpt lat="44.7950315623534" lon="9.369802452071328"><ele>800.0</ele><time>2026-05-01T15:58:41Z</time></trkpt><trkpt lat="44.794910128822025" lon="9.369870666002106"><ele>793.5</ele><time>2026-05-01T15:58:42Z</time></trkpt><trkpt lat="44.79477785720915" lon="9.369946200498282"><ele>787.0</ele><time>2026-05-01T15:58:43Z</time></trkpt><trkpt lat="44.79464682621455" lon="9.370015201382056"><ele>780.5</ele><time>2026-05-01T15:58:44Z</time></trkpt><trkpt lat="44.79451895465697" lon="9.370086271297971"><ele>774.0</ele><time>2026-05-01T15:58:45Z</time></trkpt><trkpt lat="44.794395270288774" lon="9.37015919115099"><ele>772.0</ele><time>2026-05-01T15:58:46Z</time></trkpt><trkpt lat="44.79427711741067" lon="9.370233531699197"><ele>770.0</ele><time>2026-05-01T15:58:47Z</time></trkpt><trkpt lat="44.79415913214302" lon="9.370306772073913"><ele>768.0</ele><time>2026-05-01T15:58:48Z</time></trkpt><trkpt lat="44.79403769760131" lon="9.370357021732634"><ele>766.0</ele><time>2026-05-01T15:58:49Z</time></trkpt><trkpt lat="44.79391655978294" lon="9.370424200018675"><ele>766.0</ele><time>2026-05-01T15:58:50Z</time></trkpt><trkpt lat="44.79380384927267" lon="9.37048670485678"><ele>766.0</ele><time>2026-05-01T15:58:51Z</time></trkpt><trkpt lat="44.79369685227696" lon="9.37054284447346"><ele>766.0</ele><time>2026-05-01T15:58:52Z</time></trkpt><trkpt lat="44.793609272317546" lon="9.370574402023077"><ele>766.0</ele><time>2026-05-01T15:58:53Z</time></trkpt><trkpt lat="44.793524718456815" lon="9.370569864006914"><ele>766.0</ele><time>2026-05-01T15:58:54Z</time></trkpt><trkpt lat="44.79345691279175" lon="9.370536429390171"><ele>763.1999999999999</ele><time>2026-05-01T15:58:55Z</time></trkpt><trkpt lat="44.79342442805289" lon="9.370441084592846"><ele>760.4</ele><time>2026-05-01T15:58:56Z</time></trkpt><trkpt lat="44.793428773909355" lon="9.370321673349318"><ele>757.6</ele><time>2026-05-01T15:58:57Z</time></trkpt><trkpt lat="44.79344905479407" lon="9.370169371400454"><ele>754.8</ele><time>2026-05-01T15:58:58Z</time></trkpt><trkpt lat="44.79347947386463" lon="9.370015688983699"><ele>752.0</ele><time>2026-05-01T15:58:59Z</time></trkpt><trkpt lat="44.793495186445156" lon="9.36983802247438"><ele>751.5</ele><time>2026-05-01T15:59:00Z</time></trkpt><trkpt lat="44.793505171426965" lon="9.369659772162786"><ele>751.0</ele><time>2026-05-01T15:59:01Z</time></trkpt><trkpt lat="44.79349858460612" lon="9.369474313572152"><ele>750.5</ele><time>2026-05-01T15:59:02Z</time></trkpt><trkpt lat="44.79348219000108" lon="9.369294829178665"><ele>750.0</ele><time>2026-05-01T15:59:03Z</time></trkpt><trkpt lat="44.79346456399819" lon="9.369128304114446"><ele>750.0</ele><time>2026-05-01T15:59:04Z</time></trkpt><trkpt lat="44.793453705300955" lon="9.36897093394427"><ele>750.0</ele><time>2026-05-01T15:59:05Z</time></trkpt><trkpt lat="44.793447056655914" lon="9.368811085890362"><ele>750.0</ele><time>2026-05-01T15:59:06Z</time></trkpt><trkpt lat="44.79345130423915" lon="9.368647440473076"><ele>750.0</ele><time>2026-05-01T15:59:07Z</time></trkpt><trkpt lat="44.79345823762792" lon="9.368472344567666"><ele>749.25</ele><time>2026-05-01T15:59:08Z</time></trkpt><trkpt lat="44.79347396097378" lon="9.368289976083854"><ele>748.5</ele><time>2026-05-01T15:59:09Z</time></trkpt><trkpt lat="44.79348656819654" lon="9.368111650887416"><ele>747.75</ele><time>2026-05-01T15:59:10Z</time></trkpt><trkpt lat="44.79349676069678" lon="9.367941332799727"><ele>747.0</ele><time>2026-05-01T15:59:11Z</time></trkpt><trkpt lat="44.79351078091035" lon="9.367781873379899"><ele>749.0</ele><time>2026-05-01T15:59:12Z</time></trkpt><trkpt lat="44.7935268983507" lon="9.367622262525114"><ele>751.0</ele><time>2026-05-01T15:59:13Z</time></trkpt><trkpt lat="44.793542404328804" lon="9.36746494829465"><ele>753.0</ele><time>2026-05-01T15:59:14Z</time></trkpt><trkpt lat="44.79355769253883" lon="9.367313764728964"><ele>755.0</ele><time>2026-05-01T15:59:15Z</time></trkpt><trkpt lat="44.79359007942796" lon="9.367156065211178"><ele>755.0</ele><time>2026-05-01T15:59:16Z</time></trkpt><trkpt lat="44.793625018950905" lon="9.367001251226961"><ele>755.0</ele><time>2026-05-01T15:59:17Z</time></trkpt><trkpt lat="44.793659973212655" lon="9.366842537407823"><ele>755.0</ele><time>2026-05-01T15:59:18Z</time></trkpt><trkpt lat="44.79370270448327" lon="9.366688251032153"><ele>755.0</ele><time>2026-05-01T15:59:19Z</time></trkpt><trkpt lat="44.793717854735796" lon="9.366525925006007"><ele>753.5</ele><time>2026-05-01T15:59:20Z</time></trkpt><trkpt lat="44.79374083942294" lon="9.366358500255705"><ele>752.0</ele><time>2026-05-01T15:59:21Z</time></trkpt><trkpt lat="44.79377212336183" lon="9.366205571340693"><ele>750.5</ele><time>2026-05-01T15:59:22Z</time></trkpt><trkpt lat="44.793822222365" lon="9.366058072682861"><ele>749.0</ele><time>2026-05-01T15:59:23Z</time></trkpt><trkpt lat="44.79388885737179" lon="9.365903849823956"><ele>749.0</ele><time>2026-05-01T15:59:24Z</time></trkpt><trkpt lat="44.79396057879089" lon="9.36575917364365"><ele>749.0</ele><time>2026-05-01T15:59:25Z</time></trkpt><trkpt lat="44.79402617113437" lon="9.365606642779301"><ele>749.0</ele><time>2026-05-01T15:59:26Z</time></trkpt><trkpt lat="44.794086124961495" lon="9.365436348451727"><ele>749.0</ele><time>2026-05-01T15:59:27Z</time></trkpt><trkpt lat="44.79412631894139" lon="9.3652487059419"><ele>745.5</ele><time>2026-05-01T15:59:28Z</time></trkpt><trkpt lat="44.79416132287284" lon="9.36505955027003"><ele>742.0</ele><time>2026-05-01T15:59:29Z</time></trkpt><trkpt lat="44.79418207859893" lon="9.36487641771361"><ele>738.5</ele><time>2026-05-01T15:59:30Z</time></trkpt><trkpt lat="44.79418744383477" lon="9.364684054253738"><ele>735.0</ele><time>2026-05-01T15:59:31Z</time></trkpt><trkpt lat="44.794178990071444" lon="9.364492139443637"><ele>733.75</ele><time>2026-05-01T15:59:32Z</time></trkpt><trkpt lat="44.79416112043491" lon="9.364303324414612"><ele>732.5</ele><time>2026-05-01T15:59:33Z</time></trkpt><trkpt lat="44.79413618654866" lon="9.364118411431859"><ele>731.25</ele><time>2026-05-01T15:59:34Z</time></trkpt><trkpt lat="44.79410052026088" lon="9.363935299516628"><ele>730.0</ele><time>2026-05-01T15:59:35Z</time></trkpt><trkpt lat="44.794081284500955" lon="9.363747564673007"><ele>730.0</ele><time>2026-05-01T15:59:36Z</time></trkpt><trkpt lat="44.794047346915086" lon="9.363577944029112"><ele>730.0</ele><time>2026-05-01T15:59:37Z</time></trkpt><trkpt lat="44.79401342970118" lon="9.36341450908051"><ele>730.0</ele><time>2026-05-01T15:59:38Z</time></trkpt><trkpt lat="44.79398022465042" lon="9.363255505825764"><ele>730.0</ele><time>2026-05-01T15:59:39Z</time></trkpt><trkpt lat="44.79394661530793" lon="9.363095715117385"><ele>730.5</ele><time>2026-05-01T15:59:40Z</time></trkpt><trkpt lat="44.79391279790381" lon="9.362934934930733"><ele>731.0</ele><time>2026-05-01T15:59:41Z</time></trkpt><trkpt lat="44.79387773419998" lon="9.362768229865079"><ele>731.5</ele><time>2026-05-01T15:59:42Z</time></trkpt><trkpt lat="44.793842704673835" lon="9.362601687332646"><ele>732.0</ele><time>2026-05-01T15:59:43Z</time></trkpt><trkpt lat="44.79379141407452" lon="9.362440471638381"><ele>732.0</ele><time>2026-05-01T15:59:44Z</time></trkpt><trkpt lat="44.7937621437675" lon="9.362268905260109"><ele>732.0</ele><time>2026-05-01T15:59:45Z</time></trkpt><trkpt lat="44.79373292852324" lon="9.362102353717606"><ele>732.0</ele><time>2026-05-01T15:59:46Z</time></trkpt><trkpt lat="44.793700014774984" lon="9.361946772330516"><ele>732.0</ele><time>2026-05-01T15:59:47Z</time></trkpt><trkpt lat="44.79365033480781" lon="9.361795220750425"><ele>732.25</ele><time>2026-05-01T15:59:48Z</time></trkpt><trkpt lat="44.79360949647864" lon="9.36163750823876"><ele>732.5</ele><time>2026-05-01T15:59:49Z</time></trkpt><trkpt lat="44.79359052471815" lon="9.361472017628332"><ele>732.75</ele><time>2026-05-01T15:59:50Z</time></trkpt><trkpt lat="44.79354363621273" lon="9.361326503616848"><ele>733.0</ele><time>2026-05-01T15:59:51Z</time></trkpt><trkpt lat="44.79353089355286" lon="9.361182152698772"><ele>730.8</ele><time>2026-05-01T15:59:52Z</time></trkpt><trkpt lat="44.79350423831448" lon="9.36104826812976"><ele>728.5999999999999</ele><time>2026-05-01T15:59:53Z</time></trkpt><trkpt lat="44.79347986881936" lon="9.360921287930031"><ele>726.4000000000001</ele><time>2026-05-01T15:59:54Z</time></trkpt><trkpt lat="44.79344327108409" lon="9.360807107439854"><ele>724.2</ele><time>2026-05-01T15:59:55Z</time></trkpt><trkpt lat="44.79336901070459" lon="9.360725889206488"><ele>722.0</ele><time>2026-05-01T15:59:56Z</time></trkpt><trkpt lat="44.793288518434366" lon="9.360666595998579"><ele>722.0</ele><time>2026-05-01T15:59:57Z</time></trkpt><trkpt lat="44.79319396518754" lon="9.360642900593213"><ele>722.0</ele><time>2026-05-01T15:59:58Z</time></trkpt><trkpt lat="44.79309724804467" lon="9.36065195481389"><ele>722.0</ele><time>2026-05-01T15:59:59Z</time></trkpt><trkpt lat="44.79299527060431" lon="9.360696625513441"><ele>722.0</ele><time>2026-05-01T16:00:00Z</time></trkpt><trkpt lat="44.792909469310445" lon="9.36077112329172"><ele>722.0</ele><time>2026-05-01T16:00:01Z</time></trkpt><trkpt lat="44.79283173238739" lon="9.360833845645603"><ele>722.0</ele><time>2026-05-01T16:00:02Z</time></trkpt><trkpt lat="44.79276994469276" lon="9.36091380392314"><ele>722.0</ele><time>2026-05-01T16:00:03Z</time></trkpt><trkpt lat="44.7927137468544" lon="9.361002422894767"><ele>722.0</ele><time>2026-05-01T16:00:04Z</time></trkpt><trkpt lat="44.79265655051953" lon="9.361108551483893"><ele>722.0</ele><time>2026-05-01T16:00:04.999Z</time></trkpt><trkpt lat="44.792607545763815" lon="9.361178605580447"><ele>722.0</ele><time>2026-05-01T16:00:05.999Z</time></trkpt><trkpt lat="44.792469828653125" lon="9.361412449088423"><ele>720.2</ele><time>2026-05-01T16:00:06.999Z</time></trkpt><trkpt lat="44.792398702902645" lon="9.361526385384211"><ele>718.4000000000001</ele><time>2026-05-01T16:00:07.999Z</time></trkpt><trkpt lat="44.792316992618275" lon="9.361624512474915"><ele>716.5999999999999</ele><time>2026-05-01T16:00:08.999Z</time></trkpt><trkpt lat="44.792214410792205" lon="9.361673412527711"><ele>714.8</ele><time>2026-05-01T16:00:10Z</time></trkpt><trkpt lat="44.79211686595834" lon="9.361712706280167"><ele>713.0</ele><time>2026-05-01T16:00:11Z</time></trkpt><trkpt lat="44.79202311196792" lon="9.361712241902147"><ele>713.0</ele><time>2026-05-01T16:00:12Z</time></trkpt><trkpt lat="44.7919257758153" lon="9.361690059893107"><ele>713.0</ele><time>2026-05-01T16:00:13Z</time></trkpt><trkpt lat="44.791839648282455" lon="9.361618633110114"><ele>713.0</ele><time>2026-05-01T16:00:14Z</time></trkpt><trkpt lat="44.79175344643109" lon="9.361530334676122"><ele>713.0</ele><time>2026-05-01T16:00:15Z</time></trkpt><trkpt lat="44.791670135030216" lon="9.361421133216382"><ele>713.0</ele><time>2026-05-01T16:00:16Z</time></trkpt><trkpt lat="44.791595659198" lon="9.361286328784397"><ele>712.0</ele><time>2026-05-01T16:00:17Z</time></trkpt><trkpt lat="44.791518473038764" lon="9.361157957104096"><ele>711.0</ele><time>2026-05-01T16:00:18Z</time></trkpt><trkpt lat="44.79144278337378" lon="9.361039906198013"><ele>710.0</ele><time>2026-05-01T16:00:19Z</time></trkpt><trkpt lat="44.79136306374265" lon="9.360917774577675"><ele>709.0</ele><time>2026-05-01T16:00:20Z</time></trkpt><trkpt lat="44.79128534267574" lon="9.360801449691856"><ele>709.0</ele><time>2026-05-01T16:00:21Z</time></trkpt><trkpt lat="44.79121021977477" lon="9.360687339889367"><ele>709.0</ele><time>2026-05-01T16:00:22Z</time></trkpt><trkpt lat="44.79114379030245" lon="9.360569219481267"><ele>709.0</ele><time>2026-05-01T16:00:23Z</time></trkpt><trkpt lat="44.79109279762182" lon="9.360434781993797"><ele>709.0</ele><time>2026-05-01T16:00:24Z</time></trkpt><trkpt lat="44.79104791357304" lon="9.360268020498802"><ele>706.75</ele><time>2026-05-01T16:00:25Z</time></trkpt><trkpt lat="44.790997103332515" lon="9.360102336877578"><ele>704.5</ele><time>2026-05-01T16:00:26Z</time></trkpt><trkpt lat="44.7909268456599" lon="9.359938944286112"><ele>702.25</ele><time>2026-05-01T16:00:27Z</time></trkpt><trkpt lat="44.79083274550718" lon="9.359799069080626"><ele>700.0</ele><time>2026-05-01T16:00:28Z</time></trkpt><trkpt lat="44.79074199579732" lon="9.359641931853975"><ele>700.0</ele><time>2026-05-01T16:00:29Z</time></trkpt><trkpt lat="44.79063635349438" lon="9.359508961516283"><ele>700.0</ele><time>2026-05-01T16:00:30Z</time></trkpt><trkpt lat="44.79053141102611" lon="9.35937605733367"><ele>700.0</ele><time>2026-05-01T16:00:31Z</time></trkpt><trkpt lat="44.790428116894695" lon="9.359241428146289"><ele>700.0</ele><time>2026-05-01T16:00:32Z</time></trkpt><trkpt lat="44.79032499346354" lon="9.359105906228509"><ele>700.0</ele><time>2026-05-01T16:00:33Z</time></trkpt><trkpt lat="44.790225185645774" lon="9.358972895510195"><ele>700.0</ele><time>2026-05-01T16:00:34Z</time></trkpt><trkpt lat="44.79012484713668" lon="9.3588408048587"><ele>700.0</ele><time>2026-05-01T16:00:35Z</time></trkpt><trkpt lat="44.790025917920566" lon="9.358716407092647"><ele>700.0</ele><time>2026-05-01T16:00:36Z</time></trkpt><trkpt lat="44.78992649121913" lon="9.358599391026171"><ele>697.25</ele><time>2026-05-01T16:00:37Z</time></trkpt><trkpt lat="44.7898227057614" lon="9.358506082772296"><ele>694.5</ele><time>2026-05-01T16:00:38Z</time></trkpt><trkpt lat="44.78971145758105" lon="9.358433251879646"><ele>691.75</ele><time>2026-05-01T16:00:39Z</time></trkpt><trkpt lat="44.78959607969567" lon="9.35837585214185"><ele>689.0</ele><time>2026-05-01T16:00:40Z</time></trkpt><trkpt lat="44.78948034462998" lon="9.3583422266251"><ele>689.0</ele><time>2026-05-01T16:00:41Z</time></trkpt><trkpt lat="44.78936259957903" lon="9.358335584903514"><ele>689.0</ele><time>2026-05-01T16:00:42Z</time></trkpt><trkpt lat="44.78924740120894" lon="9.358355181048912"><ele>689.0</ele><time>2026-05-01T16:00:43Z</time></trkpt><trkpt lat="44.78913697668759" lon="9.35840013633718"><ele>689.0</ele><time>2026-05-01T16:00:44Z</time></trkpt><trkpt lat="44.789025673670025" lon="9.358458552776924"><ele>686.8000000000001</ele><time>2026-05-01T16:00:45Z</time></trkpt><trkpt lat="44.78891700340201" lon="9.358510417260101"><ele>684.6</ele><time>2026-05-01T16:00:46Z</time></trkpt><trkpt lat="44.78881085304524" lon="9.358552087971127"><ele>682.4</ele><time>2026-05-01T16:00:47Z</time></trkpt><trkpt lat="44.78870756586995" lon="9.358594743819063"><ele>680.2</ele><time>2026-05-01T16:00:48Z</time></trkpt><trkpt lat="44.78860527857549" lon="9.358630221364411"><ele>678.0</ele><time>2026-05-01T16:00:49Z</time></trkpt><trkpt lat="44.788508582968866" lon="9.358668909795963"><ele>676.5999999999999</ele><time>2026-05-01T16:00:50Z</time></trkpt><trkpt lat="44.78841544821013" lon="9.358706524381475"><ele>675.1999999999999</ele><time>2026-05-01T16:00:51Z</time></trkpt><trkpt lat="44.788327468638826" lon="9.358715669216263"><ele>673.8</ele><time>2026-05-01T16:00:52Z</time></trkpt><trkpt lat="44.78824741802766" lon="9.358684530496298"><ele>672.4</ele><time>2026-05-01T16:00:53Z</time></trkpt><trkpt lat="44.78817482723416" lon="9.358608396985016"><ele>671.0</ele><time>2026-05-01T16:00:54Z</time></trkpt><trkpt lat="44.788126433075455" lon="9.358482155513931"><ele>671.0</ele><time>2026-05-01T16:00:55Z</time></trkpt><trkpt lat="44.78804595127551" lon="9.35839842944138"><ele>671.0</ele><time>2026-05-01T16:00:56Z</time></trkpt><trkpt lat="44.787987819688404" lon="9.358294160464698"><ele>671.0</ele><time>2026-05-01T16:00:57Z</time></trkpt><trkpt lat="44.78792398927993" lon="9.358210550282614"><ele>671.0</ele><time>2026-05-01T16:00:58Z</time></trkpt><trkpt lat="44.7878628391965" lon="9.358122037231498"><ele>671.0</ele><time>2026-05-01T16:00:59Z</time></trkpt><trkpt lat="44.787803776680036" lon="9.358037307141867"><ele>670.5999999999999</ele><time>2026-05-01T16:01:00Z</time></trkpt><trkpt lat="44.787746900527715" lon="9.357946628686127"><ele>670.2</ele><time>2026-05-01T16:01:01Z</time></trkpt><trkpt lat="44.7876994473416" lon="9.357845446494908"><ele>669.8</ele><time>2026-05-01T16:01:02Z</time></trkpt><trkpt lat="44.787662121082576" lon="9.357728939529197"><ele>669.4000000000001</ele><time>2026-05-01T16:01:03Z</time></trkpt><trkpt lat="44.787655342884975" lon="9.357566791142828"><ele>669.0</ele><time>2026-05-01T16:01:04Z</time></trkpt><trkpt lat="44.78764704617552" lon="9.357371217029502"><ele>663.6666666666666</ele><time>2026-05-01T16:01:05Z</time></trkpt><trkpt lat="44.78763667055868" lon="9.357141557864024"><ele>658.3333333333333</ele><time>2026-05-01T16:01:06Z</time></trkpt><trkpt lat="44.78762454734823" lon="9.356873217142862"><ele>653.0</ele><time>2026-05-01T16:01:07Z</time></trkpt><trkpt lat="44.78760934559489" lon="9.356575989643007"><ele>653.0</ele><time>2026-05-01T16:01:08Z</time></trkpt><trkpt lat="44.78758782990813" lon="9.356307697933365"><ele>653.0</ele><time>2026-05-01T16:01:09Z</time></trkpt><trkpt lat="44.78755790305481" lon="9.356065596878965"><ele>653.0</ele><time>2026-05-01T16:01:10Z</time></trkpt><trkpt lat="44.787546441101355" lon="9.355854671778346"><ele>653.0</ele><time>2026-05-01T16:01:11Z</time></trkpt><trkpt lat="44.78752723347728" lon="9.355688634927706"><ele>653.0</ele><time>2026-05-01T16:01:12Z</time></trkpt><trkpt lat="44.78749601889994" lon="9.355546479286176"><ele>653.0</ele><time>2026-05-01T16:01:13Z</time></trkpt><trkpt lat="44.7874483101784" lon="9.355426408374802"><ele>653.0</ele><time>2026-05-01T16:01:14Z</time></trkpt><trkpt lat="44.78737911563341" lon="9.355338846866713"><ele>653.0</ele><time>2026-05-01T16:01:15Z</time></trkpt><trkpt lat="44.78727930990031" lon="9.355304739529911"><ele>653.5</ele><time>2026-05-01T16:01:16Z</time></trkpt><trkpt lat="44.787176388582104" lon="9.35531786408632"><ele>654.0</ele><time>2026-05-01T16:01:17Z</time></trkpt><trkpt lat="44.78706560283152" lon="9.355376724817212"><ele>654.5</ele><time>2026-05-01T16:01:18Z</time></trkpt><trkpt lat="44.786946789436705" lon="9.355461932628426"><ele>655.0</ele><time>2026-05-01T16:01:19Z</time></trkpt><trkpt lat="44.78680549184265" lon="9.355518584932367"><ele>650.0</ele><time>2026-05-01T16:01:20Z</time></trkpt><trkpt lat="44.78666085934976" lon="9.35559406730593"><ele>645.0</ele><time>2026-05-01T16:01:21Z</time></trkpt><trkpt lat="44.786514811654875" lon="9.355680567634437"><ele>640.0</ele><time>2026-05-01T16:01:22Z</time></trkpt><trkpt lat="44.786371416085494" lon="9.35575717201153"><ele>640.0</ele><time>2026-05-01T16:01:23Z</time></trkpt><trkpt lat="44.786236088735286" lon="9.35582726393056"><ele>640.0</ele><time>2026-05-01T16:01:24Z</time></trkpt><trkpt lat="44.78610158772059" lon="9.355894200842185"><ele>640.0</ele><time>2026-05-01T16:01:25Z</time></trkpt><trkpt lat="44.78597180107401" lon="9.355959195387776"><ele>640.0</ele><time>2026-05-01T16:01:26Z</time></trkpt><trkpt lat="44.78585270996762" lon="9.356040467328487"><ele>638.5</ele><time>2026-05-01T16:01:27Z</time></trkpt><trkpt lat="44.78575768812058" lon="9.35615425562362"><ele>637.0</ele><time>2026-05-01T16:01:28Z</time></trkpt><trkpt lat="44.78568324093922" lon="9.356296291592034"><ele>635.5</ele><time>2026-05-01T16:01:29Z</time></trkpt><trkpt lat="44.78561591439126" lon="9.356460288837532"><ele>634.0</ele><time>2026-05-01T16:01:30Z</time></trkpt><trkpt lat="44.78553757130836" lon="9.356615866133529"><ele>633.0</ele><time>2026-05-01T16:01:31Z</time></trkpt><trkpt lat="44.785433054598755" lon="9.356738594913821"><ele>632.0</ele><time>2026-05-01T16:01:32Z</time></trkpt><trkpt lat="44.78530426074574" lon="9.356853280747636"><ele>631.0</ele><time>2026-05-01T16:01:33Z</time></trkpt><trkpt lat="44.78516407001635" lon="9.356948918233272"><ele>630.0</ele><time>2026-05-01T16:01:34Z</time></trkpt><trkpt lat="44.785034866013895" lon="9.357022181187956"><ele>628.8333333333334</ele><time>2026-05-01T16:01:35Z</time></trkpt><trkpt lat="44.78492553011095" lon="9.357076165047376"><ele>627.6666666666666</ele><time>2026-05-01T16:01:36Z</time></trkpt><trkpt lat="44.784840312467985" lon="9.357093639111856"><ele>626.5</ele><time>2026-05-01T16:01:37Z</time></trkpt><trkpt lat="44.78477743924659" lon="9.357060345509954"><ele>625.3333333333333</ele><time>2026-05-01T16:01:38Z</time></trkpt><trkpt lat="44.78473120997792" lon="9.356961266166634"><ele>624.1666666666666</ele><time>2026-05-01T16:01:39Z</time></trkpt><trkpt lat="44.78466303155699" lon="9.356867605944826"><ele>623.0</ele><time>2026-05-01T16:01:40Z</time></trkpt><trkpt lat="44.78459232560445" lon="9.356739746881743"><ele>623.0</ele><time>2026-05-01T16:01:41Z</time></trkpt><trkpt lat="44.78451090678696" lon="9.356611195712437"><ele>623.0</ele><time>2026-05-01T16:01:42Z</time></trkpt><trkpt lat="44.784426180373295" lon="9.35650509060582"><ele>623.0</ele><time>2026-05-01T16:01:43Z</time></trkpt><trkpt lat="44.78432838492163" lon="9.356448019090953"><ele>623.0</ele><time>2026-05-01T16:01:44Z</time></trkpt><trkpt lat="44.78421641865692" lon="9.356419298840427"><ele>622.0</ele><time>2026-05-01T16:01:45Z</time></trkpt><trkpt lat="44.78408928189409" lon="9.356423829714048"><ele>621.0</ele><time>2026-05-01T16:01:46Z</time></trkpt><trkpt lat="44.783948219607076" lon="9.35645032160787"><ele>620.0</ele><time>2026-05-01T16:01:47Z</time></trkpt><trkpt lat="44.78379566206343" lon="9.35647808973328"><ele>619.0</ele><time>2026-05-01T16:01:48Z</time></trkpt><trkpt lat="44.78364115607885" lon="9.356498276518886"><ele>617.5</ele><time>2026-05-01T16:01:49Z</time></trkpt><trkpt lat="44.78349567201602" lon="9.356498667218851"><ele>616.0</ele><time>2026-05-01T16:01:50.001Z</time></trkpt><trkpt lat="44.783359349322716" lon="9.356487878071707"><ele>614.5</ele><time>2026-05-01T16:01:51.001Z</time></trkpt><trkpt lat="44.78324714150618" lon="9.356412242481792"><ele>613.0</ele><time>2026-05-01T16:01:52.001Z</time></trkpt><trkpt lat="44.783139583404726" lon="9.35633757561969"><ele>612.1999999999999</ele><time>2026-05-01T16:01:53.001Z</time></trkpt><trkpt lat="44.78303123782337" lon="9.35628110952246"><ele>611.4</ele><time>2026-05-01T16:01:54.001Z</time></trkpt><trkpt lat="44.78292958175244" lon="9.356233106926767"><ele>610.5999999999999</ele><time>2026-05-01T16:01:55.001Z</time></trkpt><trkpt lat="44.78282879749875" lon="9.356258230045079"><ele>609.8</ele><time>2026-05-01T16:01:56.001Z</time></trkpt><trkpt lat="44.7827424295018" lon="9.356322312180374"><ele>609.0</ele><time>2026-05-01T16:01:57.001Z</time></trkpt><trkpt lat="44.78267194259579" lon="9.356407579049069"><ele>609.8</ele><time>2026-05-01T16:01:58.001Z</time></trkpt><trkpt lat="44.782644701792854" lon="9.356508893178521"><ele>610.5999999999999</ele><time>2026-05-01T16:01:59.001Z</time></trkpt><trkpt lat="44.78265230620193" lon="9.356622480236426"><ele>611.4</ele><time>2026-05-01T16:02:00.001Z</time></trkpt><trkpt lat="44.78268678172657" lon="9.356744063810636"><ele>612.1999999999999</ele><time>2026-05-01T16:02:01.001Z</time></trkpt><trkpt lat="44.78275493525904" lon="9.356881400018942"><ele>613.0</ele><time>2026-05-01T16:02:02.001Z</time></trkpt><trkpt lat="44.782830659829024" lon="9.357033193484279"><ele>613.0</ele><time>2026-05-01T16:02:03.001Z</time></trkpt><trkpt lat="44.78291443232627" lon="9.357193226802021"><ele>613.0</ele><time>2026-05-01T16:02:04.001Z</time></trkpt><trkpt lat="44.78298612441692" lon="9.357342080135567"><ele>613.0</ele><time>2026-05-01T16:02:05.001Z</time></trkpt><trkpt lat="44.783054996813696" lon="9.35748005407086"><ele>613.0</ele><time>2026-05-01T16:02:06.001Z</time></trkpt><trkpt lat="44.783104039868" lon="9.357607437562045"><ele>611.6</ele><time>2026-05-01T16:02:07.001Z</time></trkpt><trkpt lat="44.783116337474986" lon="9.357727313131436"><ele>610.1999999999999</ele><time>2026-05-01T16:02:08.001Z</time></trkpt><trkpt lat="44.78309380086721" lon="9.357837540690497"><ele>608.8</ele><time>2026-05-01T16:02:09.001Z</time></trkpt><trkpt lat="44.78302350378212" lon="9.35791978172861"><ele>607.4</ele><time>2026-05-01T16:02:10.001Z</time></trkpt><trkpt lat="44.782934817485554" lon="9.35799504755902"><ele>606.0</ele><time>2026-05-01T16:02:10.999Z</time></trkpt><trkpt lat="44.7828392883652" lon="9.358101934102507"><ele>603.75</ele><time>2026-05-01T16:02:11.999Z</time></trkpt><trkpt lat="44.78274571100749" lon="9.358221253429518"><ele>601.5</ele><time>2026-05-01T16:02:12.999Z</time></trkpt><trkpt lat="44.78264157425295" lon="9.3583171519559"><ele>599.25</ele><time>2026-05-01T16:02:13.999Z</time></trkpt><trkpt lat="44.78256429729455" lon="9.358418143610693"><ele>597.0</ele><time>2026-05-01T16:02:14.999Z</time></trkpt><trkpt lat="44.78250776982919" lon="9.358524012098158"><ele>595.8000000000001</ele><time>2026-05-01T16:02:15.999Z</time></trkpt><trkpt lat="44.78247836914567" lon="9.358639998779681"><ele>594.6</ele><time>2026-05-01T16:02:16.999Z</time></trkpt><trkpt lat="44.78249547088323" lon="9.358756982193484"><ele>593.4000000000001</ele><time>2026-05-01T16:02:17.999Z</time></trkpt><trkpt lat="44.78253913501705" lon="9.358853365634042"><ele>592.2</ele><time>2026-05-01T16:02:18.999Z</time></trkpt><trkpt lat="44.7826179667193" lon="9.358936082250572"><ele>591.0</ele><time>2026-05-01T16:02:19.999Z</time></trkpt><trkpt lat="44.782701929874136" lon="9.35903187563373"><ele>591.0</ele><time>2026-05-01T16:02:20.999Z</time></trkpt><trkpt lat="44.7827948030635" lon="9.359147118978376"><ele>591.0</ele><time>2026-05-01T16:02:21.999Z</time></trkpt><trkpt lat="44.78287560582914" lon="9.359261909389451"><ele>591.0</ele><time>2026-05-01T16:02:22.999Z</time></trkpt><trkpt lat="44.78294073257821" lon="9.35938164863566"><ele>591.0</ele><time>2026-05-01T16:02:23.999Z</time></trkpt><trkpt lat="44.7829827487104" lon="9.35951233598816"><ele>591.0</ele><time>2026-05-01T16:02:24.999Z</time></trkpt><trkpt lat="44.78298954320079" lon="9.35965697951495"><ele>589.2</ele><time>2026-05-01T16:02:25.999Z</time></trkpt><trkpt lat="44.78296046100692" lon="9.359802353303646"><ele>587.4000000000001</ele><time>2026-05-01T16:02:26.999Z</time></trkpt><trkpt lat="44.78289756506913" lon="9.359931887018634"><ele>585.6</ele><time>2026-05-01T16:02:27.999Z</time></trkpt><trkpt lat="44.78281458288353" lon="9.360027242049716"><ele>583.8000000000001</ele><time>2026-05-01T16:02:28.999Z</time></trkpt><trkpt lat="44.78273033324908" lon="9.360094468582272"><ele>582.0</ele><time>2026-05-01T16:02:29.999Z</time></trkpt><trkpt lat="44.782639504155405" lon="9.360127568603552"><ele>580.5</ele><time>2026-05-01T16:02:30.999Z</time></trkpt><trkpt lat="44.78254316842203" lon="9.360116720433275"><ele>579.0</ele><time>2026-05-01T16:02:31.999Z</time></trkpt><trkpt lat="44.78244289524183" lon="9.360040553264813"><ele>577.5</ele><time>2026-05-01T16:02:32.999Z</time></trkpt><trkpt lat="44.78231395256861" lon="9.359974005063"><ele>576.0</ele><time>2026-05-01T16:02:33.999Z</time></trkpt><trkpt lat="44.782180458721406" lon="9.359920360240265"><ele>576.0</ele><time>2026-05-01T16:02:34.999Z</time></trkpt><trkpt lat="44.78206634265044" lon="9.359853930504626"><ele>576.0</ele><time>2026-05-01T16:02:35.999Z</time></trkpt><trkpt lat="44.78195614484431" lon="9.359796823332143"><ele>576.0</ele><time>2026-05-01T16:02:36.999Z</time></trkpt><trkpt lat="44.78185498280003" lon="9.35974440066898"><ele>576.0</ele><time>2026-05-01T16:02:37.999Z</time></trkpt><trkpt lat="44.78177589835667" lon="9.3597032283106"><ele>576.0</ele><time>2026-05-01T16:02:38.999Z</time></trkpt><trkpt lat="44.78171323344036" lon="9.359668969151391"><ele>576.0</ele><time>2026-05-01T16:02:39.999Z</time></trkpt><trkpt lat="44.78165076508023" lon="9.359635052890413"><ele>576.0</ele><time>2026-05-01T16:02:43Z</time></trkpt><trkpt lat="44.78176887458534" lon="9.359698438245413"><ele>576.0</ele><time>2026-05-01T16:03:23Z</time></trkpt><trkpt lat="44.781848102716445" lon="9.359736371671906"><ele>576.0</ele><time>2026-05-01T16:03:24Z</time></trkpt><trkpt lat="44.781868230764424" lon="9.359504414966818"><ele>576.0</ele><time>2026-05-01T16:03:25Z</time></trkpt><trkpt lat="44.7823048741545" lon="9.359995503148198"><ele>576.0000000000001</ele><time>2026-05-01T16:03:29Z</time></trkpt><trkpt lat="44.78236243768636" lon="9.360044701277744"><ele>576.0</ele><time>2026-05-01T16:03:31Z</time></trkpt><trkpt lat="44.78233453342122" lon="9.36014212359854"><ele>576.0</ele><time>2026-05-01T16:04:05.001Z</time></trkpt><trkpt lat="44.78227191422085" lon="9.360169863055798"><ele>576.0</ele><time>2026-05-01T16:04:07.001Z</time></trkpt><trkpt lat="44.782189682261546" lon="9.360198576606662"><ele>576.0</ele><time>2026-05-01T16:04:09.001Z</time></trkpt><trkpt lat="44.782120890576294" lon="9.360220842567635"><ele>576.0000000000001</ele><time>2026-05-01T16:04:11.001Z</time></trkpt><trkpt lat="44.78204301105286" lon="9.360252522374601"><ele>576.0</ele><time>2026-05-01T16:04:14.001Z</time></trkpt><trkpt lat="44.781974167212056" lon="9.360285321506474"><ele>576.0</ele><time>2026-05-01T16:04:17Z</time></trkpt><trkpt lat="44.78191215026567" lon="9.360314856083644"><ele>576.0</ele><time>2026-05-01T16:04:20Z</time></trkpt><trkpt lat="44.78184926143525" lon="9.360340994456626"><ele>576.0</ele><time>2026-05-01T16:04:29Z</time></trkpt><trkpt lat="44.78176114667373" lon="9.36038960467723"><ele>576.0</ele><time>2026-05-01T16:04:34Z</time></trkpt><trkpt lat="44.78167415514071" lon="9.360395658765432"><ele>576.0</ele><time>2026-05-01T16:04:36Z</time></trkpt><trkpt lat="44.78159471458011" lon="9.360420433688397"><ele>576.0</ele><time>2026-05-01T16:04:38Z</time></trkpt><trkpt lat="44.78152091790393" lon="9.360467602818145"><ele>573.8</ele><time>2026-05-01T16:04:40Z</time></trkpt><trkpt lat="44.78142913257257" lon="9.360503018450714"><ele>571.6</ele><time>2026-05-01T16:04:42Z</time></trkpt><trkpt lat="44.78135476374068" lon="9.360554570721886"><ele>569.4</ele><time>2026-05-01T16:04:44Z</time></trkpt><trkpt lat="44.78131715537053" lon="9.360679364948636"><ele>567.2</ele><time>2026-05-01T16:04:46Z</time></trkpt><trkpt lat="44.78127183040256" lon="9.360789812863858"><ele>565.0</ele><time>2026-05-01T16:04:48Z</time></trkpt><trkpt lat="44.78124128992211" lon="9.36091803015729"><ele>562.8</ele><time>2026-05-01T16:04:50Z</time></trkpt><trkpt lat="44.781186344300096" lon="9.361009575069783"><ele>560.6</ele><time>2026-05-01T16:04:52Z</time></trkpt><trkpt lat="44.781099627289194" lon="9.361054135434868"><ele>558.4</ele><time>2026-05-01T16:04:54Z</time></trkpt><trkpt lat="44.78103423185325" lon="9.36114799194247"><ele>556.2</ele><time>2026-05-01T16:04:56Z</time></trkpt><trkpt lat="44.78095506936365" lon="9.361213496098136"><ele>554.0</ele><time>2026-05-01T16:04:58Z</time></trkpt><trkpt lat="44.780882689552215" lon="9.361326678875583"><ele>553.2</ele><time>2026-05-01T16:05:00Z</time></trkpt><trkpt lat="44.78084464827433" lon="9.361485657418983"><ele>552.4</ele><time>2026-05-01T16:05:02Z</time></trkpt><trkpt lat="44.7808001766096" lon="9.361606403102137"><ele>551.6</ele><time>2026-05-01T16:05:04Z</time></trkpt><trkpt lat="44.780830187877314" lon="9.361739309815794"><ele>550.8</ele><time>2026-05-01T16:05:06Z</time></trkpt><trkpt lat="44.780838639055354" lon="9.36186629170117"><ele>550.0</ele><time>2026-05-01T16:05:08Z</time></trkpt><trkpt lat="44.780825020824274" lon="9.361970587492022"><ele>550.0</ele><time>2026-05-01T16:05:10Z</time></trkpt><trkpt lat="44.78079211134404" lon="9.362083138456741"><ele>550.0</ele><time>2026-05-01T16:05:12Z</time></trkpt><trkpt lat="44.780702774242755" lon="9.362143187255741"><ele>550.0</ele><time>2026-05-01T16:05:14Z</time></trkpt><trkpt lat="44.7806207102031" lon="9.362189419932653"><ele>550.0</ele><time>2026-05-01T16:05:16Z</time></trkpt><trkpt lat="44.780535297579256" lon="9.362246959025207"><ele>550.0</ele><time>2026-05-01T16:05:18Z</time></trkpt><trkpt lat="44.78044861124668" lon="9.362267055759263"><ele>549.0</ele><time>2026-05-01T16:05:20Z</time></trkpt><trkpt lat="44.78034690547769" lon="9.362316031583974"><ele>548.0</ele><time>2026-05-01T16:05:22Z</time></trkpt><trkpt lat="44.78024483857891" lon="9.36237068468756"><ele>547.0</ele><time>2026-05-01T16:05:24.001Z</time></trkpt><trkpt lat="44.78014757990223" lon="9.362457454563806"><ele>546.0</ele><time>2026-05-01T16:05:26.001Z</time></trkpt><trkpt lat="44.78008883248881" lon="9.36249152814652"><ele>545.0</ele><time>2026-05-01T16:05:27.001Z</time></trkpt><trkpt lat="44.77999814660327" lon="9.362528919893352"><ele>545.0</ele><time>2026-05-01T16:05:29.001Z</time></trkpt><trkpt lat="44.779912325188505" lon="9.362533691960056"><ele>545.0</ele><time>2026-05-01T16:05:31.001Z</time></trkpt><trkpt lat="44.77983378769832" lon="9.362519828644174"><ele>545.0</ele><time>2026-05-01T16:05:33.001Z</time></trkpt><trkpt lat="44.77973663618804" lon="9.36251121411435"><ele>545.0</ele><time>2026-05-01T16:05:36.001Z</time></trkpt><trkpt lat="44.77967633555371" lon="9.362478244893921"><ele>545.0</ele><time>2026-05-01T16:05:39.001Z</time></trkpt><trkpt lat="44.779608958790625" lon="9.362443926554294"><ele>545.0</ele><time>2026-05-01T16:05:43.001Z</time></trkpt><trkpt lat="44.77954346596828" lon="9.362434611055116"><ele>545.0</ele><time>2026-05-01T16:05:47.001Z</time></trkpt><trkpt lat="44.77944564662474" lon="9.362410658632164"><ele>545.0</ele><time>2026-05-01T16:05:51.001Z</time></trkpt><trkpt lat="44.77936478234883" lon="9.362420525595658"><ele>545.0</ele><time>2026-05-01T16:05:53.001Z</time></trkpt><trkpt lat="44.77924120574414" lon="9.36243313105398"><ele>545.0</ele><time>2026-05-01T16:05:55.001Z</time></trkpt><trkpt lat="44.779178113490424" lon="9.362450334831982"><ele>545.0</ele><time>2026-05-01T16:05:56.001Z</time></trkpt><trkpt lat="44.77911539646" lon="9.362478137041697"><ele>545.0</ele><time>2026-05-01T16:05:57.001Z</time></trkpt><trkpt lat="44.779055685058616" lon="9.362510124122293"><ele>543.3333333333333</ele><time>2026-05-01T16:05:58.001Z</time></trkpt><trkpt lat="44.7789815715068" lon="9.362558905823152"><ele>541.6666666666666</ele><time>2026-05-01T16:06:00.001Z</time></trkpt><trkpt lat="44.778906071037326" lon="9.362624448274206"><ele>540.0</ele><time>2026-05-01T16:06:03.001Z</time></trkpt><trkpt lat="44.77885616232353" lon="9.362678848709141"><ele>538.3333333333334</ele><time>2026-05-01T16:06:06.001Z</time></trkpt><trkpt lat="44.778795148683315" lon="9.362782674514092"><ele>536.6666666666667</ele><time>2026-05-01T16:06:09.001Z</time></trkpt><trkpt lat="44.77874314196184" lon="9.362838829719557"><ele>535.0</ele><time>2026-05-01T16:06:11.001Z</time></trkpt><trkpt lat="44.778710038371756" lon="9.362923532927718"><ele>535.0</ele><time>2026-05-01T16:06:13.001Z</time></trkpt><trkpt lat="44.77865778989739" lon="9.363002244843146"><ele>535.0</ele><time>2026-05-01T16:06:16.001Z</time></trkpt><trkpt lat="44.77862402195046" lon="9.363095088983707"><ele>535.0</ele><time>2026-05-01T16:06:19.001Z</time></trkpt><trkpt lat="44.77857817715761" lon="9.36317271539049"><ele>535.0</ele><time>2026-05-01T16:06:22.001Z</time></trkpt><trkpt lat="44.778536151937224" lon="9.363239598191418"><ele>535.0</ele><time>2026-05-01T16:06:25Z</time></trkpt><trkpt lat="44.77848842159276" lon="9.363344547528607"><ele>535.0</ele><time>2026-05-01T16:06:28Z</time></trkpt><trkpt lat="44.778443078672126" lon="9.363466240450025"><ele>532.1428571428571</ele><time>2026-05-01T16:06:31Z</time></trkpt><trkpt lat="44.77839948920792" lon="9.363557326665843"><ele>529.2857142857143</ele><time>2026-05-01T16:06:34Z</time></trkpt><trkpt lat="44.77836460056114" lon="9.36363755383045"><ele>526.4285714285714</ele><time>2026-05-01T16:06:36Z</time></trkpt><trkpt lat="44.77831302454065" lon="9.363756654868055"><ele>523.5714285714286</ele><time>2026-05-01T16:06:39Z</time></trkpt><trkpt lat="44.778292784153976" lon="9.36384492873244"><ele>520.7142857142857</ele><time>2026-05-01T16:06:41Z</time></trkpt><trkpt lat="44.778252288714114" lon="9.363931206762135"><ele>517.8571428571429</ele><time>2026-05-01T16:06:43Z</time></trkpt><trkpt lat="44.7782194431442" lon="9.364010411040452"><ele>515.0</ele><time>2026-05-01T16:06:45Z</time></trkpt><trkpt lat="44.77818046202749" lon="9.364098053205142"><ele>512.4</ele><time>2026-05-01T16:06:47Z</time></trkpt><trkpt lat="44.77812703887483" lon="9.364191112020093"><ele>509.8</ele><time>2026-05-01T16:06:49Z</time></trkpt><trkpt lat="44.778067741640946" lon="9.364273892561211"><ele>507.20000000000005</ele><time>2026-05-01T16:06:51Z</time></trkpt><trkpt lat="44.777986098846995" lon="9.364394038540844"><ele>504.6</ele><time>2026-05-01T16:06:53Z</time></trkpt><trkpt lat="44.777909221570866" lon="9.364486073445073"><ele>502.0</ele><time>2026-05-01T16:06:55Z</time></trkpt><trkpt lat="44.77786003958706" lon="9.364571715285503"><ele>500.8</ele><time>2026-05-01T16:06:57Z</time></trkpt><trkpt lat="44.77781158828502" lon="9.364700465507273"><ele>499.6</ele><time>2026-05-01T16:07:00Z</time></trkpt><trkpt lat="44.77777043808749" lon="9.364784210231168"><ele>498.40000000000003</ele><time>2026-05-01T16:07:02Z</time></trkpt><trkpt lat="44.777736128725905" lon="9.364893069852819"><ele>497.20000000000005</ele><time>2026-05-01T16:07:04Z</time></trkpt><trkpt lat="44.77769901824755" lon="9.365040012938476"><ele>496.0</ele><time>2026-05-01T16:07:06Z</time></trkpt><trkpt lat="44.777648253453485" lon="9.365234539770965"><ele>496.0</ele><time>2026-05-01T16:07:08Z</time></trkpt><trkpt lat="44.77763523376868" lon="9.36534190975862"><ele>496.0</ele><time>2026-05-01T16:07:09Z</time></trkpt><trkpt lat="44.777579884709084" lon="9.365500563440389"><ele>496.0</ele><time>2026-05-01T16:07:11Z</time></trkpt><trkpt lat="44.77754679927974" lon="9.365578232063335"><ele>496.0</ele><time>2026-05-01T16:07:12Z</time></trkpt><trkpt lat="44.777513144458126" lon="9.365665492344363"><ele>496.0</ele><time>2026-05-01T16:07:13Z</time></trkpt><trkpt lat="44.77746765187739" lon="9.36582566428884"><ele>495.20000000000005</ele><time>2026-05-01T16:07:15Z</time></trkpt><trkpt lat="44.777439861546625" lon="9.365909978955647"><ele>494.40000000000003</ele><time>2026-05-01T16:07:16Z</time></trkpt><trkpt lat="44.77737951698628" lon="9.366052512031695"><ele>493.6</ele><time>2026-05-01T16:07:18Z</time></trkpt><trkpt lat="44.777296365594495" lon="9.366165637178518"><ele>492.8</ele><time>2026-05-01T16:07:20Z</time></trkpt><trkpt lat="44.77723266878399" lon="9.366272728050019"><ele>492.0</ele><time>2026-05-01T16:07:22.001Z</time></trkpt><trkpt lat="44.77717599420834" lon="9.366392998729667"><ele>490.40000000000003</ele><time>2026-05-01T16:07:24.001Z</time></trkpt><trkpt lat="44.777128697141166" lon="9.366523987675402"><ele>488.80000000000007</ele><time>2026-05-01T16:07:26.001Z</time></trkpt><trkpt lat="44.77704352909372" lon="9.366631940775244"><ele>487.2</ele><time>2026-05-01T16:07:28.001Z</time></trkpt><trkpt lat="44.77697540282511" lon="9.366645327259446"><ele>485.6</ele><time>2026-05-01T16:07:29.001Z</time></trkpt><trkpt lat="44.77688254039451" lon="9.366741646702435"><ele>484.0</ele><time>2026-05-01T16:07:31.001Z</time></trkpt><trkpt lat="44.77679393932258" lon="9.366811628799045"><ele>483.33333333333337</ele><time>2026-05-01T16:07:33.001Z</time></trkpt><trkpt lat="44.776713542407975" lon="9.366904609100843"><ele>482.6666666666667</ele><time>2026-05-01T16:07:35.001Z</time></trkpt><trkpt lat="44.7766472459575" lon="9.3669769984416"><ele>482.0</ele><time>2026-05-01T16:07:36.001Z</time></trkpt><trkpt lat="44.77659094288981" lon="9.367038475976175"><ele>481.33333333333337</ele><time>2026-05-01T16:07:37.001Z</time></trkpt><trkpt lat="44.776517003755885" lon="9.367117508878192"><ele>480.6666666666667</ele><time>2026-05-01T16:07:39.001Z</time></trkpt><trkpt lat="44.776447668596106" lon="9.367197919722596"><ele>480.0</ele><time>2026-05-01T16:07:41.001Z</time></trkpt><trkpt lat="44.77637363555626" lon="9.367291998818054"><ele>479.6</ele><time>2026-05-01T16:07:43.001Z</time></trkpt><trkpt lat="44.77630161659846" lon="9.36740589832883"><ele>479.2</ele><time>2026-05-01T16:07:45.001Z</time></trkpt><trkpt lat="44.77626139532816" lon="9.367477508346816"><ele>478.79999999999995</ele><time>2026-05-01T16:07:46.001Z</time></trkpt><trkpt lat="44.77620320160041" lon="9.367627826970836"><ele>478.4</ele><time>2026-05-01T16:07:48.001Z</time></trkpt><trkpt lat="44.77613479631593" lon="9.367746882919052"><ele>478.0</ele><time>2026-05-01T16:07:50.001Z</time></trkpt><trkpt lat="44.7761005035757" lon="9.367886481403236"><ele>478.0</ele><time>2026-05-01T16:07:52.001Z</time></trkpt><trkpt lat="44.776058379698526" lon="9.367954128597116"><ele>477.99999999999994</ele><time>2026-05-01T16:07:53.001Z</time></trkpt><trkpt lat="44.7760011045237" lon="9.368104501630377"><ele>477.99999999999994</ele><time>2026-05-01T16:07:55.001Z</time></trkpt><trkpt lat="44.775926336476964" lon="9.368239453270476"><ele>478.0</ele><time>2026-05-01T16:07:57.001Z</time></trkpt><trkpt lat="44.77588181058175" lon="9.368312876543262"><ele>478.0</ele><time>2026-05-01T16:07:58.001Z</time></trkpt><trkpt lat="44.77581520818596" lon="9.368433032494552"><ele>477.59999999999997</ele><time>2026-05-01T16:08:00.001Z</time></trkpt><trkpt lat="44.7757445808044" lon="9.368572472104406"><ele>477.19999999999993</ele><time>2026-05-01T16:08:02.001Z</time></trkpt><trkpt lat="44.775686596941334" lon="9.368693403008292"><ele>476.8</ele><time>2026-05-01T16:08:04.001Z</time></trkpt><trkpt lat="44.77563158904938" lon="9.36878826884826"><ele>476.4</ele><time>2026-05-01T16:08:06.001Z</time></trkpt><trkpt lat="44.77560775958173" lon="9.368876649009495"><ele>476.0</ele><time>2026-05-01T16:08:08.001Z</time></trkpt><trkpt lat="44.775564089594745" lon="9.368954195444319"><ele>475.0</ele><time>2026-05-01T16:08:10.001Z</time></trkpt><trkpt lat="44.77553002792769" lon="9.369052408066581"><ele>474.0</ele><time>2026-05-01T16:08:12.001Z</time></trkpt><trkpt lat="44.775527359035365" lon="9.369228791085854"><ele>473.0</ele><time>2026-05-01T16:08:14.001Z</time></trkpt><trkpt lat="44.77549291777578" lon="9.36935884578188"><ele>472.0</ele><time>2026-05-01T16:08:16.001Z</time></trkpt><trkpt lat="44.77545832460921" lon="9.369479707385523"><ele>471.0</ele><time>2026-05-01T16:08:18.001Z</time></trkpt><trkpt lat="44.775422500221836" lon="9.369607586940917"><ele>468.0</ele><time>2026-05-01T16:08:20.001Z</time></trkpt><trkpt lat="44.775397558586306" lon="9.369772145171025"><ele>465.0</ele><time>2026-05-01T16:08:22.001Z</time></trkpt><trkpt lat="44.775364671384644" lon="9.369852284840734"><ele>462.0</ele><time>2026-05-01T16:08:23.001Z</time></trkpt><trkpt lat="44.775331607436314" lon="9.370005291834916"><ele>459.0</ele><time>2026-05-01T16:08:25.001Z</time></trkpt><trkpt lat="44.775298611629864" lon="9.370139817950742"><ele>456.0</ele><time>2026-05-01T16:08:27.001Z</time></trkpt><trkpt lat="44.77525658728849" lon="9.370282769619976"><ele>456.0</ele><time>2026-05-01T16:08:29Z</time></trkpt><trkpt lat="44.77521229754494" lon="9.370429601782632"><ele>456.0</ele><time>2026-05-01T16:08:31Z</time></trkpt><trkpt lat="44.775204752858315" lon="9.370591279619182"><ele>456.0</ele><time>2026-05-01T16:08:33Z</time></trkpt><trkpt lat="44.7752009304182" lon="9.370745708207634"><ele>456.0</ele><time>2026-05-01T16:08:35Z</time></trkpt><trkpt lat="44.775174692782905" lon="9.370896457580878"><ele>456.0</ele><time>2026-05-01T16:08:37Z</time></trkpt><trkpt lat="44.775153343298555" lon="9.371048135128301"><ele>459.0</ele><time>2026-05-01T16:08:39Z</time></trkpt><trkpt lat="44.77516216496469" lon="9.37113842569481"><ele>462.0</ele><time>2026-05-01T16:08:40Z</time></trkpt><trkpt lat="44.775176175691755" lon="9.371229987529377"><ele>465.0</ele><time>2026-05-01T16:08:41Z</time></trkpt><trkpt lat="44.775189421430625" lon="9.371390495316875"><ele>468.0</ele><time>2026-05-01T16:08:43Z</time></trkpt><trkpt lat="44.77520893611434" lon="9.371557450580024"><ele>471.0</ele><time>2026-05-01T16:08:45Z</time></trkpt><trkpt lat="44.775189409850086" lon="9.371723935335531"><ele>468.6666666666667</ele><time>2026-05-01T16:08:47Z</time></trkpt><trkpt lat="44.775178964870484" lon="9.371824214965104"><ele>466.33333333333337</ele><time>2026-05-01T16:08:48Z</time></trkpt><trkpt lat="44.775165129808805" lon="9.371927235442769"><ele>464.0</ele><time>2026-05-01T16:08:49Z</time></trkpt><trkpt lat="44.77515104448722" lon="9.372021015800945"><ele>461.6666666666667</ele><time>2026-05-01T16:08:50Z</time></trkpt><trkpt lat="44.77511637519969" lon="9.372175186623934"><ele>459.33333333333337</ele><time>2026-05-01T16:08:52Z</time></trkpt><trkpt lat="44.77509074683137" lon="9.372321333335075"><ele>457.0</ele><time>2026-05-01T16:08:54Z</time></trkpt><trkpt lat="44.77505105079937" lon="9.372432417557782"><ele>455.1666666666667</ele><time>2026-05-01T16:08:56Z</time></trkpt><trkpt lat="44.77496388352001" lon="9.372508578266125"><ele>453.33333333333337</ele><time>2026-05-01T16:08:58Z</time></trkpt><trkpt lat="44.774926249241744" lon="9.372620804537624"><ele>451.5</ele><time>2026-05-01T16:09:00Z</time></trkpt><trkpt lat="44.774884201629646" lon="9.372706509119073"><ele>449.66666666666663</ele><time>2026-05-01T16:09:03Z</time></trkpt><trkpt lat="44.7748674146439" lon="9.372804132354734"><ele>447.8333333333333</ele><time>2026-05-01T16:09:12Z</time></trkpt><trkpt lat="44.7748558342351" lon="9.372906865156287"><ele>446.0</ele><time>2026-05-01T16:09:19Z</time></trkpt><trkpt lat="44.774847588173024" lon="9.372999856087176"><ele>443.6</ele><time>2026-05-01T16:09:22Z</time></trkpt><trkpt lat="44.774858230631374" lon="9.3731316402726"><ele>441.20000000000005</ele><time>2026-05-01T16:09:24Z</time></trkpt><trkpt lat="44.774858123875916" lon="9.373289924661954"><ele>438.79999999999995</ele><time>2026-05-01T16:09:26Z</time></trkpt><trkpt lat="44.774850212885056" lon="9.373432614028708"><ele>436.4</ele><time>2026-05-01T16:09:28Z</time></trkpt><trkpt lat="44.774815425486445" lon="9.373587333286682"><ele>434.0</ele><time>2026-05-01T16:09:30Z</time></trkpt><trkpt lat="44.77475982589408" lon="9.373753096645574"><ele>434.0</ele><time>2026-05-01T16:09:32Z</time></trkpt><trkpt lat="44.774731705542095" lon="9.373838597041944"><ele>434.0</ele><time>2026-05-01T16:09:33Z</time></trkpt><trkpt lat="44.7746949575234" lon="9.373975240516392"><ele>434.0</ele><time>2026-05-01T16:09:35.001Z</time></trkpt><trkpt lat="44.77465671846476" lon="9.374123873276528"><ele>434.0</ele><time>2026-05-01T16:09:37.001Z</time></trkpt><trkpt lat="44.774614269303314" lon="9.374227609535588"><ele>434.0</ele><time>2026-05-01T16:09:39.001Z</time></trkpt><trkpt lat="44.77455147023437" lon="9.374349355462735"><ele>432.6</ele><time>2026-05-01T16:09:41.001Z</time></trkpt><trkpt lat="44.77449476329852" lon="9.374472437260437"><ele>431.2</ele><time>2026-05-01T16:09:43.001Z</time></trkpt><trkpt lat="44.774438351688744" lon="9.374584766920938"><ele>429.80000000000007</ele><time>2026-05-01T16:09:45.001Z</time></trkpt><trkpt lat="44.77438431605061" lon="9.374681542154423"><ele>428.40000000000003</ele><time>2026-05-01T16:09:47.001Z</time></trkpt><trkpt lat="44.77433211109178" lon="9.374772633639747"><ele>427.0</ele><time>2026-05-01T16:09:49.001Z</time></trkpt><trkpt lat="44.77426274229936" lon="9.37488129882719"><ele>425.42857142857144</ele><time>2026-05-01T16:09:51.001Z</time></trkpt><trkpt lat="44.77421810592775" lon="9.374949820152091"><ele>423.8571428571429</ele><time>2026-05-01T16:09:52.001Z</time></trkpt><trkpt lat="44.7741741565924" lon="9.37502994219938"><ele>422.2857142857143</ele><time>2026-05-01T16:09:53.001Z</time></trkpt><trkpt lat="44.77413695633414" lon="9.37511721908368"><ele>420.7142857142857</ele><time>2026-05-01T16:09:54.001Z</time></trkpt><trkpt lat="44.774094958457745" lon="9.3752024890731"><ele>419.14285714285717</ele><time>2026-05-01T16:09:55.001Z</time></trkpt><trkpt lat="44.77405706232166" lon="9.375290728316907"><ele>417.57142857142856</ele><time>2026-05-01T16:09:56.001Z</time></trkpt><trkpt lat="44.7740144207339" lon="9.3753633979187"><ele>416.0</ele><time>2026-05-01T16:09:57.001Z</time></trkpt><trkpt lat="44.773967110598576" lon="9.375428501117137"><ele>416.3333333333333</ele><time>2026-05-01T16:09:58.001Z</time></trkpt><trkpt lat="44.773864790906764" lon="9.375543474484438"><ele>416.66666666666663</ele><time>2026-05-01T16:10:00.001Z</time></trkpt><trkpt lat="44.773815652709395" lon="9.375616385889078"><ele>417.0</ele><time>2026-05-01T16:10:01.001Z</time></trkpt><trkpt lat="44.773774559747686" lon="9.375709604353185"><ele>417.33333333333337</ele><time>2026-05-01T16:10:02.001Z</time></trkpt><trkpt lat="44.773738442866666" lon="9.375802472010129"><ele>417.6666666666667</ele><time>2026-05-01T16:10:03.001Z</time></trkpt><trkpt lat="44.77369352626454" lon="9.3758783921145"><ele>418.0</ele><time>2026-05-01T16:10:04.001Z</time></trkpt><trkpt lat="44.773631686776675" lon="9.375915795977278"><ele>418.00000000000006</ele><time>2026-05-01T16:10:05.001Z</time></trkpt><trkpt lat="44.77357654036032" lon="9.375973241192131"><ele>418.0</ele><time>2026-05-01T16:10:06.001Z</time></trkpt><trkpt lat="44.7735242852904" lon="9.376024301830064"><ele>418.0</ele><time>2026-05-01T16:10:07.001Z</time></trkpt><trkpt lat="44.773468587327734" lon="9.376077372038782"><ele>418.0</ele><time>2026-05-01T16:10:08.001Z</time></trkpt><trkpt lat="44.77334178777882" lon="9.376127886573189"><ele>418.00000000000006</ele><time>2026-05-01T16:10:10.001Z</time></trkpt><trkpt lat="44.77328631375971" lon="9.376177535120785"><ele>418.0</ele><time>2026-05-01T16:10:11.001Z</time></trkpt><trkpt lat="44.77318135106247" lon="9.376246100494868"><ele>414.0</ele><time>2026-05-01T16:10:13.001Z</time></trkpt><trkpt lat="44.77310583370567" lon="9.37630609177136"><ele>410.0</ele><time>2026-05-01T16:10:15.001Z</time></trkpt><trkpt lat="44.77296051189215" lon="9.376261018794633"><ele>406.0</ele><time>2026-05-01T16:10:17.001Z</time></trkpt><trkpt lat="44.77286185043197" lon="9.376244826505754"><ele>402.0</ele><time>2026-05-01T16:10:18.001Z</time></trkpt><trkpt lat="44.77276819939208" lon="9.376238051624895"><ele>398.0</ele><time>2026-05-01T16:10:19.001Z</time></trkpt><trkpt lat="44.772686214499736" lon="9.37625579304975"><ele>397.66666666666663</ele><time>2026-05-01T16:10:20.001Z</time></trkpt><trkpt lat="44.772604363350965" lon="9.376252027171173"><ele>397.3333333333333</ele><time>2026-05-01T16:10:21.001Z</time></trkpt><trkpt lat="44.772539635250105" lon="9.376257853784397"><ele>397.0</ele><time>2026-05-01T16:10:22.001Z</time></trkpt><trkpt lat="44.77246497727047" lon="9.376280661090536"><ele>396.66666666666663</ele><time>2026-05-01T16:10:23.001Z</time></trkpt><trkpt lat="44.772390656404" lon="9.37630900942533"><ele>396.3333333333333</ele><time>2026-05-01T16:10:24.001Z</time></trkpt><trkpt lat="44.772313907301154" lon="9.37634589997921"><ele>396.0</ele><time>2026-05-01T16:10:25.001Z</time></trkpt><trkpt lat="44.77223431623949" lon="9.376371507152726"><ele>396.0</ele><time>2026-05-01T16:10:26.001Z</time></trkpt><trkpt lat="44.77214858114829" lon="9.376430626967743"><ele>396.0</ele><time>2026-05-01T16:10:27.001Z</time></trkpt><trkpt lat="44.77208653010756" lon="9.376477243855199"><ele>396.0</ele><time>2026-05-01T16:10:28.001Z</time></trkpt><trkpt lat="44.772022440454066" lon="9.376527639154496"><ele>396.0</ele><time>2026-05-01T16:10:29.001Z</time></trkpt><trkpt lat="44.77191746218238" lon="9.376629211323438"><ele>396.0</ele><time>2026-05-01T16:10:31.001Z</time></trkpt><trkpt lat="44.77183199693701" lon="9.376716223086751"><ele>393.20000000000005</ele><time>2026-05-01T16:10:33.001Z</time></trkpt><trkpt lat="44.77173198734109" lon="9.376793873003026"><ele>390.40000000000003</ele><time>2026-05-01T16:10:34.999Z</time></trkpt><trkpt lat="44.77164908958277" lon="9.376884118615449"><ele>387.6</ele><time>2026-05-01T16:10:36.999Z</time></trkpt><trkpt lat="44.771556970360606" lon="9.377020363770486"><ele>384.8</ele><time>2026-05-01T16:10:39.999Z</time></trkpt><trkpt lat="44.771498456892765" lon="9.377116082465488"><ele>382.0</ele><time>2026-05-01T16:10:40.999Z</time></trkpt><trkpt lat="44.77143988906509" lon="9.377223565618358"><ele>382.0</ele><time>2026-05-01T16:10:41.999Z</time></trkpt><trkpt lat="44.77138933713883" lon="9.377308210361274"><ele>382.0</ele><time>2026-05-01T16:10:42.999Z</time></trkpt><trkpt lat="44.771339462014375" lon="9.37740199405214"><ele>382.0</ele><time>2026-05-01T16:10:43.999Z</time></trkpt><trkpt lat="44.7713007433458" lon="9.377483367104867"><ele>382.0</ele><time>2026-05-01T16:10:44.999Z</time></trkpt><trkpt lat="44.7712595254243" lon="9.377555780495893"><ele>382.0</ele><time>2026-05-01T16:10:45.999Z</time></trkpt><trkpt lat="44.77118527842771" lon="9.377692913032256"><ele>382.0</ele><time>2026-05-01T16:10:47.999Z</time></trkpt><trkpt lat="44.77110623844733" lon="9.37782095060354"><ele>382.0</ele><time>2026-05-01T16:10:49.999Z</time></trkpt><trkpt lat="44.771054010004285" lon="9.377870907368774"><ele>382.0</ele><time>2026-05-01T16:10:50.999Z</time></trkpt><trkpt lat="44.77095363310829" lon="9.377945255161377"><ele>382.0</ele><time>2026-05-01T16:10:52.999Z</time></trkpt><trkpt lat="44.77089450610125" lon="9.377981279321643"><ele>382.0</ele><time>2026-05-01T16:10:53.999Z</time></trkpt><trkpt lat="44.770834915524645" lon="9.37803479517334"><ele>382.0</ele><time>2026-05-01T16:10:54.999Z</time></trkpt><trkpt lat="44.77077308366122" lon="9.378089495227096"><ele>382.0</ele><time>2026-05-01T16:10:55.999Z</time></trkpt><trkpt lat="44.77070880107199" lon="9.378171278616223"><ele>377.8</ele><time>2026-05-01T16:10:56.999Z</time></trkpt><trkpt lat="44.77062630898737" lon="9.378239121864137"><ele>373.6</ele><time>2026-05-01T16:10:57.999Z</time></trkpt><trkpt lat="44.770557259937355" lon="9.378313896650518"><ele>369.40000000000003</ele><time>2026-05-01T16:10:58.999Z</time></trkpt><trkpt lat="44.77048873530513" lon="9.378402305057541"><ele>365.20000000000005</ele><time>2026-05-01T16:10:59.999Z</time></trkpt><trkpt lat="44.7704124388953" lon="9.37847386149126"><ele>361.0</ele><time>2026-05-01T16:11:01Z</time></trkpt><trkpt lat="44.77033704620693" lon="9.378536694381864"><ele>361.0</ele><time>2026-05-01T16:11:02Z</time></trkpt><trkpt lat="44.770268687936515" lon="9.378603525166602"><ele>361.0</ele><time>2026-05-01T16:11:03Z</time></trkpt><trkpt lat="44.77021074445438" lon="9.378679989400455"><ele>361.0</ele><time>2026-05-01T16:11:04Z</time></trkpt><trkpt lat="44.770149016236125" lon="9.378746880308329"><ele>361.0</ele><time>2026-05-01T16:11:05Z</time></trkpt><trkpt lat="44.77013273113773" lon="9.378871565502594"><ele>361.0</ele><time>2026-05-01T16:11:06Z</time></trkpt><trkpt lat="44.7701078326203" lon="9.378984552470028"><ele>361.0</ele><time>2026-05-01T16:11:07Z</time></trkpt><trkpt lat="44.7700728994323" lon="9.379118476530023"><ele>357.6</ele><time>2026-05-01T16:11:08Z</time></trkpt><trkpt lat="44.77004138944237" lon="9.379236527007716"><ele>354.20000000000005</ele><time>2026-05-01T16:11:09Z</time></trkpt><trkpt lat="44.76997658833314" lon="9.379327425758447"><ele>350.79999999999995</ele><time>2026-05-01T16:11:10Z</time></trkpt><trkpt lat="44.76994342725049" lon="9.379462156150899"><ele>347.4</ele><time>2026-05-01T16:11:11Z</time></trkpt><trkpt lat="44.76989436480058" lon="9.379578909868046"><ele>344.0</ele><time>2026-05-01T16:11:12Z</time></trkpt><trkpt lat="44.76985244525254" lon="9.379692640618904"><ele>342.0</ele><time>2026-05-01T16:11:13Z</time></trkpt><trkpt lat="44.76980490315731" lon="9.379811101259897"><ele>340.0</ele><time>2026-05-01T16:11:14Z</time></trkpt><trkpt lat="44.76976349676296" lon="9.379932954848286"><ele>338.0</ele><time>2026-05-01T16:11:15Z</time></trkpt><trkpt lat="44.76971847874591" lon="9.38004843025602"><ele>336.0</ele><time>2026-05-01T16:11:16Z</time></trkpt><trkpt lat="44.76967622725066" lon="9.38016093434206"><ele>334.0</ele><time>2026-05-01T16:11:17Z</time></trkpt><trkpt lat="44.76962790475265" lon="9.380266862022967"><ele>334.0</ele><time>2026-05-01T16:11:18Z</time></trkpt><trkpt lat="44.7695701417476" lon="9.380370815306076"><ele>334.0</ele><time>2026-05-01T16:11:19Z</time></trkpt><trkpt lat="44.76951463335509" lon="9.380465474408629"><ele>334.0</ele><time>2026-05-01T16:11:20Z</time></trkpt><trkpt lat="44.76945114294069" lon="9.38054623622054"><ele>334.0</ele><time>2026-05-01T16:11:21Z</time></trkpt><trkpt lat="44.76937879570912" lon="9.380628519269175"><ele>334.0</ele><time>2026-05-01T16:11:22Z</time></trkpt><trkpt lat="44.76929692526932" lon="9.380698488740807"><ele>331.6</ele><time>2026-05-01T16:11:23Z</time></trkpt><trkpt lat="44.769214175666825" lon="9.380774133805705"><ele>329.2</ele><time>2026-05-01T16:11:24Z</time></trkpt><trkpt lat="44.76912279596009" lon="9.380823625739945"><ele>326.8</ele><time>2026-05-01T16:11:25Z</time></trkpt><trkpt lat="44.76904376732946" lon="9.380867578852001"><ele>324.40000000000003</ele><time>2026-05-01T16:11:26Z</time></trkpt><trkpt lat="44.768954125600736" lon="9.380908771395296"><ele>322.0</ele><time>2026-05-01T16:11:27Z</time></trkpt><trkpt lat="44.76887403967515" lon="9.380947684336155"><ele>322.0</ele><time>2026-05-01T16:11:28Z</time></trkpt><trkpt lat="44.76880409561773" lon="9.380989583462021"><ele>322.0</ele><time>2026-05-01T16:11:29Z</time></trkpt><trkpt lat="44.76873914993306" lon="9.38102945254204"><ele>322.0</ele><time>2026-05-01T16:11:30Z</time></trkpt><trkpt lat="44.76864575370517" lon="9.381086933512313"><ele>322.0</ele><time>2026-05-01T16:11:32Z</time></trkpt><trkpt lat="44.76859356638512" lon="9.381146971889471"><ele>322.0</ele><time>2026-05-01T16:11:39Z</time></trkpt><trkpt lat="44.76851868377273" lon="9.38122285421309"><ele>322.0</ele><time>2026-05-01T16:11:41Z</time></trkpt><trkpt lat="44.76856323751082" lon="9.381392398303019"><ele>320.20000000000005</ele><time>2026-05-01T16:11:42Z</time></trkpt><trkpt lat="44.76856712537716" lon="9.381493358948559"><ele>318.40000000000003</ele><time>2026-05-01T16:11:43Z</time></trkpt><trkpt lat="44.76857740210502" lon="9.381616184143434"><ele>316.6</ele><time>2026-05-01T16:11:44Z</time></trkpt><trkpt lat="44.768595724488534" lon="9.38175389990119"><ele>314.8</ele><time>2026-05-01T16:11:45Z</time></trkpt><trkpt lat="44.76863093445099" lon="9.381904851910223"><ele>313.0</ele><time>2026-05-01T16:11:46Z</time></trkpt><trkpt lat="44.768672523344286" lon="9.382046505333365"><ele>313.0</ele><time>2026-05-01T16:11:47Z</time></trkpt><trkpt lat="44.76873001698299" lon="9.382178568968474"><ele>313.0</ele><time>2026-05-01T16:11:48Z</time></trkpt><trkpt lat="44.76880044689159" lon="9.382327384900888"><ele>313.0</ele><time>2026-05-01T16:11:49Z</time></trkpt><trkpt lat="44.76887129362057" lon="9.382473136317731"><ele>313.0</ele><time>2026-05-01T16:11:50Z</time></trkpt><trkpt lat="44.76894097043864" lon="9.382619765771253"><ele>311.75</ele><time>2026-05-01T16:11:51Z</time></trkpt><trkpt lat="44.76900971334686" lon="9.382772046723069"><ele>310.5</ele><time>2026-05-01T16:11:52.001Z</time></trkpt><trkpt lat="44.76908280854605" lon="9.382920192545837"><ele>309.25</ele><time>2026-05-01T16:11:53.001Z</time></trkpt><trkpt lat="44.76915389622754" lon="9.38306192674462"><ele>308.0</ele><time>2026-05-01T16:11:54.001Z</time></trkpt><trkpt lat="44.76921384106986" lon="9.38321723708949"><ele>308.0</ele><time>2026-05-01T16:11:55.001Z</time></trkpt><trkpt lat="44.76929885432427" lon="9.383359751351612"><ele>308.0</ele><time>2026-05-01T16:11:56.001Z</time></trkpt><trkpt lat="44.76937330622094" lon="9.383519591428469"><ele>308.0</ele><time>2026-05-01T16:11:57.001Z</time></trkpt><trkpt lat="44.76944379004501" lon="9.38368937460634"><ele>308.0</ele><time>2026-05-01T16:11:58.001Z</time></trkpt><trkpt lat="44.7695239519857" lon="9.383851818483217"><ele>305.75</ele><time>2026-05-01T16:11:59.001Z</time></trkpt><trkpt lat="44.769607252864816" lon="9.384021868814699"><ele>303.5</ele><time>2026-05-01T16:12:00.001Z</time></trkpt><trkpt lat="44.769689032806575" lon="9.38418851281146"><ele>301.25</ele><time>2026-05-01T16:12:01.001Z</time></trkpt><trkpt lat="44.7697668236195" lon="9.384350245811039"><ele>299.0</ele><time>2026-05-01T16:12:02.001Z</time></trkpt><trkpt lat="44.76984420321394" lon="9.38450731433632"><ele>299.0</ele><time>2026-05-01T16:12:03.001Z</time></trkpt><trkpt lat="44.76991501387883" lon="9.384653919363064"><ele>299.0</ele><time>2026-05-01T16:12:04.001Z</time></trkpt><trkpt lat="44.769985485845105" lon="9.384805398000193"><ele>299.0</ele><time>2026-05-01T16:12:05.001Z</time></trkpt><trkpt lat="44.77005362504316" lon="9.384941472941405"><ele>299.0</ele><time>2026-05-01T16:12:06.001Z</time></trkpt><trkpt lat="44.770104521262716" lon="9.385067330415026"><ele>297.33333333333337</ele><time>2026-05-01T16:12:07.001Z</time></trkpt><trkpt lat="44.770139809997524" lon="9.385179598042807"><ele>295.6666666666667</ele><time>2026-05-01T16:12:08.001Z</time></trkpt><trkpt lat="44.77015755456262" lon="9.385301740888107"><ele>294.0</ele><time>2026-05-01T16:12:09.001Z</time></trkpt><trkpt lat="44.77016093168779" lon="9.385425229170995"><ele>292.3333333333333</ele><time>2026-05-01T16:12:10.001Z</time></trkpt><trkpt lat="44.770145338089634" lon="9.385542718477648"><ele>290.66666666666663</ele><time>2026-05-01T16:12:11.001Z</time></trkpt><trkpt lat="44.77012426085667" lon="9.385646713286024"><ele>289.0</ele><time>2026-05-01T16:12:12.001Z</time></trkpt><trkpt lat="44.77010172968156" lon="9.385733886947161"><ele>288.0</ele><time>2026-05-01T16:12:13.001Z</time></trkpt><trkpt lat="44.77007285244586" lon="9.385831753138962"><ele>287.0</ele><time>2026-05-01T16:12:15.001Z</time></trkpt><trkpt lat="44.77008754147111" lon="9.385934668346614"><ele>286.0</ele><time>2026-05-01T16:12:20.001Z</time></trkpt><trkpt lat="44.770239371629536" lon="9.386050443348458"><ele>285.0</ele><time>2026-05-01T16:12:24.001Z</time></trkpt><trkpt lat="44.77031867732803" lon="9.386054006553836"><ele>284.0</ele><time>2026-05-01T16:12:25.001Z</time></trkpt><trkpt lat="44.77038530584778" lon="9.386054945249414"><ele>284.0</ele><time>2026-05-01T16:12:26.001Z</time></trkpt><trkpt lat="44.77049297466267" lon="9.386093831070054"><ele>284.0</ele><time>2026-05-01T16:12:28.001Z</time></trkpt><trkpt lat="44.77059901441161" lon="9.386116020644538"><ele>284.0</ele><time>2026-05-01T16:12:30.001Z</time></trkpt><trkpt lat="44.770718234860574" lon="9.386143714258472"><ele>284.0</ele><time>2026-05-01T16:12:32.001Z</time></trkpt><trkpt lat="44.770781555161506" lon="9.386158840950241"><ele>284.0</ele><time>2026-05-01T16:12:33.001Z</time></trkpt><trkpt lat="44.770848338508756" lon="9.386153170938702"><ele>284.0</ele><time>2026-05-01T16:12:34.001Z</time></trkpt><trkpt lat="44.770919598255624" lon="9.386180130487269"><ele>284.0</ele><time>2026-05-01T16:12:35.001Z</time></trkpt><trkpt lat="44.770984335962474" lon="9.386191334555681"><ele>284.0</ele><time>2026-05-01T16:12:36.001Z</time></trkpt><trkpt lat="44.77105408179849" lon="9.38620985876562"><ele>284.0</ele><time>2026-05-01T16:12:37.001Z</time></trkpt><trkpt lat="44.77113042341032" lon="9.386225730116479"><ele>284.0</ele><time>2026-05-01T16:12:38.001Z</time></trkpt><trkpt lat="44.77119825306901" lon="9.386241152310879"><ele>284.0</ele><time>2026-05-01T16:12:39.001Z</time></trkpt><trkpt lat="44.771273303323255" lon="9.386260021221494"><ele>284.0</ele><time>2026-05-01T16:12:40.001Z</time></trkpt><trkpt lat="44.77134401296907" lon="9.386293771470687"><ele>283.1666666666667</ele><time>2026-05-01T16:12:40.999Z</time></trkpt><trkpt lat="44.77141565545638" lon="9.38631084765123"><ele>282.33333333333337</ele><time>2026-05-01T16:12:41.998Z</time></trkpt><trkpt lat="44.77149241238264" lon="9.386329143704796"><ele>281.5</ele><time>2026-05-01T16:12:42.998Z</time></trkpt><trkpt lat="44.77155699211506" lon="9.38634428391154"><ele>280.6666666666667</ele><time>2026-05-01T16:12:43.998Z</time></trkpt><trkpt lat="44.77166505411289" lon="9.386370172632574"><ele>279.8333333333333</ele><time>2026-05-01T16:12:45.999Z</time></trkpt><trkpt lat="44.771731540305616" lon="9.386386233036744"><ele>279.0</ele><time>2026-05-01T16:12:46.999Z</time></trkpt><trkpt lat="44.77179821017754" lon="9.386402337856051"><ele>273.0</ele><time>2026-05-01T16:12:47.999Z</time></trkpt><trkpt lat="44.771907618337714" lon="9.386473478426733"><ele>271.0</ele><time>2026-05-01T16:12:49.999Z</time></trkpt><trkpt lat="44.77199418728474" lon="9.386536761316687"><ele>271.0</ele><time>2026-05-01T16:12:51.999Z</time></trkpt><trkpt lat="44.77205458132999" lon="9.38657508067029"><ele>271.0</ele><time>2026-05-01T16:12:53.999Z</time></trkpt></trkseg><trkseg><trkpt lat="44.77217045296138" lon="9.38660653509337"><ele>271.0</ele><time>2026-05-01T16:27:25Z</time></trkpt><trkpt lat="44.77222658606465" lon="9.386553921760369"><ele>271.0</ele><time>2026-05-01T16:27:28Z</time></trkpt><trkpt lat="44.77215099876587" lon="9.386439103678313"><ele>271.0</ele><time>2026-05-01T16:27:42Z</time></trkpt><trkpt lat="44.77208528417565" lon="9.386432889544414"><ele>271.0</ele><time>2026-05-01T16:27:43Z</time></trkpt><trkpt lat="44.772011717453594" lon="9.386410681008249"><ele>271.0</ele><time>2026-05-01T16:27:44Z</time></trkpt><trkpt lat="44.771912824697246" lon="9.386395966292723"><ele>271.0</ele><time>2026-05-01T16:27:45Z</time></trkpt><trkpt lat="44.77183163551875" lon="9.386377206409925"><ele>271.40000000000003</ele><time>2026-05-01T16:27:46Z</time></trkpt><trkpt lat="44.77173682613385" lon="9.386347158549647"><ele>271.8</ele><time>2026-05-01T16:27:47Z</time></trkpt><trkpt lat="44.77163561293856" lon="9.386320857285696"><ele>272.20000000000005</ele><time>2026-05-01T16:27:48Z</time></trkpt><trkpt lat="44.77152994315717" lon="9.386295011657694"><ele>272.6</ele><time>2026-05-01T16:27:49Z</time></trkpt><trkpt lat="44.771420866146954" lon="9.386268175500168"><ele>273.0</ele><time>2026-05-01T16:27:50Z</time></trkpt><trkpt lat="44.77131226018382" lon="9.386243771491234"><ele>274.2</ele><time>2026-05-01T16:27:51Z</time></trkpt><trkpt lat="44.77120726293063" lon="9.386215068986884"><ele>275.4</ele><time>2026-05-01T16:27:52Z</time></trkpt><trkpt lat="44.771115617104265" lon="9.386195166769465"><ele>276.59999999999997</ele><time>2026-05-01T16:27:53Z</time></trkpt><trkpt lat="44.77102686079085" lon="9.386176433616695"><ele>277.8</ele><time>2026-05-01T16:27:54Z</time></trkpt><trkpt lat="44.7709393591183" lon="9.386148286728758"><ele>279.0</ele><time>2026-05-01T16:27:55Z</time></trkpt><trkpt lat="44.770840939021745" lon="9.386129964918158"><ele>280.0</ele><time>2026-05-01T16:27:56Z</time></trkpt><trkpt lat="44.770751766257646" lon="9.386105419367055"><ele>281.0</ele><time>2026-05-01T16:27:57Z</time></trkpt><trkpt lat="44.770652526066165" lon="9.38608480404885"><ele>282.0</ele><time>2026-05-01T16:27:58Z</time></trkpt><trkpt lat="44.770570147845056" lon="9.386055339297755"><ele>283.0</ele><time>2026-05-01T16:27:59Z</time></trkpt><trkpt lat="44.77047953873951" lon="9.386024230065455"><ele>284.0</ele><time>2026-05-01T16:28:00Z</time></trkpt><trkpt lat="44.770367643044295" lon="9.386006669615476"><ele>284.0</ele><time>2026-05-01T16:28:01Z</time></trkpt><trkpt lat="44.77027447942743" lon="9.386016771825236"><ele>284.0</ele><time>2026-05-01T16:28:02Z</time></trkpt><trkpt lat="44.77014703048215" lon="9.385992621559032"><ele>284.0</ele><time>2026-05-01T16:28:04Z</time></trkpt><trkpt lat="44.77003916146525" lon="9.386010373609091"><ele>284.0</ele><time>2026-05-01T16:28:06Z</time></trkpt><trkpt lat="44.76994695113797" lon="9.386028035758423"><ele>284.0</ele><time>2026-05-01T16:28:08Z</time></trkpt><trkpt lat="44.769834533913865" lon="9.386070862134734"><ele>284.0</ele><time>2026-05-01T16:28:10Z</time></trkpt><trkpt lat="44.76976589068922" lon="9.386099323047643"><ele>284.0</ele><time>2026-05-01T16:28:11Z</time></trkpt><trkpt lat="44.769694570855194" lon="9.386128232671624"><ele>284.0</ele><time>2026-05-01T16:28:12Z</time></trkpt><trkpt lat="44.76962476992143" lon="9.386158050836578"><ele>284.0</ele><time>2026-05-01T16:28:13Z</time></trkpt><trkpt lat="44.7695603620936" lon="9.386196650197816"><ele>284.0</ele><time>2026-05-01T16:28:14Z</time></trkpt><trkpt lat="44.76946410221341" lon="9.386277926249498"><ele>284.0</ele><time>2026-05-01T16:28:16Z</time></trkpt><trkpt lat="44.7693807042272" lon="9.38636965938746"><ele>283.5</ele><time>2026-05-01T16:28:18Z</time></trkpt><trkpt lat="44.76932640315028" lon="9.386428487544626"><ele>283.0</ele><time>2026-05-01T16:28:20Z</time></trkpt><trkpt lat="44.769274427544595" lon="9.386479713845917"><ele>282.5</ele><time>2026-05-01T16:28:24Z</time></trkpt><trkpt lat="44.76916690920623" lon="9.386483788053546"><ele>282.0</ele><time>2026-05-01T16:28:30Z</time></trkpt><trkpt lat="44.76922075940531" lon="9.386546036506301"><ele>281.5</ele><time>2026-05-01T16:28:34Z</time></trkpt><trkpt lat="44.769162671025676" lon="9.386394533241985"><ele>281.0</ele><time>2026-05-01T16:28:36Z</time></trkpt><trkpt lat="44.76909775265081" lon="9.386353283949"><ele>281.00000000000006</ele><time>2026-05-01T16:37:11Z</time></trkpt><trkpt lat="44.76904855173744" lon="9.386284119164909"><ele>281.0</ele><time>2026-05-01T16:37:17Z</time></trkpt><trkpt lat="44.76904963961554" lon="9.386189871743296"><ele>281.0</ele><time>2026-05-01T16:40:30.999Z</time></trkpt><trkpt lat="44.76909822940384" lon="9.386262283885507"><ele>281.0</ele><time>2026-05-01T17:04:04Z</time></trkpt><trkpt lat="44.76913889380336" lon="9.386341347802206"><ele>281.0</ele><time>2026-05-01T17:04:10.999Z</time></trkpt><trkpt lat="44.769185252568384" lon="9.386416944918926"><ele>281.00000000000006</ele><time>2026-05-01T17:09:18.999Z</time></trkpt><trkpt lat="44.76925567004117" lon="9.38640491715199"><ele>281.0</ele><time>2026-05-01T17:09:22.998Z</time></trkpt><trkpt lat="44.76933121238" lon="9.386378300574048"><ele>281.6</ele><time>2026-05-01T17:09:24.998Z</time></trkpt><trkpt lat="44.769448755220296" lon="9.38631683158068"><ele>282.20000000000005</ele><time>2026-05-01T17:09:26.998Z</time></trkpt><trkpt lat="44.76957435264991" lon="9.386250523841781"><ele>282.79999999999995</ele><time>2026-05-01T17:09:28.998Z</time></trkpt><trkpt lat="44.76965037525857" lon="9.38621292026365"><ele>283.4</ele><time>2026-05-01T17:09:29.998Z</time></trkpt><trkpt lat="44.7697244640762" lon="9.386174849087107"><ele>284.0</ele><time>2026-05-01T17:09:30.998Z</time></trkpt><trkpt lat="44.76981572282813" lon="9.386139869413604"><ele>284.0</ele><time>2026-05-01T17:09:31.998Z</time></trkpt><trkpt lat="44.769905889368594" lon="9.386113044330113"><ele>284.0</ele><time>2026-05-01T17:09:32.998Z</time></trkpt><trkpt lat="44.769992644413314" lon="9.38608024597386"><ele>284.0</ele><time>2026-05-01T17:09:33.998Z</time></trkpt><trkpt lat="44.77009526082468" lon="9.386075968962318"><ele>284.0</ele><time>2026-05-01T17:09:34.998Z</time></trkpt><trkpt lat="44.770189096527204" lon="9.386041396582119"><ele>284.0</ele><time>2026-05-01T17:09:35.998Z</time></trkpt><trkpt lat="44.770276622482626" lon="9.38606212381544"><ele>284.0</ele><time>2026-05-01T17:09:36.998Z</time></trkpt><trkpt lat="44.77037432116442" lon="9.386071675797197"><ele>284.0</ele><time>2026-05-01T17:09:37.998Z</time></trkpt><trkpt lat="44.770478878007545" lon="9.386090785989607"><ele>284.0</ele><time>2026-05-01T17:09:38.999Z</time></trkpt><trkpt lat="44.77058571345761" lon="9.386113237326965"><ele>284.0</ele><time>2026-05-01T17:09:39.999Z</time></trkpt><trkpt lat="44.77069345780997" lon="9.386137795231187"><ele>284.0</ele><time>2026-05-01T17:09:40.999Z</time></trkpt><trkpt lat="44.770817235330895" lon="9.386150442300327"><ele>284.0</ele><time>2026-05-01T17:09:41.999Z</time></trkpt><trkpt lat="44.77091696219819" lon="9.386173649026244"><ele>284.0</ele><time>2026-05-01T17:09:42.999Z</time></trkpt><trkpt lat="44.771003821911" lon="9.386191280431184"><ele>284.0</ele><time>2026-05-01T17:09:43.999Z</time></trkpt><trkpt lat="44.77109126977955" lon="9.386216887099494"><ele>284.0</ele><time>2026-05-01T17:09:44.999Z</time></trkpt><trkpt lat="44.771177653852014" lon="9.386237252083163"><ele>284.0</ele><time>2026-05-01T17:09:45.999Z</time></trkpt><trkpt lat="44.77127373708659" lon="9.386260846558676"><ele>282.75</ele><time>2026-05-01T17:09:46.999Z</time></trkpt><trkpt lat="44.771389044408586" lon="9.386280370697506"><ele>281.5</ele><time>2026-05-01T17:09:47.999Z</time></trkpt><trkpt lat="44.771518027263646" lon="9.386296192220057"><ele>280.25</ele><time>2026-05-01T17:09:48.999Z</time></trkpt><trkpt lat="44.771659832872565" lon="9.386330317240274"><ele>279.0</ele><time>2026-05-01T17:09:49.999Z</time></trkpt><trkpt lat="44.77179012185481" lon="9.386400384027388"><ele>277.0</ele><time>2026-05-01T17:09:50.999Z</time></trkpt><trkpt lat="44.77191943315695" lon="9.38643162024268"><ele>275.0</ele><time>2026-05-01T17:09:51.999Z</time></trkpt><trkpt lat="44.77203535367972" lon="9.3864589954689"><ele>273.0</ele><time>2026-05-01T17:09:52.999Z</time></trkpt><trkpt lat="44.772143460117846" lon="9.38648471606618"><ele>271.0</ele><time>2026-05-01T17:09:53.999Z</time></trkpt><trkpt lat="44.77224322840892" lon="9.386508452855592"><ele>271.0</ele><time>2026-05-01T17:09:54.999Z</time></trkpt><trkpt lat="44.77233440590808" lon="9.386530145421828"><ele>271.0</ele><time>2026-05-01T17:09:55.999Z</time></trkpt><trkpt lat="44.772429774836105" lon="9.386552633311975"><ele>271.0</ele><time>2026-05-01T17:09:56.999Z</time></trkpt><trkpt lat="44.77251713924959" lon="9.386573263375341"><ele>271.0</ele><time>2026-05-01T17:09:57.999Z</time></trkpt><trkpt lat="44.77260749546304" lon="9.386594387296164"><ele>271.0</ele><time>2026-05-01T17:09:58.999Z</time></trkpt><trkpt lat="44.77270222028804" lon="9.386616532551614"><ele>270.2</ele><time>2026-05-01T17:09:59.999Z</time></trkpt><trkpt lat="44.772798169378625" lon="9.386610381505012"><ele>269.40000000000003</ele><time>2026-05-01T17:10:00.999Z</time></trkpt><trkpt lat="44.772888025851465" lon="9.386622430049435"><ele>268.6</ele><time>2026-05-01T17:10:01.999Z</time></trkpt><trkpt lat="44.7729681462825" lon="9.386648831067909"><ele>267.8</ele><time>2026-05-01T17:10:02.999Z</time></trkpt><trkpt lat="44.77307739211988" lon="9.386706834201021"><ele>267.0</ele><time>2026-05-01T17:10:04.999Z</time></trkpt><trkpt lat="44.77311725415177" lon="9.38678964482812"><ele>267.0</ele><time>2026-05-01T17:10:06.999Z</time></trkpt><trkpt lat="44.77312144645893" lon="9.386973119999276"><ele>267.0</ele><time>2026-05-01T17:10:08.999Z</time></trkpt><trkpt lat="44.773108507634404" lon="9.38709923284474"><ele>267.0</ele><time>2026-05-01T17:10:09.999Z</time></trkpt><trkpt lat="44.77309352400685" lon="9.38722323350342"><ele>267.0</ele><time>2026-05-01T17:10:10.999Z</time></trkpt><trkpt lat="44.77308073018785" lon="9.38734059744228"><ele>267.0</ele><time>2026-05-01T17:10:11.999Z</time></trkpt><trkpt lat="44.773062546788815" lon="9.387461048481311"><ele>266.5714285714286</ele><time>2026-05-01T17:10:12.999Z</time></trkpt><trkpt lat="44.773045901010185" lon="9.38757305780417"><ele>266.14285714285717</ele><time>2026-05-01T17:10:13.999Z</time></trkpt><trkpt lat="44.7730285654733" lon="9.387682194723848"><ele>265.7142857142857</ele><time>2026-05-01T17:10:14.999Z</time></trkpt><trkpt lat="44.77301808150302" lon="9.387784147647976"><ele>265.28571428571433</ele><time>2026-05-01T17:10:15.999Z</time></trkpt><trkpt lat="44.7730014963255" lon="9.387880076201672"><ele>264.8571428571429</ele><time>2026-05-01T17:10:16.999Z</time></trkpt><trkpt lat="44.77299632906426" lon="9.387970807173197"><ele>264.42857142857144</ele><time>2026-05-01T17:10:17.999Z</time></trkpt><trkpt lat="44.772991023271416" lon="9.388067308650339"><ele>264.0</ele><time>2026-05-01T17:10:18.999Z</time></trkpt><trkpt lat="44.772989513725385" lon="9.388162028654497"><ele>263.85714285714283</ele><time>2026-05-01T17:10:19.999Z</time></trkpt><trkpt lat="44.772982767563384" lon="9.38826717806229"><ele>263.7142857142857</ele><time>2026-05-01T17:10:20.999Z</time></trkpt><trkpt lat="44.77297388240709" lon="9.388365660834326"><ele>263.57142857142856</ele><time>2026-05-01T17:10:21.999Z</time></trkpt><trkpt lat="44.772966364895716" lon="9.388468881669208"><ele>263.42857142857144</ele><time>2026-05-01T17:10:22.999Z</time></trkpt><trkpt lat="44.77295987498937" lon="9.388567377809448"><ele>263.2857142857143</ele><time>2026-05-01T17:10:23.999Z</time></trkpt><trkpt lat="44.77293542340867" lon="9.388668792796238"><ele>263.1428571428571</ele><time>2026-05-01T17:10:24.999Z</time></trkpt><trkpt lat="44.77294092051726" lon="9.38876383570025"><ele>263.0</ele><time>2026-05-01T17:10:25.999Z</time></trkpt><trkpt lat="44.772930679268285" lon="9.388853388439092"><ele>262.4</ele><time>2026-05-01T17:10:26.999Z</time></trkpt><trkpt lat="44.77291640345815" lon="9.389010310339147"><ele>261.8</ele><time>2026-05-01T17:10:28.999Z</time></trkpt><trkpt lat="44.77290464761853" lon="9.389139917673253"><ele>261.2</ele><time>2026-05-01T17:10:30.999Z</time></trkpt><trkpt lat="44.77289188565408" lon="9.389267501872814"><ele>260.6</ele><time>2026-05-01T17:10:32.999Z</time></trkpt><trkpt lat="44.77286787999343" lon="9.389363473176875"><ele>260.0</ele><time>2026-05-01T17:10:35.999Z</time></trkpt><trkpt lat="44.77300573513888" lon="9.389475185620812"><ele>260.0</ele><time>2026-05-01T17:10:38.999Z</time></trkpt><trkpt lat="44.77307987705002" lon="9.389483415663165"><ele>260.0</ele><time>2026-05-01T17:10:39.999Z</time></trkpt><trkpt lat="44.77316159588262" lon="9.389497625715293"><ele>260.0</ele><time>2026-05-01T17:10:40.999Z</time></trkpt><trkpt lat="44.773247055892014" lon="9.389502284048957"><ele>260.0</ele><time>2026-05-01T17:10:41.999Z</time></trkpt><trkpt lat="44.77335836095653" lon="9.389504338141753"><ele>260.0</ele><time>2026-05-01T17:10:42.999Z</time></trkpt><trkpt lat="44.77347055254416" lon="9.3895126437474"><ele>258.75</ele><time>2026-05-01T17:10:43.999Z</time></trkpt><trkpt lat="44.7735774162524" lon="9.389504318998506"><ele>257.5</ele><time>2026-05-01T17:10:44.999Z</time></trkpt><trkpt lat="44.77369438457896" lon="9.389497752192538"><ele>256.25</ele><time>2026-05-01T17:10:45.999Z</time></trkpt><trkpt lat="44.773819453250674" lon="9.389490510828692"><ele>255.0</ele><time>2026-05-01T17:10:46.999Z</time></trkpt><trkpt lat="44.77394667129717" lon="9.389487269822222"><ele>255.0</ele><time>2026-05-01T17:10:47.999Z</time></trkpt><trkpt lat="44.77408285002502" lon="9.389480538852212"><ele>255.0</ele><time>2026-05-01T17:10:48.999Z</time></trkpt><trkpt lat="44.77422165435318" lon="9.389475882235296"><ele>255.0</ele><time>2026-05-01T17:10:49.999Z</time></trkpt><trkpt lat="44.77436241026584" lon="9.38947641835228"><ele>255.0</ele><time>2026-05-01T17:10:50.999Z</time></trkpt><trkpt lat="44.77450101466528" lon="9.389468801633852"><ele>255.0</ele><time>2026-05-01T17:10:51.999Z</time></trkpt><trkpt lat="44.77464076530741" lon="9.389473158440804"><ele>255.0</ele><time>2026-05-01T17:10:52.999Z</time></trkpt><trkpt lat="44.77478632984041" lon="9.38948757620748"><ele>255.0</ele><time>2026-05-01T17:10:53.999Z</time></trkpt><trkpt lat="44.7749307101673" lon="9.389516070449595"><ele>255.0</ele><time>2026-05-01T17:10:54.999Z</time></trkpt><trkpt lat="44.77507696798977" lon="9.38955335789667"><ele>254.66666666666669</ele><time>2026-05-01T17:10:55.999Z</time></trkpt><trkpt lat="44.775222734717225" lon="9.389607003892356"><ele>254.33333333333334</ele><time>2026-05-01T17:10:56.999Z</time></trkpt><trkpt lat="44.77537359535165" lon="9.389665560153082"><ele>254.0</ele><time>2026-05-01T17:10:57.999Z</time></trkpt><trkpt lat="44.77552331218559" lon="9.389743473616491"><ele>254.0</ele><time>2026-05-01T17:10:58.999Z</time></trkpt><trkpt lat="44.775669009958044" lon="9.38983718988462"><ele>254.0</ele><time>2026-05-01T17:10:59.999Z</time></trkpt><trkpt lat="44.775817447676545" lon="9.389951770673601"><ele>254.0</ele><time>2026-05-01T17:11:00.999Z</time></trkpt><trkpt lat="44.77596770677557" lon="9.390080506564637"><ele>255.66666666666669</ele><time>2026-05-01T17:11:01.999Z</time></trkpt><trkpt lat="44.77612318788676" lon="9.390227408052686"><ele>257.3333333333333</ele><time>2026-05-01T17:11:02.999Z</time></trkpt><trkpt lat="44.776282594322325" lon="9.390382041508541"><ele>259.0</ele><time>2026-05-01T17:11:03.999Z</time></trkpt><trkpt lat="44.77644102927563" lon="9.390527051525854"><ele>259.0</ele><time>2026-05-01T17:11:04.999Z</time></trkpt><trkpt lat="44.77659872480736" lon="9.390667420939375"><ele>259.0</ele><time>2026-05-01T17:11:05.999Z</time></trkpt><trkpt lat="44.776755420009685" lon="9.390817309909542"><ele>259.0</ele><time>2026-05-01T17:11:06.999Z</time></trkpt><trkpt lat="44.77691829313554" lon="9.390966284624719"><ele>258.0</ele><time>2026-05-01T17:11:07.999Z</time></trkpt><trkpt lat="44.777076814408495" lon="9.391115924961444"><ele>257.0</ele><time>2026-05-01T17:11:08.999Z</time></trkpt><trkpt lat="44.77723801798274" lon="9.39126989452505"><ele>256.0</ele><time>2026-05-01T17:11:09.999Z</time></trkpt><trkpt lat="44.77739778719807" lon="9.391423502517235"><ele>256.0</ele><time>2026-05-01T17:11:10.999Z</time></trkpt><trkpt lat="44.7775514123331" lon="9.391585543383604"><ele>256.0</ele><time>2026-05-01T17:11:11.999Z</time></trkpt><trkpt lat="44.777705539638426" lon="9.391756196699623"><ele>256.0</ele><time>2026-05-01T17:11:12.999Z</time></trkpt><trkpt lat="44.777846567085426" lon="9.391927208430458"><ele>255.66666666666666</ele><time>2026-05-01T17:11:13.999Z</time></trkpt><trkpt lat="44.77798167765019" lon="9.392102981383385"><ele>255.33333333333331</ele><time>2026-05-01T17:11:14.999Z</time></trkpt><trkpt lat="44.778117830637214" lon="9.392292462327376"><ele>255.0</ele><time>2026-05-01T17:11:15.999Z</time></trkpt><trkpt lat="44.77825130688708" lon="9.392492148326047"><ele>255.0</ele><time>2026-05-01T17:11:16.999Z</time></trkpt><trkpt lat="44.77837979792837" lon="9.392703513853949"><ele>255.0</ele><time>2026-05-01T17:11:17.999Z</time></trkpt><trkpt lat="44.7785048439019" lon="9.392921190138976"><ele>255.0</ele><time>2026-05-01T17:11:18.999Z</time></trkpt><trkpt lat="44.778624777242506" lon="9.393146543484308"><ele>254.33333333333331</ele><time>2026-05-01T17:11:19.999Z</time></trkpt><trkpt lat="44.7787387517974" lon="9.393377657033922"><ele>253.66666666666666</ele><time>2026-05-01T17:11:20.999Z</time></trkpt><trkpt lat="44.77884899784656" lon="9.39361861816767"><ele>253.0</ele><time>2026-05-01T17:11:21.999Z</time></trkpt><trkpt lat="44.77895032812206" lon="9.393863724546268"><ele>253.0</ele><time>2026-05-01T17:11:22.999Z</time></trkpt><trkpt lat="44.779049369011" lon="9.394111359215827"><ele>253.0</ele><time>2026-05-01T17:11:23.999Z</time></trkpt><trkpt lat="44.77914183317983" lon="9.394365625778324"><ele>253.0</ele><time>2026-05-01T17:11:24.999Z</time></trkpt><trkpt lat="44.779225653617765" lon="9.394617362541743"><ele>251.66666666666666</ele><time>2026-05-01T17:11:25.999Z</time></trkpt><trkpt lat="44.77930357520401" lon="9.394880304464357"><ele>250.33333333333331</ele><time>2026-05-01T17:11:26.999Z</time></trkpt><trkpt lat="44.77937489233637" lon="9.3951439121837"><ele>249.0</ele><time>2026-05-01T17:11:27.999Z</time></trkpt><trkpt lat="44.779436682375135" lon="9.395400471382146"><ele>257.6666666666667</ele><time>2026-05-01T17:11:28.998Z</time></trkpt><trkpt lat="44.77950129303012" lon="9.395676089080398"><ele>266.33333333333337</ele><time>2026-05-01T17:11:29.998Z</time></trkpt><trkpt lat="44.77955630519324" lon="9.39595196237917"><ele>275.0</ele><time>2026-05-01T17:11:30.998Z</time></trkpt><trkpt lat="44.779605154551525" lon="9.396228013533685"><ele>272.33333333333337</ele><time>2026-05-01T17:11:31.998Z</time></trkpt><trkpt lat="44.77964814669362" lon="9.396503920075098"><ele>269.6666666666667</ele><time>2026-05-01T17:11:32.998Z</time></trkpt><trkpt lat="44.77968292889225" lon="9.396787050037267"><ele>267.0</ele><time>2026-05-01T17:11:33.998Z</time></trkpt><trkpt lat="44.77971374502201" lon="9.397071746960632"><ele>265.0</ele><time>2026-05-01T17:11:34.998Z</time></trkpt><trkpt lat="44.779734819543286" lon="9.397350174132987"><ele>263.0</ele><time>2026-05-01T17:11:35.998Z</time></trkpt><trkpt lat="44.77975349825937" lon="9.39763234927082"><ele>261.0</ele><time>2026-05-01T17:11:36.998Z</time></trkpt><trkpt lat="44.779767922820255" lon="9.397904731510643"><ele>260.6666666666667</ele><time>2026-05-01T17:11:37.998Z</time></trkpt><trkpt lat="44.779787041521395" lon="9.39817733764722"><ele>260.33333333333337</ele><time>2026-05-01T17:11:38.998Z</time></trkpt><trkpt lat="44.779807141800504" lon="9.398449347136994"><ele>260.0</ele><time>2026-05-01T17:11:39.998Z</time></trkpt><trkpt lat="44.779827602787584" lon="9.398721653860811"><ele>259.0</ele><time>2026-05-01T17:11:40.998Z</time></trkpt><trkpt lat="44.779854084054115" lon="9.398987520633526"><ele>258.0</ele><time>2026-05-01T17:11:41.998Z</time></trkpt><trkpt lat="44.77989495857458" lon="9.399247252994908"><ele>257.0</ele><time>2026-05-01T17:11:42.998Z</time></trkpt><trkpt lat="44.77994674224975" lon="9.39950612890013"><ele>255.33333333333334</ele><time>2026-05-01T17:11:43.998Z</time></trkpt><trkpt lat="44.780007884251255" lon="9.39976040999784"><ele>253.66666666666669</ele><time>2026-05-01T17:11:44.998Z</time></trkpt><trkpt lat="44.780083166368954" lon="9.40001191824348"><ele>252.0</ele><time>2026-05-01T17:11:45.999Z</time></trkpt><trkpt lat="44.780169639982596" lon="9.400253525282292"><ele>253.0</ele><time>2026-05-01T17:11:46.999Z</time></trkpt><trkpt lat="44.78025714162203" lon="9.400494910099495"><ele>254.0</ele><time>2026-05-01T17:11:47.999Z</time></trkpt><trkpt lat="44.78035248550799" lon="9.400732354586317"><ele>255.0</ele><time>2026-05-01T17:11:48.999Z</time></trkpt><trkpt lat="44.780462829939346" lon="9.400954834995241"><ele>255.0</ele><time>2026-05-01T17:11:49.999Z</time></trkpt><trkpt lat="44.78058238827081" lon="9.401173446316108"><ele>255.0</ele><time>2026-05-01T17:11:50.999Z</time></trkpt><trkpt lat="44.78071116350768" lon="9.40138185427992"><ele>255.0</ele><time>2026-05-01T17:11:51.999Z</time></trkpt><trkpt lat="44.78084234457657" lon="9.40158033947148"><ele>254.33333333333331</ele><time>2026-05-01T17:11:52.999Z</time></trkpt><trkpt lat="44.7809785508517" lon="9.401782977862416"><ele>253.66666666666666</ele><time>2026-05-01T17:11:53.999Z</time></trkpt><trkpt lat="44.781116547919865" lon="9.401979147308985"><ele>253.0</ele><time>2026-05-01T17:11:54.999Z</time></trkpt><trkpt lat="44.78125624567034" lon="9.402176692396013"><ele>251.0</ele><time>2026-05-01T17:11:55.999Z</time></trkpt><trkpt lat="44.7813946462625" lon="9.402372801353641"><ele>249.0</ele><time>2026-05-01T17:11:56.999Z</time></trkpt><trkpt lat="44.78153180245583" lon="9.402573693298375"><ele>247.0</ele><time>2026-05-01T17:11:57.999Z</time></trkpt><trkpt lat="44.781667601729325" lon="9.40277295178833"><ele>247.0</ele><time>2026-05-01T17:11:58.999Z</time></trkpt><trkpt lat="44.781807175655274" lon="9.402973489357244"><ele>247.0</ele><time>2026-05-01T17:11:59.999Z</time></trkpt><trkpt lat="44.78194108105394" lon="9.403170913980864"><ele>247.0</ele><time>2026-05-01T17:12:00.999Z</time></trkpt><trkpt lat="44.78207814878203" lon="9.403366027133222"><ele>246.0</ele><time>2026-05-01T17:12:01.999Z</time></trkpt><trkpt lat="44.782216133085136" lon="9.403561171428317"><ele>245.0</ele><time>2026-05-01T17:12:02.999Z</time></trkpt><trkpt lat="44.78235109803267" lon="9.403757621190188"><ele>244.0</ele><time>2026-05-01T17:12:03.999Z</time></trkpt><trkpt lat="44.78248882396071" lon="9.403950786406707"><ele>243.66666666666666</ele><time>2026-05-01T17:12:04.999Z</time></trkpt><trkpt lat="44.782627100345174" lon="9.404143050233793"><ele>243.33333333333331</ele><time>2026-05-01T17:12:05.999Z</time></trkpt><trkpt lat="44.78276586558128" lon="9.404338571819892"><ele>243.0</ele><time>2026-05-01T17:12:06.999Z</time></trkpt><trkpt lat="44.78290203628226" lon="9.404536017988137"><ele>242.33333333333331</ele><time>2026-05-01T17:12:07.999Z</time></trkpt><trkpt lat="44.78303684928438" lon="9.404732824679417"><ele>241.66666666666666</ele><time>2026-05-01T17:12:08.999Z</time></trkpt><trkpt lat="44.78316732503996" lon="9.4049368603766"><ele>241.0</ele><time>2026-05-01T17:12:09.999Z</time></trkpt><trkpt lat="44.78330332660627" lon="9.405134440349972"><ele>241.0</ele><time>2026-05-01T17:12:10.999Z</time></trkpt><trkpt lat="44.78344006999753" lon="9.405325521425182"><ele>241.0</ele><time>2026-05-01T17:12:11.999Z</time></trkpt><trkpt lat="44.78357590908133" lon="9.405522198331653"><ele>241.0</ele><time>2026-05-01T17:12:12.999Z</time></trkpt><trkpt lat="44.78371349788315" lon="9.405717519088952"><ele>242.0</ele><time>2026-05-01T17:12:13.999Z</time></trkpt><trkpt lat="44.78384917562353" lon="9.405912990012597"><ele>243.0</ele><time>2026-05-01T17:12:14.999Z</time></trkpt><trkpt lat="44.78398583427705" lon="9.40611312778005"><ele>244.0</ele><time>2026-05-01T17:12:15.999Z</time></trkpt><trkpt lat="44.78412373683472" lon="9.406313838158551"><ele>244.66666666666666</ele><time>2026-05-01T17:12:16.999Z</time></trkpt><trkpt lat="44.78426356810061" lon="9.406512280085249"><ele>245.33333333333331</ele><time>2026-05-01T17:12:17.999Z</time></trkpt><trkpt lat="44.78440223925792" lon="9.406717431712874"><ele>246.0</ele><time>2026-05-01T17:12:18.999Z</time></trkpt><trkpt lat="44.784544606938276" lon="9.406922659446249"><ele>246.0</ele><time>2026-05-01T17:12:19.999Z</time></trkpt><trkpt lat="44.78468586377056" lon="9.4071290526658"><ele>246.0</ele><time>2026-05-01T17:12:20.999Z</time></trkpt><trkpt lat="44.78483044642957" lon="9.407331869842935"><ele>246.0</ele><time>2026-05-01T17:12:21.999Z</time></trkpt><trkpt lat="44.784971614693795" lon="9.407530225776805"><ele>246.0</ele><time>2026-05-01T17:12:22.999Z</time></trkpt><trkpt lat="44.78511672997277" lon="9.407726780864449"><ele>246.0</ele><time>2026-05-01T17:12:23.999Z</time></trkpt><trkpt lat="44.785261880864596" lon="9.40791972531042"><ele>246.0</ele><time>2026-05-01T17:12:24.999Z</time></trkpt><trkpt lat="44.785410002313306" lon="9.408109968962519"><ele>246.0</ele><time>2026-05-01T17:12:25.999Z</time></trkpt><trkpt lat="44.78555841258765" lon="9.408301651021754"><ele>246.0</ele><time>2026-05-01T17:12:26.999Z</time></trkpt><trkpt lat="44.78570757533438" lon="9.408492635752593"><ele>246.0</ele><time>2026-05-01T17:12:27.999Z</time></trkpt><trkpt lat="44.7858523522613" lon="9.40867870239479"><ele>246.0</ele><time>2026-05-01T17:12:28.999Z</time></trkpt><trkpt lat="44.78599806185785" lon="9.40886790272343"><ele>246.0</ele><time>2026-05-01T17:12:29.999Z</time></trkpt><trkpt lat="44.78614187880151" lon="9.40905631255528"><ele>246.0</ele><time>2026-05-01T17:12:30.999Z</time></trkpt><trkpt lat="44.7862846792942" lon="9.409244949265497"><ele>246.0</ele><time>2026-05-01T17:12:31.999Z</time></trkpt><trkpt lat="44.786427677411346" lon="9.40943890705576"><ele>246.0</ele><time>2026-05-01T17:12:32.999Z</time></trkpt><trkpt lat="44.78657142016783" lon="9.409623970883656"><ele>246.0</ele><time>2026-05-01T17:12:33.999Z</time></trkpt><trkpt lat="44.786714012584824" lon="9.409808263250252"><ele>243.0</ele><time>2026-05-01T17:12:34.999Z</time></trkpt><trkpt lat="44.786853635117765" lon="9.409992382788499"><ele>240.0</ele><time>2026-05-01T17:12:35.999Z</time></trkpt><trkpt lat="44.786994167688306" lon="9.41017193849434"><ele>237.0</ele><time>2026-05-01T17:12:36.999Z</time></trkpt><trkpt lat="44.78713439511223" lon="9.410354819176415"><ele>238.0</ele><time>2026-05-01T17:12:37.999Z</time></trkpt><trkpt lat="44.78727476628036" lon="9.410536579113867"><ele>239.0</ele><time>2026-05-01T17:12:38.999Z</time></trkpt><trkpt lat="44.78741216862192" lon="9.410724184719431"><ele>240.0</ele><time>2026-05-01T17:12:39.999Z</time></trkpt><trkpt lat="44.78755315567574" lon="9.410908704148472"><ele>239.33333333333331</ele><time>2026-05-01T17:12:40.999Z</time></trkpt><trkpt lat="44.78769439259033" lon="9.411091028139559"><ele>238.66666666666666</ele><time>2026-05-01T17:12:41.999Z</time></trkpt><trkpt lat="44.787836832789424" lon="9.411280353519796"><ele>238.0</ele><time>2026-05-01T17:12:42.999Z</time></trkpt><trkpt lat="44.787979772904706" lon="9.411467050426939"><ele>238.0</ele><time>2026-05-01T17:12:43.999Z</time></trkpt><trkpt lat="44.788122018098115" lon="9.411656213656888"><ele>238.0</ele><time>2026-05-01T17:12:44.999Z</time></trkpt><trkpt lat="44.78826742172669" lon="9.411844321039082"><ele>238.0</ele><time>2026-05-01T17:12:45.999Z</time></trkpt><trkpt lat="44.78840995160636" lon="9.412033479248683"><ele>237.66666666666666</ele><time>2026-05-01T17:12:46.999Z</time></trkpt><trkpt lat="44.78855419600557" lon="9.412221123206441"><ele>237.33333333333331</ele><time>2026-05-01T17:12:47.999Z</time></trkpt><trkpt lat="44.78870324748399" lon="9.41240705256727"><ele>237.0</ele><time>2026-05-01T17:12:48.999Z</time></trkpt><trkpt lat="44.788843725989494" lon="9.412597964355342"><ele>237.0</ele><time>2026-05-01T17:12:49.999Z</time></trkpt><trkpt lat="44.78898527041901" lon="9.412791622581963"><ele>237.0</ele><time>2026-05-01T17:12:50.999Z</time></trkpt><trkpt lat="44.78912967590339" lon="9.41298116398847"><ele>237.0</ele><time>2026-05-01T17:12:51.999Z</time></trkpt><trkpt lat="44.789276227259286" lon="9.413169950039348"><ele>236.66666666666669</ele><time>2026-05-01T17:12:52.999Z</time></trkpt><trkpt lat="44.789419966576084" lon="9.413353614208441"><ele>236.33333333333334</ele><time>2026-05-01T17:12:53.999Z</time></trkpt><trkpt lat="44.78956147777376" lon="9.413545571317133"><ele>236.0</ele><time>2026-05-01T17:12:54.999Z</time></trkpt><trkpt lat="44.78970131875368" lon="9.413729153420743"><ele>237.33333333333334</ele><time>2026-05-01T17:12:55.999Z</time></trkpt><trkpt lat="44.78984776053095" lon="9.41391426347254"><ele>238.66666666666669</ele><time>2026-05-01T17:12:56.999Z</time></trkpt><trkpt lat="44.789989632599074" lon="9.41410206383577"><ele>240.0</ele><time>2026-05-01T17:12:57.999Z</time></trkpt><trkpt lat="44.79013323636523" lon="9.414287523296808"><ele>239.66666666666669</ele><time>2026-05-01T17:12:58.999Z</time></trkpt><trkpt lat="44.79027467575981" lon="9.41447208766188"><ele>239.33333333333334</ele><time>2026-05-01T17:12:59.999Z</time></trkpt><trkpt lat="44.790418393976616" lon="9.414656938938608"><ele>239.0</ele><time>2026-05-01T17:13:00.999Z</time></trkpt><trkpt lat="44.79055876815301" lon="9.414839154035187"><ele>245.66666666666669</ele><time>2026-05-01T17:13:01.999Z</time></trkpt><trkpt lat="44.79069850051943" lon="9.415020896277262"><ele>252.33333333333331</ele><time>2026-05-01T17:13:02.999Z</time></trkpt><trkpt lat="44.790828758472735" lon="9.415221095390041"><ele>259.0</ele><time>2026-05-01T17:13:04.016Z</time></trkpt><trkpt lat="44.79097506394137" lon="9.415384734957517"><ele>281.66666666666663</ele><time>2026-05-01T17:13:05.016Z</time></trkpt><trkpt lat="44.79110728845964" lon="9.415569257090107"><ele>304.3333333333333</ele><time>2026-05-01T17:13:06.016Z</time></trkpt><trkpt lat="44.79123919946915" lon="9.41575150643394"><ele>327.0</ele><time>2026-05-01T17:13:07.012Z</time></trkpt><trkpt lat="44.79137169505816" lon="9.415936019090923"><ele>359.0</ele><time>2026-05-01T17:13:08.021Z</time></trkpt><trkpt lat="44.79274240382859" lon="9.41769886494875"><ele>366.0</ele><time>2026-05-01T17:13:12.145Z</time></trkpt><trkpt lat="44.79307255347045" lon="9.418131367793348"><ele>366.0</ele><time>2026-05-01T17:13:13.149Z</time></trkpt><trkpt lat="44.79339902268581" lon="9.41856174786974"><ele>366.0</ele><time>2026-05-01T17:13:14.144Z</time></trkpt><trkpt lat="44.7935309" lon="9.4187356"><ele>247.0</ele><time>2026-05-01T17:13:15.146Z</time></trkpt><trkpt lat="44.79576428425013" lon="9.421635009357166"><ele>247.0</ele><time>2026-05-01T17:13:34.999Z</time></trkpt><trkpt lat="44.79591352231683" lon="9.421834561036315"><ele>247.0</ele><time>2026-05-01T17:13:35.999Z</time></trkpt><trkpt lat="44.796014109159984" lon="9.422055278335826"><ele>247.0</ele><time>2026-05-01T17:13:36.999Z</time></trkpt><trkpt lat="44.79616373543502" lon="9.422239304754209"><ele>244.66666666666666</ele><time>2026-05-01T17:13:37.999Z</time></trkpt><trkpt lat="44.796311510608334" lon="9.42239205803942"><ele>242.33333333333331</ele><time>2026-05-01T17:13:38.999Z</time></trkpt><trkpt lat="44.796480315191296" lon="9.422544418227382"><ele>240.0</ele><time>2026-05-01T17:13:39.999Z</time></trkpt><trkpt lat="44.79664601376834" lon="9.42266938360224"><ele>240.0</ele><time>2026-05-01T17:13:40.999Z</time></trkpt><trkpt lat="44.796810251825725" lon="9.422776793248548"><ele>240.0</ele><time>2026-05-01T17:13:41.999Z</time></trkpt><trkpt lat="44.79697706561793" lon="9.42286573671357"><ele>240.0</ele><time>2026-05-01T17:13:42.999Z</time></trkpt><trkpt lat="44.79715147769701" lon="9.422947131135649"><ele>240.33333333333331</ele><time>2026-05-01T17:13:43.999Z</time></trkpt><trkpt lat="44.79732953863419" lon="9.423019405702963"><ele>240.66666666666666</ele><time>2026-05-01T17:13:44.999Z</time></trkpt><trkpt lat="44.79751866949492" lon="9.423074826666202"><ele>241.0</ele><time>2026-05-01T17:13:45.999Z</time></trkpt><trkpt lat="44.797714333275586" lon="9.423121440752812"><ele>241.0</ele><time>2026-05-01T17:13:46.999Z</time></trkpt><trkpt lat="44.79791876912098" lon="9.4231615375034"><ele>241.0</ele><time>2026-05-01T17:13:47.999Z</time></trkpt><trkpt lat="44.79812980586554" lon="9.423197999427563"><ele>241.0</ele><time>2026-05-01T17:13:48.999Z</time></trkpt><trkpt lat="44.79834263468023" lon="9.423231903737761"><ele>239.33333333333331</ele><time>2026-05-01T17:13:49.999Z</time></trkpt><trkpt lat="44.79855450834567" lon="9.42326424299499"><ele>237.66666666666669</ele><time>2026-05-01T17:13:50.999Z</time></trkpt><trkpt lat="44.79875914313922" lon="9.42329053756994"><ele>236.0</ele><time>2026-05-01T17:13:51.999Z</time></trkpt><trkpt lat="44.79895968281737" lon="9.423318225769725"><ele>236.0</ele><time>2026-05-01T17:13:52.999Z</time></trkpt><trkpt lat="44.79915879072731" lon="9.423351419179907"><ele>236.0</ele><time>2026-05-01T17:13:53.999Z</time></trkpt><trkpt lat="44.799356072878226" lon="9.423403631777271"><ele>236.0</ele><time>2026-05-01T17:13:54.999Z</time></trkpt><trkpt lat="44.79954806580355" lon="9.423478004083977"><ele>235.33333333333334</ele><time>2026-05-01T17:13:55.999Z</time></trkpt><trkpt lat="44.79974641450517" lon="9.423562762291272"><ele>234.66666666666669</ele><time>2026-05-01T17:13:56.999Z</time></trkpt><trkpt lat="44.799941455039075" lon="9.42365877316119"><ele>234.0</ele><time>2026-05-01T17:13:57.999Z</time></trkpt><trkpt lat="44.800133504698294" lon="9.423773908678774"><ele>232.33333333333331</ele><time>2026-05-01T17:13:58.999Z</time></trkpt><trkpt lat="44.8003211660744" lon="9.423901722634195"><ele>230.66666666666666</ele><time>2026-05-01T17:13:59.999Z</time></trkpt><trkpt lat="44.80051404908451" lon="9.424036804304594"><ele>229.0</ele><time>2026-05-01T17:14:00.999Z</time></trkpt><trkpt lat="44.80070585100246" lon="9.42416824232797"><ele>229.0</ele><time>2026-05-01T17:14:01.999Z</time></trkpt><trkpt lat="44.80089888921512" lon="9.424308324457968"><ele>229.0</ele><time>2026-05-01T17:14:02.999Z</time></trkpt><trkpt lat="44.80109014894092" lon="9.42444775970027"><ele>229.0</ele><time>2026-05-01T17:14:03.999Z</time></trkpt><trkpt lat="44.80128276688225" lon="9.424583917987874"><ele>229.66666666666666</ele><time>2026-05-01T17:14:05Z</time></trkpt><trkpt lat="44.80147406653622" lon="9.42472284174704"><ele>230.33333333333331</ele><time>2026-05-01T17:14:06Z</time></trkpt><trkpt lat="44.80166445872557" lon="9.424859149626034"><ele>231.0</ele><time>2026-05-01T17:14:07Z</time></trkpt><trkpt lat="44.80185638225796" lon="9.424994184711993"><ele>231.0</ele><time>2026-05-01T17:14:08Z</time></trkpt><trkpt lat="44.802044085208124" lon="9.425127034607018"><ele>231.0</ele><time>2026-05-01T17:14:09Z</time></trkpt><trkpt lat="44.80223337802445" lon="9.425261712598822"><ele>231.0</ele><time>2026-05-01T17:14:10Z</time></trkpt><trkpt lat="44.802415955451664" lon="9.42539480306825"><ele>229.66666666666669</ele><time>2026-05-01T17:14:11Z</time></trkpt><trkpt lat="44.80259062379484" lon="9.425526981985014"><ele>228.33333333333334</ele><time>2026-05-01T17:14:12Z</time></trkpt><trkpt lat="44.80275267944432" lon="9.425665834427823"><ele>227.0</ele><time>2026-05-01T17:14:13Z</time></trkpt><trkpt lat="44.80291390091935" lon="9.425812646134645"><ele>227.0</ele><time>2026-05-01T17:14:14Z</time></trkpt><trkpt lat="44.803075935845825" lon="9.425976747966141"><ele>227.0</ele><time>2026-05-01T17:14:15Z</time></trkpt><trkpt lat="44.80323419044797" lon="9.42614318490178"><ele>227.0</ele><time>2026-05-01T17:14:16Z</time></trkpt><trkpt lat="44.80339084007562" lon="9.426318617536614"><ele>228.0</ele><time>2026-05-01T17:14:17Z</time></trkpt><trkpt lat="44.80354253698607" lon="9.42650519170002"><ele>229.0</ele><time>2026-05-01T17:14:18Z</time></trkpt><trkpt lat="44.80369544499609" lon="9.42670372892447"><ele>230.0</ele><time>2026-05-01T17:14:19Z</time></trkpt><trkpt lat="44.8038498958172" lon="9.426899286561488"><ele>230.0</ele><time>2026-05-01T17:14:20Z</time></trkpt><trkpt lat="44.80400533908825" lon="9.427102823463496"><ele>230.0</ele><time>2026-05-01T17:14:21Z</time></trkpt><trkpt lat="44.80415989144507" lon="9.42730025851725"><ele>230.0</ele><time>2026-05-01T17:14:22Z</time></trkpt><trkpt lat="44.80431649641512" lon="9.427499851082661"><ele>229.33333333333334</ele><time>2026-05-01T17:14:23Z</time></trkpt><trkpt lat="44.804473495835666" lon="9.427709148534305"><ele>228.66666666666669</ele><time>2026-05-01T17:14:24Z</time></trkpt><trkpt lat="44.80463161012023" lon="9.42791715309829"><ele>228.0</ele><time>2026-05-01T17:14:25Z</time></trkpt><trkpt lat="44.804789317052176" lon="9.428124009016692"><ele>227.33333333333331</ele><time>2026-05-01T17:14:26Z</time></trkpt><trkpt lat="44.80494617987883" lon="9.428328428289115"><ele>226.66666666666666</ele><time>2026-05-01T17:14:27Z</time></trkpt><trkpt lat="44.805102630085564" lon="9.428536619449128"><ele>226.0</ele><time>2026-05-01T17:14:28Z</time></trkpt><trkpt lat="44.80525964930579" lon="9.4287417966065"><ele>226.0</ele><time>2026-05-01T17:14:29Z</time></trkpt><trkpt lat="44.805414630536426" lon="9.428944546857203"><ele>226.0</ele><time>2026-05-01T17:14:30Z</time></trkpt><trkpt lat="44.80556613394457" lon="9.429147231217343"><ele>226.0</ele><time>2026-05-01T17:14:31Z</time></trkpt><trkpt lat="44.80571569155966" lon="9.429348229599128"><ele>226.0</ele><time>2026-05-01T17:14:32Z</time></trkpt><trkpt lat="44.805862311855265" lon="9.429544147034294"><ele>226.0</ele><time>2026-05-01T17:14:33Z</time></trkpt><trkpt lat="44.80600656297634" lon="9.429746651814614"><ele>226.0</ele><time>2026-05-01T17:14:34Z</time></trkpt><trkpt lat="44.80614715865439" lon="9.429948736785656"><ele>227.0</ele><time>2026-05-01T17:14:35Z</time></trkpt><trkpt lat="44.80628145793348" lon="9.43016223211935"><ele>228.0</ele><time>2026-05-01T17:14:36Z</time></trkpt><trkpt lat="44.80641799368515" lon="9.430373053257819"><ele>229.0</ele><time>2026-05-01T17:14:37Z</time></trkpt><trkpt lat="44.806541620361614" lon="9.430599752072467"><ele>229.0</ele><time>2026-05-01T17:14:38Z</time></trkpt><trkpt lat="44.80665512046487" lon="9.430849538486745"><ele>229.0</ele><time>2026-05-01T17:14:39Z</time></trkpt><trkpt lat="44.80677202685711" lon="9.431088927181973"><ele>229.0</ele><time>2026-05-01T17:14:40Z</time></trkpt><trkpt lat="44.80688568669127" lon="9.431351345475317"><ele>230.66666666666666</ele><time>2026-05-01T17:14:41Z</time></trkpt><trkpt lat="44.80700536461064" lon="9.431608508104768"><ele>232.33333333333331</ele><time>2026-05-01T17:14:42Z</time></trkpt><trkpt lat="44.80712662769569" lon="9.431866512909167"><ele>234.0</ele><time>2026-05-01T17:14:43Z</time></trkpt><trkpt lat="44.80724327592998" lon="9.432131853877673"><ele>231.0</ele><time>2026-05-01T17:14:44Z</time></trkpt><trkpt lat="44.80734792901534" lon="9.432405461005638"><ele>228.0</ele><time>2026-05-01T17:14:45Z</time></trkpt><trkpt lat="44.807447066180806" lon="9.432688135180793"><ele>225.0</ele><time>2026-05-01T17:14:46Z</time></trkpt><trkpt lat="44.807545137649434" lon="9.432970823034559"><ele>223.66666666666669</ele><time>2026-05-01T17:14:47Z</time></trkpt><trkpt lat="44.80764562319574" lon="9.433253407480022"><ele>222.33333333333334</ele><time>2026-05-01T17:14:48Z</time></trkpt><trkpt lat="44.80774461667034" lon="9.433534847134998"><ele>221.0</ele><time>2026-05-01T17:14:49Z</time></trkpt><trkpt lat="44.807845406165995" lon="9.43381793943825"><ele>221.0</ele><time>2026-05-01T17:14:50Z</time></trkpt><trkpt lat="44.80794368626365" lon="9.434101169506578"><ele>221.0</ele><time>2026-05-01T17:14:51Z</time></trkpt><trkpt lat="44.80804165031408" lon="9.434378113441177"><ele>221.0</ele><time>2026-05-01T17:14:52Z</time></trkpt><trkpt lat="44.80813875052855" lon="9.434654864736537"><ele>221.0</ele><time>2026-05-01T17:14:53Z</time></trkpt><trkpt lat="44.80823513623199" lon="9.434933229192866"><ele>221.0</ele><time>2026-05-01T17:14:54Z</time></trkpt><trkpt lat="44.80832924022136" lon="9.435204545198888"><ele>221.0</ele><time>2026-05-01T17:14:55Z</time></trkpt><trkpt lat="44.80842301507412" lon="9.435476259649318"><ele>219.66666666666669</ele><time>2026-05-01T17:14:56Z</time></trkpt><trkpt lat="44.808516099279665" lon="9.435744218076605"><ele>218.33333333333331</ele><time>2026-05-01T17:14:57Z</time></trkpt><trkpt lat="44.8086079604852" lon="9.43600686217828"><ele>217.0</ele><time>2026-05-01T17:14:58Z</time></trkpt><trkpt lat="44.808698816503835" lon="9.436269888210566"><ele>218.66666666666666</ele><time>2026-05-01T17:14:59Z</time></trkpt><trkpt lat="44.80879038786502" lon="9.436528647129531"><ele>220.33333333333331</ele><time>2026-05-01T17:15:00Z</time></trkpt><trkpt lat="44.80888651487464" lon="9.436780159029448"><ele>222.0</ele><time>2026-05-01T17:15:01Z</time></trkpt><trkpt lat="44.80899009311105" lon="9.437026919163937"><ele>222.0</ele><time>2026-05-01T17:15:02Z</time></trkpt><trkpt lat="44.80910641436917" lon="9.437262209716584"><ele>222.0</ele><time>2026-05-01T17:15:03Z</time></trkpt><trkpt lat="44.80923099095416" lon="9.437488527931828"><ele>222.0</ele><time>2026-05-01T17:15:04Z</time></trkpt><trkpt lat="44.80937257107298" lon="9.437703424293957"><ele>222.0</ele><time>2026-05-01T17:15:05Z</time></trkpt><trkpt lat="44.80951676430755" lon="9.437919760017694"><ele>222.0</ele><time>2026-05-01T17:15:06Z</time></trkpt><trkpt lat="44.80966184265652" lon="9.438133904901893"><ele>222.0</ele><time>2026-05-01T17:15:07Z</time></trkpt><trkpt lat="44.8098005910452" lon="9.438347149775117"><ele>221.66666666666669</ele><time>2026-05-01T17:15:08Z</time></trkpt><trkpt lat="44.80993648045443" lon="9.438552944313159"><ele>221.33333333333334</ele><time>2026-05-01T17:15:09Z</time></trkpt><trkpt lat="44.8100725423479" lon="9.438757075735548"><ele>221.0</ele><time>2026-05-01T17:15:10Z</time></trkpt><trkpt lat="44.81020888289881" lon="9.438958033210742"><ele>221.0</ele><time>2026-05-01T17:15:11Z</time></trkpt><trkpt lat="44.81034431146635" lon="9.43915889666151"><ele>221.0</ele><time>2026-05-01T17:15:12Z</time></trkpt><trkpt lat="44.81047601861081" lon="9.439366389154598"><ele>221.0</ele><time>2026-05-01T17:15:13Z</time></trkpt><trkpt lat="44.81059736351588" lon="9.43958504167734"><ele>222.33333333333334</ele><time>2026-05-01T17:15:14Z</time></trkpt><trkpt lat="44.810705258962464" lon="9.43982001534893"><ele>223.66666666666669</ele><time>2026-05-01T17:15:15Z</time></trkpt><trkpt lat="44.81080285430194" lon="9.4400661193854"><ele>225.0</ele><time>2026-05-01T17:15:16Z</time></trkpt><trkpt lat="44.810888889266046" lon="9.440322363397422"><ele>225.66666666666669</ele><time>2026-05-01T17:15:17Z</time></trkpt><trkpt lat="44.8109601000246" lon="9.440588336668778"><ele>226.33333333333334</ele><time>2026-05-01T17:15:18Z</time></trkpt><trkpt lat="44.81101404880314" lon="9.440861000144434"><ele>227.0</ele><time>2026-05-01T17:15:19Z</time></trkpt><trkpt lat="44.81105394950238" lon="9.44114148861857"><ele>224.33333333333334</ele><time>2026-05-01T17:15:20Z</time></trkpt><trkpt lat="44.81109260254535" lon="9.441423131161358"><ele>221.66666666666669</ele><time>2026-05-01T17:15:21Z</time></trkpt><trkpt lat="44.81112550361213" lon="9.441712368561268"><ele>219.0</ele><time>2026-05-01T17:15:22Z</time></trkpt><trkpt lat="44.811161658936015" lon="9.442001495005938"><ele>219.66666666666669</ele><time>2026-05-01T17:15:23Z</time></trkpt><trkpt lat="44.81119982573187" lon="9.442296294559402"><ele>220.33333333333334</ele><time>2026-05-01T17:15:24Z</time></trkpt><trkpt lat="44.811237745978595" lon="9.442587942400172"><ele>221.0</ele><time>2026-05-01T17:15:25Z</time></trkpt><trkpt lat="44.81127729758733" lon="9.442882078652861"><ele>221.0</ele><time>2026-05-01T17:15:26Z</time></trkpt><trkpt lat="44.81131064776407" lon="9.443178351228362"><ele>221.0</ele><time>2026-05-01T17:15:27Z</time></trkpt><trkpt lat="44.81134898165149" lon="9.44347480264"><ele>221.0</ele><time>2026-05-01T17:15:28Z</time></trkpt><trkpt lat="44.811385479149685" lon="9.443769815311564"><ele>221.33333333333334</ele><time>2026-05-01T17:15:29Z</time></trkpt><trkpt lat="44.811424435256015" lon="9.444066769883987"><ele>221.66666666666669</ele><time>2026-05-01T17:15:30Z</time></trkpt><trkpt lat="44.811464628382836" lon="9.444365802643217"><ele>222.0</ele><time>2026-05-01T17:15:31Z</time></trkpt><trkpt lat="44.81150537857314" lon="9.444663695418896"><ele>222.0</ele><time>2026-05-01T17:15:32Z</time></trkpt><trkpt lat="44.811543696268586" lon="9.444961567789502"><ele>222.0</ele><time>2026-05-01T17:15:33Z</time></trkpt><trkpt lat="44.811581499188186" lon="9.445261735782813"><ele>222.0</ele><time>2026-05-01T17:15:34Z</time></trkpt><trkpt lat="44.811616923101305" lon="9.445560135080328"><ele>221.66666666666669</ele><time>2026-05-01T17:15:35Z</time></trkpt><trkpt lat="44.81165979591806" lon="9.445856532083708"><ele>221.33333333333334</ele><time>2026-05-01T17:15:36Z</time></trkpt><trkpt lat="44.81169172348464" lon="9.44615285224819"><ele>221.0</ele><time>2026-05-01T17:15:37Z</time></trkpt><trkpt lat="44.811728916146116" lon="9.446448413389534"><ele>221.0</ele><time>2026-05-01T17:15:38Z</time></trkpt><trkpt lat="44.811762898778404" lon="9.446743131518689"><ele>221.0</ele><time>2026-05-01T17:15:39Z</time></trkpt><trkpt lat="44.81179810328461" lon="9.447033039699296"><ele>221.0</ele><time>2026-05-01T17:15:40Z</time></trkpt><trkpt lat="44.811823012326215" lon="9.44732917695708"><ele>218.66666666666669</ele><time>2026-05-01T17:15:41Z</time></trkpt><trkpt lat="44.81185754879102" lon="9.447613085004681"><ele>216.33333333333331</ele><time>2026-05-01T17:15:42Z</time></trkpt><trkpt lat="44.811889438236214" lon="9.447891127077803"><ele>214.0</ele><time>2026-05-01T17:15:43Z</time></trkpt><trkpt lat="44.811923172962295" lon="9.44816518748665"><ele>214.0</ele><time>2026-05-01T17:15:44Z</time></trkpt><trkpt lat="44.81196293898857" lon="9.448432894336692"><ele>214.0</ele><time>2026-05-01T17:15:45Z</time></trkpt><trkpt lat="44.81199569592003" lon="9.44869775050834"><ele>214.0</ele><time>2026-05-01T17:15:46Z</time></trkpt><trkpt lat="44.81202480299232" lon="9.448960292059922"><ele>214.33333333333331</ele><time>2026-05-01T17:15:47Z</time></trkpt><trkpt lat="44.81205653670948" lon="9.44921607305794"><ele>214.66666666666669</ele><time>2026-05-01T17:15:48Z</time></trkpt><trkpt lat="44.81208863126984" lon="9.449479807939124"><ele>215.0</ele><time>2026-05-01T17:15:49Z</time></trkpt><trkpt lat="44.812119140531884" lon="9.449741040485709"><ele>216.33333333333334</ele><time>2026-05-01T17:15:50Z</time></trkpt><trkpt lat="44.81214896881399" lon="9.450020977297378"><ele>217.66666666666669</ele><time>2026-05-01T17:15:51Z</time></trkpt><trkpt lat="44.812184018964295" lon="9.450321712469542"><ele>219.0</ele><time>2026-05-01T17:15:52Z</time></trkpt><trkpt lat="44.812225978015874" lon="9.45063124974971"><ele>219.0</ele><time>2026-05-01T17:15:53Z</time></trkpt><trkpt lat="44.81225728834583" lon="9.45092525145462"><ele>219.0</ele><time>2026-05-01T17:15:54Z</time></trkpt><trkpt lat="44.81229024228661" lon="9.45119309880995"><ele>219.0</ele><time>2026-05-01T17:15:55Z</time></trkpt><trkpt lat="44.81232409055124" lon="9.45144759112351"><ele>220.0</ele><time>2026-05-01T17:15:56Z</time></trkpt><trkpt lat="44.81236441891534" lon="9.451683828104331"><ele>221.0</ele><time>2026-05-01T17:15:57Z</time></trkpt><trkpt lat="44.81241483397691" lon="9.45191666076724"><ele>222.0</ele><time>2026-05-01T17:15:58Z</time></trkpt><trkpt lat="44.81247832299429" lon="9.452147016207817"><ele>222.33333333333331</ele><time>2026-05-01T17:15:59Z</time></trkpt><trkpt lat="44.81254989921907" lon="9.4523693648127"><ele>222.66666666666666</ele><time>2026-05-01T17:16:00Z</time></trkpt><trkpt lat="44.812625841844266" lon="9.452572731964889"><ele>223.0</ele><time>2026-05-01T17:16:01Z</time></trkpt><trkpt lat="44.812709692491886" lon="9.452772223571658"><ele>220.0</ele><time>2026-05-01T17:16:02Z</time></trkpt><trkpt lat="44.81279958611365" lon="9.452971165579434"><ele>217.0</ele><time>2026-05-01T17:16:03Z</time></trkpt><trkpt lat="44.81288747586309" lon="9.453168825328211"><ele>214.0</ele><time>2026-05-01T17:16:04Z</time></trkpt><trkpt lat="44.812970764298846" lon="9.453365943021417"><ele>214.0</ele><time>2026-05-01T17:16:05Z</time></trkpt><trkpt lat="44.813060116050345" lon="9.453558882297028"><ele>214.0</ele><time>2026-05-01T17:16:06Z</time></trkpt><trkpt lat="44.81314462732922" lon="9.45374711602044"><ele>214.0</ele><time>2026-05-01T17:16:07Z</time></trkpt><trkpt lat="44.81322529634032" lon="9.453925448031196"><ele>213.25</ele><time>2026-05-01T17:16:08Z</time></trkpt><trkpt lat="44.813301385692846" lon="9.454095730120013"><ele>212.5</ele><time>2026-05-01T17:16:09Z</time></trkpt><trkpt lat="44.81337670481185" lon="9.454260690264018"><ele>211.75</ele><time>2026-05-01T17:16:10Z</time></trkpt><trkpt lat="44.81345221913293" lon="9.454426401615688"><ele>211.0</ele><time>2026-05-01T17:16:11Z</time></trkpt><trkpt lat="44.81352778583049" lon="9.45458986318546"><ele>212.0</ele><time>2026-05-01T17:16:12Z</time></trkpt><trkpt lat="44.813602025899755" lon="9.454754114680206"><ele>213.0</ele><time>2026-05-01T17:16:13Z</time></trkpt><trkpt lat="44.813674941620455" lon="9.454918473011682"><ele>214.0</ele><time>2026-05-01T17:16:14Z</time></trkpt><trkpt lat="44.81374605186783" lon="9.455082250235714"><ele>215.0</ele><time>2026-05-01T17:16:15Z</time></trkpt><trkpt lat="44.81381820077604" lon="9.455243655943196"><ele>215.0</ele><time>2026-05-01T17:16:16Z</time></trkpt><trkpt lat="44.81388851737883" lon="9.455399384204707"><ele>215.0</ele><time>2026-05-01T17:16:17Z</time></trkpt><trkpt lat="44.81395919867127" lon="9.45555301027057"><ele>215.0</ele><time>2026-05-01T17:16:18Z</time></trkpt><trkpt lat="44.8140297681703" lon="9.455709936287668"><ele>215.0</ele><time>2026-05-01T17:16:19Z</time></trkpt><trkpt lat="44.81410442107247" lon="9.455867805438702"><ele>214.5</ele><time>2026-05-01T17:16:20Z</time></trkpt><trkpt lat="44.81417548579702" lon="9.45603140940837"><ele>214.0</ele><time>2026-05-01T17:16:21Z</time></trkpt><trkpt lat="44.81425120566772" lon="9.456198484839895"><ele>213.5</ele><time>2026-05-01T17:16:22Z</time></trkpt><trkpt lat="44.814325384181295" lon="9.456367321280823"><ele>213.0</ele><time>2026-05-01T17:16:23Z</time></trkpt><trkpt lat="44.81440302510828" lon="9.456537472655222"><ele>213.0</ele><time>2026-05-01T17:16:24Z</time></trkpt><trkpt lat="44.81447395967963" lon="9.456718125758247"><ele>213.0</ele><time>2026-05-01T17:16:25Z</time></trkpt><trkpt lat="44.81455472500059" lon="9.456890738908047"><ele>213.0</ele><time>2026-05-01T17:16:26Z</time></trkpt><trkpt lat="44.81462926928576" lon="9.457052199440092"><ele>213.0</ele><time>2026-05-01T17:16:27Z</time></trkpt><trkpt lat="44.81469762049435" lon="9.457205239728404"><ele>216.25</ele><time>2026-05-01T17:16:28Z</time></trkpt><trkpt lat="44.814774522928225" lon="9.457359697769853"><ele>219.5</ele><time>2026-05-01T17:16:29Z</time></trkpt><trkpt lat="44.81485316307689" lon="9.457527514904099"><ele>222.75</ele><time>2026-05-01T17:16:30Z</time></trkpt><trkpt lat="44.814942907571684" lon="9.457695077104047"><ele>226.0</ele><time>2026-05-01T17:16:31Z</time></trkpt><trkpt lat="44.81502773714316" lon="9.457870946310408"><ele>224.66666666666666</ele><time>2026-05-01T17:16:32Z</time></trkpt><trkpt lat="44.81509149220477" lon="9.458063505251681"><ele>223.33333333333331</ele><time>2026-05-01T17:16:33Z</time></trkpt><trkpt lat="44.815176951320744" lon="9.458239328502463"><ele>222.0</ele><time>2026-05-01T17:16:34Z</time></trkpt><trkpt lat="44.81523560476239" lon="9.45843717485182"><ele>222.0</ele><time>2026-05-01T17:16:35Z</time></trkpt><trkpt lat="44.81528315243984" lon="9.458638098241108"><ele>222.0</ele><time>2026-05-01T17:16:36Z</time></trkpt><trkpt lat="44.815326332521565" lon="9.458847300867859"><ele>222.0</ele><time>2026-05-01T17:16:37Z</time></trkpt><trkpt lat="44.81536246304275" lon="9.459059203136455"><ele>222.0</ele><time>2026-05-01T17:16:38Z</time></trkpt><trkpt lat="44.81539232903348" lon="9.459276336907465"><ele>222.0</ele><time>2026-05-01T17:16:39Z</time></trkpt><trkpt lat="44.81541432282297" lon="9.459498266111199"><ele>222.0</ele><time>2026-05-01T17:16:40Z</time></trkpt><trkpt lat="44.815433789574094" lon="9.459731662354994"><ele>222.0</ele><time>2026-05-01T17:16:41Z</time></trkpt><trkpt lat="44.81545455411818" lon="9.45996825402294"><ele>222.0</ele><time>2026-05-01T17:16:42Z</time></trkpt><trkpt lat="44.81547506381462" lon="9.460210011140424"><ele>222.0</ele><time>2026-05-01T17:16:43Z</time></trkpt><trkpt lat="44.81549085421591" lon="9.460460717905267"><ele>222.66666666666669</ele><time>2026-05-01T17:16:44Z</time></trkpt><trkpt lat="44.81550894742203" lon="9.460708019469163"><ele>223.33333333333334</ele><time>2026-05-01T17:16:45Z</time></trkpt><trkpt lat="44.81553415488893" lon="9.460954876028046"><ele>224.0</ele><time>2026-05-01T17:16:46Z</time></trkpt><trkpt lat="44.81555833796067" lon="9.4611972587677"><ele>224.66666666666669</ele><time>2026-05-01T17:16:47Z</time></trkpt><trkpt lat="44.81558390780304" lon="9.461435228252363"><ele>225.33333333333331</ele><time>2026-05-01T17:16:48Z</time></trkpt><trkpt lat="44.81561859940154" lon="9.46167234251773"><ele>226.0</ele><time>2026-05-01T17:16:49Z</time></trkpt><trkpt lat="44.81565428404931" lon="9.461911543255528"><ele>227.0</ele><time>2026-05-01T17:16:50Z</time></trkpt><trkpt lat="44.815692312633686" lon="9.462151527469606"><ele>228.0</ele><time>2026-05-01T17:16:51Z</time></trkpt><trkpt lat="44.81573261831297" lon="9.46239547909548"><ele>229.0</ele><time>2026-05-01T17:16:52Z</time></trkpt><trkpt lat="44.81577277971705" lon="9.462640761157504"><ele>229.0</ele><time>2026-05-01T17:16:53Z</time></trkpt><trkpt lat="44.815810970587734" lon="9.462887824940784"><ele>229.0</ele><time>2026-05-01T17:16:54Z</time></trkpt><trkpt lat="44.815848301775226" lon="9.463138104484376"><ele>229.0</ele><time>2026-05-01T17:16:55Z</time></trkpt><trkpt lat="44.81588375384712" lon="9.463389706717647"><ele>229.33333333333331</ele><time>2026-05-01T17:16:56Z</time></trkpt><trkpt lat="44.815917138007734" lon="9.463641961640173"><ele>229.66666666666669</ele><time>2026-05-01T17:16:57Z</time></trkpt><trkpt lat="44.81594773656341" lon="9.463895490484532"><ele>230.0</ele><time>2026-05-01T17:16:58Z</time></trkpt><trkpt lat="44.81597709238757" lon="9.464147483195037"><ele>224.33333333333334</ele><time>2026-05-01T17:16:59Z</time></trkpt><trkpt lat="44.81600284737433" lon="9.464401006241907"><ele>218.66666666666669</ele><time>2026-05-01T17:17:00Z</time></trkpt><trkpt lat="44.81602502561959" lon="9.464657199425435"><ele>213.0</ele><time>2026-05-01T17:17:01Z</time></trkpt><trkpt lat="44.81605052856916" lon="9.46491660556799"><ele>213.0</ele><time>2026-05-01T17:17:02Z</time></trkpt><trkpt lat="44.81608195752204" lon="9.465169940960546"><ele>213.0</ele><time>2026-05-01T17:17:03Z</time></trkpt><trkpt lat="44.81612545001772" lon="9.465419973010585"><ele>213.0</ele><time>2026-05-01T17:17:04Z</time></trkpt><trkpt lat="44.816191642835435" lon="9.465656333012188"><ele>215.0</ele><time>2026-05-01T17:17:05Z</time></trkpt><trkpt lat="44.8162774077919" lon="9.465886392201169"><ele>217.0</ele><time>2026-05-01T17:17:06Z</time></trkpt><trkpt lat="44.81637197921036" lon="9.466107519263437"><ele>219.0</ele><time>2026-05-01T17:17:07Z</time></trkpt><trkpt lat="44.81647708067535" lon="9.466329876601103"><ele>222.0</ele><time>2026-05-01T17:17:08Z</time></trkpt><trkpt lat="44.81657459590062" lon="9.466558369921684"><ele>225.0</ele><time>2026-05-01T17:17:09Z</time></trkpt><trkpt lat="44.81666766869257" lon="9.466787764645668"><ele>228.0</ele><time>2026-05-01T17:17:10Z</time></trkpt><trkpt lat="44.81675932398036" lon="9.467021641733703"><ele>224.33333333333331</ele><time>2026-05-01T17:17:11Z</time></trkpt><trkpt lat="44.81683887398755" lon="9.467258669690652"><ele>220.66666666666666</ele><time>2026-05-01T17:17:12Z</time></trkpt><trkpt lat="44.81691266260275" lon="9.467501773397107"><ele>217.0</ele><time>2026-05-01T17:17:13Z</time></trkpt><trkpt lat="44.81697629258981" lon="9.467751522017148"><ele>217.33333333333331</ele><time>2026-05-01T17:17:14Z</time></trkpt><trkpt lat="44.81702966432721" lon="9.468008001505924"><ele>217.66666666666669</ele><time>2026-05-01T17:17:15Z</time></trkpt><trkpt lat="44.81707779931163" lon="9.468266582991387"><ele>218.0</ele><time>2026-05-01T17:17:16Z</time></trkpt><trkpt lat="44.81712586594504" lon="9.468527550427753"><ele>218.66666666666669</ele><time>2026-05-01T17:17:17Z</time></trkpt><trkpt lat="44.81717648792301" lon="9.468787226261883"><ele>219.33333333333331</ele><time>2026-05-01T17:17:18Z</time></trkpt><trkpt lat="44.81723144576091" lon="9.469042657464984"><ele>220.0</ele><time>2026-05-01T17:17:19Z</time></trkpt><trkpt lat="44.817274838167954" lon="9.469295389241308"><ele>220.0</ele><time>2026-05-01T17:17:20Z</time></trkpt><trkpt lat="44.81732676397623" lon="9.469539355475302"><ele>220.0</ele><time>2026-05-01T17:17:21Z</time></trkpt><trkpt lat="44.817372558590726" lon="9.469778820587216"><ele>220.0</ele><time>2026-05-01T17:17:22Z</time></trkpt><trkpt lat="44.817411148071734" lon="9.470001044270768"><ele>222.5</ele><time>2026-05-01T17:17:23Z</time></trkpt><trkpt lat="44.81744550340723" lon="9.470202865407634"><ele>225.0</ele><time>2026-05-01T17:17:24Z</time></trkpt><trkpt lat="44.8174831815781" lon="9.470384465605644"><ele>227.5</ele><time>2026-05-01T17:17:25Z</time></trkpt><trkpt lat="44.817512287486046" lon="9.47055982697656"><ele>230.0</ele><time>2026-05-01T17:17:26Z</time></trkpt><trkpt lat="44.8175410552072" lon="9.470724819940264"><ele>230.25</ele><time>2026-05-01T17:17:27Z</time></trkpt><trkpt lat="44.817561224612696" lon="9.470909531865935"><ele>230.5</ele><time>2026-05-01T17:17:28Z</time></trkpt><trkpt lat="44.81755754233609" lon="9.471095314297882"><ele>230.75</ele><time>2026-05-01T17:17:29Z</time></trkpt><trkpt lat="44.8175360704171" lon="9.471269405619749"><ele>231.0</ele><time>2026-05-01T17:17:30Z</time></trkpt><trkpt lat="44.81750782669111" lon="9.471430979236823"><ele>231.0</ele><time>2026-05-01T17:17:31Z</time></trkpt><trkpt lat="44.817463418271906" lon="9.471585100244639"><ele>231.0</ele><time>2026-05-01T17:17:32Z</time></trkpt><trkpt lat="44.81740390261501" lon="9.471727431001954"><ele>231.0</ele><time>2026-05-01T17:17:33Z</time></trkpt><trkpt lat="44.817325814783814" lon="9.471851454896944"><ele>231.0</ele><time>2026-05-01T17:17:34Z</time></trkpt><trkpt lat="44.81724232931142" lon="9.471965526139144"><ele>231.0</ele><time>2026-05-01T17:17:35Z</time></trkpt><trkpt lat="44.81714758827169" lon="9.472068704160606"><ele>231.0</ele><time>2026-05-01T17:17:36Z</time></trkpt><trkpt lat="44.817052292573486" lon="9.472170695151908"><ele>231.0</ele><time>2026-05-01T17:17:37Z</time></trkpt><trkpt lat="44.81695830222617" lon="9.472269153093507"><ele>231.0</ele><time>2026-05-01T17:17:38Z</time></trkpt><trkpt lat="44.81688735607016" lon="9.472403300767963"><ele>231.66666666666666</ele><time>2026-05-01T17:17:39Z</time></trkpt><trkpt lat="44.816804681221065" lon="9.472462956209341"><ele>232.33333333333331</ele><time>2026-05-01T17:17:40Z</time></trkpt><trkpt lat="44.81671390519304" lon="9.472547413854702"><ele>233.0</ele><time>2026-05-01T17:17:42Z</time></trkpt><trkpt lat="44.816638743114716" lon="9.472572835516022"><ele>233.66666666666666</ele><time>2026-05-01T17:17:43Z</time></trkpt><trkpt lat="44.81656917191197" lon="9.472599248269958"><ele>234.33333333333331</ele><time>2026-05-01T17:17:44Z</time></trkpt><trkpt lat="44.81650532880712" lon="9.472674933298222"><ele>235.0</ele><time>2026-05-01T17:17:45Z</time></trkpt><trkpt lat="44.816456776639676" lon="9.472749964475957"><ele>234.99999999999997</ele><time>2026-05-01T17:17:46Z</time></trkpt><trkpt lat="44.816436133960025" lon="9.472857054219816"><ele>235.0</ele><time>2026-05-01T17:17:47Z</time></trkpt><trkpt lat="44.81645570043922" lon="9.472949644106837"><ele>235.0</ele><time>2026-05-01T17:17:48Z</time></trkpt><trkpt lat="44.816487530261725" lon="9.473038692834397"><ele>235.0</ele><time>2026-05-01T17:17:49Z</time></trkpt><trkpt lat="44.81654881927584" lon="9.473134338721469"><ele>234.99999999999997</ele><time>2026-05-01T17:17:50Z</time></trkpt><trkpt lat="44.81659912628478" lon="9.473238673527453"><ele>235.0</ele><time>2026-05-01T17:17:51Z</time></trkpt><trkpt lat="44.81662783593436" lon="9.473365172692978"><ele>233.25</ele><time>2026-05-01T17:17:52Z</time></trkpt><trkpt lat="44.816633870817924" lon="9.473529488858617"><ele>231.5</ele><time>2026-05-01T17:17:53.001Z</time></trkpt><trkpt lat="44.81662987969511" lon="9.473697366131695"><ele>229.75</ele><time>2026-05-01T17:17:54.001Z</time></trkpt><trkpt lat="44.81662590221054" lon="9.473874523134247"><ele>228.0</ele><time>2026-05-01T17:17:55.001Z</time></trkpt><trkpt lat="44.81662056500005" lon="9.47405727194528"><ele>228.0</ele><time>2026-05-01T17:17:56.001Z</time></trkpt><trkpt lat="44.816611052085634" lon="9.474244611652692"><ele>228.0</ele><time>2026-05-01T17:17:57.001Z</time></trkpt><trkpt lat="44.816609500663" lon="9.47443507683806"><ele>228.0</ele><time>2026-05-01T17:17:58.001Z</time></trkpt><trkpt lat="44.81661170235949" lon="9.47463386370946"><ele>228.0</ele><time>2026-05-01T17:17:59.001Z</time></trkpt><trkpt lat="44.816603702643626" lon="9.474840603872437"><ele>227.0</ele><time>2026-05-01T17:18:00.001Z</time></trkpt><trkpt lat="44.81660222297646" lon="9.475051538363479"><ele>226.0</ele><time>2026-05-01T17:18:01.001Z</time></trkpt><trkpt lat="44.8166011367046" lon="9.475266578811597"><ele>225.0</ele><time>2026-05-01T17:18:02.001Z</time></trkpt><trkpt lat="44.81659987067007" lon="9.475479263534618"><ele>223.66666666666669</ele><time>2026-05-01T17:18:03.001Z</time></trkpt><trkpt lat="44.81660043288814" lon="9.47569341064586"><ele>222.33333333333334</ele><time>2026-05-01T17:18:04.001Z</time></trkpt><trkpt lat="44.81660040077491" lon="9.475913705772784"><ele>221.0</ele><time>2026-05-01T17:18:05.001Z</time></trkpt><trkpt lat="44.81659854916593" lon="9.476141880450573"><ele>219.33333333333334</ele><time>2026-05-01T17:18:06.001Z</time></trkpt><trkpt lat="44.816603688761454" lon="9.476373120548388"><ele>217.66666666666669</ele><time>2026-05-01T17:18:07.001Z</time></trkpt><trkpt lat="44.816601671366286" lon="9.47660747284618"><ele>216.0</ele><time>2026-05-01T17:18:08.001Z</time></trkpt><trkpt lat="44.816598217489826" lon="9.476846620685807"><ele>216.0</ele><time>2026-05-01T17:18:09.001Z</time></trkpt><trkpt lat="44.81659528513028" lon="9.477085007719843"><ele>216.0</ele><time>2026-05-01T17:18:10.001Z</time></trkpt><trkpt lat="44.81659245090439" lon="9.477333467325302"><ele>216.0</ele><time>2026-05-01T17:18:11.001Z</time></trkpt><trkpt lat="44.81658743022852" lon="9.477591874668676"><ele>214.33333333333331</ele><time>2026-05-01T17:18:12.001Z</time></trkpt><trkpt lat="44.81658732614174" lon="9.477852105295119"><ele>212.66666666666666</ele><time>2026-05-01T17:18:13.001Z</time></trkpt><trkpt lat="44.816587424447654" lon="9.478124968121737"><ele>211.0</ele><time>2026-05-01T17:18:14.001Z</time></trkpt><trkpt lat="44.81658586200343" lon="9.478389615827892"><ele>210.66666666666666</ele><time>2026-05-01T17:18:15.001Z</time></trkpt><trkpt lat="44.81658199257274" lon="9.478650189587379"><ele>210.33333333333331</ele><time>2026-05-01T17:18:16.001Z</time></trkpt><trkpt lat="44.8165840730351" lon="9.478912075357906"><ele>210.0</ele><time>2026-05-01T17:18:17.001Z</time></trkpt><trkpt lat="44.81659058241742" lon="9.479177982131668"><ele>209.66666666666669</ele><time>2026-05-01T17:18:18.001Z</time></trkpt><trkpt lat="44.816602626588114" lon="9.479442061463546"><ele>209.33333333333334</ele><time>2026-05-01T17:18:19.001Z</time></trkpt><trkpt lat="44.816622444360945" lon="9.479707318602241"><ele>209.0</ele><time>2026-05-01T17:18:20.001Z</time></trkpt><trkpt lat="44.816652465524754" lon="9.479968345183439"><ele>208.33333333333334</ele><time>2026-05-01T17:18:21.001Z</time></trkpt><trkpt lat="44.81668921254681" lon="9.480227535751805"><ele>207.66666666666669</ele><time>2026-05-01T17:18:22.001Z</time></trkpt><trkpt lat="44.816734963960236" lon="9.480485705429986"><ele>207.0</ele><time>2026-05-01T17:18:23.001Z</time></trkpt><trkpt lat="44.81678961115256" lon="9.48073534831582"><ele>206.0</ele><time>2026-05-01T17:18:24.001Z</time></trkpt><trkpt lat="44.81684803274804" lon="9.480987961072783"><ele>205.0</ele><time>2026-05-01T17:18:25.001Z</time></trkpt><trkpt lat="44.81691666175947" lon="9.481240785445342"><ele>204.0</ele><time>2026-05-01T17:18:26.001Z</time></trkpt><trkpt lat="44.816995629709346" lon="9.481492795122971"><ele>204.0</ele><time>2026-05-01T17:18:27.001Z</time></trkpt><trkpt lat="44.81708132672132" lon="9.481735953036676"><ele>204.0</ele><time>2026-05-01T17:18:28.001Z</time></trkpt><trkpt lat="44.817172914051966" lon="9.48197097146209"><ele>204.0</ele><time>2026-05-01T17:18:29.001Z</time></trkpt><trkpt lat="44.81726036893418" lon="9.482207204817469"><ele>207.66666666666669</ele><time>2026-05-01T17:18:30.001Z</time></trkpt><trkpt lat="44.81734422765674" lon="9.482439583055427"><ele>211.33333333333334</ele><time>2026-05-01T17:18:31.001Z</time></trkpt><trkpt lat="44.81742248142586" lon="9.482669342237905"><ele>215.0</ele><time>2026-05-01T17:18:32.001Z</time></trkpt><trkpt lat="44.81749833198071" lon="9.482898320850518"><ele>216.0</ele><time>2026-05-01T17:18:33.001Z</time></trkpt><trkpt lat="44.81757136731239" lon="9.48312963061134"><ele>217.0</ele><time>2026-05-01T17:18:34.018Z</time></trkpt><trkpt lat="44.81763787342992" lon="9.48335185960172"><ele>218.0</ele><time>2026-05-01T17:18:35.018Z</time></trkpt><trkpt lat="44.817699546318934" lon="9.483572573520426"><ele>220.0</ele><time>2026-05-01T17:18:36.02Z</time></trkpt><trkpt lat="44.817773269998774" lon="9.483780360487033"><ele>222.0</ele><time>2026-05-01T17:18:37.015Z</time></trkpt><trkpt lat="44.818598139141514" lon="9.485956477010143"><ele>214.33333333333331</ele><time>2026-05-01T17:18:47.001Z</time></trkpt><trkpt lat="44.81866203353511" lon="9.486197986604376"><ele>206.66666666666666</ele><time>2026-05-01T17:18:48.001Z</time></trkpt><trkpt lat="44.81872472103163" lon="9.486472986530465"><ele>199.0</ele><time>2026-05-01T17:18:49Z</time></trkpt><trkpt lat="44.818737817498146" lon="9.486763426354921"><ele>198.66666666666666</ele><time>2026-05-01T17:18:50Z</time></trkpt><trkpt lat="44.818762390761165" lon="9.487003560500632"><ele>198.33333333333331</ele><time>2026-05-01T17:18:51Z</time></trkpt><trkpt lat="44.818770243785025" lon="9.487256525850364"><ele>198.0</ele><time>2026-05-01T17:18:52Z</time></trkpt><trkpt lat="44.81877168749823" lon="9.487495731230457"><ele>197.33333333333331</ele><time>2026-05-01T17:18:53Z</time></trkpt><trkpt lat="44.81877667244767" lon="9.487745301427571"><ele>196.66666666666666</ele><time>2026-05-01T17:18:54Z</time></trkpt><trkpt lat="44.818786300651546" lon="9.488001727674934"><ele>196.0</ele><time>2026-05-01T17:18:55Z</time></trkpt><trkpt lat="44.81879390022904" lon="9.488254959163694"><ele>195.66666666666666</ele><time>2026-05-01T17:18:56Z</time></trkpt><trkpt lat="44.81879946567004" lon="9.488508345617852"><ele>195.33333333333331</ele><time>2026-05-01T17:18:57Z</time></trkpt><trkpt lat="44.81880128733775" lon="9.488768074597894"><ele>195.0</ele><time>2026-05-01T17:18:58Z</time></trkpt><trkpt lat="44.81880733086425" lon="9.489019625425982"><ele>195.0</ele><time>2026-05-01T17:18:59Z</time></trkpt><trkpt lat="44.81881684673274" lon="9.48927500721299"><ele>195.0</ele><time>2026-05-01T17:19:00Z</time></trkpt><trkpt lat="44.81882505256597" lon="9.489532392805106"><ele>195.0</ele><time>2026-05-01T17:19:01Z</time></trkpt><trkpt lat="44.8188318441047" lon="9.489790779164647"><ele>195.0</ele><time>2026-05-01T17:19:02Z</time></trkpt><trkpt lat="44.81883859937435" lon="9.490049784259028"><ele>195.0</ele><time>2026-05-01T17:19:03Z</time></trkpt><trkpt lat="44.81884369240374" lon="9.490303572092996"><ele>195.0</ele><time>2026-05-01T17:19:04Z</time></trkpt><trkpt lat="44.818851431300466" lon="9.490556839461796"><ele>195.0</ele><time>2026-05-01T17:19:05Z</time></trkpt><trkpt lat="44.8188604263782" lon="9.49081046082198"><ele>195.0</ele><time>2026-05-01T17:19:06Z</time></trkpt><trkpt lat="44.81886740393567" lon="9.491075777513736"><ele>195.0</ele><time>2026-05-01T17:19:07Z</time></trkpt><trkpt lat="44.818876641279545" lon="9.491336589017928"><ele>194.66666666666669</ele><time>2026-05-01T17:19:08Z</time></trkpt><trkpt lat="44.818882237045614" lon="9.49160158264699"><ele>194.33333333333334</ele><time>2026-05-01T17:19:09Z</time></trkpt><trkpt lat="44.818884458528366" lon="9.491867828955248"><ele>194.0</ele><time>2026-05-01T17:19:10Z</time></trkpt><trkpt lat="44.818895580252914" lon="9.492132741331258"><ele>194.0</ele><time>2026-05-01T17:19:11Z</time></trkpt><trkpt lat="44.818905927548" lon="9.492397616982752"><ele>194.0</ele><time>2026-05-01T17:19:12Z</time></trkpt><trkpt lat="44.818925877102906" lon="9.492664792694448"><ele>194.0</ele><time>2026-05-01T17:19:13Z</time></trkpt><trkpt lat="44.818954175929704" lon="9.492935319721052"><ele>194.0</ele><time>2026-05-01T17:19:14Z</time></trkpt><trkpt lat="44.81898878680226" lon="9.493199949889597"><ele>194.0</ele><time>2026-05-01T17:19:15Z</time></trkpt><trkpt lat="44.81902858767278" lon="9.4934571017821"><ele>194.0</ele><time>2026-05-01T17:19:16Z</time></trkpt><trkpt lat="44.819074704686244" lon="9.493713356188522"><ele>195.33333333333334</ele><time>2026-05-01T17:19:17Z</time></trkpt><trkpt lat="44.81913166338907" lon="9.493972966557243"><ele>196.66666666666669</ele><time>2026-05-01T17:19:18Z</time></trkpt><trkpt lat="44.81919214980799" lon="9.494230116242166"><ele>198.0</ele><time>2026-05-01T17:19:19Z</time></trkpt><trkpt lat="44.819258192664336" lon="9.494487529671034"><ele>195.33333333333334</ele><time>2026-05-01T17:19:20Z</time></trkpt><trkpt lat="44.81932899248013" lon="9.494742170247054"><ele>192.66666666666669</ele><time>2026-05-01T17:19:21Z</time></trkpt><trkpt lat="44.81940254858556" lon="9.495000190869957"><ele>190.0</ele><time>2026-05-01T17:19:22Z</time></trkpt><trkpt lat="44.8194741211665" lon="9.49525620186489"><ele>191.0</ele><time>2026-05-01T17:19:23Z</time></trkpt><trkpt lat="44.81954569360864" lon="9.495507838196406"><ele>192.0</ele><time>2026-05-01T17:19:24Z</time></trkpt><trkpt lat="44.81961896112946" lon="9.495756039669915"><ele>193.0</ele><time>2026-05-01T17:19:25Z</time></trkpt><trkpt lat="44.81968516602647" lon="9.496006630096652"><ele>193.0</ele><time>2026-05-01T17:19:26Z</time></trkpt><trkpt lat="44.819758400734024" lon="9.49625048209418"><ele>193.0</ele><time>2026-05-01T17:19:27Z</time></trkpt><trkpt lat="44.81982912367212" lon="9.496490010934671"><ele>193.0</ele><time>2026-05-01T17:19:28Z</time></trkpt><trkpt lat="44.81990554807073" lon="9.496732863578362"><ele>194.66666666666666</ele><time>2026-05-01T17:19:29Z</time></trkpt><trkpt lat="44.81998247222636" lon="9.496971633123131"><ele>196.33333333333331</ele><time>2026-05-01T17:19:30Z</time></trkpt><trkpt lat="44.82006420556879" lon="9.49721055938296"><ele>198.0</ele><time>2026-05-01T17:19:31Z</time></trkpt><trkpt lat="44.82014796556041" lon="9.49745378840243"><ele>196.0</ele><time>2026-05-01T17:19:32Z</time></trkpt><trkpt lat="44.82023204264283" lon="9.497691817026466"><ele>194.0</ele><time>2026-05-01T17:19:33Z</time></trkpt><trkpt lat="44.82031206914341" lon="9.497931882857205"><ele>192.0</ele><time>2026-05-01T17:19:34Z</time></trkpt><trkpt lat="44.82039267734552" lon="9.498174157101028"><ele>192.0</ele><time>2026-05-01T17:19:35Z</time></trkpt><trkpt lat="44.82046800682364" lon="9.498417829256269"><ele>192.0</ele><time>2026-05-01T17:19:36Z</time></trkpt><trkpt lat="44.82054015276383" lon="9.498666687583366"><ele>192.0</ele><time>2026-05-01T17:19:37Z</time></trkpt><trkpt lat="44.82060701593798" lon="9.498917166686704"><ele>192.33333333333331</ele><time>2026-05-01T17:19:38Z</time></trkpt><trkpt lat="44.82067102975403" lon="9.499173370632775"><ele>192.66666666666666</ele><time>2026-05-01T17:19:39Z</time></trkpt><trkpt lat="44.82073439056081" lon="9.49942987676293"><ele>193.0</ele><time>2026-05-01T17:19:40Z</time></trkpt><trkpt lat="44.820798692382596" lon="9.499685379579653"><ele>193.0</ele><time>2026-05-01T17:19:41Z</time></trkpt><trkpt lat="44.82086569183922" lon="9.499935998964009"><ele>193.0</ele><time>2026-05-01T17:19:42Z</time></trkpt><trkpt lat="44.820940825226536" lon="9.500182601214295"><ele>193.0</ele><time>2026-05-01T17:19:43Z</time></trkpt><trkpt lat="44.82102359270729" lon="9.500416820092227"><ele>191.66666666666666</ele><time>2026-05-01T17:19:44Z</time></trkpt><trkpt lat="44.82111540373054" lon="9.500646478237307"><ele>190.33333333333331</ele><time>2026-05-01T17:19:45Z</time></trkpt><trkpt lat="44.82121166346578" lon="9.500871363075907"><ele>189.0</ele><time>2026-05-01T17:19:46Z</time></trkpt><trkpt lat="44.821315532049766" lon="9.50109065109733"><ele>190.0</ele><time>2026-05-01T17:19:47Z</time></trkpt><trkpt lat="44.82142238108569" lon="9.50130152968646"><ele>191.0</ele><time>2026-05-01T17:19:48Z</time></trkpt><trkpt lat="44.82153822849223" lon="9.501503840677321"><ele>192.0</ele><time>2026-05-01T17:19:49Z</time></trkpt><trkpt lat="44.82166423323839" lon="9.501696641377032"><ele>192.0</ele><time>2026-05-01T17:19:50Z</time></trkpt><trkpt lat="44.82180185853234" lon="9.501882024467005"><ele>192.0</ele><time>2026-05-01T17:19:51Z</time></trkpt><trkpt lat="44.82194873730797" lon="9.502058962061627"><ele>192.0</ele><time>2026-05-01T17:19:52Z</time></trkpt><trkpt lat="44.822097978877075" lon="9.502231250200182"><ele>190.33333333333334</ele><time>2026-05-01T17:19:53Z</time></trkpt><trkpt lat="44.822253202780594" lon="9.502400003120671"><ele>188.66666666666669</ele><time>2026-05-01T17:19:54Z</time></trkpt><trkpt lat="44.8224087174021" lon="9.502567194928618"><ele>187.0</ele><time>2026-05-01T17:19:55Z</time></trkpt><trkpt lat="44.82256133946818" lon="9.502734688630833"><ele>187.33333333333334</ele><time>2026-05-01T17:19:56Z</time></trkpt><trkpt lat="44.82271464014299" lon="9.5029029194845"><ele>187.66666666666666</ele><time>2026-05-01T17:19:57Z</time></trkpt><trkpt lat="44.82286859455724" lon="9.503068762661956"><ele>188.0</ele><time>2026-05-01T17:19:58Z</time></trkpt><trkpt lat="44.82302094412473" lon="9.503243536353768"><ele>188.33333333333331</ele><time>2026-05-01T17:19:59.001Z</time></trkpt><trkpt lat="44.82316940985433" lon="9.503423291611947"><ele>188.66666666666666</ele><time>2026-05-01T17:20:00.001Z</time></trkpt><trkpt lat="44.82331743299826" lon="9.503612030685066"><ele>189.0</ele><time>2026-05-01T17:20:01.001Z</time></trkpt><trkpt lat="44.82346206390523" lon="9.503807039674767"><ele>188.66666666666666</ele><time>2026-05-01T17:20:02.001Z</time></trkpt><trkpt lat="44.82360409619086" lon="9.504012791813103"><ele>188.33333333333331</ele><time>2026-05-01T17:20:03.001Z</time></trkpt><trkpt lat="44.82373863846743" lon="9.504226846211587"><ele>188.0</ele><time>2026-05-01T17:20:04.001Z</time></trkpt><trkpt lat="44.82386994070021" lon="9.504452546138769"><ele>188.33333333333331</ele><time>2026-05-01T17:20:05.001Z</time></trkpt><trkpt lat="44.82399289902118" lon="9.50468660212306"><ele>188.66666666666666</ele><time>2026-05-01T17:20:06.001Z</time></trkpt><trkpt lat="44.82411330696012" lon="9.504922023949968"><ele>189.0</ele><time>2026-05-01T17:20:07.001Z</time></trkpt><trkpt lat="44.82423140485402" lon="9.505165323927619"><ele>188.66666666666666</ele><time>2026-05-01T17:20:08.001Z</time></trkpt><trkpt lat="44.824346289645" lon="9.505408561838129"><ele>188.33333333333331</ele><time>2026-05-01T17:20:09.001Z</time></trkpt><trkpt lat="44.8244609599895" lon="9.505656588568476"><ele>188.0</ele><time>2026-05-01T17:20:10.001Z</time></trkpt><trkpt lat="44.8245767061529" lon="9.505904442293133"><ele>188.0</ele><time>2026-05-01T17:20:11.001Z</time></trkpt><trkpt lat="44.824691547029374" lon="9.506153974766429"><ele>188.0</ele><time>2026-05-01T17:20:12.001Z</time></trkpt><trkpt lat="44.82480610874308" lon="9.506403266132338"><ele>188.0</ele><time>2026-05-01T17:20:13.001Z</time></trkpt><trkpt lat="44.82492303001899" lon="9.506655857380244"><ele>188.0</ele><time>2026-05-01T17:20:14.001Z</time></trkpt><trkpt lat="44.825038179820936" lon="9.506908777662526"><ele>188.0</ele><time>2026-05-01T17:20:15.001Z</time></trkpt><trkpt lat="44.82515421353482" lon="9.50716348189237"><ele>188.0</ele><time>2026-05-01T17:20:16.001Z</time></trkpt><trkpt lat="44.82527118287929" lon="9.50741950995977"><ele>188.0</ele><time>2026-05-01T17:20:17.001Z</time></trkpt><trkpt lat="44.82538884102005" lon="9.507675083868763"><ele>188.0</ele><time>2026-05-01T17:20:18.001Z</time></trkpt><trkpt lat="44.82551218052284" lon="9.507925787083343"><ele>188.0</ele><time>2026-05-01T17:20:19.001Z</time></trkpt><trkpt lat="44.82563481254874" lon="9.508175391370363"><ele>187.66666666666666</ele><time>2026-05-01T17:20:20.001Z</time></trkpt><trkpt lat="44.8257556545038" lon="9.508423669198349"><ele>187.33333333333334</ele><time>2026-05-01T17:20:21.001Z</time></trkpt><trkpt lat="44.82587831171988" lon="9.508668596656392"><ele>187.0</ele><time>2026-05-01T17:20:22.001Z</time></trkpt><trkpt lat="44.82600060393348" lon="9.508914402430692"><ele>187.0</ele><time>2026-05-01T17:20:23.001Z</time></trkpt><trkpt lat="44.82612315320649" lon="9.509156030853841"><ele>187.0</ele><time>2026-05-01T17:20:24.001Z</time></trkpt><trkpt lat="44.82624420287543" lon="9.50939831861999"><ele>187.0</ele><time>2026-05-01T17:20:25.001Z</time></trkpt><trkpt lat="44.82636483838666" lon="9.509638757010759"><ele>187.33333333333334</ele><time>2026-05-01T17:20:26.001Z</time></trkpt><trkpt lat="44.82648604745887" lon="9.509875581698221"><ele>187.66666666666666</ele><time>2026-05-01T17:20:27.001Z</time></trkpt><trkpt lat="44.826611080133205" lon="9.510109270389343"><ele>188.0</ele><time>2026-05-01T17:20:28.001Z</time></trkpt><trkpt lat="44.82673664951641" lon="9.510336575350703"><ele>188.33333333333331</ele><time>2026-05-01T17:20:29.001Z</time></trkpt><trkpt lat="44.826868500759154" lon="9.510557533428932"><ele>188.66666666666666</ele><time>2026-05-01T17:20:30.001Z</time></trkpt><trkpt lat="44.8270026209381" lon="9.51077109258749"><ele>189.0</ele><time>2026-05-01T17:20:31.001Z</time></trkpt><trkpt lat="44.82713804594729" lon="9.510982387413355"><ele>189.0</ele><time>2026-05-01T17:20:32.001Z</time></trkpt><trkpt lat="44.82727009627603" lon="9.511193760316687"><ele>189.0</ele><time>2026-05-01T17:20:33.001Z</time></trkpt><trkpt lat="44.82739844551584" lon="9.511408059649927"><ele>189.0</ele><time>2026-05-01T17:20:34.001Z</time></trkpt><trkpt lat="44.827522276768796" lon="9.51162395617804"><ele>189.66666666666666</ele><time>2026-05-01T17:20:35.001Z</time></trkpt><trkpt lat="44.827638764709185" lon="9.511848945023702"><ele>190.33333333333331</ele><time>2026-05-01T17:20:36.001Z</time></trkpt><trkpt lat="44.827745096306494" lon="9.512079907233442"><ele>191.0</ele><time>2026-05-01T17:20:37.001Z</time></trkpt><trkpt lat="44.82783948028428" lon="9.51232227206162"><ele>191.0</ele><time>2026-05-01T17:20:38Z</time></trkpt><trkpt lat="44.82792871980403" lon="9.512559668835337"><ele>191.0</ele><time>2026-05-01T17:20:39Z</time></trkpt><trkpt lat="44.828017197758165" lon="9.512804606786304"><ele>191.0</ele><time>2026-05-01T17:20:40Z</time></trkpt><trkpt lat="44.82810793704355" lon="9.513050854415669"><ele>194.66666666666666</ele><time>2026-05-01T17:20:41Z</time></trkpt><trkpt lat="44.8282062286357" lon="9.513292996101708"><ele>198.33333333333331</ele><time>2026-05-01T17:20:42Z</time></trkpt><trkpt lat="44.82831824455636" lon="9.513526304160091"><ele>202.0</ele><time>2026-05-01T17:20:43Z</time></trkpt><trkpt lat="44.82843995521249" lon="9.513748771286881"><ele>199.66666666666666</ele><time>2026-05-01T17:20:44Z</time></trkpt><trkpt lat="44.82857320157206" lon="9.513958099942487"><ele>197.33333333333331</ele><time>2026-05-01T17:20:45Z</time></trkpt><trkpt lat="44.82872182567805" lon="9.514149174684698"><ele>195.0</ele><time>2026-05-01T17:20:46Z</time></trkpt><trkpt lat="44.828881246469244" lon="9.514321728970009"><ele>195.0</ele><time>2026-05-01T17:20:47Z</time></trkpt><trkpt lat="44.82902244512322" lon="9.51451782876161"><ele>195.0</ele><time>2026-05-01T17:20:48Z</time></trkpt><trkpt lat="44.82917608751448" lon="9.514705475368322"><ele>195.0</ele><time>2026-05-01T17:20:49Z</time></trkpt><trkpt lat="44.82938541114464" lon="9.514805037839379"><ele>194.66666666666669</ele><time>2026-05-01T17:20:50Z</time></trkpt><trkpt lat="44.829553468691174" lon="9.514961550359985"><ele>194.33333333333334</ele><time>2026-05-01T17:20:51Z</time></trkpt><trkpt lat="44.829719361100686" lon="9.515112266992407"><ele>194.0</ele><time>2026-05-01T17:20:52Z</time></trkpt><trkpt lat="44.82986463109616" lon="9.515250955474173"><ele>194.0</ele><time>2026-05-01T17:20:53Z</time></trkpt><trkpt lat="44.829989159907484" lon="9.515376238255188"><ele>194.0</ele><time>2026-05-01T17:20:54Z</time></trkpt><trkpt lat="44.83009599805177" lon="9.515496517646618"><ele>194.0</ele><time>2026-05-01T17:20:55Z</time></trkpt><trkpt lat="44.83018501029089" lon="9.515612063606163"><ele>194.0</ele><time>2026-05-01T17:20:56Z</time></trkpt><trkpt lat="44.830253075666405" lon="9.515715875311557"><ele>194.42857142857142</ele><time>2026-05-01T17:20:57Z</time></trkpt><trkpt lat="44.83030432912935" lon="9.515817142729025"><ele>194.85714285714286</ele><time>2026-05-01T17:20:58Z</time></trkpt><trkpt lat="44.830329101308436" lon="9.515913768405103"><ele>195.28571428571428</ele><time>2026-05-01T17:20:59Z</time></trkpt><trkpt lat="44.830329624963525" lon="9.516014992602509"><ele>195.71428571428572</ele><time>2026-05-01T17:21:00Z</time></trkpt><trkpt lat="44.830326285845075" lon="9.516123560161356"><ele>196.14285714285717</ele><time>2026-05-01T17:21:01Z</time></trkpt><trkpt lat="44.830352867586484" lon="9.516205930371838"><ele>196.57142857142858</ele><time>2026-05-01T17:21:02Z</time></trkpt><trkpt lat="44.83040827455005" lon="9.516253037851337"><ele>197.0</ele><time>2026-05-01T17:21:03Z</time></trkpt><trkpt lat="44.83048282473301" lon="9.516261705418852"><ele>198.33333333333334</ele><time>2026-05-01T17:21:04Z</time></trkpt><trkpt lat="44.83056043670489" lon="9.516241812373327"><ele>199.66666666666669</ele><time>2026-05-01T17:21:05Z</time></trkpt><trkpt lat="44.83062408990134" lon="9.516251815246658"><ele>201.0</ele><time>2026-05-01T17:21:06Z</time></trkpt><trkpt lat="44.83068130245137" lon="9.516307546241363"><ele>202.33333333333331</ele><time>2026-05-01T17:21:07Z</time></trkpt><trkpt lat="44.830733931618234" lon="9.516406707924732"><ele>203.66666666666666</ele><time>2026-05-01T17:21:08Z</time></trkpt><trkpt lat="44.83078116441784" lon="9.516543236701901"><ele>205.0</ele><time>2026-05-01T17:21:09Z</time></trkpt><trkpt lat="44.830813537065175" lon="9.516714100558977"><ele>205.0</ele><time>2026-05-01T17:21:10Z</time></trkpt><trkpt lat="44.830836462722836" lon="9.516903568878822"><ele>205.0</ele><time>2026-05-01T17:21:11Z</time></trkpt><trkpt lat="44.83084684935549" lon="9.51707742098556"><ele>205.0</ele><time>2026-05-01T17:21:12Z</time></trkpt><trkpt lat="44.83083825590217" lon="9.517232570351245"><ele>205.0</ele><time>2026-05-01T17:21:13Z</time></trkpt><trkpt lat="44.83079814858161" lon="9.517393222102744"><ele>205.33333333333331</ele><time>2026-05-01T17:21:14Z</time></trkpt><trkpt lat="44.83072949395316" lon="9.517574892990126"><ele>205.66666666666669</ele><time>2026-05-01T17:21:15Z</time></trkpt><trkpt lat="44.83065624890371" lon="9.51776946925469"><ele>206.0</ele><time>2026-05-01T17:21:16Z</time></trkpt><trkpt lat="44.83059038586106" lon="9.517955569895319"><ele>204.5</ele><time>2026-05-01T17:21:17Z</time></trkpt><trkpt lat="44.83053149923798" lon="9.518124816001139"><ele>203.0</ele><time>2026-05-01T17:21:18Z</time></trkpt><trkpt lat="44.830498298657865" lon="9.518281728021527"><ele>201.5</ele><time>2026-05-01T17:21:19Z</time></trkpt><trkpt lat="44.83049469651311" lon="9.518430007776638"><ele>200.0</ele><time>2026-05-01T17:21:20Z</time></trkpt><trkpt lat="44.830518006602425" lon="9.518564999232913"><ele>200.0</ele><time>2026-05-01T17:21:21Z</time></trkpt><trkpt lat="44.83057812272441" lon="9.518706976409375"><ele>200.0</ele><time>2026-05-01T17:21:22Z</time></trkpt><trkpt lat="44.83065899111505" lon="9.518843988534288"><ele>200.0</ele><time>2026-05-01T17:21:23Z</time></trkpt><trkpt lat="44.830751628794395" lon="9.518975162005887"><ele>200.0</ele><time>2026-05-01T17:21:24Z</time></trkpt><trkpt lat="44.83084778243346" lon="9.51912069886363"><ele>200.66666666666669</ele><time>2026-05-01T17:21:25Z</time></trkpt><trkpt lat="44.83094865154315" lon="9.519276137739388"><ele>201.33333333333331</ele><time>2026-05-01T17:21:26Z</time></trkpt><trkpt lat="44.83105201340664" lon="9.519434789870507"><ele>202.0</ele><time>2026-05-01T17:21:27Z</time></trkpt><trkpt lat="44.83115567332934" lon="9.519591501875874"><ele>202.75</ele><time>2026-05-01T17:21:28Z</time></trkpt><trkpt lat="44.83125217145632" lon="9.519735311758238"><ele>203.5</ele><time>2026-05-01T17:21:29Z</time></trkpt><trkpt lat="44.831344682587826" lon="9.51986887365454"><ele>204.25</ele><time>2026-05-01T17:21:30Z</time></trkpt><trkpt lat="44.83145070330103" lon="9.519987975114875"><ele>205.0</ele><time>2026-05-01T17:21:31Z</time></trkpt><trkpt lat="44.83157158543078" lon="9.52008157601127"><ele>205.0</ele><time>2026-05-01T17:21:32Z</time></trkpt><trkpt lat="44.83170447036245" lon="9.520141748295982"><ele>205.0</ele><time>2026-05-01T17:21:33Z</time></trkpt><trkpt lat="44.83183952445759" lon="9.52016214011028"><ele>205.0</ele><time>2026-05-01T17:21:34Z</time></trkpt><trkpt lat="44.83197526084696" lon="9.520135970022574"><ele>205.0</ele><time>2026-05-01T17:21:35Z</time></trkpt><trkpt lat="44.83211358831819" lon="9.520076243362663"><ele>206.0</ele><time>2026-05-01T17:21:36Z</time></trkpt><trkpt lat="44.8322512647276" lon="9.520007870179144"><ele>207.0</ele><time>2026-05-01T17:21:37Z</time></trkpt><trkpt lat="44.832392720958424" lon="9.519943328288987"><ele>208.0</ele><time>2026-05-01T17:21:38Z</time></trkpt><trkpt lat="44.832530762585996" lon="9.519877278080013"><ele>209.0</ele><time>2026-05-01T17:21:39Z</time></trkpt><trkpt lat="44.832666416265106" lon="9.519816740756067"><ele>209.75</ele><time>2026-05-01T17:21:40Z</time></trkpt><trkpt lat="44.83280243967285" lon="9.519756206602976"><ele>210.5</ele><time>2026-05-01T17:21:41Z</time></trkpt><trkpt lat="44.83293680685598" lon="9.519695967549119"><ele>211.25</ele><time>2026-05-01T17:21:42Z</time></trkpt><trkpt lat="44.83306705884991" lon="9.519644898792572"><ele>212.0</ele><time>2026-05-01T17:21:43Z</time></trkpt><trkpt lat="44.833203361853805" lon="9.519615369127207"><ele>212.0</ele><time>2026-05-01T17:21:44Z</time></trkpt><trkpt lat="44.833333578389606" lon="9.519617552724567"><ele>212.0</ele><time>2026-05-01T17:21:45Z</time></trkpt><trkpt lat="44.83345933262563" lon="9.519657665108854"><ele>212.0</ele><time>2026-05-01T17:21:46Z</time></trkpt><trkpt lat="44.833586343821736" lon="9.519726415744762"><ele>212.0</ele><time>2026-05-01T17:21:47Z</time></trkpt><trkpt lat="44.83371155369372" lon="9.51979957977652"><ele>210.75</ele><time>2026-05-01T17:21:48Z</time></trkpt><trkpt lat="44.833835342635275" lon="9.519882759622952"><ele>209.5</ele><time>2026-05-01T17:21:49Z</time></trkpt><trkpt lat="44.8339520186696" lon="9.519977038441558"><ele>208.25</ele><time>2026-05-01T17:21:50Z</time></trkpt><trkpt lat="44.834056231041785" lon="9.520085176273305"><ele>207.0</ele><time>2026-05-01T17:21:51Z</time></trkpt><trkpt lat="44.834152097912586" lon="9.52019257151869"><ele>207.0</ele><time>2026-05-01T17:21:52Z</time></trkpt><trkpt lat="44.834246187785936" lon="9.520286862021283"><ele>207.0</ele><time>2026-05-01T17:21:53Z</time></trkpt><trkpt lat="44.834340236970576" lon="9.520361153385766"><ele>207.0</ele><time>2026-05-01T17:21:54Z</time></trkpt><trkpt lat="44.83443734324598" lon="9.520399222106457"><ele>207.0</ele><time>2026-05-01T17:21:55Z</time></trkpt><trkpt lat="44.834537293957844" lon="9.520383525433203"><ele>207.0</ele><time>2026-05-01T17:21:56Z</time></trkpt><trkpt lat="44.834641020426844" lon="9.520314251740595"><ele>208.25</ele><time>2026-05-01T17:21:57Z</time></trkpt><trkpt lat="44.834734810474934" lon="9.520209620314"><ele>209.5</ele><time>2026-05-01T17:21:58Z</time></trkpt><trkpt lat="44.83482056665523" lon="9.520103622494787"><ele>210.75</ele><time>2026-05-01T17:21:59Z</time></trkpt><trkpt lat="44.834912997547754" lon="9.520016162471578"><ele>212.0</ele><time>2026-05-01T17:22:00Z</time></trkpt><trkpt lat="44.835018981631166" lon="9.519956980717085"><ele>212.0</ele><time>2026-05-01T17:22:01Z</time></trkpt><trkpt lat="44.83513649036211" lon="9.519925065306476"><ele>212.0</ele><time>2026-05-01T17:22:02Z</time></trkpt><trkpt lat="44.83525851095593" lon="9.519933731201155"><ele>212.0</ele><time>2026-05-01T17:22:03Z</time></trkpt><trkpt lat="44.83538275092998" lon="9.519982249527693"><ele>212.0</ele><time>2026-05-01T17:22:04Z</time></trkpt><trkpt lat="44.83550309577823" lon="9.52004735001875"><ele>210.39999999999998</ele><time>2026-05-01T17:22:05.001Z</time></trkpt><trkpt lat="44.83562137155794" lon="9.52010755502655"><ele>208.79999999999998</ele><time>2026-05-01T17:22:06.001Z</time></trkpt><trkpt lat="44.83572216813867" lon="9.520164230783166"><ele>207.2</ele><time>2026-05-01T17:22:07.001Z</time></trkpt><trkpt lat="44.83581393235499" lon="9.520220912548195"><ele>205.6</ele><time>2026-05-01T17:22:08.001Z</time></trkpt><trkpt lat="44.83591300170757" lon="9.520275428097184"><ele>204.0</ele><time>2026-05-01T17:22:09.001Z</time></trkpt><trkpt lat="44.83601956763072" lon="9.52033822967263"><ele>205.0</ele><time>2026-05-01T17:22:10.001Z</time></trkpt><trkpt lat="44.83611348728846" lon="9.520426085457759"><ele>206.0</ele><time>2026-05-01T17:22:11.001Z</time></trkpt><trkpt lat="44.836205023624615" lon="9.520530933820499"><ele>207.0</ele><time>2026-05-01T17:22:12.001Z</time></trkpt><trkpt lat="44.836289539960525" lon="9.520641824469008"><ele>208.0</ele><time>2026-05-01T17:22:13.001Z</time></trkpt><trkpt lat="44.836375910054315" lon="9.520768222102332"><ele>208.0</ele><time>2026-05-01T17:22:14.001Z</time></trkpt><trkpt lat="44.83646662880638" lon="9.520899343612326"><ele>208.0</ele><time>2026-05-01T17:22:15.001Z</time></trkpt><trkpt lat="44.836559876881964" lon="9.521032967854286"><ele>208.0</ele><time>2026-05-01T17:22:16.001Z</time></trkpt><trkpt lat="44.83665034644312" lon="9.52116830144709"><ele>208.0</ele><time>2026-05-01T17:22:17.001Z</time></trkpt><trkpt lat="44.836740951482135" lon="9.521300464783225"><ele>206.75</ele><time>2026-05-01T17:22:18.001Z</time></trkpt><trkpt lat="44.83682671554189" lon="9.521436261940302"><ele>205.5</ele><time>2026-05-01T17:22:19.001Z</time></trkpt><trkpt lat="44.83691760803645" lon="9.521567797210839"><ele>204.25</ele><time>2026-05-01T17:22:20.001Z</time></trkpt><trkpt lat="44.837012116977824" lon="9.521694020146795"><ele>203.0</ele><time>2026-05-01T17:22:21.001Z</time></trkpt><trkpt lat="44.83711222865675" lon="9.52181989634391"><ele>203.0</ele><time>2026-05-01T17:22:22.001Z</time></trkpt><trkpt lat="44.83722327721183" lon="9.521936897140225"><ele>203.0</ele><time>2026-05-01T17:22:23Z</time></trkpt><trkpt lat="44.83733681124176" lon="9.52203930314803"><ele>203.0</ele><time>2026-05-01T17:22:24Z</time></trkpt><trkpt lat="44.83745006009552" lon="9.522159792955687"><ele>203.0</ele><time>2026-05-01T17:22:25Z</time></trkpt><trkpt lat="44.83755900245673" lon="9.52227042048294"><ele>203.0</ele><time>2026-05-01T17:22:26Z</time></trkpt><trkpt lat="44.83766461883549" lon="9.522384939068832"><ele>203.0</ele><time>2026-05-01T17:22:27Z</time></trkpt><trkpt lat="44.837769812608634" lon="9.52248955960142"><ele>203.0</ele><time>2026-05-01T17:22:28Z</time></trkpt><trkpt lat="44.83787127150567" lon="9.522588083049214"><ele>203.0</ele><time>2026-05-01T17:22:29Z</time></trkpt><trkpt lat="44.837971385786894" lon="9.52268867167601"><ele>203.0</ele><time>2026-05-01T17:22:30Z</time></trkpt><trkpt lat="44.83806475017263" lon="9.52277532300227"><ele>203.0</ele><time>2026-05-01T17:22:31Z</time></trkpt><trkpt lat="44.8381502500866" lon="9.522850092085982"><ele>203.0</ele><time>2026-05-01T17:22:32Z</time></trkpt><trkpt lat="44.83822740921117" lon="9.522933160182937"><ele>203.0</ele><time>2026-05-01T17:22:33Z</time></trkpt><trkpt lat="44.838311157936715" lon="9.523022460482073"><ele>203.0</ele><time>2026-05-01T17:22:34Z</time></trkpt><trkpt lat="44.83839773440949" lon="9.52312902008832"><ele>201.25</ele><time>2026-05-01T17:22:35Z</time></trkpt><trkpt lat="44.83847982379184" lon="9.5232505496283"><ele>199.5</ele><time>2026-05-01T17:22:36Z</time></trkpt><trkpt lat="44.83857358520728" lon="9.523388701108445"><ele>197.75</ele><time>2026-05-01T17:22:37Z</time></trkpt><trkpt lat="44.838670700968215" lon="9.523533183759453"><ele>196.0</ele><time>2026-05-01T17:22:38Z</time></trkpt><trkpt lat="44.8387482151755" lon="9.523717476710255"><ele>199.0</ele><time>2026-05-01T17:22:39Z</time></trkpt><trkpt lat="44.83881385009622" lon="9.523894866645607"><ele>202.0</ele><time>2026-05-01T17:22:40Z</time></trkpt><trkpt lat="44.838869704916455" lon="9.52408373776789"><ele>205.0</ele><time>2026-05-01T17:22:41Z</time></trkpt><trkpt lat="44.83891242359636" lon="9.524275551904266"><ele>208.0</ele><time>2026-05-01T17:22:42Z</time></trkpt><trkpt lat="44.83894615674652" lon="9.524472649598188"><ele>209.5</ele><time>2026-05-01T17:22:43Z</time></trkpt><trkpt lat="44.83898232403899" lon="9.524671741403184"><ele>211.0</ele><time>2026-05-01T17:22:44Z</time></trkpt><trkpt lat="44.839025981270446" lon="9.524871351824707"><ele>212.5</ele><time>2026-05-01T17:22:45Z</time></trkpt><trkpt lat="44.839068030157854" lon="9.525079510650702"><ele>214.0</ele><time>2026-05-01T17:22:46Z</time></trkpt><trkpt lat="44.839156791224255" lon="9.525256640026512"><ele>219.33333333333331</ele><time>2026-05-01T17:22:47Z</time></trkpt><trkpt lat="44.83924788538149" lon="9.525435779117455"><ele>224.66666666666669</ele><time>2026-05-01T17:22:48Z</time></trkpt><trkpt lat="44.839332701329035" lon="9.5256201564571"><ele>230.0</ele><time>2026-05-01T17:22:49Z</time></trkpt><trkpt lat="44.83940977908729" lon="9.525812889747185"><ele>224.0</ele><time>2026-05-01T17:22:50Z</time></trkpt><trkpt lat="44.83948416206473" lon="9.525991878818289"><ele>218.0</ele><time>2026-05-01T17:22:51Z</time></trkpt><trkpt lat="44.839557067361206" lon="9.52616972148582"><ele>212.0</ele><time>2026-05-01T17:22:52Z</time></trkpt><trkpt lat="44.83962489089374" lon="9.526350804257287"><ele>206.0</ele><time>2026-05-01T17:22:53Z</time></trkpt><trkpt lat="44.83968642445451" lon="9.526523959661853"><ele>206.0</ele><time>2026-05-01T17:22:54Z</time></trkpt><trkpt lat="44.839750568161705" lon="9.526692037412111"><ele>206.0</ele><time>2026-05-01T17:22:55Z</time></trkpt><trkpt lat="44.83981369624297" lon="9.526863486128358"><ele>206.0</ele><time>2026-05-01T17:22:56Z</time></trkpt><trkpt lat="44.8398762313116" lon="9.527039147025024"><ele>206.0</ele><time>2026-05-01T17:22:57Z</time></trkpt><trkpt lat="44.83993797775433" lon="9.527220556764837"><ele>205.25</ele><time>2026-05-01T17:22:58Z</time></trkpt><trkpt lat="44.84000291858073" lon="9.527399285982552"><ele>204.5</ele><time>2026-05-01T17:22:59Z</time></trkpt><trkpt lat="44.84006870456745" lon="9.527577075904121"><ele>203.75</ele><time>2026-05-01T17:23:00Z</time></trkpt><trkpt lat="44.840139032944265" lon="9.527761894157614"><ele>203.0</ele><time>2026-05-01T17:23:01Z</time></trkpt><trkpt lat="44.84021415205705" lon="9.527946974998398"><ele>203.0</ele><time>2026-05-01T17:23:02Z</time></trkpt><trkpt lat="44.84028792649554" lon="9.528133851584771"><ele>203.0</ele><time>2026-05-01T17:23:03Z</time></trkpt><trkpt lat="44.84036601228884" lon="9.528317161232033"><ele>203.0</ele><time>2026-05-01T17:23:04Z</time></trkpt><trkpt lat="44.84045020240754" lon="9.528499283137362"><ele>203.0</ele><time>2026-05-01T17:23:05Z</time></trkpt><trkpt lat="44.84054327110695" lon="9.52867335851965"><ele>203.0</ele><time>2026-05-01T17:23:06Z</time></trkpt><trkpt lat="44.84064524852693" lon="9.528841188592741"><ele>203.0</ele><time>2026-05-01T17:23:07Z</time></trkpt><trkpt lat="44.84075357005047" lon="9.52901061579527"><ele>204.66666666666669</ele><time>2026-05-01T17:23:08Z</time></trkpt><trkpt lat="44.840863037877874" lon="9.529178090602862"><ele>206.33333333333331</ele><time>2026-05-01T17:23:09Z</time></trkpt><trkpt lat="44.84097137893485" lon="9.529343038924093"><ele>208.0</ele><time>2026-05-01T17:23:10Z</time></trkpt><trkpt lat="44.84107722125211" lon="9.529510972219054"><ele>206.0</ele><time>2026-05-01T17:23:11Z</time></trkpt><trkpt lat="44.841178016995954" lon="9.529684864611907"><ele>204.0</ele><time>2026-05-01T17:23:12Z</time></trkpt><trkpt lat="44.841270600495314" lon="9.529864962451905"><ele>202.0</ele><time>2026-05-01T17:23:13Z</time></trkpt><trkpt lat="44.841352967245086" lon="9.53005301432503"><ele>202.0</ele><time>2026-05-01T17:23:14Z</time></trkpt><trkpt lat="44.841428166127166" lon="9.530246175234089"><ele>202.0</ele><time>2026-05-01T17:23:15Z</time></trkpt><trkpt lat="44.84149875326177" lon="9.530441690813012"><ele>202.0</ele><time>2026-05-01T17:23:16Z</time></trkpt><trkpt lat="44.84157137262035" lon="9.53063693603658"><ele>205.0</ele><time>2026-05-01T17:23:17Z</time></trkpt><trkpt lat="44.84164768644785" lon="9.530826061814158"><ele>208.0</ele><time>2026-05-01T17:23:18Z</time></trkpt><trkpt lat="44.84173445356714" lon="9.531003245200457"><ele>211.0</ele><time>2026-05-01T17:23:19Z</time></trkpt><trkpt lat="44.841831269802924" lon="9.531166821667858"><ele>210.0</ele><time>2026-05-01T17:23:20Z</time></trkpt><trkpt lat="44.841950880290845" lon="9.531303381683996"><ele>209.0</ele><time>2026-05-01T17:23:21Z</time></trkpt><trkpt lat="44.842089490055024" lon="9.531423698869604"><ele>208.0</ele><time>2026-05-01T17:23:22Z</time></trkpt><trkpt lat="44.842230792536164" lon="9.531523504147753"><ele>208.0</ele><time>2026-05-01T17:23:23Z</time></trkpt><trkpt lat="44.84237370975803" lon="9.5316121402787"><ele>208.0</ele><time>2026-05-01T17:23:24Z</time></trkpt><trkpt lat="44.84250680827111" lon="9.531692014360052"><ele>208.0</ele><time>2026-05-01T17:23:25Z</time></trkpt><trkpt lat="44.84262662999147" lon="9.53178936245188"><ele>208.0</ele><time>2026-05-01T17:23:26Z</time></trkpt><trkpt lat="44.842720953765095" lon="9.531892979272087"><ele>203.0</ele><time>2026-05-01T17:23:27Z</time></trkpt><trkpt lat="44.842795524269846" lon="9.53202364530067"><ele>198.0</ele><time>2026-05-01T17:23:28Z</time></trkpt><trkpt lat="44.84285125900521" lon="9.532175342509571"><ele>193.0</ele><time>2026-05-01T17:23:29Z</time></trkpt><trkpt lat="44.842874887694435" lon="9.53235927390506"><ele>188.0</ele><time>2026-05-01T17:23:30Z</time></trkpt><trkpt lat="44.84292468797774" lon="9.532544742409883"><ele>188.0</ele><time>2026-05-01T17:23:31Z</time></trkpt><trkpt lat="44.8429618700974" lon="9.532744156702341"><ele>188.0</ele><time>2026-05-01T17:23:32Z</time></trkpt><trkpt lat="44.843006526945786" lon="9.532940237726642"><ele>188.0</ele><time>2026-05-01T17:23:33Z</time></trkpt><trkpt lat="44.84304794240677" lon="9.533135564240329"><ele>188.0</ele><time>2026-05-01T17:23:34Z</time></trkpt><trkpt lat="44.84308833443368" lon="9.533324127894431"><ele>190.25</ele><time>2026-05-01T17:23:35Z</time></trkpt><trkpt lat="44.84312818513812" lon="9.533514479143669"><ele>192.5</ele><time>2026-05-01T17:23:36Z</time></trkpt><trkpt lat="44.84316046833744" lon="9.533703042292306"><ele>194.75</ele><time>2026-05-01T17:23:37Z</time></trkpt><trkpt lat="44.84318883357291" lon="9.533892897068936"><ele>197.0</ele><time>2026-05-01T17:23:38Z</time></trkpt><trkpt lat="44.84320332938367" lon="9.534088001912153"><ele>198.0</ele><time>2026-05-01T17:23:39Z</time></trkpt><trkpt lat="44.84321695776558" lon="9.534283968975291"><ele>199.0</ele><time>2026-05-01T17:23:40Z</time></trkpt><trkpt lat="44.84323849421201" lon="9.534481437235323"><ele>200.0</ele><time>2026-05-01T17:23:41Z</time></trkpt><trkpt lat="44.84325946041376" lon="9.53468004013813"><ele>201.0</ele><time>2026-05-01T17:23:42Z</time></trkpt><trkpt lat="44.843275215980285" lon="9.534867588723202"><ele>202.25</ele><time>2026-05-01T17:23:43Z</time></trkpt><trkpt lat="44.84329155605057" lon="9.535045717967753"><ele>203.5</ele><time>2026-05-01T17:23:44Z</time></trkpt><trkpt lat="44.84330770426205" lon="9.535214634997052"><ele>204.75</ele><time>2026-05-01T17:23:45Z</time></trkpt><trkpt lat="44.84332609627527" lon="9.535372653205505"><ele>206.0</ele><time>2026-05-01T17:23:46Z</time></trkpt><trkpt lat="44.843351335762044" lon="9.53551888842452"><ele>206.8</ele><time>2026-05-01T17:23:47Z</time></trkpt><trkpt lat="44.84338956761159" lon="9.535650903600585"><ele>207.60000000000002</ele><time>2026-05-01T17:23:48Z</time></trkpt><trkpt lat="44.843453888184825" lon="9.535774306166775"><ele>208.4</ele><time>2026-05-01T17:23:49Z</time></trkpt><trkpt lat="44.84354287583326" lon="9.535882692909105"><ele>209.2</ele><time>2026-05-01T17:23:50Z</time></trkpt><trkpt lat="44.8436477009064" lon="9.535969614588685"><ele>210.0</ele><time>2026-05-01T17:23:51Z</time></trkpt><trkpt lat="44.843766460778646" lon="9.53601912547075"><ele>207.0</ele><time>2026-05-01T17:23:52Z</time></trkpt><trkpt lat="44.84389188073555" lon="9.536018172062377"><ele>204.0</ele><time>2026-05-01T17:23:53Z</time></trkpt><trkpt lat="44.84402873667892" lon="9.535984013900896"><ele>201.0</ele><time>2026-05-01T17:23:54Z</time></trkpt><trkpt lat="44.84415079021916" lon="9.535945095024939"><ele>198.0</ele><time>2026-05-01T17:23:55Z</time></trkpt><trkpt lat="44.84427436895034" lon="9.535948008408237"><ele>197.75</ele><time>2026-05-01T17:23:56Z</time></trkpt><trkpt lat="44.8443834230703" lon="9.535999872245249"><ele>197.5</ele><time>2026-05-01T17:23:57Z</time></trkpt><trkpt lat="44.84448469863485" lon="9.536083480644717"><ele>197.25</ele><time>2026-05-01T17:23:58Z</time></trkpt><trkpt lat="44.84457025986365" lon="9.53621574066478"><ele>197.0</ele><time>2026-05-01T17:23:59Z</time></trkpt><trkpt lat="44.84464416026837" lon="9.536364439540199"><ele>197.0</ele><time>2026-05-01T17:24:00Z</time></trkpt><trkpt lat="44.84471673133133" lon="9.536515676123948"><ele>197.0</ele><time>2026-05-01T17:24:01Z</time></trkpt><trkpt lat="44.84480782677492" lon="9.536629247150437"><ele>197.0</ele><time>2026-05-01T17:24:02Z</time></trkpt><trkpt lat="44.84492404743356" lon="9.53671890450957"><ele>197.0</ele><time>2026-05-01T17:24:03Z</time></trkpt><trkpt lat="44.84506006189402" lon="9.536773968705281"><ele>195.75</ele><time>2026-05-01T17:24:04Z</time></trkpt><trkpt lat="44.84518611750887" lon="9.536829326729523"><ele>194.5</ele><time>2026-05-01T17:24:05Z</time></trkpt><trkpt lat="44.845301160691136" lon="9.536903086425394"><ele>193.25</ele><time>2026-05-01T17:24:06Z</time></trkpt><trkpt lat="44.845396637710195" lon="9.536998544111597"><ele>192.0</ele><time>2026-05-01T17:24:07Z</time></trkpt><trkpt lat="44.845489258282534" lon="9.537110767540144"><ele>192.0</ele><time>2026-05-01T17:24:08Z</time></trkpt><trkpt lat="44.84555487220749" lon="9.537237468155958"><ele>192.0</ele><time>2026-05-01T17:24:09Z</time></trkpt><trkpt lat="44.84561417075504" lon="9.537369142113983"><ele>192.0</ele><time>2026-05-01T17:24:10Z</time></trkpt><trkpt lat="44.84568310319763" lon="9.537515101432207"><ele>192.0</ele><time>2026-05-01T17:24:11Z</time></trkpt><trkpt lat="44.845748422001165" lon="9.537651478546756"><ele>192.0</ele><time>2026-05-01T17:24:12Z</time></trkpt><trkpt lat="44.845807315224974" lon="9.537783897495272"><ele>192.0</ele><time>2026-05-01T17:24:13Z</time></trkpt><trkpt lat="44.84586855011484" lon="9.537912928513645"><ele>192.0</ele><time>2026-05-01T17:24:14Z</time></trkpt><trkpt lat="44.845953547432536" lon="9.538023315805322"><ele>192.0</ele><time>2026-05-01T17:24:15Z</time></trkpt><trkpt lat="44.84605956241203" lon="9.538117936197326"><ele>191.0</ele><time>2026-05-01T17:24:16Z</time></trkpt><trkpt lat="44.84617916638682" lon="9.53818393018929"><ele>190.0</ele><time>2026-05-01T17:24:17Z</time></trkpt><trkpt lat="44.84629225347501" lon="9.538237179545717"><ele>189.0</ele><time>2026-05-01T17:24:18Z</time></trkpt><trkpt lat="44.846406726154626" lon="9.538293880638522"><ele>188.0</ele><time>2026-05-01T17:24:19Z</time></trkpt><trkpt lat="44.846522529678815" lon="9.538357761734165"><ele>188.0</ele><time>2026-05-01T17:24:20Z</time></trkpt><trkpt lat="44.846635164650955" lon="9.538427539595691"><ele>188.0</ele><time>2026-05-01T17:24:21Z</time></trkpt><trkpt lat="44.84674412092537" lon="9.538500546489699"><ele>188.0</ele><time>2026-05-01T17:24:22Z</time></trkpt><trkpt lat="44.84684704122291" lon="9.538581754660857"><ele>188.0</ele><time>2026-05-01T17:24:23Z</time></trkpt><trkpt lat="44.846946109214215" lon="9.5386715736695"><ele>188.25</ele><time>2026-05-01T17:24:24Z</time></trkpt><trkpt lat="44.847037971458626" lon="9.538779340992996"><ele>188.5</ele><time>2026-05-01T17:24:25Z</time></trkpt><trkpt lat="44.84712960175278" lon="9.538899354216305"><ele>188.75</ele><time>2026-05-01T17:24:26Z</time></trkpt><trkpt lat="44.84721697011767" lon="9.539026455092065"><ele>189.0</ele><time>2026-05-01T17:24:27Z</time></trkpt><trkpt lat="44.84730253596598" lon="9.539160276310334"><ele>189.0</ele><time>2026-05-01T17:24:28Z</time></trkpt><trkpt lat="44.847390514156125" lon="9.539297772582312"><ele>189.0</ele><time>2026-05-01T17:24:29Z</time></trkpt><trkpt lat="44.84747981972102" lon="9.539433086076103"><ele>189.0</ele><time>2026-05-01T17:24:30Z</time></trkpt><trkpt lat="44.847567233439584" lon="9.53956267282037"><ele>189.0</ele><time>2026-05-01T17:24:31Z</time></trkpt><trkpt lat="44.847645491790935" lon="9.5396809823879"><ele>188.0</ele><time>2026-05-01T17:24:32Z</time></trkpt><trkpt lat="44.847721260385946" lon="9.539795226654627"><ele>187.0</ele><time>2026-05-01T17:24:33Z</time></trkpt><trkpt lat="44.84779712359993" lon="9.539911699179793"><ele>186.0</ele><time>2026-05-01T17:24:34Z</time></trkpt><trkpt lat="44.847876486923155" lon="9.540028908875916"><ele>185.0</ele><time>2026-05-01T17:24:35Z</time></trkpt><trkpt lat="44.84795536508154" lon="9.54014711649632"><ele>185.0</ele><time>2026-05-01T17:24:36Z</time></trkpt><trkpt lat="44.84803679519718" lon="9.540260356904518"><ele>185.0</ele><time>2026-05-01T17:24:37Z</time></trkpt><trkpt lat="44.84812271506908" lon="9.540372974308896"><ele>185.0</ele><time>2026-05-01T17:24:38Z</time></trkpt><trkpt lat="44.84822065518352" lon="9.540470616273117"><ele>185.0</ele><time>2026-05-01T17:24:39Z</time></trkpt><trkpt lat="44.84832698652627" lon="9.540547949206614"><ele>186.25</ele><time>2026-05-01T17:24:40Z</time></trkpt><trkpt lat="44.848440120098566" lon="9.54059288307297"><ele>187.5</ele><time>2026-05-01T17:24:41Z</time></trkpt><trkpt lat="44.84856089923766" lon="9.540609052107838"><ele>188.75</ele><time>2026-05-01T17:24:42Z</time></trkpt><trkpt lat="44.84868625654665" lon="9.54062306601651"><ele>190.0</ele><time>2026-05-01T17:24:43Z</time></trkpt><trkpt lat="44.84881379674375" lon="9.54063716361725"><ele>190.0</ele><time>2026-05-01T17:24:44Z</time></trkpt><trkpt lat="44.84894227741779" lon="9.54065729722343"><ele>190.0</ele><time>2026-05-01T17:24:45Z</time></trkpt><trkpt lat="44.8490730156533" lon="9.540674951453198"><ele>190.0</ele><time>2026-05-01T17:24:46Z</time></trkpt><trkpt lat="44.84920253999647" lon="9.540692860477728"><ele>190.0</ele><time>2026-05-01T17:24:47Z</time></trkpt><trkpt lat="44.84933244741069" lon="9.5407068491999"><ele>190.0</ele><time>2026-05-01T17:24:48Z</time></trkpt><trkpt lat="44.84946080045118" lon="9.54072112457125"><ele>190.0</ele><time>2026-05-01T17:24:49Z</time></trkpt><trkpt lat="44.849585958894046" lon="9.540735769724298"><ele>190.0</ele><time>2026-05-01T17:24:50Z</time></trkpt><trkpt lat="44.8497135043373" lon="9.540750963510781"><ele>190.0</ele><time>2026-05-01T17:24:51Z</time></trkpt><trkpt lat="44.849837815868774" lon="9.540764641401966"><ele>190.0</ele><time>2026-05-01T17:24:52Z</time></trkpt><trkpt lat="44.84995980871542" lon="9.540778718364116"><ele>190.0</ele><time>2026-05-01T17:24:53Z</time></trkpt><trkpt lat="44.85008354629361" lon="9.54079575873782"><ele>190.0</ele><time>2026-05-01T17:24:54Z</time></trkpt><trkpt lat="44.85020568583964" lon="9.540810324207092"><ele>190.0</ele><time>2026-05-01T17:24:55Z</time></trkpt><trkpt lat="44.850327623429465" lon="9.540824123920014"><ele>190.5</ele><time>2026-05-01T17:24:56Z</time></trkpt><trkpt lat="44.85045657749193" lon="9.540841726264599"><ele>191.0</ele><time>2026-05-01T17:24:57Z</time></trkpt><trkpt lat="44.85058374133517" lon="9.540853925264038"><ele>191.5</ele><time>2026-05-01T17:24:58Z</time></trkpt><trkpt lat="44.850716401093415" lon="9.54087172782008"><ele>192.0</ele><time>2026-05-01T17:24:59Z</time></trkpt><trkpt lat="44.85084582052157" lon="9.540888347768734"><ele>191.5</ele><time>2026-05-01T17:25:00Z</time></trkpt><trkpt lat="44.8509760189961" lon="9.54090814107783"><ele>191.0</ele><time>2026-05-01T17:25:01Z</time></trkpt><trkpt lat="44.85110598482722" lon="9.5409378276856"><ele>190.5</ele><time>2026-05-01T17:25:02Z</time></trkpt><trkpt lat="44.85123498741291" lon="9.540980743341402"><ele>190.0</ele><time>2026-05-01T17:25:03Z</time></trkpt><trkpt lat="44.85136488099026" lon="9.541041056745799"><ele>190.0</ele><time>2026-05-01T17:25:04Z</time></trkpt><trkpt lat="44.851492150831255" lon="9.541119232902057"><ele>190.0</ele><time>2026-05-01T17:25:05Z</time></trkpt><trkpt lat="44.851616089561254" lon="9.541193854094653"><ele>190.0</ele><time>2026-05-01T17:25:06Z</time></trkpt><trkpt lat="44.851737526310586" lon="9.54127451348915"><ele>190.0</ele><time>2026-05-01T17:25:07Z</time></trkpt><trkpt lat="44.851860169281395" lon="9.541348427780415"><ele>190.75</ele><time>2026-05-01T17:25:08Z</time></trkpt><trkpt lat="44.85198782539533" lon="9.541417658026102"><ele>191.5</ele><time>2026-05-01T17:25:09Z</time></trkpt><trkpt lat="44.85211809755164" lon="9.541497008361869"><ele>192.25</ele><time>2026-05-01T17:25:10Z</time></trkpt><trkpt lat="44.852245023460696" lon="9.541582495699831"><ele>193.0</ele><time>2026-05-01T17:25:11Z</time></trkpt><trkpt lat="44.852369845682965" lon="9.541664562490835"><ele>193.0</ele><time>2026-05-01T17:25:12Z</time></trkpt><trkpt lat="44.85250092393311" lon="9.54174976029295"><ele>193.0</ele><time>2026-05-01T17:25:13Z</time></trkpt><trkpt lat="44.8526309427817" lon="9.54183521164328"><ele>193.0</ele><time>2026-05-01T17:25:14Z</time></trkpt><trkpt lat="44.85276086158074" lon="9.541919288265975"><ele>193.0</ele><time>2026-05-01T17:25:15Z</time></trkpt><trkpt lat="44.852881840121285" lon="9.542023844172324"><ele>192.5</ele><time>2026-05-01T17:25:16Z</time></trkpt><trkpt lat="44.853013813891074" lon="9.542094265555424"><ele>192.0</ele><time>2026-05-01T17:25:17Z</time></trkpt><trkpt lat="44.85313217203509" lon="9.54218494295693"><ele>191.5</ele><time>2026-05-01T17:25:18Z</time></trkpt><trkpt lat="44.85324708166552" lon="9.542282189991726"><ele>191.0</ele><time>2026-05-01T17:25:19Z</time></trkpt><trkpt lat="44.853354763307266" lon="9.542390922416551"><ele>188.25</ele><time>2026-05-01T17:25:20Z</time></trkpt><trkpt lat="44.853456742126994" lon="9.542518009035534"><ele>185.5</ele><time>2026-05-01T17:25:21Z</time></trkpt><trkpt lat="44.853549229651" lon="9.542659619322142"><ele>182.75</ele><time>2026-05-01T17:25:22Z</time></trkpt><trkpt lat="44.853628461832685" lon="9.542821357968252"><ele>180.0</ele><time>2026-05-01T17:25:23Z</time></trkpt><trkpt lat="44.85369170969968" lon="9.543002774063737"><ele>180.0</ele><time>2026-05-01T17:25:24Z</time></trkpt><trkpt lat="44.85373851941856" lon="9.543197493613063"><ele>180.0</ele><time>2026-05-01T17:25:25Z</time></trkpt><trkpt lat="44.85377356117837" lon="9.543387801393234"><ele>180.0</ele><time>2026-05-01T17:25:26Z</time></trkpt><trkpt lat="44.85378728376343" lon="9.543578781108689"><ele>180.0</ele><time>2026-05-01T17:25:27Z</time></trkpt><trkpt lat="44.85382086703391" lon="9.543760604539942"><ele>180.5</ele><time>2026-05-01T17:25:28Z</time></trkpt><trkpt lat="44.85384880833985" lon="9.543933436234552"><ele>181.0</ele><time>2026-05-01T17:25:29Z</time></trkpt><trkpt lat="44.85387296695689" lon="9.544104274324384"><ele>181.5</ele><time>2026-05-01T17:25:30Z</time></trkpt><trkpt lat="44.85390228153567" lon="9.544269188344863"><ele>182.0</ele><time>2026-05-01T17:25:31Z</time></trkpt><trkpt lat="44.85393437306095" lon="9.544440089547631"><ele>183.75</ele><time>2026-05-01T17:25:32Z</time></trkpt><trkpt lat="44.853987882181094" lon="9.54460349265005"><ele>185.5</ele><time>2026-05-01T17:25:33Z</time></trkpt><trkpt lat="44.854063228306266" lon="9.544760290333054"><ele>187.25</ele><time>2026-05-01T17:25:34Z</time></trkpt><trkpt lat="44.854142063448336" lon="9.544914112040097"><ele>189.0</ele><time>2026-05-01T17:25:35Z</time></trkpt><trkpt lat="44.85422653495356" lon="9.545070233295569"><ele>187.5</ele><time>2026-05-01T17:25:36Z</time></trkpt><trkpt lat="44.854308801587436" lon="9.545236837566536"><ele>186.0</ele><time>2026-05-01T17:25:37Z</time></trkpt><trkpt lat="44.854402535331516" lon="9.54540648083456"><ele>184.5</ele><time>2026-05-01T17:25:38Z</time></trkpt><trkpt lat="44.854492271374255" lon="9.54557388930553"><ele>183.0</ele><time>2026-05-01T17:25:39Z</time></trkpt><trkpt lat="44.85459207076019" lon="9.545732434309619"><ele>183.0</ele><time>2026-05-01T17:25:40Z</time></trkpt><trkpt lat="44.85470172369396" lon="9.545890227867178"><ele>183.0</ele><time>2026-05-01T17:25:41Z</time></trkpt><trkpt lat="44.854816345639655" lon="9.546035223333408"><ele>183.0</ele><time>2026-05-01T17:25:42Z</time></trkpt><trkpt lat="44.85493121048667" lon="9.546173236081955"><ele>183.0</ele><time>2026-05-01T17:25:43Z</time></trkpt><trkpt lat="44.8550355858882" lon="9.546309451327172"><ele>183.0</ele><time>2026-05-01T17:25:44Z</time></trkpt><trkpt lat="44.85514194040855" lon="9.546438740776292"><ele>183.0</ele><time>2026-05-01T17:25:45Z</time></trkpt><trkpt lat="44.85524593019205" lon="9.546567934765287"><ele>183.0</ele><time>2026-05-01T17:25:46Z</time></trkpt><trkpt lat="44.8553528569468" lon="9.546695108834454"><ele>183.0</ele><time>2026-05-01T17:25:47Z</time></trkpt><trkpt lat="44.85545679401118" lon="9.546823582129322"><ele>183.0</ele><time>2026-05-01T17:25:48Z</time></trkpt><trkpt lat="44.855558910959644" lon="9.546948793679087"><ele>183.0</ele><time>2026-05-01T17:25:49Z</time></trkpt><trkpt lat="44.8556590490658" lon="9.547077139218993"><ele>183.0</ele><time>2026-05-01T17:25:50Z</time></trkpt><trkpt lat="44.8557612538228" lon="9.547205580368185"><ele>182.0</ele><time>2026-05-01T17:25:51Z</time></trkpt><trkpt lat="44.85586274984996" lon="9.547335322126886"><ele>181.0</ele><time>2026-05-01T17:25:52Z</time></trkpt><trkpt lat="44.855964632543404" lon="9.547469055182457"><ele>180.0</ele><time>2026-05-01T17:25:53Z</time></trkpt><trkpt lat="44.85607099368693" lon="9.547595617714947"><ele>179.0</ele><time>2026-05-01T17:25:54Z</time></trkpt><trkpt lat="44.85619109611666" lon="9.547707937233344"><ele>179.0</ele><time>2026-05-01T17:25:55Z</time></trkpt><trkpt lat="44.85632529760153" lon="9.547797302835221"><ele>179.0</ele><time>2026-05-01T17:25:56Z</time></trkpt><trkpt lat="44.85647042853498" lon="9.547867054051363"><ele>179.0</ele><time>2026-05-01T17:25:57Z</time></trkpt><trkpt lat="44.8566163841293" lon="9.547937572223299"><ele>180.5</ele><time>2026-05-01T17:25:58Z</time></trkpt><trkpt lat="44.85675733057016" lon="9.548004210217787"><ele>182.0</ele><time>2026-05-01T17:25:59Z</time></trkpt><trkpt lat="44.85689055664336" lon="9.548068158422856"><ele>183.5</ele><time>2026-05-01T17:26:00Z</time></trkpt><trkpt lat="44.85701653889023" lon="9.54813080408665"><ele>185.0</ele><time>2026-05-01T17:26:01Z</time></trkpt><trkpt lat="44.85713602073588" lon="9.5481885756555"><ele>185.0</ele><time>2026-05-01T17:26:02Z</time></trkpt><trkpt lat="44.85725937824372" lon="9.548246370420076"><ele>185.0</ele><time>2026-05-01T17:26:03Z</time></trkpt><trkpt lat="44.85738494321199" lon="9.548310000832593"><ele>185.0</ele><time>2026-05-01T17:26:04Z</time></trkpt><trkpt lat="44.85751036342431" lon="9.548372035260472"><ele>185.0</ele><time>2026-05-01T17:26:05Z</time></trkpt><trkpt lat="44.85763367005064" lon="9.54843555690945"><ele>182.75</ele><time>2026-05-01T17:26:06Z</time></trkpt><trkpt lat="44.85775936162767" lon="9.548494332564097"><ele>180.5</ele><time>2026-05-01T17:26:07Z</time></trkpt><trkpt lat="44.857882545282564" lon="9.548565700482515"><ele>178.25</ele><time>2026-05-01T17:26:08Z</time></trkpt><trkpt lat="44.85800355387076" lon="9.548648815595119"><ele>176.0</ele><time>2026-05-01T17:26:09Z</time></trkpt><trkpt lat="44.85812525484348" lon="9.548749661944553"><ele>174.66666666666666</ele><time>2026-05-01T17:26:10Z</time></trkpt><trkpt lat="44.85824724672504" lon="9.548875671078573"><ele>173.33333333333334</ele><time>2026-05-01T17:26:10.999Z</time></trkpt><trkpt lat="44.85836986248167" lon="9.54901842740307"><ele>172.0</ele><time>2026-05-01T17:26:11.999Z</time></trkpt><trkpt lat="44.85850071229465" lon="9.549161974018144"><ele>172.0</ele><time>2026-05-01T17:26:12.999Z</time></trkpt><trkpt lat="44.8586421549499" lon="9.549303724013638"><ele>172.0</ele><time>2026-05-01T17:26:13.999Z</time></trkpt><trkpt lat="44.85878796967366" lon="9.549436755937354"><ele>172.0</ele><time>2026-05-01T17:26:14.999Z</time></trkpt><trkpt lat="44.85893241982999" lon="9.549577360170947"><ele>172.66666666666669</ele><time>2026-05-01T17:26:15.999Z</time></trkpt><trkpt lat="44.85907665673719" lon="9.549729105245268"><ele>173.33333333333334</ele><time>2026-05-01T17:26:17Z</time></trkpt><trkpt lat="44.85921810200761" lon="9.54987192198578"><ele>174.0</ele><time>2026-05-01T17:26:18Z</time></trkpt><trkpt lat="44.85935627132248" lon="9.550016283139694"><ele>174.0</ele><time>2026-05-01T17:26:19Z</time></trkpt><trkpt lat="44.85948901762072" lon="9.550151301983062"><ele>174.0</ele><time>2026-05-01T17:26:20Z</time></trkpt><trkpt lat="44.859622688502114" lon="9.550290518006523"><ele>174.0</ele><time>2026-05-01T17:26:21Z</time></trkpt><trkpt lat="44.85975654309592" lon="9.550426669232712"><ele>172.33333333333334</ele><time>2026-05-01T17:26:22Z</time></trkpt><trkpt lat="44.859885333374166" lon="9.550576380227868"><ele>170.66666666666669</ele><time>2026-05-01T17:26:23Z</time></trkpt><trkpt lat="44.860005693285814" lon="9.550733598344168"><ele>169.0</ele><time>2026-05-01T17:26:24Z</time></trkpt><trkpt lat="44.86011951318217" lon="9.550906167236802"><ele>169.0</ele><time>2026-05-01T17:26:25Z</time></trkpt><trkpt lat="44.86024173944273" lon="9.551068544030654"><ele>169.0</ele><time>2026-05-01T17:26:26Z</time></trkpt><trkpt lat="44.860366455151194" lon="9.55122855486339"><ele>169.0</ele><time>2026-05-01T17:26:27Z</time></trkpt><trkpt lat="44.86049473738315" lon="9.551375284216235"><ele>175.0</ele><time>2026-05-01T17:26:28Z</time></trkpt><trkpt lat="44.86062579106349" lon="9.551512673174699"><ele>181.0</ele><time>2026-05-01T17:26:29Z</time></trkpt><trkpt lat="44.86075620480332" lon="9.551642027390752"><ele>187.0</ele><time>2026-05-01T17:26:30Z</time></trkpt><trkpt lat="44.86088660703074" lon="9.551764193808971"><ele>186.5</ele><time>2026-05-01T17:26:31Z</time></trkpt><trkpt lat="44.86100994432554" lon="9.55188438543814"><ele>186.0</ele><time>2026-05-01T17:26:32Z</time></trkpt><trkpt lat="44.861126344902466" lon="9.55201351297801"><ele>185.5</ele><time>2026-05-01T17:26:33Z</time></trkpt><trkpt lat="44.86123589150109" lon="9.55215120769557"><ele>185.0</ele><time>2026-05-01T17:26:34Z</time></trkpt><trkpt lat="44.861333213810504" lon="9.552317898284468"><ele>185.0</ele><time>2026-05-01T17:26:35Z</time></trkpt><trkpt lat="44.86141451903371" lon="9.552501439145384"><ele>185.0</ele><time>2026-05-01T17:26:36Z</time></trkpt><trkpt lat="44.86149391049625" lon="9.552695031912451"><ele>185.0</ele><time>2026-05-01T17:26:37Z</time></trkpt><trkpt lat="44.861578820938036" lon="9.552882935964043"><ele>183.75</ele><time>2026-05-01T17:26:38Z</time></trkpt><trkpt lat="44.861661747354496" lon="9.553049110829445"><ele>182.5</ele><time>2026-05-01T17:26:39Z</time></trkpt><trkpt lat="44.86174847334151" lon="9.553197198987363"><ele>181.25</ele><time>2026-05-01T17:26:40Z</time></trkpt><trkpt lat="44.861846550217244" lon="9.553324541917315"><ele>180.0</ele><time>2026-05-01T17:26:41Z</time></trkpt><trkpt lat="44.86197146965609" lon="9.553429328399517"><ele>180.0</ele><time>2026-05-01T17:26:42Z</time></trkpt><trkpt lat="44.8621112282267" lon="9.553515332800986"><ele>180.0</ele><time>2026-05-01T17:26:43Z</time></trkpt><trkpt lat="44.86223728432996" lon="9.553632473313732"><ele>180.0</ele><time>2026-05-01T17:26:44Z</time></trkpt><trkpt lat="44.86236076819091" lon="9.553735594624555"><ele>180.0</ele><time>2026-05-01T17:26:45Z</time></trkpt><trkpt lat="44.86248191906358" lon="9.553817453083196"><ele>180.0</ele><time>2026-05-01T17:26:46Z</time></trkpt><trkpt lat="44.86258319282887" lon="9.553954208241123"><ele>180.0</ele><time>2026-05-01T17:26:47Z</time></trkpt><trkpt lat="44.86267167654317" lon="9.554117866992248"><ele>180.0</ele><time>2026-05-01T17:26:48Z</time></trkpt><trkpt lat="44.86274777974634" lon="9.554304493198329"><ele>180.0</ele><time>2026-05-01T17:26:49Z</time></trkpt><trkpt lat="44.862821152931794" lon="9.554498860713672"><ele>182.0</ele><time>2026-05-01T17:26:50Z</time></trkpt><trkpt lat="44.86290114124925" lon="9.554679842825504"><ele>184.0</ele><time>2026-05-01T17:26:51Z</time></trkpt><trkpt lat="44.862994806599104" lon="9.554845052634073"><ele>186.0</ele><time>2026-05-01T17:26:52Z</time></trkpt><trkpt lat="44.863098446336274" lon="9.554990781117946"><ele>188.0</ele><time>2026-05-01T17:26:53Z</time></trkpt><trkpt lat="44.863217428735155" lon="9.555104224300587"><ele>188.0</ele><time>2026-05-01T17:26:54Z</time></trkpt><trkpt lat="44.8633516485905" lon="9.55518476406116"><ele>188.0</ele><time>2026-05-01T17:26:55Z</time></trkpt><trkpt lat="44.863488003152575" lon="9.55524026533353"><ele>188.0</ele><time>2026-05-01T17:26:56Z</time></trkpt><trkpt lat="44.8636292137248" lon="9.555266575142477"><ele>188.0</ele><time>2026-05-01T17:26:57Z</time></trkpt><trkpt lat="44.86377080480503" lon="9.55525684894867"><ele>188.0</ele><time>2026-05-01T17:26:58Z</time></trkpt><trkpt lat="44.86391263989769" lon="9.555220507131883"><ele>188.0</ele><time>2026-05-01T17:26:59Z</time></trkpt><trkpt lat="44.864055089682026" lon="9.555172946233846"><ele>188.0</ele><time>2026-05-01T17:27:00Z</time></trkpt><trkpt lat="44.864206206867806" lon="9.555146986288817"><ele>188.0</ele><time>2026-05-01T17:27:01Z</time></trkpt><trkpt lat="44.864355230747" lon="9.555098245853477"><ele>189.66666666666666</ele><time>2026-05-01T17:27:02Z</time></trkpt><trkpt lat="44.86449877148423" lon="9.55503060259549"><ele>191.33333333333331</ele><time>2026-05-01T17:27:03Z</time></trkpt><trkpt lat="44.86464563163275" lon="9.554988234998001"><ele>193.0</ele><time>2026-05-01T17:27:04Z</time></trkpt><trkpt lat="44.86479215418857" lon="9.554954420942918"><ele>193.0</ele><time>2026-05-01T17:27:05Z</time></trkpt><trkpt lat="44.86493310746502" lon="9.554917884145757"><ele>193.0</ele><time>2026-05-01T17:27:06Z</time></trkpt><trkpt lat="44.865073917055675" lon="9.554878863652723"><ele>193.0</ele><time>2026-05-01T17:27:07Z</time></trkpt><trkpt lat="44.86521299744144" lon="9.554835537083045"><ele>193.0</ele><time>2026-05-01T17:27:08Z</time></trkpt><trkpt lat="44.86534944780094" lon="9.554795440494809"><ele>193.5</ele><time>2026-05-01T17:27:09Z</time></trkpt><trkpt lat="44.86547898737255" lon="9.554758288638846"><ele>194.0</ele><time>2026-05-01T17:27:10Z</time></trkpt><trkpt lat="44.865600046566946" lon="9.554729715176771"><ele>194.5</ele><time>2026-05-01T17:27:11Z</time></trkpt><trkpt lat="44.8657209982475" lon="9.554711562009308"><ele>195.0</ele><time>2026-05-01T17:27:12Z</time></trkpt><trkpt lat="44.86584343922925" lon="9.55470008498001"><ele>192.75</ele><time>2026-05-01T17:27:13Z</time></trkpt><trkpt lat="44.865969127020726" lon="9.554707298195918"><ele>190.5</ele><time>2026-05-01T17:27:14Z</time></trkpt><trkpt lat="44.866091288495255" lon="9.554759051333031"><ele>188.25</ele><time>2026-05-01T17:27:15Z</time></trkpt><trkpt lat="44.86620700074015" lon="9.55485837487218"><ele>186.0</ele><time>2026-05-01T17:27:16Z</time></trkpt><trkpt lat="44.8663092162334" lon="9.554996330523192"><ele>186.0</ele><time>2026-05-01T17:27:17Z</time></trkpt><trkpt lat="44.866407792935654" lon="9.555137221243312"><ele>186.0</ele><time>2026-05-01T17:27:18Z</time></trkpt><trkpt lat="44.86650974298" lon="9.555292921691787"><ele>186.0</ele><time>2026-05-01T17:27:19Z</time></trkpt><trkpt lat="44.86661976306411" lon="9.555434224268835"><ele>186.0</ele><time>2026-05-01T17:27:20Z</time></trkpt><trkpt lat="44.86672897339362" lon="9.555572403373533"><ele>186.0</ele><time>2026-05-01T17:27:21Z</time></trkpt><trkpt lat="44.866838693467976" lon="9.55570752292145"><ele>186.0</ele><time>2026-05-01T17:27:22Z</time></trkpt><trkpt lat="44.86695429332518" lon="9.55584087041101"><ele>186.0</ele><time>2026-05-01T17:27:23Z</time></trkpt><trkpt lat="44.86707991668939" lon="9.555956269700808"><ele>186.0</ele><time>2026-05-01T17:27:24Z</time></trkpt><trkpt lat="44.86721648543711" lon="9.556043193143788"><ele>186.0</ele><time>2026-05-01T17:27:25Z</time></trkpt><trkpt lat="44.867365501220114" lon="9.556106560412445"><ele>186.0</ele><time>2026-05-01T17:27:26Z</time></trkpt><trkpt lat="44.867516442043005" lon="9.556149467701031"><ele>186.0</ele><time>2026-05-01T17:27:27Z</time></trkpt><trkpt lat="44.867663505425064" lon="9.556185930120126"><ele>186.5</ele><time>2026-05-01T17:27:28Z</time></trkpt><trkpt lat="44.867802488716656" lon="9.556217925185436"><ele>187.0</ele><time>2026-05-01T17:27:29Z</time></trkpt><trkpt lat="44.8679327950411" lon="9.55625935930904"><ele>187.5</ele><time>2026-05-01T17:27:30Z</time></trkpt><trkpt lat="44.868061447462715" lon="9.556318509594082"><ele>188.0</ele><time>2026-05-01T17:27:31Z</time></trkpt><trkpt lat="44.86817661480123" lon="9.556409395316622"><ele>188.0</ele><time>2026-05-01T17:27:32Z</time></trkpt><trkpt lat="44.86827693416466" lon="9.556519594308613"><ele>188.0</ele><time>2026-05-01T17:27:33Z</time></trkpt><trkpt lat="44.868345918853784" lon="9.556674082641658"><ele>188.0</ele><time>2026-05-01T17:27:34Z</time></trkpt><trkpt lat="44.86841503524268" lon="9.556821408838184"><ele>188.0</ele><time>2026-05-01T17:27:35Z</time></trkpt><trkpt lat="44.868485338350624" lon="9.556984690139975"><ele>187.0</ele><time>2026-05-01T17:27:36Z</time></trkpt><trkpt lat="44.86854987730454" lon="9.557139507857386"><ele>186.0</ele><time>2026-05-01T17:27:37Z</time></trkpt><trkpt lat="44.86862272518526" lon="9.557309356625648"><ele>185.0</ele><time>2026-05-01T17:27:38Z</time></trkpt><trkpt lat="44.86875353612109" lon="9.557574109634569"><ele>185.0</ele><time>2026-05-01T17:27:39Z</time></trkpt><trkpt lat="44.86901181299352" lon="9.557814717332596"><ele>185.0</ele><time>2026-05-01T17:27:40Z</time></trkpt><trkpt lat="44.869241654514646" lon="9.557890317064585"><ele>190.5</ele><time>2026-05-01T17:27:41Z</time></trkpt><trkpt lat="44.869473627235664" lon="9.557949379475701"><ele>196.0</ele><time>2026-05-01T17:27:42Z</time></trkpt><trkpt lat="44.86918782290855" lon="9.5579310823093"><ele>196.0</ele><time>2026-05-01T17:27:43Z</time></trkpt><trkpt lat="44.869339890535215" lon="9.557952947189547"><ele>196.0</ele><time>2026-05-01T17:27:44Z</time></trkpt><trkpt lat="44.869498661857854" lon="9.557970922516015"><ele>196.0</ele><time>2026-05-01T17:27:45Z</time></trkpt><trkpt lat="44.869647069289115" lon="9.557991364026236"><ele>196.0</ele><time>2026-05-01T17:27:46Z</time></trkpt><trkpt lat="44.8697992413264" lon="9.557999009767215"><ele>196.0</ele><time>2026-05-01T17:27:47Z</time></trkpt><trkpt lat="44.86995230602835" lon="9.557965538492788"><ele>196.0</ele><time>2026-05-01T17:27:48Z</time></trkpt><trkpt lat="44.870101244363894" lon="9.557906302990354"><ele>192.66666666666666</ele><time>2026-05-01T17:27:49Z</time></trkpt><trkpt lat="44.870248671299294" lon="9.557854587029885"><ele>189.33333333333331</ele><time>2026-05-01T17:27:50Z</time></trkpt><trkpt lat="44.870396338732434" lon="9.557805157942951"><ele>186.0</ele><time>2026-05-01T17:27:51Z</time></trkpt><trkpt lat="44.87054007478097" lon="9.557762228969793"><ele>186.0</ele><time>2026-05-01T17:27:52Z</time></trkpt><trkpt lat="44.870679114345094" lon="9.55772338336983"><ele>186.0</ele><time>2026-05-01T17:27:53Z</time></trkpt><trkpt lat="44.87080975266888" lon="9.557683663649925"><ele>186.0</ele><time>2026-05-01T17:27:54Z</time></trkpt><trkpt lat="44.870936850850164" lon="9.557646186982906"><ele>186.0</ele><time>2026-05-01T17:27:55Z</time></trkpt><trkpt lat="44.87104760667969" lon="9.557614285402817"><ele>184.0</ele><time>2026-05-01T17:27:56Z</time></trkpt><trkpt lat="44.871158651523956" lon="9.55762167159836"><ele>182.0</ele><time>2026-05-01T17:27:57Z</time></trkpt><trkpt lat="44.87127316919645" lon="9.55761171915953"><ele>180.0</ele><time>2026-05-01T17:27:58Z</time></trkpt><trkpt lat="44.87138458916629" lon="9.557679490932491"><ele>178.0</ele><time>2026-05-01T17:27:59Z</time></trkpt><trkpt lat="44.8714972238661" lon="9.557753482047627"><ele>178.0</ele><time>2026-05-01T17:28:00Z</time></trkpt><trkpt lat="44.87160497890067" lon="9.557847471260994"><ele>178.0</ele><time>2026-05-01T17:28:01Z</time></trkpt><trkpt lat="44.871704037009266" lon="9.557961260739106"><ele>178.0</ele><time>2026-05-01T17:28:01.999Z</time></trkpt><trkpt lat="44.87179405848177" lon="9.558093912870367"><ele>178.0</ele><time>2026-05-01T17:28:02.999Z</time></trkpt><trkpt lat="44.87187202106268" lon="9.558249333975708"><ele>178.0</ele><time>2026-05-01T17:28:03.999Z</time></trkpt><trkpt lat="44.87193285661192" lon="9.558423555180156"><ele>178.0</ele><time>2026-05-01T17:28:04.999Z</time></trkpt><trkpt lat="44.871999048727716" lon="9.558623598514705"><ele>178.0</ele><time>2026-05-01T17:28:05.999Z</time></trkpt><trkpt lat="44.872055879474935" lon="9.558843073509136"><ele>178.0</ele><time>2026-05-01T17:28:06.999Z</time></trkpt><trkpt lat="44.87212826864077" lon="9.559029853974593"><ele>178.0</ele><time>2026-05-01T17:28:07.999Z</time></trkpt><trkpt lat="44.8721989555872" lon="9.55919558264875"><ele>178.0</ele><time>2026-05-01T17:28:08.999Z</time></trkpt><trkpt lat="44.87226241946148" lon="9.559349307794157"><ele>178.0</ele><time>2026-05-01T17:28:09.999Z</time></trkpt><trkpt lat="44.87242679617534" lon="9.559454033066373"><ele>179.0</ele><time>2026-05-01T17:28:10.999Z</time></trkpt><trkpt lat="44.87258071379201" lon="9.559548958622921"><ele>180.0</ele><time>2026-05-01T17:28:11.999Z</time></trkpt><trkpt lat="44.87273958590835" lon="9.559652488740925"><ele>181.0</ele><time>2026-05-01T17:28:12.999Z</time></trkpt><trkpt lat="44.87287617427976" lon="9.559751777530083"><ele>181.0</ele><time>2026-05-01T17:28:13.999Z</time></trkpt><trkpt lat="44.87300074707158" lon="9.559842333806621"><ele>181.0</ele><time>2026-05-01T17:28:14.999Z</time></trkpt><trkpt lat="44.87315097690387" lon="9.559944976762608"><ele>181.0</ele><time>2026-05-01T17:28:15.999Z</time></trkpt><trkpt lat="44.87329370409843" lon="9.56005807728495"><ele>178.66666666666669</ele><time>2026-05-01T17:28:16.999Z</time></trkpt><trkpt lat="44.87343932711312" lon="9.560166953868686"><ele>176.33333333333334</ele><time>2026-05-01T17:28:17.999Z</time></trkpt><trkpt lat="44.87358601645567" lon="9.560275556867696"><ele>174.0</ele><time>2026-05-01T17:28:18.999Z</time></trkpt><trkpt lat="44.87371948140169" lon="9.560366248903032"><ele>175.25</ele><time>2026-05-01T17:28:19.999Z</time></trkpt><trkpt lat="44.8738461552531" lon="9.560456507264604"><ele>176.5</ele><time>2026-05-01T17:28:20.999Z</time></trkpt><trkpt lat="44.87396471743904" lon="9.560543398518504"><ele>177.75</ele><time>2026-05-01T17:28:21.999Z</time></trkpt><trkpt lat="44.874092150473565" lon="9.560632818506315"><ele>179.0</ele><time>2026-05-01T17:28:23Z</time></trkpt><trkpt lat="44.874222983169616" lon="9.560727976923445"><ele>178.5</ele><time>2026-05-01T17:28:24Z</time></trkpt><trkpt lat="44.87435158997059" lon="9.56082487948245"><ele>178.0</ele><time>2026-05-01T17:28:25Z</time></trkpt><trkpt lat="44.87448142586662" lon="9.56091846389725"><ele>177.5</ele><time>2026-05-01T17:28:26Z</time></trkpt><trkpt lat="44.87461024540224" lon="9.561011015119233"><ele>177.0</ele><time>2026-05-01T17:28:27Z</time></trkpt><trkpt lat="44.874723656815455" lon="9.561081178359535"><ele>177.0</ele><time>2026-05-01T17:28:28Z</time></trkpt><trkpt lat="44.874837966484954" lon="9.561132566474166"><ele>177.0</ele><time>2026-05-01T17:28:29Z</time></trkpt><trkpt lat="44.87496882380556" lon="9.56114196452675"><ele>177.0</ele><time>2026-05-01T17:28:30Z</time></trkpt><trkpt lat="44.87511638827142" lon="9.561098274913842"><ele>177.0</ele><time>2026-05-01T17:28:31Z</time></trkpt><trkpt lat="44.875271455958355" lon="9.561046950639334"><ele>176.75</ele><time>2026-05-01T17:28:32Z</time></trkpt><trkpt lat="44.875417682463834" lon="9.56101682682281"><ele>176.5</ele><time>2026-05-01T17:28:33Z</time></trkpt><trkpt lat="44.87555460507447" lon="9.560980534161999"><ele>176.25</ele><time>2026-05-01T17:28:34Z</time></trkpt><trkpt lat="44.87569029777267" lon="9.560955161814595"><ele>176.0</ele><time>2026-05-01T17:28:35Z</time></trkpt><trkpt lat="44.8758321905916" lon="9.560920400985884"><ele>175.75</ele><time>2026-05-01T17:28:36Z</time></trkpt><trkpt lat="44.875973095246586" lon="9.560903271376311"><ele>175.5</ele><time>2026-05-01T17:28:37Z</time></trkpt><trkpt lat="44.876108066626536" lon="9.560914093528318"><ele>175.25</ele><time>2026-05-01T17:28:38Z</time></trkpt><trkpt lat="44.87624563603992" lon="9.560951586452063"><ele>175.0</ele><time>2026-05-01T17:28:39Z</time></trkpt><trkpt lat="44.876389823608136" lon="9.561017231544712"><ele>175.0</ele><time>2026-05-01T17:28:40Z</time></trkpt><trkpt lat="44.87653518212641" lon="9.56109738339635"><ele>175.0</ele><time>2026-05-01T17:28:41Z</time></trkpt><trkpt lat="44.876676341179085" lon="9.561182303105957"><ele>175.0</ele><time>2026-05-01T17:28:42Z</time></trkpt><trkpt lat="44.87681051270753" lon="9.561284693826483"><ele>175.0</ele><time>2026-05-01T17:28:43Z</time></trkpt><trkpt lat="44.87694024405289" lon="9.561407727436206"><ele>175.0</ele><time>2026-05-01T17:28:44Z</time></trkpt><trkpt lat="44.87706091092895" lon="9.561541608475041"><ele>175.0</ele><time>2026-05-01T17:28:45Z</time></trkpt><trkpt lat="44.87718066051106" lon="9.561667374020823"><ele>175.0</ele><time>2026-05-01T17:28:46Z</time></trkpt><trkpt lat="44.87730324300475" lon="9.561784335163821"><ele>175.0</ele><time>2026-05-01T17:28:47Z</time></trkpt><trkpt lat="44.87742650046504" lon="9.561912896747776"><ele>175.0</ele><time>2026-05-01T17:28:48Z</time></trkpt><trkpt lat="44.87754595067234" lon="9.562045080211607"><ele>174.66666666666669</ele><time>2026-05-01T17:28:49Z</time></trkpt><trkpt lat="44.87766544568116" lon="9.562175489925945"><ele>174.33333333333334</ele><time>2026-05-01T17:28:50Z</time></trkpt><trkpt lat="44.87778831742278" lon="9.562298805025065"><ele>174.0</ele><time>2026-05-01T17:28:51Z</time></trkpt><trkpt lat="44.87790699253717" lon="9.562428475950025"><ele>174.0</ele><time>2026-05-01T17:28:52Z</time></trkpt><trkpt lat="44.87803226695203" lon="9.562561702777463"><ele>174.0</ele><time>2026-05-01T17:28:53Z</time></trkpt><trkpt lat="44.87816172830431" lon="9.562701324962822"><ele>174.0</ele><time>2026-05-01T17:28:54Z</time></trkpt><trkpt lat="44.878293736321" lon="9.562846850408633"><ele>176.33333333333334</ele><time>2026-05-01T17:28:55Z</time></trkpt><trkpt lat="44.8784256789668" lon="9.562996941569102"><ele>178.66666666666669</ele><time>2026-05-01T17:28:56Z</time></trkpt><trkpt lat="44.87855143305614" lon="9.563151885870926"><ele>181.0</ele><time>2026-05-01T17:28:57Z</time></trkpt><trkpt lat="44.87867567155033" lon="9.563308572714778"><ele>181.0</ele><time>2026-05-01T17:28:58Z</time></trkpt><trkpt lat="44.87879800043727" lon="9.563476523850776"><ele>181.0</ele><time>2026-05-01T17:28:59Z</time></trkpt><trkpt lat="44.87891821934281" lon="9.563645235931823"><ele>181.0</ele><time>2026-05-01T17:29:00Z</time></trkpt><trkpt lat="44.87904059781585" lon="9.563813787889"><ele>181.0</ele><time>2026-05-01T17:29:01Z</time></trkpt><trkpt lat="44.87916526013577" lon="9.563986424997754"><ele>181.0</ele><time>2026-05-01T17:29:02Z</time></trkpt><trkpt lat="44.87928813319942" lon="9.564145985040021"><ele>181.0</ele><time>2026-05-01T17:29:03Z</time></trkpt><trkpt lat="44.879410750391166" lon="9.564312035010227"><ele>178.66666666666669</ele><time>2026-05-01T17:29:04Z</time></trkpt><trkpt lat="44.87952803066832" lon="9.564479889647911"><ele>176.33333333333334</ele><time>2026-05-01T17:29:05Z</time></trkpt><trkpt lat="44.87964201259683" lon="9.564638788778794"><ele>174.0</ele><time>2026-05-01T17:29:06Z</time></trkpt><trkpt lat="44.87975991200421" lon="9.564793931999805"><ele>174.0</ele><time>2026-05-01T17:29:07Z</time></trkpt><trkpt lat="44.879878529523936" lon="9.564950118035176"><ele>174.0</ele><time>2026-05-01T17:29:08Z</time></trkpt><trkpt lat="44.8799951781753" lon="9.565113689791303"><ele>174.0</ele><time>2026-05-01T17:29:09Z</time></trkpt><trkpt lat="44.880114902595885" lon="9.56527395243082"><ele>172.33333333333334</ele><time>2026-05-01T17:29:10Z</time></trkpt><trkpt lat="44.88023737711496" lon="9.565438920849706"><ele>170.66666666666669</ele><time>2026-05-01T17:29:11Z</time></trkpt><trkpt lat="44.880360287466914" lon="9.565604126752321"><ele>169.0</ele><time>2026-05-01T17:29:12Z</time></trkpt><trkpt lat="44.8804802862897" lon="9.565778099236395"><ele>169.0</ele><time>2026-05-01T17:29:13Z</time></trkpt><trkpt lat="44.880606600840984" lon="9.565949154147127"><ele>169.0</ele><time>2026-05-01T17:29:14Z</time></trkpt><trkpt lat="44.88073412173428" lon="9.566109538666833"><ele>169.0</ele><time>2026-05-01T17:29:15Z</time></trkpt><trkpt lat="44.88085592334972" lon="9.566273841344914"><ele>169.0</ele><time>2026-05-01T17:29:16Z</time></trkpt><trkpt lat="44.88097962209543" lon="9.566437007018331"><ele>169.0</ele><time>2026-05-01T17:29:17Z</time></trkpt><trkpt lat="44.88110308421604" lon="9.566600047300314"><ele>169.0</ele><time>2026-05-01T17:29:18Z</time></trkpt><trkpt lat="44.88122351712633" lon="9.566765815085562"><ele>169.0</ele><time>2026-05-01T17:29:19Z</time></trkpt><trkpt lat="44.881343806571245" lon="9.566929028065948"><ele>169.0</ele><time>2026-05-01T17:29:20Z</time></trkpt><trkpt lat="44.8814595951765" lon="9.567091176133044"><ele>169.0</ele><time>2026-05-01T17:29:21Z</time></trkpt><trkpt lat="44.881569578452925" lon="9.567262757571743"><ele>168.0</ele><time>2026-05-01T17:29:22Z</time></trkpt><trkpt lat="44.88168092246618" lon="9.567430851634894"><ele>167.0</ele><time>2026-05-01T17:29:23Z</time></trkpt><trkpt lat="44.88178198502879" lon="9.567631888718397"><ele>166.0</ele><time>2026-05-01T17:29:24Z</time></trkpt><trkpt lat="44.88186076930051" lon="9.567850695563802"><ele>166.33333333333334</ele><time>2026-05-01T17:29:25Z</time></trkpt><trkpt lat="44.88193825640995" lon="9.568063858735096"><ele>166.66666666666666</ele><time>2026-05-01T17:29:26Z</time></trkpt><trkpt lat="44.88200844482077" lon="9.568286394308515"><ele>167.0</ele><time>2026-05-01T17:29:27Z</time></trkpt><trkpt lat="44.88209023540858" lon="9.568499627895731"><ele>168.33333333333331</ele><time>2026-05-01T17:29:28Z</time></trkpt><trkpt lat="44.882163183849414" lon="9.568717327253744"><ele>169.66666666666666</ele><time>2026-05-01T17:29:29Z</time></trkpt><trkpt lat="44.88223533526932" lon="9.56893049447604"><ele>171.0</ele><time>2026-05-01T17:29:30Z</time></trkpt><trkpt lat="44.88231046568586" lon="9.569143237501555"><ele>171.0</ele><time>2026-05-01T17:29:31Z</time></trkpt><trkpt lat="44.88238494428943" lon="9.569350496240977"><ele>171.0</ele><time>2026-05-01T17:29:32Z</time></trkpt><trkpt lat="44.882458505401615" lon="9.569563691867137"><ele>171.0</ele><time>2026-05-01T17:29:33Z</time></trkpt><trkpt lat="44.88253128047729" lon="9.56977967486035"><ele>169.0</ele><time>2026-05-01T17:29:34Z</time></trkpt><trkpt lat="44.88260723035489" lon="9.569996318506767"><ele>167.0</ele><time>2026-05-01T17:29:35Z</time></trkpt><trkpt lat="44.88268153703269" lon="9.570210405139727"><ele>165.0</ele><time>2026-05-01T17:29:36Z</time></trkpt><trkpt lat="44.882762756878016" lon="9.570423579295223"><ele>165.0</ele><time>2026-05-01T17:29:37Z</time></trkpt><trkpt lat="44.88283513269593" lon="9.570639163789709"><ele>165.0</ele><time>2026-05-01T17:29:38Z</time></trkpt><trkpt lat="44.88289872554537" lon="9.570856642320294"><ele>165.0</ele><time>2026-05-01T17:29:39Z</time></trkpt><trkpt lat="44.882977880058775" lon="9.57105838354564"><ele>166.33333333333334</ele><time>2026-05-01T17:29:40Z</time></trkpt><trkpt lat="44.88304749375778" lon="9.571263811816237"><ele>167.66666666666669</ele><time>2026-05-01T17:29:41Z</time></trkpt><trkpt lat="44.883120983412034" lon="9.571464808504828"><ele>169.0</ele><time>2026-05-01T17:29:42Z</time></trkpt><trkpt lat="44.883192314207314" lon="9.571669700659262"><ele>169.0</ele><time>2026-05-01T17:29:43Z</time></trkpt><trkpt lat="44.883266835796036" lon="9.571874478736696"><ele>169.0</ele><time>2026-05-01T17:29:44Z</time></trkpt><trkpt lat="44.88334017618763" lon="9.572084686085608"><ele>169.0</ele><time>2026-05-01T17:29:45Z</time></trkpt><trkpt lat="44.88341273097174" lon="9.57228677752234"><ele>168.66666666666669</ele><time>2026-05-01T17:29:46Z</time></trkpt><trkpt lat="44.88348516360648" lon="9.572498888892586"><ele>168.33333333333334</ele><time>2026-05-01T17:29:47Z</time></trkpt><trkpt lat="44.88355610380946" lon="9.572704853530608"><ele>168.0</ele><time>2026-05-01T17:29:48Z</time></trkpt><trkpt lat="44.88362956621083" lon="9.57290563011013"><ele>168.0</ele><time>2026-05-01T17:29:49Z</time></trkpt><trkpt lat="44.88370112267254" lon="9.573104427127118"><ele>168.0</ele><time>2026-05-01T17:29:50Z</time></trkpt><trkpt lat="44.88376815780344" lon="9.573299840672535"><ele>168.0</ele><time>2026-05-01T17:29:51Z</time></trkpt><trkpt lat="44.88382812713057" lon="9.573487232996952"><ele>168.0</ele><time>2026-05-01T17:29:52Z</time></trkpt><trkpt lat="44.883876869969995" lon="9.573670031538164"><ele>168.0</ele><time>2026-05-01T17:29:53Z</time></trkpt><trkpt lat="44.883908956493585" lon="9.57386508801786"><ele>168.0</ele><time>2026-05-01T17:29:54Z</time></trkpt><trkpt lat="44.88391338671101" lon="9.574056559682367"><ele>168.0</ele><time>2026-05-01T17:29:55Z</time></trkpt><trkpt lat="44.88389750642047" lon="9.574249619960336"><ele>168.0</ele><time>2026-05-01T17:29:56Z</time></trkpt><trkpt lat="44.88385788199741" lon="9.57444187415769"><ele>168.0</ele><time>2026-05-01T17:29:57Z</time></trkpt><trkpt lat="44.883822530697344" lon="9.574636407184563"><ele>168.0</ele><time>2026-05-01T17:29:58Z</time></trkpt><trkpt lat="44.88379727246912" lon="9.574834929895072"><ele>168.0</ele><time>2026-05-01T17:29:59Z</time></trkpt><trkpt lat="44.883785799483" lon="9.57504100437628"><ele>167.75</ele><time>2026-05-01T17:30:00Z</time></trkpt><trkpt lat="44.88379813847529" lon="9.575238118446116"><ele>167.5</ele><time>2026-05-01T17:30:01Z</time></trkpt><trkpt lat="44.88381104563871" lon="9.575418784594184"><ele>167.25</ele><time>2026-05-01T17:30:02Z</time></trkpt><trkpt lat="44.88383436605563" lon="9.575579358892625"><ele>167.0</ele><time>2026-05-01T17:30:02.999Z</time></trkpt><trkpt lat="44.88388413688765" lon="9.575729687167442"><ele>168.5</ele><time>2026-05-01T17:30:03.999Z</time></trkpt><trkpt lat="44.88396418390441" lon="9.575867511973936"><ele>170.0</ele><time>2026-05-01T17:30:04.999Z</time></trkpt><trkpt lat="44.88406694951571" lon="9.575984161196114"><ele>171.5</ele><time>2026-05-01T17:30:05.999Z</time></trkpt><trkpt lat="44.88421016722156" lon="9.576073153706517"><ele>173.0</ele><time>2026-05-01T17:30:06.999Z</time></trkpt><trkpt lat="44.88433944643477" lon="9.57616287165814"><ele>171.0</ele><time>2026-05-01T17:30:07.999Z</time></trkpt><trkpt lat="44.88445753907701" lon="9.57625543295784"><ele>169.0</ele><time>2026-05-01T17:30:08.999Z</time></trkpt><trkpt lat="44.88455057995924" lon="9.576354197434105"><ele>167.0</ele><time>2026-05-01T17:30:09.999Z</time></trkpt><trkpt lat="44.884613623150216" lon="9.576478018010281"><ele>165.0</ele><time>2026-05-01T17:30:10.999Z</time></trkpt><trkpt lat="44.88466005019497" lon="9.576620034950613"><ele>165.0</ele><time>2026-05-01T17:30:11.999Z</time></trkpt><trkpt lat="44.884657095337026" lon="9.576794496009853"><ele>165.0</ele><time>2026-05-01T17:30:12.999Z</time></trkpt><trkpt lat="44.88466709991004" lon="9.576985180427082"><ele>165.0</ele><time>2026-05-01T17:30:13.999Z</time></trkpt><trkpt lat="44.88465459636672" lon="9.577182288266313"><ele>165.0</ele><time>2026-05-01T17:30:14.999Z</time></trkpt><trkpt lat="44.88465464938629" lon="9.577385021524515"><ele>166.25</ele><time>2026-05-01T17:30:15.999Z</time></trkpt><trkpt lat="44.8846634065235" lon="9.577571061087268"><ele>167.5</ele><time>2026-05-01T17:30:16.999Z</time></trkpt><trkpt lat="44.884680660750966" lon="9.577738477969971"><ele>168.75</ele><time>2026-05-01T17:30:17.999Z</time></trkpt><trkpt lat="44.88469822735685" lon="9.577908252758537"><ele>170.0</ele><time>2026-05-01T17:30:18.999Z</time></trkpt><trkpt lat="44.88471374602775" lon="9.57808052385362"><ele>171.75</ele><time>2026-05-01T17:30:19.999Z</time></trkpt><trkpt lat="44.884732657437674" lon="9.578259427972585"><ele>173.5</ele><time>2026-05-01T17:30:20.999Z</time></trkpt><trkpt lat="44.884754437027404" lon="9.578441176494007"><ele>175.25</ele><time>2026-05-01T17:30:21.999Z</time></trkpt><trkpt lat="44.884794512345394" lon="9.578623791024404"><ele>177.0</ele><time>2026-05-01T17:30:22.999Z</time></trkpt><trkpt lat="44.88482383999524" lon="9.578810863800207"><ele>177.5</ele><time>2026-05-01T17:30:23.999Z</time></trkpt><trkpt lat="44.884853061267535" lon="9.579001039023321"><ele>178.0</ele><time>2026-05-01T17:30:24.999Z</time></trkpt><trkpt lat="44.88488959945" lon="9.579187868865354"><ele>178.5</ele><time>2026-05-01T17:30:25.999Z</time></trkpt><trkpt lat="44.88492633432911" lon="9.579379318341651"><ele>179.0</ele><time>2026-05-01T17:30:26.999Z</time></trkpt><trkpt lat="44.8849668374206" lon="9.57957786903886"><ele>180.33333333333331</ele><time>2026-05-01T17:30:27.999Z</time></trkpt><trkpt lat="44.88502208009416" lon="9.579777868385007"><ele>181.66666666666666</ele><time>2026-05-01T17:30:29Z</time></trkpt><trkpt lat="44.885085062962894" lon="9.579978068715517"><ele>183.0</ele><time>2026-05-01T17:30:30Z</time></trkpt><trkpt lat="44.88516226929818" lon="9.580177083869538"><ele>179.33333333333334</ele><time>2026-05-01T17:30:31Z</time></trkpt><trkpt lat="44.885249047392435" lon="9.580371663582488"><ele>175.66666666666669</ele><time>2026-05-01T17:30:32Z</time></trkpt><trkpt lat="44.885329193518004" lon="9.58056865292127"><ele>172.0</ele><time>2026-05-01T17:30:33Z</time></trkpt><trkpt lat="44.88539530997597" lon="9.580765979719464"><ele>172.0</ele><time>2026-05-01T17:30:34Z</time></trkpt><trkpt lat="44.8854463726974" lon="9.58096202574619"><ele>172.0</ele><time>2026-05-01T17:30:35Z</time></trkpt><trkpt lat="44.88546130163078" lon="9.581174099563919"><ele>172.0</ele><time>2026-05-01T17:30:36Z</time></trkpt><trkpt lat="44.88547721612343" lon="9.58139382289266"><ele>172.5</ele><time>2026-05-01T17:30:37Z</time></trkpt><trkpt lat="44.88549349987843" lon="9.581603353190962"><ele>173.0</ele><time>2026-05-01T17:30:38Z</time></trkpt><trkpt lat="44.88552963231103" lon="9.581791396511552"><ele>173.5</ele><time>2026-05-01T17:30:39Z</time></trkpt><trkpt lat="44.885564327902564" lon="9.581984685587587"><ele>174.0</ele><time>2026-05-01T17:30:40Z</time></trkpt><trkpt lat="44.88562826756398" lon="9.582182074578308"><ele>176.0</ele><time>2026-05-01T17:30:41Z</time></trkpt><trkpt lat="44.88571180551484" lon="9.582364237515094"><ele>178.0</ele><time>2026-05-01T17:30:42Z</time></trkpt><trkpt lat="44.88580568811932" lon="9.58254879112349"><ele>180.0</ele><time>2026-05-01T17:30:43Z</time></trkpt><trkpt lat="44.88590234528307" lon="9.58273122239778"><ele>179.75</ele><time>2026-05-01T17:30:44Z</time></trkpt><trkpt lat="44.8859899461418" lon="9.582910267591958"><ele>179.5</ele><time>2026-05-01T17:30:45Z</time></trkpt><trkpt lat="44.88607187722205" lon="9.583075579637423"><ele>179.25</ele><time>2026-05-01T17:30:46Z</time></trkpt><trkpt lat="44.88614560425534" lon="9.583228578196513"><ele>179.0</ele><time>2026-05-01T17:30:47Z</time></trkpt><trkpt lat="44.88622515486308" lon="9.583358683588525"><ele>179.0</ele><time>2026-05-01T17:30:48Z</time></trkpt><trkpt lat="44.88633230666128" lon="9.583446247133919"><ele>179.0</ele><time>2026-05-01T17:30:49Z</time></trkpt><trkpt lat="44.88645139795207" lon="9.58349666741817"><ele>179.0</ele><time>2026-05-01T17:30:50Z</time></trkpt><trkpt lat="44.886571275632846" lon="9.58349985277225"><ele>179.0</ele><time>2026-05-01T17:30:51Z</time></trkpt><trkpt lat="44.88669930177182" lon="9.58346331633358"><ele>179.25</ele><time>2026-05-01T17:30:52Z</time></trkpt><trkpt lat="44.8868215292529" lon="9.583406407841359"><ele>179.5</ele><time>2026-05-01T17:30:53Z</time></trkpt><trkpt lat="44.88694148966736" lon="9.583364789945009"><ele>179.75</ele><time>2026-05-01T17:30:54Z</time></trkpt><trkpt lat="44.8870625548666" lon="9.583357921534727"><ele>180.0</ele><time>2026-05-01T17:30:55Z</time></trkpt><trkpt lat="44.88718201114757" lon="9.58342578551113"><ele>180.0</ele><time>2026-05-01T17:30:56Z</time></trkpt><trkpt lat="44.88729878977336" lon="9.58346818936708"><ele>180.0</ele><time>2026-05-01T17:30:57Z</time></trkpt><trkpt lat="44.88736933372265" lon="9.583610449853643"><ele>180.0</ele><time>2026-05-01T17:30:58Z</time></trkpt><trkpt lat="44.88744963253665" lon="9.583740797298274"><ele>180.0</ele><time>2026-05-01T17:30:59Z</time></trkpt><trkpt lat="44.887534335036804" lon="9.583896066767252"><ele>181.0</ele><time>2026-05-01T17:31:00Z</time></trkpt><trkpt lat="44.88761409476568" lon="9.584050158830731"><ele>182.0</ele><time>2026-05-01T17:31:01Z</time></trkpt><trkpt lat="44.88770639324702" lon="9.584191366031403"><ele>183.0</ele><time>2026-05-01T17:31:02Z</time></trkpt><trkpt lat="44.88781949197502" lon="9.584245845001805"><ele>184.0</ele><time>2026-05-01T17:31:03Z</time></trkpt><trkpt lat="44.887941712014005" lon="9.584200834872037"><ele>184.0</ele><time>2026-05-01T17:31:04Z</time></trkpt><trkpt lat="44.888012886235074" lon="9.58418559651398"><ele>184.0</ele><time>2026-05-01T17:31:05Z</time></trkpt><trkpt lat="44.88811755815552" lon="9.584161960519962"><ele>184.0</ele><time>2026-05-01T17:31:06Z</time></trkpt><trkpt lat="44.88828664754558" lon="9.584117354798275"><ele>184.0</ele><time>2026-05-01T17:31:07Z</time></trkpt><trkpt lat="44.888389658291956" lon="9.58412831593393"><ele>183.39999999999998</ele><time>2026-05-01T17:31:08Z</time></trkpt><trkpt lat="44.88849390399406" lon="9.584129362473378"><ele>182.8</ele><time>2026-05-01T17:31:09Z</time></trkpt><trkpt lat="44.888595303198194" lon="9.584163947656064"><ele>182.2</ele><time>2026-05-01T17:31:10Z</time></trkpt><trkpt lat="44.888695580942425" lon="9.584222993173228"><ele>181.60000000000002</ele><time>2026-05-01T17:31:11Z</time></trkpt><trkpt lat="44.88877773249774" lon="9.58431230035786"><ele>181.0</ele><time>2026-05-01T17:31:12Z</time></trkpt><trkpt lat="44.88885277505387" lon="9.58443246240062"><ele>183.0</ele><time>2026-05-01T17:31:13Z</time></trkpt><trkpt lat="44.88892710514356" lon="9.584560205432828"><ele>185.0</ele><time>2026-05-01T17:31:14Z</time></trkpt><trkpt lat="44.88898944238259" lon="9.584697525149393"><ele>187.0</ele><time>2026-05-01T17:31:15Z</time></trkpt><trkpt lat="44.88905928562935" lon="9.5848438227789"><ele>189.0</ele><time>2026-05-01T17:31:16Z</time></trkpt><trkpt lat="44.88913468833284" lon="9.584982285719256"><ele>189.0</ele><time>2026-05-01T17:31:17Z</time></trkpt><trkpt lat="44.88921970531793" lon="9.585118875451423"><ele>189.0</ele><time>2026-05-01T17:31:18Z</time></trkpt><trkpt lat="44.88931171778179" lon="9.58525556426805"><ele>189.0</ele><time>2026-05-01T17:31:19Z</time></trkpt><trkpt lat="44.88941371071097" lon="9.58537750099876"><ele>189.0</ele><time>2026-05-01T17:31:20Z</time></trkpt><trkpt lat="44.88952577518609" lon="9.585487791352453"><ele>190.0</ele><time>2026-05-01T17:31:21Z</time></trkpt><trkpt lat="44.8896465816831" lon="9.585575663207232"><ele>191.0</ele><time>2026-05-01T17:31:22Z</time></trkpt><trkpt lat="44.88977814978082" lon="9.585617630720218"><ele>192.0</ele><time>2026-05-01T17:31:23Z</time></trkpt><trkpt lat="44.88991333087201" lon="9.585616047186763"><ele>193.0</ele><time>2026-05-01T17:31:24Z</time></trkpt><trkpt lat="44.89004478611067" lon="9.585575212409779"><ele>192.5</ele><time>2026-05-01T17:31:25Z</time></trkpt><trkpt lat="44.89017351136011" lon="9.585530862315595"><ele>192.0</ele><time>2026-05-01T17:31:26Z</time></trkpt><trkpt lat="44.89029548051747" lon="9.585478004915881"><ele>191.5</ele><time>2026-05-01T17:31:27Z</time></trkpt><trkpt lat="44.89041170993298" lon="9.585441760986553"><ele>191.0</ele><time>2026-05-01T17:31:28Z</time></trkpt><trkpt lat="44.89052276041173" lon="9.58542090375793"><ele>191.0</ele><time>2026-05-01T17:31:29Z</time></trkpt><trkpt lat="44.89062894540415" lon="9.585416157259127"><ele>191.0</ele><time>2026-05-01T17:31:30Z</time></trkpt><trkpt lat="44.890740058486124" lon="9.585404062458405"><ele>191.0</ele><time>2026-05-01T17:31:31Z</time></trkpt><trkpt lat="44.89085709561185" lon="9.585413020002097"><ele>191.0</ele><time>2026-05-01T17:31:32Z</time></trkpt><trkpt lat="44.89097834601888" lon="9.585390460730476"><ele>191.25</ele><time>2026-05-01T17:31:33Z</time></trkpt><trkpt lat="44.8911043459419" lon="9.585390348456816"><ele>191.5</ele><time>2026-05-01T17:31:34Z</time></trkpt><trkpt lat="44.89123778576488" lon="9.585391035084362"><ele>191.75</ele><time>2026-05-01T17:31:35Z</time></trkpt><trkpt lat="44.89137300143746" lon="9.585385309857289"><ele>192.0</ele><time>2026-05-01T17:31:36Z</time></trkpt><trkpt lat="44.89151444896829" lon="9.585380627168163"><ele>192.0</ele><time>2026-05-01T17:31:37Z</time></trkpt><trkpt lat="44.891657163918694" lon="9.58537137001788"><ele>192.0</ele><time>2026-05-01T17:31:38Z</time></trkpt><trkpt lat="44.891801850429104" lon="9.585362812012612"><ele>192.0</ele><time>2026-05-01T17:31:39Z</time></trkpt><trkpt lat="44.891946617328834" lon="9.585358050551841"><ele>192.0</ele><time>2026-05-01T17:31:40Z</time></trkpt><trkpt lat="44.8920878191338" lon="9.585356285509638"><ele>192.0</ele><time>2026-05-01T17:31:41Z</time></trkpt><trkpt lat="44.892228873592934" lon="9.585347106181107"><ele>192.0</ele><time>2026-05-01T17:31:42Z</time></trkpt><trkpt lat="44.89237423209977" lon="9.585347477510611"><ele>192.0</ele><time>2026-05-01T17:31:43Z</time></trkpt><trkpt lat="44.892519335384925" lon="9.585341945864162"><ele>192.0</ele><time>2026-05-01T17:31:44Z</time></trkpt><trkpt lat="44.892660610175966" lon="9.585335328011627"><ele>189.66666666666666</ele><time>2026-05-01T17:31:45Z</time></trkpt><trkpt lat="44.89281023326879" lon="9.58533207143164"><ele>187.33333333333331</ele><time>2026-05-01T17:31:46Z</time></trkpt><trkpt lat="44.892968200983915" lon="9.585328740156852"><ele>185.0</ele><time>2026-05-01T17:31:47Z</time></trkpt><trkpt lat="44.893126304037295" lon="9.585324258050358"><ele>185.0</ele><time>2026-05-01T17:31:48Z</time></trkpt><trkpt lat="44.893283031065245" lon="9.585316490742294"><ele>185.0</ele><time>2026-05-01T17:31:49Z</time></trkpt><trkpt lat="44.89343484039863" lon="9.585316176754265"><ele>185.0</ele><time>2026-05-01T17:31:50Z</time></trkpt><trkpt lat="44.893584325532295" lon="9.58530894800102"><ele>184.33333333333331</ele><time>2026-05-01T17:31:51Z</time></trkpt><trkpt lat="44.89373741143129" lon="9.585304168231882"><ele>183.66666666666666</ele><time>2026-05-01T17:31:52Z</time></trkpt><trkpt lat="44.89389043346504" lon="9.585295913334061"><ele>183.0</ele><time>2026-05-01T17:31:53Z</time></trkpt><trkpt lat="44.89404628629134" lon="9.58529219277825"><ele>183.0</ele><time>2026-05-01T17:31:53.999Z</time></trkpt><trkpt lat="44.89420029286858" lon="9.58528875359806"><ele>183.0</ele><time>2026-05-01T17:31:54.999Z</time></trkpt><trkpt lat="44.8943569870257" lon="9.5852832883423"><ele>183.0</ele><time>2026-05-01T17:31:55.999Z</time></trkpt><trkpt lat="44.894510376507355" lon="9.585281376204081"><ele>183.0</ele><time>2026-05-01T17:31:56.999Z</time></trkpt><trkpt lat="44.89466486630338" lon="9.585274519743546"><ele>183.0</ele><time>2026-05-01T17:31:57.999Z</time></trkpt><trkpt lat="44.89482046462806" lon="9.585252125333673"><ele>183.0</ele><time>2026-05-01T17:31:58.999Z</time></trkpt><trkpt lat="44.89497726034016" lon="9.585229996475253"><ele>182.0</ele><time>2026-05-01T17:31:59.999Z</time></trkpt><trkpt lat="44.895133991951695" lon="9.585197912934778"><ele>181.0</ele><time>2026-05-01T17:32:00.999Z</time></trkpt><trkpt lat="44.89528661234592" lon="9.585150295720567"><ele>180.0</ele><time>2026-05-01T17:32:01.999Z</time></trkpt><trkpt lat="44.895429728835076" lon="9.585108952361079"><ele>180.0</ele><time>2026-05-01T17:32:02.999Z</time></trkpt><trkpt lat="44.89556921255152" lon="9.58507532246575"><ele>180.0</ele><time>2026-05-01T17:32:03.999Z</time></trkpt><trkpt lat="44.89571379271544" lon="9.585050364886994"><ele>180.0</ele><time>2026-05-01T17:32:04.999Z</time></trkpt><trkpt lat="44.895854655187776" lon="9.585051923656115"><ele>180.0</ele><time>2026-05-01T17:32:05.999Z</time></trkpt><trkpt lat="44.89600105473482" lon="9.58509205199153"><ele>177.66666666666666</ele><time>2026-05-01T17:32:06.999Z</time></trkpt><trkpt lat="44.896153025890705" lon="9.585128671829581"><ele>175.33333333333331</ele><time>2026-05-01T17:32:07.999Z</time></trkpt><trkpt lat="44.89630281529149" lon="9.585173615649456"><ele>173.0</ele><time>2026-05-01T17:32:08.999Z</time></trkpt><trkpt lat="44.89645384167471" lon="9.585234339321548"><ele>173.0</ele><time>2026-05-01T17:32:09.999Z</time></trkpt><trkpt lat="44.89660793985109" lon="9.585298010654821"><ele>173.0</ele><time>2026-05-01T17:32:10.999Z</time></trkpt><trkpt lat="44.89675576934157" lon="9.585412517739885"><ele>173.0</ele><time>2026-05-01T17:32:11.999Z</time></trkpt><trkpt lat="44.89691533967947" lon="9.585485519562978"><ele>175.0</ele><time>2026-05-01T17:32:12.999Z</time></trkpt><trkpt lat="44.897065781677675" lon="9.585579127241575"><ele>177.0</ele><time>2026-05-01T17:32:13.999Z</time></trkpt><trkpt lat="44.89720686257979" lon="9.58567085157119"><ele>179.0</ele><time>2026-05-01T17:32:14.999Z</time></trkpt><trkpt lat="44.89734218043236" lon="9.58576165359251"><ele>179.0</ele><time>2026-05-01T17:32:15.999Z</time></trkpt><trkpt lat="44.897470281305786" lon="9.585842335235373"><ele>179.0</ele><time>2026-05-01T17:32:16.999Z</time></trkpt><trkpt lat="44.897599653954295" lon="9.585914028931334"><ele>179.0</ele><time>2026-05-01T17:32:17.999Z</time></trkpt><trkpt lat="44.89772978590834" lon="9.585967746440947"><ele>179.0</ele><time>2026-05-01T17:32:18.999Z</time></trkpt><trkpt lat="44.897869105980604" lon="9.585968267057245"><ele>177.75</ele><time>2026-05-01T17:32:19.999Z</time></trkpt><trkpt lat="44.89800301661611" lon="9.58592096085539"><ele>176.5</ele><time>2026-05-01T17:32:20.999Z</time></trkpt><trkpt lat="44.89814372225216" lon="9.585829416814645"><ele>175.25</ele><time>2026-05-01T17:32:21.999Z</time></trkpt><trkpt lat="44.898277761812956" lon="9.58573478405029"><ele>174.0</ele><time>2026-05-01T17:32:22.999Z</time></trkpt><trkpt lat="44.89840873228968" lon="9.585632286523902"><ele>172.75</ele><time>2026-05-01T17:32:23.999Z</time></trkpt><trkpt lat="44.89854462109675" lon="9.585621014618498"><ele>171.5</ele><time>2026-05-01T17:32:24.999Z</time></trkpt><trkpt lat="44.898677899633405" lon="9.585638842717747"><ele>170.25</ele><time>2026-05-01T17:32:25.999Z</time></trkpt><trkpt lat="44.898830485925146" lon="9.5856604799838"><ele>169.0</ele><time>2026-05-01T17:32:26.999Z</time></trkpt><trkpt lat="44.898985250662456" lon="9.585723890368206"><ele>169.0</ele><time>2026-05-01T17:32:27.999Z</time></trkpt><trkpt lat="44.89915028352522" lon="9.58579053370409"><ele>169.0</ele><time>2026-05-01T17:32:28.999Z</time></trkpt><trkpt lat="44.899316282683365" lon="9.585843253027281"><ele>169.0</ele><time>2026-05-01T17:32:29.999Z</time></trkpt><trkpt lat="44.899478850926215" lon="9.585888488240048"><ele>167.0</ele><time>2026-05-01T17:32:30.999Z</time></trkpt><trkpt lat="44.8996415878783" lon="9.585932163543776"><ele>165.0</ele><time>2026-05-01T17:32:31.999Z</time></trkpt><trkpt lat="44.89979299833797" lon="9.585973050510804"><ele>163.0</ele><time>2026-05-01T17:32:32.999Z</time></trkpt><trkpt lat="44.899935892893254" lon="9.586013557378122"><ele>163.0</ele><time>2026-05-01T17:32:33.999Z</time></trkpt><trkpt lat="44.90007638661373" lon="9.58605908072786"><ele>163.0</ele><time>2026-05-01T17:32:35Z</time></trkpt><trkpt lat="44.90021409186357" lon="9.586107826702516"><ele>163.0</ele><time>2026-05-01T17:32:36Z</time></trkpt><trkpt lat="44.90035068886322" lon="9.586154492537764"><ele>163.0</ele><time>2026-05-01T17:32:37Z</time></trkpt><trkpt lat="44.90048445810824" lon="9.586207326275414"><ele>163.75</ele><time>2026-05-01T17:32:38Z</time></trkpt><trkpt lat="44.90061701241028" lon="9.586272093913912"><ele>164.5</ele><time>2026-05-01T17:32:39Z</time></trkpt><trkpt lat="44.90074607388053" lon="9.586347252193171"><ele>165.25</ele><time>2026-05-01T17:32:40Z</time></trkpt><trkpt lat="44.90087177117716" lon="9.586432978172384"><ele>166.0</ele><time>2026-05-01T17:32:41Z</time></trkpt><trkpt lat="44.900993587525754" lon="9.5865184577184"><ele>164.60000000000002</ele><time>2026-05-01T17:32:42Z</time></trkpt><trkpt lat="44.90111120467989" lon="9.58660066018592"><ele>163.20000000000002</ele><time>2026-05-01T17:32:43Z</time></trkpt><trkpt lat="44.90121019826178" lon="9.586666539664817"><ele>161.8</ele><time>2026-05-01T17:32:44Z</time></trkpt><trkpt lat="44.90128896318616" lon="9.586727811045403"><ele>160.4</ele><time>2026-05-01T17:32:45Z</time></trkpt><trkpt lat="44.901352452786824" lon="9.586779694608845"><ele>159.0</ele><time>2026-05-01T17:32:46Z</time></trkpt><trkpt lat="44.901448928286705" lon="9.586861976241362"><ele>159.0</ele><time>2026-05-01T17:32:48Z</time></trkpt><trkpt lat="44.90154821578565" lon="9.586944521518996"><ele>159.0</ele><time>2026-05-01T17:32:50Z</time></trkpt><trkpt lat="44.901604951468606" lon="9.586995988200739"><ele>159.0</ele><time>2026-05-01T17:32:51Z</time></trkpt><trkpt lat="44.901666085102434" lon="9.587050206579958"><ele>159.0</ele><time>2026-05-01T17:32:52Z</time></trkpt><trkpt lat="44.901722465567" lon="9.587102012007168"><ele>159.0</ele><time>2026-05-01T17:32:53Z</time></trkpt><trkpt lat="44.90177960899648" lon="9.587148069829656"><ele>159.0</ele><time>2026-05-01T17:32:54Z</time></trkpt><trkpt lat="44.90184418493383" lon="9.58720076956825"><ele>159.0</ele><time>2026-05-01T17:32:55Z</time></trkpt><trkpt lat="44.90191700206974" lon="9.58725988894118"><ele>159.0</ele><time>2026-05-01T17:32:56Z</time></trkpt><trkpt lat="44.90199270275441" lon="9.587326275345989"><ele>159.0</ele><time>2026-05-01T17:32:57Z</time></trkpt><trkpt lat="44.90207494149593" lon="9.587395274046017"><ele>159.0</ele><time>2026-05-01T17:32:58Z</time></trkpt><trkpt lat="44.90215883367678" lon="9.587462780653363"><ele>159.0</ele><time>2026-05-01T17:32:59Z</time></trkpt><trkpt lat="44.90224882216153" lon="9.587541907933986"><ele>159.0</ele><time>2026-05-01T17:33:00Z</time></trkpt><trkpt lat="44.902341978966525" lon="9.58762433940077"><ele>159.0</ele><time>2026-05-01T17:33:01Z</time></trkpt><trkpt lat="44.90243590583411" lon="9.587716021106687"><ele>159.0</ele><time>2026-05-01T17:33:02Z</time></trkpt><trkpt lat="44.9025372100591" lon="9.587802580850223"><ele>159.0</ele><time>2026-05-01T17:33:03Z</time></trkpt><trkpt lat="44.90264777462596" lon="9.587898264336564"><ele>157.25</ele><time>2026-05-01T17:33:04Z</time></trkpt><trkpt lat="44.902752906316245" lon="9.587990460043809"><ele>155.5</ele><time>2026-05-01T17:33:05Z</time></trkpt><trkpt lat="44.902855592927565" lon="9.588079052344698"><ele>153.75</ele><time>2026-05-01T17:33:06Z</time></trkpt><trkpt lat="44.90296519179923" lon="9.588171269380764"><ele>152.0</ele><time>2026-05-01T17:33:07Z</time></trkpt><trkpt lat="44.903083162197426" lon="9.588264864292567"><ele>152.0</ele><time>2026-05-01T17:33:08Z</time></trkpt><trkpt lat="44.90321023664116" lon="9.588369660421447"><ele>152.0</ele><time>2026-05-01T17:33:09Z</time></trkpt><trkpt lat="44.90333583629347" lon="9.588481845059876"><ele>152.0</ele><time>2026-05-01T17:33:10Z</time></trkpt><trkpt lat="44.90347944809162" lon="9.58858763432169"><ele>152.0</ele><time>2026-05-01T17:33:11Z</time></trkpt><trkpt lat="44.90361177346008" lon="9.58869759620757"><ele>152.0</ele><time>2026-05-01T17:33:12Z</time></trkpt><trkpt lat="44.90374374914503" lon="9.588803300930786"><ele>152.0</ele><time>2026-05-01T17:33:13Z</time></trkpt><trkpt lat="44.903876044182915" lon="9.58891075178793"><ele>152.0</ele><time>2026-05-01T17:33:14Z</time></trkpt><trkpt lat="44.90400299817807" lon="9.589015407293846"><ele>152.0</ele><time>2026-05-01T17:33:15Z</time></trkpt><trkpt lat="44.90412712063344" lon="9.589119648682138"><ele>152.0</ele><time>2026-05-01T17:33:16Z</time></trkpt><trkpt lat="44.904251141798966" lon="9.589222139442054"><ele>152.0</ele><time>2026-05-01T17:33:17Z</time></trkpt><trkpt lat="44.90437615847461" lon="9.589324742209653"><ele>150.33333333333331</ele><time>2026-05-01T17:33:18Z</time></trkpt><trkpt lat="44.90450851955946" lon="9.589438736370775"><ele>148.66666666666666</ele><time>2026-05-01T17:33:19Z</time></trkpt><trkpt lat="44.90464761584288" lon="9.589553732169787"><ele>147.0</ele><time>2026-05-01T17:33:20Z</time></trkpt><trkpt lat="44.904790552547325" lon="9.589668985963142"><ele>147.0</ele><time>2026-05-01T17:33:21Z</time></trkpt><trkpt lat="44.90493933218561" lon="9.589788360402334"><ele>147.0</ele><time>2026-05-01T17:33:22Z</time></trkpt><trkpt lat="44.905092771791004" lon="9.5899141131236"><ele>147.0</ele><time>2026-05-01T17:33:23Z</time></trkpt><trkpt lat="44.90524893178362" lon="9.590040655068728"><ele>147.66666666666666</ele><time>2026-05-01T17:33:24Z</time></trkpt><trkpt lat="44.905402779335084" lon="9.59016961327198"><ele>148.33333333333331</ele><time>2026-05-01T17:33:25Z</time></trkpt><trkpt lat="44.90555243929377" lon="9.590298977386956"><ele>149.0</ele><time>2026-05-01T17:33:26Z</time></trkpt><trkpt lat="44.90570628299302" lon="9.59042765626691"><ele>149.0</ele><time>2026-05-01T17:33:27Z</time></trkpt><trkpt lat="44.90585874863496" lon="9.590556783504292"><ele>149.0</ele><time>2026-05-01T17:33:28Z</time></trkpt><trkpt lat="44.90601715873658" lon="9.590685240362275"><ele>149.0</ele><time>2026-05-01T17:33:29Z</time></trkpt><trkpt lat="44.906172608064175" lon="9.590809724709995"><ele>146.0</ele><time>2026-05-01T17:33:30Z</time></trkpt><trkpt lat="44.906328446632415" lon="9.590932592602758"><ele>143.0</ele><time>2026-05-01T17:33:31Z</time></trkpt><trkpt lat="44.906480077296024" lon="9.591047828267047"><ele>140.0</ele><time>2026-05-01T17:33:32Z</time></trkpt><trkpt lat="44.906624543274845" lon="9.591166505546822"><ele>138.33333333333331</ele><time>2026-05-01T17:33:33Z</time></trkpt><trkpt lat="44.906772975379525" lon="9.591287374309397"><ele>136.66666666666666</ele><time>2026-05-01T17:33:34Z</time></trkpt><trkpt lat="44.90692076582273" lon="9.591411762880002"><ele>135.0</ele><time>2026-05-01T17:33:35Z</time></trkpt><trkpt lat="44.90707093623961" lon="9.591529276243516"><ele>135.0</ele><time>2026-05-01T17:33:36Z</time></trkpt><trkpt lat="44.90721397062233" lon="9.59165076848423"><ele>135.0</ele><time>2026-05-01T17:33:37Z</time></trkpt><trkpt lat="44.907361742729535" lon="9.591770354534333"><ele>135.0</ele><time>2026-05-01T17:33:38Z</time></trkpt><trkpt lat="44.907502100986264" lon="9.59189642586617"><ele>134.66666666666666</ele><time>2026-05-01T17:33:39Z</time></trkpt><trkpt lat="44.90764417677008" lon="9.592012590579843"><ele>134.33333333333331</ele><time>2026-05-01T17:33:40Z</time></trkpt><trkpt lat="44.90778391979175" lon="9.592127628714493"><ele>134.0</ele><time>2026-05-01T17:33:41Z</time></trkpt><trkpt lat="44.90792027601959" lon="9.592240403440888"><ele>134.0</ele><time>2026-05-01T17:33:42Z</time></trkpt><trkpt lat="44.908051678893614" lon="9.592353691450295"><ele>134.0</ele><time>2026-05-01T17:33:43Z</time></trkpt><trkpt lat="44.90817834700495" lon="9.592466119191823"><ele>134.0</ele><time>2026-05-01T17:33:44Z</time></trkpt><trkpt lat="44.90829574298321" lon="9.592585469015958"><ele>134.0</ele><time>2026-05-01T17:33:45Z</time></trkpt><trkpt lat="44.90840730036431" lon="9.59272370948677"><ele>134.0</ele><time>2026-05-01T17:33:45.999Z</time></trkpt><trkpt lat="44.908513622743236" lon="9.592864515075584"><ele>134.0</ele><time>2026-05-01T17:33:46.999Z</time></trkpt><trkpt lat="44.90860605796932" lon="9.59300234196924"><ele>134.0</ele><time>2026-05-01T17:33:47.999Z</time></trkpt><trkpt lat="44.908699410726385" lon="9.593147326505843"><ele>134.0</ele><time>2026-05-01T17:33:48.999Z</time></trkpt><trkpt lat="44.908791710270485" lon="9.593293848965502"><ele>134.0</ele><time>2026-05-01T17:33:49.999Z</time></trkpt><trkpt lat="44.90888374908697" lon="9.593427008101802"><ele>134.0</ele><time>2026-05-01T17:33:50.999Z</time></trkpt><trkpt lat="44.90896997590169" lon="9.593566423026639"><ele>134.0</ele><time>2026-05-01T17:33:51.999Z</time></trkpt><trkpt lat="44.90905910614578" lon="9.593717583747948"><ele>134.0</ele><time>2026-05-01T17:33:52.999Z</time></trkpt><trkpt lat="44.90915310156671" lon="9.593868774574132"><ele>133.25</ele><time>2026-05-01T17:33:53.999Z</time></trkpt><trkpt lat="44.90925068999277" lon="9.594010513713336"><ele>132.5</ele><time>2026-05-01T17:33:54.999Z</time></trkpt><trkpt lat="44.90934852334828" lon="9.594152618964175"><ele>131.75</ele><time>2026-05-01T17:33:55.999Z</time></trkpt><trkpt lat="44.90944772699536" lon="9.5942959487538"><ele>131.0</ele><time>2026-05-01T17:33:56.999Z</time></trkpt><trkpt lat="44.909546767820544" lon="9.594442581816063"><ele>131.25</ele><time>2026-05-01T17:33:57.999Z</time></trkpt><trkpt lat="44.909642558655" lon="9.594594206308575"><ele>131.5</ele><time>2026-05-01T17:33:58.999Z</time></trkpt><trkpt lat="44.9097417957822" lon="9.594744896035039"><ele>131.75</ele><time>2026-05-01T17:33:59.999Z</time></trkpt><trkpt lat="44.909840288555095" lon="9.59489158686085"><ele>132.0</ele><time>2026-05-01T17:34:00.999Z</time></trkpt><trkpt lat="44.90994335443803" lon="9.59503237550408"><ele>132.0</ele><time>2026-05-01T17:34:01.999Z</time></trkpt><trkpt lat="44.91005339850607" lon="9.59516466508131"><ele>132.0</ele><time>2026-05-01T17:34:02.999Z</time></trkpt><trkpt lat="44.91016858001048" lon="9.595288899153308"><ele>132.0</ele><time>2026-05-01T17:34:03.999Z</time></trkpt><trkpt lat="44.91028596800344" lon="9.595394699569324"><ele>132.0</ele><time>2026-05-01T17:34:04.999Z</time></trkpt><trkpt lat="44.910408336702275" lon="9.595487270382426"><ele>132.0</ele><time>2026-05-01T17:34:05.999Z</time></trkpt><trkpt lat="44.910532931778576" lon="9.595569993885759"><ele>132.0</ele><time>2026-05-01T17:34:06.999Z</time></trkpt><trkpt lat="44.910657435015565" lon="9.595640668777971"><ele>132.0</ele><time>2026-05-01T17:34:07.999Z</time></trkpt><trkpt lat="44.91078495849265" lon="9.595709287390095"><ele>132.0</ele><time>2026-05-01T17:34:08.999Z</time></trkpt><trkpt lat="44.910913779704345" lon="9.595777446786535"><ele>132.0</ele><time>2026-05-01T17:34:09.999Z</time></trkpt><trkpt lat="44.911044817716444" lon="9.595848757765184"><ele>132.0</ele><time>2026-05-01T17:34:10.999Z</time></trkpt><trkpt lat="44.911175682152084" lon="9.595919070036672"><ele>132.0</ele><time>2026-05-01T17:34:11.999Z</time></trkpt><trkpt lat="44.91130790792864" lon="9.59598977825132"><ele>132.0</ele><time>2026-05-01T17:34:12.999Z</time></trkpt><trkpt lat="44.911443644033824" lon="9.596058654032898"><ele>132.0</ele><time>2026-05-01T17:34:13.999Z</time></trkpt><trkpt lat="44.91157805199225" lon="9.596131286845242"><ele>132.0</ele><time>2026-05-01T17:34:14.999Z</time></trkpt><trkpt lat="44.91171115159985" lon="9.596201150405328"><ele>132.0</ele><time>2026-05-01T17:34:15.999Z</time></trkpt><trkpt lat="44.91184254029703" lon="9.596268527909185"><ele>132.0</ele><time>2026-05-01T17:34:16.999Z</time></trkpt><trkpt lat="44.911972730985134" lon="9.596339313246272"><ele>133.75</ele><time>2026-05-01T17:34:17.999Z</time></trkpt><trkpt lat="44.91210028282632" lon="9.59641310776041"><ele>135.5</ele><time>2026-05-01T17:34:18.999Z</time></trkpt><trkpt lat="44.912225957112504" lon="9.596493467517506"><ele>137.25</ele><time>2026-05-01T17:34:19.999Z</time></trkpt><trkpt lat="44.91234810969873" lon="9.5965839462341"><ele>139.0</ele><time>2026-05-01T17:34:20.999Z</time></trkpt><trkpt lat="44.91246368821217" lon="9.59668744742648"><ele>138.75</ele><time>2026-05-01T17:34:21.999Z</time></trkpt><trkpt lat="44.91257611818503" lon="9.596803630329907"><ele>138.5</ele><time>2026-05-01T17:34:22.999Z</time></trkpt><trkpt lat="44.91268451770398" lon="9.596930106701704"><ele>138.25</ele><time>2026-05-01T17:34:23.999Z</time></trkpt><trkpt lat="44.91278563054964" lon="9.5970693383838"><ele>138.0</ele><time>2026-05-01T17:34:24.999Z</time></trkpt><trkpt lat="44.91287976957581" lon="9.597214583074878"><ele>138.0</ele><time>2026-05-01T17:34:25.999Z</time></trkpt><trkpt lat="44.912964161295335" lon="9.597365218998272"><ele>138.0</ele><time>2026-05-01T17:34:26.999Z</time></trkpt><trkpt lat="44.91304053466478" lon="9.597520595120407"><ele>138.0</ele><time>2026-05-01T17:34:27.999Z</time></trkpt><trkpt lat="44.913107868287206" lon="9.597680006569158"><ele>138.0</ele><time>2026-05-01T17:34:28.999Z</time></trkpt><trkpt lat="44.91317357961817" lon="9.597845052558384"><ele>138.0</ele><time>2026-05-01T17:34:29.999Z</time></trkpt><trkpt lat="44.91323754206572" lon="9.598007369626995"><ele>138.0</ele><time>2026-05-01T17:34:30.999Z</time></trkpt><trkpt lat="44.91330127782084" lon="9.59816687508524"><ele>138.0</ele><time>2026-05-01T17:34:31.999Z</time></trkpt><trkpt lat="44.9133735880596" lon="9.598311766570422"><ele>138.0</ele><time>2026-05-01T17:34:32.999Z</time></trkpt><trkpt lat="44.91343696008218" lon="9.598448927746645"><ele>138.0</ele><time>2026-05-01T17:34:33.999Z</time></trkpt><trkpt lat="44.913481260741236" lon="9.598599520170607"><ele>138.0</ele><time>2026-05-01T17:34:34.999Z</time></trkpt><trkpt lat="44.91355012782013" lon="9.598732849334334"><ele>138.0</ele><time>2026-05-01T17:34:35.999Z</time></trkpt><trkpt lat="44.91361034832798" lon="9.598880385926591"><ele>138.0</ele><time>2026-05-01T17:34:36.999Z</time></trkpt><trkpt lat="44.91365916401837" lon="9.599042677464977"><ele>137.75</ele><time>2026-05-01T17:34:37.999Z</time></trkpt><trkpt lat="44.91373592324839" lon="9.599196410316992"><ele>137.5</ele><time>2026-05-01T17:34:38.999Z</time></trkpt><trkpt lat="44.913794848334845" lon="9.599372091898605"><ele>137.25</ele><time>2026-05-01T17:34:39.999Z</time></trkpt><trkpt lat="44.91385927875321" lon="9.599553712259729"><ele>137.0</ele><time>2026-05-01T17:34:41Z</time></trkpt><trkpt lat="44.913928716847366" lon="9.599740477712157"><ele>136.66666666666666</ele><time>2026-05-01T17:34:42Z</time></trkpt><trkpt lat="44.91400009721197" lon="9.599933118433041"><ele>136.33333333333334</ele><time>2026-05-01T17:34:43Z</time></trkpt><trkpt lat="44.91407730476834" lon="9.600129137864986"><ele>136.0</ele><time>2026-05-01T17:34:44Z</time></trkpt><trkpt lat="44.91415655548032" lon="9.60032943419668"><ele>136.66666666666669</ele><time>2026-05-01T17:34:45Z</time></trkpt><trkpt lat="44.914236309164465" lon="9.600535721083723"><ele>137.33333333333334</ele><time>2026-05-01T17:34:46Z</time></trkpt><trkpt lat="44.91431564296364" lon="9.600744284566595"><ele>138.0</ele><time>2026-05-01T17:34:47Z</time></trkpt><trkpt lat="44.9144001756081" lon="9.600952090100083"><ele>137.0</ele><time>2026-05-01T17:34:48Z</time></trkpt><trkpt lat="44.914483467181384" lon="9.601162208261654"><ele>136.0</ele><time>2026-05-01T17:34:49Z</time></trkpt><trkpt lat="44.91456309610609" lon="9.60137664694172"><ele>135.0</ele><time>2026-05-01T17:34:50Z</time></trkpt><trkpt lat="44.9146578182118" lon="9.601592677015411"><ele>135.0</ele><time>2026-05-01T17:34:51Z</time></trkpt><trkpt lat="44.914744386442614" lon="9.601804999935407"><ele>135.0</ele><time>2026-05-01T17:34:52Z</time></trkpt><trkpt lat="44.91483217023676" lon="9.602025739950744"><ele>135.0</ele><time>2026-05-01T17:34:53Z</time></trkpt><trkpt lat="44.914919363073565" lon="9.602241658589435"><ele>135.66666666666666</ele><time>2026-05-01T17:34:54Z</time></trkpt><trkpt lat="44.915010440315264" lon="9.602463538100483"><ele>136.33333333333331</ele><time>2026-05-01T17:34:55Z</time></trkpt><trkpt lat="44.91510037493595" lon="9.602682233892107"><ele>137.0</ele><time>2026-05-01T17:34:56Z</time></trkpt><trkpt lat="44.915189498415145" lon="9.602901964796919"><ele>138.33333333333331</ele><time>2026-05-01T17:34:57Z</time></trkpt><trkpt lat="44.91527656818081" lon="9.603123214967026"><ele>139.66666666666666</ele><time>2026-05-01T17:34:58Z</time></trkpt><trkpt lat="44.91536141775984" lon="9.603338141329129"><ele>141.0</ele><time>2026-05-01T17:34:59Z</time></trkpt><trkpt lat="44.915449681714136" lon="9.603559571712461"><ele>141.66666666666666</ele><time>2026-05-01T17:35:00Z</time></trkpt><trkpt lat="44.9155351683842" lon="9.60377851881336"><ele>142.33333333333331</ele><time>2026-05-01T17:35:01Z</time></trkpt><trkpt lat="44.915621674995016" lon="9.603999266823422"><ele>143.0</ele><time>2026-05-01T17:35:02Z</time></trkpt><trkpt lat="44.91570627872605" lon="9.604210108499931"><ele>143.0</ele><time>2026-05-01T17:35:03Z</time></trkpt><trkpt lat="44.91579197170133" lon="9.604414003741251"><ele>143.0</ele><time>2026-05-01T17:35:04Z</time></trkpt><trkpt lat="44.91587934801814" lon="9.604617290294101"><ele>143.0</ele><time>2026-05-01T17:35:05Z</time></trkpt><trkpt lat="44.91597452743652" lon="9.604812045884163"><ele>142.33333333333331</ele><time>2026-05-01T17:35:06Z</time></trkpt><trkpt lat="44.9160779238516" lon="9.604997408750226"><ele>141.66666666666666</ele><time>2026-05-01T17:35:07Z</time></trkpt><trkpt lat="44.9161889160361" lon="9.605175729192656"><ele>141.0</ele><time>2026-05-01T17:35:08Z</time></trkpt><trkpt lat="44.916306689297926" lon="9.605354756722726"><ele>141.0</ele><time>2026-05-01T17:35:09Z</time></trkpt><trkpt lat="44.916431599125474" lon="9.605525290953546"><ele>141.0</ele><time>2026-05-01T17:35:10Z</time></trkpt><trkpt lat="44.91656295878453" lon="9.605686377640119"><ele>141.0</ele><time>2026-05-01T17:35:11Z</time></trkpt><trkpt lat="44.91669813180041" lon="9.605840434714805"><ele>141.0</ele><time>2026-05-01T17:35:12Z</time></trkpt><trkpt lat="44.916832121154556" lon="9.605992883259871"><ele>141.0</ele><time>2026-05-01T17:35:13Z</time></trkpt><trkpt lat="44.916967437643024" lon="9.606133653193092"><ele>141.0</ele><time>2026-05-01T17:35:14Z</time></trkpt><trkpt lat="44.917100134899684" lon="9.606278466023017"><ele>141.0</ele><time>2026-05-01T17:35:15Z</time></trkpt><trkpt lat="44.91723188223636" lon="9.606420406049159"><ele>141.0</ele><time>2026-05-01T17:35:16Z</time></trkpt><trkpt lat="44.91736692633888" lon="9.606559235601154"><ele>141.0</ele><time>2026-05-01T17:35:17Z</time></trkpt><trkpt lat="44.91750668688199" lon="9.606700951827534"><ele>140.33333333333334</ele><time>2026-05-01T17:35:18Z</time></trkpt><trkpt lat="44.91765343382874" lon="9.606834509974128"><ele>139.66666666666669</ele><time>2026-05-01T17:35:19Z</time></trkpt><trkpt lat="44.91780736442029" lon="9.60695366611348"><ele>139.0</ele><time>2026-05-01T17:35:20Z</time></trkpt><trkpt lat="44.91796982836306" lon="9.60706376786308"><ele>139.0</ele><time>2026-05-01T17:35:21Z</time></trkpt><trkpt lat="44.91813846951973" lon="9.60717372331559"><ele>139.0</ele><time>2026-05-01T17:35:22Z</time></trkpt><trkpt lat="44.91831177049165" lon="9.607274246833335"><ele>139.0</ele><time>2026-05-01T17:35:23Z</time></trkpt><trkpt lat="44.91848195623707" lon="9.607390276938462"><ele>138.0</ele><time>2026-05-01T17:35:24Z</time></trkpt><trkpt lat="44.91865193686429" lon="9.607509430312334"><ele>137.0</ele><time>2026-05-01T17:35:25Z</time></trkpt><trkpt lat="44.91882281090392" lon="9.607622377281075"><ele>136.0</ele><time>2026-05-01T17:35:26Z</time></trkpt><trkpt lat="44.91898907034007" lon="9.607734516674439"><ele>136.33333333333334</ele><time>2026-05-01T17:35:27Z</time></trkpt><trkpt lat="44.919155140279535" lon="9.607849674433394"><ele>136.66666666666666</ele><time>2026-05-01T17:35:28Z</time></trkpt><trkpt lat="44.919319827743585" lon="9.607963231734086"><ele>137.0</ele><time>2026-05-01T17:35:29Z</time></trkpt><trkpt lat="44.91948344945886" lon="9.608072683686053"><ele>136.33333333333331</ele><time>2026-05-01T17:35:30Z</time></trkpt><trkpt lat="44.919650252905676" lon="9.608187737304508"><ele>135.66666666666666</ele><time>2026-05-01T17:35:31Z</time></trkpt><trkpt lat="44.91981604657423" lon="9.608311545336358"><ele>135.0</ele><time>2026-05-01T17:35:32Z</time></trkpt><trkpt lat="44.91998141538908" lon="9.6084431833626"><ele>134.66666666666666</ele><time>2026-05-01T17:35:33Z</time></trkpt><trkpt lat="44.92014354200619" lon="9.608593206488235"><ele>134.33333333333331</ele><time>2026-05-01T17:35:34Z</time></trkpt><trkpt lat="44.920309060781335" lon="9.608751653117691"><ele>134.0</ele><time>2026-05-01T17:35:35Z</time></trkpt><trkpt lat="44.92047940198916" lon="9.608919804824739"><ele>134.0</ele><time>2026-05-01T17:35:36Z</time></trkpt><trkpt lat="44.92064698038353" lon="9.609100760143814"><ele>134.0</ele><time>2026-05-01T17:35:37Z</time></trkpt><trkpt lat="44.920811521500966" lon="9.609280895665256"><ele>134.0</ele><time>2026-05-01T17:35:38Z</time></trkpt><trkpt lat="44.92097684517404" lon="9.609464810796046"><ele>133.33333333333331</ele><time>2026-05-01T17:35:39Z</time></trkpt><trkpt lat="44.92114533032366" lon="9.609647449269467"><ele>132.66666666666666</ele><time>2026-05-01T17:35:40Z</time></trkpt><trkpt lat="44.921312430521304" lon="9.609832965450062"><ele>132.0</ele><time>2026-05-01T17:35:41Z</time></trkpt><trkpt lat="44.921478264978" lon="9.610017016549312"><ele>132.0</ele><time>2026-05-01T17:35:42Z</time></trkpt><trkpt lat="44.92163907132506" lon="9.610197580999053"><ele>132.0</ele><time>2026-05-01T17:35:42.999Z</time></trkpt><trkpt lat="44.921799517023004" lon="9.610373617320967"><ele>132.0</ele><time>2026-05-01T17:35:43.999Z</time></trkpt><trkpt lat="44.92195950713891" lon="9.610549490913861"><ele>131.66666666666666</ele><time>2026-05-01T17:35:44.999Z</time></trkpt><trkpt lat="44.92211452437134" lon="9.6107207293706"><ele>131.33333333333331</ele><time>2026-05-01T17:35:45.999Z</time></trkpt><trkpt lat="44.92226626592342" lon="9.610890675977272"><ele>131.0</ele><time>2026-05-01T17:35:46.999Z</time></trkpt><trkpt lat="44.92241546221817" lon="9.611059216947625"><ele>131.66666666666666</ele><time>2026-05-01T17:35:47.999Z</time></trkpt><trkpt lat="44.922566686323684" lon="9.611227892324113"><ele>132.33333333333334</ele><time>2026-05-01T17:35:48.999Z</time></trkpt><trkpt lat="44.922718557780044" lon="9.61139400235494"><ele>133.0</ele><time>2026-05-01T17:35:49.999Z</time></trkpt><trkpt lat="44.92287268837706" lon="9.61155289815804"><ele>133.0</ele><time>2026-05-01T17:35:50.999Z</time></trkpt><trkpt lat="44.92302587281015" lon="9.611712289310542"><ele>133.0</ele><time>2026-05-01T17:35:51.999Z</time></trkpt><trkpt lat="44.923182476685945" lon="9.611863844763167"><ele>133.0</ele><time>2026-05-01T17:35:52.999Z</time></trkpt><trkpt lat="44.923340981975166" lon="9.61200921588548"><ele>132.33333333333334</ele><time>2026-05-01T17:35:53.999Z</time></trkpt><trkpt lat="44.923502182844935" lon="9.612159101866945"><ele>131.66666666666666</ele><time>2026-05-01T17:35:54.999Z</time></trkpt><trkpt lat="44.923665324223876" lon="9.61230570372967"><ele>131.0</ele><time>2026-05-01T17:35:55.999Z</time></trkpt><trkpt lat="44.923831538932234" lon="9.612454129892551"><ele>131.0</ele><time>2026-05-01T17:35:56.999Z</time></trkpt><trkpt lat="44.92399858412559" lon="9.612602054260961"><ele>131.0</ele><time>2026-05-01T17:35:57.999Z</time></trkpt><trkpt lat="44.92416264580371" lon="9.612757685752719"><ele>131.0</ele><time>2026-05-01T17:35:58.999Z</time></trkpt><trkpt lat="44.92433087855433" lon="9.612911628507598"><ele>131.66666666666666</ele><time>2026-05-01T17:35:59.999Z</time></trkpt><trkpt lat="44.92450083207624" lon="9.613068434931009"><ele>132.33333333333334</ele><time>2026-05-01T17:36:00.999Z</time></trkpt><trkpt lat="44.92467068113278" lon="9.613217905909018"><ele>133.0</ele><time>2026-05-01T17:36:01.999Z</time></trkpt><trkpt lat="44.92484290764361" lon="9.613366678672632"><ele>133.0</ele><time>2026-05-01T17:36:02.999Z</time></trkpt><trkpt lat="44.925014541108105" lon="9.6135167480279"><ele>133.0</ele><time>2026-05-01T17:36:03.999Z</time></trkpt><trkpt lat="44.92518738882069" lon="9.613674688564942"><ele>133.0</ele><time>2026-05-01T17:36:04.999Z</time></trkpt><trkpt lat="44.92536049437894" lon="9.61382800205263"><ele>133.33333333333334</ele><time>2026-05-01T17:36:05.999Z</time></trkpt><trkpt lat="44.925532622933694" lon="9.613977297962967"><ele>133.66666666666666</ele><time>2026-05-01T17:36:06.999Z</time></trkpt><trkpt lat="44.92570248608673" lon="9.614127833893242"><ele>134.0</ele><time>2026-05-01T17:36:07.999Z</time></trkpt><trkpt lat="44.92586850685017" lon="9.614274043073687"><ele>134.0</ele><time>2026-05-01T17:36:08.999Z</time></trkpt><trkpt lat="44.92602848308485" lon="9.61441206333184"><ele>134.0</ele><time>2026-05-01T17:36:09.999Z</time></trkpt><trkpt lat="44.92618273625088" lon="9.614551731910808"><ele>134.0</ele><time>2026-05-01T17:36:10.999Z</time></trkpt><trkpt lat="44.92633177536682" lon="9.614690022973239"><ele>134.0</ele><time>2026-05-01T17:36:11.999Z</time></trkpt><trkpt lat="44.92646849774444" lon="9.61482780525602"><ele>134.0</ele><time>2026-05-01T17:36:12.999Z</time></trkpt><trkpt lat="44.92659340986516" lon="9.614966586982037"><ele>134.0</ele><time>2026-05-01T17:36:13.999Z</time></trkpt><trkpt lat="44.926706892961796" lon="9.615104516950666"><ele>134.0</ele><time>2026-05-01T17:36:14.999Z</time></trkpt><trkpt lat="44.92682267140653" lon="9.615248745330573"><ele>134.0</ele><time>2026-05-01T17:36:15.999Z</time></trkpt><trkpt lat="44.92693656972685" lon="9.615402422523493"><ele>134.0</ele><time>2026-05-01T17:36:16.999Z</time></trkpt><trkpt lat="44.92704965022526" lon="9.61555968594796"><ele>134.0</ele><time>2026-05-01T17:36:17.999Z</time></trkpt><trkpt lat="44.927161157163205" lon="9.615725042068227"><ele>134.0</ele><time>2026-05-01T17:36:18.999Z</time></trkpt><trkpt lat="44.92727199959401" lon="9.615898458171529"><ele>134.0</ele><time>2026-05-01T17:36:19.999Z</time></trkpt><trkpt lat="44.92738238596781" lon="9.616074441163715"><ele>134.0</ele><time>2026-05-01T17:36:20.999Z</time></trkpt><trkpt lat="44.92749344479231" lon="9.616251390340361"><ele>134.0</ele><time>2026-05-01T17:36:21.999Z</time></trkpt><trkpt lat="44.927606270726024" lon="9.616430619044978"><ele>134.0</ele><time>2026-05-01T17:36:22.999Z</time></trkpt><trkpt lat="44.927721654226545" lon="9.616606832038753"><ele>134.0</ele><time>2026-05-01T17:36:23.999Z</time></trkpt><trkpt lat="44.92783380080123" lon="9.616787455392501"><ele>134.0</ele><time>2026-05-01T17:36:24.999Z</time></trkpt><trkpt lat="44.92794344208329" lon="9.616966811305119"><ele>134.0</ele><time>2026-05-01T17:36:25.999Z</time></trkpt><trkpt lat="44.92805501007878" lon="9.61714525727961"><ele>134.33333333333331</ele><time>2026-05-01T17:36:26.999Z</time></trkpt><trkpt lat="44.92817075250232" lon="9.617321553651013"><ele>134.66666666666666</ele><time>2026-05-01T17:36:27.999Z</time></trkpt><trkpt lat="44.92829165660209" lon="9.617489391966506"><ele>135.0</ele><time>2026-05-01T17:36:28.999Z</time></trkpt><trkpt lat="44.928423939146484" lon="9.617647137442948"><ele>135.0</ele><time>2026-05-01T17:36:29.999Z</time></trkpt><trkpt lat="44.92856351181725" lon="9.617802259238504"><ele>135.0</ele><time>2026-05-01T17:36:30.999Z</time></trkpt><trkpt lat="44.92870704706352" lon="9.617953332827398"><ele>135.0</ele><time>2026-05-01T17:36:31.999Z</time></trkpt><trkpt lat="44.92885451000368" lon="9.618104297905893"><ele>135.33333333333334</ele><time>2026-05-01T17:36:32.999Z</time></trkpt><trkpt lat="44.929001533877994" lon="9.618252689159188"><ele>135.66666666666669</ele><time>2026-05-01T17:36:33.999Z</time></trkpt><trkpt lat="44.929151443746434" lon="9.618407102063237"><ele>136.0</ele><time>2026-05-01T17:36:34.999Z</time></trkpt><trkpt lat="44.929299614727206" lon="9.618564041457356"><ele>135.33333333333334</ele><time>2026-05-01T17:36:35.999Z</time></trkpt><trkpt lat="44.92944430829732" lon="9.618716696322283"><ele>134.66666666666666</ele><time>2026-05-01T17:36:36.999Z</time></trkpt><trkpt lat="44.92958823175531" lon="9.618868109499031"><ele>134.0</ele><time>2026-05-01T17:36:37.999Z</time></trkpt><trkpt lat="44.92973280506555" lon="9.619018606726025"><ele>134.0</ele><time>2026-05-01T17:36:38.999Z</time></trkpt><trkpt lat="44.92987376961411" lon="9.619165414799344"><ele>134.0</ele><time>2026-05-01T17:36:39.999Z</time></trkpt><trkpt lat="44.93001708368833" lon="9.619313932863724"><ele>134.0</ele><time>2026-05-01T17:36:40.999Z</time></trkpt><trkpt lat="44.93015816914072" lon="9.61945951796807"><ele>134.66666666666666</ele><time>2026-05-01T17:36:41.999Z</time></trkpt><trkpt lat="44.930298650717816" lon="9.619610948540714"><ele>135.33333333333334</ele><time>2026-05-01T17:36:42.999Z</time></trkpt><trkpt lat="44.930438990027675" lon="9.619760057903704"><ele>136.0</ele><time>2026-05-01T17:36:43.999Z</time></trkpt><trkpt lat="44.930578936514564" lon="9.619907251455462"><ele>136.0</ele><time>2026-05-01T17:36:44.999Z</time></trkpt><trkpt lat="44.93071966863542" lon="9.620058120223392"><ele>136.0</ele><time>2026-05-01T17:36:45.999Z</time></trkpt><trkpt lat="44.930863402228795" lon="9.6202068732074"><ele>136.0</ele><time>2026-05-01T17:36:47Z</time></trkpt><trkpt lat="44.93100559963655" lon="9.620354087512624"><ele>135.33333333333334</ele><time>2026-05-01T17:36:48Z</time></trkpt><trkpt lat="44.9311459340476" lon="9.620502048286099"><ele>134.66666666666666</ele><time>2026-05-01T17:36:49Z</time></trkpt><trkpt lat="44.931289631403516" lon="9.620650760109255"><ele>134.0</ele><time>2026-05-01T17:36:50Z</time></trkpt><trkpt lat="44.93143015627526" lon="9.620802170244595"><ele>134.0</ele><time>2026-05-01T17:36:51Z</time></trkpt><trkpt lat="44.931569962650734" lon="9.620956125974606"><ele>134.0</ele><time>2026-05-01T17:36:52Z</time></trkpt><trkpt lat="44.93170630502119" lon="9.621109535251245"><ele>134.0</ele><time>2026-05-01T17:36:53Z</time></trkpt><trkpt lat="44.93184474372048" lon="9.621269027658347"><ele>134.33333333333331</ele><time>2026-05-01T17:36:54Z</time></trkpt><trkpt lat="44.931982146846835" lon="9.621423573361623"><ele>134.66666666666666</ele><time>2026-05-01T17:36:55Z</time></trkpt><trkpt lat="44.932123751565236" lon="9.621583344413589"><ele>135.0</ele><time>2026-05-01T17:36:56Z</time></trkpt><trkpt lat="44.93226391970104" lon="9.621742439228685"><ele>135.0</ele><time>2026-05-01T17:36:57Z</time></trkpt><trkpt lat="44.93240532827164" lon="9.621904856971213"><ele>135.0</ele><time>2026-05-01T17:36:58Z</time></trkpt><trkpt lat="44.93255004799395" lon="9.622070828207535"><ele>135.0</ele><time>2026-05-01T17:36:59Z</time></trkpt><trkpt lat="44.93269438508784" lon="9.622234646198859"><ele>135.0</ele><time>2026-05-01T17:37:00Z</time></trkpt><trkpt lat="44.932839180187884" lon="9.622398961061265"><ele>135.0</ele><time>2026-05-01T17:37:01Z</time></trkpt><trkpt lat="44.932983742449345" lon="9.622561326417419"><ele>135.0</ele><time>2026-05-01T17:37:02Z</time></trkpt><trkpt lat="44.93313133842169" lon="9.62272453032215"><ele>135.66666666666666</ele><time>2026-05-01T17:37:03Z</time></trkpt><trkpt lat="44.9332804995483" lon="9.622889993929162"><ele>136.33333333333331</ele><time>2026-05-01T17:37:04Z</time></trkpt><trkpt lat="44.93343177765838" lon="9.623059906731557"><ele>137.0</ele><time>2026-05-01T17:37:05Z</time></trkpt><trkpt lat="44.93358334762863" lon="9.623229206779895"><ele>136.0</ele><time>2026-05-01T17:37:06Z</time></trkpt><trkpt lat="44.93373568453712" lon="9.623402171814432"><ele>135.0</ele><time>2026-05-01T17:37:07Z</time></trkpt><trkpt lat="44.93388738679453" lon="9.623572226692708"><ele>134.0</ele><time>2026-05-01T17:37:08Z</time></trkpt><trkpt lat="44.93403696675782" lon="9.623743563515674"><ele>134.0</ele><time>2026-05-01T17:37:09Z</time></trkpt><trkpt lat="44.93418507856555" lon="9.62391225106211"><ele>134.0</ele><time>2026-05-01T17:37:10Z</time></trkpt><trkpt lat="44.934335212695316" lon="9.624081190619906"><ele>134.0</ele><time>2026-05-01T17:37:11Z</time></trkpt><trkpt lat="44.93448434644551" lon="9.624247978298927"><ele>133.66666666666666</ele><time>2026-05-01T17:37:12Z</time></trkpt><trkpt lat="44.934632489298515" lon="9.624413184439918"><ele>133.33333333333334</ele><time>2026-05-01T17:37:13Z</time></trkpt><trkpt lat="44.934782134725744" lon="9.624576935999062"><ele>133.0</ele><time>2026-05-01T17:37:14Z</time></trkpt><trkpt lat="44.93493278446324" lon="9.624738889835527"><ele>133.33333333333334</ele><time>2026-05-01T17:37:15Z</time></trkpt><trkpt lat="44.93508231842861" lon="9.624896021002176"><ele>133.66666666666666</ele><time>2026-05-01T17:37:16Z</time></trkpt><trkpt lat="44.93522908277882" lon="9.625052078408618"><ele>134.0</ele><time>2026-05-01T17:37:17Z</time></trkpt><trkpt lat="44.935371857776104" lon="9.625201265338937"><ele>134.0</ele><time>2026-05-01T17:37:18Z</time></trkpt><trkpt lat="44.93550812128971" lon="9.625349116422385"><ele>134.0</ele><time>2026-05-01T17:37:19Z</time></trkpt><trkpt lat="44.93564598131874" lon="9.625495450284465"><ele>134.0</ele><time>2026-05-01T17:37:20Z</time></trkpt><trkpt lat="44.935781703878845" lon="9.625638722284709"><ele>134.33333333333331</ele><time>2026-05-01T17:37:21Z</time></trkpt><trkpt lat="44.9359194048058" lon="9.62578035978594"><ele>134.66666666666666</ele><time>2026-05-01T17:37:22Z</time></trkpt><trkpt lat="44.93605842464992" lon="9.625941104069717"><ele>135.0</ele><time>2026-05-01T17:37:23Z</time></trkpt><trkpt lat="44.93620039652489" lon="9.626087398917607"><ele>135.0</ele><time>2026-05-01T17:37:24Z</time></trkpt><trkpt lat="44.936339432106294" lon="9.626242064461367"><ele>135.0</ele><time>2026-05-01T17:37:25Z</time></trkpt><trkpt lat="44.93647793926659" lon="9.626388443020533"><ele>135.0</ele><time>2026-05-01T17:37:26Z</time></trkpt><trkpt lat="44.93662030634392" lon="9.626538940022753"><ele>134.0</ele><time>2026-05-01T17:37:27Z</time></trkpt><trkpt lat="44.936760671045626" lon="9.626686319594004"><ele>133.0</ele><time>2026-05-01T17:37:28Z</time></trkpt><trkpt lat="44.93689944653148" lon="9.62683788205689"><ele>132.0</ele><time>2026-05-01T17:37:29Z</time></trkpt><trkpt lat="44.93703972825572" lon="9.626988267052832"><ele>132.0</ele><time>2026-05-01T17:37:30Z</time></trkpt><trkpt lat="44.937178866775795" lon="9.627136391752199"><ele>132.0</ele><time>2026-05-01T17:37:31Z</time></trkpt><trkpt lat="44.937318924831445" lon="9.627290854249635"><ele>132.0</ele><time>2026-05-01T17:37:32Z</time></trkpt><trkpt lat="44.9374599085568" lon="9.627441763354176"><ele>132.0</ele><time>2026-05-01T17:37:33Z</time></trkpt><trkpt lat="44.93760210027924" lon="9.627593423996862"><ele>132.0</ele><time>2026-05-01T17:37:34Z</time></trkpt><trkpt lat="44.93774476240477" lon="9.627738637666084"><ele>132.0</ele><time>2026-05-01T17:37:35Z</time></trkpt><trkpt lat="44.937885894951144" lon="9.62788962710468"><ele>132.0</ele><time>2026-05-01T17:37:36Z</time></trkpt><trkpt lat="44.93802641464944" lon="9.628042342190687"><ele>132.0</ele><time>2026-05-01T17:37:37Z</time></trkpt><trkpt lat="44.93816520632877" lon="9.628193144001381"><ele>132.0</ele><time>2026-05-01T17:37:38Z</time></trkpt><trkpt lat="44.93829853409833" lon="9.628347033529048"><ele>131.66666666666666</ele><time>2026-05-01T17:37:39Z</time></trkpt><trkpt lat="44.93842847802839" lon="9.628504743924376"><ele>131.33333333333331</ele><time>2026-05-01T17:37:40Z</time></trkpt><trkpt lat="44.93855344245199" lon="9.628673815628748"><ele>131.0</ele><time>2026-05-01T17:37:41Z</time></trkpt><trkpt lat="44.93867328392339" lon="9.628843018864975"><ele>131.0</ele><time>2026-05-01T17:37:42Z</time></trkpt><trkpt lat="44.9387916295272" lon="9.6290159977142"><ele>131.0</ele><time>2026-05-01T17:37:43Z</time></trkpt><trkpt lat="44.93890455885525" lon="9.629183876163701"><ele>131.0</ele><time>2026-05-01T17:37:44Z</time></trkpt><trkpt lat="44.939011234317235" lon="9.629353152347385"><ele>131.33333333333331</ele><time>2026-05-01T17:37:45Z</time></trkpt><trkpt lat="44.93911623630106" lon="9.629524015021044"><ele>131.66666666666666</ele><time>2026-05-01T17:37:46Z</time></trkpt><trkpt lat="44.93921995660368" lon="9.629690449903396"><ele>132.0</ele><time>2026-05-01T17:37:47Z</time></trkpt><trkpt lat="44.939321426755434" lon="9.629851654590407"><ele>131.5</ele><time>2026-05-01T17:37:48Z</time></trkpt><trkpt lat="44.939412312404606" lon="9.630004022877387"><ele>131.0</ele><time>2026-05-01T17:37:49Z</time></trkpt><trkpt lat="44.939508020073646" lon="9.630160122284313"><ele>130.5</ele><time>2026-05-01T17:37:50Z</time></trkpt><trkpt lat="44.93960283818639" lon="9.63031148302077"><ele>130.0</ele><time>2026-05-01T17:37:51Z</time></trkpt><trkpt lat="44.93969750696105" lon="9.63045253935093"><ele>130.0</ele><time>2026-05-01T17:37:52Z</time></trkpt><trkpt lat="44.93978813185823" lon="9.63058437221185"><ele>130.0</ele><time>2026-05-01T17:37:53Z</time></trkpt><trkpt lat="44.93987409099966" lon="9.63071513738839"><ele>130.0</ele><time>2026-05-01T17:37:54Z</time></trkpt><trkpt lat="44.93995551682056" lon="9.630842131369024"><ele>130.0</ele><time>2026-05-01T17:37:54.999Z</time></trkpt><trkpt lat="44.94003062057492" lon="9.630962897047787"><ele>129.4</ele><time>2026-05-01T17:37:55.999Z</time></trkpt><trkpt lat="44.94011061406766" lon="9.631072041123053"><ele>128.8</ele><time>2026-05-01T17:37:56.999Z</time></trkpt><trkpt lat="44.9401910557877" lon="9.631175843140838"><ele>128.2</ele><time>2026-05-01T17:37:57.999Z</time></trkpt><trkpt lat="44.94027762982497" lon="9.631270079539881"><ele>127.6</ele><time>2026-05-01T17:37:58.999Z</time></trkpt><trkpt lat="44.94036200249845" lon="9.631370584306461"><ele>127.0</ele><time>2026-05-01T17:37:59.999Z</time></trkpt><trkpt lat="44.94045317955241" lon="9.63146823537827"><ele>126.8</ele><time>2026-05-01T17:38:00.999Z</time></trkpt><trkpt lat="44.94054096682824" lon="9.63156115591254"><ele>126.6</ele><time>2026-05-01T17:38:01.999Z</time></trkpt><trkpt lat="44.94062844823641" lon="9.631646826110833"><ele>126.39999999999999</ele><time>2026-05-01T17:38:02.999Z</time></trkpt><trkpt lat="44.94071296513267" lon="9.631731734372632"><ele>126.19999999999999</ele><time>2026-05-01T17:38:03.999Z</time></trkpt><trkpt lat="44.94078990433538" lon="9.631815370733197"><ele>126.0</ele><time>2026-05-01T17:38:04.999Z</time></trkpt><trkpt lat="44.940863963255026" lon="9.63189752439665"><ele>126.0</ele><time>2026-05-01T17:38:05.999Z</time></trkpt><trkpt lat="44.940936991734866" lon="9.631976968752058"><ele>126.0</ele><time>2026-05-01T17:38:06.999Z</time></trkpt><trkpt lat="44.94100121681466" lon="9.632047687002704"><ele>126.0</ele><time>2026-05-01T17:38:07.999Z</time></trkpt><trkpt lat="44.94105799797344" lon="9.632110711118884"><ele>126.0</ele><time>2026-05-01T17:38:08.999Z</time></trkpt><trkpt lat="44.94110863452505" lon="9.632166861688045"><ele>126.0</ele><time>2026-05-01T17:38:09.999Z</time></trkpt><trkpt lat="44.9411938187198" lon="9.632254585695174"><ele>126.0</ele><time>2026-05-01T17:38:11.999Z</time></trkpt><trkpt lat="44.94125347251215" lon="9.632316682359324"><ele>126.0</ele><time>2026-05-01T17:38:13.999Z</time></trkpt><trkpt lat="44.94130540990495" lon="9.632373611555021"><ele>126.0</ele><time>2026-05-01T17:38:15.999Z</time></trkpt><trkpt lat="44.941376147569684" lon="9.63244853989731"><ele>126.0</ele><time>2026-05-01T17:38:26.999Z</time></trkpt><trkpt lat="44.9414296024821" lon="9.63250347771743"><ele>126.0</ele><time>2026-05-01T17:38:27.999Z</time></trkpt><trkpt lat="44.941503265210116" lon="9.632580511722622"><ele>126.0</ele><time>2026-05-01T17:38:28.999Z</time></trkpt><trkpt lat="44.94157846281711" lon="9.6326642865752"><ele>126.0</ele><time>2026-05-01T17:38:29.999Z</time></trkpt><trkpt lat="44.94166052319352" lon="9.63276025481658"><ele>125.25</ele><time>2026-05-01T17:38:30.999Z</time></trkpt><trkpt lat="44.94175786711908" lon="9.632858216272256"><ele>124.5</ele><time>2026-05-01T17:38:31.999Z</time></trkpt><trkpt lat="44.94186255304141" lon="9.632963146685507"><ele>123.75</ele><time>2026-05-01T17:38:32.999Z</time></trkpt><trkpt lat="44.94196289883067" lon="9.633062205312036"><ele>123.0</ele><time>2026-05-01T17:38:33.999Z</time></trkpt><trkpt lat="44.94206453572146" lon="9.633157374676268"><ele>123.0</ele><time>2026-05-01T17:38:34.999Z</time></trkpt><trkpt lat="44.94217112738055" lon="9.633260279749411"><ele>123.0</ele><time>2026-05-01T17:38:35.999Z</time></trkpt><trkpt lat="44.94227591920787" lon="9.633363011026182"><ele>123.0</ele><time>2026-05-01T17:38:36.999Z</time></trkpt><trkpt lat="44.9423870536763" lon="9.633466927917418"><ele>123.0</ele><time>2026-05-01T17:38:37.999Z</time></trkpt><trkpt lat="44.942495380484296" lon="9.633581688835429"><ele>122.5</ele><time>2026-05-01T17:38:38.999Z</time></trkpt><trkpt lat="44.94260628662924" lon="9.633692389088269"><ele>122.0</ele><time>2026-05-01T17:38:39.999Z</time></trkpt><trkpt lat="44.94271823864559" lon="9.633801858620753"><ele>121.5</ele><time>2026-05-01T17:38:40.999Z</time></trkpt><trkpt lat="44.94282333097192" lon="9.63391101386859"><ele>121.0</ele><time>2026-05-01T17:38:41.999Z</time></trkpt><trkpt lat="44.942932892544725" lon="9.634025324626766"><ele>121.0</ele><time>2026-05-01T17:38:42.999Z</time></trkpt><trkpt lat="44.94304545828327" lon="9.634139844766707"><ele>121.0</ele><time>2026-05-01T17:38:43.999Z</time></trkpt><trkpt lat="44.9431664769776" lon="9.63424937556176"><ele>121.0</ele><time>2026-05-01T17:38:44.999Z</time></trkpt><trkpt lat="44.943293922593554" lon="9.634363993184303"><ele>121.0</ele><time>2026-05-01T17:38:45.999Z</time></trkpt><trkpt lat="44.943429339344895" lon="9.634473566284427"><ele>120.66666666666667</ele><time>2026-05-01T17:38:46.999Z</time></trkpt><trkpt lat="44.943569050622706" lon="9.634575905096314"><ele>120.33333333333334</ele><time>2026-05-01T17:38:47.999Z</time></trkpt><trkpt lat="44.94371450753247" lon="9.634677400864232"><ele>120.0</ele><time>2026-05-01T17:38:48.999Z</time></trkpt><trkpt lat="44.94386360546059" lon="9.634780752718713"><ele>120.0</ele><time>2026-05-01T17:38:49.999Z</time></trkpt><trkpt lat="44.94399972874238" lon="9.634874848143776"><ele>120.0</ele><time>2026-05-01T17:38:50.999Z</time></trkpt><trkpt lat="44.944130466325824" lon="9.634963925357791"><ele>120.0</ele><time>2026-05-01T17:38:51.999Z</time></trkpt><trkpt lat="44.944260162645826" lon="9.635051660250902"><ele>120.0</ele><time>2026-05-01T17:38:53Z</time></trkpt><trkpt lat="44.94439307150366" lon="9.63514490630474"><ele>120.33333333333334</ele><time>2026-05-01T17:38:54Z</time></trkpt><trkpt lat="44.94453061380557" lon="9.635248140924961"><ele>120.66666666666667</ele><time>2026-05-01T17:38:55Z</time></trkpt><trkpt lat="44.94467064945083" lon="9.635358028861248"><ele>121.0</ele><time>2026-05-01T17:38:56Z</time></trkpt><trkpt lat="44.944819955634244" lon="9.635469394832112"><ele>121.0</ele><time>2026-05-01T17:38:57Z</time></trkpt><trkpt lat="44.944975500041075" lon="9.635576757568089"><ele>121.0</ele><time>2026-05-01T17:38:58Z</time></trkpt><trkpt lat="44.945136256000886" lon="9.635681808762062"><ele>121.0</ele><time>2026-05-01T17:38:59Z</time></trkpt><trkpt lat="44.94529960830319" lon="9.635790880264187"><ele>121.0</ele><time>2026-05-01T17:39:00Z</time></trkpt><trkpt lat="44.94546691239514" lon="9.635906310587423"><ele>121.0</ele><time>2026-05-01T17:39:01Z</time></trkpt><trkpt lat="44.945635630010685" lon="9.636025676444945"><ele>121.0</ele><time>2026-05-01T17:39:02Z</time></trkpt><trkpt lat="44.94580752466645" lon="9.636147681548831"><ele>121.33333333333334</ele><time>2026-05-01T17:39:03Z</time></trkpt><trkpt lat="44.94598370824794" lon="9.63627320115349"><ele>121.66666666666666</ele><time>2026-05-01T17:39:04Z</time></trkpt><trkpt lat="44.946154426116365" lon="9.636400057640811"><ele>122.0</ele><time>2026-05-01T17:39:05Z</time></trkpt><trkpt lat="44.94632657702057" lon="9.636525263129869"><ele>122.0</ele><time>2026-05-01T17:39:06Z</time></trkpt><trkpt lat="44.946503192114065" lon="9.636650787382637"><ele>122.0</ele><time>2026-05-01T17:39:07Z</time></trkpt><trkpt lat="44.9466815272661" lon="9.636776826826985"><ele>122.0</ele><time>2026-05-01T17:39:08Z</time></trkpt><trkpt lat="44.946858594010884" lon="9.636902583760554"><ele>121.0</ele><time>2026-05-01T17:39:09Z</time></trkpt><trkpt lat="44.94703792192636" lon="9.637030305554726"><ele>120.0</ele><time>2026-05-01T17:39:10Z</time></trkpt><trkpt lat="44.94722498530746" lon="9.637162727201378"><ele>119.0</ele><time>2026-05-01T17:39:11Z</time></trkpt><trkpt lat="44.94742104748084" lon="9.63729983424484"><ele>119.0</ele><time>2026-05-01T17:39:12Z</time></trkpt><trkpt lat="44.947622000941806" lon="9.637440784834492"><ele>119.0</ele><time>2026-05-01T17:39:13Z</time></trkpt><trkpt lat="44.94782607004471" lon="9.637585341815246"><ele>119.0</ele><time>2026-05-01T17:39:14Z</time></trkpt><trkpt lat="44.948036529591334" lon="9.637732506924708"><ele>119.0</ele><time>2026-05-01T17:39:15Z</time></trkpt><trkpt lat="44.948247325747765" lon="9.637884334661525"><ele>119.0</ele><time>2026-05-01T17:39:16Z</time></trkpt><trkpt lat="44.94845987644168" lon="9.63803712837778"><ele>119.0</ele><time>2026-05-01T17:39:17Z</time></trkpt><trkpt lat="44.94867182412042" lon="9.638187234158188"><ele>119.0</ele><time>2026-05-01T17:39:18Z</time></trkpt><trkpt lat="44.94888333298986" lon="9.638336261617397"><ele>119.0</ele><time>2026-05-01T17:39:19Z</time></trkpt><trkpt lat="44.94909499585286" lon="9.638486359327969"><ele>118.5</ele><time>2026-05-01T17:39:20Z</time></trkpt><trkpt lat="44.94930437783216" lon="9.638635209816785"><ele>118.0</ele><time>2026-05-01T17:39:21Z</time></trkpt><trkpt lat="44.949513507547465" lon="9.638779802978368"><ele>118.0</ele><time>2026-05-01T17:39:22Z</time></trkpt><trkpt lat="44.94972117666067" lon="9.638931976141611"><ele>118.0</ele><time>2026-05-01T17:39:23Z</time></trkpt><trkpt lat="44.94993060669466" lon="9.63908690492343"><ele>117.5</ele><time>2026-05-01T17:39:24Z</time></trkpt><trkpt lat="44.9501380546775" lon="9.639247281995234"><ele>117.0</ele><time>2026-05-01T17:39:25Z</time></trkpt><trkpt lat="44.95034669034079" lon="9.63941278201588"><ele>116.5</ele><time>2026-05-01T17:39:26Z</time></trkpt><trkpt lat="44.950556238352426" lon="9.63957943437157"><ele>116.0</ele><time>2026-05-01T17:39:27Z</time></trkpt><trkpt lat="44.95076403781125" lon="9.639752195710846"><ele>115.0</ele><time>2026-05-01T17:39:28Z</time></trkpt><trkpt lat="44.95096985099555" lon="9.639931231309555"><ele>114.0</ele><time>2026-05-01T17:39:29Z</time></trkpt><trkpt lat="44.95116928328857" lon="9.64010962201884"><ele>114.0</ele><time>2026-05-01T17:39:30Z</time></trkpt><trkpt lat="44.951366649275656" lon="9.640291271130275"><ele>114.0</ele><time>2026-05-01T17:39:31Z</time></trkpt><trkpt lat="44.95156116067415" lon="9.64047867610791"><ele>114.0</ele><time>2026-05-01T17:39:32Z</time></trkpt><trkpt lat="44.95175392272984" lon="9.640670326622873"><ele>114.0</ele><time>2026-05-01T17:39:33Z</time></trkpt><trkpt lat="44.95194837365563" lon="9.640860879958504"><ele>114.0</ele><time>2026-05-01T17:39:34Z</time></trkpt><trkpt lat="44.95213967636075" lon="9.641059567743637"><ele>114.0</ele><time>2026-05-01T17:39:35Z</time></trkpt><trkpt lat="44.95233001953667" lon="9.641259879977499"><ele>114.5</ele><time>2026-05-01T17:39:36Z</time></trkpt><trkpt lat="44.95251851539505" lon="9.641464364764857"><ele>115.0</ele><time>2026-05-01T17:39:37Z</time></trkpt><trkpt lat="44.95270402050556" lon="9.641670370333019"><ele>114.5</ele><time>2026-05-01T17:39:38Z</time></trkpt><trkpt lat="44.95288592920377" lon="9.641879559914443"><ele>114.0</ele><time>2026-05-01T17:39:39Z</time></trkpt><trkpt lat="44.95306769405158" lon="9.642091260851206"><ele>114.0</ele><time>2026-05-01T17:39:40Z</time></trkpt><trkpt lat="44.95324371259218" lon="9.642307116217852"><ele>114.0</ele><time>2026-05-01T17:39:41Z</time></trkpt><trkpt lat="44.95342333720446" lon="9.64253852940419"><ele>113.66666666666666</ele><time>2026-05-01T17:39:42Z</time></trkpt><trkpt lat="44.95358610902348" lon="9.64274279582311"><ele>113.33333333333333</ele><time>2026-05-01T17:39:43Z</time></trkpt><trkpt lat="44.95374680216002" lon="9.642967066581974"><ele>113.0</ele><time>2026-05-01T17:39:44Z</time></trkpt><trkpt lat="44.95391927814711" lon="9.643185730027273"><ele>113.0</ele><time>2026-05-01T17:39:45Z</time></trkpt><trkpt lat="44.954091849589624" lon="9.643405433095023"><ele>113.0</ele><time>2026-05-01T17:39:46Z</time></trkpt><trkpt lat="44.95426047443073" lon="9.643630272902746"><ele>111.5</ele><time>2026-05-01T17:39:47Z</time></trkpt><trkpt lat="44.954433149198394" lon="9.64384922283393"><ele>110.0</ele><time>2026-05-01T17:39:48Z</time></trkpt><trkpt lat="44.95460344185644" lon="9.64407338219589"><ele>110.0</ele><time>2026-05-01T17:39:49Z</time></trkpt><trkpt lat="44.954772171434875" lon="9.644296952011087"><ele>110.0</ele><time>2026-05-01T17:39:50Z</time></trkpt><trkpt lat="44.9549383151724" lon="9.644520680857148"><ele>110.0</ele><time>2026-05-01T17:39:51Z</time></trkpt><trkpt lat="44.95510015644018" lon="9.644733309868474"><ele>110.0</ele><time>2026-05-01T17:39:52Z</time></trkpt><trkpt lat="44.95526661876252" lon="9.644947073617919"><ele>110.0</ele><time>2026-05-01T17:39:53Z</time></trkpt><trkpt lat="44.95542917579554" lon="9.64516491907347"><ele>109.5</ele><time>2026-05-01T17:39:54Z</time></trkpt><trkpt lat="44.955602449610495" lon="9.645375987791006"><ele>109.0</ele><time>2026-05-01T17:39:55Z</time></trkpt><trkpt lat="44.95577273807331" lon="9.645583240608286"><ele>108.0</ele><time>2026-05-01T17:39:56Z</time></trkpt><trkpt lat="44.95595472992254" lon="9.645784136828398"><ele>107.0</ele><time>2026-05-01T17:39:57Z</time></trkpt><trkpt lat="44.95614350440766" lon="9.645982205801763"><ele>107.5</ele><time>2026-05-01T17:39:58Z</time></trkpt><trkpt lat="44.95633115088519" lon="9.646171803514706"><ele>108.0</ele><time>2026-05-01T17:39:58.999Z</time></trkpt><trkpt lat="44.95652202822707" lon="9.646349906602364"><ele>107.5</ele><time>2026-05-01T17:39:59.999Z</time></trkpt><trkpt lat="44.95670407412086" lon="9.646546777191109"><ele>107.0</ele><time>2026-05-01T17:40:00.999Z</time></trkpt><trkpt lat="44.95689030457968" lon="9.646735077898942"><ele>107.0</ele><time>2026-05-01T17:40:01.999Z</time></trkpt><trkpt lat="44.95710784018659" lon="9.646844120538333"><ele>107.0</ele><time>2026-05-01T17:40:02.999Z</time></trkpt><trkpt lat="44.95730426210987" lon="9.647003166621406"><ele>107.0</ele><time>2026-05-01T17:40:03.999Z</time></trkpt><trkpt lat="44.95749730383737" lon="9.64714952519347"><ele>107.0</ele><time>2026-05-01T17:40:04.999Z</time></trkpt><trkpt lat="44.957681544820986" lon="9.647297881579869"><ele>107.0</ele><time>2026-05-01T17:40:05.999Z</time></trkpt><trkpt lat="44.95786337879661" lon="9.647441336783892"><ele>106.33333333333333</ele><time>2026-05-01T17:40:06.999Z</time></trkpt><trkpt lat="44.95803587250107" lon="9.647577799841482"><ele>105.66666666666666</ele><time>2026-05-01T17:40:07.999Z</time></trkpt><trkpt lat="44.958205323215374" lon="9.647713467176795"><ele>105.0</ele><time>2026-05-01T17:40:08.999Z</time></trkpt><trkpt lat="44.95837947971324" lon="9.64785336595837"><ele>105.0</ele><time>2026-05-01T17:40:09.999Z</time></trkpt><trkpt lat="44.958551111536856" lon="9.647992442362531"><ele>105.0</ele><time>2026-05-01T17:40:10.999Z</time></trkpt><trkpt lat="44.95872589036244" lon="9.64812909794831"><ele>105.0</ele><time>2026-05-01T17:40:11.999Z</time></trkpt><trkpt lat="44.95889747432587" lon="9.648267133189396"><ele>105.0</ele><time>2026-05-01T17:40:12.999Z</time></trkpt><trkpt lat="44.959080081740574" lon="9.648410626207284"><ele>105.0</ele><time>2026-05-01T17:40:13.999Z</time></trkpt><trkpt lat="44.95924361574002" lon="9.648543560782715"><ele>105.0</ele><time>2026-05-01T17:40:14.999Z</time></trkpt><trkpt lat="44.959414892390626" lon="9.648684054420322"><ele>104.66666666666666</ele><time>2026-05-01T17:40:15.999Z</time></trkpt><trkpt lat="44.95959602923308" lon="9.648825981937309"><ele>104.33333333333333</ele><time>2026-05-01T17:40:16.999Z</time></trkpt><trkpt lat="44.9597628272025" lon="9.648963158796402"><ele>104.0</ele><time>2026-05-01T17:40:17.999Z</time></trkpt><trkpt lat="44.959930150206525" lon="9.649108396011938"><ele>103.33333333333333</ele><time>2026-05-01T17:40:18.999Z</time></trkpt><trkpt lat="44.96010786974415" lon="9.649237946259708"><ele>102.66666666666666</ele><time>2026-05-01T17:40:19.999Z</time></trkpt><trkpt lat="44.960277434929715" lon="9.649368337195911"><ele>102.0</ele><time>2026-05-01T17:40:20.999Z</time></trkpt><trkpt lat="44.96043825157194" lon="9.64949120452642"><ele>102.0</ele><time>2026-05-01T17:40:21.999Z</time></trkpt><trkpt lat="44.96060436947006" lon="9.64962142521945"><ele>102.0</ele><time>2026-05-01T17:40:22.999Z</time></trkpt><trkpt lat="44.96077242329629" lon="9.649752323474146"><ele>102.0</ele><time>2026-05-01T17:40:23.999Z</time></trkpt><trkpt lat="44.96093977341177" lon="9.649883171790947"><ele>101.66666666666666</ele><time>2026-05-01T17:40:24.999Z</time></trkpt><trkpt lat="44.96110562769194" lon="9.650014761606862"><ele>101.33333333333333</ele><time>2026-05-01T17:40:25.999Z</time></trkpt><trkpt lat="44.96127131623896" lon="9.65014465259493"><ele>101.0</ele><time>2026-05-01T17:40:26.999Z</time></trkpt><trkpt lat="44.961435223981404" lon="9.650276212139085"><ele>101.33333333333333</ele><time>2026-05-01T17:40:27.999Z</time></trkpt><trkpt lat="44.96160379756652" lon="9.650410752290387"><ele>101.66666666666666</ele><time>2026-05-01T17:40:28.999Z</time></trkpt><trkpt lat="44.96177873638685" lon="9.650547608731499"><ele>102.0</ele><time>2026-05-01T17:40:29.999Z</time></trkpt><trkpt lat="44.961953008155284" lon="9.65068441293931"><ele>102.0</ele><time>2026-05-01T17:40:30.999Z</time></trkpt><trkpt lat="44.962131721805726" lon="9.65082384624985"><ele>102.0</ele><time>2026-05-01T17:40:31.999Z</time></trkpt><trkpt lat="44.962309720275655" lon="9.650965637963369"><ele>102.0</ele><time>2026-05-01T17:40:32.999Z</time></trkpt><trkpt lat="44.9624891886354" lon="9.651103553935268"><ele>101.66666666666666</ele><time>2026-05-01T17:40:33.999Z</time></trkpt><trkpt lat="44.9626661710121" lon="9.651242169557332"><ele>101.33333333333333</ele><time>2026-05-01T17:40:34.999Z</time></trkpt><trkpt lat="44.96284195294876" lon="9.65138140164358"><ele>101.0</ele><time>2026-05-01T17:40:35.999Z</time></trkpt><trkpt lat="44.96301611151844" lon="9.651521223062204"><ele>101.0</ele><time>2026-05-01T17:40:36.999Z</time></trkpt><trkpt lat="44.9631870571658" lon="9.651660835641643"><ele>101.0</ele><time>2026-05-01T17:40:37.999Z</time></trkpt><trkpt lat="44.96335775743571" lon="9.65179704934582"><ele>101.0</ele><time>2026-05-01T17:40:38.999Z</time></trkpt><trkpt lat="44.96352601365009" lon="9.65193070300745"><ele>101.33333333333333</ele><time>2026-05-01T17:40:39.999Z</time></trkpt><trkpt lat="44.96369420217886" lon="9.65206619775634"><ele>101.66666666666666</ele><time>2026-05-01T17:40:40.999Z</time></trkpt><trkpt lat="44.96386615132222" lon="9.652192370460233"><ele>102.0</ele><time>2026-05-01T17:40:41.999Z</time></trkpt><trkpt lat="44.96403443367686" lon="9.652324590137948"><ele>101.66666666666666</ele><time>2026-05-01T17:40:42.999Z</time></trkpt><trkpt lat="44.96421093663281" lon="9.652456144901672"><ele>101.33333333333333</ele><time>2026-05-01T17:40:43.999Z</time></trkpt><trkpt lat="44.96438815642044" lon="9.652587629825106"><ele>101.0</ele><time>2026-05-01T17:40:44.999Z</time></trkpt><trkpt lat="44.96456789550698" lon="9.652708906921854"><ele>101.0</ele><time>2026-05-01T17:40:45.999Z</time></trkpt><trkpt lat="44.964755148164464" lon="9.652822871068215"><ele>101.0</ele><time>2026-05-01T17:40:46.999Z</time></trkpt><trkpt lat="44.96494130714551" lon="9.652933181931278"><ele>101.0</ele><time>2026-05-01T17:40:47.999Z</time></trkpt><trkpt lat="44.965131225898666" lon="9.653039340056546"><ele>100.66666666666666</ele><time>2026-05-01T17:40:48.999Z</time></trkpt><trkpt lat="44.96532489530793" lon="9.653150120148771"><ele>100.33333333333334</ele><time>2026-05-01T17:40:49.999Z</time></trkpt><trkpt lat="44.96551828690477" lon="9.653253954242055"><ele>100.0</ele><time>2026-05-01T17:40:50.999Z</time></trkpt><trkpt lat="44.96571324232183" lon="9.653354903525951"><ele>99.66666666666667</ele><time>2026-05-01T17:40:51.999Z</time></trkpt><trkpt lat="44.96591170347887" lon="9.653461866393508"><ele>99.33333333333334</ele><time>2026-05-01T17:40:52.999Z</time></trkpt><trkpt lat="44.966110324079295" lon="9.653566662506929"><ele>99.0</ele><time>2026-05-01T17:40:53.999Z</time></trkpt><trkpt lat="44.96631201134511" lon="9.653670652057668"><ele>99.0</ele><time>2026-05-01T17:40:54.999Z</time></trkpt><trkpt lat="44.966510348376" lon="9.653772797477673"><ele>99.0</ele><time>2026-05-01T17:40:55.999Z</time></trkpt><trkpt lat="44.9667127629388" lon="9.65387774600982"><ele>99.0</ele><time>2026-05-01T17:40:56.999Z</time></trkpt><trkpt lat="44.96691822053343" lon="9.653986446252127"><ele>99.0</ele><time>2026-05-01T17:40:57.999Z</time></trkpt><trkpt lat="44.96712850934302" lon="9.654093274354112"><ele>99.0</ele><time>2026-05-01T17:40:59Z</time></trkpt><trkpt lat="44.96734189396524" lon="9.654203729359821"><ele>98.5</ele><time>2026-05-01T17:41:00Z</time></trkpt><trkpt lat="44.96755990709668" lon="9.654315812086244"><ele>98.0</ele><time>2026-05-01T17:41:01Z</time></trkpt><trkpt lat="44.967784553820145" lon="9.654432062407945"><ele>97.5</ele><time>2026-05-01T17:41:02Z</time></trkpt><trkpt lat="44.968012351482166" lon="9.6545496564375"><ele>97.0</ele><time>2026-05-01T17:41:03Z</time></trkpt><trkpt lat="44.96824139055621" lon="9.65466692111672"><ele>97.0</ele><time>2026-05-01T17:41:04Z</time></trkpt><trkpt lat="44.968470694893114" lon="9.65478643164641"><ele>97.0</ele><time>2026-05-01T17:41:05Z</time></trkpt><trkpt lat="44.968700812761746" lon="9.65490416588646"><ele>97.0</ele><time>2026-05-01T17:41:06Z</time></trkpt><trkpt lat="44.96892201242113" lon="9.655018941634603"><ele>97.0</ele><time>2026-05-01T17:41:07Z</time></trkpt><trkpt lat="44.96913812342222" lon="9.65513148691577"><ele>96.5</ele><time>2026-05-01T17:41:08Z</time></trkpt><trkpt lat="44.969355439530865" lon="9.655245265830153"><ele>96.0</ele><time>2026-05-01T17:41:09Z</time></trkpt><trkpt lat="44.96956870619861" lon="9.655357644781454"><ele>96.0</ele><time>2026-05-01T17:41:10Z</time></trkpt><trkpt lat="44.96977841701191" lon="9.655465848253565"><ele>96.0</ele><time>2026-05-01T17:41:11Z</time></trkpt><trkpt lat="44.96998602911368" lon="9.655569802068845"><ele>96.0</ele><time>2026-05-01T17:41:12Z</time></trkpt><trkpt lat="44.970182390595326" lon="9.655671252096658"><ele>96.0</ele><time>2026-05-01T17:41:13Z</time></trkpt><trkpt lat="44.97036804788669" lon="9.655771451406522"><ele>96.0</ele><time>2026-05-01T17:41:14Z</time></trkpt><trkpt lat="44.970549215734934" lon="9.6558650059674"><ele>96.0</ele><time>2026-05-01T17:41:15Z</time></trkpt><trkpt lat="44.97073291739423" lon="9.655961873812945"><ele>96.0</ele><time>2026-05-01T17:41:16Z</time></trkpt><trkpt lat="44.97091459942625" lon="9.656056993622197"><ele>96.0</ele><time>2026-05-01T17:41:17Z</time></trkpt><trkpt lat="44.971092801376685" lon="9.656150466405748"><ele>96.0</ele><time>2026-05-01T17:41:18Z</time></trkpt><trkpt lat="44.97126975193788" lon="9.656241018319257"><ele>96.0</ele><time>2026-05-01T17:41:19Z</time></trkpt><trkpt lat="44.97144421202808" lon="9.656328184242227"><ele>96.0</ele><time>2026-05-01T17:41:20Z</time></trkpt><trkpt lat="44.971615760084916" lon="9.656415094756053"><ele>96.0</ele><time>2026-05-01T17:41:21Z</time></trkpt><trkpt lat="44.971784525835886" lon="9.656501582583557"><ele>96.0</ele><time>2026-05-01T17:41:22Z</time></trkpt><trkpt lat="44.97193586212106" lon="9.656581080102363"><ele>96.0</ele><time>2026-05-01T17:41:23Z</time></trkpt><trkpt lat="44.97208761551174" lon="9.656661190520541"><ele>96.0</ele><time>2026-05-01T17:41:24Z</time></trkpt><trkpt lat="44.97223602255222" lon="9.656739416992517"><ele>96.0</ele><time>2026-05-01T17:41:25Z</time></trkpt><trkpt lat="44.972393593904975" lon="9.656820181304518"><ele>96.0</ele><time>2026-05-01T17:41:26Z</time></trkpt><trkpt lat="44.97255751766883" lon="9.656907430782125"><ele>96.0</ele><time>2026-05-01T17:41:27Z</time></trkpt><trkpt lat="44.97272673457671" lon="9.656994433611704"><ele>95.66666666666667</ele><time>2026-05-01T17:41:28Z</time></trkpt><trkpt lat="44.97290190097887" lon="9.657084226992284"><ele>95.33333333333334</ele><time>2026-05-01T17:41:29Z</time></trkpt><trkpt lat="44.97307497781983" lon="9.657172659313833"><ele>95.0</ele><time>2026-05-01T17:41:30Z</time></trkpt><trkpt lat="44.973246949476675" lon="9.65726130581093"><ele>94.33333333333334</ele><time>2026-05-01T17:41:31Z</time></trkpt><trkpt lat="44.973422195088425" lon="9.657351072082948"><ele>93.66666666666667</ele><time>2026-05-01T17:41:32Z</time></trkpt><trkpt lat="44.973599334238436" lon="9.657442684289574"><ele>93.0</ele><time>2026-05-01T17:41:33Z</time></trkpt><trkpt lat="44.97377403307457" lon="9.65753433413835"><ele>93.0</ele><time>2026-05-01T17:41:34Z</time></trkpt><trkpt lat="44.97394908119557" lon="9.657623823071322"><ele>93.0</ele><time>2026-05-01T17:41:35Z</time></trkpt><trkpt lat="44.97412936915195" lon="9.657716313316072"><ele>93.0</ele><time>2026-05-01T17:41:36Z</time></trkpt><trkpt lat="44.97431151244664" lon="9.657808191979584"><ele>93.33333333333333</ele><time>2026-05-01T17:41:37Z</time></trkpt><trkpt lat="44.97449380666794" lon="9.657904093269476"><ele>93.66666666666666</ele><time>2026-05-01T17:41:38Z</time></trkpt><trkpt lat="44.974678112282604" lon="9.657996901033961"><ele>94.0</ele><time>2026-05-01T17:41:39Z</time></trkpt><trkpt lat="44.97486635730194" lon="9.658093736816662"><ele>93.66666666666666</ele><time>2026-05-01T17:41:40Z</time></trkpt><trkpt lat="44.97505561161271" lon="9.65818918415608"><ele>93.33333333333333</ele><time>2026-05-01T17:41:41Z</time></trkpt><trkpt lat="44.97524887753735" lon="9.65828426034421"><ele>93.0</ele><time>2026-05-01T17:41:42Z</time></trkpt><trkpt lat="44.9754491680534" lon="9.658378947255848"><ele>93.0</ele><time>2026-05-01T17:41:43Z</time></trkpt><trkpt lat="44.97566136499323" lon="9.658466213269595"><ele>93.0</ele><time>2026-05-01T17:41:44Z</time></trkpt><trkpt lat="44.97588226123129" lon="9.658550445968698"><ele>92.5</ele><time>2026-05-01T17:41:45Z</time></trkpt><trkpt lat="44.97611607503306" lon="9.658623658869061"><ele>92.0</ele><time>2026-05-01T17:41:46Z</time></trkpt><trkpt lat="44.976358066909626" lon="9.658691047080463"><ele>92.0</ele><time>2026-05-01T17:41:47Z</time></trkpt><trkpt lat="44.97661039414346" lon="9.658757700523772"><ele>92.0</ele><time>2026-05-01T17:41:48Z</time></trkpt><trkpt lat="44.976862328692825" lon="9.658831734334234"><ele>91.5</ele><time>2026-05-01T17:41:49Z</time></trkpt><trkpt lat="44.97712450071497" lon="9.65890614658068"><ele>91.0</ele><time>2026-05-01T17:41:49.999Z</time></trkpt><trkpt lat="44.9773818743558" lon="9.658981520842152"><ele>90.5</ele><time>2026-05-01T17:41:50.999Z</time></trkpt><trkpt lat="44.977640540737816" lon="9.659058264333256"><ele>90.0</ele><time>2026-05-01T17:41:51.999Z</time></trkpt><trkpt lat="44.97790528754931" lon="9.659125487561996"><ele>90.0</ele><time>2026-05-01T17:41:52.999Z</time></trkpt><trkpt lat="44.97816825787576" lon="9.65919659985268"><ele>90.0</ele><time>2026-05-01T17:41:53.999Z</time></trkpt><trkpt lat="44.97843036697291" lon="9.65926606790055"><ele>91.0</ele><time>2026-05-01T17:41:54.999Z</time></trkpt><trkpt lat="44.97869424145197" lon="9.659338112565026"><ele>92.0</ele><time>2026-05-01T17:41:55.999Z</time></trkpt><trkpt lat="44.978960271670935" lon="9.659409387195943"><ele>90.5</ele><time>2026-05-01T17:41:56.999Z</time></trkpt><trkpt lat="44.97922631495347" lon="9.659483667493937"><ele>89.0</ele><time>2026-05-01T17:41:57.999Z</time></trkpt><trkpt lat="44.979493961865494" lon="9.659556941278591"><ele>89.0</ele><time>2026-05-01T17:41:58.999Z</time></trkpt><trkpt lat="44.97975995848837" lon="9.659630000940364"><ele>89.0</ele><time>2026-05-01T17:41:59.999Z</time></trkpt><trkpt lat="44.98002628106053" lon="9.659702422663552"><ele>89.0</ele><time>2026-05-01T17:42:00.999Z</time></trkpt><trkpt lat="44.98029260535263" lon="9.659772619672276"><ele>89.0</ele><time>2026-05-01T17:42:01.999Z</time></trkpt><trkpt lat="44.98055868139355" lon="9.659842876547295"><ele>89.0</ele><time>2026-05-01T17:42:02.999Z</time></trkpt><trkpt lat="44.980824617212626" lon="9.6599139558025"><ele>89.0</ele><time>2026-05-01T17:42:03.999Z</time></trkpt><trkpt lat="44.98108919771027" lon="9.659984840883183"><ele>89.0</ele><time>2026-05-01T17:42:04.999Z</time></trkpt><trkpt lat="44.981352629035875" lon="9.660056282530297"><ele>89.0</ele><time>2026-05-01T17:42:05.999Z</time></trkpt><trkpt lat="44.98161067454014" lon="9.660127303576523"><ele>89.0</ele><time>2026-05-01T17:42:06.999Z</time></trkpt><trkpt lat="44.981871419992764" lon="9.6602037122982"><ele>89.0</ele><time>2026-05-01T17:42:07.999Z</time></trkpt><trkpt lat="44.982127991602155" lon="9.660273774906116"><ele>89.0</ele><time>2026-05-01T17:42:08.999Z</time></trkpt><trkpt lat="44.98238528154444" lon="9.660349794178302"><ele>89.0</ele><time>2026-05-01T17:42:09.999Z</time></trkpt><trkpt lat="44.98263373182965" lon="9.660423657470753"><ele>89.0</ele><time>2026-05-01T17:42:10.999Z</time></trkpt><trkpt lat="44.982873299827006" lon="9.660489578378577"><ele>89.0</ele><time>2026-05-01T17:42:11.999Z</time></trkpt><trkpt lat="44.983100091930396" lon="9.66055102266895"><ele>89.0</ele><time>2026-05-01T17:42:12.999Z</time></trkpt><trkpt lat="44.983315013938395" lon="9.660609407416901"><ele>89.0</ele><time>2026-05-01T17:42:13.999Z</time></trkpt><trkpt lat="44.98353044454649" lon="9.660675663384994"><ele>89.0</ele><time>2026-05-01T17:42:14.999Z</time></trkpt><trkpt lat="44.98374824273" lon="9.660739762397583"><ele>88.66666666666667</ele><time>2026-05-01T17:42:15.999Z</time></trkpt><trkpt lat="44.98396393632667" lon="9.660800809205337"><ele>88.33333333333333</ele><time>2026-05-01T17:42:16.999Z</time></trkpt><trkpt lat="44.98417906226968" lon="9.660861268736431"><ele>88.0</ele><time>2026-05-01T17:42:17.999Z</time></trkpt><trkpt lat="44.98439387570711" lon="9.660922178868969"><ele>88.0</ele><time>2026-05-01T17:42:18.999Z</time></trkpt><trkpt lat="44.984604866435234" lon="9.660977917919846"><ele>88.0</ele><time>2026-05-01T17:42:19.999Z</time></trkpt><trkpt lat="44.98481769174619" lon="9.661035874293944"><ele>88.0</ele><time>2026-05-01T17:42:20.999Z</time></trkpt><trkpt lat="44.98503196363251" lon="9.661097837186999"><ele>87.66666666666666</ele><time>2026-05-01T17:42:21.999Z</time></trkpt><trkpt lat="44.985245030150516" lon="9.661157846572502"><ele>87.33333333333333</ele><time>2026-05-01T17:42:22.999Z</time></trkpt><trkpt lat="44.9854584013033" lon="9.661218833527297"><ele>87.0</ele><time>2026-05-01T17:42:23.999Z</time></trkpt><trkpt lat="44.98567146698671" lon="9.661285796930864"><ele>87.0</ele><time>2026-05-01T17:42:24.999Z</time></trkpt><trkpt lat="44.98588461737174" lon="9.661363141465797"><ele>87.0</ele><time>2026-05-01T17:42:25.999Z</time></trkpt><trkpt lat="44.986095003534636" lon="9.661450048691707"><ele>87.0</ele><time>2026-05-01T17:42:26.999Z</time></trkpt><trkpt lat="44.98630379889404" lon="9.661550932679381"><ele>87.0</ele><time>2026-05-01T17:42:27.999Z</time></trkpt><trkpt lat="44.986511558995524" lon="9.661662011324973"><ele>87.0</ele><time>2026-05-01T17:42:28.999Z</time></trkpt><trkpt lat="44.986722733569664" lon="9.661778365045533"><ele>87.0</ele><time>2026-05-01T17:42:29.999Z</time></trkpt><trkpt lat="44.98693264105752" lon="9.6618888889847"><ele>86.0</ele><time>2026-05-01T17:42:30.999Z</time></trkpt><trkpt lat="44.98714325445321" lon="9.661998113519372"><ele>85.0</ele><time>2026-05-01T17:42:31.999Z</time></trkpt><trkpt lat="44.98735595741429" lon="9.662111958080983"><ele>85.0</ele><time>2026-05-01T17:42:32.999Z</time></trkpt><trkpt lat="44.98756582207718" lon="9.662221569653706"><ele>85.0</ele><time>2026-05-01T17:42:33.999Z</time></trkpt><trkpt lat="44.9877736437308" lon="9.662335271208459"><ele>85.0</ele><time>2026-05-01T17:42:34.999Z</time></trkpt><trkpt lat="44.98798508766189" lon="9.662449740712647"><ele>85.0</ele><time>2026-05-01T17:42:35.999Z</time></trkpt><trkpt lat="44.988195837017635" lon="9.66256284239599"><ele>85.0</ele><time>2026-05-01T17:42:36.999Z</time></trkpt><trkpt lat="44.988408491723014" lon="9.662675012256761"><ele>84.5</ele><time>2026-05-01T17:42:37.999Z</time></trkpt><trkpt lat="44.988624046641114" lon="9.662783735541487"><ele>84.0</ele><time>2026-05-01T17:42:38.999Z</time></trkpt><trkpt lat="44.988841193917544" lon="9.662890810504315"><ele>84.0</ele><time>2026-05-01T17:42:39.999Z</time></trkpt><trkpt lat="44.98905457795103" lon="9.662984530212038"><ele>84.0</ele><time>2026-05-01T17:42:40.999Z</time></trkpt><trkpt lat="44.989267703874496" lon="9.66307039192248"><ele>84.0</ele><time>2026-05-01T17:42:41.999Z</time></trkpt><trkpt lat="44.98947483895439" lon="9.663146921774034"><ele>83.33333333333333</ele><time>2026-05-01T17:42:42.999Z</time></trkpt><trkpt lat="44.98967918993966" lon="9.663221642053987"><ele>82.66666666666666</ele><time>2026-05-01T17:42:43.999Z</time></trkpt><trkpt lat="44.989880092306606" lon="9.663296141805194"><ele>82.0</ele><time>2026-05-01T17:42:44.999Z</time></trkpt><trkpt lat="44.990075777521916" lon="9.66336604591851"><ele>82.0</ele><time>2026-05-01T17:42:45.999Z</time></trkpt><trkpt lat="44.99027134109728" lon="9.66343825320481"><ele>82.0</ele><time>2026-05-01T17:42:46.999Z</time></trkpt><trkpt lat="44.990465105737286" lon="9.663512830181942"><ele>82.0</ele><time>2026-05-01T17:42:47.999Z</time></trkpt><trkpt lat="44.99065661387638" lon="9.663584628654938"><ele>83.0</ele><time>2026-05-01T17:42:48.999Z</time></trkpt><trkpt lat="44.990843084906864" lon="9.663655205853066"><ele>84.0</ele><time>2026-05-01T17:42:49.999Z</time></trkpt><trkpt lat="44.991028562690445" lon="9.663722723623078"><ele>85.0</ele><time>2026-05-01T17:42:50.999Z</time></trkpt><trkpt lat="44.991216128770205" lon="9.663790469305301"><ele>85.0</ele><time>2026-05-01T17:42:51.999Z</time></trkpt><trkpt lat="44.99140256593316" lon="9.66385908376864"><ele>85.0</ele><time>2026-05-01T17:42:52.999Z</time></trkpt><trkpt lat="44.99158705475256" lon="9.663924305402379"><ele>85.0</ele><time>2026-05-01T17:42:53.999Z</time></trkpt><trkpt lat="44.9917720369262" lon="9.663988080361936"><ele>85.0</ele><time>2026-05-01T17:42:54.999Z</time></trkpt><trkpt lat="44.99195338460236" lon="9.664053665328066"><ele>85.0</ele><time>2026-05-01T17:42:55.999Z</time></trkpt><trkpt lat="44.99213888968843" lon="9.664120299715366"><ele>85.0</ele><time>2026-05-01T17:42:56.999Z</time></trkpt><trkpt lat="44.99232130015146" lon="9.664186062328834"><ele>85.0</ele><time>2026-05-01T17:42:57.999Z</time></trkpt><trkpt lat="44.99250921538268" lon="9.664254512751157"><ele>85.0</ele><time>2026-05-01T17:42:58.999Z</time></trkpt><trkpt lat="44.99270030516591" lon="9.66432503046471"><ele>85.0</ele><time>2026-05-01T17:42:59.999Z</time></trkpt><trkpt lat="44.99289273044104" lon="9.664393984457256"><ele>85.0</ele><time>2026-05-01T17:43:00.999Z</time></trkpt><trkpt lat="44.99308380039101" lon="9.664468543232518"><ele>85.0</ele><time>2026-05-01T17:43:01.999Z</time></trkpt><trkpt lat="44.99327543522176" lon="9.664545705822263"><ele>85.0</ele><time>2026-05-01T17:43:02.999Z</time></trkpt><trkpt lat="44.99345424383023" lon="9.664624959215908"><ele>85.0</ele><time>2026-05-01T17:43:03.999Z</time></trkpt><trkpt lat="44.993623537153326" lon="9.664702566472174"><ele>85.0</ele><time>2026-05-01T17:43:05Z</time></trkpt><trkpt lat="44.99378236386122" lon="9.664777692497124"><ele>85.0</ele><time>2026-05-01T17:43:06Z</time></trkpt><trkpt lat="44.993934346618815" lon="9.664850321911437"><ele>85.0</ele><time>2026-05-01T17:43:07Z</time></trkpt><trkpt lat="44.99408623011126" lon="9.664920820955102"><ele>85.0</ele><time>2026-05-01T17:43:08Z</time></trkpt><trkpt lat="44.99423823933183" lon="9.664992600072434"><ele>85.0</ele><time>2026-05-01T17:43:09Z</time></trkpt><trkpt lat="44.99438717013842" lon="9.665059164205658"><ele>85.0</ele><time>2026-05-01T17:43:10Z</time></trkpt><trkpt lat="44.99453558725115" lon="9.66512726840443"><ele>85.0</ele><time>2026-05-01T17:43:11Z</time></trkpt><trkpt lat="44.994677061313325" lon="9.665188476834984"><ele>85.0</ele><time>2026-05-01T17:43:12Z</time></trkpt><trkpt lat="44.994817410527176" lon="9.665251699637691"><ele>84.75</ele><time>2026-05-01T17:43:13Z</time></trkpt><trkpt lat="44.99495754454473" lon="9.665314815011014"><ele>84.5</ele><time>2026-05-01T17:43:14Z</time></trkpt><trkpt lat="44.99509756852744" lon="9.665377985549055"><ele>84.25</ele><time>2026-05-01T17:43:15Z</time></trkpt><trkpt lat="44.99523518184349" lon="9.665438374781136"><ele>84.0</ele><time>2026-05-01T17:43:16Z</time></trkpt><trkpt lat="44.99537698780335" lon="9.665497000910456"><ele>84.0</ele><time>2026-05-01T17:43:17Z</time></trkpt><trkpt lat="44.99552148622981" lon="9.665556584231112"><ele>84.0</ele><time>2026-05-01T17:43:18Z</time></trkpt><trkpt lat="44.99566012158148" lon="9.66560427178595"><ele>84.0</ele><time>2026-05-01T17:43:19Z</time></trkpt><trkpt lat="44.99579833305661" lon="9.665655205212296"><ele>84.0</ele><time>2026-05-01T17:43:20Z</time></trkpt><trkpt lat="44.99593107252411" lon="9.665703283718658"><ele>84.25</ele><time>2026-05-01T17:43:21Z</time></trkpt><trkpt lat="44.99605769647263" lon="9.665756476125718"><ele>84.5</ele><time>2026-05-01T17:43:22Z</time></trkpt><trkpt lat="44.99617815352201" lon="9.665816076120436"><ele>84.75</ele><time>2026-05-01T17:43:23Z</time></trkpt><trkpt lat="44.99628909105148" lon="9.665871778109015"><ele>85.0</ele><time>2026-05-01T17:43:24Z</time></trkpt><trkpt lat="44.99639359195509" lon="9.665926241074752"><ele>85.0</ele><time>2026-05-01T17:43:25Z</time></trkpt><trkpt lat="44.9965027661549" lon="9.665986036924076"><ele>85.0</ele><time>2026-05-01T17:43:26Z</time></trkpt><trkpt lat="44.996613375489574" lon="9.666041085501105"><ele>85.0</ele><time>2026-05-01T17:43:27Z</time></trkpt><trkpt lat="44.996725856107346" lon="9.666101792563245"><ele>85.0</ele><time>2026-05-01T17:43:28Z</time></trkpt><trkpt lat="44.99683695281116" lon="9.66615859402236"><ele>84.5</ele><time>2026-05-01T17:43:29Z</time></trkpt><trkpt lat="44.996942652817914" lon="9.66621908777926"><ele>84.0</ele><time>2026-05-01T17:43:30Z</time></trkpt><trkpt lat="44.997044236804655" lon="9.66627294229772"><ele>83.5</ele><time>2026-05-01T17:43:31Z</time></trkpt><trkpt lat="44.99714963830857" lon="9.666329000696283"><ele>83.0</ele><time>2026-05-01T17:43:32Z</time></trkpt><trkpt lat="44.99726031080931" lon="9.666392142090968"><ele>83.0</ele><time>2026-05-01T17:43:33Z</time></trkpt><trkpt lat="44.997371704885914" lon="9.666460875970756"><ele>83.0</ele><time>2026-05-01T17:43:34Z</time></trkpt><trkpt lat="44.99748911290027" lon="9.66653499854793"><ele>83.0</ele><time>2026-05-01T17:43:35Z</time></trkpt><trkpt lat="44.99761006881902" lon="9.666610932833075"><ele>83.0</ele><time>2026-05-01T17:43:36Z</time></trkpt><trkpt lat="44.997735794318515" lon="9.66669089627804"><ele>82.75</ele><time>2026-05-01T17:43:37Z</time></trkpt><trkpt lat="44.99786632855583" lon="9.666771708658535"><ele>82.5</ele><time>2026-05-01T17:43:38Z</time></trkpt><trkpt lat="44.998000003013765" lon="9.66685127617506"><ele>82.25</ele><time>2026-05-01T17:43:39Z</time></trkpt><trkpt lat="44.998134273344654" lon="9.666928893182693"><ele>82.0</ele><time>2026-05-01T17:43:40Z</time></trkpt><trkpt lat="44.99826544988436" lon="9.66700173121138"><ele>81.5</ele><time>2026-05-01T17:43:41Z</time></trkpt><trkpt lat="44.998395095652036" lon="9.667069298259571"><ele>81.0</ele><time>2026-05-01T17:43:42Z</time></trkpt><trkpt lat="44.99852460369974" lon="9.667134062568739"><ele>80.5</ele><time>2026-05-01T17:43:43Z</time></trkpt><trkpt lat="44.99865998204698" lon="9.667197567667923"><ele>80.0</ele><time>2026-05-01T17:43:44Z</time></trkpt><trkpt lat="44.99879776123139" lon="9.667264098095092"><ele>80.0</ele><time>2026-05-01T17:43:45Z</time></trkpt><trkpt lat="44.99893416208141" lon="9.667335463382496"><ele>80.0</ele><time>2026-05-01T17:43:46Z</time></trkpt><trkpt lat="44.99907432769547" lon="9.667404276191416"><ele>80.0</ele><time>2026-05-01T17:43:47Z</time></trkpt><trkpt lat="44.999217603456465" lon="9.667474893060119"><ele>80.0</ele><time>2026-05-01T17:43:48Z</time></trkpt><trkpt lat="44.99936203409201" lon="9.667546124614326"><ele>79.66666666666667</ele><time>2026-05-01T17:43:49Z</time></trkpt><trkpt lat="44.99950821202661" lon="9.667616604267746"><ele>79.33333333333333</ele><time>2026-05-01T17:43:50Z</time></trkpt><trkpt lat="44.999652851512636" lon="9.6676907400402"><ele>79.0</ele><time>2026-05-01T17:43:51Z</time></trkpt><trkpt lat="44.99979215813413" lon="9.667757067375332"><ele>79.25</ele><time>2026-05-01T17:43:52Z</time></trkpt><trkpt lat="44.99993332910411" lon="9.667823191400032"><ele>79.5</ele><time>2026-05-01T17:43:53Z</time></trkpt><trkpt lat="45.0000707579418" lon="9.66788815223847"><ele>79.75</ele><time>2026-05-01T17:43:54Z</time></trkpt><trkpt lat="45.000210141578435" lon="9.667951981916039"><ele>80.0</ele><time>2026-05-01T17:43:55Z</time></trkpt><trkpt lat="45.00035580873624" lon="9.668022337747342"><ele>80.0</ele><time>2026-05-01T17:43:56Z</time></trkpt><trkpt lat="45.000500200440385" lon="9.668090439202237"><ele>80.0</ele><time>2026-05-01T17:43:57Z</time></trkpt><trkpt lat="45.000650923541215" lon="9.668163819599616"><ele>80.0</ele><time>2026-05-01T17:43:58Z</time></trkpt><trkpt lat="45.00080087539618" lon="9.668237978611398"><ele>80.0</ele><time>2026-05-01T17:43:59Z</time></trkpt><trkpt lat="45.000951437430714" lon="9.668312638415662"><ele>80.0</ele><time>2026-05-01T17:44:00Z</time></trkpt><trkpt lat="45.00110773107474" lon="9.66839067935951"><ele>80.0</ele><time>2026-05-01T17:44:01Z</time></trkpt><trkpt lat="45.00126142066767" lon="9.668467507949115"><ele>80.0</ele><time>2026-05-01T17:44:02Z</time></trkpt><trkpt lat="45.001416007844995" lon="9.668543629774826"><ele>80.0</ele><time>2026-05-01T17:44:03Z</time></trkpt><trkpt lat="45.00157301843183" lon="9.668619052413788"><ele>80.0</ele><time>2026-05-01T17:44:04Z</time></trkpt><trkpt lat="45.001733400366334" lon="9.668694346364129"><ele>80.33333333333334</ele><time>2026-05-01T17:44:05Z</time></trkpt><trkpt lat="45.00189446529439" lon="9.668773634559182"><ele>80.66666666666667</ele><time>2026-05-01T17:44:06Z</time></trkpt><trkpt lat="45.00205503670795" lon="9.668854212375521"><ele>81.0</ele><time>2026-05-01T17:44:07Z</time></trkpt><trkpt lat="45.00220900423897" lon="9.668938890216358"><ele>81.0</ele><time>2026-05-01T17:44:08Z</time></trkpt><trkpt lat="45.00235646188485" lon="9.669012732998894"><ele>81.0</ele><time>2026-05-01T17:44:09Z</time></trkpt><trkpt lat="45.002495740503136" lon="9.669081143819625"><ele>81.0</ele><time>2026-05-01T17:44:10Z</time></trkpt><trkpt lat="45.00263072772276" lon="9.66914162006892"><ele>81.0</ele><time>2026-05-01T17:44:11Z</time></trkpt><trkpt lat="45.00276016682776" lon="9.669203026561524"><ele>80.75</ele><time>2026-05-01T17:44:12Z</time></trkpt><trkpt lat="45.00288048668364" lon="9.669265434958248"><ele>80.5</ele><time>2026-05-01T17:44:12.999Z</time></trkpt><trkpt lat="45.00299623578619" lon="9.66932700832279"><ele>80.25</ele><time>2026-05-01T17:44:13.999Z</time></trkpt><trkpt lat="45.00310955307226" lon="9.66938905975956"><ele>80.0</ele><time>2026-05-01T17:44:14.999Z</time></trkpt><trkpt lat="45.00323300160872" lon="9.669456612469322"><ele>79.75</ele><time>2026-05-01T17:44:15.999Z</time></trkpt><trkpt lat="45.003357557090794" lon="9.66952447085114"><ele>79.5</ele><time>2026-05-01T17:44:16.999Z</time></trkpt><trkpt lat="45.00349775711796" lon="9.669556517426233"><ele>79.25</ele><time>2026-05-01T17:44:17.999Z</time></trkpt><trkpt lat="45.00363374857243" lon="9.669611623445507"><ele>79.0</ele><time>2026-05-01T17:44:18.999Z</time></trkpt><trkpt lat="45.00376952345184" lon="9.669675758906372"><ele>79.0</ele><time>2026-05-01T17:44:19.999Z</time></trkpt><trkpt lat="45.00391154362084" lon="9.66974462390739"><ele>79.0</ele><time>2026-05-01T17:44:20.999Z</time></trkpt><trkpt lat="45.004051022971076" lon="9.669814455401731"><ele>79.0</ele><time>2026-05-01T17:44:21.999Z</time></trkpt><trkpt lat="45.00418840660748" lon="9.669883001686873"><ele>79.0</ele><time>2026-05-01T17:44:22.999Z</time></trkpt><trkpt lat="45.00432610268322" lon="9.669953481113922"><ele>79.0</ele><time>2026-05-01T17:44:23.999Z</time></trkpt><trkpt lat="45.00446702915365" lon="9.670024091187203"><ele>79.0</ele><time>2026-05-01T17:44:24.999Z</time></trkpt><trkpt lat="45.00461006240557" lon="9.670096225823091"><ele>79.0</ele><time>2026-05-01T17:44:25.999Z</time></trkpt><trkpt lat="45.00475459188728" lon="9.670167385509652"><ele>79.0</ele><time>2026-05-01T17:44:26.999Z</time></trkpt><trkpt lat="45.004898556362186" lon="9.670238039248057"><ele>79.0</ele><time>2026-05-01T17:44:27.999Z</time></trkpt><trkpt lat="45.005042692160984" lon="9.670312134152482"><ele>79.0</ele><time>2026-05-01T17:44:28.999Z</time></trkpt><trkpt lat="45.00518582208007" lon="9.670383555276018"><ele>78.33333333333333</ele><time>2026-05-01T17:44:29.999Z</time></trkpt><trkpt lat="45.005325664503985" lon="9.670453677303477"><ele>77.66666666666667</ele><time>2026-05-01T17:44:30.999Z</time></trkpt><trkpt lat="45.00547215408848" lon="9.670522697467403"><ele>77.0</ele><time>2026-05-01T17:44:31.999Z</time></trkpt><trkpt lat="45.00561949092594" lon="9.670590835702296"><ele>77.0</ele><time>2026-05-01T17:44:32.999Z</time></trkpt><trkpt lat="45.00576489166739" lon="9.670657811924896"><ele>77.0</ele><time>2026-05-01T17:44:33.999Z</time></trkpt><trkpt lat="45.00591594389661" lon="9.670726451901317"><ele>77.0</ele><time>2026-05-01T17:44:34.999Z</time></trkpt><trkpt lat="45.00606749614508" lon="9.670792724530985"><ele>77.0</ele><time>2026-05-01T17:44:35.999Z</time></trkpt><trkpt lat="45.006219222727466" lon="9.670860744218958"><ele>77.0</ele><time>2026-05-01T17:44:36.999Z</time></trkpt><trkpt lat="45.006372581983356" lon="9.670929136170065"><ele>77.0</ele><time>2026-05-01T17:44:37.999Z</time></trkpt><trkpt lat="45.00652907642784" lon="9.670995804443258"><ele>77.0</ele><time>2026-05-01T17:44:38.999Z</time></trkpt><trkpt lat="45.00668573247933" lon="9.671064742468817"><ele>77.0</ele><time>2026-05-01T17:44:39.999Z</time></trkpt><trkpt lat="45.00684294320251" lon="9.67113189742508"><ele>77.0</ele><time>2026-05-01T17:44:40.999Z</time></trkpt><trkpt lat="45.007000900169075" lon="9.67120047275867"><ele>77.0</ele><time>2026-05-01T17:44:41.999Z</time></trkpt><trkpt lat="45.00715488355715" lon="9.671270207618422"><ele>77.0</ele><time>2026-05-01T17:44:42.999Z</time></trkpt><trkpt lat="45.00731105813479" lon="9.671340423024246"><ele>77.0</ele><time>2026-05-01T17:44:43.999Z</time></trkpt><trkpt lat="45.007465647746244" lon="9.671406818358793"><ele>77.0</ele><time>2026-05-01T17:44:44.999Z</time></trkpt><trkpt lat="45.007620468515235" lon="9.671476720339681"><ele>77.0</ele><time>2026-05-01T17:44:45.999Z</time></trkpt><trkpt lat="45.00777235595639" lon="9.671548988999312"><ele>77.0</ele><time>2026-05-01T17:44:46.999Z</time></trkpt><trkpt lat="45.00792076676154" lon="9.67161951714742"><ele>77.0</ele><time>2026-05-01T17:44:47.999Z</time></trkpt><trkpt lat="45.00807009498944" lon="9.67168907027826"><ele>77.0</ele><time>2026-05-01T17:44:48.999Z</time></trkpt><trkpt lat="45.008222409237355" lon="9.671760373467656"><ele>77.0</ele><time>2026-05-01T17:44:49.999Z</time></trkpt><trkpt lat="45.00837124796527" lon="9.671833645523023"><ele>77.0</ele><time>2026-05-01T17:44:50.999Z</time></trkpt><trkpt lat="45.008518088838464" lon="9.671909288578572"><ele>77.0</ele><time>2026-05-01T17:44:51.999Z</time></trkpt><trkpt lat="45.00866532390279" lon="9.671984893356555"><ele>77.0</ele><time>2026-05-01T17:44:52.999Z</time></trkpt><trkpt lat="45.008809399431776" lon="9.672055819278826"><ele>77.0</ele><time>2026-05-01T17:44:53.999Z</time></trkpt><trkpt lat="45.00895220667981" lon="9.672129088262688"><ele>77.0</ele><time>2026-05-01T17:44:54.999Z</time></trkpt><trkpt lat="45.00909339446062" lon="9.672201506114865"><ele>77.0</ele><time>2026-05-01T17:44:55.999Z</time></trkpt><trkpt lat="45.009232506279126" lon="9.672275059308626"><ele>76.25</ele><time>2026-05-01T17:44:56.999Z</time></trkpt><trkpt lat="45.009372404510984" lon="9.672345866415357"><ele>75.5</ele><time>2026-05-01T17:44:57.999Z</time></trkpt><trkpt lat="45.009509655789785" lon="9.6724161746951"><ele>74.75</ele><time>2026-05-01T17:44:58.999Z</time></trkpt><trkpt lat="45.00963913051564" lon="9.672482590286991"><ele>74.0</ele><time>2026-05-01T17:44:59.999Z</time></trkpt><trkpt lat="45.00975982727983" lon="9.672543865579378"><ele>74.0</ele><time>2026-05-01T17:45:00.999Z</time></trkpt><trkpt lat="45.00986564587526" lon="9.672601794197934"><ele>74.0</ele><time>2026-05-01T17:45:01.999Z</time></trkpt><trkpt lat="45.00995941918632" lon="9.672658476954952"><ele>74.0</ele><time>2026-05-01T17:45:02.999Z</time></trkpt><trkpt lat="45.010041194394" lon="9.672719574118753"><ele>74.0</ele><time>2026-05-01T17:45:03.999Z</time></trkpt><trkpt lat="45.01011163068576" lon="9.672779607123775"><ele>74.0</ele><time>2026-05-01T17:45:04.999Z</time></trkpt><trkpt lat="45.01017495123509" lon="9.672841621427049"><ele>73.8</ele><time>2026-05-01T17:45:05.999Z</time></trkpt><trkpt lat="45.01023279321173" lon="9.672913398581711"><ele>73.60000000000001</ele><time>2026-05-01T17:45:06.999Z</time></trkpt><trkpt lat="45.01027763842485" lon="9.673003364309489"><ele>73.4</ele><time>2026-05-01T17:45:07.999Z</time></trkpt><trkpt lat="45.010318646292724" lon="9.673084619069327"><ele>73.2</ele><time>2026-05-01T17:45:08.999Z</time></trkpt><trkpt lat="45.01043118771779" lon="9.673160984145092"><ele>73.0</ele><time>2026-05-01T17:45:11Z</time></trkpt><trkpt lat="45.01055268058999" lon="9.673118151389527"><ele>73.0</ele><time>2026-05-01T17:45:13Z</time></trkpt><trkpt lat="45.010615519008375" lon="9.67308107543377"><ele>73.0</ele><time>2026-05-01T17:45:14Z</time></trkpt><trkpt lat="45.0106861246537" lon="9.673060790679203"><ele>73.0</ele><time>2026-05-01T17:45:15Z</time></trkpt><trkpt lat="45.010764981765895" lon="9.673066683961727"><ele>73.0</ele><time>2026-05-01T17:45:16Z</time></trkpt><trkpt lat="45.01084580442279" lon="9.673057532225437"><ele>73.0</ele><time>2026-05-01T17:45:17Z</time></trkpt><trkpt lat="45.01093647096111" lon="9.673128957708888"><ele>73.0</ele><time>2026-05-01T17:45:18Z</time></trkpt><trkpt lat="45.01102820873305" lon="9.67317638521955"><ele>73.75</ele><time>2026-05-01T17:45:19Z</time></trkpt><trkpt lat="45.01112315874003" lon="9.673227306463588"><ele>74.5</ele><time>2026-05-01T17:45:20Z</time></trkpt><trkpt lat="45.0112244984772" lon="9.673277281012416"><ele>75.25</ele><time>2026-05-01T17:45:21Z</time></trkpt><trkpt lat="45.011337738566695" lon="9.67333507307982"><ele>76.0</ele><time>2026-05-01T17:45:22Z</time></trkpt><trkpt lat="45.01145934647585" lon="9.6733970651562"><ele>76.0</ele><time>2026-05-01T17:45:23Z</time></trkpt><trkpt lat="45.011584766153725" lon="9.673460804193667"><ele>76.0</ele><time>2026-05-01T17:45:24Z</time></trkpt><trkpt lat="45.01171413903625" lon="9.673528267297193"><ele>76.0</ele><time>2026-05-01T17:45:25Z</time></trkpt><trkpt lat="45.01184994153689" lon="9.673598170627251"><ele>76.0</ele><time>2026-05-01T17:45:26Z</time></trkpt><trkpt lat="45.01198883983259" lon="9.673670157458481"><ele>75.33333333333333</ele><time>2026-05-01T17:45:27Z</time></trkpt><trkpt lat="45.01213299497964" lon="9.673743560415607"><ele>74.66666666666667</ele><time>2026-05-01T17:45:28Z</time></trkpt><trkpt lat="45.01227421105312" lon="9.673813541102344"><ele>74.0</ele><time>2026-05-01T17:45:29Z</time></trkpt><trkpt lat="45.01241326753389" lon="9.673879866187152"><ele>73.66666666666667</ele><time>2026-05-01T17:45:30Z</time></trkpt><trkpt lat="45.01255633221235" lon="9.673948303720117"><ele>73.33333333333333</ele><time>2026-05-01T17:45:31Z</time></trkpt><trkpt lat="45.01270182090699" lon="9.674019647613855"><ele>73.0</ele><time>2026-05-01T17:45:32Z</time></trkpt><trkpt lat="45.01285067821748" lon="9.6740915842432"><ele>73.0</ele><time>2026-05-01T17:45:33Z</time></trkpt><trkpt lat="45.01300088342825" lon="9.674159616723282"><ele>73.0</ele><time>2026-05-01T17:45:34Z</time></trkpt><trkpt lat="45.01315101763544" lon="9.674235140985774"><ele>73.0</ele><time>2026-05-01T17:45:35Z</time></trkpt><trkpt lat="45.01330113412272" lon="9.674309314589177"><ele>73.33333333333333</ele><time>2026-05-01T17:45:36Z</time></trkpt><trkpt lat="45.01345395774866" lon="9.674383337297655"><ele>73.66666666666667</ele><time>2026-05-01T17:45:37Z</time></trkpt><trkpt lat="45.01360469149317" lon="9.674458575558628"><ele>74.0</ele><time>2026-05-01T17:45:38Z</time></trkpt><trkpt lat="45.01376059189593" lon="9.674536672619253"><ele>74.0</ele><time>2026-05-01T17:45:39Z</time></trkpt><trkpt lat="45.013916583070795" lon="9.674609663426155"><ele>74.0</ele><time>2026-05-01T17:45:40Z</time></trkpt><trkpt lat="45.014072378014156" lon="9.674683093121134"><ele>74.0</ele><time>2026-05-01T17:45:41Z</time></trkpt><trkpt lat="45.01422942644363" lon="9.67475575032912"><ele>73.66666666666667</ele><time>2026-05-01T17:45:42Z</time></trkpt><trkpt lat="45.0143854825296" lon="9.674827307041452"><ele>73.33333333333333</ele><time>2026-05-01T17:45:43Z</time></trkpt><trkpt lat="45.01453557101996" lon="9.674895090752623"><ele>73.0</ele><time>2026-05-01T17:45:44Z</time></trkpt><trkpt lat="45.01468465263659" lon="9.674964520824162"><ele>73.0</ele><time>2026-05-01T17:45:45Z</time></trkpt><trkpt lat="45.01482602912681" lon="9.675031267716843"><ele>73.0</ele><time>2026-05-01T17:45:46Z</time></trkpt><trkpt lat="45.014958467997445" lon="9.675091908082102"><ele>73.0</ele><time>2026-05-01T17:45:47Z</time></trkpt><trkpt lat="45.01508196765373" lon="9.675151577967247"><ele>73.0</ele><time>2026-05-01T17:45:48Z</time></trkpt><trkpt lat="45.0152032780419" lon="9.675213725939948"><ele>72.25</ele><time>2026-05-01T17:45:49Z</time></trkpt><trkpt lat="45.01532162219947" lon="9.675284873870384"><ele>71.5</ele><time>2026-05-01T17:45:50Z</time></trkpt><trkpt lat="45.01545144514129" lon="9.67534006615341"><ele>70.75</ele><time>2026-05-01T17:45:51Z</time></trkpt><trkpt lat="45.015581174711045" lon="9.67539716526327"><ele>70.0</ele><time>2026-05-01T17:45:52Z</time></trkpt><trkpt lat="45.01570637910199" lon="9.675457815424291"><ele>71.0</ele><time>2026-05-01T17:45:53Z</time></trkpt><trkpt lat="45.01583980302672" lon="9.675510780542245"><ele>72.0</ele><time>2026-05-01T17:45:54Z</time></trkpt><trkpt lat="45.015965183630875" lon="9.675572056484352"><ele>73.0</ele><time>2026-05-01T17:45:55Z</time></trkpt><trkpt lat="45.01608664132205" lon="9.675626514422486"><ele>74.0</ele><time>2026-05-01T17:45:56Z</time></trkpt><trkpt lat="45.01620191221712" lon="9.675688848187145"><ele>74.0</ele><time>2026-05-01T17:45:57Z</time></trkpt><trkpt lat="45.01631875858677" lon="9.675739054008693"><ele>74.0</ele><time>2026-05-01T17:45:58Z</time></trkpt><trkpt lat="45.016428036361766" lon="9.675787226804118"><ele>74.0</ele><time>2026-05-01T17:45:59Z</time></trkpt><trkpt lat="45.01653926006123" lon="9.675826831116616"><ele>74.0</ele><time>2026-05-01T17:46:00Z</time></trkpt><trkpt lat="45.016649441032506" lon="9.6758678084581"><ele>73.8</ele><time>2026-05-01T17:46:01Z</time></trkpt><trkpt lat="45.01675443469606" lon="9.675912401447299"><ele>73.60000000000001</ele><time>2026-05-01T17:46:02Z</time></trkpt><trkpt lat="45.0168588688102" lon="9.67595867534813"><ele>73.4</ele><time>2026-05-01T17:46:03Z</time></trkpt><trkpt lat="45.01695965129546" lon="9.675998455295389"><ele>73.2</ele><time>2026-05-01T17:46:04Z</time></trkpt><trkpt lat="45.01705686522701" lon="9.676049271364743"><ele>73.0</ele><time>2026-05-01T17:46:05Z</time></trkpt><trkpt lat="45.0171585992013" lon="9.676106527888148"><ele>73.0</ele><time>2026-05-01T17:46:06Z</time></trkpt><trkpt lat="45.01726658326958" lon="9.676172183922446"><ele>73.0</ele><time>2026-05-01T17:46:07Z</time></trkpt><trkpt lat="45.017380030297204" lon="9.676238035925346"><ele>73.0</ele><time>2026-05-01T17:46:08Z</time></trkpt><trkpt lat="45.01750316011565" lon="9.676288806815046"><ele>73.0</ele><time>2026-05-01T17:46:09Z</time></trkpt><trkpt lat="45.01762752165608" lon="9.676364075884713"><ele>73.0</ele><time>2026-05-01T17:46:10Z</time></trkpt><trkpt lat="45.01775394168402" lon="9.676434527844833"><ele>73.0</ele><time>2026-05-01T17:46:11Z</time></trkpt><trkpt lat="45.01788849480436" lon="9.676484777302518"><ele>73.0</ele><time>2026-05-01T17:46:12Z</time></trkpt><trkpt lat="45.01800580728486" lon="9.67657488886226"><ele>73.0</ele><time>2026-05-01T17:46:13Z</time></trkpt><trkpt lat="45.01814535557411" lon="9.676630942329053"><ele>73.0</ele><time>2026-05-01T17:46:14Z</time></trkpt><trkpt lat="45.01826963819642" lon="9.676711162179657"><ele>73.0</ele><time>2026-05-01T17:46:15Z</time></trkpt><trkpt lat="45.018396083967694" lon="9.676798733834076"><ele>73.0</ele><time>2026-05-01T17:46:16Z</time></trkpt><trkpt lat="45.0185322022809" lon="9.676874253338413"><ele>73.0</ele><time>2026-05-01T17:46:17Z</time></trkpt><trkpt lat="45.018672999194045" lon="9.676955785554775"><ele>73.0</ele><time>2026-05-01T17:46:17.999Z</time></trkpt><trkpt lat="45.018813445575" lon="9.677030378239213"><ele>73.0</ele><time>2026-05-01T17:46:18.999Z</time></trkpt><trkpt lat="45.01895087631645" lon="9.677105616894451"><ele>73.0</ele><time>2026-05-01T17:46:19.999Z</time></trkpt><trkpt lat="45.01908817494677" lon="9.677183520985627"><ele>73.0</ele><time>2026-05-01T17:46:20.999Z</time></trkpt><trkpt lat="45.019222909112514" lon="9.677259870749083"><ele>73.0</ele><time>2026-05-01T17:46:21.999Z</time></trkpt><trkpt lat="45.0193610684066" lon="9.677338026474505"><ele>73.0</ele><time>2026-05-01T17:46:22.999Z</time></trkpt><trkpt lat="45.019496014313994" lon="9.67741511702222"><ele>73.0</ele><time>2026-05-01T17:46:23.999Z</time></trkpt><trkpt lat="45.01962983416013" lon="9.677495703096227"><ele>73.0</ele><time>2026-05-01T17:46:24.999Z</time></trkpt><trkpt lat="45.01976438897026" lon="9.677576279023102"><ele>73.0</ele><time>2026-05-01T17:46:25.999Z</time></trkpt><trkpt lat="45.01989562194504" lon="9.677653399657903"><ele>73.0</ele><time>2026-05-01T17:46:26.999Z</time></trkpt><trkpt lat="45.02002301335957" lon="9.677723221618043"><ele>73.0</ele><time>2026-05-01T17:46:27.999Z</time></trkpt><trkpt lat="45.020142363455236" lon="9.67778351355406"><ele>73.0</ele><time>2026-05-01T17:46:28.999Z</time></trkpt><trkpt lat="45.02025588102457" lon="9.677844977492303"><ele>72.8</ele><time>2026-05-01T17:46:29.999Z</time></trkpt><trkpt lat="45.020361578534065" lon="9.677905027681588"><ele>72.6</ele><time>2026-05-01T17:46:30.999Z</time></trkpt><trkpt lat="45.020460907423065" lon="9.677972543622696"><ele>72.4</ele><time>2026-05-01T17:46:31.999Z</time></trkpt><trkpt lat="45.02055936695347" lon="9.678041727181345"><ele>72.2</ele><time>2026-05-01T17:46:32.999Z</time></trkpt><trkpt lat="45.02066467157227" lon="9.67809876410317"><ele>72.0</ele><time>2026-05-01T17:46:33.999Z</time></trkpt><trkpt lat="45.02076908960823" lon="9.678167573983082"><ele>72.0</ele><time>2026-05-01T17:46:34.999Z</time></trkpt><trkpt lat="45.02088227134677" lon="9.678227310994446"><ele>72.0</ele><time>2026-05-01T17:46:35.999Z</time></trkpt><trkpt lat="45.020996688570555" lon="9.678274999104358"><ele>72.0</ele><time>2026-05-01T17:46:36.999Z</time></trkpt><trkpt lat="45.02111226491328" lon="9.678327386210814"><ele>72.0</ele><time>2026-05-01T17:46:37.999Z</time></trkpt><trkpt lat="45.021224172991744" lon="9.678383006877956"><ele>72.0</ele><time>2026-05-01T17:46:38.999Z</time></trkpt><trkpt lat="45.02133129730031" lon="9.678445508674283"><ele>72.0</ele><time>2026-05-01T17:46:39.999Z</time></trkpt><trkpt lat="45.02144006435892" lon="9.67850988657632"><ele>72.0</ele><time>2026-05-01T17:46:40.999Z</time></trkpt><trkpt lat="45.02154854417982" lon="9.678576789702687"><ele>72.0</ele><time>2026-05-01T17:46:41.999Z</time></trkpt><trkpt lat="45.02165468433912" lon="9.678638282122524"><ele>71.75</ele><time>2026-05-01T17:46:42.999Z</time></trkpt><trkpt lat="45.02176500193382" lon="9.678693702577526"><ele>71.5</ele><time>2026-05-01T17:46:43.999Z</time></trkpt><trkpt lat="45.02188057388009" lon="9.678748699212747"><ele>71.25</ele><time>2026-05-01T17:46:44.999Z</time></trkpt><trkpt lat="45.0219914078665" lon="9.678807006571883"><ele>71.0</ele><time>2026-05-01T17:46:45.999Z</time></trkpt><trkpt lat="45.02210366080024" lon="9.67886331244304"><ele>71.0</ele><time>2026-05-01T17:46:46.999Z</time></trkpt><trkpt lat="45.02221717602233" lon="9.678910387812317"><ele>71.0</ele><time>2026-05-01T17:46:47.999Z</time></trkpt><trkpt lat="45.02232832347254" lon="9.678946010673396"><ele>71.0</ele><time>2026-05-01T17:46:48.999Z</time></trkpt><trkpt lat="45.0224396948443" lon="9.678982598644248"><ele>71.0</ele><time>2026-05-01T17:46:49.999Z</time></trkpt><trkpt lat="45.02255286008282" lon="9.67901543700571"><ele>71.0</ele><time>2026-05-01T17:46:50.999Z</time></trkpt><trkpt lat="45.02266027728043" lon="9.679043253408453"><ele>71.0</ele><time>2026-05-01T17:46:51.999Z</time></trkpt><trkpt lat="45.022766139353664" lon="9.67907701741754"><ele>71.0</ele><time>2026-05-01T17:46:52.999Z</time></trkpt><trkpt lat="45.02288178299675" lon="9.679106106190918"><ele>71.0</ele><time>2026-05-01T17:46:53.999Z</time></trkpt><trkpt lat="45.022999830123986" lon="9.67913048746779"><ele>71.0</ele><time>2026-05-01T17:46:54.999Z</time></trkpt><trkpt lat="45.02311666716392" lon="9.679162236112644"><ele>71.0</ele><time>2026-05-01T17:46:55.999Z</time></trkpt><trkpt lat="45.02322810824676" lon="9.679197186665448"><ele>71.0</ele><time>2026-05-01T17:46:56.999Z</time></trkpt><trkpt lat="45.02333277492545" lon="9.679239631388082"><ele>71.0</ele><time>2026-05-01T17:46:57.999Z</time></trkpt><trkpt lat="45.02344080153912" lon="9.679282284222195"><ele>70.5</ele><time>2026-05-01T17:46:58.999Z</time></trkpt><trkpt lat="45.023553291028094" lon="9.67933674593641"><ele>70.0</ele><time>2026-05-01T17:46:59.999Z</time></trkpt><trkpt lat="45.023667511057226" lon="9.679396603945476"><ele>69.5</ele><time>2026-05-01T17:47:00.999Z</time></trkpt><trkpt lat="45.02377739770496" lon="9.679452478350866"><ele>69.0</ele><time>2026-05-01T17:47:01.999Z</time></trkpt><trkpt lat="45.02388713045414" lon="9.679509823107914"><ele>69.0</ele><time>2026-05-01T17:47:02.999Z</time></trkpt><trkpt lat="45.02399081947429" lon="9.679570588757688"><ele>69.0</ele><time>2026-05-01T17:47:03.999Z</time></trkpt><trkpt lat="45.024095310272344" lon="9.679629832792882"><ele>69.0</ele><time>2026-05-01T17:47:04.999Z</time></trkpt><trkpt lat="45.02418818422438" lon="9.679667870012326"><ele>69.0</ele><time>2026-05-01T17:47:05.999Z</time></trkpt><trkpt lat="45.024290527521956" lon="9.67972363039044"><ele>69.0</ele><time>2026-05-01T17:47:06.999Z</time></trkpt><trkpt lat="45.02439898500163" lon="9.679777203082581"><ele>68.75</ele><time>2026-05-01T17:47:07.999Z</time></trkpt><trkpt lat="45.02451002575477" lon="9.67982607785109"><ele>68.5</ele><time>2026-05-01T17:47:08.999Z</time></trkpt><trkpt lat="45.024628243592225" lon="9.679880780133296"><ele>68.25</ele><time>2026-05-01T17:47:09.999Z</time></trkpt><trkpt lat="45.02474760559787" lon="9.679941820998632"><ele>68.0</ele><time>2026-05-01T17:47:10.999Z</time></trkpt><trkpt lat="45.02486768805918" lon="9.67999969959384"><ele>68.25</ele><time>2026-05-01T17:47:11.999Z</time></trkpt><trkpt lat="45.0249883427015" lon="9.680056235927891"><ele>68.5</ele><time>2026-05-01T17:47:12.999Z</time></trkpt><trkpt lat="45.025108960794824" lon="9.680111977390867"><ele>68.75</ele><time>2026-05-01T17:47:13.999Z</time></trkpt><trkpt lat="45.0252260782108" lon="9.680169039689252"><ele>69.0</ele><time>2026-05-01T17:47:14.999Z</time></trkpt><trkpt lat="45.02534199988577" lon="9.680225173188635"><ele>69.25</ele><time>2026-05-01T17:47:15.999Z</time></trkpt><trkpt lat="45.02546345978704" lon="9.680288089807187"><ele>69.5</ele><time>2026-05-01T17:47:17Z</time></trkpt><trkpt lat="45.02557681778015" lon="9.68033874468488"><ele>69.75</ele><time>2026-05-01T17:47:18Z</time></trkpt><trkpt lat="45.02568519401685" lon="9.68039486693914"><ele>70.0</ele><time>2026-05-01T17:47:19Z</time></trkpt><trkpt lat="45.02579645524801" lon="9.680442927973445"><ele>69.25</ele><time>2026-05-01T17:47:20Z</time></trkpt><trkpt lat="45.02591479050142" lon="9.680501464079276"><ele>68.5</ele><time>2026-05-01T17:47:21Z</time></trkpt><trkpt lat="45.0260332120917" lon="9.680558800641396"><ele>67.75</ele><time>2026-05-01T17:47:22Z</time></trkpt><trkpt lat="45.026155967342696" lon="9.680616940189093"><ele>67.0</ele><time>2026-05-01T17:47:23Z</time></trkpt><trkpt lat="45.02627775220218" lon="9.680672544722759"><ele>67.0</ele><time>2026-05-01T17:47:24Z</time></trkpt><trkpt lat="45.0263911827609" lon="9.680725199977735"><ele>67.0</ele><time>2026-05-01T17:47:25Z</time></trkpt><trkpt lat="45.02650386126944" lon="9.680791058649307"><ele>67.0</ele><time>2026-05-01T17:47:26Z</time></trkpt><trkpt lat="45.026609287558934" lon="9.68087046495916"><ele>67.0</ele><time>2026-05-01T17:47:27Z</time></trkpt><trkpt lat="45.02670931581235" lon="9.68096677437049"><ele>66.8</ele><time>2026-05-01T17:47:28Z</time></trkpt><trkpt lat="45.02679881353603" lon="9.681065000243422"><ele>66.6</ele><time>2026-05-01T17:47:29Z</time></trkpt><trkpt lat="45.026881174314994" lon="9.681163686624439"><ele>66.39999999999999</ele><time>2026-05-01T17:47:30Z</time></trkpt><trkpt lat="45.0269556493373" lon="9.681266163843938"><ele>66.2</ele><time>2026-05-01T17:47:31Z</time></trkpt><trkpt lat="45.027019601705284" lon="9.681365794109501"><ele>66.0</ele><time>2026-05-01T17:47:32Z</time></trkpt><trkpt lat="45.027076813487014" lon="9.681460853339324"><ele>65.83333333333333</ele><time>2026-05-01T17:47:33Z</time></trkpt><trkpt lat="45.02712980177078" lon="9.681554314067858"><ele>65.66666666666667</ele><time>2026-05-01T17:47:34Z</time></trkpt><trkpt lat="45.02718352089374" lon="9.681651914794008"><ele>65.5</ele><time>2026-05-01T17:47:35Z</time></trkpt><trkpt lat="45.027234074679264" lon="9.68174444759227"><ele>65.33333333333334</ele><time>2026-05-01T17:47:36Z</time></trkpt><trkpt lat="45.02728158843276" lon="9.68183373661201"><ele>65.16666666666667</ele><time>2026-05-01T17:47:37Z</time></trkpt><trkpt lat="45.02732592174936" lon="9.681916801168198"><ele>65.0</ele><time>2026-05-01T17:47:38Z</time></trkpt><trkpt lat="45.02736829694431" lon="9.681998409520137"><ele>64.6</ele><time>2026-05-01T17:47:39Z</time></trkpt><trkpt lat="45.027426901047896" lon="9.682125404551146"><ele>64.2</ele><time>2026-05-01T17:47:41Z</time></trkpt><trkpt lat="45.02746025152561" lon="9.682213792266332"><ele>63.8</ele><time>2026-05-01T17:47:45Z</time></trkpt><trkpt lat="45.02750628864641" lon="9.682315033763356"><ele>63.4</ele><time>2026-05-01T17:47:52Z</time></trkpt><trkpt lat="45.02752980078349" lon="9.682478388645801"><ele>63.0</ele><time>2026-05-01T17:47:54Z</time></trkpt><trkpt lat="45.02751024064813" lon="9.682608082947665"><ele>63.0</ele><time>2026-05-01T17:47:55Z</time></trkpt><trkpt lat="45.02749744721741" lon="9.6827323116621"><ele>63.0</ele><time>2026-05-01T17:47:56Z</time></trkpt><trkpt lat="45.02749606675396" lon="9.682858477489326"><ele>63.0</ele><time>2026-05-01T17:47:57Z</time></trkpt><trkpt lat="45.02751002381487" lon="9.68299879656004"><ele>63.0</ele><time>2026-05-01T17:47:58Z</time></trkpt><trkpt lat="45.027537308173414" lon="9.683138290323386"><ele>63.0</ele><time>2026-05-01T17:47:59Z</time></trkpt><trkpt lat="45.02757281287105" lon="9.68328670161643"><ele>63.0</ele><time>2026-05-01T17:48:00Z</time></trkpt><trkpt lat="45.0276039231046" lon="9.683452684137382"><ele>63.0</ele><time>2026-05-01T17:48:01Z</time></trkpt><trkpt lat="45.02762231499833" lon="9.683633918346034"><ele>63.0</ele><time>2026-05-01T17:48:02Z</time></trkpt><trkpt lat="45.02762934506858" lon="9.683810988159685"><ele>63.0</ele><time>2026-05-01T17:48:03Z</time></trkpt><trkpt lat="45.02761909212477" lon="9.684008368847792"><ele>63.0</ele><time>2026-05-01T17:48:04Z</time></trkpt><trkpt lat="45.02761143405812" lon="9.6842038954632"><ele>63.0</ele><time>2026-05-01T17:48:05Z</time></trkpt><trkpt lat="45.02759611591603" lon="9.684410548846222"><ele>63.0</ele><time>2026-05-01T17:48:06Z</time></trkpt><trkpt lat="45.027578201421996" lon="9.68462434143073"><ele>63.0</ele><time>2026-05-01T17:48:07Z</time></trkpt><trkpt lat="45.02756076771041" lon="9.684835889538013"><ele>63.0</ele><time>2026-05-01T17:48:08Z</time></trkpt><trkpt lat="45.02754642408679" lon="9.685044472421342"><ele>63.0</ele><time>2026-05-01T17:48:09Z</time></trkpt><trkpt lat="45.0275258345575" lon="9.68526779947636"><ele>63.0</ele><time>2026-05-01T17:48:10Z</time></trkpt><trkpt lat="45.02750653507071" lon="9.68549753114809"><ele>63.0</ele><time>2026-05-01T17:48:11Z</time></trkpt><trkpt lat="45.02748469201921" lon="9.685740221729224"><ele>63.0</ele><time>2026-05-01T17:48:12Z</time></trkpt><trkpt lat="45.02746410126696" lon="9.685992355315983"><ele>63.0</ele><time>2026-05-01T17:48:13Z</time></trkpt><trkpt lat="45.027439982522694" lon="9.686252561786477"><ele>63.0</ele><time>2026-05-01T17:48:14Z</time></trkpt><trkpt lat="45.02741779354629" lon="9.686504732081785"><ele>63.0</ele><time>2026-05-01T17:48:15Z</time></trkpt><trkpt lat="45.02739137849534" lon="9.686768457841008"><ele>63.0</ele><time>2026-05-01T17:48:16Z</time></trkpt><trkpt lat="45.02736870003515" lon="9.68703939130171"><ele>63.33333333333333</ele><time>2026-05-01T17:48:17Z</time></trkpt><trkpt lat="45.027345235041835" lon="9.687317898258769"><ele>63.666666666666664</ele><time>2026-05-01T17:48:18Z</time></trkpt><trkpt lat="45.02731933072314" lon="9.687606737238665"><ele>64.0</ele><time>2026-05-01T17:48:19Z</time></trkpt><trkpt lat="45.02729606398061" lon="9.68788741012716"><ele>63.33333333333333</ele><time>2026-05-01T17:48:19.999Z</time></trkpt><trkpt lat="45.0272739023876" lon="9.688168394509024"><ele>62.66666666666667</ele><time>2026-05-01T17:48:20.999Z</time></trkpt><trkpt lat="45.02724697718124" lon="9.688460300506351"><ele>62.0</ele><time>2026-05-01T17:48:21.999Z</time></trkpt><trkpt lat="45.027222014518124" lon="9.688758487821948"><ele>62.0</ele><time>2026-05-01T17:48:22.999Z</time></trkpt><trkpt lat="45.027193158536384" lon="9.689059234870763"><ele>62.0</ele><time>2026-05-01T17:48:23.999Z</time></trkpt><trkpt lat="45.02716597100822" lon="9.689367779311272"><ele>62.0</ele><time>2026-05-01T17:48:24.999Z</time></trkpt><trkpt lat="45.0271376292627" lon="9.689675147511169"><ele>62.0</ele><time>2026-05-01T17:48:25.999Z</time></trkpt><trkpt lat="45.02710977357762" lon="9.689985358004167"><ele>62.0</ele><time>2026-05-01T17:48:26.999Z</time></trkpt><trkpt lat="45.02708168135372" lon="9.690296179741301"><ele>62.0</ele><time>2026-05-01T17:48:27.999Z</time></trkpt><trkpt lat="45.027054761673504" lon="9.69060818158569"><ele>62.333333333333336</ele><time>2026-05-01T17:48:28.999Z</time></trkpt><trkpt lat="45.027026690355726" lon="9.690920373606417"><ele>62.66666666666667</ele><time>2026-05-01T17:48:29.999Z</time></trkpt><trkpt lat="45.027001961580176" lon="9.691231293682165"><ele>63.0</ele><time>2026-05-01T17:48:30.999Z</time></trkpt><trkpt lat="45.02697754434554" lon="9.691543617074695"><ele>63.0</ele><time>2026-05-01T17:48:31.999Z</time></trkpt><trkpt lat="45.02695124260827" lon="9.691853604467225"><ele>63.0</ele><time>2026-05-01T17:48:32.999Z</time></trkpt><trkpt lat="45.026915860662385" lon="9.69216957111353"><ele>63.0</ele><time>2026-05-01T17:48:33.999Z</time></trkpt><trkpt lat="45.02688487537479" lon="9.692487017942712"><ele>64.5</ele><time>2026-05-01T17:48:34.999Z</time></trkpt><trkpt lat="45.02685103914744" lon="9.692813288211472"><ele>66.0</ele><time>2026-05-01T17:48:36.019Z</time></trkpt><trkpt lat="45.02681803139402" lon="9.69313701263044"><ele>66.0</ele><time>2026-05-01T17:48:37.018Z</time></trkpt><trkpt lat="45.0267853722574" lon="9.693462269814995"><ele>66.0</ele><time>2026-05-01T17:48:38.021Z</time></trkpt><trkpt lat="45.02675313271644" lon="9.693785436801303"><ele>66.0</ele><time>2026-05-01T17:48:39.019Z</time></trkpt><trkpt lat="45.026719963560765" lon="9.694109884493951"><ele>66.0</ele><time>2026-05-01T17:48:40.019Z</time></trkpt><trkpt lat="45.02675910018853" lon="9.694410972306219"><ele>66.0</ele><time>2026-05-01T17:48:40.999Z</time></trkpt><trkpt lat="45.026725482329766" lon="9.694716678382447"><ele>64.66666666666667</ele><time>2026-05-01T17:48:41.999Z</time></trkpt><trkpt lat="45.02673420297234" lon="9.695023822546652"><ele>63.333333333333336</ele><time>2026-05-01T17:48:42.999Z</time></trkpt><trkpt lat="45.02673670088283" lon="9.695343708125273"><ele>62.0</ele><time>2026-05-01T17:48:43.999Z</time></trkpt><trkpt lat="45.02674293127798" lon="9.695659751455517"><ele>61.66666666666667</ele><time>2026-05-01T17:48:44.999Z</time></trkpt><trkpt lat="45.02675705663862" lon="9.69597601932841"><ele>61.33333333333333</ele><time>2026-05-01T17:48:45.999Z</time></trkpt><trkpt lat="45.02677892645511" lon="9.696289563597833"><ele>61.0</ele><time>2026-05-01T17:48:46.999Z</time></trkpt><trkpt lat="45.02680858359889" lon="9.696601966999856"><ele>62.0</ele><time>2026-05-01T17:48:47.999Z</time></trkpt><trkpt lat="45.02684138063289" lon="9.69691268224722"><ele>63.0</ele><time>2026-05-01T17:48:48.999Z</time></trkpt><trkpt lat="45.026882811795325" lon="9.697226793535064"><ele>64.0</ele><time>2026-05-01T17:48:49.999Z</time></trkpt><trkpt lat="45.02693082272626" lon="9.697536402883864"><ele>62.0</ele><time>2026-05-01T17:48:50.999Z</time></trkpt><trkpt lat="45.02698529392028" lon="9.69784703266955"><ele>60.0</ele><time>2026-05-01T17:48:51.999Z</time></trkpt><trkpt lat="45.02704758879489" lon="9.698151992912395"><ele>60.0</ele><time>2026-05-01T17:48:52.999Z</time></trkpt><trkpt lat="45.027115950783305" lon="9.698457810130924"><ele>60.0</ele><time>2026-05-01T17:48:53.999Z</time></trkpt><trkpt lat="45.02719723072532" lon="9.698766022940037"><ele>59.0</ele><time>2026-05-01T17:48:54.999Z</time></trkpt><trkpt lat="45.027281759262316" lon="9.699072996709056"><ele>58.0</ele><time>2026-05-01T17:48:55.999Z</time></trkpt><trkpt lat="45.02737359738466" lon="9.699377027070046"><ele>59.5</ele><time>2026-05-01T17:48:56.999Z</time></trkpt><trkpt lat="45.027468190305726" lon="9.699684862302629"><ele>61.0</ele><time>2026-05-01T17:48:57.999Z</time></trkpt><trkpt lat="45.027563749745475" lon="9.699993739306485"><ele>60.0</ele><time>2026-05-01T17:48:58.999Z</time></trkpt><trkpt lat="45.02766285819198" lon="9.700293293072408"><ele>59.0</ele><time>2026-05-01T17:48:59.999Z</time></trkpt><trkpt lat="45.02775695191123" lon="9.700595668179643"><ele>59.0</ele><time>2026-05-01T17:49:00.999Z</time></trkpt><trkpt lat="45.027852437588116" lon="9.700895920733938"><ele>59.0</ele><time>2026-05-01T17:49:01.999Z</time></trkpt><trkpt lat="45.02794957791422" lon="9.7011914683604"><ele>58.5</ele><time>2026-05-01T17:49:02.999Z</time></trkpt><trkpt lat="45.02804465959711" lon="9.701487341615708"><ele>58.0</ele><time>2026-05-01T17:49:03.999Z</time></trkpt><trkpt lat="45.028140389832544" lon="9.701781968545642"><ele>59.5</ele><time>2026-05-01T17:49:04.999Z</time></trkpt><trkpt lat="45.02823650458729" lon="9.70207580518034"><ele>61.0</ele><time>2026-05-01T17:49:05.999Z</time></trkpt><trkpt lat="45.02833101417363" lon="9.702368321740485"><ele>61.0</ele><time>2026-05-01T17:49:06.999Z</time></trkpt><trkpt lat="45.02842748083935" lon="9.702665108142941"><ele>61.0</ele><time>2026-05-01T17:49:07.999Z</time></trkpt><trkpt lat="45.02852299857609" lon="9.702959746042842"><ele>61.666666666666664</ele><time>2026-05-01T17:49:08.999Z</time></trkpt><trkpt lat="45.028614302430384" lon="9.703248235661853"><ele>62.33333333333333</ele><time>2026-05-01T17:49:09.999Z</time></trkpt><trkpt lat="45.02870581392969" lon="9.703533403043753"><ele>63.0</ele><time>2026-05-01T17:49:10.999Z</time></trkpt><trkpt lat="45.028793643748465" lon="9.703817604532274"><ele>62.33333333333333</ele><time>2026-05-01T17:49:11.999Z</time></trkpt><trkpt lat="45.028881635573384" lon="9.704098481194109"><ele>61.666666666666664</ele><time>2026-05-01T17:49:12.999Z</time></trkpt><trkpt lat="45.028967971164796" lon="9.704383575522012"><ele>61.0</ele><time>2026-05-01T17:49:13.999Z</time></trkpt><trkpt lat="45.02905239372274" lon="9.704673078120887"><ele>61.0</ele><time>2026-05-01T17:49:14.999Z</time></trkpt><trkpt lat="45.02913345665136" lon="9.704968756488901"><ele>61.0</ele><time>2026-05-01T17:49:15.999Z</time></trkpt><trkpt lat="45.02921230879141" lon="9.705266250121092"><ele>61.0</ele><time>2026-05-01T17:49:16.999Z</time></trkpt><trkpt lat="45.029285080268586" lon="9.70556674499149"><ele>59.0</ele><time>2026-05-01T17:49:17.999Z</time></trkpt><trkpt lat="45.029358749624514" lon="9.705869657508076"><ele>57.0</ele><time>2026-05-01T17:49:18.999Z</time></trkpt><trkpt lat="45.02942592046117" lon="9.706177060048825"><ele>56.5</ele><time>2026-05-01T17:49:19.999Z</time></trkpt><trkpt lat="45.02949051966622" lon="9.706492092896012"><ele>56.0</ele><time>2026-05-01T17:49:20.999Z</time></trkpt><trkpt lat="45.02955303619838" lon="9.706805128732542"><ele>56.333333333333336</ele><time>2026-05-01T17:49:21.999Z</time></trkpt><trkpt lat="45.02961030275881" lon="9.707114011912092"><ele>56.66666666666667</ele><time>2026-05-01T17:49:23Z</time></trkpt><trkpt lat="45.029662591507154" lon="9.707421750191289"><ele>57.0</ele><time>2026-05-01T17:49:24Z</time></trkpt><trkpt lat="45.0297134651322" lon="9.707728652790708"><ele>57.66666666666667</ele><time>2026-05-01T17:49:25Z</time></trkpt><trkpt lat="45.02976065463173" lon="9.708036879264952"><ele>58.333333333333336</ele><time>2026-05-01T17:49:26Z</time></trkpt><trkpt lat="45.02980199104037" lon="9.70834907408361"><ele>59.0</ele><time>2026-05-01T17:49:27Z</time></trkpt><trkpt lat="45.0298402429061" lon="9.708663264622992"><ele>59.0</ele><time>2026-05-01T17:49:28Z</time></trkpt><trkpt lat="45.029874561169464" lon="9.708981754309214"><ele>59.0</ele><time>2026-05-01T17:49:29Z</time></trkpt><trkpt lat="45.029908495893174" lon="9.709302436283906"><ele>58.0</ele><time>2026-05-01T17:49:30Z</time></trkpt><trkpt lat="45.02993678215353" lon="9.709625314071333"><ele>57.0</ele><time>2026-05-01T17:49:31Z</time></trkpt><trkpt lat="45.02996170658336" lon="9.709954012536912"><ele>55.0</ele><time>2026-05-01T17:49:32Z</time></trkpt><trkpt lat="45.029982807782545" lon="9.710287539103758"><ele>53.0</ele><time>2026-05-01T17:49:33Z</time></trkpt><trkpt lat="45.02999728076175" lon="9.710625935507519"><ele>53.0</ele><time>2026-05-01T17:49:34Z</time></trkpt><trkpt lat="45.03000882613785" lon="9.710965620509269"><ele>53.0</ele><time>2026-05-01T17:49:35Z</time></trkpt><trkpt lat="45.03001716959923" lon="9.711306268209823"><ele>53.0</ele><time>2026-05-01T17:49:36Z</time></trkpt><trkpt lat="45.03002550649667" lon="9.711649096876377"><ele>53.0</ele><time>2026-05-01T17:49:37Z</time></trkpt><trkpt lat="45.03003482621141" lon="9.711993931512476"><ele>53.0</ele><time>2026-05-01T17:49:38Z</time></trkpt><trkpt lat="45.030041061063976" lon="9.712336286000228"><ele>53.0</ele><time>2026-05-01T17:49:39Z</time></trkpt><trkpt lat="45.030047722978026" lon="9.71268037556453"><ele>54.0</ele><time>2026-05-01T17:49:40Z</time></trkpt><trkpt lat="45.03005317816638" lon="9.71302404980294"><ele>55.0</ele><time>2026-05-01T17:49:41Z</time></trkpt><trkpt lat="45.03005906641526" lon="9.713367852447597"><ele>56.0</ele><time>2026-05-01T17:49:42Z</time></trkpt><trkpt lat="45.030062838931" lon="9.713709482831042"><ele>57.0</ele><time>2026-05-01T17:49:43Z</time></trkpt><trkpt lat="45.03006653881942" lon="9.714051121812442"><ele>57.0</ele><time>2026-05-01T17:49:44Z</time></trkpt><trkpt lat="45.03007474754339" lon="9.714390964132424"><ele>57.0</ele><time>2026-05-01T17:49:45Z</time></trkpt><trkpt lat="45.03008165093236" lon="9.714728909323911"><ele>56.5</ele><time>2026-05-01T17:49:46Z</time></trkpt><trkpt lat="45.030087166386025" lon="9.715065163799318"><ele>56.0</ele><time>2026-05-01T17:49:47Z</time></trkpt><trkpt lat="45.03009551713803" lon="9.715405007402962"><ele>55.0</ele><time>2026-05-01T17:49:48Z</time></trkpt><trkpt lat="45.03009739820566" lon="9.715730663575256"><ele>54.0</ele><time>2026-05-01T17:49:49Z</time></trkpt><trkpt lat="45.03009851210717" lon="9.716081817488583"><ele>53.0</ele><time>2026-05-01T17:49:50Z</time></trkpt><trkpt lat="45.03010456396934" lon="9.716409300252627"><ele>52.0</ele><time>2026-05-01T17:49:51Z</time></trkpt><trkpt lat="45.030105560513256" lon="9.71673939008463"><ele>52.5</ele><time>2026-05-01T17:49:52Z</time></trkpt><trkpt lat="45.03010882180669" lon="9.71706414889788"><ele>53.0</ele><time>2026-05-01T17:49:53Z</time></trkpt><trkpt lat="45.03010546923276" lon="9.717390725112583"><ele>53.0</ele><time>2026-05-01T17:49:54Z</time></trkpt><trkpt lat="45.03011098385233" lon="9.717715482369305"><ele>53.0</ele><time>2026-05-01T17:49:55Z</time></trkpt><trkpt lat="45.030124578754396" lon="9.7180353536011"><ele>54.0</ele><time>2026-05-01T17:49:56Z</time></trkpt><trkpt lat="45.030122534750426" lon="9.718360476338217"><ele>55.0</ele><time>2026-05-01T17:49:57Z</time></trkpt><trkpt lat="45.030124173097306" lon="9.71867793747072"><ele>55.0</ele><time>2026-05-01T17:49:58Z</time></trkpt><trkpt lat="45.03012282189751" lon="9.718993494839399"><ele>55.0</ele><time>2026-05-01T17:49:59Z</time></trkpt><trkpt lat="45.03012087654031" lon="9.719315704325535"><ele>56.0</ele><time>2026-05-01T17:50:00Z</time></trkpt><trkpt lat="45.03011903124035" lon="9.719643177247157"><ele>57.0</ele><time>2026-05-01T17:50:01Z</time></trkpt><trkpt lat="45.0300993387454" lon="9.719964958834588"><ele>55.5</ele><time>2026-05-01T17:50:02Z</time></trkpt><trkpt lat="45.03006990364579" lon="9.720284817473344"><ele>54.0</ele><time>2026-05-01T17:50:03Z</time></trkpt><trkpt lat="45.030029366696716" lon="9.720603536033698"><ele>54.0</ele><time>2026-05-01T17:50:04Z</time></trkpt><trkpt lat="45.02997391623558" lon="9.720919091644753"><ele>54.0</ele><time>2026-05-01T17:50:05Z</time></trkpt><trkpt lat="45.02991057429195" lon="9.721228207090508"><ele>54.5</ele><time>2026-05-01T17:50:06Z</time></trkpt><trkpt lat="45.029834269378625" lon="9.721530910974975"><ele>55.0</ele><time>2026-05-01T17:50:07Z</time></trkpt><trkpt lat="45.029749582967064" lon="9.721825870499128"><ele>55.33333333333333</ele><time>2026-05-01T17:50:08Z</time></trkpt><trkpt lat="45.02965463215207" lon="9.722111099164325"><ele>55.66666666666667</ele><time>2026-05-01T17:50:09Z</time></trkpt><trkpt lat="45.029555128947834" lon="9.722389937335848"><ele>56.0</ele><time>2026-05-01T17:50:10Z</time></trkpt><trkpt lat="45.02944611874327" lon="9.722656466756957"><ele>56.333333333333336</ele><time>2026-05-01T17:50:11Z</time></trkpt><trkpt lat="45.02932925719916" lon="9.722910895345496"><ele>56.66666666666667</ele><time>2026-05-01T17:50:12Z</time></trkpt><trkpt lat="45.029208532058846" lon="9.723155260625028"><ele>57.0</ele><time>2026-05-01T17:50:13Z</time></trkpt><trkpt lat="45.029075662559094" lon="9.72339645533015"><ele>56.66666666666667</ele><time>2026-05-01T17:50:14Z</time></trkpt><trkpt lat="45.02893652853001" lon="9.723631268571388"><ele>56.333333333333336</ele><time>2026-05-01T17:50:15Z</time></trkpt><trkpt lat="45.02879084919174" lon="9.723859206437773"><ele>56.0</ele><time>2026-05-01T17:50:15.999Z</time></trkpt><trkpt lat="45.02864307823747" lon="9.72408558486401"><ele>56.0</ele><time>2026-05-01T17:50:16.999Z</time></trkpt><trkpt lat="45.02849183738251" lon="9.724313474569382"><ele>56.0</ele><time>2026-05-01T17:50:17.999Z</time></trkpt><trkpt lat="45.02833960147312" lon="9.724537714489042"><ele>56.0</ele><time>2026-05-01T17:50:18.999Z</time></trkpt><trkpt lat="45.02818533580372" lon="9.724765207219964"><ele>56.0</ele><time>2026-05-01T17:50:19.999Z</time></trkpt><trkpt lat="45.02803118526976" lon="9.724994439147208"><ele>56.0</ele><time>2026-05-01T17:50:20.999Z</time></trkpt><trkpt lat="45.027878452211255" lon="9.725228618854118"><ele>56.0</ele><time>2026-05-01T17:50:21.999Z</time></trkpt><trkpt lat="45.02773440532058" lon="9.725468004213743"><ele>56.0</ele><time>2026-05-01T17:50:22.999Z</time></trkpt><trkpt lat="45.02759137379718" lon="9.725712920709064"><ele>56.0</ele><time>2026-05-01T17:50:23.999Z</time></trkpt><trkpt lat="45.027455215812" lon="9.725962332226182"><ele>56.0</ele><time>2026-05-01T17:50:24.999Z</time></trkpt><trkpt lat="45.027329772010646" lon="9.726218297020413"><ele>56.0</ele><time>2026-05-01T17:50:25.999Z</time></trkpt><trkpt lat="45.027211546158426" lon="9.726484402678794"><ele>56.0</ele><time>2026-05-01T17:50:26.999Z</time></trkpt><trkpt lat="45.02709753662183" lon="9.726757023779783"><ele>56.0</ele><time>2026-05-01T17:50:27.999Z</time></trkpt><trkpt lat="45.02699413431668" lon="9.727035599684044"><ele>56.0</ele><time>2026-05-01T17:50:28.999Z</time></trkpt><trkpt lat="45.026899013125345" lon="9.72731945618856"><ele>56.0</ele><time>2026-05-01T17:50:29.999Z</time></trkpt><trkpt lat="45.026809203315246" lon="9.727606455221515"><ele>56.0</ele><time>2026-05-01T17:50:30.999Z</time></trkpt><trkpt lat="45.02672294997192" lon="9.72790046625913"><ele>56.5</ele><time>2026-05-01T17:50:31.999Z</time></trkpt><trkpt lat="45.02664124658312" lon="9.728200197833342"><ele>57.0</ele><time>2026-05-01T17:50:32.999Z</time></trkpt><trkpt lat="45.02656151351821" lon="9.728499213936857"><ele>57.5</ele><time>2026-05-01T17:50:33.999Z</time></trkpt><trkpt lat="45.026482987938216" lon="9.728798073357543"><ele>58.0</ele><time>2026-05-01T17:50:34.999Z</time></trkpt><trkpt lat="45.026404594514425" lon="9.72909770144243"><ele>58.0</ele><time>2026-05-01T17:50:35.999Z</time></trkpt><trkpt lat="45.02632562552212" lon="9.729397938108722"><ele>58.0</ele><time>2026-05-01T17:50:36.999Z</time></trkpt><trkpt lat="45.0262455514445" lon="9.729697791900524"><ele>58.0</ele><time>2026-05-01T17:50:37.999Z</time></trkpt><trkpt lat="45.026167079990884" lon="9.729997445894073"><ele>58.0</ele><time>2026-05-01T17:50:38.999Z</time></trkpt><trkpt lat="45.026089556451154" lon="9.730296360606248"><ele>57.666666666666664</ele><time>2026-05-01T17:50:39.999Z</time></trkpt><trkpt lat="45.02601037728724" lon="9.73059253867934"><ele>57.33333333333333</ele><time>2026-05-01T17:50:40.999Z</time></trkpt><trkpt lat="45.02593228135004" lon="9.730888029479091"><ele>57.0</ele><time>2026-05-01T17:50:41.999Z</time></trkpt><trkpt lat="45.025856956895666" lon="9.731181744051803"><ele>57.0</ele><time>2026-05-01T17:50:42.999Z</time></trkpt><trkpt lat="45.02578168526214" lon="9.73147380256028"><ele>57.0</ele><time>2026-05-01T17:50:43.999Z</time></trkpt><trkpt lat="45.025706119126276" lon="9.73176259047158"><ele>57.0</ele><time>2026-05-01T17:50:44.999Z</time></trkpt><trkpt lat="45.0256304143678" lon="9.732048428979725"><ele>57.0</ele><time>2026-05-01T17:50:45.999Z</time></trkpt><trkpt lat="45.025556550204385" lon="9.73233225131639"><ele>57.0</ele><time>2026-05-01T17:50:46.999Z</time></trkpt><trkpt lat="45.02548301683655" lon="9.732614540069457"><ele>57.0</ele><time>2026-05-01T17:50:47.999Z</time></trkpt><trkpt lat="45.02540961895829" lon="9.732899029579492"><ele>57.0</ele><time>2026-05-01T17:50:48.999Z</time></trkpt><trkpt lat="45.02533738453922" lon="9.733180367853862"><ele>57.0</ele><time>2026-05-01T17:50:49.999Z</time></trkpt><trkpt lat="45.025263998540375" lon="9.733460491864088"><ele>57.0</ele><time>2026-05-01T17:50:50.999Z</time></trkpt><trkpt lat="45.02519623649776" lon="9.733742176739767"><ele>56.66666666666667</ele><time>2026-05-01T17:50:51.999Z</time></trkpt><trkpt lat="45.02513932111389" lon="9.73402943419035"><ele>56.333333333333336</ele><time>2026-05-01T17:50:52.999Z</time></trkpt><trkpt lat="45.025088832461314" lon="9.734319923386128"><ele>56.0</ele><time>2026-05-01T17:50:53.999Z</time></trkpt><trkpt lat="45.02504726645515" lon="9.734615981066318"><ele>56.0</ele><time>2026-05-01T17:50:54.999Z</time></trkpt><trkpt lat="45.025017140733226" lon="9.734919360981701"><ele>56.0</ele><time>2026-05-01T17:50:55.999Z</time></trkpt><trkpt lat="45.025000422329065" lon="9.735220446891672"><ele>56.0</ele><time>2026-05-01T17:50:56.999Z</time></trkpt><trkpt lat="45.024995702291335" lon="9.735527887944121"><ele>56.0</ele><time>2026-05-01T17:50:57.999Z</time></trkpt><trkpt lat="45.02500299512869" lon="9.735836602540546"><ele>56.0</ele><time>2026-05-01T17:50:58.999Z</time></trkpt><trkpt lat="45.02502331964274" lon="9.736146372215055"><ele>56.0</ele><time>2026-05-01T17:50:59.999Z</time></trkpt><trkpt lat="45.025056332057844" lon="9.736455958484386"><ele>56.0</ele><time>2026-05-01T17:51:00.999Z</time></trkpt><trkpt lat="45.02510367706321" lon="9.736764751588009"><ele>56.0</ele><time>2026-05-01T17:51:01.999Z</time></trkpt><trkpt lat="45.025166862088646" lon="9.737070059616604"><ele>56.0</ele><time>2026-05-01T17:51:02.999Z</time></trkpt><trkpt lat="45.02524364985152" lon="9.737371321330398"><ele>56.0</ele><time>2026-05-01T17:51:03.999Z</time></trkpt><trkpt lat="45.0253359650795" lon="9.737659027935885"><ele>56.0</ele><time>2026-05-01T17:51:04.999Z</time></trkpt><trkpt lat="45.02543969428298" lon="9.737941258430531"><ele>56.0</ele><time>2026-05-01T17:51:05.999Z</time></trkpt><trkpt lat="45.02555791639778" lon="9.738213100949713"><ele>56.333333333333336</ele><time>2026-05-01T17:51:06.999Z</time></trkpt><trkpt lat="45.02568624051665" lon="9.73847433263788"><ele>56.66666666666667</ele><time>2026-05-01T17:51:07.999Z</time></trkpt><trkpt lat="45.02582324516855" lon="9.73872225143535"><ele>57.0</ele><time>2026-05-01T17:51:08.999Z</time></trkpt><trkpt lat="45.02596864388367" lon="9.738957030457826"><ele>57.0</ele><time>2026-05-01T17:51:09.999Z</time></trkpt><trkpt lat="45.0261215384134" lon="9.739181668718013"><ele>57.0</ele><time>2026-05-01T17:51:10.999Z</time></trkpt><trkpt lat="45.02628292761419" lon="9.739394967546831"><ele>57.0</ele><time>2026-05-01T17:51:11.999Z</time></trkpt><trkpt lat="45.02644751922954" lon="9.739604057015127"><ele>57.0</ele><time>2026-05-01T17:51:12.999Z</time></trkpt><trkpt lat="45.02661280903497" lon="9.739805690490703"><ele>57.0</ele><time>2026-05-01T17:51:13.999Z</time></trkpt><trkpt lat="45.026775329829576" lon="9.740002715454706"><ele>57.0</ele><time>2026-05-01T17:51:14.999Z</time></trkpt><trkpt lat="45.02693526490855" lon="9.74020188051901"><ele>57.66666666666667</ele><time>2026-05-01T17:51:15.999Z</time></trkpt><trkpt lat="45.02709003068755" lon="9.74039363371662"><ele>58.333333333333336</ele><time>2026-05-01T17:51:16.999Z</time></trkpt><trkpt lat="45.027247748016215" lon="9.740588188228907"><ele>59.0</ele><time>2026-05-01T17:51:17.999Z</time></trkpt><trkpt lat="45.02740316441046" lon="9.740775653892634"><ele>59.66666666666667</ele><time>2026-05-01T17:51:18.999Z</time></trkpt><trkpt lat="45.02756320719313" lon="9.740952952399027"><ele>60.33333333333333</ele><time>2026-05-01T17:51:19.999Z</time></trkpt><trkpt lat="45.02772721725606" lon="9.741112666414958"><ele>61.0</ele><time>2026-05-01T17:51:20.999Z</time></trkpt><trkpt lat="45.0279004693663" lon="9.741264371579007"><ele>61.0</ele><time>2026-05-01T17:51:21.999Z</time></trkpt><trkpt lat="45.02808351056872" lon="9.741395488906877"><ele>61.0</ele><time>2026-05-01T17:51:22.999Z</time></trkpt><trkpt lat="45.028274577121074" lon="9.741510363261586"><ele>61.0</ele><time>2026-05-01T17:51:23.999Z</time></trkpt><trkpt lat="45.028472469510824" lon="9.74160900617613"><ele>60.0</ele><time>2026-05-01T17:51:24.999Z</time></trkpt><trkpt lat="45.02867510452952" lon="9.741684405130876"><ele>59.0</ele><time>2026-05-01T17:51:25.999Z</time></trkpt><trkpt lat="45.02888277492227" lon="9.741734793569865"><ele>58.0</ele><time>2026-05-01T17:51:26.999Z</time></trkpt><trkpt lat="45.02909262198067" lon="9.741763495344514"><ele>57.33333333333333</ele><time>2026-05-01T17:51:27.999Z</time></trkpt><trkpt lat="45.02929878735827" lon="9.74178154217038"><ele>56.66666666666667</ele><time>2026-05-01T17:51:28.999Z</time></trkpt><trkpt lat="45.02949818362229" lon="9.741796732966375"><ele>56.0</ele><time>2026-05-01T17:51:29.999Z</time></trkpt><trkpt lat="45.029693099287165" lon="9.74181449111092"><ele>56.0</ele><time>2026-05-01T17:51:30.999Z</time></trkpt><trkpt lat="45.02988413217967" lon="9.741833867324072"><ele>56.0</ele><time>2026-05-01T17:51:31.999Z</time></trkpt><trkpt lat="45.03007569731251" lon="9.741859862702976"><ele>56.0</ele><time>2026-05-01T17:51:32.999Z</time></trkpt><trkpt lat="45.03026243019311" lon="9.741899735274208"><ele>56.0</ele><time>2026-05-01T17:51:33.999Z</time></trkpt><trkpt lat="45.03044725105131" lon="9.741954524628753"><ele>56.0</ele><time>2026-05-01T17:51:35Z</time></trkpt><trkpt lat="45.03063107879371" lon="9.742022412299518"><ele>56.0</ele><time>2026-05-01T17:51:36Z</time></trkpt><trkpt lat="45.03081327317673" lon="9.742094992587921"><ele>56.0</ele><time>2026-05-01T17:51:37Z</time></trkpt><trkpt lat="45.03099402279167" lon="9.742166212261735"><ele>56.0</ele><time>2026-05-01T17:51:38Z</time></trkpt><trkpt lat="45.03117729871315" lon="9.742242382046248"><ele>56.0</ele><time>2026-05-01T17:51:39Z</time></trkpt><trkpt lat="45.03136044948643" lon="9.742313607644292"><ele>56.0</ele><time>2026-05-01T17:51:40Z</time></trkpt><trkpt lat="45.03154406321847" lon="9.742383192326907"><ele>56.0</ele><time>2026-05-01T17:51:41Z</time></trkpt><trkpt lat="45.03172943215375" lon="9.742456794506257"><ele>56.0</ele><time>2026-05-01T17:51:42Z</time></trkpt><trkpt lat="45.03191399102448" lon="9.742533059033448"><ele>56.333333333333336</ele><time>2026-05-01T17:51:43Z</time></trkpt><trkpt lat="45.03209854182316" lon="9.742608505400613"><ele>56.66666666666667</ele><time>2026-05-01T17:51:44Z</time></trkpt><trkpt lat="45.032280430288495" lon="9.742683032518283"><ele>57.0</ele><time>2026-05-01T17:51:45Z</time></trkpt><trkpt lat="45.03246270960919" lon="9.742755673463698"><ele>56.66666666666667</ele><time>2026-05-01T17:51:46Z</time></trkpt><trkpt lat="45.03264466820485" lon="9.742829482342332"><ele>56.333333333333336</ele><time>2026-05-01T17:51:47Z</time></trkpt><trkpt lat="45.032829327877714" lon="9.742906572800555"><ele>56.0</ele><time>2026-05-01T17:51:48Z</time></trkpt><trkpt lat="45.03301779704201" lon="9.742982125916818"><ele>56.0</ele><time>2026-05-01T17:51:49Z</time></trkpt><trkpt lat="45.03320371676052" lon="9.743056765197872"><ele>56.0</ele><time>2026-05-01T17:51:50Z</time></trkpt><trkpt lat="45.03338926329685" lon="9.743129262393124"><ele>56.0</ele><time>2026-05-01T17:51:51Z</time></trkpt><trkpt lat="45.033572825801095" lon="9.743202576466574"><ele>56.66666666666667</ele><time>2026-05-01T17:51:52Z</time></trkpt><trkpt lat="45.033756243858" lon="9.743271891772814"><ele>57.33333333333333</ele><time>2026-05-01T17:51:53Z</time></trkpt><trkpt lat="45.033937289604545" lon="9.743345587986317"><ele>58.0</ele><time>2026-05-01T17:51:54Z</time></trkpt><trkpt lat="45.034119202991654" lon="9.743419042802076"><ele>57.666666666666664</ele><time>2026-05-01T17:51:55Z</time></trkpt><trkpt lat="45.03430198547535" lon="9.743494809383316"><ele>57.33333333333333</ele><time>2026-05-01T17:51:56Z</time></trkpt><trkpt lat="45.03449001730089" lon="9.743569789852009"><ele>57.0</ele><time>2026-05-01T17:51:57Z</time></trkpt><trkpt lat="45.03467966330499" lon="9.743642689702682"><ele>57.0</ele><time>2026-05-01T17:51:58Z</time></trkpt><trkpt lat="45.03486931118474" lon="9.743718198574152"><ele>57.0</ele><time>2026-05-01T17:51:59Z</time></trkpt><trkpt lat="45.035059741937104" lon="9.74379776940011"><ele>57.0</ele><time>2026-05-01T17:52:00Z</time></trkpt><trkpt lat="45.03525216449142" lon="9.743871649366456"><ele>56.66666666666667</ele><time>2026-05-01T17:52:01Z</time></trkpt><trkpt lat="45.035443646886236" lon="9.743946003599364"><ele>56.333333333333336</ele><time>2026-05-01T17:52:02Z</time></trkpt><trkpt lat="45.0356324794699" lon="9.744021599024416"><ele>56.0</ele><time>2026-05-01T17:52:03Z</time></trkpt><trkpt lat="45.03582517063879" lon="9.74409922097206"><ele>56.0</ele><time>2026-05-01T17:52:04Z</time></trkpt><trkpt lat="45.03601792129114" lon="9.744176369107223"><ele>56.0</ele><time>2026-05-01T17:52:05Z</time></trkpt><trkpt lat="45.03620698698828" lon="9.74425207545536"><ele>56.0</ele><time>2026-05-01T17:52:06Z</time></trkpt><trkpt lat="45.036395669441745" lon="9.744324235345417"><ele>56.333333333333336</ele><time>2026-05-01T17:52:07Z</time></trkpt><trkpt lat="45.036582216198084" lon="9.744397067993237"><ele>56.66666666666667</ele><time>2026-05-01T17:52:08Z</time></trkpt><trkpt lat="45.03676680961458" lon="9.744467737263715"><ele>57.0</ele><time>2026-05-01T17:52:09Z</time></trkpt><trkpt lat="45.036952258387565" lon="9.744542473751537"><ele>56.33333333333333</ele><time>2026-05-01T17:52:10Z</time></trkpt><trkpt lat="45.03713503215451" lon="9.744614990349266"><ele>55.666666666666664</ele><time>2026-05-01T17:52:11Z</time></trkpt><trkpt lat="45.037316205961375" lon="9.74468905927587"><ele>55.0</ele><time>2026-05-01T17:52:12Z</time></trkpt><trkpt lat="45.03749915207957" lon="9.74476050098409"><ele>54.666666666666664</ele><time>2026-05-01T17:52:13Z</time></trkpt><trkpt lat="45.03769011668524" lon="9.744833517146803"><ele>54.33333333333333</ele><time>2026-05-01T17:52:14Z</time></trkpt><trkpt lat="45.03789456505852" lon="9.744909853814432"><ele>54.0</ele><time>2026-05-01T17:52:15Z</time></trkpt><trkpt lat="45.03810521122885" lon="9.74499388748641"><ele>54.0</ele><time>2026-05-01T17:52:16Z</time></trkpt><trkpt lat="45.0383186451548" lon="9.745082768444487"><ele>54.0</ele><time>2026-05-01T17:52:17Z</time></trkpt><trkpt lat="45.038532200300544" lon="9.745169217406177"><ele>54.0</ele><time>2026-05-01T17:52:18Z</time></trkpt><trkpt lat="45.0387452505893" lon="9.745251186548343"><ele>53.66666666666667</ele><time>2026-05-01T17:52:19Z</time></trkpt><trkpt lat="45.038959104950166" lon="9.74533355963575"><ele>53.333333333333336</ele><time>2026-05-01T17:52:19.999Z</time></trkpt><trkpt lat="45.03917274076774" lon="9.745420218347041"><ele>53.0</ele><time>2026-05-01T17:52:20.999Z</time></trkpt><trkpt lat="45.03938748407665" lon="9.745510035417144"><ele>53.0</ele><time>2026-05-01T17:52:21.999Z</time></trkpt><trkpt lat="45.0396028473977" lon="9.745598307981382"><ele>53.0</ele><time>2026-05-01T17:52:22.999Z</time></trkpt><trkpt lat="45.03981552448139" lon="9.745682938568061"><ele>53.0</ele><time>2026-05-01T17:52:23.999Z</time></trkpt><trkpt lat="45.04003182144397" lon="9.745770654539577"><ele>53.5</ele><time>2026-05-01T17:52:24.999Z</time></trkpt><trkpt lat="45.04025194783819" lon="9.745860373648874"><ele>54.0</ele><time>2026-05-01T17:52:25.999Z</time></trkpt><trkpt lat="45.04047162703743" lon="9.745948173759114"><ele>54.0</ele><time>2026-05-01T17:52:26.999Z</time></trkpt><trkpt lat="45.04068967190685" lon="9.746033544499744"><ele>54.0</ele><time>2026-05-01T17:52:27.999Z</time></trkpt><trkpt lat="45.04090601136626" lon="9.746119669730222"><ele>53.0</ele><time>2026-05-01T17:52:28.999Z</time></trkpt><trkpt lat="45.0411209505946" lon="9.746205141365255"><ele>52.0</ele><time>2026-05-01T17:52:29.999Z</time></trkpt><trkpt lat="45.04133259242312" lon="9.74629017115857"><ele>51.0</ele><time>2026-05-01T17:52:30.999Z</time></trkpt><trkpt lat="45.04153930824889" lon="9.74637207418684"><ele>51.0</ele><time>2026-05-01T17:52:31.999Z</time></trkpt><trkpt lat="45.04174175113584" lon="9.746450352897913"><ele>51.0</ele><time>2026-05-01T17:52:32.999Z</time></trkpt><trkpt lat="45.04194308002016" lon="9.746529334065732"><ele>51.0</ele><time>2026-05-01T17:52:33.999Z</time></trkpt><trkpt lat="45.04214288228424" lon="9.746606060404785"><ele>51.0</ele><time>2026-05-01T17:52:34.999Z</time></trkpt><trkpt lat="45.04234269011649" lon="9.746685580360895"><ele>51.0</ele><time>2026-05-01T17:52:35.999Z</time></trkpt><trkpt lat="45.04253602152567" lon="9.746764715811873"><ele>51.0</ele><time>2026-05-01T17:52:36.999Z</time></trkpt><trkpt lat="45.04272725901452" lon="9.746839497912388"><ele>50.33333333333333</ele><time>2026-05-01T17:52:37.999Z</time></trkpt><trkpt lat="45.04291822678581" lon="9.746905561273632"><ele>49.666666666666664</ele><time>2026-05-01T17:52:38.999Z</time></trkpt><trkpt lat="45.04311415055878" lon="9.746951810505271"><ele>49.0</ele><time>2026-05-01T17:52:39.999Z</time></trkpt><trkpt lat="45.04331300197451" lon="9.746982905938118"><ele>48.666666666666664</ele><time>2026-05-01T17:52:40.999Z</time></trkpt><trkpt lat="45.04351093899352" lon="9.7469896417938"><ele>48.33333333333333</ele><time>2026-05-01T17:52:41.999Z</time></trkpt><trkpt lat="45.04371101272622" lon="9.74697384228973"><ele>48.0</ele><time>2026-05-01T17:52:42.999Z</time></trkpt><trkpt lat="45.04391043765185" lon="9.746936384278614"><ele>48.0</ele><time>2026-05-01T17:52:43.999Z</time></trkpt><trkpt lat="45.04410971783459" lon="9.746883122214065"><ele>48.0</ele><time>2026-05-01T17:52:44.999Z</time></trkpt><trkpt lat="45.04430168579008" lon="9.746806268333284"><ele>48.0</ele><time>2026-05-01T17:52:45.999Z</time></trkpt><trkpt lat="45.04449104788082" lon="9.746710007253364"><ele>48.33333333333333</ele><time>2026-05-01T17:52:46.999Z</time></trkpt><trkpt lat="45.044682595227826" lon="9.746599704006831"><ele>48.666666666666664</ele><time>2026-05-01T17:52:47.999Z</time></trkpt><trkpt lat="45.04486929713222" lon="9.74648161868863"><ele>49.0</ele><time>2026-05-01T17:52:48.999Z</time></trkpt><trkpt lat="45.045054158292885" lon="9.746356392487396"><ele>49.0</ele><time>2026-05-01T17:52:49.999Z</time></trkpt><trkpt lat="45.045234638999936" lon="9.746212792270198"><ele>49.0</ele><time>2026-05-01T17:52:50.999Z</time></trkpt><trkpt lat="45.04541165836248" lon="9.746071582034384"><ele>49.0</ele><time>2026-05-01T17:52:51.999Z</time></trkpt><trkpt lat="45.04558608123287" lon="9.745952699015136"><ele>49.0</ele><time>2026-05-01T17:52:52.999Z</time></trkpt><trkpt lat="45.0457639618247" lon="9.745852726966024"><ele>49.0</ele><time>2026-05-01T17:52:53.999Z</time></trkpt><trkpt lat="45.04593317123994" lon="9.745782002632101"><ele>49.0</ele><time>2026-05-01T17:52:54.999Z</time></trkpt><trkpt lat="45.04611010175566" lon="9.745740266250142"><ele>49.0</ele><time>2026-05-01T17:52:55.999Z</time></trkpt><trkpt lat="45.046287901425295" lon="9.745722359514936"><ele>49.0</ele><time>2026-05-01T17:52:56.999Z</time></trkpt><trkpt lat="45.04646244582815" lon="9.745729763446729"><ele>49.0</ele><time>2026-05-01T17:52:57.999Z</time></trkpt><trkpt lat="45.04663388504755" lon="9.74576397921401"><ele>48.33333333333333</ele><time>2026-05-01T17:52:58.999Z</time></trkpt><trkpt lat="45.04679862399491" lon="9.745815303364681"><ele>47.666666666666664</ele><time>2026-05-01T17:52:59.999Z</time></trkpt><trkpt lat="45.04695707885914" lon="9.745873493704357"><ele>47.0</ele><time>2026-05-01T17:53:00.999Z</time></trkpt><trkpt lat="45.04710634645409" lon="9.7459414423493"><ele>47.0</ele><time>2026-05-01T17:53:01.999Z</time></trkpt><trkpt lat="45.04724943276783" lon="9.74601185583289"><ele>47.0</ele><time>2026-05-01T17:53:02.999Z</time></trkpt><trkpt lat="45.04737491551416" lon="9.746080268860918"><ele>47.0</ele><time>2026-05-01T17:53:03.999Z</time></trkpt><trkpt lat="45.047482050758546" lon="9.746146443632865"><ele>47.0</ele><time>2026-05-01T17:53:04.999Z</time></trkpt><trkpt lat="45.04756034132443" lon="9.746223223333587"><ele>47.0</ele><time>2026-05-01T17:53:05.999Z</time></trkpt><trkpt lat="45.04762102163929" lon="9.746332443129974"><ele>47.0</ele><time>2026-05-01T17:53:06.999Z</time></trkpt><trkpt lat="45.04764898893863" lon="9.746450027218183"><ele>47.0</ele><time>2026-05-01T17:53:07.999Z</time></trkpt><trkpt lat="45.04765035882145" lon="9.746556133165301"><ele>47.0</ele><time>2026-05-01T17:53:08.999Z</time></trkpt><trkpt lat="45.04763142318432" lon="9.746663117016313"><ele>47.0</ele><time>2026-05-01T17:53:09.999Z</time></trkpt><trkpt lat="45.04758676234223" lon="9.746775484242226"><ele>47.0</ele><time>2026-05-01T17:53:10.999Z</time></trkpt><trkpt lat="45.04752157993307" lon="9.74688721087586"><ele>46.5</ele><time>2026-05-01T17:53:11.999Z</time></trkpt><trkpt lat="45.04743664378867" lon="9.746991925938383"><ele>46.0</ele><time>2026-05-01T17:53:12.999Z</time></trkpt><trkpt lat="45.04732405529797" lon="9.747079830548687"><ele>45.5</ele><time>2026-05-01T17:53:13.999Z</time></trkpt><trkpt lat="45.04718950988672" lon="9.747164839710734"><ele>45.0</ele><time>2026-05-01T17:53:14.999Z</time></trkpt><trkpt lat="45.0470530857587" lon="9.747271678762308"><ele>45.0</ele><time>2026-05-01T17:53:15.999Z</time></trkpt><trkpt lat="45.04691134323127" lon="9.747388670952992"><ele>45.0</ele><time>2026-05-01T17:53:16.999Z</time></trkpt><trkpt lat="45.04678070333027" lon="9.747500895765164"><ele>45.0</ele><time>2026-05-01T17:53:17.999Z</time></trkpt><trkpt lat="45.04665122360654" lon="9.747612537575348"><ele>46.33333333333333</ele><time>2026-05-01T17:53:18.999Z</time></trkpt><trkpt lat="45.04651211024658" lon="9.747732494236995"><ele>47.666666666666664</ele><time>2026-05-01T17:53:19.999Z</time></trkpt><trkpt lat="45.046372940587375" lon="9.747853768124179"><ele>49.0</ele><time>2026-05-01T17:53:20.999Z</time></trkpt><trkpt lat="45.04623257355405" lon="9.747979664663239"><ele>49.0</ele><time>2026-05-01T17:53:21.999Z</time></trkpt><trkpt lat="45.046091982002615" lon="9.748104423980754"><ele>49.0</ele><time>2026-05-01T17:53:22.999Z</time></trkpt><trkpt lat="45.045952473233804" lon="9.748230990079433"><ele>49.0</ele><time>2026-05-01T17:53:23.999Z</time></trkpt><trkpt lat="45.04581449908039" lon="9.74836035988687"><ele>49.0</ele><time>2026-05-01T17:53:24.999Z</time></trkpt><trkpt lat="45.04568773892972" lon="9.748491110496138"><ele>49.0</ele><time>2026-05-01T17:53:25.999Z</time></trkpt><trkpt lat="45.045560750988834" lon="9.748621831074445"><ele>49.0</ele><time>2026-05-01T17:53:26.999Z</time></trkpt><trkpt lat="45.0454421517116" lon="9.748755654548317"><ele>48.75</ele><time>2026-05-01T17:53:27.999Z</time></trkpt><trkpt lat="45.045328880351576" lon="9.74889162936717"><ele>48.5</ele><time>2026-05-01T17:53:28.999Z</time></trkpt><trkpt lat="45.045222371238445" lon="9.7490231918604"><ele>48.25</ele><time>2026-05-01T17:53:29.999Z</time></trkpt><trkpt lat="45.04512032872794" lon="9.74915247460729"><ele>48.0</ele><time>2026-05-01T17:53:30.999Z</time></trkpt><trkpt lat="45.04502529893325" lon="9.7492767207136"><ele>47.75</ele><time>2026-05-01T17:53:31.999Z</time></trkpt><trkpt lat="45.04493402755137" lon="9.749404000940823"><ele>47.5</ele><time>2026-05-01T17:53:32.999Z</time></trkpt><trkpt lat="45.0448458238329" lon="9.749531078950579"><ele>47.25</ele><time>2026-05-01T17:53:33.999Z</time></trkpt><trkpt lat="45.04476855903298" lon="9.749654849270762"><ele>47.0</ele><time>2026-05-01T17:53:35Z</time></trkpt><trkpt lat="45.044699836643915" lon="9.749772877577541"><ele>47.0</ele><time>2026-05-01T17:53:36Z</time></trkpt><trkpt lat="45.0446417170424" lon="9.749890279209895"><ele>47.0</ele><time>2026-05-01T17:53:37Z</time></trkpt><trkpt lat="45.04459677058981" lon="9.749996338216887"><ele>47.0</ele><time>2026-05-01T17:53:38Z</time></trkpt><trkpt lat="45.04456259670062" lon="9.7500876129609"><ele>47.0</ele><time>2026-05-01T17:53:39Z</time></trkpt><trkpt lat="45.04452731566154" lon="9.750186166717917"><ele>47.0</ele><time>2026-05-01T17:53:40Z</time></trkpt><trkpt lat="45.04449279876914" lon="9.75031539874003"><ele>47.0</ele><time>2026-05-01T17:53:41Z</time></trkpt><trkpt lat="45.04446499705637" lon="9.750448739572384"><ele>47.0</ele><time>2026-05-01T17:53:42Z</time></trkpt><trkpt lat="45.04442363958732" lon="9.750593316485626"><ele>47.0</ele><time>2026-05-01T17:53:43Z</time></trkpt><trkpt lat="45.04438582392682" lon="9.750765149910649"><ele>47.0</ele><time>2026-05-01T17:53:44Z</time></trkpt><trkpt lat="45.04441426316365" lon="9.750982626423452"><ele>47.0</ele><time>2026-05-01T17:53:45Z</time></trkpt><trkpt lat="45.044362180442455" lon="9.751185235393278"><ele>47.33333333333333</ele><time>2026-05-01T17:53:46Z</time></trkpt><trkpt lat="45.04426653182671" lon="9.751373246210507"><ele>47.666666666666664</ele><time>2026-05-01T17:53:47Z</time></trkpt><trkpt lat="45.04421292055963" lon="9.751595601772562"><ele>48.0</ele><time>2026-05-01T17:53:48Z</time></trkpt><trkpt lat="45.04415274739462" lon="9.751823246911973"><ele>47.0</ele><time>2026-05-01T17:53:49Z</time></trkpt><trkpt lat="45.04409413281299" lon="9.752043256967804"><ele>46.0</ele><time>2026-05-01T17:53:50Z</time></trkpt><trkpt lat="45.04403391571023" lon="9.752262627888967"><ele>45.0</ele><time>2026-05-01T17:53:51Z</time></trkpt><trkpt lat="45.04397619290234" lon="9.752481837986819"><ele>45.0</ele><time>2026-05-01T17:53:52Z</time></trkpt><trkpt lat="45.04393507040835" lon="9.752695830132225"><ele>45.0</ele><time>2026-05-01T17:53:53Z</time></trkpt><trkpt lat="45.043908022438785" lon="9.752917067028687"><ele>45.0</ele><time>2026-05-01T17:53:54Z</time></trkpt><trkpt lat="45.04390150494695" lon="9.753141861428187"><ele>44.666666666666664</ele><time>2026-05-01T17:53:55Z</time></trkpt><trkpt lat="45.04391197808728" lon="9.75337008387912"><ele>44.33333333333333</ele><time>2026-05-01T17:53:56Z</time></trkpt><trkpt lat="45.04394021497933" lon="9.753597111189203"><ele>44.0</ele><time>2026-05-01T17:53:57Z</time></trkpt><trkpt lat="45.04398723944484" lon="9.753822435708907"><ele>44.0</ele><time>2026-05-01T17:53:58Z</time></trkpt><trkpt lat="45.04405075099402" lon="9.754043246380979"><ele>44.0</ele><time>2026-05-01T17:53:59Z</time></trkpt><trkpt lat="45.04412890472439" lon="9.754259680636522"><ele>44.0</ele><time>2026-05-01T17:54:00Z</time></trkpt><trkpt lat="45.0442199797039" lon="9.754469233502107"><ele>44.666666666666664</ele><time>2026-05-01T17:54:01Z</time></trkpt><trkpt lat="45.04432139607024" lon="9.754680952155082"><ele>45.333333333333336</ele><time>2026-05-01T17:54:02Z</time></trkpt><trkpt lat="45.044422973603375" lon="9.754891954702229"><ele>46.0</ele><time>2026-05-01T17:54:03Z</time></trkpt><trkpt lat="45.0445259129383" lon="9.755104267775822"><ele>45.66666666666667</ele><time>2026-05-01T17:54:04Z</time></trkpt><trkpt lat="45.044618105218596" lon="9.755304129624765"><ele>45.333333333333336</ele><time>2026-05-01T17:54:05Z</time></trkpt><trkpt lat="45.04470542259882" lon="9.755487595633326"><ele>45.0</ele><time>2026-05-01T17:54:06Z</time></trkpt><trkpt lat="45.044791025340146" lon="9.755659771204911"><ele>45.0</ele><time>2026-05-01T17:54:07Z</time></trkpt><trkpt lat="45.044882863923725" lon="9.755818678901385"><ele>45.0</ele><time>2026-05-01T17:54:08Z</time></trkpt><trkpt lat="45.04498363561468" lon="9.755973989757274"><ele>45.0</ele><time>2026-05-01T17:54:09Z</time></trkpt><trkpt lat="45.04509841479417" lon="9.756119092644177"><ele>45.0</ele><time>2026-05-01T17:54:10Z</time></trkpt><trkpt lat="45.045227042625534" lon="9.756250823237757"><ele>46.0</ele><time>2026-05-01T17:54:11Z</time></trkpt><trkpt lat="45.04536653738992" lon="9.75637063372401"><ele>47.0</ele><time>2026-05-01T17:54:12Z</time></trkpt><trkpt lat="45.04550926182901" lon="9.756471148131304"><ele>48.0</ele><time>2026-05-01T17:54:13Z</time></trkpt><trkpt lat="45.04564950795735" lon="9.756546374741902"><ele>48.0</ele><time>2026-05-01T17:54:14Z</time></trkpt><trkpt lat="45.04578486185642" lon="9.756583127697432"><ele>48.0</ele><time>2026-05-01T17:54:15Z</time></trkpt><trkpt lat="45.045920547494646" lon="9.756585515991915"><ele>48.0</ele><time>2026-05-01T17:54:16Z</time></trkpt><trkpt lat="45.04604042121558" lon="9.756547938592945"><ele>48.0</ele><time>2026-05-01T17:54:17Z</time></trkpt><trkpt lat="45.046165544650094" lon="9.756479052070556"><ele>47.5</ele><time>2026-05-01T17:54:18Z</time></trkpt><trkpt lat="45.04628343620122" lon="9.756381992012326"><ele>47.0</ele><time>2026-05-01T17:54:19Z</time></trkpt><trkpt lat="45.046386947854266" lon="9.756242163987414"><ele>46.5</ele><time>2026-05-01T17:54:20Z</time></trkpt><trkpt lat="45.046475870927665" lon="9.756080336068026"><ele>46.0</ele><time>2026-05-01T17:54:21Z</time></trkpt><trkpt lat="45.046540405217506" lon="9.755897175080356"><ele>46.0</ele><time>2026-05-01T17:54:22Z</time></trkpt><trkpt lat="45.04659044527458" lon="9.75570006112716"><ele>46.0</ele><time>2026-05-01T17:54:23Z</time></trkpt><trkpt lat="45.04663426154498" lon="9.755496535466063"><ele>46.0</ele><time>2026-05-01T17:54:24Z</time></trkpt><trkpt lat="45.04666995882235" lon="9.755282916742791"><ele>46.333333333333336</ele><time>2026-05-01T17:54:25Z</time></trkpt><trkpt lat="45.04669238319141" lon="9.755060458268913"><ele>46.666666666666664</ele><time>2026-05-01T17:54:26Z</time></trkpt><trkpt lat="45.04670362004081" lon="9.754828658090796"><ele>47.0</ele><time>2026-05-01T17:54:27Z</time></trkpt><trkpt lat="45.04671680514474" lon="9.754597901118379"><ele>47.0</ele><time>2026-05-01T17:54:28Z</time></trkpt><trkpt lat="45.04673448990539" lon="9.754386395344183"><ele>47.0</ele><time>2026-05-01T17:54:29Z</time></trkpt><trkpt lat="45.046762270366216" lon="9.754190614137105"><ele>47.0</ele><time>2026-05-01T17:54:30Z</time></trkpt><trkpt lat="45.046803477728595" lon="9.753992302024356"><ele>47.0</ele><time>2026-05-01T17:54:31Z</time></trkpt><trkpt lat="45.046857101013906" lon="9.753789959108314"><ele>46.666666666666664</ele><time>2026-05-01T17:54:32Z</time></trkpt><trkpt lat="45.04692474291819" lon="9.75358513412356"><ele>46.333333333333336</ele><time>2026-05-01T17:54:33Z</time></trkpt><trkpt lat="45.04700716037215" lon="9.753379513636219"><ele>46.0</ele><time>2026-05-01T17:54:34Z</time></trkpt><trkpt lat="45.04710420774582" lon="9.75317510777275"><ele>45.66666666666667</ele><time>2026-05-01T17:54:35Z</time></trkpt><trkpt lat="45.04721016712421" lon="9.752976451906868"><ele>45.333333333333336</ele><time>2026-05-01T17:54:36Z</time></trkpt><trkpt lat="45.04732566453833" lon="9.752798491355216"><ele>45.0</ele><time>2026-05-01T17:54:37Z</time></trkpt><trkpt lat="45.04745856116408" lon="9.752628822866678"><ele>45.333333333333336</ele><time>2026-05-01T17:54:38Z</time></trkpt><trkpt lat="45.04761242391572" lon="9.752465955197074"><ele>45.66666666666667</ele><time>2026-05-01T17:54:39Z</time></trkpt><trkpt lat="45.047781641248456" lon="9.752303234357122"><ele>46.0</ele><time>2026-05-01T17:54:40Z</time></trkpt><trkpt lat="45.04796043545414" lon="9.752127336924982"><ele>46.0</ele><time>2026-05-01T17:54:41Z</time></trkpt><trkpt lat="45.04814523689992" lon="9.751938884436047"><ele>46.0</ele><time>2026-05-01T17:54:42Z</time></trkpt><trkpt lat="45.04833811096806" lon="9.751745399004822"><ele>47.0</ele><time>2026-05-01T17:54:43Z</time></trkpt><trkpt lat="45.04853471920231" lon="9.751545858950728"><ele>48.0</ele><time>2026-05-01T17:54:44Z</time></trkpt><trkpt lat="45.0487252364779" lon="9.751353208026098"><ele>48.0</ele><time>2026-05-01T17:54:45Z</time></trkpt><trkpt lat="45.048917575708494" lon="9.7511629399194"><ele>48.0</ele><time>2026-05-01T17:54:46Z</time></trkpt><trkpt lat="45.0491130175485" lon="9.750963031699097"><ele>46.5</ele><time>2026-05-01T17:54:46.999Z</time></trkpt><trkpt lat="45.04930803744752" lon="9.750762271329409"><ele>45.0</ele><time>2026-05-01T17:54:47.999Z</time></trkpt><trkpt lat="45.049508641262776" lon="9.750565524058187"><ele>45.0</ele><time>2026-05-01T17:54:48.999Z</time></trkpt><trkpt lat="45.04970988975877" lon="9.750368161776898"><ele>45.0</ele><time>2026-05-01T17:54:49.999Z</time></trkpt><trkpt lat="45.049913695817544" lon="9.750176859901764"><ele>45.5</ele><time>2026-05-01T17:54:50.999Z</time></trkpt><trkpt lat="45.050112993954365" lon="9.749978706891179"><ele>46.0</ele><time>2026-05-01T17:54:51.999Z</time></trkpt><trkpt lat="45.050308578603726" lon="9.749783783358954"><ele>46.0</ele><time>2026-05-01T17:54:52.999Z</time></trkpt><trkpt lat="45.05050038172073" lon="9.74959183294023"><ele>46.0</ele><time>2026-05-01T17:54:53.999Z</time></trkpt><trkpt lat="45.050693428921356" lon="9.74940341307902"><ele>46.5</ele><time>2026-05-01T17:54:54.999Z</time></trkpt><trkpt lat="45.050889662442806" lon="9.749230160247594"><ele>47.0</ele><time>2026-05-01T17:54:55.999Z</time></trkpt><trkpt lat="45.051092328978115" lon="9.749072823594645"><ele>47.0</ele><time>2026-05-01T17:54:56.999Z</time></trkpt><trkpt lat="45.05130063635073" lon="9.74893067293981"><ele>47.0</ele><time>2026-05-01T17:54:57.999Z</time></trkpt><trkpt lat="45.051505043180086" lon="9.748789236924278"><ele>47.0</ele><time>2026-05-01T17:54:58.999Z</time></trkpt><trkpt lat="45.05170655934049" lon="9.748631929296616"><ele>47.0</ele><time>2026-05-01T17:54:59.999Z</time></trkpt><trkpt lat="45.051898183252554" lon="9.748454957373472"><ele>47.0</ele><time>2026-05-01T17:55:00.999Z</time></trkpt><trkpt lat="45.05208484749445" lon="9.74826329743225"><ele>47.0</ele><time>2026-05-01T17:55:01.999Z</time></trkpt><trkpt lat="45.052267308999376" lon="9.748055043083664"><ele>47.0</ele><time>2026-05-01T17:55:02.999Z</time></trkpt><trkpt lat="45.05244203472605" lon="9.747830724201739"><ele>47.0</ele><time>2026-05-01T17:55:03.999Z</time></trkpt><trkpt lat="45.052620069641016" lon="9.747610498077263"><ele>47.5</ele><time>2026-05-01T17:55:04.999Z</time></trkpt><trkpt lat="45.05280121604116" lon="9.747389469769246"><ele>48.0</ele><time>2026-05-01T17:55:05.999Z</time></trkpt><trkpt lat="45.05298019133703" lon="9.747152705549976"><ele>48.0</ele><time>2026-05-01T17:55:06.999Z</time></trkpt><trkpt lat="45.05316533262962" lon="9.746930108679507"><ele>48.0</ele><time>2026-05-01T17:55:07.999Z</time></trkpt><trkpt lat="45.05336218154635" lon="9.746729113170964"><ele>47.5</ele><time>2026-05-01T17:55:08.999Z</time></trkpt><trkpt lat="45.05356730837225" lon="9.746538611904263"><ele>47.0</ele><time>2026-05-01T17:55:09.999Z</time></trkpt><trkpt lat="45.05377179966755" lon="9.746348940950933"><ele>47.0</ele><time>2026-05-01T17:55:10.999Z</time></trkpt><trkpt lat="45.0539756278776" lon="9.746151751930721"><ele>47.0</ele><time>2026-05-01T17:55:11.999Z</time></trkpt><trkpt lat="45.05417708640468" lon="9.745950729599123"><ele>46.5</ele><time>2026-05-01T17:55:12.999Z</time></trkpt><trkpt lat="45.05438160300056" lon="9.745750262036612"><ele>46.0</ele><time>2026-05-01T17:55:13.999Z</time></trkpt><trkpt lat="45.05458764858361" lon="9.745551318570868"><ele>46.0</ele><time>2026-05-01T17:55:14.999Z</time></trkpt><trkpt lat="45.05479527586746" lon="9.74535066460568"><ele>46.0</ele><time>2026-05-01T17:55:15.999Z</time></trkpt><trkpt lat="45.055005319251826" lon="9.74514905725148"><ele>46.0</ele><time>2026-05-01T17:55:16.999Z</time></trkpt><trkpt lat="45.055215714143316" lon="9.744943399028589"><ele>46.0</ele><time>2026-05-01T17:55:17.999Z</time></trkpt><trkpt lat="45.05542155750108" lon="9.74474378228798"><ele>46.0</ele><time>2026-05-01T17:55:18.999Z</time></trkpt><trkpt lat="45.05562860600642" lon="9.744535755248677"><ele>46.0</ele><time>2026-05-01T17:55:19.999Z</time></trkpt><trkpt lat="45.05583781427418" lon="9.744333445904312"><ele>46.0</ele><time>2026-05-01T17:55:20.999Z</time></trkpt><trkpt lat="45.0560446316988" lon="9.744129333801022"><ele>46.0</ele><time>2026-05-01T17:55:21.999Z</time></trkpt><trkpt lat="45.056250287435766" lon="9.743924839524109"><ele>46.0</ele><time>2026-05-01T17:55:22.999Z</time></trkpt><trkpt lat="45.0564556914323" lon="9.743719828957838"><ele>46.0</ele><time>2026-05-01T17:55:23.999Z</time></trkpt><trkpt lat="45.056661412918466" lon="9.743517587461364"><ele>45.5</ele><time>2026-05-01T17:55:24.999Z</time></trkpt><trkpt lat="45.0568677769613" lon="9.743314310123358"><ele>45.0</ele><time>2026-05-01T17:55:25.999Z</time></trkpt><trkpt lat="45.0570746597952" lon="9.743103296748139"><ele>45.0</ele><time>2026-05-01T17:55:26.999Z</time></trkpt><trkpt lat="45.05728537942329" lon="9.742890905683655"><ele>45.0</ele><time>2026-05-01T17:55:27.999Z</time></trkpt><trkpt lat="45.05749734250953" lon="9.74267397294198"><ele>46.5</ele><time>2026-05-01T17:55:28.999Z</time></trkpt><trkpt lat="45.05770889847497" lon="9.742461727657489"><ele>48.0</ele><time>2026-05-01T17:55:29.999Z</time></trkpt><trkpt lat="45.05792377185091" lon="9.742252643679919"><ele>48.0</ele><time>2026-05-01T17:55:30.999Z</time></trkpt><trkpt lat="45.058136994853754" lon="9.742042308091145"><ele>48.0</ele><time>2026-05-01T17:55:31.999Z</time></trkpt><trkpt lat="45.05834833092285" lon="9.741833220137563"><ele>47.0</ele><time>2026-05-01T17:55:32.999Z</time></trkpt><trkpt lat="45.05855838004492" lon="9.741622503274357"><ele>46.0</ele><time>2026-05-01T17:55:33.999Z</time></trkpt><trkpt lat="45.058768672102495" lon="9.741416803846159"><ele>46.0</ele><time>2026-05-01T17:55:34.999Z</time></trkpt><trkpt lat="45.05897827113506" lon="9.741215194439905"><ele>46.0</ele><time>2026-05-01T17:55:35.999Z</time></trkpt><trkpt lat="45.059186233205885" lon="9.741017475305624"><ele>46.0</ele><time>2026-05-01T17:55:36.999Z</time></trkpt><trkpt lat="45.0593907218646" lon="9.74082409922133"><ele>46.0</ele><time>2026-05-01T17:55:37.999Z</time></trkpt><trkpt lat="45.05959399689607" lon="9.740633490737087"><ele>46.0</ele><time>2026-05-01T17:55:38.999Z</time></trkpt><trkpt lat="45.0597924873776" lon="9.740442896152048"><ele>46.0</ele><time>2026-05-01T17:55:39.999Z</time></trkpt><trkpt lat="45.05998599800982" lon="9.740244784346075"><ele>46.5</ele><time>2026-05-01T17:55:41Z</time></trkpt><trkpt lat="45.060180563977184" lon="9.740047656034111"><ele>47.0</ele><time>2026-05-01T17:55:42Z</time></trkpt><trkpt lat="45.060370322535405" lon="9.73985050113539"><ele>47.0</ele><time>2026-05-01T17:55:43Z</time></trkpt><trkpt lat="45.06055785187841" lon="9.739658505842174"><ele>47.0</ele><time>2026-05-01T17:55:44Z</time></trkpt><trkpt lat="45.060738272261766" lon="9.739466883475375"><ele>49.5</ele><time>2026-05-01T17:55:45Z</time></trkpt><trkpt lat="45.06092445697432" lon="9.739281891767844"><ele>52.0</ele><time>2026-05-01T17:55:46Z</time></trkpt><trkpt lat="45.061110088646885" lon="9.73909322703994"><ele>52.0</ele><time>2026-05-01T17:55:47Z</time></trkpt><trkpt lat="45.061294455349845" lon="9.738904893441697"><ele>52.0</ele><time>2026-05-01T17:55:48Z</time></trkpt><trkpt lat="45.06147936147345" lon="9.738711432772838"><ele>53.5</ele><time>2026-05-01T17:55:49Z</time></trkpt><trkpt lat="45.061670218435644" lon="9.73852176454723"><ele>55.0</ele><time>2026-05-01T17:55:50Z</time></trkpt><trkpt lat="45.06186188471263" lon="9.73832873742972"><ele>55.0</ele><time>2026-05-01T17:55:51Z</time></trkpt><trkpt lat="45.06205769768055" lon="9.738134175085577"><ele>55.0</ele><time>2026-05-01T17:55:52Z</time></trkpt><trkpt lat="45.06225661843182" lon="9.737936348818012"><ele>55.0</ele><time>2026-05-01T17:55:53Z</time></trkpt><trkpt lat="45.06245881861287" lon="9.737737011657558"><ele>55.0</ele><time>2026-05-01T17:55:54Z</time></trkpt><trkpt lat="45.06266180678195" lon="9.737534595922979"><ele>53.5</ele><time>2026-05-01T17:55:55Z</time></trkpt><trkpt lat="45.06286822234082" lon="9.737329786764471"><ele>52.0</ele><time>2026-05-01T17:55:56Z</time></trkpt><trkpt lat="45.0630757492749" lon="9.737123310287505"><ele>52.0</ele><time>2026-05-01T17:55:57Z</time></trkpt><trkpt lat="45.06328595399158" lon="9.73691876454954"><ele>52.0</ele><time>2026-05-01T17:55:58Z</time></trkpt><trkpt lat="45.06349736157297" lon="9.73671420575882"><ele>50.5</ele><time>2026-05-01T17:55:59Z</time></trkpt><trkpt lat="45.06370575940429" lon="9.736508270381938"><ele>49.0</ele><time>2026-05-01T17:56:00Z</time></trkpt><trkpt lat="45.063912211721075" lon="9.736300004566987"><ele>49.5</ele><time>2026-05-01T17:56:01Z</time></trkpt><trkpt lat="45.06411866122015" lon="9.73609542235891"><ele>50.0</ele><time>2026-05-01T17:56:02Z</time></trkpt><trkpt lat="45.06432241926991" lon="9.735895401810422"><ele>49.0</ele><time>2026-05-01T17:56:03Z</time></trkpt><trkpt lat="45.06452413001589" lon="9.73569669076069"><ele>48.0</ele><time>2026-05-01T17:56:04Z</time></trkpt><trkpt lat="45.06472576440389" lon="9.735500849671766"><ele>48.0</ele><time>2026-05-01T17:56:05Z</time></trkpt><trkpt lat="45.06492324836393" lon="9.735302484769116"><ele>48.0</ele><time>2026-05-01T17:56:06Z</time></trkpt><trkpt lat="45.06511915423672" lon="9.735105059128784"><ele>44.5</ele><time>2026-05-01T17:56:07Z</time></trkpt><trkpt lat="45.06531583358535" lon="9.734908877776885"><ele>41.0</ele><time>2026-05-01T17:56:08Z</time></trkpt><trkpt lat="45.06551346942069" lon="9.734713642591787"><ele>41.0</ele><time>2026-05-01T17:56:09Z</time></trkpt><trkpt lat="45.06571138392249" lon="9.734514694759614"><ele>41.0</ele><time>2026-05-01T17:56:10Z</time></trkpt><trkpt lat="45.06590947389374" lon="9.7343166832456"><ele>41.0</ele><time>2026-05-01T17:56:11Z</time></trkpt><trkpt lat="45.06610770272253" lon="9.73411744228888"><ele>41.0</ele><time>2026-05-01T17:56:12Z</time></trkpt><trkpt lat="45.06630986851441" lon="9.733917948124565"><ele>41.0</ele><time>2026-05-01T17:56:13Z</time></trkpt><trkpt lat="45.06651188963236" lon="9.733721555796919"><ele>41.0</ele><time>2026-05-01T17:56:14Z</time></trkpt><trkpt lat="45.066717066044994" lon="9.73352676747111"><ele>42.0</ele><time>2026-05-01T17:56:15Z</time></trkpt><trkpt lat="45.06691948679473" lon="9.733326274066695"><ele>43.0</ele><time>2026-05-01T17:56:16Z</time></trkpt><trkpt lat="45.06712409287661" lon="9.733125215875997"><ele>43.0</ele><time>2026-05-01T17:56:17Z</time></trkpt><trkpt lat="45.06732642639634" lon="9.73292443557695"><ele>43.0</ele><time>2026-05-01T17:56:18Z</time></trkpt><trkpt lat="45.0675301528823" lon="9.73271927749856"><ele>47.0</ele><time>2026-05-01T17:56:19Z</time></trkpt><trkpt lat="45.06773276399662" lon="9.732517361512626"><ele>51.0</ele><time>2026-05-01T17:56:20Z</time></trkpt><trkpt lat="45.067935130925214" lon="9.732319317441611"><ele>51.0</ele><time>2026-05-01T17:56:21Z</time></trkpt><trkpt lat="45.06813851172036" lon="9.732121427123934"><ele>51.0</ele><time>2026-05-01T17:56:22Z</time></trkpt><trkpt lat="45.0683421654339" lon="9.731920119538671"><ele>49.5</ele><time>2026-05-01T17:56:23Z</time></trkpt><trkpt lat="45.06854365882424" lon="9.731718398560151"><ele>48.0</ele><time>2026-05-01T17:56:24Z</time></trkpt><trkpt lat="45.068744977326496" lon="9.731518396071257"><ele>48.0</ele><time>2026-05-01T17:56:25Z</time></trkpt><trkpt lat="45.06894737809425" lon="9.731317851581013"><ele>48.0</ele><time>2026-05-01T17:56:26Z</time></trkpt><trkpt lat="45.06915129067573" lon="9.731120240589235"><ele>48.0</ele><time>2026-05-01T17:56:27Z</time></trkpt><trkpt lat="45.06935495050298" lon="9.73092117197967"><ele>48.0</ele><time>2026-05-01T17:56:28Z</time></trkpt><trkpt lat="45.06955566011778" lon="9.730718184799187"><ele>48.0</ele><time>2026-05-01T17:56:29Z</time></trkpt><trkpt lat="45.06975804294196" lon="9.730521853880953"><ele>48.0</ele><time>2026-05-01T17:56:30Z</time></trkpt><trkpt lat="45.06996237661395" lon="9.730324044270091"><ele>47.5</ele><time>2026-05-01T17:56:31Z</time></trkpt><trkpt lat="45.07016637169722" lon="9.73012507977562"><ele>47.0</ele><time>2026-05-01T17:56:32Z</time></trkpt><trkpt lat="45.070368987893076" lon="9.729924057513571"><ele>47.0</ele><time>2026-05-01T17:56:33Z</time></trkpt><trkpt lat="45.070571502970466" lon="9.729722692696248"><ele>47.0</ele><time>2026-05-01T17:56:34Z</time></trkpt><trkpt lat="45.07077415129068" lon="9.729521894192898"><ele>48.0</ele><time>2026-05-01T17:56:35Z</time></trkpt><trkpt lat="45.0709761561451" lon="9.7293201915487"><ele>49.0</ele><time>2026-05-01T17:56:36Z</time></trkpt><trkpt lat="45.071178542961675" lon="9.729121395088912"><ele>49.0</ele><time>2026-05-01T17:56:37Z</time></trkpt><trkpt lat="45.071383404352154" lon="9.728918248182904"><ele>49.0</ele><time>2026-05-01T17:56:38Z</time></trkpt><trkpt lat="45.07158774714519" lon="9.728713992671594"><ele>49.5</ele><time>2026-05-01T17:56:39Z</time></trkpt><trkpt lat="45.07178978572849" lon="9.72850556805766"><ele>50.0</ele><time>2026-05-01T17:56:40Z</time></trkpt><trkpt lat="45.07199045753321" lon="9.72830018338323"><ele>50.0</ele><time>2026-05-01T17:56:41Z</time></trkpt><trkpt lat="45.07219144212065" lon="9.728095316954136"><ele>50.0</ele><time>2026-05-01T17:56:42Z</time></trkpt><trkpt lat="45.072391577187126" lon="9.727887973359225"><ele>49.5</ele><time>2026-05-01T17:56:43Z</time></trkpt><trkpt lat="45.07258966893385" lon="9.72768083703791"><ele>49.0</ele><time>2026-05-01T17:56:44Z</time></trkpt><trkpt lat="45.07278342698032" lon="9.727477889981438"><ele>49.0</ele><time>2026-05-01T17:56:45Z</time></trkpt><trkpt lat="45.07297523333836" lon="9.727269653829714"><ele>49.0</ele><time>2026-05-01T17:56:46Z</time></trkpt><trkpt lat="45.07317085017451" lon="9.727065321390821"><ele>48.0</ele><time>2026-05-01T17:56:47Z</time></trkpt><trkpt lat="45.07337062616353" lon="9.72686432779419"><ele>47.0</ele><time>2026-05-01T17:56:48Z</time></trkpt><trkpt lat="45.073570072514606" lon="9.726664547885798"><ele>47.0</ele><time>2026-05-01T17:56:49Z</time></trkpt><trkpt lat="45.07377198071982" lon="9.726466495827415"><ele>47.0</ele><time>2026-05-01T17:56:50Z</time></trkpt><trkpt lat="45.07397172554176" lon="9.726266641715053"><ele>47.0</ele><time>2026-05-01T17:56:51Z</time></trkpt><trkpt lat="45.0741719652504" lon="9.726068702437738"><ele>47.0</ele><time>2026-05-01T17:56:52Z</time></trkpt><trkpt lat="45.07437258560595" lon="9.725869331849028"><ele>48.0</ele><time>2026-05-01T17:56:53Z</time></trkpt><trkpt lat="45.07457335811841" lon="9.725666488373289"><ele>49.0</ele><time>2026-05-01T17:56:54Z</time></trkpt><trkpt lat="45.074776085627626" lon="9.725464547141629"><ele>48.5</ele><time>2026-05-01T17:56:55Z</time></trkpt><trkpt lat="45.074979318755425" lon="9.725260786281849"><ele>48.0</ele><time>2026-05-01T17:56:56Z</time></trkpt><trkpt lat="45.075187188787396" lon="9.725055048968944"><ele>48.0</ele><time>2026-05-01T17:56:57Z</time></trkpt><trkpt lat="45.07539480360152" lon="9.72484932227331"><ele>48.0</ele><time>2026-05-01T17:56:58Z</time></trkpt><trkpt lat="45.075604401644156" lon="9.724643016588502"><ele>47.5</ele><time>2026-05-01T17:56:59Z</time></trkpt><trkpt lat="45.075818565175574" lon="9.724440596512496"><ele>47.0</ele><time>2026-05-01T17:57:00Z</time></trkpt><trkpt lat="45.07602946546411" lon="9.724231726620964"><ele>47.0</ele><time>2026-05-01T17:57:01Z</time></trkpt><trkpt lat="45.07623719919147" lon="9.72401776093396"><ele>47.0</ele><time>2026-05-01T17:57:02Z</time></trkpt><trkpt lat="45.07644939812388" lon="9.72380286457249"><ele>46.5</ele><time>2026-05-01T17:57:03Z</time></trkpt><trkpt lat="45.07666570368787" lon="9.723588183652039"><ele>46.0</ele><time>2026-05-01T17:57:04Z</time></trkpt><trkpt lat="45.076887294003235" lon="9.723371780258304"><ele>46.0</ele><time>2026-05-01T17:57:05Z</time></trkpt><trkpt lat="45.077110326218666" lon="9.723156884891457"><ele>46.0</ele><time>2026-05-01T17:57:06Z</time></trkpt><trkpt lat="45.077332793462" lon="9.72293986157847"><ele>46.5</ele><time>2026-05-01T17:57:07Z</time></trkpt><trkpt lat="45.077555343068745" lon="9.72271774348526"><ele>47.0</ele><time>2026-05-01T17:57:08Z</time></trkpt><trkpt lat="45.07777958368336" lon="9.722493104827047"><ele>47.0</ele><time>2026-05-01T17:57:09Z</time></trkpt><trkpt lat="45.0780049379631" lon="9.722274064830804"><ele>47.0</ele><time>2026-05-01T17:57:10Z</time></trkpt><trkpt lat="45.078227864077576" lon="9.72204965827434"><ele>47.0</ele><time>2026-05-01T17:57:11Z</time></trkpt><trkpt lat="45.07844884502196" lon="9.721822950410154"><ele>47.0</ele><time>2026-05-01T17:57:12Z</time></trkpt><trkpt lat="45.078670024208385" lon="9.721591230954257"><ele>47.0</ele><time>2026-05-01T17:57:13Z</time></trkpt><trkpt lat="45.0788920471085" lon="9.721361449169155"><ele>47.0</ele><time>2026-05-01T17:57:14Z</time></trkpt><trkpt lat="45.079112410966495" lon="9.721130525005126"><ele>47.5</ele><time>2026-05-01T17:57:15Z</time></trkpt><trkpt lat="45.07932959010593" lon="9.72089721955343"><ele>48.0</ele><time>2026-05-01T17:57:16Z</time></trkpt><trkpt lat="45.079546443188605" lon="9.720660958825711"><ele>48.0</ele><time>2026-05-01T17:57:17Z</time></trkpt><trkpt lat="45.079762683181016" lon="9.720426404124161"><ele>48.0</ele><time>2026-05-01T17:57:18Z</time></trkpt><trkpt lat="45.079981152976714" lon="9.720196195078476"><ele>47.5</ele><time>2026-05-01T17:57:19Z</time></trkpt><trkpt lat="45.080199941893426" lon="9.71996771835091"><ele>47.0</ele><time>2026-05-01T17:57:20Z</time></trkpt><trkpt lat="45.08041724489178" lon="9.71973754839219"><ele>47.0</ele><time>2026-05-01T17:57:21Z</time></trkpt><trkpt lat="45.08063217755136" lon="9.719505355899448"><ele>47.0</ele><time>2026-05-01T17:57:22Z</time></trkpt><trkpt lat="45.08084776451147" lon="9.71927442021331"><ele>47.0</ele><time>2026-05-01T17:57:23Z</time></trkpt><trkpt lat="45.08106380013751" lon="9.719045364554251"><ele>47.0</ele><time>2026-05-01T17:57:24Z</time></trkpt><trkpt lat="45.0812805297647" lon="9.718818795708957"><ele>47.0</ele><time>2026-05-01T17:57:25Z</time></trkpt><trkpt lat="45.081496832970956" lon="9.718590904726979"><ele>47.0</ele><time>2026-05-01T17:57:26Z</time></trkpt><trkpt lat="45.08171095876596" lon="9.718360439525332"><ele>48.0</ele><time>2026-05-01T17:57:27Z</time></trkpt><trkpt lat="45.081926384989146" lon="9.718131016522818"><ele>49.0</ele><time>2026-05-01T17:57:28Z</time></trkpt><trkpt lat="45.08214497328719" lon="9.71790021421808"><ele>49.0</ele><time>2026-05-01T17:57:29Z</time></trkpt><trkpt lat="45.08235973121075" lon="9.717664496004483"><ele>49.0</ele><time>2026-05-01T17:57:30Z</time></trkpt><trkpt lat="45.082574849411216" lon="9.717431200832323"><ele>49.0</ele><time>2026-05-01T17:57:31Z</time></trkpt><trkpt lat="45.08278952115257" lon="9.717201309553685"><ele>49.0</ele><time>2026-05-01T17:57:32Z</time></trkpt><trkpt lat="45.08300406482501" lon="9.7169707258825"><ele>49.0</ele><time>2026-05-01T17:57:33Z</time></trkpt><trkpt lat="45.08321640070023" lon="9.716740320574914"><ele>49.0</ele><time>2026-05-01T17:57:34Z</time></trkpt><trkpt lat="45.0834283151093" lon="9.716512304816439"><ele>48.5</ele><time>2026-05-01T17:57:35Z</time></trkpt><trkpt lat="45.083634981488416" lon="9.716284394380777"><ele>48.0</ele><time>2026-05-01T17:57:36Z</time></trkpt><trkpt lat="45.08384306807075" lon="9.716055622495306"><ele>48.0</ele><time>2026-05-01T17:57:37Z</time></trkpt><trkpt lat="45.08404767114137" lon="9.715829091468782"><ele>48.0</ele><time>2026-05-01T17:57:38Z</time></trkpt><trkpt lat="45.08425284886224" lon="9.715608574624762"><ele>48.0</ele><time>2026-05-01T17:57:39Z</time></trkpt><trkpt lat="45.08445703152725" lon="9.715389299767311"><ele>48.0</ele><time>2026-05-01T17:57:40Z</time></trkpt><trkpt lat="45.08466222043324" lon="9.71517000872991"><ele>47.5</ele><time>2026-05-01T17:57:41Z</time></trkpt><trkpt lat="45.08486601287306" lon="9.714950895422978"><ele>47.0</ele><time>2026-05-01T17:57:42Z</time></trkpt><trkpt lat="45.08506819839927" lon="9.714733834585589"><ele>47.0</ele><time>2026-05-01T17:57:43Z</time></trkpt><trkpt lat="45.085271363933224" lon="9.714517897137544"><ele>47.0</ele><time>2026-05-01T17:57:44Z</time></trkpt><trkpt lat="45.08547590130303" lon="9.714299452038334"><ele>47.0</ele><time>2026-05-01T17:57:45Z</time></trkpt><trkpt lat="45.08567924707609" lon="9.714083740555957"><ele>47.0</ele><time>2026-05-01T17:57:46Z</time></trkpt><trkpt lat="45.085881388240146" lon="9.71386626475933"><ele>47.0</ele><time>2026-05-01T17:57:47Z</time></trkpt><trkpt lat="45.08608203452269" lon="9.713650247850605"><ele>47.0</ele><time>2026-05-01T17:57:48Z</time></trkpt><trkpt lat="45.08628306440085" lon="9.713433130644244"><ele>47.0</ele><time>2026-05-01T17:57:49Z</time></trkpt><trkpt lat="45.08648446593723" lon="9.713215867893908"><ele>47.0</ele><time>2026-05-01T17:57:50Z</time></trkpt><trkpt lat="45.08668716196694" lon="9.71300130238623"><ele>47.0</ele><time>2026-05-01T17:57:51Z</time></trkpt><trkpt lat="45.08688800346299" lon="9.712785838774401"><ele>47.0</ele><time>2026-05-01T17:57:52Z</time></trkpt><trkpt lat="45.087092653608984" lon="9.71257516467091"><ele>46.5</ele><time>2026-05-01T17:57:53Z</time></trkpt><trkpt lat="45.0872956213588" lon="9.712360050951183"><ele>46.0</ele><time>2026-05-01T17:57:54Z</time></trkpt><trkpt lat="45.08749431170125" lon="9.712142672168545"><ele>46.0</ele><time>2026-05-01T17:57:55Z</time></trkpt><trkpt lat="45.08769537004078" lon="9.711924990797726"><ele>46.0</ele><time>2026-05-01T17:57:56Z</time></trkpt><trkpt lat="45.08789807787387" lon="9.711707860590069"><ele>46.0</ele><time>2026-05-01T17:57:57Z</time></trkpt><trkpt lat="45.08809856023922" lon="9.711491462006348"><ele>46.0</ele><time>2026-05-01T17:57:58Z</time></trkpt><trkpt lat="45.08829911077595" lon="9.711274832172704"><ele>46.0</ele><time>2026-05-01T17:57:59Z</time></trkpt><trkpt lat="45.0884992800982" lon="9.711059026131435"><ele>46.0</ele><time>2026-05-01T17:58:00Z</time></trkpt><trkpt lat="45.08870298849348" lon="9.710845308875301"><ele>46.0</ele><time>2026-05-01T17:58:01Z</time></trkpt><trkpt lat="45.088908207096296" lon="9.710629209811888"><ele>46.0</ele><time>2026-05-01T17:58:02Z</time></trkpt><trkpt lat="45.08910909972452" lon="9.710409613447716"><ele>45.5</ele><time>2026-05-01T17:58:03Z</time></trkpt><trkpt lat="45.08930969931817" lon="9.710191070065855"><ele>45.0</ele><time>2026-05-01T17:58:04Z</time></trkpt><trkpt lat="45.089508304655325" lon="9.70997884114246"><ele>45.0</ele><time>2026-05-01T17:58:05Z</time></trkpt><trkpt lat="45.08970409033213" lon="9.70977082649802"><ele>45.0</ele><time>2026-05-01T17:58:06Z</time></trkpt><trkpt lat="45.08989747082867" lon="9.709563706941886"><ele>43.5</ele><time>2026-05-01T17:58:07Z</time></trkpt><trkpt lat="45.09009058882986" lon="9.70935382358908"><ele>42.0</ele><time>2026-05-01T17:58:08Z</time></trkpt><trkpt lat="45.09028516366583" lon="9.709144938038893"><ele>42.0</ele><time>2026-05-01T17:58:09Z</time></trkpt><trkpt lat="45.09047728772186" lon="9.708934350513108"><ele>42.0</ele><time>2026-05-01T17:58:10Z</time></trkpt><trkpt lat="45.09066753864289" lon="9.70871682189423"><ele>42.5</ele><time>2026-05-01T17:58:11Z</time></trkpt><trkpt lat="45.090858838202564" lon="9.70850306966249"><ele>43.0</ele><time>2026-05-01T17:58:12Z</time></trkpt><trkpt lat="45.09104978471744" lon="9.708289923894862"><ele>43.0</ele><time>2026-05-01T17:58:13Z</time></trkpt><trkpt lat="45.09124100239458" lon="9.70807806315436"><ele>43.0</ele><time>2026-05-01T17:58:14Z</time></trkpt><trkpt lat="45.09143568272197" lon="9.707867490235017"><ele>45.0</ele><time>2026-05-01T17:58:15Z</time></trkpt><trkpt lat="45.09163107114215" lon="9.707658016586233"><ele>47.0</ele><time>2026-05-01T17:58:16Z</time></trkpt><trkpt lat="45.09182783245574" lon="9.707443539914397"><ele>47.0</ele><time>2026-05-01T17:58:17Z</time></trkpt><trkpt lat="45.092023122966374" lon="9.707228505325137"><ele>47.0</ele><time>2026-05-01T17:58:18Z</time></trkpt><trkpt lat="45.09222256569387" lon="9.70701801033658"><ele>46.5</ele><time>2026-05-01T17:58:19Z</time></trkpt><trkpt lat="45.09242254801341" lon="9.706801478065588"><ele>46.0</ele><time>2026-05-01T17:58:20Z</time></trkpt><trkpt lat="45.092623923540685" lon="9.706586603307747"><ele>45.0</ele><time>2026-05-01T17:58:21Z</time></trkpt><trkpt lat="45.09282613158569" lon="9.706370333077166"><ele>44.0</ele><time>2026-05-01T17:58:22Z</time></trkpt><trkpt lat="45.09302854710094" lon="9.706153646253744"><ele>44.0</ele><time>2026-05-01T17:58:23Z</time></trkpt><trkpt lat="45.09323025740082" lon="9.705936869469031"><ele>44.0</ele><time>2026-05-01T17:58:24Z</time></trkpt><trkpt lat="45.09343278308376" lon="9.70572022048229"><ele>44.0</ele><time>2026-05-01T17:58:25Z</time></trkpt><trkpt lat="45.09363537037335" lon="9.705501439977345"><ele>44.0</ele><time>2026-05-01T17:58:26Z</time></trkpt><trkpt lat="45.09383774605851" lon="9.705279350415696"><ele>44.0</ele><time>2026-05-01T17:58:27Z</time></trkpt><trkpt lat="45.09403768524746" lon="9.705053828457109"><ele>44.0</ele><time>2026-05-01T17:58:28Z</time></trkpt><trkpt lat="45.09423782378311" lon="9.70482524079947"><ele>44.0</ele><time>2026-05-01T17:58:29Z</time></trkpt><trkpt lat="45.094439599593215" lon="9.704597171976229"><ele>44.0</ele><time>2026-05-01T17:58:30Z</time></trkpt><trkpt lat="45.09464507013365" lon="9.70436764739178"><ele>44.5</ele><time>2026-05-01T17:58:31Z</time></trkpt><trkpt lat="45.09485438172393" lon="9.704140739557914"><ele>45.0</ele><time>2026-05-01T17:58:32Z</time></trkpt><trkpt lat="45.09506239339062" lon="9.703911771840632"><ele>45.0</ele><time>2026-05-01T17:58:33Z</time></trkpt><trkpt lat="45.095272439332845" lon="9.703680698872983"><ele>45.0</ele><time>2026-05-01T17:58:34Z</time></trkpt><trkpt lat="45.09548361788901" lon="9.703454590017078"><ele>44.5</ele><time>2026-05-01T17:58:35Z</time></trkpt><trkpt lat="45.095699608734144" lon="9.703231674791487"><ele>44.0</ele><time>2026-05-01T17:58:36Z</time></trkpt><trkpt lat="45.095918027002355" lon="9.703019011679475"><ele>44.0</ele><time>2026-05-01T17:58:37Z</time></trkpt><trkpt lat="45.096134265613145" lon="9.702805071670776"><ele>44.0</ele><time>2026-05-01T17:58:38Z</time></trkpt><trkpt lat="45.09634657215135" lon="9.702589702232437"><ele>44.0</ele><time>2026-05-01T17:58:39Z</time></trkpt><trkpt lat="45.09656439080614" lon="9.702364170611405"><ele>44.0</ele><time>2026-05-01T17:58:40Z</time></trkpt><trkpt lat="45.096772813230736" lon="9.702137400016097"><ele>44.5</ele><time>2026-05-01T17:58:41Z</time></trkpt><trkpt lat="45.09698213697568" lon="9.701910820536327"><ele>45.0</ele><time>2026-05-01T17:58:42Z</time></trkpt><trkpt lat="45.097191483867974" lon="9.701684094889378"><ele>45.0</ele><time>2026-05-01T17:58:43Z</time></trkpt><trkpt lat="45.097400714887854" lon="9.701459871692297"><ele>45.0</ele><time>2026-05-01T17:58:44Z</time></trkpt><trkpt lat="45.09761062391204" lon="9.701233012705908"><ele>44.0</ele><time>2026-05-01T17:58:45Z</time></trkpt><trkpt lat="45.097817822964224" lon="9.701009579830371"><ele>43.0</ele><time>2026-05-01T17:58:46Z</time></trkpt><trkpt lat="45.098025765446884" lon="9.700786654405384"><ele>43.0</ele><time>2026-05-01T17:58:47Z</time></trkpt><trkpt lat="45.098234474613044" lon="9.700564142318864"><ele>43.0</ele><time>2026-05-01T17:58:48Z</time></trkpt><trkpt lat="45.09844215162094" lon="9.700339759822093"><ele>43.0</ele><time>2026-05-01T17:58:49Z</time></trkpt><trkpt lat="45.098650926876104" lon="9.700117631425671"><ele>43.0</ele><time>2026-05-01T17:58:50Z</time></trkpt><trkpt lat="45.09885885132306" lon="9.699894632519838"><ele>43.0</ele><time>2026-05-01T17:58:51Z</time></trkpt><trkpt lat="45.099067039106146" lon="9.699670595271014"><ele>43.0</ele><time>2026-05-01T17:58:52Z</time></trkpt><trkpt lat="45.09927555126116" lon="9.699443302761146"><ele>44.0</ele><time>2026-05-01T17:58:53Z</time></trkpt><trkpt lat="45.09948523280136" lon="9.699215314869882"><ele>45.0</ele><time>2026-05-01T17:58:54Z</time></trkpt><trkpt lat="45.09969670881534" lon="9.69898626416392"><ele>45.0</ele><time>2026-05-01T17:58:55Z</time></trkpt><trkpt lat="45.099908707540784" lon="9.69875821120507"><ele>45.0</ele><time>2026-05-01T17:58:56Z</time></trkpt><trkpt lat="45.10012165110187" lon="9.698526919468359"><ele>46.5</ele><time>2026-05-01T17:58:57Z</time></trkpt><trkpt lat="45.100333681629856" lon="9.698296755642577"><ele>48.0</ele><time>2026-05-01T17:58:58Z</time></trkpt><trkpt lat="45.100545251408775" lon="9.698067800764544"><ele>47.0</ele><time>2026-05-01T17:58:59Z</time></trkpt><trkpt lat="45.100753639424944" lon="9.69784235549176"><ele>46.0</ele><time>2026-05-01T17:59:00Z</time></trkpt><trkpt lat="45.100967152682344" lon="9.69761100883921"><ele>46.0</ele><time>2026-05-01T17:59:01Z</time></trkpt><trkpt lat="45.10118422651331" lon="9.697383872053981"><ele>46.0</ele><time>2026-05-01T17:59:02Z</time></trkpt><trkpt lat="45.101399658097414" lon="9.69715031877677"><ele>45.0</ele><time>2026-05-01T17:59:03Z</time></trkpt><trkpt lat="45.10161264301227" lon="9.696922269203014"><ele>44.0</ele><time>2026-05-01T17:59:04Z</time></trkpt><trkpt lat="45.10182448566433" lon="9.696692820993848"><ele>44.0</ele><time>2026-05-01T17:59:05Z</time></trkpt><trkpt lat="45.102035965917075" lon="9.696463988842208"><ele>44.0</ele><time>2026-05-01T17:59:06Z</time></trkpt><trkpt lat="45.10224510425748" lon="9.696232490701933"><ele>44.5</ele><time>2026-05-01T17:59:07Z</time></trkpt><trkpt lat="45.10245627346475" lon="9.696006668281798"><ele>45.0</ele><time>2026-05-01T17:59:08Z</time></trkpt><trkpt lat="45.10266783311032" lon="9.695779405645931"><ele>45.0</ele><time>2026-05-01T17:59:09Z</time></trkpt><trkpt lat="45.1028758855327" lon="9.69555887785096"><ele>45.0</ele><time>2026-05-01T17:59:10Z</time></trkpt><trkpt lat="45.10308604280386" lon="9.695332813292799"><ele>45.0</ele><time>2026-05-01T17:59:11Z</time></trkpt><trkpt lat="45.10329390085262" lon="9.695106136154907"><ele>45.0</ele><time>2026-05-01T17:59:12Z</time></trkpt><trkpt lat="45.10350353096972" lon="9.694882378685469"><ele>45.0</ele><time>2026-05-01T17:59:13Z</time></trkpt><trkpt lat="45.103712882337085" lon="9.694658273988608"><ele>45.0</ele><time>2026-05-01T17:59:14Z</time></trkpt><trkpt lat="45.10392101785021" lon="9.694435208394914"><ele>45.5</ele><time>2026-05-01T17:59:15Z</time></trkpt><trkpt lat="45.10413075997446" lon="9.694208617330954"><ele>46.0</ele><time>2026-05-01T17:59:16Z</time></trkpt><trkpt lat="45.10433483236161" lon="9.693986409603564"><ele>46.0</ele><time>2026-05-01T17:59:17Z</time></trkpt><trkpt lat="45.104537881699905" lon="9.693766333583147"><ele>46.0</ele><time>2026-05-01T17:59:18Z</time></trkpt><trkpt lat="45.10474002673313" lon="9.693551032976202"><ele>45.5</ele><time>2026-05-01T17:59:19Z</time></trkpt><trkpt lat="45.10494156429112" lon="9.693335814696242"><ele>45.0</ele><time>2026-05-01T17:59:20Z</time></trkpt><trkpt lat="45.1051420899503" lon="9.693123893348814"><ele>45.0</ele><time>2026-05-01T17:59:21Z</time></trkpt><trkpt lat="45.10534178269046" lon="9.692910535664836"><ele>45.0</ele><time>2026-05-01T17:59:22Z</time></trkpt><trkpt lat="45.105538578895676" lon="9.692700012316186"><ele>45.0</ele><time>2026-05-01T17:59:23Z</time></trkpt><trkpt lat="45.1057336807526" lon="9.69249068961346"><ele>45.0</ele><time>2026-05-01T17:59:24Z</time></trkpt><trkpt lat="45.105924687231564" lon="9.692284215059248"><ele>46.5</ele><time>2026-05-01T17:59:25Z</time></trkpt><trkpt lat="45.10611208296216" lon="9.692082159397165"><ele>48.0</ele><time>2026-05-01T17:59:26Z</time></trkpt><trkpt lat="45.10629838589296" lon="9.691887190455963"><ele>48.0</ele><time>2026-05-01T17:59:27Z</time></trkpt><trkpt lat="45.10648613577829" lon="9.691680005931326"><ele>48.0</ele><time>2026-05-01T17:59:28Z</time></trkpt><trkpt lat="45.10666986510072" lon="9.691481559922297"><ele>48.0</ele><time>2026-05-01T17:59:29Z</time></trkpt><trkpt lat="45.10685586224474" lon="9.691281615073452"><ele>48.0</ele><time>2026-05-01T17:59:30Z</time></trkpt><trkpt lat="45.10703584958521" lon="9.691078887118167"><ele>47.0</ele><time>2026-05-01T17:59:31Z</time></trkpt><trkpt lat="45.1072272903782" lon="9.69087888188787"><ele>46.0</ele><time>2026-05-01T17:59:32Z</time></trkpt><trkpt lat="45.10741927618324" lon="9.690671514407605"><ele>46.0</ele><time>2026-05-01T17:59:33Z</time></trkpt><trkpt lat="45.10760903838806" lon="9.690467974747788"><ele>46.0</ele><time>2026-05-01T17:59:33.999Z</time></trkpt><trkpt lat="45.10780145833136" lon="9.690260150022683"><ele>46.5</ele><time>2026-05-01T17:59:34.999Z</time></trkpt><trkpt lat="45.10799294240142" lon="9.690053097246917"><ele>47.0</ele><time>2026-05-01T17:59:35.999Z</time></trkpt><trkpt lat="45.10818550844645" lon="9.68984385872376"><ele>47.5</ele><time>2026-05-01T17:59:36.999Z</time></trkpt><trkpt lat="45.10837583656468" lon="9.689632888107086"><ele>48.0</ele><time>2026-05-01T17:59:37.999Z</time></trkpt><trkpt lat="45.10856678536614" lon="9.689422096734488"><ele>48.0</ele><time>2026-05-01T17:59:38.999Z</time></trkpt><trkpt lat="45.10876224613301" lon="9.689212273370249"><ele>48.0</ele><time>2026-05-01T17:59:39.999Z</time></trkpt><trkpt lat="45.108948344969754" lon="9.688998645402053"><ele>48.0</ele><time>2026-05-01T17:59:40.999Z</time></trkpt><trkpt lat="45.109136089980254" lon="9.68878585430891"><ele>48.0</ele><time>2026-05-01T17:59:41.999Z</time></trkpt><trkpt lat="45.109325398644145" lon="9.688567592850681"><ele>47.0</ele><time>2026-05-01T17:59:42.999Z</time></trkpt><trkpt lat="45.10951087043423" lon="9.688348844548269"><ele>46.0</ele><time>2026-05-01T17:59:43.999Z</time></trkpt><trkpt lat="45.109694787060015" lon="9.688126478222548"><ele>46.0</ele><time>2026-05-01T17:59:44.999Z</time></trkpt><trkpt lat="45.10987900192106" lon="9.687902287591657"><ele>46.0</ele><time>2026-05-01T17:59:45.999Z</time></trkpt><trkpt lat="45.110061138277004" lon="9.687677014360057"><ele>46.5</ele><time>2026-05-01T17:59:46.999Z</time></trkpt><trkpt lat="45.110244302888184" lon="9.687453316465406"><ele>47.0</ele><time>2026-05-01T17:59:47.999Z</time></trkpt><trkpt lat="45.11043094866071" lon="9.687225721489394"><ele>47.0</ele><time>2026-05-01T17:59:48.999Z</time></trkpt><trkpt lat="45.110614179479484" lon="9.686995796760284"><ele>47.0</ele><time>2026-05-01T17:59:49.999Z</time></trkpt><trkpt lat="45.11079683566867" lon="9.68676032616574"><ele>47.0</ele><time>2026-05-01T17:59:50.999Z</time></trkpt><trkpt lat="45.11097920436607" lon="9.686526029671983"><ele>47.0</ele><time>2026-05-01T17:59:51.999Z</time></trkpt><trkpt lat="45.11115282130595" lon="9.686290671678185"><ele>47.5</ele><time>2026-05-01T17:59:53Z</time></trkpt><trkpt lat="45.11132931511245" lon="9.686047513632104"><ele>48.0</ele><time>2026-05-01T17:59:54Z</time></trkpt><trkpt lat="45.111513106897235" lon="9.685807708149545"><ele>46.5</ele><time>2026-05-01T17:59:55Z</time></trkpt><trkpt lat="45.11169402026054" lon="9.685569509250305"><ele>45.0</ele><time>2026-05-01T17:59:56Z</time></trkpt><trkpt lat="45.11187172474951" lon="9.685329335901725"><ele>45.5</ele><time>2026-05-01T17:59:57Z</time></trkpt><trkpt lat="45.112052543683866" lon="9.685093298950658"><ele>46.0</ele><time>2026-05-01T17:59:58Z</time></trkpt><trkpt lat="45.112224355735" lon="9.684849360867846"><ele>46.0</ele><time>2026-05-01T17:59:59Z</time></trkpt><trkpt lat="45.11239733101434" lon="9.684603657793652"><ele>46.0</ele><time>2026-05-01T18:00:00Z</time></trkpt><trkpt lat="45.11257092833181" lon="9.684359376510582"><ele>45.5</ele><time>2026-05-01T18:00:01Z</time></trkpt><trkpt lat="45.112744734627995" lon="9.684112819267892"><ele>45.0</ele><time>2026-05-01T18:00:02Z</time></trkpt><trkpt lat="45.112916671439116" lon="9.683863637882236"><ele>45.0</ele><time>2026-05-01T18:00:03.001Z</time></trkpt><trkpt lat="45.11309033434092" lon="9.683612232524846"><ele>45.0</ele><time>2026-05-01T18:00:04.001Z</time></trkpt><trkpt lat="45.11326532683909" lon="9.683359399527"><ele>44.0</ele><time>2026-05-01T18:00:05.001Z</time></trkpt><trkpt lat="45.11343706562039" lon="9.683104388493817"><ele>43.0</ele><time>2026-05-01T18:00:06.001Z</time></trkpt><trkpt lat="45.113613129725145" lon="9.682852217170865"><ele>43.5</ele><time>2026-05-01T18:00:07.001Z</time></trkpt><trkpt lat="45.11378915794319" lon="9.682603242203584"><ele>44.0</ele><time>2026-05-01T18:00:08.001Z</time></trkpt><trkpt lat="45.113964523243375" lon="9.68235613117441"><ele>43.5</ele><time>2026-05-01T18:00:09.001Z</time></trkpt><trkpt lat="45.1141389021957" lon="9.682110076137578"><ele>43.0</ele><time>2026-05-01T18:00:10.001Z</time></trkpt><trkpt lat="45.11431338380987" lon="9.681863707721755"><ele>43.0</ele><time>2026-05-01T18:00:11Z</time></trkpt><trkpt lat="45.114486383999854" lon="9.681615429447506"><ele>43.0</ele><time>2026-05-01T18:00:12Z</time></trkpt><trkpt lat="45.11465681389402" lon="9.68136746597086"><ele>43.0</ele><time>2026-05-01T18:00:13Z</time></trkpt><trkpt lat="45.11482556727019" lon="9.681121310603977"><ele>43.0</ele><time>2026-05-01T18:00:14Z</time></trkpt><trkpt lat="45.11499724535806" lon="9.68087301171135"><ele>44.0</ele><time>2026-05-01T18:00:15Z</time></trkpt><trkpt lat="45.11516985131391" lon="9.680627361728115"><ele>45.0</ele><time>2026-05-01T18:00:16Z</time></trkpt><trkpt lat="45.11534275532525" lon="9.68038765081482"><ele>45.0</ele><time>2026-05-01T18:00:17Z</time></trkpt><trkpt lat="45.11551169927093" lon="9.680142081425222"><ele>45.0</ele><time>2026-05-01T18:00:18Z</time></trkpt><trkpt lat="45.11567911341154" lon="9.679894347971084"><ele>45.0</ele><time>2026-05-01T18:00:19Z</time></trkpt><trkpt lat="45.11584831811829" lon="9.679647853877674"><ele>45.0</ele><time>2026-05-01T18:00:20Z</time></trkpt><trkpt lat="45.11601746972711" lon="9.67940454115658"><ele>45.0</ele><time>2026-05-01T18:00:21Z</time></trkpt><trkpt lat="45.1161871622388" lon="9.679163696883863"><ele>45.0</ele><time>2026-05-01T18:00:22Z</time></trkpt><trkpt lat="45.11635528339126" lon="9.678920274497798"><ele>45.0</ele><time>2026-05-01T18:00:23Z</time></trkpt><trkpt lat="45.11652368740823" lon="9.678674476261257"><ele>45.0</ele><time>2026-05-01T18:00:24Z</time></trkpt><trkpt lat="45.11669199568862" lon="9.678427915538812"><ele>44.5</ele><time>2026-05-01T18:00:25Z</time></trkpt><trkpt lat="45.11685883722037" lon="9.678179574903577"><ele>44.0</ele><time>2026-05-01T18:00:26Z</time></trkpt><trkpt lat="45.11703318608529" lon="9.677941382742919"><ele>44.0</ele><time>2026-05-01T18:00:27Z</time></trkpt><trkpt lat="45.11720364615996" lon="9.677697015270878"><ele>44.0</ele><time>2026-05-01T18:00:28Z</time></trkpt><trkpt lat="45.11737380522537" lon="9.677452303112492"><ele>44.0</ele><time>2026-05-01T18:00:29Z</time></trkpt><trkpt lat="45.117545056187716" lon="9.677207610065146"><ele>44.0</ele><time>2026-05-01T18:00:30Z</time></trkpt><trkpt lat="45.11771416605604" lon="9.676962784629524"><ele>45.5</ele><time>2026-05-01T18:00:31Z</time></trkpt><trkpt lat="45.11788809619054" lon="9.676717847541841"><ele>47.0</ele><time>2026-05-01T18:00:32Z</time></trkpt><trkpt lat="45.11806265810768" lon="9.676477137301884"><ele>47.0</ele><time>2026-05-01T18:00:33Z</time></trkpt><trkpt lat="45.11823294890768" lon="9.676232924901191"><ele>47.0</ele><time>2026-05-01T18:00:34Z</time></trkpt><trkpt lat="45.11840445597726" lon="9.675984440761601"><ele>46.0</ele><time>2026-05-01T18:00:35Z</time></trkpt><trkpt lat="45.11857667130836" lon="9.675738461560135"><ele>45.0</ele><time>2026-05-01T18:00:36Z</time></trkpt><trkpt lat="45.11874990360516" lon="9.675493481744295"><ele>45.0</ele><time>2026-05-01T18:00:37Z</time></trkpt><trkpt lat="45.11892430786268" lon="9.675242461051633"><ele>45.0</ele><time>2026-05-01T18:00:38Z</time></trkpt><trkpt lat="45.11908819727901" lon="9.675001689663755"><ele>44.0</ele><time>2026-05-01T18:00:39Z</time></trkpt><trkpt lat="45.11925306279014" lon="9.674752790796498"><ele>43.0</ele><time>2026-05-01T18:00:40Z</time></trkpt><trkpt lat="45.11942465490239" lon="9.67450834259356"><ele>43.5</ele><time>2026-05-01T18:00:41Z</time></trkpt><trkpt lat="45.1195919861823" lon="9.674269144682718"><ele>44.0</ele><time>2026-05-01T18:00:42Z</time></trkpt><trkpt lat="45.11976135507845" lon="9.674031696216717"><ele>44.5</ele><time>2026-05-01T18:00:43Z</time></trkpt><trkpt lat="45.11993014599177" lon="9.673792596360201"><ele>45.0</ele><time>2026-05-01T18:00:44Z</time></trkpt><trkpt lat="45.12009813705706" lon="9.673549252918283"><ele>46.0</ele><time>2026-05-01T18:00:45Z</time></trkpt><trkpt lat="45.120267084655524" lon="9.673299620402933"><ele>47.0</ele><time>2026-05-01T18:00:46Z</time></trkpt><trkpt lat="45.12043639320633" lon="9.673052389878473"><ele>47.0</ele><time>2026-05-01T18:00:47Z</time></trkpt><trkpt lat="45.120606812289616" lon="9.672809217692414"><ele>47.0</ele><time>2026-05-01T18:00:48Z</time></trkpt><trkpt lat="45.12077829741638" lon="9.67256647075242"><ele>46.5</ele><time>2026-05-01T18:00:49Z</time></trkpt><trkpt lat="45.120951410937884" lon="9.672317752138612"><ele>46.0</ele><time>2026-05-01T18:00:50Z</time></trkpt><trkpt lat="45.12112596782226" lon="9.672068384210627"><ele>46.0</ele><time>2026-05-01T18:00:51Z</time></trkpt><trkpt lat="45.121302998704735" lon="9.67181376315545"><ele>46.0</ele><time>2026-05-01T18:00:52Z</time></trkpt><trkpt lat="45.12147712368067" lon="9.671555710721579"><ele>45.5</ele><time>2026-05-01T18:00:53Z</time></trkpt><trkpt lat="45.12165298869389" lon="9.671294016288712"><ele>45.0</ele><time>2026-05-01T18:00:54Z</time></trkpt><trkpt lat="45.121831306234135" lon="9.67103269032087"><ele>45.0</ele><time>2026-05-01T18:00:55Z</time></trkpt><trkpt lat="45.12200869896275" lon="9.670778855136161"><ele>45.0</ele><time>2026-05-01T18:00:56Z</time></trkpt><trkpt lat="45.122187737184696" lon="9.670534268236997"><ele>45.0</ele><time>2026-05-01T18:00:57Z</time></trkpt><trkpt lat="45.12236374177571" lon="9.670276394781945"><ele>45.0</ele><time>2026-05-01T18:00:58Z</time></trkpt><trkpt lat="45.12254212962048" lon="9.670021346673478"><ele>44.5</ele><time>2026-05-01T18:00:59Z</time></trkpt><trkpt lat="45.12272242135582" lon="9.66976346950356"><ele>44.0</ele><time>2026-05-01T18:01:00Z</time></trkpt><trkpt lat="45.12290712903357" lon="9.669501914774935"><ele>44.0</ele><time>2026-05-01T18:01:01Z</time></trkpt><trkpt lat="45.12309070469105" lon="9.66924959986589"><ele>44.0</ele><time>2026-05-01T18:01:02Z</time></trkpt><trkpt lat="45.12327399426808" lon="9.668989320983348"><ele>44.5</ele><time>2026-05-01T18:01:03Z</time></trkpt><trkpt lat="45.12345602452095" lon="9.668721797682089"><ele>45.0</ele><time>2026-05-01T18:01:04Z</time></trkpt><trkpt lat="45.12363828873991" lon="9.668453928730175"><ele>45.0</ele><time>2026-05-01T18:01:05Z</time></trkpt><trkpt lat="45.12381892144449" lon="9.668188910218353"><ele>45.0</ele><time>2026-05-01T18:01:06Z</time></trkpt><trkpt lat="45.12400180618626" lon="9.667924117946495"><ele>44.5</ele><time>2026-05-01T18:01:07Z</time></trkpt><trkpt lat="45.12418719822068" lon="9.667656721446038"><ele>44.0</ele><time>2026-05-01T18:01:08Z</time></trkpt><trkpt lat="45.12437207748204" lon="9.667392075321251"><ele>44.0</ele><time>2026-05-01T18:01:09Z</time></trkpt><trkpt lat="45.12455648134225" lon="9.667128578616417"><ele>44.0</ele><time>2026-05-01T18:01:10Z</time></trkpt><trkpt lat="45.124740888679554" lon="9.66686120081128"><ele>45.0</ele><time>2026-05-01T18:01:11Z</time></trkpt><trkpt lat="45.12492534789448" lon="9.666590652334483"><ele>46.0</ele><time>2026-05-01T18:01:12Z</time></trkpt><trkpt lat="45.12511351743678" lon="9.666320268596868"><ele>46.5</ele><time>2026-05-01T18:01:13Z</time></trkpt><trkpt lat="45.12530001068354" lon="9.666048406716559"><ele>47.0</ele><time>2026-05-01T18:01:14Z</time></trkpt><trkpt lat="45.12548743597866" lon="9.665777633075317"><ele>47.0</ele><time>2026-05-01T18:01:15Z</time></trkpt><trkpt lat="45.12567760948509" lon="9.665499501205149"><ele>47.0</ele><time>2026-05-01T18:01:16Z</time></trkpt><trkpt lat="45.125866767875976" lon="9.665218728430471"><ele>47.0</ele><time>2026-05-01T18:01:17Z</time></trkpt><trkpt lat="45.12605882993807" lon="9.664934574283322"><ele>47.0</ele><time>2026-05-01T18:01:18Z</time></trkpt><trkpt lat="45.12624637375237" lon="9.664646809515439"><ele>47.0</ele><time>2026-05-01T18:01:19Z</time></trkpt><trkpt lat="45.1264330713369" lon="9.664358073896933"><ele>47.0</ele><time>2026-05-01T18:01:20Z</time></trkpt><trkpt lat="45.126617108010265" lon="9.664064227706058"><ele>47.0</ele><time>2026-05-01T18:01:21Z</time></trkpt><trkpt lat="45.12679800252205" lon="9.663768542784593"><ele>47.0</ele><time>2026-05-01T18:01:22Z</time></trkpt><trkpt lat="45.12697965327329" lon="9.66347417122743"><ele>47.0</ele><time>2026-05-01T18:01:23Z</time></trkpt><trkpt lat="45.12716065421696" lon="9.663178885449842"><ele>47.0</ele><time>2026-05-01T18:01:24Z</time></trkpt><trkpt lat="45.127340076160976" lon="9.662885301768512"><ele>47.5</ele><time>2026-05-01T18:01:25Z</time></trkpt><trkpt lat="45.1275175665921" lon="9.662588796387366"><ele>48.0</ele><time>2026-05-01T18:01:26Z</time></trkpt><trkpt lat="45.127693479509965" lon="9.662292504938309"><ele>48.0</ele><time>2026-05-01T18:01:27Z</time></trkpt><trkpt lat="45.12787144542903" lon="9.661996832774241"><ele>48.0</ele><time>2026-05-01T18:01:28Z</time></trkpt><trkpt lat="45.1280457272073" lon="9.66169404297776"><ele>48.0</ele><time>2026-05-01T18:01:29Z</time></trkpt><trkpt lat="45.128213092794475" lon="9.661387900589189"><ele>48.0</ele><time>2026-05-01T18:01:30Z</time></trkpt><trkpt lat="45.1283812371984" lon="9.66108604998939"><ele>48.0</ele><time>2026-05-01T18:01:31Z</time></trkpt><trkpt lat="45.12854919452376" lon="9.66078653540148"><ele>48.0</ele><time>2026-05-01T18:01:32Z</time></trkpt><trkpt lat="45.12871547553018" lon="9.660480333380631"><ele>47.0</ele><time>2026-05-01T18:01:33Z</time></trkpt><trkpt lat="45.12887934305157" lon="9.660175890049263"><ele>46.0</ele><time>2026-05-01T18:01:34Z</time></trkpt><trkpt lat="45.129042911216274" lon="9.659866488981745"><ele>45.5</ele><time>2026-05-01T18:01:35Z</time></trkpt><trkpt lat="45.12920746789996" lon="9.659555768667095"><ele>45.0</ele><time>2026-05-01T18:01:36Z</time></trkpt><trkpt lat="45.129369234246866" lon="9.65924721559081"><ele>46.0</ele><time>2026-05-01T18:01:37Z</time></trkpt><trkpt lat="45.12953187166523" lon="9.658937595030114"><ele>47.0</ele><time>2026-05-01T18:01:38Z</time></trkpt><trkpt lat="45.1296932206578" lon="9.658625943377256"><ele>47.0</ele><time>2026-05-01T18:01:39Z</time></trkpt><trkpt lat="45.129853121239655" lon="9.65831474660979"><ele>47.0</ele><time>2026-05-01T18:01:40Z</time></trkpt><trkpt lat="45.13001393402832" lon="9.658004145192933"><ele>48.5</ele><time>2026-05-01T18:01:41Z</time></trkpt><trkpt lat="45.13017441844077" lon="9.657694407042404"><ele>50.0</ele><time>2026-05-01T18:01:42Z</time></trkpt><trkpt lat="45.13033295010129" lon="9.657380684734353"><ele>50.0</ele><time>2026-05-01T18:01:43Z</time></trkpt><trkpt lat="45.130487986719004" lon="9.657068463594007"><ele>50.0</ele><time>2026-05-01T18:01:44Z</time></trkpt><trkpt lat="45.13064258380054" lon="9.656759312445617"><ele>48.0</ele><time>2026-05-01T18:01:45Z</time></trkpt><trkpt lat="45.13080018435168" lon="9.656458221781671"><ele>46.0</ele><time>2026-05-01T18:01:46Z</time></trkpt><trkpt lat="45.13096071470979" lon="9.656158002870335"><ele>46.5</ele><time>2026-05-01T18:01:47Z</time></trkpt><trkpt lat="45.13111780168832" lon="9.655856176369682"><ele>47.0</ele><time>2026-05-01T18:01:48Z</time></trkpt><trkpt lat="45.13126642908819" lon="9.655549316428576"><ele>47.0</ele><time>2026-05-01T18:01:49Z</time></trkpt><trkpt lat="45.13141491235503" lon="9.655261787965825"><ele>47.0</ele><time>2026-05-01T18:01:50Z</time></trkpt><trkpt lat="45.1315610834096" lon="9.654988280618062"><ele>47.0</ele><time>2026-05-01T18:01:51Z</time></trkpt><trkpt lat="45.13170569107851" lon="9.654710117288476"><ele>47.0</ele><time>2026-05-01T18:01:52Z</time></trkpt><trkpt lat="45.13185306259333" lon="9.654433356093891"><ele>47.5</ele><time>2026-05-01T18:01:53Z</time></trkpt><trkpt lat="45.1319933253956" lon="9.654129981577627"><ele>48.0</ele><time>2026-05-01T18:01:54Z</time></trkpt><trkpt lat="45.132141013" lon="9.653851013153167"><ele>48.0</ele><time>2026-05-01T18:01:55Z</time></trkpt><trkpt lat="45.132284912979856" lon="9.653571324415973"><ele>48.0</ele><time>2026-05-01T18:01:56Z</time></trkpt><trkpt lat="45.13243063054226" lon="9.653285044415139"><ele>48.0</ele><time>2026-05-01T18:01:57Z</time></trkpt><trkpt lat="45.132575100883855" lon="9.653000065326383"><ele>48.0</ele><time>2026-05-01T18:01:58Z</time></trkpt><trkpt lat="45.13272088740221" lon="9.652715406958645"><ele>48.0</ele><time>2026-05-01T18:01:59.001Z</time></trkpt><trkpt lat="45.13286493349989" lon="9.652428742877568"><ele>48.0</ele><time>2026-05-01T18:02:00.001Z</time></trkpt><trkpt lat="45.13300995929117" lon="9.65214314577852"><ele>47.5</ele><time>2026-05-01T18:02:01.001Z</time></trkpt><trkpt lat="45.13316024767574" lon="9.651856547783396"><ele>47.0</ele><time>2026-05-01T18:02:02.001Z</time></trkpt><trkpt lat="45.13331050987025" lon="9.651565642180596"><ele>47.0</ele><time>2026-05-01T18:02:03.001Z</time></trkpt><trkpt lat="45.133462420212204" lon="9.651274775525897"><ele>47.0</ele><time>2026-05-01T18:02:04Z</time></trkpt><trkpt lat="45.13361198071324" lon="9.65098023423067"><ele>46.5</ele><time>2026-05-01T18:02:05Z</time></trkpt><trkpt lat="45.133765204307565" lon="9.650688704748521"><ele>46.0</ele><time>2026-05-01T18:02:06Z</time></trkpt><trkpt lat="45.13391374518425" lon="9.650397244374593"><ele>46.5</ele><time>2026-05-01T18:02:07Z</time></trkpt><trkpt lat="45.134061100468834" lon="9.650107480085131"><ele>47.0</ele><time>2026-05-01T18:02:08Z</time></trkpt><trkpt lat="45.13420637074197" lon="9.64981928481209"><ele>47.0</ele><time>2026-05-01T18:02:09Z</time></trkpt><trkpt lat="45.134351528127986" lon="9.649533408801327"><ele>47.0</ele><time>2026-05-01T18:02:10Z</time></trkpt><trkpt lat="45.13449735458607" lon="9.649249334077334"><ele>46.5</ele><time>2026-05-01T18:02:11Z</time></trkpt><trkpt lat="45.1346417316487" lon="9.64896161068328"><ele>46.0</ele><time>2026-05-01T18:02:12Z</time></trkpt><trkpt lat="45.1347849810143" lon="9.648678120252468"><ele>46.5</ele><time>2026-05-01T18:02:13Z</time></trkpt><trkpt lat="45.13492985529304" lon="9.648396641969372"><ele>47.0</ele><time>2026-05-01T18:02:14Z</time></trkpt><trkpt lat="45.13507598841291" lon="9.648118304137272"><ele>47.0</ele><time>2026-05-01T18:02:15Z</time></trkpt><trkpt lat="45.135218972828426" lon="9.647838554729852"><ele>47.0</ele><time>2026-05-01T18:02:16Z</time></trkpt><trkpt lat="45.13536066561116" lon="9.647560031554958"><ele>47.5</ele><time>2026-05-01T18:02:17Z</time></trkpt><trkpt lat="45.135507255060006" lon="9.647277043660536"><ele>48.0</ele><time>2026-05-01T18:02:18Z</time></trkpt><trkpt lat="45.13565173958127" lon="9.646997563598024"><ele>47.0</ele><time>2026-05-01T18:02:19Z</time></trkpt><trkpt lat="45.13579584146409" lon="9.64671964879442"><ele>46.0</ele><time>2026-05-01T18:02:20Z</time></trkpt><trkpt lat="45.13593905037959" lon="9.646440884555526"><ele>46.0</ele><time>2026-05-01T18:02:21Z</time></trkpt><trkpt lat="45.13608458039859" lon="9.646156208582573"><ele>46.0</ele><time>2026-05-01T18:02:22Z</time></trkpt><trkpt lat="45.1362285154628" lon="9.64587551278023"><ele>46.0</ele><time>2026-05-01T18:02:23Z</time></trkpt><trkpt lat="45.13637076974537" lon="9.645593508958633"><ele>46.0</ele><time>2026-05-01T18:02:24Z</time></trkpt><trkpt lat="45.13650972685824" lon="9.645311862859659"><ele>47.0</ele><time>2026-05-01T18:02:25Z</time></trkpt><trkpt lat="45.13665075804802" lon="9.645026178085994"><ele>48.0</ele><time>2026-05-01T18:02:26Z</time></trkpt><trkpt lat="45.13679412477323" lon="9.644745198430517"><ele>48.0</ele><time>2026-05-01T18:02:27Z</time></trkpt><trkpt lat="45.13693765777385" lon="9.644462789597199"><ele>48.0</ele><time>2026-05-01T18:02:28Z</time></trkpt><trkpt lat="45.13708018739359" lon="9.644184908981089"><ele>48.0</ele><time>2026-05-01T18:02:29Z</time></trkpt><trkpt lat="45.13722506587378" lon="9.64390230548493"><ele>48.0</ele><time>2026-05-01T18:02:30Z</time></trkpt><trkpt lat="45.13736937397792" lon="9.643623697202127"><ele>48.0</ele><time>2026-05-01T18:02:31Z</time></trkpt><trkpt lat="45.137513772451435" lon="9.643344271302905"><ele>48.0</ele><time>2026-05-01T18:02:32Z</time></trkpt><trkpt lat="45.137657671054804" lon="9.643067885242482"><ele>49.5</ele><time>2026-05-01T18:02:33Z</time></trkpt><trkpt lat="45.13780085997595" lon="9.64279077744585"><ele>51.0</ele><time>2026-05-01T18:02:34Z</time></trkpt><trkpt lat="45.13794364210727" lon="9.642518482971267"><ele>51.0</ele><time>2026-05-01T18:02:35Z</time></trkpt><trkpt lat="45.13809128783897" lon="9.642241156825532"><ele>51.0</ele><time>2026-05-01T18:02:36Z</time></trkpt><trkpt lat="45.13823135283216" lon="9.641952176986733"><ele>50.5</ele><time>2026-05-01T18:02:37Z</time></trkpt><trkpt lat="45.138377264745316" lon="9.641670620115699"><ele>50.0</ele><time>2026-05-01T18:02:38Z</time></trkpt><trkpt lat="45.138519815540164" lon="9.641388796503175"><ele>49.5</ele><time>2026-05-01T18:02:39Z</time></trkpt><trkpt lat="45.13866481684596" lon="9.641109642144121"><ele>49.0</ele><time>2026-05-01T18:02:40Z</time></trkpt><trkpt lat="45.138810185196924" lon="9.640826343918006"><ele>49.0</ele><time>2026-05-01T18:02:41Z</time></trkpt><trkpt lat="45.138953352558836" lon="9.64054374791885"><ele>49.0</ele><time>2026-05-01T18:02:42Z</time></trkpt><trkpt lat="45.1390969276107" lon="9.640258941800926"><ele>49.0</ele><time>2026-05-01T18:02:43Z</time></trkpt><trkpt lat="45.139242238343805" lon="9.63997674269511"><ele>49.0</ele><time>2026-05-01T18:02:44Z</time></trkpt><trkpt lat="45.13938866076218" lon="9.639692202663957"><ele>48.5</ele><time>2026-05-01T18:02:45Z</time></trkpt><trkpt lat="45.13953304611998" lon="9.639408584697044"><ele>48.0</ele><time>2026-05-01T18:02:46Z</time></trkpt><trkpt lat="45.139678434686026" lon="9.6391279857246"><ele>48.0</ele><time>2026-05-01T18:02:47Z</time></trkpt><trkpt lat="45.139823810950794" lon="9.638848816116989"><ele>48.0</ele><time>2026-05-01T18:02:48Z</time></trkpt><trkpt lat="45.1399616017993" lon="9.638559577479084"><ele>48.5</ele><time>2026-05-01T18:02:49Z</time></trkpt><trkpt lat="45.1401029256444" lon="9.638284784596989"><ele>49.0</ele><time>2026-05-01T18:02:50Z</time></trkpt><trkpt lat="45.140249175193055" lon="9.638003578381433"><ele>48.5</ele><time>2026-05-01T18:02:51Z</time></trkpt><trkpt lat="45.14039561103573" lon="9.637726173682344"><ele>48.0</ele><time>2026-05-01T18:02:52Z</time></trkpt><trkpt lat="45.140543412703494" lon="9.637450636627072"><ele>48.0</ele><time>2026-05-01T18:02:53Z</time></trkpt><trkpt lat="45.140694466842575" lon="9.637178905617851"><ele>48.0</ele><time>2026-05-01T18:02:54Z</time></trkpt><trkpt lat="45.140845376120296" lon="9.636909189317915"><ele>48.0</ele><time>2026-05-01T18:02:55Z</time></trkpt><trkpt lat="45.14099434578263" lon="9.636640119485605"><ele>48.0</ele><time>2026-05-01T18:02:56Z</time></trkpt><trkpt lat="45.14114572317068" lon="9.636378251151907"><ele>48.5</ele><time>2026-05-01T18:02:57Z</time></trkpt><trkpt lat="45.1413044946776" lon="9.636123755914525"><ele>49.0</ele><time>2026-05-01T18:02:58Z</time></trkpt><trkpt lat="45.14146319631773" lon="9.635869489596509"><ele>48.5</ele><time>2026-05-01T18:02:59Z</time></trkpt><trkpt lat="45.14162902392236" lon="9.63562461322055"><ele>48.0</ele><time>2026-05-01T18:03:00Z</time></trkpt><trkpt lat="45.14179641541047" lon="9.635381845428773"><ele>49.5</ele><time>2026-05-01T18:03:01Z</time></trkpt><trkpt lat="45.1419574415352" lon="9.63513545854716"><ele>51.0</ele><time>2026-05-01T18:03:02Z</time></trkpt><trkpt lat="45.14212001088822" lon="9.634898502137435"><ele>51.0</ele><time>2026-05-01T18:03:03Z</time></trkpt><trkpt lat="45.14228842846832" lon="9.634661132954609"><ele>51.0</ele><time>2026-05-01T18:03:04Z</time></trkpt><trkpt lat="45.14245967489722" lon="9.63442360072757"><ele>53.0</ele><time>2026-05-01T18:03:05Z</time></trkpt><trkpt lat="45.142629783872174" lon="9.634187240820058"><ele>55.0</ele><time>2026-05-01T18:03:06Z</time></trkpt><trkpt lat="45.14279890956293" lon="9.63393846073222"><ele>55.0</ele><time>2026-05-01T18:03:07Z</time></trkpt><trkpt lat="45.14297041103218" lon="9.633700239395543"><ele>55.0</ele><time>2026-05-01T18:03:08Z</time></trkpt><trkpt lat="45.143143138042944" lon="9.63346006907036"><ele>55.0</ele><time>2026-05-01T18:03:09Z</time></trkpt><trkpt lat="45.14331731306046" lon="9.633216239987824"><ele>55.0</ele><time>2026-05-01T18:03:10Z</time></trkpt><trkpt lat="45.14348736685024" lon="9.632972892678056"><ele>56.0</ele><time>2026-05-01T18:03:11Z</time></trkpt><trkpt lat="45.14366113142791" lon="9.632725828961762"><ele>57.0</ele><time>2026-05-01T18:03:12Z</time></trkpt><trkpt lat="45.143835367726766" lon="9.632482374549607"><ele>57.0</ele><time>2026-05-01T18:03:13Z</time></trkpt><trkpt lat="45.1440124843639" lon="9.632236651268986"><ele>57.0</ele><time>2026-05-01T18:03:14Z</time></trkpt><trkpt lat="45.14418971002664" lon="9.631989248885994"><ele>56.5</ele><time>2026-05-01T18:03:15Z</time></trkpt><trkpt lat="45.14436568365589" lon="9.631745672486272"><ele>56.0</ele><time>2026-05-01T18:03:16Z</time></trkpt><trkpt lat="45.14454042011733" lon="9.63149990130622"><ele>56.0</ele><time>2026-05-01T18:03:17Z</time></trkpt><trkpt lat="45.144715684184035" lon="9.631257033292403"><ele>56.0</ele><time>2026-05-01T18:03:18Z</time></trkpt><trkpt lat="45.14489232487495" lon="9.631009708445879"><ele>56.5</ele><time>2026-05-01T18:03:19Z</time></trkpt><trkpt lat="45.14506544573817" lon="9.630762507254824"><ele>57.0</ele><time>2026-05-01T18:03:20Z</time></trkpt><trkpt lat="45.14524187832929" lon="9.630511460829313"><ele>56.5</ele><time>2026-05-01T18:03:21Z</time></trkpt><trkpt lat="45.14541690146788" lon="9.630253273556994"><ele>56.0</ele><time>2026-05-01T18:03:22Z</time></trkpt><trkpt lat="45.14559617770076" lon="9.630004018119902"><ele>56.5</ele><time>2026-05-01T18:03:23Z</time></trkpt><trkpt lat="45.1457757868095" lon="9.629746902051318"><ele>57.0</ele><time>2026-05-01T18:03:24Z</time></trkpt><trkpt lat="45.14596077085696" lon="9.629469742335518"><ele>57.0</ele><time>2026-05-01T18:03:25Z</time></trkpt><trkpt lat="45.146152376899856" lon="9.629194474577545"><ele>57.0</ele><time>2026-05-01T18:03:26Z</time></trkpt><trkpt lat="45.14635328039554" lon="9.628909856439149"><ele>56.5</ele><time>2026-05-01T18:03:27Z</time></trkpt><trkpt lat="45.14656175616408" lon="9.628624388644846"><ele>56.0</ele><time>2026-05-01T18:03:28Z</time></trkpt><trkpt lat="45.146772077603956" lon="9.628341558342555"><ele>56.0</ele><time>2026-05-01T18:03:29Z</time></trkpt><trkpt lat="45.146987761599675" lon="9.628059053295365"><ele>56.0</ele><time>2026-05-01T18:03:30Z</time></trkpt><trkpt lat="45.147204025718175" lon="9.627774831268244"><ele>56.5</ele><time>2026-05-01T18:03:31Z</time></trkpt><trkpt lat="45.14741184404333" lon="9.627488664697172"><ele>57.0</ele><time>2026-05-01T18:03:32Z</time></trkpt><trkpt lat="45.14762050292161" lon="9.62719439893084"><ele>57.5</ele><time>2026-05-01T18:03:33Z</time></trkpt><trkpt lat="45.14782881072373" lon="9.626899740448872"><ele>58.0</ele><time>2026-05-01T18:03:34Z</time></trkpt><trkpt lat="45.148040927776535" lon="9.626604288367684"><ele>58.5</ele><time>2026-05-01T18:03:34.999Z</time></trkpt><trkpt lat="45.14825651826844" lon="9.62630646056891"><ele>59.0</ele><time>2026-05-01T18:03:35.999Z</time></trkpt><trkpt lat="45.148472728739875" lon="9.626009186740001"><ele>60.0</ele><time>2026-05-01T18:03:36.999Z</time></trkpt><trkpt lat="45.14868610652005" lon="9.625710708956627"><ele>61.0</ele><time>2026-05-01T18:03:37.999Z</time></trkpt><trkpt lat="45.148900292822056" lon="9.625407770126188"><ele>60.0</ele><time>2026-05-01T18:03:38.999Z</time></trkpt><trkpt lat="45.1491061078932" lon="9.62512240801451"><ele>59.0</ele><time>2026-05-01T18:03:39.999Z</time></trkpt><trkpt lat="45.149318537176946" lon="9.62483029600893"><ele>59.0</ele><time>2026-05-01T18:03:40.999Z</time></trkpt><trkpt lat="45.14952744340466" lon="9.624540761325092"><ele>59.0</ele><time>2026-05-01T18:03:41.999Z</time></trkpt><trkpt lat="45.14973339718242" lon="9.624255303352678"><ele>59.0</ele><time>2026-05-01T18:03:42.999Z</time></trkpt><trkpt lat="45.1499365614072" lon="9.623976149178176"><ele>59.0</ele><time>2026-05-01T18:03:43.999Z</time></trkpt><trkpt lat="45.150135326180795" lon="9.623697886103143"><ele>59.0</ele><time>2026-05-01T18:03:44.999Z</time></trkpt><trkpt lat="45.150332123876126" lon="9.623421608198118"><ele>59.0</ele><time>2026-05-01T18:03:45.999Z</time></trkpt><trkpt lat="45.15052753489648" lon="9.623150310857655"><ele>59.0</ele><time>2026-05-01T18:03:46.999Z</time></trkpt><trkpt lat="45.150722111583924" lon="9.62288116620074"><ele>59.0</ele><time>2026-05-01T18:03:47.999Z</time></trkpt><trkpt lat="45.150913277016585" lon="9.622615064805979"><ele>59.0</ele><time>2026-05-01T18:03:48.999Z</time></trkpt><trkpt lat="45.15110478578503" lon="9.622349529158834"><ele>59.0</ele><time>2026-05-01T18:03:49.999Z</time></trkpt><trkpt lat="45.1512890815855" lon="9.62208607098553"><ele>59.0</ele><time>2026-05-01T18:03:50.999Z</time></trkpt><trkpt lat="45.151475375731906" lon="9.621825727305822"><ele>59.0</ele><time>2026-05-01T18:03:51.999Z</time></trkpt><trkpt lat="45.151661452779926" lon="9.62156647358567"><ele>59.0</ele><time>2026-05-01T18:03:52.999Z</time></trkpt><trkpt lat="45.151846028143524" lon="9.621311850950935"><ele>59.0</ele><time>2026-05-01T18:03:53.999Z</time></trkpt><trkpt lat="45.1520326563763" lon="9.621059889145371"><ele>59.5</ele><time>2026-05-01T18:03:54.999Z</time></trkpt><trkpt lat="45.152217229514825" lon="9.620803709812037"><ele>60.0</ele><time>2026-05-01T18:03:55.999Z</time></trkpt><trkpt lat="45.152400227291345" lon="9.62054881938421"><ele>60.0</ele><time>2026-05-01T18:03:56.999Z</time></trkpt><trkpt lat="45.15258170388965" lon="9.620292246880151"><ele>60.0</ele><time>2026-05-01T18:03:57.999Z</time></trkpt><trkpt lat="45.15276683925199" lon="9.620036174137738"><ele>60.0</ele><time>2026-05-01T18:03:58.999Z</time></trkpt><trkpt lat="45.1529489591468" lon="9.619782212259562"><ele>60.0</ele><time>2026-05-01T18:03:59.999Z</time></trkpt><trkpt lat="45.153130115929784" lon="9.619525933505292"><ele>60.0</ele><time>2026-05-01T18:04:00.999Z</time></trkpt><trkpt lat="45.15331265194312" lon="9.619269433504313"><ele>60.0</ele><time>2026-05-01T18:04:01.999Z</time></trkpt><trkpt lat="45.153496544114894" lon="9.61901180758953"><ele>60.0</ele><time>2026-05-01T18:04:02.999Z</time></trkpt><trkpt lat="45.15368099512291" lon="9.618752715570336"><ele>60.0</ele><time>2026-05-01T18:04:03.999Z</time></trkpt><trkpt lat="45.15386575801166" lon="9.618496323104523"><ele>60.0</ele><time>2026-05-01T18:04:05Z</time></trkpt><trkpt lat="45.15404727647525" lon="9.618244373094832"><ele>60.0</ele><time>2026-05-01T18:04:06Z</time></trkpt><trkpt lat="45.15422821954976" lon="9.617989938031933"><ele>59.5</ele><time>2026-05-01T18:04:07Z</time></trkpt><trkpt lat="45.15440905754203" lon="9.617739388558002"><ele>59.0</ele><time>2026-05-01T18:04:08Z</time></trkpt><trkpt lat="45.15459060612481" lon="9.617484189002662"><ele>59.0</ele><time>2026-05-01T18:04:09Z</time></trkpt><trkpt lat="45.15477402146516" lon="9.617233256440375"><ele>59.0</ele><time>2026-05-01T18:04:10Z</time></trkpt><trkpt lat="45.15495720468583" lon="9.616980040542364"><ele>59.0</ele><time>2026-05-01T18:04:11Z</time></trkpt><trkpt lat="45.155137610393886" lon="9.616724482477174"><ele>59.0</ele><time>2026-05-01T18:04:12Z</time></trkpt><trkpt lat="45.155319919602945" lon="9.616467352552146"><ele>59.0</ele><time>2026-05-01T18:04:13Z</time></trkpt><trkpt lat="45.15550232459799" lon="9.61621374272151"><ele>59.0</ele><time>2026-05-01T18:04:14Z</time></trkpt><trkpt lat="45.15568631021553" lon="9.615958457687396"><ele>59.5</ele><time>2026-05-01T18:04:15Z</time></trkpt><trkpt lat="45.15586938803683" lon="9.615706555538921"><ele>60.0</ele><time>2026-05-01T18:04:16Z</time></trkpt><trkpt lat="45.156053755996446" lon="9.615445982483536"><ele>60.5</ele><time>2026-05-01T18:04:17Z</time></trkpt><trkpt lat="45.15623662566873" lon="9.615188362681367"><ele>61.0</ele><time>2026-05-01T18:04:18Z</time></trkpt><trkpt lat="45.156420687209604" lon="9.614930999368624"><ele>60.0</ele><time>2026-05-01T18:04:19Z</time></trkpt><trkpt lat="45.156603006300344" lon="9.61467449515104"><ele>59.0</ele><time>2026-05-01T18:04:20Z</time></trkpt><trkpt lat="45.15678530694554" lon="9.614416155224516"><ele>59.0</ele><time>2026-05-01T18:04:21Z</time></trkpt><trkpt lat="45.15697132377905" lon="9.614161049743835"><ele>59.0</ele><time>2026-05-01T18:04:22Z</time></trkpt><trkpt lat="45.15715845547729" lon="9.613904804479086"><ele>59.5</ele><time>2026-05-01T18:04:23Z</time></trkpt><trkpt lat="45.15734117257118" lon="9.613652474742963"><ele>60.0</ele><time>2026-05-01T18:04:24Z</time></trkpt><trkpt lat="45.157522036374466" lon="9.613395232624105"><ele>60.0</ele><time>2026-05-01T18:04:25Z</time></trkpt><trkpt lat="45.15770680043402" lon="9.613136795184463"><ele>60.0</ele><time>2026-05-01T18:04:26Z</time></trkpt><trkpt lat="45.15788997147382" lon="9.612881698032993"><ele>60.0</ele><time>2026-05-01T18:04:27Z</time></trkpt><trkpt lat="45.158069561308984" lon="9.612626674141882"><ele>60.0</ele><time>2026-05-01T18:04:28Z</time></trkpt><trkpt lat="45.158252536019226" lon="9.612369970123021"><ele>60.0</ele><time>2026-05-01T18:04:29Z</time></trkpt><trkpt lat="45.158433498472" lon="9.612110272544124"><ele>60.0</ele><time>2026-05-01T18:04:30Z</time></trkpt><trkpt lat="45.158615587777014" lon="9.611854299903857"><ele>60.0</ele><time>2026-05-01T18:04:31Z</time></trkpt><trkpt lat="45.15879787240039" lon="9.611597230563103"><ele>60.0</ele><time>2026-05-01T18:04:32Z</time></trkpt><trkpt lat="45.15898451828101" lon="9.611340177435006"><ele>60.5</ele><time>2026-05-01T18:04:33Z</time></trkpt><trkpt lat="45.15917367033989" lon="9.61108108145087"><ele>61.0</ele><time>2026-05-01T18:04:34Z</time></trkpt><trkpt lat="45.159362705126625" lon="9.61082070581468"><ele>61.0</ele><time>2026-05-01T18:04:35Z</time></trkpt><trkpt lat="45.159549922850225" lon="9.610559672913393"><ele>61.0</ele><time>2026-05-01T18:04:36Z</time></trkpt><trkpt lat="45.15973684716105" lon="9.610300873853042"><ele>60.5</ele><time>2026-05-01T18:04:37Z</time></trkpt><trkpt lat="45.15992510644592" lon="9.610040186539273"><ele>60.0</ele><time>2026-05-01T18:04:38Z</time></trkpt><trkpt lat="45.1601124455046" lon="9.60978024592941"><ele>60.0</ele><time>2026-05-01T18:04:39Z</time></trkpt><trkpt lat="45.16029685319288" lon="9.609521134740604"><ele>60.0</ele><time>2026-05-01T18:04:40Z</time></trkpt><trkpt lat="45.16048351750684" lon="9.609261298111539"><ele>61.0</ele><time>2026-05-01T18:04:41Z</time></trkpt><trkpt lat="45.16066658792557" lon="9.608999730296864"><ele>62.0</ele><time>2026-05-01T18:04:42Z</time></trkpt><trkpt lat="45.16085341198806" lon="9.608737879106172"><ele>62.0</ele><time>2026-05-01T18:04:43Z</time></trkpt><trkpt lat="45.161037457448806" lon="9.608479938570047"><ele>62.0</ele><time>2026-05-01T18:04:44Z</time></trkpt><trkpt lat="45.16122090454142" lon="9.60821892072301"><ele>62.0</ele><time>2026-05-01T18:04:45Z</time></trkpt><trkpt lat="45.16140623806442" lon="9.607956233681055"><ele>62.0</ele><time>2026-05-01T18:04:46Z</time></trkpt><trkpt lat="45.16159402483481" lon="9.60769567098005"><ele>62.0</ele><time>2026-05-01T18:04:47Z</time></trkpt><trkpt lat="45.161777125013245" lon="9.607429970614357"><ele>62.0</ele><time>2026-05-01T18:04:48Z</time></trkpt><trkpt lat="45.16196472133974" lon="9.607172073773087"><ele>62.5</ele><time>2026-05-01T18:04:49Z</time></trkpt><trkpt lat="45.16215629752197" lon="9.606914349464265"><ele>63.0</ele><time>2026-05-01T18:04:50Z</time></trkpt><trkpt lat="45.16234131169344" lon="9.606652688403692"><ele>62.5</ele><time>2026-05-01T18:04:51Z</time></trkpt><trkpt lat="45.162533431651475" lon="9.606393124163793"><ele>62.0</ele><time>2026-05-01T18:04:52Z</time></trkpt><trkpt lat="45.162719567292875" lon="9.606131544307035"><ele>61.5</ele><time>2026-05-01T18:04:53Z</time></trkpt><trkpt lat="45.16290813876449" lon="9.605867656517269"><ele>61.0</ele><time>2026-05-01T18:04:54Z</time></trkpt><trkpt lat="45.16309333881857" lon="9.605600018588586"><ele>62.0</ele><time>2026-05-01T18:04:55Z</time></trkpt><trkpt lat="45.163282939286" lon="9.605336748328215"><ele>63.0</ele><time>2026-05-01T18:04:56Z</time></trkpt><trkpt lat="45.1634723399939" lon="9.605079159614665"><ele>64.0</ele><time>2026-05-01T18:04:57Z</time></trkpt><trkpt lat="45.16366058272137" lon="9.604812408269762"><ele>65.0</ele><time>2026-05-01T18:04:58Z</time></trkpt><trkpt lat="45.163848694649225" lon="9.60454985638795"><ele>63.0</ele><time>2026-05-01T18:04:59Z</time></trkpt><trkpt lat="45.164033801842685" lon="9.604286011874681"><ele>61.0</ele><time>2026-05-01T18:05:00Z</time></trkpt><trkpt lat="45.164221078095665" lon="9.604023122939372"><ele>61.0</ele><time>2026-05-01T18:05:01Z</time></trkpt><trkpt lat="45.1644085069895" lon="9.603759446695594"><ele>61.0</ele><time>2026-05-01T18:05:02Z</time></trkpt><trkpt lat="45.164600635817166" lon="9.603498293387617"><ele>61.0</ele><time>2026-05-01T18:05:03Z</time></trkpt><trkpt lat="45.16478703862227" lon="9.603236844664249"><ele>61.0</ele><time>2026-05-01T18:05:04Z</time></trkpt><trkpt lat="45.16497235375777" lon="9.602970676644112"><ele>60.5</ele><time>2026-05-01T18:05:05Z</time></trkpt><trkpt lat="45.16515720917714" lon="9.602708816198238"><ele>60.0</ele><time>2026-05-01T18:05:06Z</time></trkpt><trkpt lat="45.16534260862502" lon="9.602441217303147"><ele>60.0</ele><time>2026-05-01T18:05:07Z</time></trkpt><trkpt lat="45.16552484270176" lon="9.602175658556245"><ele>60.0</ele><time>2026-05-01T18:05:08Z</time></trkpt><trkpt lat="45.165711001226995" lon="9.601906648549317"><ele>60.0</ele><time>2026-05-01T18:05:09Z</time></trkpt><trkpt lat="45.165894424570716" lon="9.601642145603833"><ele>60.0</ele><time>2026-05-01T18:05:10Z</time></trkpt><trkpt lat="45.166076386066464" lon="9.601375351358607"><ele>61.0</ele><time>2026-05-01T18:05:11Z</time></trkpt><trkpt lat="45.16626024083651" lon="9.601099181106544"><ele>62.0</ele><time>2026-05-01T18:05:12Z</time></trkpt><trkpt lat="45.16643849146855" lon="9.600835595572779"><ele>62.0</ele><time>2026-05-01T18:05:13Z</time></trkpt><trkpt lat="45.166620580606896" lon="9.60056415506456"><ele>62.0</ele><time>2026-05-01T18:05:14Z</time></trkpt><trkpt lat="45.16680160596687" lon="9.600299465370654"><ele>62.0</ele><time>2026-05-01T18:05:15Z</time></trkpt><trkpt lat="45.1669833746754" lon="9.600031246629214"><ele>62.0</ele><time>2026-05-01T18:05:16Z</time></trkpt><trkpt lat="45.16716063171627" lon="9.599758018078958"><ele>61.5</ele><time>2026-05-01T18:05:17Z</time></trkpt><trkpt lat="45.167337409842666" lon="9.599485644322334"><ele>61.0</ele><time>2026-05-01T18:05:18Z</time></trkpt><trkpt lat="45.16751600637242" lon="9.59921403521411"><ele>60.5</ele><time>2026-05-01T18:05:19Z</time></trkpt><trkpt lat="45.16769405219184" lon="9.598940164790596"><ele>60.0</ele><time>2026-05-01T18:05:19.999Z</time></trkpt><trkpt lat="45.16787121812164" lon="9.598667885397596"><ele>60.0</ele><time>2026-05-01T18:05:20.999Z</time></trkpt><trkpt lat="45.16804844422673" lon="9.598387073717737"><ele>60.0</ele><time>2026-05-01T18:05:21.999Z</time></trkpt><trkpt lat="45.16822316339709" lon="9.598107446488674"><ele>60.5</ele><time>2026-05-01T18:05:22.999Z</time></trkpt><trkpt lat="45.168398696393936" lon="9.597828979819363"><ele>61.0</ele><time>2026-05-01T18:05:23.999Z</time></trkpt><trkpt lat="45.16857623717343" lon="9.597548898644785"><ele>61.0</ele><time>2026-05-01T18:05:24.999Z</time></trkpt><trkpt lat="45.16875355427296" lon="9.597270330302866"><ele>61.0</ele><time>2026-05-01T18:05:25.999Z</time></trkpt><trkpt lat="45.16893144783174" lon="9.596990631324273"><ele>62.0</ele><time>2026-05-01T18:05:26.999Z</time></trkpt><trkpt lat="45.1691084357221" lon="9.596708701994364"><ele>63.0</ele><time>2026-05-01T18:05:27.999Z</time></trkpt><trkpt lat="45.16928633984415" lon="9.596431892188635"><ele>63.0</ele><time>2026-05-01T18:05:28.999Z</time></trkpt><trkpt lat="45.16946570356619" lon="9.596153457915477"><ele>63.0</ele><time>2026-05-01T18:05:29.999Z</time></trkpt><trkpt lat="45.1696442683313" lon="9.595873178693562"><ele>63.0</ele><time>2026-05-01T18:05:30.999Z</time></trkpt><trkpt lat="45.16982085740884" lon="9.595595972609518"><ele>63.0</ele><time>2026-05-01T18:05:31.999Z</time></trkpt><trkpt lat="45.16999761915403" lon="9.595318416677054"><ele>65.0</ele><time>2026-05-01T18:05:32.999Z</time></trkpt><trkpt lat="45.170172805347015" lon="9.595043563857644"><ele>67.0</ele><time>2026-05-01T18:05:33.999Z</time></trkpt><trkpt lat="45.17034965189795" lon="9.594767873225992"><ele>66.5</ele><time>2026-05-01T18:05:34.999Z</time></trkpt><trkpt lat="45.17052460328203" lon="9.59449158001223"><ele>66.0</ele><time>2026-05-01T18:05:35.999Z</time></trkpt><trkpt lat="45.17069922211542" lon="9.594216028290413"><ele>66.0</ele><time>2026-05-01T18:05:36.999Z</time></trkpt><trkpt lat="45.170873452856725" lon="9.593942182059088"><ele>66.0</ele><time>2026-05-01T18:05:37.999Z</time></trkpt><trkpt lat="45.1710482927882" lon="9.593671455027012"><ele>66.0</ele><time>2026-05-01T18:05:38.999Z</time></trkpt><trkpt lat="45.171220745652555" lon="9.593400194756013"><ele>66.0</ele><time>2026-05-01T18:05:39.999Z</time></trkpt><trkpt lat="45.17139425330146" lon="9.593131450403126"><ele>66.0</ele><time>2026-05-01T18:05:40.999Z</time></trkpt><trkpt lat="45.17156552905756" lon="9.592866553829976"><ele>66.0</ele><time>2026-05-01T18:05:41.999Z</time></trkpt><trkpt lat="45.1717358176579" lon="9.592599237216577"><ele>66.0</ele><time>2026-05-01T18:05:42.999Z</time></trkpt><trkpt lat="45.17190494644342" lon="9.592332558482473"><ele>66.0</ele><time>2026-05-01T18:05:43.999Z</time></trkpt><trkpt lat="45.172073670821604" lon="9.592067688332563"><ele>65.0</ele><time>2026-05-01T18:05:44.999Z</time></trkpt><trkpt lat="45.172242600366694" lon="9.591802037824923"><ele>64.0</ele><time>2026-05-01T18:05:45.999Z</time></trkpt><trkpt lat="45.17241317531193" lon="9.59153201868012"><ele>63.5</ele><time>2026-05-01T18:05:46.999Z</time></trkpt><trkpt lat="45.17258381536509" lon="9.591260062640796"><ele>63.0</ele><time>2026-05-01T18:05:47.999Z</time></trkpt><trkpt lat="45.17276028628287" lon="9.590990122519683"><ele>64.0</ele><time>2026-05-01T18:05:48.999Z</time></trkpt><trkpt lat="45.17293611534" lon="9.59072257132741"><ele>65.0</ele><time>2026-05-01T18:05:49.999Z</time></trkpt><trkpt lat="45.173113124772584" lon="9.590448354656711"><ele>65.0</ele><time>2026-05-01T18:05:50.999Z</time></trkpt><trkpt lat="45.17328762644524" lon="9.590173871313075"><ele>65.0</ele><time>2026-05-01T18:05:51.999Z</time></trkpt><trkpt lat="45.173463478569396" lon="9.589901597544895"><ele>65.0</ele><time>2026-05-01T18:05:52.999Z</time></trkpt><trkpt lat="45.17364087541938" lon="9.589626016069372"><ele>65.0</ele><time>2026-05-01T18:05:53.999Z</time></trkpt><trkpt lat="45.173816774257766" lon="9.58935027300287"><ele>64.5</ele><time>2026-05-01T18:05:54.999Z</time></trkpt><trkpt lat="45.173993438276455" lon="9.589072018737472"><ele>64.0</ele><time>2026-05-01T18:05:55.999Z</time></trkpt><trkpt lat="45.17417155215982" lon="9.588791224249526"><ele>63.0</ele><time>2026-05-01T18:05:56.999Z</time></trkpt><trkpt lat="45.174348337294575" lon="9.58851179849534"><ele>62.0</ele><time>2026-05-01T18:05:57.999Z</time></trkpt><trkpt lat="45.174525399665036" lon="9.588235240832365"><ele>62.0</ele><time>2026-05-01T18:05:58.999Z</time></trkpt><trkpt lat="45.17470290927944" lon="9.58795784428288"><ele>62.0</ele><time>2026-05-01T18:05:59.999Z</time></trkpt><trkpt lat="45.17487883598683" lon="9.587684282698932"><ele>62.5</ele><time>2026-05-01T18:06:00.999Z</time></trkpt><trkpt lat="45.17505466828736" lon="9.58741006380271"><ele>63.0</ele><time>2026-05-01T18:06:01.999Z</time></trkpt><trkpt lat="45.17523082470265" lon="9.587137834140647"><ele>63.5</ele><time>2026-05-01T18:06:02.999Z</time></trkpt><trkpt lat="45.175403218139174" lon="9.58686347810012"><ele>64.0</ele><time>2026-05-01T18:06:03.999Z</time></trkpt><trkpt lat="45.17557728202984" lon="9.586591238490186"><ele>64.0</ele><time>2026-05-01T18:06:04.999Z</time></trkpt><trkpt lat="45.17575201351909" lon="9.586321117992636"><ele>64.0</ele><time>2026-05-01T18:06:05.999Z</time></trkpt><trkpt lat="45.175926429626905" lon="9.586044153110414"><ele>64.0</ele><time>2026-05-01T18:06:06.999Z</time></trkpt><trkpt lat="45.1760999794745" lon="9.58577034954703"><ele>64.0</ele><time>2026-05-01T18:06:07.999Z</time></trkpt><trkpt lat="45.17627343876221" lon="9.585492825208515"><ele>64.0</ele><time>2026-05-01T18:06:08.999Z</time></trkpt><trkpt lat="45.17644734343039" lon="9.585217462521213"><ele>64.0</ele><time>2026-05-01T18:06:09.999Z</time></trkpt><trkpt lat="45.17662290714123" lon="9.58494381016808"><ele>63.5</ele><time>2026-05-01T18:06:11Z</time></trkpt><trkpt lat="45.17679834676144" lon="9.584671077692374"><ele>63.0</ele><time>2026-05-01T18:06:12Z</time></trkpt><trkpt lat="45.17697592997953" lon="9.584398667312556"><ele>63.0</ele><time>2026-05-01T18:06:13Z</time></trkpt><trkpt lat="45.17715094255348" lon="9.584124242189906"><ele>63.0</ele><time>2026-05-01T18:06:14Z</time></trkpt><trkpt lat="45.177326329509185" lon="9.583850870997916"><ele>64.5</ele><time>2026-05-01T18:06:15Z</time></trkpt><trkpt lat="45.17750113100691" lon="9.583574154480901"><ele>66.0</ele><time>2026-05-01T18:06:16Z</time></trkpt><trkpt lat="45.17767642816932" lon="9.583298819072889"><ele>66.0</ele><time>2026-05-01T18:06:17Z</time></trkpt><trkpt lat="45.177850209304" lon="9.583027687250441"><ele>66.0</ele><time>2026-05-01T18:06:18Z</time></trkpt><trkpt lat="45.17802577317344" lon="9.58275472690562"><ele>64.0</ele><time>2026-05-01T18:06:19Z</time></trkpt><trkpt lat="45.17819607255751" lon="9.582488298064566"><ele>62.0</ele><time>2026-05-01T18:06:20Z</time></trkpt><trkpt lat="45.17836879581236" lon="9.582211056970062"><ele>62.5</ele><time>2026-05-01T18:06:21Z</time></trkpt><trkpt lat="45.17854351090296" lon="9.581936423394048"><ele>63.0</ele><time>2026-05-01T18:06:22Z</time></trkpt><trkpt lat="45.17872062513497" lon="9.581667047370713"><ele>63.0</ele><time>2026-05-01T18:06:23Z</time></trkpt><trkpt lat="45.17889491428869" lon="9.581396775217403"><ele>63.0</ele><time>2026-05-01T18:06:24Z</time></trkpt><trkpt lat="45.17906508951958" lon="9.581126916152451"><ele>62.5</ele><time>2026-05-01T18:06:25Z</time></trkpt><trkpt lat="45.179237824792516" lon="9.58085603919867"><ele>62.0</ele><time>2026-05-01T18:06:26Z</time></trkpt><trkpt lat="45.17941250209705" lon="9.580579346498052"><ele>62.5</ele><time>2026-05-01T18:06:27Z</time></trkpt><trkpt lat="45.179586826715855" lon="9.580301174997583"><ele>63.0</ele><time>2026-05-01T18:06:28Z</time></trkpt><trkpt lat="45.17976205753022" lon="9.580031890664637"><ele>63.0</ele><time>2026-05-01T18:06:29Z</time></trkpt><trkpt lat="45.17993284875328" lon="9.579766424886003"><ele>63.0</ele><time>2026-05-01T18:06:30Z</time></trkpt><trkpt lat="45.18010662389563" lon="9.579490946436819"><ele>64.0</ele><time>2026-05-01T18:06:31Z</time></trkpt><trkpt lat="45.18028143330889" lon="9.579217159470328"><ele>65.0</ele><time>2026-05-01T18:06:32Z</time></trkpt><trkpt lat="45.18045449231923" lon="9.578943518379175"><ele>63.5</ele><time>2026-05-01T18:06:33Z</time></trkpt><trkpt lat="45.180624997279885" lon="9.578673789672495"><ele>62.0</ele><time>2026-05-01T18:06:34Z</time></trkpt><trkpt lat="45.180801804251956" lon="9.578401504927333"><ele>62.0</ele><time>2026-05-01T18:06:35Z</time></trkpt><trkpt lat="45.18097844336503" lon="9.578129330431523"><ele>62.0</ele><time>2026-05-01T18:06:36Z</time></trkpt><trkpt lat="45.18115228657033" lon="9.577859699958864"><ele>62.5</ele><time>2026-05-01T18:06:37Z</time></trkpt><trkpt lat="45.1813283946679" lon="9.57758604228743"><ele>63.0</ele><time>2026-05-01T18:06:38Z</time></trkpt><trkpt lat="45.18150325760481" lon="9.577308496270524"><ele>63.0</ele><time>2026-05-01T18:06:39Z</time></trkpt><trkpt lat="45.18168022656134" lon="9.577033188153292"><ele>63.0</ele><time>2026-05-01T18:06:40Z</time></trkpt><trkpt lat="45.18185686462198" lon="9.576757814103887"><ele>63.0</ele><time>2026-05-01T18:06:41Z</time></trkpt><trkpt lat="45.182033284167794" lon="9.576484445216813"><ele>63.0</ele><time>2026-05-01T18:06:42Z</time></trkpt><trkpt lat="45.18220238431752" lon="9.576217029380874"><ele>62.0</ele><time>2026-05-01T18:06:43Z</time></trkpt><trkpt lat="45.182372004198875" lon="9.575949227005285"><ele>61.0</ele><time>2026-05-01T18:06:44Z</time></trkpt><trkpt lat="45.18254321040921" lon="9.575685011208005"><ele>61.0</ele><time>2026-05-01T18:06:45Z</time></trkpt><trkpt lat="45.182711709586144" lon="9.575423892722554"><ele>61.0</ele><time>2026-05-01T18:06:46Z</time></trkpt><trkpt lat="45.18287696124225" lon="9.57516180292798"><ele>61.0</ele><time>2026-05-01T18:06:47Z</time></trkpt><trkpt lat="45.18304193826604" lon="9.574903672228876"><ele>61.0</ele><time>2026-05-01T18:06:48Z</time></trkpt><trkpt lat="45.183205646068885" lon="9.574644928809564"><ele>61.5</ele><time>2026-05-01T18:06:49Z</time></trkpt><trkpt lat="45.183369624075965" lon="9.574384270309228"><ele>62.0</ele><time>2026-05-01T18:06:50Z</time></trkpt><trkpt lat="45.18353654590292" lon="9.57412366676087"><ele>62.0</ele><time>2026-05-01T18:06:51Z</time></trkpt><trkpt lat="45.18370227797008" lon="9.573864974943163"><ele>62.0</ele><time>2026-05-01T18:06:52Z</time></trkpt><trkpt lat="45.183867197675085" lon="9.573603740515413"><ele>62.0</ele><time>2026-05-01T18:06:53Z</time></trkpt><trkpt lat="45.184035217843196" lon="9.573344355410443"><ele>62.0</ele><time>2026-05-01T18:06:54Z</time></trkpt><trkpt lat="45.18420035952622" lon="9.573083140564814"><ele>62.0</ele><time>2026-05-01T18:06:55Z</time></trkpt><trkpt lat="45.184368140870426" lon="9.572824314504512"><ele>62.0</ele><time>2026-05-01T18:06:56Z</time></trkpt><trkpt lat="45.184534100023484" lon="9.57256023834162"><ele>62.0</ele><time>2026-05-01T18:06:57Z</time></trkpt><trkpt lat="45.1847024965806" lon="9.572303047361315"><ele>62.0</ele><time>2026-05-01T18:06:58Z</time></trkpt><trkpt lat="45.184870226763614" lon="9.572043660312575"><ele>61.0</ele><time>2026-05-01T18:06:59Z</time></trkpt><trkpt lat="45.18503724175897" lon="9.571784310478465"><ele>60.0</ele><time>2026-05-01T18:07:00Z</time></trkpt><trkpt lat="45.185202886469845" lon="9.571526102517014"><ele>60.0</ele><time>2026-05-01T18:07:01Z</time></trkpt><trkpt lat="45.18536581265233" lon="9.571264711636793"><ele>60.0</ele><time>2026-05-01T18:07:02Z</time></trkpt><trkpt lat="45.18553015302042" lon="9.571004410554817"><ele>60.0</ele><time>2026-05-01T18:07:03Z</time></trkpt><trkpt lat="45.18569689177638" lon="9.570748727806603"><ele>60.0</ele><time>2026-05-01T18:07:04Z</time></trkpt><trkpt lat="45.185859078736854" lon="9.570490416160066"><ele>61.5</ele><time>2026-05-01T18:07:05Z</time></trkpt><trkpt lat="45.186024604170115" lon="9.570229905651914"><ele>63.0</ele><time>2026-05-01T18:07:06Z</time></trkpt><trkpt lat="45.186190389938936" lon="9.56997121231121"><ele>63.0</ele><time>2026-05-01T18:07:07Z</time></trkpt><trkpt lat="45.186355599650724" lon="9.569712925875896"><ele>63.0</ele><time>2026-05-01T18:07:08Z</time></trkpt><trkpt lat="45.186519390699864" lon="9.56945302483539"><ele>62.5</ele><time>2026-05-01T18:07:09Z</time></trkpt><trkpt lat="45.186682740958794" lon="9.569195796570732"><ele>62.0</ele><time>2026-05-01T18:07:10Z</time></trkpt><trkpt lat="45.18684843861768" lon="9.568931935422782"><ele>62.5</ele><time>2026-05-01T18:07:11Z</time></trkpt><trkpt lat="45.18701794609224" lon="9.568669979638958"><ele>63.0</ele><time>2026-05-01T18:07:12Z</time></trkpt><trkpt lat="45.18718375319792" lon="9.568409814304992"><ele>62.5</ele><time>2026-05-01T18:07:13Z</time></trkpt><trkpt lat="45.1873510654167" lon="9.568145476689809"><ele>62.0</ele><time>2026-05-01T18:07:14Z</time></trkpt><trkpt lat="45.18751703155376" lon="9.56788340195919"><ele>62.0</ele><time>2026-05-01T18:07:15Z</time></trkpt><trkpt lat="45.18768581243234" lon="9.567622986893735"><ele>62.0</ele><time>2026-05-01T18:07:16Z</time></trkpt><trkpt lat="45.18785301601743" lon="9.5673593756868"><ele>62.0</ele><time>2026-05-01T18:07:17Z</time></trkpt><trkpt lat="45.188023961827064" lon="9.567096579468952"><ele>62.0</ele><time>2026-05-01T18:07:18Z</time></trkpt><trkpt lat="45.18819289326286" lon="9.566832190162032"><ele>62.5</ele><time>2026-05-01T18:07:19Z</time></trkpt><trkpt lat="45.18836250683863" lon="9.566569496286998"><ele>63.0</ele><time>2026-05-01T18:07:19.999Z</time></trkpt><trkpt lat="45.18853219653472" lon="9.566304720305817"><ele>63.5</ele><time>2026-05-01T18:07:20.999Z</time></trkpt><trkpt lat="45.18870285261556" lon="9.566040253606948"><ele>64.0</ele><time>2026-05-01T18:07:21.999Z</time></trkpt><trkpt lat="45.18886743293101" lon="9.565788280836848"><ele>63.0</ele><time>2026-05-01T18:07:22.999Z</time></trkpt><trkpt lat="45.18904086384982" lon="9.565522749792787"><ele>62.0</ele><time>2026-05-01T18:07:23.999Z</time></trkpt><trkpt lat="45.18921026683841" lon="9.565256685565362"><ele>62.0</ele><time>2026-05-01T18:07:24.999Z</time></trkpt><trkpt lat="45.189379066351854" lon="9.564989803086426"><ele>62.0</ele><time>2026-05-01T18:07:25.999Z</time></trkpt><trkpt lat="45.18954777516186" lon="9.56472239837407"><ele>62.0</ele><time>2026-05-01T18:07:26.999Z</time></trkpt><trkpt lat="45.18971794036065" lon="9.564455919430667"><ele>62.0</ele><time>2026-05-01T18:07:27.999Z</time></trkpt><trkpt lat="45.18988770191638" lon="9.564191977840204"><ele>62.0</ele><time>2026-05-01T18:07:28.999Z</time></trkpt><trkpt lat="45.19005978822426" lon="9.563926271950567"><ele>62.0</ele><time>2026-05-01T18:07:29.999Z</time></trkpt><trkpt lat="45.19023137903851" lon="9.563664229103258"><ele>62.0</ele><time>2026-05-01T18:07:30.999Z</time></trkpt><trkpt lat="45.19040328754303" lon="9.563399114878028"><ele>62.0</ele><time>2026-05-01T18:07:31.999Z</time></trkpt><trkpt lat="45.190573886179145" lon="9.563135960925225"><ele>62.0</ele><time>2026-05-01T18:07:32.999Z</time></trkpt><trkpt lat="45.19074689735949" lon="9.562874399766072"><ele>62.0</ele><time>2026-05-01T18:07:33.999Z</time></trkpt><trkpt lat="45.19091992050275" lon="9.56261621572897"><ele>62.0</ele><time>2026-05-01T18:07:34.999Z</time></trkpt><trkpt lat="45.19108979433317" lon="9.562360512141252"><ele>62.0</ele><time>2026-05-01T18:07:35.999Z</time></trkpt><trkpt lat="45.19125969747404" lon="9.562106728253523"><ele>62.0</ele><time>2026-05-01T18:07:36.999Z</time></trkpt><trkpt lat="45.1914291691089" lon="9.561851190133606"><ele>62.0</ele><time>2026-05-01T18:07:37.999Z</time></trkpt><trkpt lat="45.19159886568763" lon="9.561599993648167"><ele>62.0</ele><time>2026-05-01T18:07:38.999Z</time></trkpt><trkpt lat="45.19177010241923" lon="9.561345125308971"><ele>62.0</ele><time>2026-05-01T18:07:39.999Z</time></trkpt><trkpt lat="45.19194496186629" lon="9.561090584324415"><ele>61.5</ele><time>2026-05-01T18:07:40.999Z</time></trkpt><trkpt lat="45.1921209026117" lon="9.560837168817487"><ele>61.0</ele><time>2026-05-01T18:07:41.999Z</time></trkpt><trkpt lat="45.19229960203998" lon="9.560583456098108"><ele>60.5</ele><time>2026-05-01T18:07:42.999Z</time></trkpt><trkpt lat="45.19247547272133" lon="9.56032844562946"><ele>60.0</ele><time>2026-05-01T18:07:43.999Z</time></trkpt><trkpt lat="45.19265109380384" lon="9.560071122507162"><ele>60.0</ele><time>2026-05-01T18:07:44.999Z</time></trkpt><trkpt lat="45.19282599287982" lon="9.559817504543355"><ele>60.0</ele><time>2026-05-01T18:07:45.999Z</time></trkpt><trkpt lat="45.19300458242822" lon="9.559563361620459"><ele>61.0</ele><time>2026-05-01T18:07:46.999Z</time></trkpt><trkpt lat="45.19318486272463" lon="9.559307926734268"><ele>62.0</ele><time>2026-05-01T18:07:47.999Z</time></trkpt><trkpt lat="45.193367009198774" lon="9.559052208771949"><ele>62.0</ele><time>2026-05-01T18:07:48.999Z</time></trkpt><trkpt lat="45.193549959154986" lon="9.55879125946935"><ele>62.0</ele><time>2026-05-01T18:07:49.999Z</time></trkpt><trkpt lat="45.193735140864035" lon="9.558535218448213"><ele>62.5</ele><time>2026-05-01T18:07:50.999Z</time></trkpt><trkpt lat="45.19392194113299" lon="9.558280536164327"><ele>63.0</ele><time>2026-05-01T18:07:51.999Z</time></trkpt><trkpt lat="45.19411004314867" lon="9.558030176828433"><ele>63.0</ele><time>2026-05-01T18:07:52.999Z</time></trkpt><trkpt lat="45.19429673985178" lon="9.557775548880532"><ele>63.0</ele><time>2026-05-01T18:07:53.999Z</time></trkpt><trkpt lat="45.194478452101954" lon="9.557521808294775"><ele>63.0</ele><time>2026-05-01T18:07:54.999Z</time></trkpt><trkpt lat="45.19466279722602" lon="9.557266180672412"><ele>63.0</ele><time>2026-05-01T18:07:55.999Z</time></trkpt><trkpt lat="45.19485000595744" lon="9.557020143061404"><ele>62.5</ele><time>2026-05-01T18:07:56.999Z</time></trkpt><trkpt lat="45.195045902175295" lon="9.556763252461488"><ele>62.0</ele><time>2026-05-01T18:07:57.999Z</time></trkpt><trkpt lat="45.19524875473869" lon="9.556522648464993"><ele>62.0</ele><time>2026-05-01T18:07:58.999Z</time></trkpt><trkpt lat="45.19545607558569" lon="9.55627448421408"><ele>62.0</ele><time>2026-05-01T18:07:59.999Z</time></trkpt><trkpt lat="45.195676746082135" lon="9.556030066067182"><ele>61.5</ele><time>2026-05-01T18:08:00.999Z</time></trkpt><trkpt lat="45.19590756472427" lon="9.555785968935524"><ele>61.0</ele><time>2026-05-01T18:08:01.999Z</time></trkpt><trkpt lat="45.196137256304375" lon="9.555541621463883"><ele>62.0</ele><time>2026-05-01T18:08:02.999Z</time></trkpt><trkpt lat="45.1963705705225" lon="9.555306405120067"><ele>63.0</ele><time>2026-05-01T18:08:03.999Z</time></trkpt><trkpt lat="45.1966005432636" lon="9.555061109273794"><ele>63.0</ele><time>2026-05-01T18:08:04.999Z</time></trkpt><trkpt lat="45.19682060413167" lon="9.554815156044594"><ele>63.0</ele><time>2026-05-01T18:08:05.999Z</time></trkpt><trkpt lat="45.19707745948886" lon="9.554574045643495"><ele>63.0</ele><time>2026-05-01T18:08:06.999Z</time></trkpt><trkpt lat="45.19690825687838" lon="9.554306030819088"><ele>63.0</ele><time>2026-05-01T18:08:07.999Z</time></trkpt><trkpt lat="45.19709651584357" lon="9.554053465885914"><ele>63.0</ele><time>2026-05-01T18:08:08.999Z</time></trkpt><trkpt lat="45.19728810043706" lon="9.553804135019789"><ele>63.0</ele><time>2026-05-01T18:08:09.999Z</time></trkpt><trkpt lat="45.19748443267053" lon="9.553542587484088"><ele>62.5</ele><time>2026-05-01T18:08:10.999Z</time></trkpt><trkpt lat="45.197675191365725" lon="9.553291941519857"><ele>62.0</ele><time>2026-05-01T18:08:11.999Z</time></trkpt><trkpt lat="45.19786958063282" lon="9.553044322895968"><ele>62.0</ele><time>2026-05-01T18:08:12.999Z</time></trkpt><trkpt lat="45.19806567510549" lon="9.552790639534843"><ele>62.0</ele><time>2026-05-01T18:08:13.999Z</time></trkpt><trkpt lat="45.19825896757883" lon="9.552535091809629"><ele>63.5</ele><time>2026-05-01T18:08:14.999Z</time></trkpt><trkpt lat="45.19845139569764" lon="9.552284242431806"><ele>65.0</ele><time>2026-05-01T18:08:15.999Z</time></trkpt><trkpt lat="45.198651191056676" lon="9.552030333290352"><ele>65.0</ele><time>2026-05-01T18:08:17Z</time></trkpt><trkpt lat="45.198848120777015" lon="9.551775656532003"><ele>65.0</ele><time>2026-05-01T18:08:18Z</time></trkpt><trkpt lat="45.199041186407484" lon="9.551514559558626"><ele>63.5</ele><time>2026-05-01T18:08:19Z</time></trkpt><trkpt lat="45.1992363736664" lon="9.551264517702034"><ele>62.0</ele><time>2026-05-01T18:08:20Z</time></trkpt><trkpt lat="45.19942838022169" lon="9.55101270739267"><ele>62.0</ele><time>2026-05-01T18:08:21Z</time></trkpt><trkpt lat="45.19961771206844" lon="9.550754807284095"><ele>62.0</ele><time>2026-05-01T18:08:22Z</time></trkpt><trkpt lat="45.199813015984645" lon="9.550508329563215"><ele>62.0</ele><time>2026-05-01T18:08:23Z</time></trkpt><trkpt lat="45.200007228875016" lon="9.550252984571117"><ele>62.0</ele><time>2026-05-01T18:08:24Z</time></trkpt><trkpt lat="45.200196002534966" lon="9.550000293558119"><ele>62.0</ele><time>2026-05-01T18:08:25Z</time></trkpt><trkpt lat="45.20038395923202" lon="9.549744347743164"><ele>62.0</ele><time>2026-05-01T18:08:26Z</time></trkpt><trkpt lat="45.20057641899551" lon="9.549494103533785"><ele>62.5</ele><time>2026-05-01T18:08:27Z</time></trkpt><trkpt lat="45.20076906832364" lon="9.549242800459924"><ele>63.0</ele><time>2026-05-01T18:08:28Z</time></trkpt><trkpt lat="45.200958529574756" lon="9.548995859318834"><ele>63.0</ele><time>2026-05-01T18:08:29Z</time></trkpt><trkpt lat="45.20115177782707" lon="9.5487438002646"><ele>63.0</ele><time>2026-05-01T18:08:30Z</time></trkpt><trkpt lat="45.201342810823014" lon="9.548494587392188"><ele>62.0</ele><time>2026-05-01T18:08:31Z</time></trkpt><trkpt lat="45.20153516363099" lon="9.54824292824288"><ele>61.0</ele><time>2026-05-01T18:08:32Z</time></trkpt><trkpt lat="45.20172631058552" lon="9.547989484170888"><ele>61.5</ele><time>2026-05-01T18:08:33Z</time></trkpt><trkpt lat="45.201917288271005" lon="9.547741407354692"><ele>62.0</ele><time>2026-05-01T18:08:34Z</time></trkpt><trkpt lat="45.20210806009493" lon="9.547485647775167"><ele>62.0</ele><time>2026-05-01T18:08:35Z</time></trkpt><trkpt lat="45.202297597382795" lon="9.547235870114585"><ele>62.0</ele><time>2026-05-01T18:08:36Z</time></trkpt><trkpt lat="45.20248763635277" lon="9.546983644543749"><ele>63.0</ele><time>2026-05-01T18:08:37Z</time></trkpt><trkpt lat="45.20267841472176" lon="9.546733307817563"><ele>64.0</ele><time>2026-05-01T18:08:38Z</time></trkpt><trkpt lat="45.202868779566934" lon="9.546484669163464"><ele>64.0</ele><time>2026-05-01T18:08:39Z</time></trkpt><trkpt lat="45.203061821868246" lon="9.546234625035877"><ele>64.0</ele><time>2026-05-01T18:08:40Z</time></trkpt><trkpt lat="45.20325318270166" lon="9.54598401186644"><ele>64.0</ele><time>2026-05-01T18:08:41Z</time></trkpt><trkpt lat="45.20344245536592" lon="9.54573829933242"><ele>64.0</ele><time>2026-05-01T18:08:42Z</time></trkpt><trkpt lat="45.2036311816228" lon="9.545487421551409"><ele>63.5</ele><time>2026-05-01T18:08:43Z</time></trkpt><trkpt lat="45.20382210469344" lon="9.545236150295977"><ele>63.0</ele><time>2026-05-01T18:08:44Z</time></trkpt><trkpt lat="45.20401114615549" lon="9.544984580577033"><ele>62.5</ele><time>2026-05-01T18:08:45Z</time></trkpt><trkpt lat="45.204200902312586" lon="9.544735582352299"><ele>62.0</ele><time>2026-05-01T18:08:46Z</time></trkpt><trkpt lat="45.204390739840036" lon="9.544487258092765"><ele>62.0</ele><time>2026-05-01T18:08:47Z</time></trkpt><trkpt lat="45.2045805738638" lon="9.544236818027525"><ele>62.0</ele><time>2026-05-01T18:08:48Z</time></trkpt><trkpt lat="45.20477254519303" lon="9.543983883634072"><ele>62.5</ele><time>2026-05-01T18:08:49Z</time></trkpt><trkpt lat="45.20496137305044" lon="9.54373242975722"><ele>63.0</ele><time>2026-05-01T18:08:50Z</time></trkpt><trkpt lat="45.205152162087444" lon="9.5434820780342"><ele>63.0</ele><time>2026-05-01T18:08:51Z</time></trkpt><trkpt lat="45.205345490629625" lon="9.543233844475882"><ele>63.0</ele><time>2026-05-01T18:08:52Z</time></trkpt><trkpt lat="45.205537771711846" lon="9.542982467890695"><ele>64.0</ele><time>2026-05-01T18:08:53Z</time></trkpt><trkpt lat="45.20572999220646" lon="9.542727641388774"><ele>65.0</ele><time>2026-05-01T18:08:54Z</time></trkpt><trkpt lat="45.20592375952844" lon="9.542472971074963"><ele>65.0</ele><time>2026-05-01T18:08:55Z</time></trkpt><trkpt lat="45.20611619585702" lon="9.542223299057653"><ele>65.0</ele><time>2026-05-01T18:08:56Z</time></trkpt><trkpt lat="45.20631102641855" lon="9.541970635744011"><ele>64.0</ele><time>2026-05-01T18:08:57Z</time></trkpt><trkpt lat="45.2065019318449" lon="9.541714955830084"><ele>63.0</ele><time>2026-05-01T18:08:58Z</time></trkpt><trkpt lat="45.20669372552426" lon="9.541459360794553"><ele>63.0</ele><time>2026-05-01T18:08:59Z</time></trkpt><trkpt lat="45.20688581029643" lon="9.541208543796046"><ele>63.0</ele><time>2026-05-01T18:09:00Z</time></trkpt><trkpt lat="45.2070771432688" lon="9.540953360597394"><ele>63.0</ele><time>2026-05-01T18:09:01Z</time></trkpt><trkpt lat="45.20726841460758" lon="9.540705940958867"><ele>63.0</ele><time>2026-05-01T18:09:02Z</time></trkpt><trkpt lat="45.20745730030563" lon="9.540459371531046"><ele>64.0</ele><time>2026-05-01T18:09:03Z</time></trkpt><trkpt lat="45.207651652069934" lon="9.540208907200233"><ele>65.0</ele><time>2026-05-01T18:09:04Z</time></trkpt><trkpt lat="45.2078401890181" lon="9.539954798077078"><ele>65.0</ele><time>2026-05-01T18:09:05Z</time></trkpt><trkpt lat="45.20802946445048" lon="9.539705968986043"><ele>65.0</ele><time>2026-05-01T18:09:06Z</time></trkpt><trkpt lat="45.2082195236506" lon="9.539457318809186"><ele>64.5</ele><time>2026-05-01T18:09:07Z</time></trkpt><trkpt lat="45.208408230844924" lon="9.539212603021795"><ele>64.0</ele><time>2026-05-01T18:09:08Z</time></trkpt><trkpt lat="45.20859515164905" lon="9.538961994046323"><ele>64.0</ele><time>2026-05-01T18:09:09Z</time></trkpt><trkpt lat="45.20878244390654" lon="9.538713747018912"><ele>64.0</ele><time>2026-05-01T18:09:10Z</time></trkpt><trkpt lat="45.20897197723481" lon="9.538465210565382"><ele>64.5</ele><time>2026-05-01T18:09:11Z</time></trkpt><trkpt lat="45.209164437067464" lon="9.538211483017317"><ele>65.0</ele><time>2026-05-01T18:09:12Z</time></trkpt><trkpt lat="45.20935692805601" lon="9.537961724839079"><ele>65.0</ele><time>2026-05-01T18:09:13Z</time></trkpt><trkpt lat="45.209545168536955" lon="9.537712410620639"><ele>65.0</ele><time>2026-05-01T18:09:14Z</time></trkpt><trkpt lat="45.20973639009943" lon="9.537459528195159"><ele>65.0</ele><time>2026-05-01T18:09:15Z</time></trkpt><trkpt lat="45.20992542053899" lon="9.537208268367957"><ele>65.0</ele><time>2026-05-01T18:09:16Z</time></trkpt><trkpt lat="45.210117209865786" lon="9.53695766938662"><ele>64.5</ele><time>2026-05-01T18:09:17Z</time></trkpt><trkpt lat="45.21030716606278" lon="9.536706138287013"><ele>64.0</ele><time>2026-05-01T18:09:18Z</time></trkpt><trkpt lat="45.210497567970044" lon="9.536459355253006"><ele>64.0</ele><time>2026-05-01T18:09:19Z</time></trkpt><trkpt lat="45.210689860147504" lon="9.536209934284113"><ele>64.0</ele><time>2026-05-01T18:09:20Z</time></trkpt><trkpt lat="45.2108808318749" lon="9.535958238691435"><ele>64.0</ele><time>2026-05-01T18:09:21Z</time></trkpt><trkpt lat="45.21107030509574" lon="9.535704316038881"><ele>64.0</ele><time>2026-05-01T18:09:22Z</time></trkpt><trkpt lat="45.21126287755859" lon="9.535450057501853"><ele>64.5</ele><time>2026-05-01T18:09:23Z</time></trkpt><trkpt lat="45.211456830934765" lon="9.535196927787739"><ele>65.0</ele><time>2026-05-01T18:09:24Z</time></trkpt><trkpt lat="45.21165012781986" lon="9.534941925835705"><ele>65.0</ele><time>2026-05-01T18:09:25Z</time></trkpt><trkpt lat="45.211844507994016" lon="9.534688498153963"><ele>65.0</ele><time>2026-05-01T18:09:25.999Z</time></trkpt><trkpt lat="45.212039508619974" lon="9.534433477467902"><ele>65.0</ele><time>2026-05-01T18:09:26.999Z</time></trkpt><trkpt lat="45.21223357865679" lon="9.534176205342234"><ele>65.0</ele><time>2026-05-01T18:09:27.999Z</time></trkpt><trkpt lat="45.21242603587527" lon="9.53392100007933"><ele>65.0</ele><time>2026-05-01T18:09:28.999Z</time></trkpt><trkpt lat="45.21261992535833" lon="9.53366635288598"><ele>65.0</ele><time>2026-05-01T18:09:29.999Z</time></trkpt><trkpt lat="45.21281292009685" lon="9.533407513763663"><ele>65.0</ele><time>2026-05-01T18:09:30.999Z</time></trkpt><trkpt lat="45.21300633681112" lon="9.53315683952849"><ele>65.0</ele><time>2026-05-01T18:09:31.999Z</time></trkpt><trkpt lat="45.21320119374017" lon="9.532905676935961"><ele>64.5</ele><time>2026-05-01T18:09:32.999Z</time></trkpt><trkpt lat="45.213393554181785" lon="9.532655145146183"><ele>64.0</ele><time>2026-05-01T18:09:33.999Z</time></trkpt><trkpt lat="45.21358570471715" lon="9.532398959048807"><ele>64.0</ele><time>2026-05-01T18:09:34.999Z</time></trkpt><trkpt lat="45.21377783064079" lon="9.532143729719394"><ele>64.0</ele><time>2026-05-01T18:09:35.999Z</time></trkpt><trkpt lat="45.21397119807366" lon="9.531888920292017"><ele>63.5</ele><time>2026-05-01T18:09:36.999Z</time></trkpt><trkpt lat="45.21416146976845" lon="9.53163604804183"><ele>63.0</ele><time>2026-05-01T18:09:37.999Z</time></trkpt><trkpt lat="45.21435135580659" lon="9.531382477190052"><ele>64.0</ele><time>2026-05-01T18:09:38.999Z</time></trkpt><trkpt lat="45.214549757555204" lon="9.531131964776623"><ele>65.0</ele><time>2026-05-01T18:09:39.999Z</time></trkpt><trkpt lat="45.21474021990552" lon="9.530880008825989"><ele>64.5</ele><time>2026-05-01T18:09:40.999Z</time></trkpt><trkpt lat="45.214933823726604" lon="9.530624242072841"><ele>64.0</ele><time>2026-05-01T18:09:41.999Z</time></trkpt><trkpt lat="45.21512752761602" lon="9.530368366451441"><ele>64.0</ele><time>2026-05-01T18:09:42.999Z</time></trkpt><trkpt lat="45.21531914779754" lon="9.530113516533081"><ele>64.0</ele><time>2026-05-01T18:09:43.999Z</time></trkpt><trkpt lat="45.21551390940791" lon="9.529858207945837"><ele>64.5</ele><time>2026-05-01T18:09:44.999Z</time></trkpt><trkpt lat="45.21570679259781" lon="9.529605938835097"><ele>65.0</ele><time>2026-05-01T18:09:45.999Z</time></trkpt><trkpt lat="45.21590134537822" lon="9.529353506433944"><ele>66.5</ele><time>2026-05-01T18:09:46.999Z</time></trkpt><trkpt lat="45.21609268440412" lon="9.529098934882562"><ele>68.0</ele><time>2026-05-01T18:09:47.999Z</time></trkpt><trkpt lat="45.21628773290776" lon="9.528836923148443"><ele>66.5</ele><time>2026-05-01T18:09:48.999Z</time></trkpt><trkpt lat="45.21648994881963" lon="9.528588864249713"><ele>65.0</ele><time>2026-05-01T18:09:49.999Z</time></trkpt><trkpt lat="45.216684077284135" lon="9.52832987844209"><ele>65.0</ele><time>2026-05-01T18:09:50.999Z</time></trkpt><trkpt lat="45.21687732576714" lon="9.528075161221842"><ele>65.0</ele><time>2026-05-01T18:09:51.999Z</time></trkpt><trkpt lat="45.21707012436086" lon="9.527824189158084"><ele>65.0</ele><time>2026-05-01T18:09:52.999Z</time></trkpt><trkpt lat="45.21726360053825" lon="9.52757076406413"><ele>65.0</ele><time>2026-05-01T18:09:53.999Z</time></trkpt><trkpt lat="45.2174527676197" lon="9.527314820346097"><ele>65.0</ele><time>2026-05-01T18:09:54.999Z</time></trkpt><trkpt lat="45.21763960241367" lon="9.527069643822788"><ele>65.0</ele><time>2026-05-01T18:09:55.999Z</time></trkpt><trkpt lat="45.217832277576356" lon="9.526820321707529"><ele>65.0</ele><time>2026-05-01T18:09:56.999Z</time></trkpt><trkpt lat="45.21801930170342" lon="9.526569717201145"><ele>65.0</ele><time>2026-05-01T18:09:57.999Z</time></trkpt><trkpt lat="45.218205298696304" lon="9.526325080520834"><ele>65.5</ele><time>2026-05-01T18:09:58.999Z</time></trkpt><trkpt lat="45.21839375627396" lon="9.526081929318638"><ele>66.0</ele><time>2026-05-01T18:09:59.999Z</time></trkpt><trkpt lat="45.21858019158202" lon="9.525835270260334"><ele>66.0</ele><time>2026-05-01T18:10:00.999Z</time></trkpt><trkpt lat="45.21876678088355" lon="9.525590230062589"><ele>66.0</ele><time>2026-05-01T18:10:01.999Z</time></trkpt><trkpt lat="45.21895415551291" lon="9.525344600796418"><ele>65.5</ele><time>2026-05-01T18:10:02.999Z</time></trkpt><trkpt lat="45.219140843505315" lon="9.52509906341417"><ele>65.0</ele><time>2026-05-01T18:10:03.999Z</time></trkpt><trkpt lat="45.21932731011927" lon="9.524856577643492"><ele>65.0</ele><time>2026-05-01T18:10:04.999Z</time></trkpt><trkpt lat="45.21951237939843" lon="9.524609698971338"><ele>65.0</ele><time>2026-05-01T18:10:05.999Z</time></trkpt><trkpt lat="45.219697659696536" lon="9.524367134302713"><ele>65.0</ele><time>2026-05-01T18:10:06.999Z</time></trkpt><trkpt lat="45.219883673611385" lon="9.524123928192765"><ele>65.0</ele><time>2026-05-01T18:10:07.999Z</time></trkpt><trkpt lat="45.22006894338764" lon="9.523882586746817"><ele>65.5</ele><time>2026-05-01T18:10:08.999Z</time></trkpt><trkpt lat="45.2202525828252" lon="9.5236421454856"><ele>66.0</ele><time>2026-05-01T18:10:09.999Z</time></trkpt><trkpt lat="45.2204359112041" lon="9.523401983927023"><ele>66.0</ele><time>2026-05-01T18:10:10.999Z</time></trkpt><trkpt lat="45.22061779349288" lon="9.523163664071417"><ele>66.0</ele><time>2026-05-01T18:10:11.999Z</time></trkpt><trkpt lat="45.22080069155089" lon="9.522922938617429"><ele>66.0</ele><time>2026-05-01T18:10:12.999Z</time></trkpt><trkpt lat="45.22098175107823" lon="9.522687696733275"><ele>66.0</ele><time>2026-05-01T18:10:13.999Z</time></trkpt><trkpt lat="45.22116083764404" lon="9.522453187752888"><ele>66.0</ele><time>2026-05-01T18:10:14.999Z</time></trkpt><trkpt lat="45.22133938433185" lon="9.522214798944358"><ele>66.0</ele><time>2026-05-01T18:10:15.999Z</time></trkpt><trkpt lat="45.22151657640159" lon="9.52197953152592"><ele>66.5</ele><time>2026-05-01T18:10:16.999Z</time></trkpt><trkpt lat="45.22169337856418" lon="9.521746099954248"><ele>67.0</ele><time>2026-05-01T18:10:17.999Z</time></trkpt><trkpt lat="45.2218713402502" lon="9.521508749456174"><ele>67.0</ele><time>2026-05-01T18:10:18.999Z</time></trkpt><trkpt lat="45.2220518633632" lon="9.521275930131669"><ele>67.0</ele><time>2026-05-01T18:10:19.999Z</time></trkpt><trkpt lat="45.22223437550758" lon="9.521037575128574"><ele>66.5</ele><time>2026-05-01T18:10:20.999Z</time></trkpt><trkpt lat="45.22241453152073" lon="9.520802746789828"><ele>66.0</ele><time>2026-05-01T18:10:21.999Z</time></trkpt><trkpt lat="45.22259472903948" lon="9.520563753115557"><ele>65.5</ele><time>2026-05-01T18:10:23Z</time></trkpt><trkpt lat="45.22277867840023" lon="9.520320087542649"><ele>65.0</ele><time>2026-05-01T18:10:24Z</time></trkpt><trkpt lat="45.22296122583886" lon="9.520078725466295"><ele>65.0</ele><time>2026-05-01T18:10:25Z</time></trkpt><trkpt lat="45.22314566721344" lon="9.519835163316966"><ele>65.0</ele><time>2026-05-01T18:10:26Z</time></trkpt><trkpt lat="45.22333298455154" lon="9.519589597368443"><ele>66.0</ele><time>2026-05-01T18:10:27Z</time></trkpt><trkpt lat="45.22351967223501" lon="9.51934294986974"><ele>67.0</ele><time>2026-05-01T18:10:28Z</time></trkpt><trkpt lat="45.22370462924987" lon="9.519101158405919"><ele>67.0</ele><time>2026-05-01T18:10:29Z</time></trkpt><trkpt lat="45.22389207581281" lon="9.518853419051549"><ele>67.0</ele><time>2026-05-01T18:10:30Z</time></trkpt><trkpt lat="45.224074729704746" lon="9.518616448534923"><ele>67.5</ele><time>2026-05-01T18:10:31Z</time></trkpt><trkpt lat="45.2242589705451" lon="9.518370163266535"><ele>68.0</ele><time>2026-05-01T18:10:32Z</time></trkpt><trkpt lat="45.224435919913084" lon="9.51814863059749"><ele>68.0</ele><time>2026-05-01T18:10:33Z</time></trkpt><trkpt lat="45.22460097303753" lon="9.517923366573479"><ele>68.0</ele><time>2026-05-01T18:10:34Z</time></trkpt><trkpt lat="45.2247693613662" lon="9.517696333813712"><ele>66.5</ele><time>2026-05-01T18:10:35Z</time></trkpt><trkpt lat="45.224938061789196" lon="9.517474431232772"><ele>65.0</ele><time>2026-05-01T18:10:36Z</time></trkpt><trkpt lat="45.22510936897614" lon="9.517247810403662"><ele>65.5</ele><time>2026-05-01T18:10:37Z</time></trkpt><trkpt lat="45.22528236591732" lon="9.5170197249528"><ele>66.0</ele><time>2026-05-01T18:10:38Z</time></trkpt><trkpt lat="45.22545882689898" lon="9.516792717858767"><ele>66.0</ele><time>2026-05-01T18:10:39Z</time></trkpt><trkpt lat="45.22563721103116" lon="9.51655719318685"><ele>66.0</ele><time>2026-05-01T18:10:40Z</time></trkpt><trkpt lat="45.225810919139086" lon="9.516323447171974"><ele>66.5</ele><time>2026-05-01T18:10:41Z</time></trkpt><trkpt lat="45.22599122748668" lon="9.51608773923364"><ele>67.0</ele><time>2026-05-01T18:10:42Z</time></trkpt><trkpt lat="45.22617049212128" lon="9.515850045827767"><ele>67.0</ele><time>2026-05-01T18:10:43Z</time></trkpt><trkpt lat="45.22635348018593" lon="9.515612315777217"><ele>67.0</ele><time>2026-05-01T18:10:44Z</time></trkpt><trkpt lat="45.226537143272786" lon="9.515373969598244"><ele>66.5</ele><time>2026-05-01T18:10:45Z</time></trkpt><trkpt lat="45.22672001798237" lon="9.515134840960059"><ele>66.0</ele><time>2026-05-01T18:10:46Z</time></trkpt><trkpt lat="45.22690449161933" lon="9.514895201153434"><ele>66.0</ele><time>2026-05-01T18:10:47Z</time></trkpt><trkpt lat="45.227089465296515" lon="9.514651216715471"><ele>66.0</ele><time>2026-05-01T18:10:48Z</time></trkpt><trkpt lat="45.22727548552999" lon="9.514409045478649"><ele>66.0</ele><time>2026-05-01T18:10:49Z</time></trkpt><trkpt lat="45.227462603064296" lon="9.5141635896384"><ele>66.0</ele><time>2026-05-01T18:10:50Z</time></trkpt><trkpt lat="45.22765045109972" lon="9.513917714748516"><ele>66.0</ele><time>2026-05-01T18:10:51Z</time></trkpt><trkpt lat="45.227839043003605" lon="9.513672498583059"><ele>66.0</ele><time>2026-05-01T18:10:52Z</time></trkpt><trkpt lat="45.22802699741207" lon="9.513425608638151"><ele>67.0</ele><time>2026-05-01T18:10:53Z</time></trkpt><trkpt lat="45.228213630846156" lon="9.5131768007936"><ele>68.0</ele><time>2026-05-01T18:10:54Z</time></trkpt><trkpt lat="45.22840155846861" lon="9.51292958959166"><ele>68.5</ele><time>2026-05-01T18:10:55Z</time></trkpt><trkpt lat="45.22858809947701" lon="9.512681605301916"><ele>69.0</ele><time>2026-05-01T18:10:56Z</time></trkpt><trkpt lat="45.22877672630322" lon="9.512434220825337"><ele>69.0</ele><time>2026-05-01T18:10:57Z</time></trkpt><trkpt lat="45.228965009613766" lon="9.512182332137101"><ele>69.0</ele><time>2026-05-01T18:10:58Z</time></trkpt><trkpt lat="45.22915702397132" lon="9.511932223348879"><ele>68.5</ele><time>2026-05-01T18:10:59Z</time></trkpt><trkpt lat="45.22934995186769" lon="9.51168942151878"><ele>68.0</ele><time>2026-05-01T18:11:00Z</time></trkpt><trkpt lat="45.22954291850039" lon="9.511442341712245"><ele>68.0</ele><time>2026-05-01T18:11:01Z</time></trkpt><trkpt lat="45.229743108977985" lon="9.511188981860922"><ele>68.0</ele><time>2026-05-01T18:11:02Z</time></trkpt><trkpt lat="45.22995513688292" lon="9.510945932807946"><ele>68.0</ele><time>2026-05-01T18:11:03Z</time></trkpt><trkpt lat="45.230179601531646" lon="9.510704185335006"><ele>68.0</ele><time>2026-05-01T18:11:04Z</time></trkpt><trkpt lat="45.23030144556186" lon="9.510428900601923"><ele>68.0</ele><time>2026-05-01T18:11:05Z</time></trkpt><trkpt lat="45.230496050968526" lon="9.510175400113896"><ele>68.0</ele><time>2026-05-01T18:11:06Z</time></trkpt><trkpt lat="45.23069125977217" lon="9.509923107916762"><ele>67.5</ele><time>2026-05-01T18:11:07Z</time></trkpt><trkpt lat="45.23088491547529" lon="9.509668186043825"><ele>67.0</ele><time>2026-05-01T18:11:08Z</time></trkpt><trkpt lat="45.231078805180566" lon="9.509414829802745"><ele>67.0</ele><time>2026-05-01T18:11:09Z</time></trkpt><trkpt lat="45.23127525580494" lon="9.509159692900813"><ele>67.0</ele><time>2026-05-01T18:11:10Z</time></trkpt><trkpt lat="45.23147208008565" lon="9.508903083378724"><ele>67.0</ele><time>2026-05-01T18:11:11Z</time></trkpt><trkpt lat="45.231664894164744" lon="9.50864839683942"><ele>67.0</ele><time>2026-05-01T18:11:12Z</time></trkpt><trkpt lat="45.23186063295672" lon="9.508388721465842"><ele>67.0</ele><time>2026-05-01T18:11:13Z</time></trkpt><trkpt lat="45.23205587235885" lon="9.508131165685285"><ele>67.0</ele><time>2026-05-01T18:11:14Z</time></trkpt><trkpt lat="45.23225525680876" lon="9.50787874389709"><ele>68.5</ele><time>2026-05-01T18:11:15Z</time></trkpt><trkpt lat="45.23244556209607" lon="9.507613576617118"><ele>70.0</ele><time>2026-05-01T18:11:16Z</time></trkpt><trkpt lat="45.23263877965741" lon="9.507357281775427"><ele>70.0</ele><time>2026-05-01T18:11:17Z</time></trkpt><trkpt lat="45.23283950382477" lon="9.507099971972803"><ele>70.0</ele><time>2026-05-01T18:11:18Z</time></trkpt><trkpt lat="45.233034810699" lon="9.506841143121346"><ele>69.0</ele><time>2026-05-01T18:11:19Z</time></trkpt><trkpt lat="45.233231183462294" lon="9.506581893367747"><ele>68.0</ele><time>2026-05-01T18:11:20Z</time></trkpt><trkpt lat="45.233427769717345" lon="9.50632695799929"><ele>68.0</ele><time>2026-05-01T18:11:21Z</time></trkpt><trkpt lat="45.23362479073299" lon="9.506063551912773"><ele>68.0</ele><time>2026-05-01T18:11:22Z</time></trkpt><trkpt lat="45.23382065673386" lon="9.505809058997785"><ele>68.0</ele><time>2026-05-01T18:11:23Z</time></trkpt><trkpt lat="45.234014300674176" lon="9.50555354783139"><ele>68.0</ele><time>2026-05-01T18:11:24Z</time></trkpt><trkpt lat="45.23420879928423" lon="9.505295794603633"><ele>68.0</ele><time>2026-05-01T18:11:25Z</time></trkpt><trkpt lat="45.23440810289349" lon="9.505042399692355"><ele>68.0</ele><time>2026-05-01T18:11:26Z</time></trkpt><trkpt lat="45.234599074156534" lon="9.504779328849532"><ele>68.0</ele><time>2026-05-01T18:11:27Z</time></trkpt><trkpt lat="45.234796447926136" lon="9.504522438410627"><ele>68.0</ele><time>2026-05-01T18:11:28Z</time></trkpt><trkpt lat="45.23499075502025" lon="9.504265747582718"><ele>68.0</ele><time>2026-05-01T18:11:29Z</time></trkpt><trkpt lat="45.23518303404063" lon="9.504009866171804"><ele>68.0</ele><time>2026-05-01T18:11:30Z</time></trkpt><trkpt lat="45.23537679711241" lon="9.50375785997471"><ele>68.5</ele><time>2026-05-01T18:11:31Z</time></trkpt><trkpt lat="45.23556753583125" lon="9.503502538842078"><ele>69.0</ele><time>2026-05-01T18:11:32Z</time></trkpt><trkpt lat="45.23575662098698" lon="9.503249359545269"><ele>70.0</ele><time>2026-05-01T18:11:33Z</time></trkpt><trkpt lat="45.23594547706381" lon="9.503002525624607"><ele>71.0</ele><time>2026-05-01T18:11:34Z</time></trkpt><trkpt lat="45.236130641436496" lon="9.502758219516023"><ele>71.0</ele><time>2026-05-01T18:11:35Z</time></trkpt><trkpt lat="45.23631810728016" lon="9.502508934127459"><ele>71.0</ele><time>2026-05-01T18:11:36Z</time></trkpt><trkpt lat="45.236501588953324" lon="9.50225998710567"><ele>71.0</ele><time>2026-05-01T18:11:37Z</time></trkpt><trkpt lat="45.23667876785736" lon="9.50202348869162"><ele>71.0</ele><time>2026-05-01T18:11:38Z</time></trkpt><trkpt lat="45.23684349443819" lon="9.501812801149116"><ele>71.0</ele><time>2026-05-01T18:11:38.999Z</time></trkpt><trkpt lat="45.23701466071674" lon="9.501596227461434"><ele>71.0</ele><time>2026-05-01T18:11:39.999Z</time></trkpt><trkpt lat="45.237180695120635" lon="9.501376159157052"><ele>70.66666666666667</ele><time>2026-05-01T18:11:40.999Z</time></trkpt><trkpt lat="45.23734699949783" lon="9.50116005120061"><ele>70.33333333333333</ele><time>2026-05-01T18:11:41.999Z</time></trkpt><trkpt lat="45.23751079031303" lon="9.500945426767855"><ele>70.0</ele><time>2026-05-01T18:11:42.999Z</time></trkpt><trkpt lat="45.237670521026914" lon="9.500734106687538"><ele>70.0</ele><time>2026-05-01T18:11:43.999Z</time></trkpt><trkpt lat="45.23783174154171" lon="9.500520716003582"><ele>70.0</ele><time>2026-05-01T18:11:44.999Z</time></trkpt><trkpt lat="45.23799158348397" lon="9.500310602239146"><ele>70.0</ele><time>2026-05-01T18:11:45.999Z</time></trkpt><trkpt lat="45.23815167689886" lon="9.500088989623217"><ele>70.5</ele><time>2026-05-01T18:11:46.999Z</time></trkpt><trkpt lat="45.238320832409244" lon="9.499849632132797"><ele>71.0</ele><time>2026-05-01T18:11:47.999Z</time></trkpt><trkpt lat="45.238498373399445" lon="9.499597004328797"><ele>70.5</ele><time>2026-05-01T18:11:48.999Z</time></trkpt><trkpt lat="45.238685279204866" lon="9.499343543297257"><ele>70.0</ele><time>2026-05-01T18:11:49.999Z</time></trkpt><trkpt lat="45.238882063236225" lon="9.499089664389098"><ele>70.0</ele><time>2026-05-01T18:11:50.999Z</time></trkpt><trkpt lat="45.239086588221916" lon="9.49883726744781"><ele>70.0</ele><time>2026-05-01T18:11:51.999Z</time></trkpt><trkpt lat="45.23929439656094" lon="9.498579470340598"><ele>70.0</ele><time>2026-05-01T18:11:52.999Z</time></trkpt><trkpt lat="45.239503811746644" lon="9.498314953206705"><ele>70.0</ele><time>2026-05-01T18:11:53.999Z</time></trkpt><trkpt lat="45.23971324511044" lon="9.498044841314732"><ele>70.0</ele><time>2026-05-01T18:11:54.999Z</time></trkpt><trkpt lat="45.23992270676522" lon="9.497769251017708"><ele>70.0</ele><time>2026-05-01T18:11:55.999Z</time></trkpt><trkpt lat="45.240131946674744" lon="9.497491038113306"><ele>70.0</ele><time>2026-05-01T18:11:56.999Z</time></trkpt><trkpt lat="45.24034190369414" lon="9.497216153360357"><ele>70.0</ele><time>2026-05-01T18:11:57.999Z</time></trkpt><trkpt lat="45.24055239459542" lon="9.496940491059382"><ele>69.0</ele><time>2026-05-01T18:11:58.999Z</time></trkpt><trkpt lat="45.240763690617" lon="9.496667191230701"><ele>68.0</ele><time>2026-05-01T18:11:59.999Z</time></trkpt><trkpt lat="45.240971846157755" lon="9.49639412677646"><ele>68.5</ele><time>2026-05-01T18:12:00.999Z</time></trkpt><trkpt lat="45.24117934302369" lon="9.496119245043989"><ele>69.0</ele><time>2026-05-01T18:12:01.999Z</time></trkpt><trkpt lat="45.241386433791256" lon="9.495849310002177"><ele>69.0</ele><time>2026-05-01T18:12:02.999Z</time></trkpt><trkpt lat="45.24159275000666" lon="9.495579435062345"><ele>69.0</ele><time>2026-05-01T18:12:03.999Z</time></trkpt><trkpt lat="45.24180027866715" lon="9.495308695870232"><ele>69.0</ele><time>2026-05-01T18:12:04.999Z</time></trkpt><trkpt lat="45.2420104077285" lon="9.495039561090813"><ele>69.0</ele><time>2026-05-01T18:12:05.999Z</time></trkpt><trkpt lat="45.242212943991476" lon="9.49476529524897"><ele>69.0</ele><time>2026-05-01T18:12:06.999Z</time></trkpt><trkpt lat="45.24241691179067" lon="9.494494043796866"><ele>69.0</ele><time>2026-05-01T18:12:07.999Z</time></trkpt><trkpt lat="45.24262424645447" lon="9.494219141325306"><ele>69.0</ele><time>2026-05-01T18:12:08.999Z</time></trkpt><trkpt lat="45.24282785107577" lon="9.493957969251149"><ele>69.0</ele><time>2026-05-01T18:12:09.999Z</time></trkpt><trkpt lat="45.243035596349834" lon="9.493686222749552"><ele>69.5</ele><time>2026-05-01T18:12:10.999Z</time></trkpt><trkpt lat="45.24324143461098" lon="9.493411737856757"><ele>70.0</ele><time>2026-05-01T18:12:11.999Z</time></trkpt><trkpt lat="45.24344918191911" lon="9.493135539875725"><ele>71.0</ele><time>2026-05-01T18:12:12.999Z</time></trkpt><trkpt lat="45.24365264399947" lon="9.492867730246463"><ele>72.0</ele><time>2026-05-01T18:12:13.999Z</time></trkpt><trkpt lat="45.24386201073839" lon="9.492595543171984"><ele>71.5</ele><time>2026-05-01T18:12:14.999Z</time></trkpt><trkpt lat="45.244069237323494" lon="9.492329270530885"><ele>71.0</ele><time>2026-05-01T18:12:15.999Z</time></trkpt><trkpt lat="45.244272076411015" lon="9.492056015122206"><ele>70.5</ele><time>2026-05-01T18:12:16.999Z</time></trkpt><trkpt lat="45.244479666824326" lon="9.491785195506107"><ele>70.0</ele><time>2026-05-01T18:12:17.999Z</time></trkpt><trkpt lat="45.24468637866288" lon="9.491513434786034"><ele>69.5</ele><time>2026-05-01T18:12:18.999Z</time></trkpt><trkpt lat="45.244892159958546" lon="9.491243231458277"><ele>69.0</ele><time>2026-05-01T18:12:19.999Z</time></trkpt><trkpt lat="45.24510246827631" lon="9.490967913609023"><ele>69.0</ele><time>2026-05-01T18:12:20.999Z</time></trkpt><trkpt lat="45.24531024524486" lon="9.490701618833894"><ele>69.0</ele><time>2026-05-01T18:12:21.999Z</time></trkpt><trkpt lat="45.24551522852949" lon="9.490425283733096"><ele>69.5</ele><time>2026-05-01T18:12:22.999Z</time></trkpt><trkpt lat="45.245727497117755" lon="9.490149474834297"><ele>70.0</ele><time>2026-05-01T18:12:23.999Z</time></trkpt><trkpt lat="45.245932816964675" lon="9.489878096150365"><ele>70.0</ele><time>2026-05-01T18:12:24.999Z</time></trkpt><trkpt lat="45.24613873517937" lon="9.489604236059042"><ele>70.0</ele><time>2026-05-01T18:12:25.999Z</time></trkpt><trkpt lat="45.24634861572969" lon="9.48932911311496"><ele>72.0</ele><time>2026-05-01T18:12:26.999Z</time></trkpt><trkpt lat="45.24655661696673" lon="9.489059505797787"><ele>74.0</ele><time>2026-05-01T18:12:27.999Z</time></trkpt><trkpt lat="45.24676302772957" lon="9.488788348481776"><ele>73.0</ele><time>2026-05-01T18:12:29Z</time></trkpt><trkpt lat="45.246971680975136" lon="9.488505439417859"><ele>72.0</ele><time>2026-05-01T18:12:30Z</time></trkpt><trkpt lat="45.2471727267993" lon="9.488247418035359"><ele>71.0</ele><time>2026-05-01T18:12:31Z</time></trkpt><trkpt lat="45.24737370543099" lon="9.487979963820937"><ele>70.0</ele><time>2026-05-01T18:12:32Z</time></trkpt><trkpt lat="45.247576741626" lon="9.487714337216033"><ele>70.0</ele><time>2026-05-01T18:12:33Z</time></trkpt><trkpt lat="45.247773538972325" lon="9.487452545912248"><ele>70.0</ele><time>2026-05-01T18:12:34Z</time></trkpt><trkpt lat="45.2479709221538" lon="9.487188519606395"><ele>69.5</ele><time>2026-05-01T18:12:35Z</time></trkpt><trkpt lat="45.24816778225083" lon="9.486929080110842"><ele>69.0</ele><time>2026-05-01T18:12:36Z</time></trkpt><trkpt lat="45.24836603917247" lon="9.486671241969969"><ele>69.0</ele><time>2026-05-01T18:12:37Z</time></trkpt><trkpt lat="45.24856280431114" lon="9.486415201927564"><ele>69.0</ele><time>2026-05-01T18:12:38Z</time></trkpt><trkpt lat="45.24876176621786" lon="9.486154064809245"><ele>69.0</ele><time>2026-05-01T18:12:39Z</time></trkpt><trkpt lat="45.248956905294214" lon="9.485896678642863"><ele>69.0</ele><time>2026-05-01T18:12:40Z</time></trkpt><trkpt lat="45.249154538353025" lon="9.485643285252902"><ele>69.0</ele><time>2026-05-01T18:12:41Z</time></trkpt><trkpt lat="45.24934770507639" lon="9.485389958692185"><ele>69.0</ele><time>2026-05-01T18:12:42Z</time></trkpt><trkpt lat="45.24953801161823" lon="9.485135883684134"><ele>69.0</ele><time>2026-05-01T18:12:43Z</time></trkpt><trkpt lat="45.24973292391464" lon="9.484880409132138"><ele>69.0</ele><time>2026-05-01T18:12:44Z</time></trkpt><trkpt lat="45.249927239302934" lon="9.48462696671853"><ele>69.5</ele><time>2026-05-01T18:12:45Z</time></trkpt><trkpt lat="45.25011982522347" lon="9.484372683022375"><ele>70.0</ele><time>2026-05-01T18:12:46Z</time></trkpt><trkpt lat="45.25030986447444" lon="9.484121264314489"><ele>70.0</ele><time>2026-05-01T18:12:47Z</time></trkpt><trkpt lat="45.25050010252024" lon="9.483870627836978"><ele>70.0</ele><time>2026-05-01T18:12:48Z</time></trkpt><trkpt lat="45.25068788260706" lon="9.483624752595205"><ele>70.5</ele><time>2026-05-01T18:12:49Z</time></trkpt><trkpt lat="45.25087742209627" lon="9.483378822146406"><ele>71.0</ele><time>2026-05-01T18:12:50Z</time></trkpt><trkpt lat="45.251062639960125" lon="9.483134171270217"><ele>70.0</ele><time>2026-05-01T18:12:51Z</time></trkpt><trkpt lat="45.25124676264189" lon="9.482889445765913"><ele>69.0</ele><time>2026-05-01T18:12:52Z</time></trkpt><trkpt lat="45.25143291945169" lon="9.482646414244398"><ele>69.5</ele><time>2026-05-01T18:12:53Z</time></trkpt><trkpt lat="45.251616590167444" lon="9.482405589708877"><ele>70.0</ele><time>2026-05-01T18:12:54Z</time></trkpt><trkpt lat="45.251800903932754" lon="9.482163459947095"><ele>70.5</ele><time>2026-05-01T18:12:55Z</time></trkpt><trkpt lat="45.2519854155691" lon="9.481918923174039"><ele>71.0</ele><time>2026-05-01T18:12:56Z</time></trkpt><trkpt lat="45.25216978207506" lon="9.481678481158138"><ele>71.0</ele><time>2026-05-01T18:12:57Z</time></trkpt><trkpt lat="45.2523556684063" lon="9.48143337210298"><ele>71.0</ele><time>2026-05-01T18:12:58Z</time></trkpt><trkpt lat="45.25253833311016" lon="9.481192669256066"><ele>71.0</ele><time>2026-05-01T18:12:59Z</time></trkpt><trkpt lat="45.25272292121231" lon="9.480949828964746"><ele>71.0</ele><time>2026-05-01T18:13:00Z</time></trkpt><trkpt lat="45.25290803092804" lon="9.480704868915653"><ele>71.0</ele><time>2026-05-01T18:13:01Z</time></trkpt><trkpt lat="45.2530925019297" lon="9.48046258458496"><ele>71.0</ele><time>2026-05-01T18:13:02Z</time></trkpt><trkpt lat="45.253278646285175" lon="9.480220249160958"><ele>71.0</ele><time>2026-05-01T18:13:03Z</time></trkpt><trkpt lat="45.2534665771947" lon="9.479969956106366"><ele>71.0</ele><time>2026-05-01T18:13:04Z</time></trkpt><trkpt lat="45.253651673479446" lon="9.479728153192221"><ele>71.0</ele><time>2026-05-01T18:13:05Z</time></trkpt><trkpt lat="45.25383845100737" lon="9.479476576707151"><ele>71.0</ele><time>2026-05-01T18:13:06Z</time></trkpt><trkpt lat="45.25402443079956" lon="9.479222631565937"><ele>71.5</ele><time>2026-05-01T18:13:07Z</time></trkpt><trkpt lat="45.25421130959788" lon="9.478967030824986"><ele>72.0</ele><time>2026-05-01T18:13:08Z</time></trkpt><trkpt lat="45.254401951162606" lon="9.478704249467919"><ele>72.0</ele><time>2026-05-01T18:13:09Z</time></trkpt><trkpt lat="45.25459316358859" lon="9.478446760042548"><ele>72.0</ele><time>2026-05-01T18:13:10Z</time></trkpt><trkpt lat="45.2547862798222" lon="9.478187856759194"><ele>72.0</ele><time>2026-05-01T18:13:11Z</time></trkpt><trkpt lat="45.25497662379858" lon="9.47793127017754"><ele>72.0</ele><time>2026-05-01T18:13:12Z</time></trkpt><trkpt lat="45.25517014112504" lon="9.477674993177688"><ele>72.0</ele><time>2026-05-01T18:13:13Z</time></trkpt><trkpt lat="45.25536288907105" lon="9.47741864716302"><ele>72.0</ele><time>2026-05-01T18:13:14Z</time></trkpt><trkpt lat="45.255555556028796" lon="9.477164663989656"><ele>71.0</ele><time>2026-05-01T18:13:15Z</time></trkpt><trkpt lat="45.25575155068582" lon="9.476907348364739"><ele>70.0</ele><time>2026-05-01T18:13:16Z</time></trkpt><trkpt lat="45.25594692677394" lon="9.476651249110635"><ele>70.0</ele><time>2026-05-01T18:13:17Z</time></trkpt><trkpt lat="45.25614696592781" lon="9.476404282615697"><ele>70.0</ele><time>2026-05-01T18:13:18Z</time></trkpt><trkpt lat="45.25634654064536" lon="9.476155382734076"><ele>70.0</ele><time>2026-05-01T18:13:19Z</time></trkpt><trkpt lat="45.25654673609016" lon="9.475911216433348"><ele>70.0</ele><time>2026-05-01T18:13:20Z</time></trkpt><trkpt lat="45.25675079247223" lon="9.475658079585342"><ele>69.5</ele><time>2026-05-01T18:13:21Z</time></trkpt><trkpt lat="45.25694946608488" lon="9.475397321790297"><ele>69.0</ele><time>2026-05-01T18:13:22Z</time></trkpt><trkpt lat="45.257148935036945" lon="9.47513894603165"><ele>69.5</ele><time>2026-05-01T18:13:23Z</time></trkpt><trkpt lat="45.25734520253109" lon="9.474880287569801"><ele>70.0</ele><time>2026-05-01T18:13:24Z</time></trkpt><trkpt lat="45.25754438505752" lon="9.474620427536005"><ele>70.0</ele><time>2026-05-01T18:13:25Z</time></trkpt><trkpt lat="45.25774239803859" lon="9.474361312724694"><ele>70.0</ele><time>2026-05-01T18:13:26Z</time></trkpt><trkpt lat="45.257940407032685" lon="9.474103366343352"><ele>70.0</ele><time>2026-05-01T18:13:27Z</time></trkpt><trkpt lat="45.25813651056681" lon="9.473843227008555"><ele>70.0</ele><time>2026-05-01T18:13:28Z</time></trkpt><trkpt lat="45.25833149001554" lon="9.473584714992517"><ele>70.5</ele><time>2026-05-01T18:13:29Z</time></trkpt><trkpt lat="45.25852771388438" lon="9.47332813727398"><ele>71.0</ele><time>2026-05-01T18:13:30Z</time></trkpt><trkpt lat="45.2587252330462" lon="9.473067894983158"><ele>70.5</ele><time>2026-05-01T18:13:31Z</time></trkpt><trkpt lat="45.25892032882798" lon="9.47280965346908"><ele>70.0</ele><time>2026-05-01T18:13:32Z</time></trkpt><trkpt lat="45.2591171375484" lon="9.472556979164219"><ele>69.5</ele><time>2026-05-01T18:13:33Z</time></trkpt><trkpt lat="45.25931168702607" lon="9.472300435848338"><ele>69.0</ele><time>2026-05-01T18:13:34Z</time></trkpt><trkpt lat="45.25950497869745" lon="9.47204570520997"><ele>69.0</ele><time>2026-05-01T18:13:35Z</time></trkpt><trkpt lat="45.259700482045034" lon="9.471787345782563"><ele>69.0</ele><time>2026-05-01T18:13:36Z</time></trkpt><trkpt lat="45.25989172862168" lon="9.471530967109777"><ele>69.5</ele><time>2026-05-01T18:13:37Z</time></trkpt><trkpt lat="45.260083481768554" lon="9.471281567830854"><ele>70.0</ele><time>2026-05-01T18:13:38Z</time></trkpt><trkpt lat="45.26027683974327" lon="9.471027451150599"><ele>70.5</ele><time>2026-05-01T18:13:39Z</time></trkpt><trkpt lat="45.260467278547935" lon="9.470779088704935"><ele>71.0</ele><time>2026-05-01T18:13:40Z</time></trkpt><trkpt lat="45.260662323637995" lon="9.470530082474578"><ele>71.0</ele><time>2026-05-01T18:13:41Z</time></trkpt><trkpt lat="45.26084457426181" lon="9.470285895123842"><ele>71.0</ele><time>2026-05-01T18:13:42Z</time></trkpt><trkpt lat="45.26102979911926" lon="9.470038405316728"><ele>71.0</ele><time>2026-05-01T18:13:43Z</time></trkpt><trkpt lat="45.26121556905172" lon="9.469794596560476"><ele>71.0</ele><time>2026-05-01T18:13:44Z</time></trkpt><trkpt lat="45.2613982196696" lon="9.469550376754293"><ele>71.5</ele><time>2026-05-01T18:13:45Z</time></trkpt><trkpt lat="45.26158247566028" lon="9.46930489672299"><ele>72.0</ele><time>2026-05-01T18:13:46Z</time></trkpt><trkpt lat="45.26176471972946" lon="9.469060874082347"><ele>72.0</ele><time>2026-05-01T18:13:47Z</time></trkpt><trkpt lat="45.26195165908412" lon="9.468814178423278"><ele>72.0</ele><time>2026-05-01T18:13:48Z</time></trkpt><trkpt lat="45.26213753862141" lon="9.46856577615706"><ele>72.5</ele><time>2026-05-01T18:13:49Z</time></trkpt><trkpt lat="45.26233445447944" lon="9.468315430439748"><ele>73.0</ele><time>2026-05-01T18:13:50Z</time></trkpt><trkpt lat="45.26252301016675" lon="9.468070381634295"><ele>73.0</ele><time>2026-05-01T18:13:51Z</time></trkpt><trkpt lat="45.26270781660646" lon="9.467824997795434"><ele>73.0</ele><time>2026-05-01T18:13:52Z</time></trkpt><trkpt lat="45.26289103844461" lon="9.467577308608561"><ele>73.0</ele><time>2026-05-01T18:13:53Z</time></trkpt><trkpt lat="45.263077110745115" lon="9.467332020252092"><ele>73.0</ele><time>2026-05-01T18:13:54Z</time></trkpt><trkpt lat="45.263264186033766" lon="9.467083359805226"><ele>74.0</ele><time>2026-05-01T18:13:55Z</time></trkpt><trkpt lat="45.26345379940927" lon="9.466837688117439"><ele>75.0</ele><time>2026-05-01T18:13:56Z</time></trkpt><trkpt lat="45.263642473726435" lon="9.466590215766297"><ele>75.0</ele><time>2026-05-01T18:13:57Z</time></trkpt><trkpt lat="45.26383753923993" lon="9.466337589098144"><ele>75.0</ele><time>2026-05-01T18:13:58Z</time></trkpt><trkpt lat="45.264025707092614" lon="9.46608927433454"><ele>73.5</ele><time>2026-05-01T18:13:59Z</time></trkpt><trkpt lat="45.2642174005122" lon="9.465842457986522"><ele>72.0</ele><time>2026-05-01T18:14:00Z</time></trkpt><trkpt lat="45.26440414728607" lon="9.46560135264492"><ele>72.0</ele><time>2026-05-01T18:14:01Z</time></trkpt><trkpt lat="45.26458687757537" lon="9.465354684316376"><ele>72.0</ele><time>2026-05-01T18:14:01.999Z</time></trkpt><trkpt lat="45.264771736933476" lon="9.465112791775521"><ele>71.5</ele><time>2026-05-01T18:14:02.999Z</time></trkpt><trkpt lat="45.264957754794054" lon="9.464870489171641"><ele>71.0</ele><time>2026-05-01T18:14:03.999Z</time></trkpt><trkpt lat="45.26514019040235" lon="9.464630646952418"><ele>72.0</ele><time>2026-05-01T18:14:04.999Z</time></trkpt><trkpt lat="45.26532487212143" lon="9.464389874821377"><ele>73.0</ele><time>2026-05-01T18:14:05.999Z</time></trkpt><trkpt lat="45.26550912760498" lon="9.464146284621958"><ele>72.5</ele><time>2026-05-01T18:14:06.999Z</time></trkpt><trkpt lat="45.26569641173307" lon="9.463905624847822"><ele>72.0</ele><time>2026-05-01T18:14:07.999Z</time></trkpt><trkpt lat="45.26588037939393" lon="9.463660571180155"><ele>72.0</ele><time>2026-05-01T18:14:08.999Z</time></trkpt><trkpt lat="45.26606650019583" lon="9.463416281592275"><ele>72.0</ele><time>2026-05-01T18:14:09.999Z</time></trkpt><trkpt lat="45.26625323465723" lon="9.463171152467824"><ele>72.5</ele><time>2026-05-01T18:14:10.999Z</time></trkpt><trkpt lat="45.266440328820096" lon="9.462922742728354"><ele>73.0</ele><time>2026-05-01T18:14:11.999Z</time></trkpt><trkpt lat="45.26662642919216" lon="9.462668868690262"><ele>73.0</ele><time>2026-05-01T18:14:12.999Z</time></trkpt><trkpt lat="45.26681304739261" lon="9.462421343476048"><ele>73.0</ele><time>2026-05-01T18:14:13.999Z</time></trkpt><trkpt lat="45.26699982341027" lon="9.462176470121523"><ele>73.0</ele><time>2026-05-01T18:14:14.999Z</time></trkpt><trkpt lat="45.26718909975206" lon="9.46192959412533"><ele>73.0</ele><time>2026-05-01T18:14:15.999Z</time></trkpt><trkpt lat="45.26737718749675" lon="9.461681571962304"><ele>73.0</ele><time>2026-05-01T18:14:16.999Z</time></trkpt><trkpt lat="45.26756320992528" lon="9.461434857191271"><ele>73.0</ele><time>2026-05-01T18:14:17.999Z</time></trkpt><trkpt lat="45.267750265664766" lon="9.461187600876302"><ele>73.0</ele><time>2026-05-01T18:14:18.999Z</time></trkpt><trkpt lat="45.267936265277584" lon="9.460940919076295"><ele>73.0</ele><time>2026-05-01T18:14:19.999Z</time></trkpt><trkpt lat="45.2681211039578" lon="9.460694517462015"><ele>73.5</ele><time>2026-05-01T18:14:20.999Z</time></trkpt><trkpt lat="45.26830351266948" lon="9.460443897409561"><ele>74.0</ele><time>2026-05-01T18:14:21.999Z</time></trkpt><trkpt lat="45.26848641579905" lon="9.460196952370314"><ele>74.0</ele><time>2026-05-01T18:14:22.999Z</time></trkpt><trkpt lat="45.26866616519375" lon="9.459943372272363"><ele>74.0</ele><time>2026-05-01T18:14:23.999Z</time></trkpt><trkpt lat="45.26884551670314" lon="9.459694051776122"><ele>73.0</ele><time>2026-05-01T18:14:24.999Z</time></trkpt><trkpt lat="45.269026599120636" lon="9.459448564026491"><ele>72.0</ele><time>2026-05-01T18:14:25.999Z</time></trkpt><trkpt lat="45.26920681276322" lon="9.459200724872584"><ele>72.0</ele><time>2026-05-01T18:14:26.999Z</time></trkpt><trkpt lat="45.2693802504116" lon="9.458955329966209"><ele>72.0</ele><time>2026-05-01T18:14:27.999Z</time></trkpt><trkpt lat="45.26955317743278" lon="9.458707594956525"><ele>72.0</ele><time>2026-05-01T18:14:28.999Z</time></trkpt><trkpt lat="45.26972626073866" lon="9.458461415001215"><ele>72.0</ele><time>2026-05-01T18:14:29.999Z</time></trkpt><trkpt lat="45.269898833675384" lon="9.458214836137204"><ele>72.0</ele><time>2026-05-01T18:14:30.999Z</time></trkpt><trkpt lat="45.2700721839562" lon="9.457968664380157"><ele>72.0</ele><time>2026-05-01T18:14:31.999Z</time></trkpt><trkpt lat="45.270246084615195" lon="9.45772226162351"><ele>73.5</ele><time>2026-05-01T18:14:32.999Z</time></trkpt><trkpt lat="45.27041906177784" lon="9.457471664280046"><ele>75.0</ele><time>2026-05-01T18:14:33.999Z</time></trkpt><trkpt lat="45.270594664243745" lon="9.457213711483192"><ele>74.0</ele><time>2026-05-01T18:14:35Z</time></trkpt><trkpt lat="45.27076710767336" lon="9.456953536229683"><ele>73.0</ele><time>2026-05-01T18:14:36Z</time></trkpt><trkpt lat="45.270942720504635" lon="9.456692394145508"><ele>73.0</ele><time>2026-05-01T18:14:37Z</time></trkpt><trkpt lat="45.27111847687845" lon="9.456430603860763"><ele>73.0</ele><time>2026-05-01T18:14:38Z</time></trkpt><trkpt lat="45.271292959797485" lon="9.456168507053217"><ele>73.0</ele><time>2026-05-01T18:14:39Z</time></trkpt><trkpt lat="45.27146981880669" lon="9.455907044848274"><ele>73.0</ele><time>2026-05-01T18:14:40Z</time></trkpt><trkpt lat="45.271645549782846" lon="9.455646894091611"><ele>73.5</ele><time>2026-05-01T18:14:41Z</time></trkpt><trkpt lat="45.27181910337875" lon="9.455377305113084"><ele>74.0</ele><time>2026-05-01T18:14:42Z</time></trkpt><trkpt lat="45.271993513422736" lon="9.455109941765977"><ele>74.0</ele><time>2026-05-01T18:14:43Z</time></trkpt><trkpt lat="45.272167302938364" lon="9.454842960435068"><ele>74.0</ele><time>2026-05-01T18:14:44Z</time></trkpt><trkpt lat="45.27234253494858" lon="9.454579220003307"><ele>73.5</ele><time>2026-05-01T18:14:45Z</time></trkpt><trkpt lat="45.27251009282503" lon="9.454311409950579"><ele>73.0</ele><time>2026-05-01T18:14:46Z</time></trkpt><trkpt lat="45.27267828715686" lon="9.454041869818717"><ele>74.0</ele><time>2026-05-01T18:14:47Z</time></trkpt><trkpt lat="45.27284439783628" lon="9.453772836551208"><ele>75.0</ele><time>2026-05-01T18:14:48Z</time></trkpt><trkpt lat="45.2730120549759" lon="9.453505773120732"><ele>75.0</ele><time>2026-05-01T18:14:49Z</time></trkpt><trkpt lat="45.273178743319505" lon="9.453240601097066"><ele>75.0</ele><time>2026-05-01T18:14:50Z</time></trkpt><trkpt lat="45.27334301468413" lon="9.452973808973557"><ele>74.5</ele><time>2026-05-01T18:14:51Z</time></trkpt><trkpt lat="45.27350996074607" lon="9.452704697409894"><ele>74.0</ele><time>2026-05-01T18:14:52Z</time></trkpt><trkpt lat="45.273677553712325" lon="9.452440564415118"><ele>74.0</ele><time>2026-05-01T18:14:53Z</time></trkpt><trkpt lat="45.273845931968765" lon="9.452170385604127"><ele>74.0</ele><time>2026-05-01T18:14:54Z</time></trkpt><trkpt lat="45.27401172385196" lon="9.451895917068668"><ele>74.5</ele><time>2026-05-01T18:14:55Z</time></trkpt><trkpt lat="45.27417443866099" lon="9.451616241757273"><ele>75.0</ele><time>2026-05-01T18:14:56Z</time></trkpt><trkpt lat="45.274339232206735" lon="9.451339684592845"><ele>75.0</ele><time>2026-05-01T18:14:57Z</time></trkpt><trkpt lat="45.274508276998525" lon="9.451065228226136"><ele>75.0</ele><time>2026-05-01T18:14:58Z</time></trkpt><trkpt lat="45.274679967519695" lon="9.450790977959066"><ele>75.5</ele><time>2026-05-01T18:14:59Z</time></trkpt><trkpt lat="45.274851237315445" lon="9.450507910558532"><ele>76.0</ele><time>2026-05-01T18:15:00Z</time></trkpt><trkpt lat="45.275018628893434" lon="9.4502224260211"><ele>76.5</ele><time>2026-05-01T18:15:01Z</time></trkpt><trkpt lat="45.27518310263752" lon="9.44994115981583"><ele>77.0</ele><time>2026-05-01T18:15:02Z</time></trkpt><trkpt lat="45.2753507924657" lon="9.449665972889072"><ele>76.5</ele><time>2026-05-01T18:15:03Z</time></trkpt><trkpt lat="45.27552337921243" lon="9.44938971000434"><ele>76.0</ele><time>2026-05-01T18:15:04Z</time></trkpt><trkpt lat="45.27569026761524" lon="9.449103751900434"><ele>76.0</ele><time>2026-05-01T18:15:05Z</time></trkpt><trkpt lat="45.27586035962172" lon="9.448821450402141"><ele>76.0</ele><time>2026-05-01T18:15:06Z</time></trkpt><trkpt lat="45.2760259939905" lon="9.448539400436076"><ele>77.0</ele><time>2026-05-01T18:15:07Z</time></trkpt><trkpt lat="45.276194533863276" lon="9.448259800037123"><ele>78.0</ele><time>2026-05-01T18:15:08Z</time></trkpt><trkpt lat="45.27636379321769" lon="9.447981058145007"><ele>76.0</ele><time>2026-05-01T18:15:09Z</time></trkpt><trkpt lat="45.2765317951335" lon="9.447698840846186"><ele>74.0</ele><time>2026-05-01T18:15:10Z</time></trkpt><trkpt lat="45.2766994474753" lon="9.447417447364764"><ele>74.0</ele><time>2026-05-01T18:15:11Z</time></trkpt><trkpt lat="45.27686719115278" lon="9.44713697349926"><ele>74.0</ele><time>2026-05-01T18:15:12Z</time></trkpt><trkpt lat="45.277035021507416" lon="9.446860846404165"><ele>74.0</ele><time>2026-05-01T18:15:13Z</time></trkpt><trkpt lat="45.27719986111513" lon="9.446587818777981"><ele>74.0</ele><time>2026-05-01T18:15:14Z</time></trkpt><trkpt lat="45.27736693702185" lon="9.44631467973919"><ele>73.5</ele><time>2026-05-01T18:15:15Z</time></trkpt><trkpt lat="45.277532464596696" lon="9.446045095021443"><ele>73.0</ele><time>2026-05-01T18:15:16Z</time></trkpt><trkpt lat="45.277696662984255" lon="9.4457686927831"><ele>73.0</ele><time>2026-05-01T18:15:17Z</time></trkpt><trkpt lat="45.277863226941996" lon="9.445494646398517"><ele>73.0</ele><time>2026-05-01T18:15:18Z</time></trkpt><trkpt lat="45.27803261638938" lon="9.445220642340836"><ele>73.0</ele><time>2026-05-01T18:15:19Z</time></trkpt><trkpt lat="45.27820047254475" lon="9.44494126205682"><ele>73.0</ele><time>2026-05-01T18:15:20Z</time></trkpt><trkpt lat="45.27836831655027" lon="9.44466394414023"><ele>73.5</ele><time>2026-05-01T18:15:21Z</time></trkpt><trkpt lat="45.27853472931999" lon="9.444386208443479"><ele>74.0</ele><time>2026-05-01T18:15:22Z</time></trkpt><trkpt lat="45.27870089719531" lon="9.44410751057081"><ele>74.0</ele><time>2026-05-01T18:15:23Z</time></trkpt><trkpt lat="45.278872776264585" lon="9.443831676351191"><ele>74.0</ele><time>2026-05-01T18:15:24Z</time></trkpt><trkpt lat="45.279038228704216" lon="9.443544190989407"><ele>73.5</ele><time>2026-05-01T18:15:25Z</time></trkpt><trkpt lat="45.279213707685756" lon="9.443261826034476"><ele>73.0</ele><time>2026-05-01T18:15:26Z</time></trkpt><trkpt lat="45.27937958849358" lon="9.442983037597232"><ele>73.0</ele><time>2026-05-01T18:15:27Z</time></trkpt><trkpt lat="45.2795471998523" lon="9.442702156757338"><ele>73.0</ele><time>2026-05-01T18:15:28Z</time></trkpt><trkpt lat="45.27971861860363" lon="9.442424210999523"><ele>73.0</ele><time>2026-05-01T18:15:29Z</time></trkpt><trkpt lat="45.27988287204225" lon="9.442146316022445"><ele>73.0</ele><time>2026-05-01T18:15:30Z</time></trkpt><trkpt lat="45.28004677102757" lon="9.441867685065123"><ele>73.0</ele><time>2026-05-01T18:15:31Z</time></trkpt><trkpt lat="45.28021251274764" lon="9.441589745440277"><ele>73.0</ele><time>2026-05-01T18:15:32Z</time></trkpt><trkpt lat="45.28038028727914" lon="9.44130818881083"><ele>73.0</ele><time>2026-05-01T18:15:33Z</time></trkpt><trkpt lat="45.28054561829901" lon="9.441030753276689"><ele>73.0</ele><time>2026-05-01T18:15:34Z</time></trkpt><trkpt lat="45.280713071008826" lon="9.440753182849464"><ele>73.0</ele><time>2026-05-01T18:15:35Z</time></trkpt><trkpt lat="45.28088047636918" lon="9.440475272317608"><ele>73.0</ele><time>2026-05-01T18:15:36Z</time></trkpt><trkpt lat="45.28104497964442" lon="9.440198698912335"><ele>73.0</ele><time>2026-05-01T18:15:37Z</time></trkpt><trkpt lat="45.28121032658944" lon="9.439921462279127"><ele>73.0</ele><time>2026-05-01T18:15:38Z</time></trkpt><trkpt lat="45.28137687020009" lon="9.439649627618465"><ele>73.0</ele><time>2026-05-01T18:15:39Z</time></trkpt><trkpt lat="45.281543557731524" lon="9.439379255419738"><ele>73.0</ele><time>2026-05-01T18:15:40Z</time></trkpt><trkpt lat="45.28170968857354" lon="9.439106419614921"><ele>73.0</ele><time>2026-05-01T18:15:41Z</time></trkpt><trkpt lat="45.28187143017024" lon="9.438836674496928"><ele>73.0</ele><time>2026-05-01T18:15:42Z</time></trkpt><trkpt lat="45.282034368936095" lon="9.43856944480766"><ele>73.0</ele><time>2026-05-01T18:15:43Z</time></trkpt><trkpt lat="45.28219508119876" lon="9.4383017884001"><ele>73.0</ele><time>2026-05-01T18:15:44Z</time></trkpt><trkpt lat="45.2823551727898" lon="9.438036588715029"><ele>73.5</ele><time>2026-05-01T18:15:45Z</time></trkpt><trkpt lat="45.282519161986436" lon="9.437772338015147"><ele>74.0</ele><time>2026-05-01T18:15:46Z</time></trkpt><trkpt lat="45.28268187888312" lon="9.437501549986665"><ele>74.0</ele><time>2026-05-01T18:15:47Z</time></trkpt><trkpt lat="45.28284086913865" lon="9.437229695945906"><ele>74.0</ele><time>2026-05-01T18:15:48Z</time></trkpt><trkpt lat="45.283006790571655" lon="9.436953874894572"><ele>74.5</ele><time>2026-05-01T18:15:49Z</time></trkpt><trkpt lat="45.283170691371694" lon="9.436681677962067"><ele>75.0</ele><time>2026-05-01T18:15:50Z</time></trkpt><trkpt lat="45.283333545882535" lon="9.436408509677847"><ele>75.0</ele><time>2026-05-01T18:15:51Z</time></trkpt><trkpt lat="45.28349827394329" lon="9.436135519472726"><ele>75.0</ele><time>2026-05-01T18:15:52Z</time></trkpt><trkpt lat="45.283660984650595" lon="9.435867660077166"><ele>75.0</ele><time>2026-05-01T18:15:53Z</time></trkpt><trkpt lat="45.28382352307017" lon="9.435597633125791"><ele>75.0</ele><time>2026-05-01T18:15:54Z</time></trkpt><trkpt lat="45.28398740855884" lon="9.435325178492194"><ele>74.5</ele><time>2026-05-01T18:15:55Z</time></trkpt><trkpt lat="45.28415284727784" lon="9.435051165387152"><ele>74.0</ele><time>2026-05-01T18:15:56Z</time></trkpt><trkpt lat="45.28432132676441" lon="9.434776844657165"><ele>73.5</ele><time>2026-05-01T18:15:57Z</time></trkpt><trkpt lat="45.28448805436606" lon="9.434503286742283"><ele>73.0</ele><time>2026-05-01T18:15:57.999Z</time></trkpt><trkpt lat="45.284656377862845" lon="9.434225584557092"><ele>73.5</ele><time>2026-05-01T18:15:58.999Z</time></trkpt><trkpt lat="45.28482480255663" lon="9.433953995188157"><ele>74.0</ele><time>2026-05-01T18:15:59.999Z</time></trkpt><trkpt lat="45.28498721191912" lon="9.43367870572766"><ele>75.0</ele><time>2026-05-01T18:16:00.999Z</time></trkpt><trkpt lat="45.28514976403582" lon="9.43340587058158"><ele>76.0</ele><time>2026-05-01T18:16:01.999Z</time></trkpt><trkpt lat="45.28531383719247" lon="9.433136007016072"><ele>76.0</ele><time>2026-05-01T18:16:02.999Z</time></trkpt><trkpt lat="45.28547729256269" lon="9.432862170636254"><ele>76.0</ele><time>2026-05-01T18:16:03.999Z</time></trkpt><trkpt lat="45.28563902750541" lon="9.432594120348126"><ele>76.0</ele><time>2026-05-01T18:16:04.999Z</time></trkpt><trkpt lat="45.28579611652381" lon="9.432327401722441"><ele>76.0</ele><time>2026-05-01T18:16:05.999Z</time></trkpt><trkpt lat="45.28596001087981" lon="9.432064510902055"><ele>75.5</ele><time>2026-05-01T18:16:06.999Z</time></trkpt><trkpt lat="45.286124981909964" lon="9.431787507348682"><ele>75.0</ele><time>2026-05-01T18:16:07.999Z</time></trkpt><trkpt lat="45.286284146123265" lon="9.431517255336418"><ele>74.5</ele><time>2026-05-01T18:16:08.999Z</time></trkpt><trkpt lat="45.2864364589326" lon="9.431242896214615"><ele>74.0</ele><time>2026-05-01T18:16:09.999Z</time></trkpt><trkpt lat="45.286591268792876" lon="9.430965201546874"><ele>74.0</ele><time>2026-05-01T18:16:10.999Z</time></trkpt><trkpt lat="45.28674585132016" lon="9.430688557320549"><ele>74.0</ele><time>2026-05-01T18:16:11.999Z</time></trkpt><trkpt lat="45.28690718830897" lon="9.430405562156574"><ele>75.5</ele><time>2026-05-01T18:16:12.999Z</time></trkpt><trkpt lat="45.28706455199962" lon="9.430124316271218"><ele>77.0</ele><time>2026-05-01T18:16:13.999Z</time></trkpt><trkpt lat="45.28722390939393" lon="9.429838788890194"><ele>78.5</ele><time>2026-05-01T18:16:14.999Z</time></trkpt><trkpt lat="45.28738152489728" lon="9.429556547625355"><ele>80.0</ele><time>2026-05-01T18:16:15.999Z</time></trkpt><trkpt lat="45.28754084281135" lon="9.42927730249802"><ele>80.0</ele><time>2026-05-01T18:16:16.999Z</time></trkpt><trkpt lat="45.28770248308824" lon="9.428993450264345"><ele>80.0</ele><time>2026-05-01T18:16:17.999Z</time></trkpt><trkpt lat="45.28786191936506" lon="9.428707422683138"><ele>79.0</ele><time>2026-05-01T18:16:18.999Z</time></trkpt><trkpt lat="45.28801447248185" lon="9.428424784449884"><ele>78.0</ele><time>2026-05-01T18:16:19.999Z</time></trkpt><trkpt lat="45.28816973961442" lon="9.428141188557644"><ele>77.5</ele><time>2026-05-01T18:16:20.999Z</time></trkpt><trkpt lat="45.288330014482916" lon="9.427856764731038"><ele>77.0</ele><time>2026-05-01T18:16:21.999Z</time></trkpt><trkpt lat="45.28848678297384" lon="9.427574291924849"><ele>77.0</ele><time>2026-05-01T18:16:22.999Z</time></trkpt><trkpt lat="45.28864447781374" lon="9.427290898832528"><ele>77.0</ele><time>2026-05-01T18:16:23.999Z</time></trkpt><trkpt lat="45.288800563383646" lon="9.427013653161932"><ele>76.5</ele><time>2026-05-01T18:16:24.999Z</time></trkpt><trkpt lat="45.288957922285825" lon="9.426736296975816"><ele>76.0</ele><time>2026-05-01T18:16:25.999Z</time></trkpt><trkpt lat="45.28911680823236" lon="9.426455998865274"><ele>76.5</ele><time>2026-05-01T18:16:26.999Z</time></trkpt><trkpt lat="45.28927189367757" lon="9.426174455100202"><ele>77.0</ele><time>2026-05-01T18:16:27.999Z</time></trkpt><trkpt lat="45.28942757981383" lon="9.425894226218917"><ele>77.0</ele><time>2026-05-01T18:16:28.999Z</time></trkpt><trkpt lat="45.28958540975014" lon="9.42561168227085"><ele>77.0</ele><time>2026-05-01T18:16:29.999Z</time></trkpt><trkpt lat="45.28974201156413" lon="9.425331665074609"><ele>76.5</ele><time>2026-05-01T18:16:30.999Z</time></trkpt><trkpt lat="45.28989908484639" lon="9.425051987490988"><ele>76.0</ele><time>2026-05-01T18:16:31.999Z</time></trkpt><trkpt lat="45.29005511533271" lon="9.42477222253064"><ele>76.0</ele><time>2026-05-01T18:16:32.999Z</time></trkpt><trkpt lat="45.29021127697491" lon="9.424492315935698"><ele>76.0</ele><time>2026-05-01T18:16:33.999Z</time></trkpt><trkpt lat="45.290366886003" lon="9.424213559773259"><ele>76.0</ele><time>2026-05-01T18:16:34.999Z</time></trkpt><trkpt lat="45.290522196833294" lon="9.423936653320428"><ele>76.0</ele><time>2026-05-01T18:16:35.999Z</time></trkpt><trkpt lat="45.290680411976304" lon="9.423654864903506"><ele>76.0</ele><time>2026-05-01T18:16:36.999Z</time></trkpt><trkpt lat="45.290835865484205" lon="9.423371990710413"><ele>76.0</ele><time>2026-05-01T18:16:37.999Z</time></trkpt><trkpt lat="45.290991184693254" lon="9.423093221328394"><ele>76.0</ele><time>2026-05-01T18:16:38.999Z</time></trkpt><trkpt lat="45.29114896193594" lon="9.42281337251899"><ele>76.0</ele><time>2026-05-01T18:16:39.999Z</time></trkpt><trkpt lat="45.29130761631138" lon="9.422529842219337"><ele>76.0</ele><time>2026-05-01T18:16:41Z</time></trkpt><trkpt lat="45.29146854160659" lon="9.422242918676973"><ele>76.0</ele><time>2026-05-01T18:16:42Z</time></trkpt><trkpt lat="45.291630012730124" lon="9.421956744801136"><ele>76.0</ele><time>2026-05-01T18:16:43Z</time></trkpt><trkpt lat="45.29179374828164" lon="9.421666429894392"><ele>76.0</ele><time>2026-05-01T18:16:44Z</time></trkpt><trkpt lat="45.291955495079286" lon="9.421376411661521"><ele>76.0</ele><time>2026-05-01T18:16:45Z</time></trkpt><trkpt lat="45.29211848972231" lon="9.42108599593738"><ele>76.0</ele><time>2026-05-01T18:16:46Z</time></trkpt><trkpt lat="45.2922816077156" lon="9.420795446068656"><ele>75.5</ele><time>2026-05-01T18:16:47Z</time></trkpt><trkpt lat="45.2924416157161" lon="9.420507354911344"><ele>75.0</ele><time>2026-05-01T18:16:48Z</time></trkpt><trkpt lat="45.29260728884611" lon="9.420221472948832"><ele>75.0</ele><time>2026-05-01T18:16:49Z</time></trkpt><trkpt lat="45.29276576412807" lon="9.419930704889575"><ele>75.0</ele><time>2026-05-01T18:16:50Z</time></trkpt><trkpt lat="45.292928678941685" lon="9.419638400056428"><ele>75.5</ele><time>2026-05-01T18:16:51Z</time></trkpt><trkpt lat="45.29309414471705" lon="9.419348356697311"><ele>76.0</ele><time>2026-05-01T18:16:52Z</time></trkpt><trkpt lat="45.29325685265264" lon="9.41906134049909"><ele>75.5</ele><time>2026-05-01T18:16:53Z</time></trkpt><trkpt lat="45.29341155082757" lon="9.41878467181587"><ele>75.0</ele><time>2026-05-01T18:16:54Z</time></trkpt><trkpt lat="45.293566498954526" lon="9.41850583533973"><ele>75.0</ele><time>2026-05-01T18:16:55Z</time></trkpt><trkpt lat="45.29372008976153" lon="9.418224405905203"><ele>75.0</ele><time>2026-05-01T18:16:56Z</time></trkpt><trkpt lat="45.29385439063588" lon="9.417963276360226"><ele>75.33333333333333</ele><time>2026-05-01T18:16:57Z</time></trkpt><trkpt lat="45.293983883968146" lon="9.417704182300033"><ele>75.66666666666666</ele><time>2026-05-01T18:16:58Z</time></trkpt><trkpt lat="45.294113144747" lon="9.417444896991471"><ele>76.0</ele><time>2026-05-01T18:16:59Z</time></trkpt><trkpt lat="45.294402036349865" lon="9.417078549391842"><ele>76.0</ele><time>2026-05-01T18:17:00Z</time></trkpt><trkpt lat="45.29457071342377" lon="9.416795551117751"><ele>76.0</ele><time>2026-05-01T18:17:01Z</time></trkpt><trkpt lat="45.29473917805583" lon="9.41651155435553"><ele>76.5</ele><time>2026-05-01T18:17:02Z</time></trkpt><trkpt lat="45.29490882773153" lon="9.4162252716417"><ele>77.0</ele><time>2026-05-01T18:17:03Z</time></trkpt><trkpt lat="45.295081578820685" lon="9.415949793458346"><ele>77.0</ele><time>2026-05-01T18:17:04Z</time></trkpt><trkpt lat="45.295246857855076" lon="9.415669001863497"><ele>77.0</ele><time>2026-05-01T18:17:05Z</time></trkpt><trkpt lat="45.295412822437264" lon="9.415391646352175"><ele>76.5</ele><time>2026-05-01T18:17:06Z</time></trkpt><trkpt lat="45.29558002338072" lon="9.415116759470921"><ele>76.0</ele><time>2026-05-01T18:17:07Z</time></trkpt><trkpt lat="45.2957453708825" lon="9.414846966225197"><ele>76.0</ele><time>2026-05-01T18:17:08Z</time></trkpt><trkpt lat="45.29591825044157" lon="9.4145794786128"><ele>76.0</ele><time>2026-05-01T18:17:09Z</time></trkpt><trkpt lat="45.296087996596725" lon="9.414297886845068"><ele>76.0</ele><time>2026-05-01T18:17:10Z</time></trkpt><trkpt lat="45.296266812647936" lon="9.414009762081648"><ele>76.0</ele><time>2026-05-01T18:17:11Z</time></trkpt><trkpt lat="45.296443282161526" lon="9.413735375279547"><ele>77.0</ele><time>2026-05-01T18:17:12Z</time></trkpt><trkpt lat="45.296625697259884" lon="9.413450403761072"><ele>78.0</ele><time>2026-05-01T18:17:13Z</time></trkpt><trkpt lat="45.296806945942976" lon="9.413160748126117"><ele>78.5</ele><time>2026-05-01T18:17:14Z</time></trkpt><trkpt lat="45.29698785497252" lon="9.41287617983754"><ele>79.0</ele><time>2026-05-01T18:17:15Z</time></trkpt><trkpt lat="45.29716982678925" lon="9.412595005602038"><ele>79.0</ele><time>2026-05-01T18:17:16Z</time></trkpt><trkpt lat="45.29735281620572" lon="9.41231577250345"><ele>79.0</ele><time>2026-05-01T18:17:17Z</time></trkpt><trkpt lat="45.297539879592684" lon="9.412035348792148"><ele>78.0</ele><time>2026-05-01T18:17:18Z</time></trkpt><trkpt lat="45.29772914050499" lon="9.411744605586781"><ele>77.0</ele><time>2026-05-01T18:17:19Z</time></trkpt><trkpt lat="45.2979159334495" lon="9.41146573275551"><ele>78.0</ele><time>2026-05-01T18:17:20Z</time></trkpt><trkpt lat="45.29810681225424" lon="9.411189294349564"><ele>79.0</ele><time>2026-05-01T18:17:21Z</time></trkpt><trkpt lat="45.29828937798918" lon="9.410912582482927"><ele>79.0</ele><time>2026-05-01T18:17:22Z</time></trkpt><trkpt lat="45.298471397850605" lon="9.410640567247876"><ele>79.0</ele><time>2026-05-01T18:17:23Z</time></trkpt><trkpt lat="45.29865570767489" lon="9.41036902713569"><ele>78.0</ele><time>2026-05-01T18:17:24Z</time></trkpt><trkpt lat="45.29883927651049" lon="9.410102165700756"><ele>77.0</ele><time>2026-05-01T18:17:25Z</time></trkpt><trkpt lat="45.299025706592445" lon="9.409829609598212"><ele>77.5</ele><time>2026-05-01T18:17:26Z</time></trkpt><trkpt lat="45.299211418008355" lon="9.409563478604941"><ele>78.0</ele><time>2026-05-01T18:17:27Z</time></trkpt><trkpt lat="45.29939821359289" lon="9.40929950548598"><ele>78.0</ele><time>2026-05-01T18:17:28Z</time></trkpt><trkpt lat="45.299583828017816" lon="9.409038227484684"><ele>78.0</ele><time>2026-05-01T18:17:29Z</time></trkpt><trkpt lat="45.299767169911206" lon="9.408775100844823"><ele>79.0</ele><time>2026-05-01T18:17:30Z</time></trkpt><trkpt lat="45.29994699744381" lon="9.408516729139015"><ele>80.0</ele><time>2026-05-01T18:17:31Z</time></trkpt><trkpt lat="45.30012818641234" lon="9.408258864149612"><ele>80.0</ele><time>2026-05-01T18:17:32Z</time></trkpt><trkpt lat="45.300305689454326" lon="9.408010426908596"><ele>80.0</ele><time>2026-05-01T18:17:33Z</time></trkpt><trkpt lat="45.30048073756096" lon="9.407764501685884"><ele>80.0</ele><time>2026-05-01T18:17:34Z</time></trkpt><trkpt lat="45.30065495385199" lon="9.407517761040005"><ele>80.0</ele><time>2026-05-01T18:17:35Z</time></trkpt><trkpt lat="45.30083416850931" lon="9.407270573055362"><ele>80.0</ele><time>2026-05-01T18:17:36Z</time></trkpt><trkpt lat="45.30101263972547" lon="9.407025585306117"><ele>80.0</ele><time>2026-05-01T18:17:37Z</time></trkpt><trkpt lat="45.30119186314149" lon="9.406782617158882"><ele>80.0</ele><time>2026-05-01T18:17:38Z</time></trkpt><trkpt lat="45.301370457347346" lon="9.406535212720751"><ele>80.0</ele><time>2026-05-01T18:17:39Z</time></trkpt><trkpt lat="45.301550021451085" lon="9.406290228461899"><ele>79.5</ele><time>2026-05-01T18:17:40Z</time></trkpt><trkpt lat="45.301726131478844" lon="9.406038767321192"><ele>79.0</ele><time>2026-05-01T18:17:41Z</time></trkpt><trkpt lat="45.30190709120511" lon="9.405785631823651"><ele>79.0</ele><time>2026-05-01T18:17:42Z</time></trkpt><trkpt lat="45.302092972958455" lon="9.405531319610041"><ele>79.0</ele><time>2026-05-01T18:17:43Z</time></trkpt><trkpt lat="45.302280985045265" lon="9.405279747375547"><ele>79.5</ele><time>2026-05-01T18:17:44Z</time></trkpt><trkpt lat="45.30246322605182" lon="9.405026691002902"><ele>80.0</ele><time>2026-05-01T18:17:45Z</time></trkpt><trkpt lat="45.30265150794498" lon="9.404773915710297"><ele>79.5</ele><time>2026-05-01T18:17:46Z</time></trkpt><trkpt lat="45.302837891108474" lon="9.404516468899692"><ele>79.0</ele><time>2026-05-01T18:17:47Z</time></trkpt><trkpt lat="45.30302772347228" lon="9.404256135607335"><ele>79.0</ele><time>2026-05-01T18:17:48Z</time></trkpt><trkpt lat="45.30321557911822" lon="9.40398935856037"><ele>79.0</ele><time>2026-05-01T18:17:49Z</time></trkpt><trkpt lat="45.303399388794745" lon="9.403725644587087"><ele>79.0</ele><time>2026-05-01T18:17:50Z</time></trkpt><trkpt lat="45.30358788879766" lon="9.403466280207406"><ele>79.0</ele><time>2026-05-01T18:17:51Z</time></trkpt><trkpt lat="45.30377539168752" lon="9.403211088016532"><ele>79.0</ele><time>2026-05-01T18:17:52Z</time></trkpt><trkpt lat="45.30395749509913" lon="9.402945434847517"><ele>79.0</ele><time>2026-05-01T18:17:52.999Z</time></trkpt><trkpt lat="45.304139312648196" lon="9.4026782342457"><ele>79.0</ele><time>2026-05-01T18:17:53.999Z</time></trkpt><trkpt lat="45.30431949774651" lon="9.402406382407046"><ele>79.0</ele><time>2026-05-01T18:17:54.999Z</time></trkpt><trkpt lat="45.30450104995652" lon="9.402136016884967"><ele>79.0</ele><time>2026-05-01T18:17:55.999Z</time></trkpt><trkpt lat="45.30468127569536" lon="9.401868676754583"><ele>79.0</ele><time>2026-05-01T18:17:56.999Z</time></trkpt><trkpt lat="45.30486091684671" lon="9.401603766679658"><ele>80.0</ele><time>2026-05-01T18:17:57.999Z</time></trkpt><trkpt lat="45.30503944999817" lon="9.401330327917854"><ele>81.0</ele><time>2026-05-01T18:17:58.999Z</time></trkpt><trkpt lat="45.30521545236799" lon="9.401045718578535"><ele>81.0</ele><time>2026-05-01T18:17:59.999Z</time></trkpt><trkpt lat="45.30539540155806" lon="9.400749505940029"><ele>81.0</ele><time>2026-05-01T18:18:00.999Z</time></trkpt><trkpt lat="45.305584940605044" lon="9.400443117496923"><ele>81.0</ele><time>2026-05-01T18:18:01.999Z</time></trkpt><trkpt lat="45.305781890983674" lon="9.400132192684342"><ele>81.0</ele><time>2026-05-01T18:18:02.999Z</time></trkpt><trkpt lat="45.30598265223198" lon="9.399821326283556"><ele>81.0</ele><time>2026-05-01T18:18:03.999Z</time></trkpt><trkpt lat="45.30618531148827" lon="9.399510267092994"><ele>81.0</ele><time>2026-05-01T18:18:04.999Z</time></trkpt><trkpt lat="45.306388619018755" lon="9.399200433486358"><ele>81.5</ele><time>2026-05-01T18:18:05.999Z</time></trkpt><trkpt lat="45.306595409497724" lon="9.39889266856324"><ele>82.0</ele><time>2026-05-01T18:18:06.999Z</time></trkpt><trkpt lat="45.30680021994122" lon="9.398584774627423"><ele>82.0</ele><time>2026-05-01T18:18:07.999Z</time></trkpt><trkpt lat="45.3070024504942" lon="9.398261160286221"><ele>82.0</ele><time>2026-05-01T18:18:08.999Z</time></trkpt><trkpt lat="45.30720544799564" lon="9.397987991035858"><ele>81.0</ele><time>2026-05-01T18:18:09.999Z</time></trkpt><trkpt lat="45.30740850336327" lon="9.397697946490817"><ele>80.0</ele><time>2026-05-01T18:18:10.999Z</time></trkpt><trkpt lat="45.30760578205013" lon="9.397404753418353"><ele>80.0</ele><time>2026-05-01T18:18:11.999Z</time></trkpt><trkpt lat="45.30779903239664" lon="9.397113557254567"><ele>80.0</ele><time>2026-05-01T18:18:12.999Z</time></trkpt><trkpt lat="45.307990570448176" lon="9.396820783713155"><ele>80.5</ele><time>2026-05-01T18:18:13.999Z</time></trkpt><trkpt lat="45.30818179626219" lon="9.396526830763596"><ele>81.0</ele><time>2026-05-01T18:18:14.999Z</time></trkpt><trkpt lat="45.30837170554824" lon="9.396235463836673"><ele>81.0</ele><time>2026-05-01T18:18:15.999Z</time></trkpt><trkpt lat="45.30856080056697" lon="9.395946370530499"><ele>81.0</ele><time>2026-05-01T18:18:16.999Z</time></trkpt><trkpt lat="45.30874809070108" lon="9.395658664055077"><ele>80.5</ele><time>2026-05-01T18:18:17.999Z</time></trkpt><trkpt lat="45.30893670130723" lon="9.39537449227393"><ele>80.0</ele><time>2026-05-01T18:18:18.999Z</time></trkpt><trkpt lat="45.30912757939021" lon="9.39508986225246"><ele>80.0</ele><time>2026-05-01T18:18:19.999Z</time></trkpt><trkpt lat="45.30931559577071" lon="9.394805496493946"><ele>80.0</ele><time>2026-05-01T18:18:20.999Z</time></trkpt><trkpt lat="45.309500279066576" lon="9.394519789663367"><ele>80.5</ele><time>2026-05-01T18:18:21.999Z</time></trkpt><trkpt lat="45.309688252632554" lon="9.394235086379329"><ele>81.0</ele><time>2026-05-01T18:18:22.999Z</time></trkpt><trkpt lat="45.30987366715929" lon="9.393951996116828"><ele>81.0</ele><time>2026-05-01T18:18:23.999Z</time></trkpt><trkpt lat="45.310057559566886" lon="9.393670400630574"><ele>81.0</ele><time>2026-05-01T18:18:24.999Z</time></trkpt><trkpt lat="45.310239918507044" lon="9.393388148273312"><ele>81.0</ele><time>2026-05-01T18:18:25.999Z</time></trkpt><trkpt lat="45.310421562180395" lon="9.393109846774964"><ele>81.0</ele><time>2026-05-01T18:18:26.999Z</time></trkpt><trkpt lat="45.31060211033429" lon="9.392829919687138"><ele>81.0</ele><time>2026-05-01T18:18:27.999Z</time></trkpt><trkpt lat="45.310782961793244" lon="9.392553059296858"><ele>81.0</ele><time>2026-05-01T18:18:28.999Z</time></trkpt><trkpt lat="45.31096411287497" lon="9.392283760331825"><ele>80.5</ele><time>2026-05-01T18:18:29.999Z</time></trkpt><trkpt lat="45.311142283935936" lon="9.392009893948542"><ele>80.0</ele><time>2026-05-01T18:18:30.999Z</time></trkpt><trkpt lat="45.31132149594896" lon="9.391733392496892"><ele>80.0</ele><time>2026-05-01T18:18:31.999Z</time></trkpt><trkpt lat="45.311495377669026" lon="9.391466497969622"><ele>80.0</ele><time>2026-05-01T18:18:32.999Z</time></trkpt><trkpt lat="45.311672797691344" lon="9.391193738017144"><ele>80.0</ele><time>2026-05-01T18:18:33.999Z</time></trkpt><trkpt lat="45.311846481908276" lon="9.390922084376669"><ele>80.0</ele><time>2026-05-01T18:18:34.999Z</time></trkpt><trkpt lat="45.312019945946496" lon="9.390652279923852"><ele>80.0</ele><time>2026-05-01T18:18:35.999Z</time></trkpt><trkpt lat="45.31219933079037" lon="9.390384925047925"><ele>80.0</ele><time>2026-05-01T18:18:36.999Z</time></trkpt><trkpt lat="45.31237314120012" lon="9.390114552575222"><ele>80.0</ele><time>2026-05-01T18:18:37.999Z</time></trkpt><trkpt lat="45.31254978555668" lon="9.389844018780616"><ele>80.0</ele><time>2026-05-01T18:18:38.999Z</time></trkpt><trkpt lat="45.312725657870565" lon="9.38957338008796"><ele>80.0</ele><time>2026-05-01T18:18:39.999Z</time></trkpt><trkpt lat="45.31290303979169" lon="9.389305811139877"><ele>80.0</ele><time>2026-05-01T18:18:40.999Z</time></trkpt><trkpt lat="45.31308067995702" lon="9.389034751919231"><ele>81.0</ele><time>2026-05-01T18:18:41.999Z</time></trkpt><trkpt lat="45.31325869823118" lon="9.388763586653635"><ele>82.0</ele><time>2026-05-01T18:18:42.999Z</time></trkpt><trkpt lat="45.31343747358886" lon="9.388497843834546"><ele>82.0</ele><time>2026-05-01T18:18:43.999Z</time></trkpt><trkpt lat="45.31360973484466" lon="9.388231118508491"><ele>82.0</ele><time>2026-05-01T18:18:44.999Z</time></trkpt><trkpt lat="45.313785260245005" lon="9.38796386950645"><ele>81.5</ele><time>2026-05-01T18:18:45.999Z</time></trkpt><trkpt lat="45.31395849756101" lon="9.38769275088341"><ele>81.0</ele><time>2026-05-01T18:18:47Z</time></trkpt><trkpt lat="45.314133979503666" lon="9.387426059708558"><ele>82.0</ele><time>2026-05-01T18:18:48Z</time></trkpt><trkpt lat="45.314308187374046" lon="9.38715422528353"><ele>83.0</ele><time>2026-05-01T18:18:49Z</time></trkpt><trkpt lat="45.31448629251904" lon="9.386885399077327"><ele>83.0</ele><time>2026-05-01T18:18:50Z</time></trkpt><trkpt lat="45.31466421536077" lon="9.386615332833932"><ele>83.0</ele><time>2026-05-01T18:18:51Z</time></trkpt><trkpt lat="45.31484069615338" lon="9.38634140696022"><ele>81.5</ele><time>2026-05-01T18:18:52Z</time></trkpt><trkpt lat="45.3150186293516" lon="9.386062621927943"><ele>80.0</ele><time>2026-05-01T18:18:53Z</time></trkpt><trkpt lat="45.31519762206517" lon="9.385785399355065"><ele>81.0</ele><time>2026-05-01T18:18:54Z</time></trkpt><trkpt lat="45.315379735445816" lon="9.38551020789916"><ele>82.0</ele><time>2026-05-01T18:18:55Z</time></trkpt><trkpt lat="45.31556071368354" lon="9.385237963772934"><ele>81.5</ele><time>2026-05-01T18:18:56Z</time></trkpt><trkpt lat="45.315740886787914" lon="9.384968258447858"><ele>81.0</ele><time>2026-05-01T18:18:57Z</time></trkpt><trkpt lat="45.31592008701202" lon="9.38469664689776"><ele>81.0</ele><time>2026-05-01T18:18:58Z</time></trkpt><trkpt lat="45.31609840536322" lon="9.384430487934804"><ele>81.0</ele><time>2026-05-01T18:18:59Z</time></trkpt><trkpt lat="45.31627327325329" lon="9.384163044513668"><ele>81.5</ele><time>2026-05-01T18:19:00Z</time></trkpt><trkpt lat="45.31644801771095" lon="9.383893352098196"><ele>82.0</ele><time>2026-05-01T18:19:01Z</time></trkpt><trkpt lat="45.31662145412823" lon="9.38362727457182"><ele>82.0</ele><time>2026-05-01T18:19:02Z</time></trkpt><trkpt lat="45.316794929508355" lon="9.383365235318529"><ele>82.0</ele><time>2026-05-01T18:19:03Z</time></trkpt><trkpt lat="45.31696891052549" lon="9.383098441790148"><ele>82.0</ele><time>2026-05-01T18:19:04Z</time></trkpt><trkpt lat="45.31714608511965" lon="9.382823688421889"><ele>82.0</ele><time>2026-05-01T18:19:05Z</time></trkpt><trkpt lat="45.317322269074616" lon="9.38255168519272"><ele>82.0</ele><time>2026-05-01T18:19:06Z</time></trkpt><trkpt lat="45.31749848624915" lon="9.382282600528562"><ele>82.0</ele><time>2026-05-01T18:19:07Z</time></trkpt><trkpt lat="45.31767257636384" lon="9.382011411755123"><ele>82.0</ele><time>2026-05-01T18:19:08Z</time></trkpt><trkpt lat="45.31784657273132" lon="9.381744814507705"><ele>82.0</ele><time>2026-05-01T18:19:09Z</time></trkpt><trkpt lat="45.31802077191483" lon="9.381480073417324"><ele>82.5</ele><time>2026-05-01T18:19:10Z</time></trkpt><trkpt lat="45.318195271950586" lon="9.38121182347413"><ele>83.0</ele><time>2026-05-01T18:19:11Z</time></trkpt><trkpt lat="45.31837196240142" lon="9.380944350243299"><ele>83.0</ele><time>2026-05-01T18:19:12Z</time></trkpt><trkpt lat="45.318546868211506" lon="9.38067650158983"><ele>83.0</ele><time>2026-05-01T18:19:13Z</time></trkpt><trkpt lat="45.3187224416828" lon="9.380410318025096"><ele>82.5</ele><time>2026-05-01T18:19:14Z</time></trkpt><trkpt lat="45.31889328903037" lon="9.380139458508125"><ele>82.0</ele><time>2026-05-01T18:19:15Z</time></trkpt><trkpt lat="45.3190690444057" lon="9.379872491780414"><ele>83.0</ele><time>2026-05-01T18:19:16Z</time></trkpt><trkpt lat="45.3192423261666" lon="9.37960622587043"><ele>84.0</ele><time>2026-05-01T18:19:17Z</time></trkpt><trkpt lat="45.319414708323905" lon="9.379344454289855"><ele>84.0</ele><time>2026-05-01T18:19:18Z</time></trkpt><trkpt lat="45.31958570418604" lon="9.379080542078425"><ele>84.0</ele><time>2026-05-01T18:19:19Z</time></trkpt><trkpt lat="45.31975831832871" lon="9.378816111925335"><ele>84.0</ele><time>2026-05-01T18:19:20Z</time></trkpt><trkpt lat="45.31992972974171" lon="9.378549950170553"><ele>84.0</ele><time>2026-05-01T18:19:21Z</time></trkpt><trkpt lat="45.32010175074159" lon="9.378285366026782"><ele>84.0</ele><time>2026-05-01T18:19:22Z</time></trkpt><trkpt lat="45.320275513830744" lon="9.378021598117384"><ele>84.0</ele><time>2026-05-01T18:19:23Z</time></trkpt><trkpt lat="45.32044802181587" lon="9.377759244688626"><ele>84.0</ele><time>2026-05-01T18:19:24Z</time></trkpt><trkpt lat="45.32062025856446" lon="9.377497066112944"><ele>84.0</ele><time>2026-05-01T18:19:25Z</time></trkpt><trkpt lat="45.32079338142138" lon="9.37723057244112"><ele>84.5</ele><time>2026-05-01T18:19:26Z</time></trkpt><trkpt lat="45.320967318277155" lon="9.376963530036269"><ele>85.0</ele><time>2026-05-01T18:19:27Z</time></trkpt><trkpt lat="45.32114025419838" lon="9.37669790724517"><ele>85.0</ele><time>2026-05-01T18:19:28Z</time></trkpt><trkpt lat="45.32131266724328" lon="9.376433105325933"><ele>85.0</ele><time>2026-05-01T18:19:29Z</time></trkpt><trkpt lat="45.32148610242106" lon="9.376164060549195"><ele>84.5</ele><time>2026-05-01T18:19:30Z</time></trkpt><trkpt lat="45.32166163959748" lon="9.375896619647897"><ele>84.0</ele><time>2026-05-01T18:19:31Z</time></trkpt><trkpt lat="45.321838725684536" lon="9.37562751223294"><ele>84.0</ele><time>2026-05-01T18:19:32Z</time></trkpt><trkpt lat="45.32201013648536" lon="9.375355904032785"><ele>84.0</ele><time>2026-05-01T18:19:33Z</time></trkpt><trkpt lat="45.32218478282253" lon="9.3750878961185"><ele>84.0</ele><time>2026-05-01T18:19:34Z</time></trkpt><trkpt lat="45.32235681482402" lon="9.374815856216639"><ele>84.0</ele><time>2026-05-01T18:19:35Z</time></trkpt><trkpt lat="45.32253537789605" lon="9.374542326848296"><ele>84.0</ele><time>2026-05-01T18:19:36Z</time></trkpt><trkpt lat="45.32271703255463" lon="9.374270153242742"><ele>84.0</ele><time>2026-05-01T18:19:37Z</time></trkpt><trkpt lat="45.32289713938367" lon="9.374000751456256"><ele>83.5</ele><time>2026-05-01T18:19:38Z</time></trkpt><trkpt lat="45.32307882835747" lon="9.373728773067278"><ele>83.0</ele><time>2026-05-01T18:19:39Z</time></trkpt><trkpt lat="45.32325865641296" lon="9.373460007086187"><ele>83.0</ele><time>2026-05-01T18:19:40Z</time></trkpt><trkpt lat="45.323440313077676" lon="9.37318717006493"><ele>83.0</ele><time>2026-05-01T18:19:41Z</time></trkpt><trkpt lat="45.323613301540725" lon="9.372909884873197"><ele>82.5</ele><time>2026-05-01T18:19:42Z</time></trkpt><trkpt lat="45.323795817148785" lon="9.372639520839485"><ele>82.0</ele><time>2026-05-01T18:19:43Z</time></trkpt><trkpt lat="45.32395974490663" lon="9.372376881162324"><ele>83.5</ele><time>2026-05-01T18:19:44Z</time></trkpt><trkpt lat="45.32413203927568" lon="9.37211127971357"><ele>85.0</ele><time>2026-05-01T18:19:45Z</time></trkpt><trkpt lat="45.3243105477001" lon="9.371847585734256"><ele>85.0</ele><time>2026-05-01T18:19:46Z</time></trkpt><trkpt lat="45.32447172016623" lon="9.37158093892912"><ele>85.0</ele><time>2026-05-01T18:19:47Z</time></trkpt><trkpt lat="45.324641351612186" lon="9.37132070379365"><ele>83.5</ele><time>2026-05-01T18:19:48Z</time></trkpt><trkpt lat="45.32481145835685" lon="9.371056224879895"><ele>82.0</ele><time>2026-05-01T18:19:49Z</time></trkpt><trkpt lat="45.32498137646094" lon="9.370804721335684"><ele>82.0</ele><time>2026-05-01T18:19:50Z</time></trkpt><trkpt lat="45.32514752646823" lon="9.370550475160073"><ele>82.0</ele><time>2026-05-01T18:19:51Z</time></trkpt><trkpt lat="45.325313219668246" lon="9.37029635191476"><ele>82.0</ele><time>2026-05-01T18:19:51.999Z</time></trkpt><trkpt lat="45.32547400310893" lon="9.370038893415616"><ele>82.0</ele><time>2026-05-01T18:19:52.999Z</time></trkpt><trkpt lat="45.3256388333751" lon="9.369783840497847"><ele>82.5</ele><time>2026-05-01T18:19:53.999Z</time></trkpt><trkpt lat="45.325808134350275" lon="9.369518614244543"><ele>83.0</ele><time>2026-05-01T18:19:54.999Z</time></trkpt><trkpt lat="45.32598116699158" lon="9.369240239486816"><ele>83.0</ele><time>2026-05-01T18:19:55.999Z</time></trkpt><trkpt lat="45.32616015825058" lon="9.368954819390064"><ele>83.0</ele><time>2026-05-01T18:19:56.999Z</time></trkpt><trkpt lat="45.326342513441254" lon="9.368666212780681"><ele>82.0</ele><time>2026-05-01T18:19:57.999Z</time></trkpt><trkpt lat="45.32652314568039" lon="9.368381203219647"><ele>81.0</ele><time>2026-05-01T18:19:58.999Z</time></trkpt><trkpt lat="45.32670462359553" lon="9.368092733654903"><ele>82.0</ele><time>2026-05-01T18:19:59.999Z</time></trkpt><trkpt lat="45.32688448410251" lon="9.367808075215219"><ele>83.0</ele><time>2026-05-01T18:20:00.999Z</time></trkpt><trkpt lat="45.327068411720276" lon="9.367526844348806"><ele>83.0</ele><time>2026-05-01T18:20:01.999Z</time></trkpt><trkpt lat="45.32724852776446" lon="9.3672482345388"><ele>83.0</ele><time>2026-05-01T18:20:02.999Z</time></trkpt><trkpt lat="45.32743103200418" lon="9.366969413264643"><ele>83.0</ele><time>2026-05-01T18:20:03.999Z</time></trkpt><trkpt lat="45.32761520657746" lon="9.366691785041667"><ele>83.0</ele><time>2026-05-01T18:20:04.999Z</time></trkpt><trkpt lat="45.32779611265259" lon="9.366419858571566"><ele>83.0</ele><time>2026-05-01T18:20:05.999Z</time></trkpt><trkpt lat="45.3279816796839" lon="9.36614471259335"><ele>83.0</ele><time>2026-05-01T18:20:06.999Z</time></trkpt><trkpt lat="45.328164958214494" lon="9.365871794149008"><ele>83.0</ele><time>2026-05-01T18:20:07.999Z</time></trkpt><trkpt lat="45.328353956795326" lon="9.365602633771482"><ele>83.0</ele><time>2026-05-01T18:20:08.999Z</time></trkpt><trkpt lat="45.32853576711744" lon="9.365327086283095"><ele>83.0</ele><time>2026-05-01T18:20:09.999Z</time></trkpt><trkpt lat="45.32871643420063" lon="9.365054251675716"><ele>83.0</ele><time>2026-05-01T18:20:10.999Z</time></trkpt><trkpt lat="45.328895814968064" lon="9.364788412940745"><ele>84.0</ele><time>2026-05-01T18:20:11.999Z</time></trkpt><trkpt lat="45.329069480002126" lon="9.364540698473597"><ele>85.0</ele><time>2026-05-01T18:20:12.999Z</time></trkpt><trkpt lat="45.329240104131856" lon="9.364274265318754"><ele>85.0</ele><time>2026-05-01T18:20:13.999Z</time></trkpt><trkpt lat="45.329414064813825" lon="9.364005987071845"><ele>85.0</ele><time>2026-05-01T18:20:14.999Z</time></trkpt><trkpt lat="45.32958633339866" lon="9.363732432762756"><ele>85.0</ele><time>2026-05-01T18:20:15.999Z</time></trkpt><trkpt lat="45.3297580553201" lon="9.36344731297598"><ele>85.0</ele><time>2026-05-01T18:20:16.999Z</time></trkpt><trkpt lat="45.329935868014395" lon="9.363194036775884"><ele>85.5</ele><time>2026-05-01T18:20:17.999Z</time></trkpt><trkpt lat="45.330115029996016" lon="9.362940971777306"><ele>86.0</ele><time>2026-05-01T18:20:18.999Z</time></trkpt><trkpt lat="45.33028583970181" lon="9.362675253010856"><ele>86.0</ele><time>2026-05-01T18:20:19.999Z</time></trkpt><trkpt lat="45.33045917480886" lon="9.36240996790017"><ele>86.0</ele><time>2026-05-01T18:20:20.999Z</time></trkpt><trkpt lat="45.3306264277338" lon="9.362134054683523"><ele>86.0</ele><time>2026-05-01T18:20:21.999Z</time></trkpt><trkpt lat="45.33078732338681" lon="9.361859116893266"><ele>86.0</ele><time>2026-05-01T18:20:22.999Z</time></trkpt><trkpt lat="45.33095572622997" lon="9.36157975261388"><ele>86.0</ele><time>2026-05-01T18:20:23.999Z</time></trkpt><trkpt lat="45.33112378550396" lon="9.361304304868098"><ele>86.0</ele><time>2026-05-01T18:20:24.999Z</time></trkpt><trkpt lat="45.33128426990547" lon="9.361019376468324"><ele>85.5</ele><time>2026-05-01T18:20:25.999Z</time></trkpt><trkpt lat="45.3314425329683" lon="9.360735972857562"><ele>85.0</ele><time>2026-05-01T18:20:26.999Z</time></trkpt><trkpt lat="45.3316011305336" lon="9.360447173235059"><ele>84.0</ele><time>2026-05-01T18:20:27.999Z</time></trkpt><trkpt lat="45.33175523909566" lon="9.360157246112005"><ele>83.0</ele><time>2026-05-01T18:20:28.999Z</time></trkpt><trkpt lat="45.331905916915474" lon="9.359862645239897"><ele>83.5</ele><time>2026-05-01T18:20:29.999Z</time></trkpt><trkpt lat="45.33205786625406" lon="9.359569569567125"><ele>84.0</ele><time>2026-05-01T18:20:30.999Z</time></trkpt><trkpt lat="45.332208371918334" lon="9.359267761380233"><ele>84.0</ele><time>2026-05-01T18:20:31.999Z</time></trkpt><trkpt lat="45.332358841820984" lon="9.358965990281577"><ele>84.0</ele><time>2026-05-01T18:20:32.999Z</time></trkpt><trkpt lat="45.3325026320977" lon="9.35865327482385"><ele>84.5</ele><time>2026-05-01T18:20:33.999Z</time></trkpt><trkpt lat="45.33263693965199" lon="9.358349615132727"><ele>85.0</ele><time>2026-05-01T18:20:34.999Z</time></trkpt><trkpt lat="45.332777106671315" lon="9.358051841133191"><ele>83.5</ele><time>2026-05-01T18:20:35.999Z</time></trkpt><trkpt lat="45.33291423271908" lon="9.357726681233707"><ele>82.0</ele><time>2026-05-01T18:20:36.999Z</time></trkpt><trkpt lat="45.33304419172582" lon="9.357423329567938"><ele>81.0</ele><time>2026-05-01T18:20:37.999Z</time></trkpt><trkpt lat="45.33317585188273" lon="9.357097654296805"><ele>80.0</ele><time>2026-05-01T18:20:38.999Z</time></trkpt><trkpt lat="45.33330716864871" lon="9.356778852155323"><ele>80.0</ele><time>2026-05-01T18:20:39.999Z</time></trkpt><trkpt lat="45.3334362872548" lon="9.356454524433463"><ele>80.0</ele><time>2026-05-01T18:20:40.999Z</time></trkpt><trkpt lat="45.33356014843335" lon="9.35613433358447"><ele>80.0</ele><time>2026-05-01T18:20:41.999Z</time></trkpt><trkpt lat="45.3336827477648" lon="9.355804774404309"><ele>80.0</ele><time>2026-05-01T18:20:42.999Z</time></trkpt><trkpt lat="45.33379959896749" lon="9.35547720915129"><ele>80.5</ele><time>2026-05-01T18:20:43.999Z</time></trkpt><trkpt lat="45.3339198120048" lon="9.3551427435459"><ele>81.0</ele><time>2026-05-01T18:20:44.999Z</time></trkpt><trkpt lat="45.33403404977295" lon="9.354810290633237"><ele>81.0</ele><time>2026-05-01T18:20:45.999Z</time></trkpt><trkpt lat="45.334144485218125" lon="9.354471464966018"><ele>81.0</ele><time>2026-05-01T18:20:46.999Z</time></trkpt><trkpt lat="45.33425381570885" lon="9.354129936495069"><ele>80.5</ele><time>2026-05-01T18:20:47.999Z</time></trkpt><trkpt lat="45.334361033622315" lon="9.353779578096344"><ele>80.0</ele><time>2026-05-01T18:20:48.999Z</time></trkpt><trkpt lat="45.334464990933604" lon="9.353437627001025"><ele>80.0</ele><time>2026-05-01T18:20:49.999Z</time></trkpt><trkpt lat="45.33456545364418" lon="9.35309088789725"><ele>80.0</ele><time>2026-05-01T18:20:50.999Z</time></trkpt><trkpt lat="45.334665881424016" lon="9.352746801501501"><ele>79.5</ele><time>2026-05-01T18:20:51.999Z</time></trkpt><trkpt lat="45.33476449929774" lon="9.352397758393478"><ele>79.0</ele><time>2026-05-01T18:20:53Z</time></trkpt><trkpt lat="45.334856431266864" lon="9.352045641908457"><ele>79.0</ele><time>2026-05-01T18:20:54Z</time></trkpt><trkpt lat="45.33494305536733" lon="9.351694058825775"><ele>79.0</ele><time>2026-05-01T18:20:55Z</time></trkpt><trkpt lat="45.3350257985659" lon="9.35134379687143"><ele>80.0</ele><time>2026-05-01T18:20:56Z</time></trkpt><trkpt lat="45.33510923624733" lon="9.3509928340152"><ele>81.0</ele><time>2026-05-01T18:20:57Z</time></trkpt><trkpt lat="45.33519085357783" lon="9.350635227557309"><ele>80.5</ele><time>2026-05-01T18:20:58Z</time></trkpt><trkpt lat="45.33526474024331" lon="9.350280904774031"><ele>80.0</ele><time>2026-05-01T18:20:59Z</time></trkpt><trkpt lat="45.33533791925641" lon="9.349928200568632"><ele>79.5</ele><time>2026-05-01T18:21:00Z</time></trkpt><trkpt lat="45.33541147710196" lon="9.349573650017104"><ele>79.0</ele><time>2026-05-01T18:21:01Z</time></trkpt><trkpt lat="45.335480632807936" lon="9.34921759367409"><ele>79.5</ele><time>2026-05-01T18:21:02Z</time></trkpt><trkpt lat="45.33555105822926" lon="9.348861768728062"><ele>80.0</ele><time>2026-05-01T18:21:03Z</time></trkpt><trkpt lat="45.335612052794254" lon="9.34850510431681"><ele>80.0</ele><time>2026-05-01T18:21:04Z</time></trkpt><trkpt lat="45.335669102216336" lon="9.348146085397136"><ele>80.0</ele><time>2026-05-01T18:21:05Z</time></trkpt><trkpt lat="45.33572481839262" lon="9.347786352744924"><ele>80.0</ele><time>2026-05-01T18:21:06Z</time></trkpt><trkpt lat="45.33578011723319" lon="9.347422753749683"><ele>80.0</ele><time>2026-05-01T18:21:07Z</time></trkpt><trkpt lat="45.33583270304408" lon="9.347062513712983"><ele>79.5</ele><time>2026-05-01T18:21:08Z</time></trkpt><trkpt lat="45.33588614753242" lon="9.346705267796192"><ele>79.0</ele><time>2026-05-01T18:21:09Z</time></trkpt><trkpt lat="45.335944435679096" lon="9.346337223533144"><ele>79.0</ele><time>2026-05-01T18:21:10Z</time></trkpt><trkpt lat="45.33600377059772" lon="9.345965145347298"><ele>79.0</ele><time>2026-05-01T18:21:11Z</time></trkpt><trkpt lat="45.336063422094966" lon="9.345594143305492"><ele>79.0</ele><time>2026-05-01T18:21:12Z</time></trkpt><trkpt lat="45.33611567861291" lon="9.345234323496266"><ele>79.0</ele><time>2026-05-01T18:21:13Z</time></trkpt><trkpt lat="45.33616948669167" lon="9.344869764575572"><ele>78.5</ele><time>2026-05-01T18:21:14Z</time></trkpt><trkpt lat="45.33622719339868" lon="9.344503170338978"><ele>78.0</ele><time>2026-05-01T18:21:15Z</time></trkpt><trkpt lat="45.33628311305737" lon="9.34413813004453"><ele>78.0</ele><time>2026-05-01T18:21:16Z</time></trkpt><trkpt lat="45.33633694525754" lon="9.34377521162171"><ele>78.0</ele><time>2026-05-01T18:21:17Z</time></trkpt><trkpt lat="45.33639295713635" lon="9.343416732547606"><ele>78.0</ele><time>2026-05-01T18:21:18Z</time></trkpt><trkpt lat="45.336443524270216" lon="9.343049756635452"><ele>78.0</ele><time>2026-05-01T18:21:19Z</time></trkpt><trkpt lat="45.33649915117644" lon="9.342694114558743"><ele>77.5</ele><time>2026-05-01T18:21:20Z</time></trkpt><trkpt lat="45.33655708006213" lon="9.342336520553333"><ele>77.0</ele><time>2026-05-01T18:21:21Z</time></trkpt><trkpt lat="45.336611593277965" lon="9.341982449478776"><ele>76.5</ele><time>2026-05-01T18:21:22Z</time></trkpt><trkpt lat="45.33666562304104" lon="9.341625321714098"><ele>76.0</ele><time>2026-05-01T18:21:23Z</time></trkpt><trkpt lat="45.336719482041936" lon="9.341271521731699"><ele>74.5</ele><time>2026-05-01T18:21:24Z</time></trkpt><trkpt lat="45.33677305795667" lon="9.340915612091093"><ele>73.0</ele><time>2026-05-01T18:21:25Z</time></trkpt><trkpt lat="45.336825396717025" lon="9.340555566804952"><ele>74.0</ele><time>2026-05-01T18:21:26Z</time></trkpt><trkpt lat="45.33688074992928" lon="9.340197424134834"><ele>75.0</ele><time>2026-05-01T18:21:27Z</time></trkpt><trkpt lat="45.33693311034677" lon="9.339844647711873"><ele>77.0</ele><time>2026-05-01T18:21:28Z</time></trkpt><trkpt lat="45.336988810705996" lon="9.33949701668148"><ele>79.0</ele><time>2026-05-01T18:21:29Z</time></trkpt><trkpt lat="45.337043444125875" lon="9.339151715392148"><ele>80.5</ele><time>2026-05-01T18:21:30Z</time></trkpt><trkpt lat="45.33709748720425" lon="9.338810754123518"><ele>82.0</ele><time>2026-05-01T18:21:31Z</time></trkpt><trkpt lat="45.337151230524924" lon="9.33847109266612"><ele>82.0</ele><time>2026-05-01T18:21:32Z</time></trkpt><trkpt lat="45.3372015060418" lon="9.338133870195158"><ele>82.0</ele><time>2026-05-01T18:21:33Z</time></trkpt><trkpt lat="45.337250177566474" lon="9.337797559727845"><ele>83.0</ele><time>2026-05-01T18:21:34Z</time></trkpt><trkpt lat="45.3373002647233" lon="9.337456361790181"><ele>84.0</ele><time>2026-05-01T18:21:35Z</time></trkpt><trkpt lat="45.337350422867765" lon="9.33711388854137"><ele>84.0</ele><time>2026-05-01T18:21:36Z</time></trkpt><trkpt lat="45.337402202122426" lon="9.336770181343903"><ele>84.0</ele><time>2026-05-01T18:21:37Z</time></trkpt><trkpt lat="45.337453460587525" lon="9.336424714313951"><ele>84.0</ele><time>2026-05-01T18:21:38Z</time></trkpt><trkpt lat="45.33750470376552" lon="9.336077174086371"><ele>84.0</ele><time>2026-05-01T18:21:39Z</time></trkpt><trkpt lat="45.33756080212867" lon="9.335723555626775"><ele>83.5</ele><time>2026-05-01T18:21:40Z</time></trkpt><trkpt lat="45.33761227455661" lon="9.335383290959705"><ele>83.0</ele><time>2026-05-01T18:21:41Z</time></trkpt><trkpt lat="45.33766980061499" lon="9.335031011770445"><ele>83.5</ele><time>2026-05-01T18:21:42Z</time></trkpt><trkpt lat="45.33772082147914" lon="9.334684906998627"><ele>84.0</ele><time>2026-05-01T18:21:43Z</time></trkpt><trkpt lat="45.33777114827431" lon="9.334339901942315"><ele>84.0</ele><time>2026-05-01T18:21:44Z</time></trkpt><trkpt lat="45.337820831648436" lon="9.333994991952665"><ele>84.0</ele><time>2026-05-01T18:21:45Z</time></trkpt><trkpt lat="45.33787287379628" lon="9.333648049108996"><ele>84.0</ele><time>2026-05-01T18:21:46Z</time></trkpt><trkpt lat="45.33792745625098" lon="9.333300331239924"><ele>84.0</ele><time>2026-05-01T18:21:47Z</time></trkpt><trkpt lat="45.337983402635686" lon="9.332945570039465"><ele>84.0</ele><time>2026-05-01T18:21:48Z</time></trkpt><trkpt lat="45.33803587629862" lon="9.33258812630711"><ele>84.0</ele><time>2026-05-01T18:21:49Z</time></trkpt><trkpt lat="45.33808608588904" lon="9.332240053438436"><ele>85.0</ele><time>2026-05-01T18:21:50Z</time></trkpt><trkpt lat="45.338144019215484" lon="9.331887031644355"><ele>86.0</ele><time>2026-05-01T18:21:51Z</time></trkpt><trkpt lat="45.338199132156554" lon="9.331552111953204"><ele>86.5</ele><time>2026-05-01T18:21:52Z</time></trkpt><trkpt lat="45.33827804547421" lon="9.331195315021168"><ele>87.0</ele><time>2026-05-01T18:21:53Z</time></trkpt><trkpt lat="45.33831303905019" lon="9.33083730695488"><ele>87.0</ele><time>2026-05-01T18:21:54Z</time></trkpt><trkpt lat="45.33836633849158" lon="9.330487978148705"><ele>87.0</ele><time>2026-05-01T18:21:55Z</time></trkpt><trkpt lat="45.33843844352127" lon="9.330150310054405"><ele>87.0</ele><time>2026-05-01T18:21:55.999Z</time></trkpt><trkpt lat="45.338503130825615" lon="9.329788973986156"><ele>87.0</ele><time>2026-05-01T18:21:56.999Z</time></trkpt><trkpt lat="45.338577578530796" lon="9.329435794568816"><ele>87.5</ele><time>2026-05-01T18:21:57.999Z</time></trkpt><trkpt lat="45.33864814565162" lon="9.329087103874443"><ele>88.0</ele><time>2026-05-01T18:21:58.999Z</time></trkpt><trkpt lat="45.33871963369563" lon="9.328736096891001"><ele>87.0</ele><time>2026-05-01T18:21:59.999Z</time></trkpt><trkpt lat="45.33880333824136" lon="9.32839405853585"><ele>86.0</ele><time>2026-05-01T18:22:00.999Z</time></trkpt><trkpt lat="45.33888317789772" lon="9.328046415570403"><ele>86.0</ele><time>2026-05-01T18:22:01.999Z</time></trkpt><trkpt lat="45.3389693501595" lon="9.327700032500454"><ele>86.0</ele><time>2026-05-01T18:22:02.999Z</time></trkpt><trkpt lat="45.339062766917024" lon="9.327352983807472"><ele>86.0</ele><time>2026-05-01T18:22:03.999Z</time></trkpt><trkpt lat="45.339159280835645" lon="9.32700877147907"><ele>86.0</ele><time>2026-05-01T18:22:04.999Z</time></trkpt><trkpt lat="45.33926595594586" lon="9.326683581381365"><ele>87.0</ele><time>2026-05-01T18:22:05.999Z</time></trkpt><trkpt lat="45.339342673778866" lon="9.32633897777046"><ele>88.0</ele><time>2026-05-01T18:22:06.999Z</time></trkpt><trkpt lat="45.33943783706352" lon="9.326004758064188"><ele>88.0</ele><time>2026-05-01T18:22:07.999Z</time></trkpt><trkpt lat="45.339536253720006" lon="9.325667279406915"><ele>88.0</ele><time>2026-05-01T18:22:08.999Z</time></trkpt><trkpt lat="45.33963720987184" lon="9.325332021441074"><ele>88.5</ele><time>2026-05-01T18:22:09.999Z</time></trkpt><trkpt lat="45.339740230584844" lon="9.32499851032576"><ele>89.0</ele><time>2026-05-01T18:22:10.999Z</time></trkpt><trkpt lat="45.33984503329087" lon="9.324665111850425"><ele>89.0</ele><time>2026-05-01T18:22:11.999Z</time></trkpt><trkpt lat="45.339958518832724" lon="9.32433142547303"><ele>89.0</ele><time>2026-05-01T18:22:12.999Z</time></trkpt><trkpt lat="45.340075501526385" lon="9.323999644438521"><ele>88.5</ele><time>2026-05-01T18:22:13.999Z</time></trkpt><trkpt lat="45.34019456181288" lon="9.323668672919583"><ele>88.0</ele><time>2026-05-01T18:22:14.999Z</time></trkpt><trkpt lat="45.340313661830805" lon="9.323342086423358"><ele>88.0</ele><time>2026-05-01T18:22:15.999Z</time></trkpt><trkpt lat="45.34043974012673" lon="9.32302483038954"><ele>88.0</ele><time>2026-05-01T18:22:16.999Z</time></trkpt><trkpt lat="45.340564081989314" lon="9.322713025666962"><ele>88.5</ele><time>2026-05-01T18:22:17.999Z</time></trkpt><trkpt lat="45.34069126551713" lon="9.322401622488933"><ele>89.0</ele><time>2026-05-01T18:22:18.999Z</time></trkpt><trkpt lat="45.340821584239485" lon="9.322093234231987"><ele>89.5</ele><time>2026-05-01T18:22:19.999Z</time></trkpt><trkpt lat="45.34095904910738" lon="9.321778419301483"><ele>90.0</ele><time>2026-05-01T18:22:20.999Z</time></trkpt><trkpt lat="45.34108885269047" lon="9.32148135087131"><ele>90.5</ele><time>2026-05-01T18:22:21.999Z</time></trkpt><trkpt lat="45.341231139760296" lon="9.32118635964118"><ele>91.0</ele><time>2026-05-01T18:22:22.999Z</time></trkpt><trkpt lat="45.341373045575736" lon="9.320894399232303"><ele>90.0</ele><time>2026-05-01T18:22:23.999Z</time></trkpt><trkpt lat="45.341507587539155" lon="9.32060361751718"><ele>89.0</ele><time>2026-05-01T18:22:24.999Z</time></trkpt><trkpt lat="45.34165290749905" lon="9.3203149519042"><ele>89.0</ele><time>2026-05-01T18:22:25.999Z</time></trkpt><trkpt lat="45.34179851211594" lon="9.32002632250023"><ele>89.0</ele><time>2026-05-01T18:22:26.999Z</time></trkpt><trkpt lat="45.341942796919575" lon="9.319741273185308"><ele>89.0</ele><time>2026-05-01T18:22:27.999Z</time></trkpt><trkpt lat="45.34208757629145" lon="9.319461305576734"><ele>89.0</ele><time>2026-05-01T18:22:28.999Z</time></trkpt><trkpt lat="45.342234628357836" lon="9.319188334457538"><ele>88.5</ele><time>2026-05-01T18:22:29.999Z</time></trkpt><trkpt lat="45.34238690338763" lon="9.318915317288303"><ele>88.0</ele><time>2026-05-01T18:22:30.999Z</time></trkpt><trkpt lat="45.342540718388854" lon="9.318652547823374"><ele>89.5</ele><time>2026-05-01T18:22:31.999Z</time></trkpt><trkpt lat="45.34270035389767" lon="9.318385088089702"><ele>91.0</ele><time>2026-05-01T18:22:32.999Z</time></trkpt><trkpt lat="45.34286038338745" lon="9.318113775112632"><ele>92.0</ele><time>2026-05-01T18:22:33.999Z</time></trkpt><trkpt lat="45.343021325633394" lon="9.317844939926408"><ele>93.0</ele><time>2026-05-01T18:22:34.999Z</time></trkpt><trkpt lat="45.34318988530449" lon="9.317576811517371"><ele>91.0</ele><time>2026-05-01T18:22:35.999Z</time></trkpt><trkpt lat="45.343364775967885" lon="9.317301981716266"><ele>89.0</ele><time>2026-05-01T18:22:36.999Z</time></trkpt><trkpt lat="45.34354423819824" lon="9.317025997706095"><ele>89.0</ele><time>2026-05-01T18:22:37.999Z</time></trkpt><trkpt lat="45.34372889034982" lon="9.316751757373092"><ele>89.0</ele><time>2026-05-01T18:22:38.999Z</time></trkpt><trkpt lat="45.34391757897561" lon="9.316480119210643"><ele>89.0</ele><time>2026-05-01T18:22:39.999Z</time></trkpt><trkpt lat="45.34410741659846" lon="9.316209148043292"><ele>89.0</ele><time>2026-05-01T18:22:40.999Z</time></trkpt><trkpt lat="45.34430002768008" lon="9.315941980600618"><ele>89.0</ele><time>2026-05-01T18:22:41.999Z</time></trkpt><trkpt lat="45.344497589445" lon="9.315676623578101"><ele>89.0</ele><time>2026-05-01T18:22:42.999Z</time></trkpt><trkpt lat="45.344696525288626" lon="9.31540836585802"><ele>89.5</ele><time>2026-05-01T18:22:43.999Z</time></trkpt><trkpt lat="45.344898939984155" lon="9.3151494482216"><ele>90.0</ele><time>2026-05-01T18:22:44.999Z</time></trkpt><trkpt lat="45.3450989054823" lon="9.314893274533526"><ele>89.5</ele><time>2026-05-01T18:22:45.999Z</time></trkpt><trkpt lat="45.34529269224933" lon="9.314648699196463"><ele>89.0</ele><time>2026-05-01T18:22:46.999Z</time></trkpt><trkpt lat="45.34549989936135" lon="9.314416310261887"><ele>89.5</ele><time>2026-05-01T18:22:47.999Z</time></trkpt><trkpt lat="45.345696826018596" lon="9.314192124139362"><ele>90.0</ele><time>2026-05-01T18:22:48.999Z</time></trkpt><trkpt lat="45.345893245953526" lon="9.313969877208656"><ele>89.5</ele><time>2026-05-01T18:22:49.999Z</time></trkpt><trkpt lat="45.34608384894312" lon="9.313750660383077"><ele>89.0</ele><time>2026-05-01T18:22:50.999Z</time></trkpt><trkpt lat="45.3462720244192" lon="9.31353389113085"><ele>89.0</ele><time>2026-05-01T18:22:51.999Z</time></trkpt><trkpt lat="45.346456284374185" lon="9.313317485472274"><ele>89.0</ele><time>2026-05-01T18:22:52.999Z</time></trkpt><trkpt lat="45.34663892316356" lon="9.313102784179843"><ele>90.5</ele><time>2026-05-01T18:22:53.999Z</time></trkpt><trkpt lat="45.34681804761135" lon="9.312894428583672"><ele>92.0</ele><time>2026-05-01T18:22:54.999Z</time></trkpt><trkpt lat="45.34699221670195" lon="9.312683277316413"><ele>92.0</ele><time>2026-05-01T18:22:55.999Z</time></trkpt><trkpt lat="45.3471643529125" lon="9.31247218440328"><ele>92.0</ele><time>2026-05-01T18:22:56.999Z</time></trkpt><trkpt lat="45.347332228023774" lon="9.312264923438605"><ele>92.0</ele><time>2026-05-01T18:22:57.999Z</time></trkpt><trkpt lat="45.34749267282437" lon="9.312060162730623"><ele>91.0</ele><time>2026-05-01T18:22:59Z</time></trkpt><trkpt lat="45.347643787000344" lon="9.311842497207518"><ele>90.0</ele><time>2026-05-01T18:23:00Z</time></trkpt><trkpt lat="45.34778331956154" lon="9.311631662703483"><ele>89.0</ele><time>2026-05-01T18:23:01Z</time></trkpt><trkpt lat="45.347907575315965" lon="9.311431394204485"><ele>89.0</ele><time>2026-05-01T18:23:02Z</time></trkpt><trkpt lat="45.34801989069986" lon="9.311237573802243"><ele>89.0</ele><time>2026-05-01T18:23:03Z</time></trkpt><trkpt lat="45.3481246854577" lon="9.311053008105285"><ele>89.0</ele><time>2026-05-01T18:23:04Z</time></trkpt><trkpt lat="45.34822386631465" lon="9.310866706548989"><ele>89.0</ele><time>2026-05-01T18:23:05Z</time></trkpt><trkpt lat="45.34831823672672" lon="9.310682951384162"><ele>89.0</ele><time>2026-05-01T18:23:06Z</time></trkpt><trkpt lat="45.34842239744337" lon="9.310507917026097"><ele>89.0</ele><time>2026-05-01T18:23:07Z</time></trkpt><trkpt lat="45.34852454233672" lon="9.310346148705726"><ele>89.4</ele><time>2026-05-01T18:23:08Z</time></trkpt><trkpt lat="45.34862901174781" lon="9.310198927777122"><ele>89.80000000000001</ele><time>2026-05-01T18:23:09Z</time></trkpt><trkpt lat="45.348722274769074" lon="9.310080209691078"><ele>90.19999999999999</ele><time>2026-05-01T18:23:10Z</time></trkpt><trkpt lat="45.34879325390981" lon="9.310024017032914"><ele>90.6</ele><time>2026-05-01T18:23:11Z</time></trkpt><trkpt lat="45.34886206259864" lon="9.309933002220076"><ele>91.0</ele><time>2026-05-01T18:23:12Z</time></trkpt><trkpt lat="45.34892091314903" lon="9.30985708600726"><ele>91.16666666666666</ele><time>2026-05-01T18:23:13Z</time></trkpt><trkpt lat="45.3489822262047" lon="9.30977352150717"><ele>91.33333333333333</ele><time>2026-05-01T18:23:14Z</time></trkpt><trkpt lat="45.34903707229455" lon="9.309700866203196"><ele>91.5</ele><time>2026-05-01T18:23:15Z</time></trkpt><trkpt lat="45.34908971250452" lon="9.309644476848588"><ele>91.66666666666667</ele><time>2026-05-01T18:23:16Z</time></trkpt><trkpt lat="45.349142605544515" lon="9.309579177768844"><ele>91.83333333333334</ele><time>2026-05-01T18:23:17Z</time></trkpt><trkpt lat="45.349250108165805" lon="9.309470943231956"><ele>92.0</ele><time>2026-05-01T18:23:19Z</time></trkpt><trkpt lat="45.34932776375844" lon="9.309365357182331"><ele>92.0</ele><time>2026-05-01T18:23:20Z</time></trkpt><trkpt lat="45.34942547613938" lon="9.309253478141455"><ele>92.0</ele><time>2026-05-01T18:23:21Z</time></trkpt><trkpt lat="45.349534290999266" lon="9.309159121931817"><ele>92.0</ele><time>2026-05-01T18:23:22Z</time></trkpt><trkpt lat="45.34966372573099" lon="9.309047269002331"><ele>92.0</ele><time>2026-05-01T18:23:23Z</time></trkpt><trkpt lat="45.34977014406407" lon="9.308997901064835"><ele>91.0</ele><time>2026-05-01T18:23:24Z</time></trkpt><trkpt lat="45.34990769040005" lon="9.308895058937562"><ele>90.0</ele><time>2026-05-01T18:23:25Z</time></trkpt><trkpt lat="45.35005062925072" lon="9.30878378617653"><ele>89.0</ele><time>2026-05-01T18:23:26Z</time></trkpt><trkpt lat="45.35018813169833" lon="9.308680871679341"><ele>89.0</ele><time>2026-05-01T18:23:27Z</time></trkpt><trkpt lat="45.350318468978074" lon="9.308575362985517"><ele>89.0</ele><time>2026-05-01T18:23:28Z</time></trkpt><trkpt lat="45.35044652336085" lon="9.308494589457087"><ele>89.0</ele><time>2026-05-01T18:23:29Z</time></trkpt><trkpt lat="45.35061865057769" lon="9.30834526888338"><ele>89.33333333333334</ele><time>2026-05-01T18:23:30Z</time></trkpt><trkpt lat="45.350785978513315" lon="9.308150204354295"><ele>89.66666666666667</ele><time>2026-05-01T18:23:31Z</time></trkpt><trkpt lat="45.35096323616694" lon="9.307979502265285"><ele>90.0</ele><time>2026-05-01T18:23:32Z</time></trkpt><trkpt lat="45.351144257703254" lon="9.307780627597435"><ele>90.0</ele><time>2026-05-01T18:23:33Z</time></trkpt><trkpt lat="45.35132056493844" lon="9.307566217318676"><ele>90.0</ele><time>2026-05-01T18:23:34Z</time></trkpt><trkpt lat="45.351501259645154" lon="9.307353073495214"><ele>90.0</ele><time>2026-05-01T18:23:35Z</time></trkpt><trkpt lat="45.35169232079155" lon="9.307137215322905"><ele>90.0</ele><time>2026-05-01T18:23:36Z</time></trkpt><trkpt lat="45.35188395871973" lon="9.306923772670515"><ele>90.0</ele><time>2026-05-01T18:23:37Z</time></trkpt><trkpt lat="45.35207696514527" lon="9.306703221840337"><ele>90.0</ele><time>2026-05-01T18:23:38Z</time></trkpt><trkpt lat="45.35227573867901" lon="9.306476891282077"><ele>90.5</ele><time>2026-05-01T18:23:39Z</time></trkpt><trkpt lat="45.35247232651987" lon="9.306247399629868"><ele>91.0</ele><time>2026-05-01T18:23:40Z</time></trkpt><trkpt lat="45.35267022907789" lon="9.30601269087174"><ele>91.0</ele><time>2026-05-01T18:23:41Z</time></trkpt><trkpt lat="45.35287043903426" lon="9.305782595153142"><ele>91.0</ele><time>2026-05-01T18:23:42Z</time></trkpt><trkpt lat="45.35306662920054" lon="9.30556608245064"><ele>91.0</ele><time>2026-05-01T18:23:43Z</time></trkpt><trkpt lat="45.35325425208463" lon="9.305333154063554"><ele>91.0</ele><time>2026-05-01T18:23:44Z</time></trkpt><trkpt lat="45.353451499688376" lon="9.30510322347514"><ele>91.0</ele><time>2026-05-01T18:23:45Z</time></trkpt><trkpt lat="45.35365347294416" lon="9.304870536738578"><ele>91.0</ele><time>2026-05-01T18:23:46Z</time></trkpt><trkpt lat="45.353847377280964" lon="9.304639017730953"><ele>89.5</ele><time>2026-05-01T18:23:47Z</time></trkpt><trkpt lat="45.35404556145273" lon="9.304408337293765"><ele>88.0</ele><time>2026-05-01T18:23:48Z</time></trkpt><trkpt lat="45.35424373435544" lon="9.304179167967606"><ele>88.0</ele><time>2026-05-01T18:23:49Z</time></trkpt><trkpt lat="45.35444285924887" lon="9.30394583390253"><ele>88.0</ele><time>2026-05-01T18:23:50Z</time></trkpt><trkpt lat="45.35464422771935" lon="9.30371113018773"><ele>89.5</ele><time>2026-05-01T18:23:51Z</time></trkpt><trkpt lat="45.3548358926483" lon="9.303476436761871"><ele>91.0</ele><time>2026-05-01T18:23:52Z</time></trkpt><trkpt lat="45.35503459582208" lon="9.303242116932307"><ele>91.5</ele><time>2026-05-01T18:23:53Z</time></trkpt><trkpt lat="45.35523789158824" lon="9.303006457077293"><ele>92.0</ele><time>2026-05-01T18:23:54Z</time></trkpt><trkpt lat="45.355450795778246" lon="9.302778061208647"><ele>91.5</ele><time>2026-05-01T18:23:55Z</time></trkpt><trkpt lat="45.35564885944349" lon="9.302524335522067"><ele>91.0</ele><time>2026-05-01T18:23:56Z</time></trkpt><trkpt lat="45.355843594681744" lon="9.302295634161508"><ele>91.5</ele><time>2026-05-01T18:23:57Z</time></trkpt><trkpt lat="45.35602599941175" lon="9.302068100440472"><ele>92.0</ele><time>2026-05-01T18:23:58Z</time></trkpt><trkpt lat="45.35624471377502" lon="9.301814340874587"><ele>91.5</ele><time>2026-05-01T18:23:59Z</time></trkpt><trkpt lat="45.356456809889245" lon="9.301573591141223"><ele>91.0</ele><time>2026-05-01T18:24:00Z</time></trkpt><trkpt lat="45.35666287296421" lon="9.301329163626507"><ele>91.0</ele><time>2026-05-01T18:24:01Z</time></trkpt><trkpt lat="45.356868695750116" lon="9.30108587560783"><ele>91.0</ele><time>2026-05-01T18:24:02Z</time></trkpt><trkpt lat="45.35707822974384" lon="9.300839541137258"><ele>91.0</ele><time>2026-05-01T18:24:03Z</time></trkpt><trkpt lat="45.357288683507974" lon="9.300588732481804"><ele>91.0</ele><time>2026-05-01T18:24:04Z</time></trkpt><trkpt lat="45.35749890981118" lon="9.300339340171726"><ele>92.5</ele><time>2026-05-01T18:24:05Z</time></trkpt><trkpt lat="45.35771443668924" lon="9.300090236499587"><ele>94.0</ele><time>2026-05-01T18:24:06Z</time></trkpt><trkpt lat="45.35792707060489" lon="9.299834858839073"><ele>94.0</ele><time>2026-05-01T18:24:07Z</time></trkpt><trkpt lat="45.35814942584915" lon="9.299586713498359"><ele>94.0</ele><time>2026-05-01T18:24:08Z</time></trkpt><trkpt lat="45.35835792463127" lon="9.299327882865374"><ele>94.0</ele><time>2026-05-01T18:24:09Z</time></trkpt><trkpt lat="45.35856830517894" lon="9.299075369245015"><ele>94.0</ele><time>2026-05-01T18:24:10Z</time></trkpt><trkpt lat="45.35878402126041" lon="9.298830807065288"><ele>92.5</ele><time>2026-05-01T18:24:11Z</time></trkpt><trkpt lat="45.35899639210035" lon="9.298575475621467"><ele>91.0</ele><time>2026-05-01T18:24:12Z</time></trkpt><trkpt lat="45.359212770049226" lon="9.29832038662277"><ele>91.0</ele><time>2026-05-01T18:24:13Z</time></trkpt><trkpt lat="45.35943233688497" lon="9.298068071907778"><ele>91.0</ele><time>2026-05-01T18:24:14Z</time></trkpt><trkpt lat="45.35965322870391" lon="9.297817125885881"><ele>91.0</ele><time>2026-05-01T18:24:15Z</time></trkpt><trkpt lat="45.3598718041032" lon="9.297574448506179"><ele>91.0</ele><time>2026-05-01T18:24:16Z</time></trkpt><trkpt lat="45.36008974158793" lon="9.297323850204636"><ele>90.5</ele><time>2026-05-01T18:24:17Z</time></trkpt><trkpt lat="45.36031105149643" lon="9.297077080115745"><ele>90.0</ele><time>2026-05-01T18:24:18Z</time></trkpt><trkpt lat="45.36052679460607" lon="9.296828389511276"><ele>90.5</ele><time>2026-05-01T18:24:19Z</time></trkpt><trkpt lat="45.36074754506476" lon="9.296581858160184"><ele>91.0</ele><time>2026-05-01T18:24:19.999Z</time></trkpt><trkpt lat="45.36096475801391" lon="9.29634077109115"><ele>91.0</ele><time>2026-05-01T18:24:20.999Z</time></trkpt><trkpt lat="45.36117508133608" lon="9.296099460277672"><ele>91.0</ele><time>2026-05-01T18:24:21.999Z</time></trkpt><trkpt lat="45.36138438250326" lon="9.295862715129108"><ele>91.0</ele><time>2026-05-01T18:24:22.999Z</time></trkpt><trkpt lat="45.36158771485414" lon="9.295626984135303"><ele>91.0</ele><time>2026-05-01T18:24:23.999Z</time></trkpt><trkpt lat="45.36178632770381" lon="9.295401474951053"><ele>91.0</ele><time>2026-05-01T18:24:24.999Z</time></trkpt><trkpt lat="45.361977692645446" lon="9.29517222934086"><ele>91.0</ele><time>2026-05-01T18:24:25.999Z</time></trkpt><trkpt lat="45.362161465575596" lon="9.294951729360434"><ele>91.0</ele><time>2026-05-01T18:24:26.999Z</time></trkpt><trkpt lat="45.36235153117235" lon="9.294736158277281"><ele>91.0</ele><time>2026-05-01T18:24:27.999Z</time></trkpt><trkpt lat="45.362535677366346" lon="9.294529389078134"><ele>91.0</ele><time>2026-05-01T18:24:28.999Z</time></trkpt><trkpt lat="45.36271094623309" lon="9.294319533557529"><ele>91.0</ele><time>2026-05-01T18:24:29.999Z</time></trkpt><trkpt lat="45.36288774314414" lon="9.294108631167532"><ele>91.5</ele><time>2026-05-01T18:24:30.999Z</time></trkpt><trkpt lat="45.363069695934534" lon="9.293898761131947"><ele>92.0</ele><time>2026-05-01T18:24:31.999Z</time></trkpt><trkpt lat="45.363244540132904" lon="9.293691293230314"><ele>92.0</ele><time>2026-05-01T18:24:32.999Z</time></trkpt><trkpt lat="45.36342192871932" lon="9.293482832980445"><ele>92.0</ele><time>2026-05-01T18:24:33.999Z</time></trkpt><trkpt lat="45.36359785149739" lon="9.293276185064204"><ele>92.0</ele><time>2026-05-01T18:24:34.999Z</time></trkpt><trkpt lat="45.36377376014232" lon="9.293072932070302"><ele>92.0</ele><time>2026-05-01T18:24:35.999Z</time></trkpt><trkpt lat="45.363955380440544" lon="9.292850028808429"><ele>91.5</ele><time>2026-05-01T18:24:36.999Z</time></trkpt><trkpt lat="45.364134836843526" lon="9.292652240046003"><ele>91.0</ele><time>2026-05-01T18:24:37.999Z</time></trkpt><trkpt lat="45.36431734461667" lon="9.292435980195371"><ele>91.0</ele><time>2026-05-01T18:24:38.999Z</time></trkpt><trkpt lat="45.364506415888094" lon="9.292210934273257"><ele>91.0</ele><time>2026-05-01T18:24:39.999Z</time></trkpt><trkpt lat="45.36469888338248" lon="9.291982354923297"><ele>91.0</ele><time>2026-05-01T18:24:40.999Z</time></trkpt><trkpt lat="45.364892756428745" lon="9.291756163021496"><ele>91.0</ele><time>2026-05-01T18:24:41.999Z</time></trkpt><trkpt lat="45.36508750813334" lon="9.291528397637098"><ele>92.0</ele><time>2026-05-01T18:24:42.999Z</time></trkpt><trkpt lat="45.36528523015857" lon="9.291295891554089"><ele>93.0</ele><time>2026-05-01T18:24:43.999Z</time></trkpt><trkpt lat="45.36548479306255" lon="9.291064330886519"><ele>92.5</ele><time>2026-05-01T18:24:44.999Z</time></trkpt><trkpt lat="45.36568222982749" lon="9.290830816502112"><ele>92.0</ele><time>2026-05-01T18:24:45.999Z</time></trkpt><trkpt lat="45.365884745305735" lon="9.290595946266519"><ele>92.5</ele><time>2026-05-01T18:24:46.999Z</time></trkpt><trkpt lat="45.36608878264819" lon="9.290363853716698"><ele>93.0</ele><time>2026-05-01T18:24:47.999Z</time></trkpt><trkpt lat="45.36628383791898" lon="9.290128901732826"><ele>92.5</ele><time>2026-05-01T18:24:48.999Z</time></trkpt><trkpt lat="45.36647626324675" lon="9.289884977722936"><ele>92.0</ele><time>2026-05-01T18:24:49.999Z</time></trkpt><trkpt lat="45.36667905628016" lon="9.289649364056466"><ele>92.0</ele><time>2026-05-01T18:24:50.999Z</time></trkpt><trkpt lat="45.3668830577062" lon="9.28941619577237"><ele>92.0</ele><time>2026-05-01T18:24:51.999Z</time></trkpt><trkpt lat="45.367082863765425" lon="9.289183898212274"><ele>92.0</ele><time>2026-05-01T18:24:52.999Z</time></trkpt><trkpt lat="45.367284214666476" lon="9.288945446291509"><ele>92.0</ele><time>2026-05-01T18:24:53.999Z</time></trkpt><trkpt lat="45.367485752764416" lon="9.288708219549234"><ele>92.0</ele><time>2026-05-01T18:24:54.999Z</time></trkpt><trkpt lat="45.36768726163586" lon="9.288473501667275"><ele>92.0</ele><time>2026-05-01T18:24:55.999Z</time></trkpt><trkpt lat="45.3678867058896" lon="9.288236781290594"><ele>92.5</ele><time>2026-05-01T18:24:56.999Z</time></trkpt><trkpt lat="45.36808022742896" lon="9.288004782530114"><ele>93.0</ele><time>2026-05-01T18:24:57.999Z</time></trkpt><trkpt lat="45.36827943721247" lon="9.287766685872866"><ele>93.0</ele><time>2026-05-01T18:24:58.999Z</time></trkpt><trkpt lat="45.368482304018535" lon="9.28753680475513"><ele>93.0</ele><time>2026-05-01T18:24:59.999Z</time></trkpt><trkpt lat="45.36868269500904" lon="9.287307569100413"><ele>93.0</ele><time>2026-05-01T18:25:00.999Z</time></trkpt><trkpt lat="45.36887874025517" lon="9.28707763805452"><ele>93.0</ele><time>2026-05-01T18:25:01.999Z</time></trkpt><trkpt lat="45.36907405728139" lon="9.28684518435555"><ele>93.0</ele><time>2026-05-01T18:25:02.999Z</time></trkpt><trkpt lat="45.36926904655389" lon="9.286622854374754"><ele>93.0</ele><time>2026-05-01T18:25:03.999Z</time></trkpt><trkpt lat="45.369465913829146" lon="9.28637796065676"><ele>93.0</ele><time>2026-05-01T18:25:05Z</time></trkpt><trkpt lat="45.36966231682485" lon="9.286155955177104"><ele>93.0</ele><time>2026-05-01T18:25:06Z</time></trkpt><trkpt lat="45.36985692803012" lon="9.285922134680465"><ele>93.0</ele><time>2026-05-01T18:25:07Z</time></trkpt><trkpt lat="45.37005745305254" lon="9.285695164579701"><ele>93.0</ele><time>2026-05-01T18:25:08Z</time></trkpt><trkpt lat="45.37025375849988" lon="9.285461527359253"><ele>93.0</ele><time>2026-05-01T18:25:09Z</time></trkpt><trkpt lat="45.370451221091045" lon="9.285231789879854"><ele>93.0</ele><time>2026-05-01T18:25:10Z</time></trkpt><trkpt lat="45.370648315895195" lon="9.285004662353574"><ele>93.0</ele><time>2026-05-01T18:25:11Z</time></trkpt><trkpt lat="45.37084666747503" lon="9.284771468312483"><ele>93.0</ele><time>2026-05-01T18:25:12Z</time></trkpt><trkpt lat="45.37104319918588" lon="9.28454085877554"><ele>93.0</ele><time>2026-05-01T18:25:13Z</time></trkpt><trkpt lat="45.371240895262424" lon="9.284310734992037"><ele>93.0</ele><time>2026-05-01T18:25:14Z</time></trkpt><trkpt lat="45.37143498310333" lon="9.284082078102516"><ele>93.5</ele><time>2026-05-01T18:25:15Z</time></trkpt><trkpt lat="45.37162797610777" lon="9.283853519294034"><ele>94.0</ele><time>2026-05-01T18:25:16Z</time></trkpt><trkpt lat="45.371820427858225" lon="9.28362526339303"><ele>94.0</ele><time>2026-05-01T18:25:17Z</time></trkpt><trkpt lat="45.37201423364322" lon="9.283401582394465"><ele>94.0</ele><time>2026-05-01T18:25:18Z</time></trkpt><trkpt lat="45.37220746056174" lon="9.28317274777804"><ele>93.5</ele><time>2026-05-01T18:25:19Z</time></trkpt><trkpt lat="45.37240242996071" lon="9.282941991068899"><ele>93.0</ele><time>2026-05-01T18:25:20Z</time></trkpt><trkpt lat="45.372599986350714" lon="9.282713704774183"><ele>93.0</ele><time>2026-05-01T18:25:21Z</time></trkpt><trkpt lat="45.372794392178875" lon="9.282481751172798"><ele>93.0</ele><time>2026-05-01T18:25:22Z</time></trkpt><trkpt lat="45.372990071093355" lon="9.282245850779098"><ele>93.0</ele><time>2026-05-01T18:25:23Z</time></trkpt><trkpt lat="45.37318984315465" lon="9.282010805875835"><ele>93.0</ele><time>2026-05-01T18:25:24Z</time></trkpt><trkpt lat="45.37338668423701" lon="9.281780609003595"><ele>93.0</ele><time>2026-05-01T18:25:25Z</time></trkpt><trkpt lat="45.373583111468015" lon="9.281556429091207"><ele>93.0</ele><time>2026-05-01T18:25:26Z</time></trkpt><trkpt lat="45.37377598744052" lon="9.281321109294224"><ele>93.0</ele><time>2026-05-01T18:25:27Z</time></trkpt><trkpt lat="45.373969836606285" lon="9.281095746847186"><ele>93.0</ele><time>2026-05-01T18:25:28Z</time></trkpt><trkpt lat="45.3741648404828" lon="9.280868137324306"><ele>93.0</ele><time>2026-05-01T18:25:29Z</time></trkpt><trkpt lat="45.37435933396801" lon="9.280642090629744"><ele>93.0</ele><time>2026-05-01T18:25:30Z</time></trkpt><trkpt lat="45.37455367884416" lon="9.280418376375074"><ele>93.5</ele><time>2026-05-01T18:25:31Z</time></trkpt><trkpt lat="45.37474591127541" lon="9.280191054999824"><ele>94.0</ele><time>2026-05-01T18:25:32Z</time></trkpt><trkpt lat="45.374937926432125" lon="9.279964708596323"><ele>94.5</ele><time>2026-05-01T18:25:33Z</time></trkpt><trkpt lat="45.37512941158123" lon="9.279735487825137"><ele>95.0</ele><time>2026-05-01T18:25:34Z</time></trkpt><trkpt lat="45.37532213358471" lon="9.279509553596748"><ele>95.0</ele><time>2026-05-01T18:25:35Z</time></trkpt><trkpt lat="45.37551268654019" lon="9.27928359409361"><ele>95.0</ele><time>2026-05-01T18:25:36Z</time></trkpt><trkpt lat="45.37570480792565" lon="9.27905827379608"><ele>94.5</ele><time>2026-05-01T18:25:37Z</time></trkpt><trkpt lat="45.37589774143327" lon="9.278830911399044"><ele>94.0</ele><time>2026-05-01T18:25:38Z</time></trkpt><trkpt lat="45.37609312856061" lon="9.278601576707906"><ele>94.0</ele><time>2026-05-01T18:25:39Z</time></trkpt><trkpt lat="45.37628596064392" lon="9.278378032462973"><ele>94.0</ele><time>2026-05-01T18:25:40Z</time></trkpt><trkpt lat="45.37647815843793" lon="9.27815239533239"><ele>95.0</ele><time>2026-05-01T18:25:41Z</time></trkpt><trkpt lat="45.37667114996988" lon="9.277927361302305"><ele>96.0</ele><time>2026-05-01T18:25:42Z</time></trkpt><trkpt lat="45.376861051693176" lon="9.277700101656025"><ele>96.0</ele><time>2026-05-01T18:25:43Z</time></trkpt><trkpt lat="45.377052656373685" lon="9.27747697871461"><ele>96.0</ele><time>2026-05-01T18:25:44Z</time></trkpt><trkpt lat="45.37724392846353" lon="9.277255209522728"><ele>96.0</ele><time>2026-05-01T18:25:45Z</time></trkpt><trkpt lat="45.377433462409314" lon="9.27703706241599"><ele>96.0</ele><time>2026-05-01T18:25:46Z</time></trkpt><trkpt lat="45.377622207977026" lon="9.276816506069375"><ele>96.0</ele><time>2026-05-01T18:25:47Z</time></trkpt><trkpt lat="45.3778103672839" lon="9.276598914775706"><ele>96.0</ele><time>2026-05-01T18:25:48Z</time></trkpt><trkpt lat="45.37799777708219" lon="9.276379177560544"><ele>96.0</ele><time>2026-05-01T18:25:49Z</time></trkpt><trkpt lat="45.378186824085525" lon="9.276159285132868"><ele>96.0</ele><time>2026-05-01T18:25:50Z</time></trkpt><trkpt lat="45.37837289496158" lon="9.27594073663285"><ele>96.0</ele><time>2026-05-01T18:25:51Z</time></trkpt><trkpt lat="45.37856192097452" lon="9.275715607597457"><ele>96.0</ele><time>2026-05-01T18:25:52Z</time></trkpt><trkpt lat="45.37875471559665" lon="9.275493820452265"><ele>95.5</ele><time>2026-05-01T18:25:53Z</time></trkpt><trkpt lat="45.3789473130565" lon="9.275273940115154"><ele>95.0</ele><time>2026-05-01T18:25:54Z</time></trkpt><trkpt lat="45.379144515341004" lon="9.275057267353906"><ele>95.0</ele><time>2026-05-01T18:25:55Z</time></trkpt><trkpt lat="45.37933239713461" lon="9.274833337703503"><ele>95.0</ele><time>2026-05-01T18:25:56Z</time></trkpt><trkpt lat="45.37952132717746" lon="9.274596914371179"><ele>94.5</ele><time>2026-05-01T18:25:57Z</time></trkpt><trkpt lat="45.37971383732764" lon="9.274372764719772"><ele>94.0</ele><time>2026-05-01T18:25:58Z</time></trkpt><trkpt lat="45.37990479431789" lon="9.274148149295412"><ele>95.5</ele><time>2026-05-01T18:25:59Z</time></trkpt><trkpt lat="45.38009725981492" lon="9.27392171889083"><ele>97.0</ele><time>2026-05-01T18:26:00Z</time></trkpt><trkpt lat="45.380291017890556" lon="9.273697915060314"><ele>97.0</ele><time>2026-05-01T18:26:01Z</time></trkpt><trkpt lat="45.38048249474316" lon="9.273472859567184"><ele>97.0</ele><time>2026-05-01T18:26:02Z</time></trkpt><trkpt lat="45.380676209621626" lon="9.273245045225393"><ele>96.5</ele><time>2026-05-01T18:26:03Z</time></trkpt><trkpt lat="45.38086892784151" lon="9.273020664769563"><ele>96.0</ele><time>2026-05-01T18:26:04Z</time></trkpt><trkpt lat="45.381061925797916" lon="9.272795079175065"><ele>96.0</ele><time>2026-05-01T18:26:05Z</time></trkpt><trkpt lat="45.3812544352629" lon="9.272569538231188"><ele>96.0</ele><time>2026-05-01T18:26:06Z</time></trkpt><trkpt lat="45.38144612563706" lon="9.27234403665237"><ele>96.0</ele><time>2026-05-01T18:26:07Z</time></trkpt><trkpt lat="45.38163894757277" lon="9.272117946756442"><ele>96.0</ele><time>2026-05-01T18:26:08Z</time></trkpt><trkpt lat="45.38183024738852" lon="9.271893533053918"><ele>96.0</ele><time>2026-05-01T18:26:09Z</time></trkpt><trkpt lat="45.382026377521434" lon="9.271670515347614"><ele>96.0</ele><time>2026-05-01T18:26:10Z</time></trkpt><trkpt lat="45.382220089863516" lon="9.271447104429745"><ele>95.0</ele><time>2026-05-01T18:26:11Z</time></trkpt><trkpt lat="45.382412914194425" lon="9.271221325592714"><ele>94.0</ele><time>2026-05-01T18:26:12Z</time></trkpt><trkpt lat="45.38260207808314" lon="9.270998097907334"><ele>94.0</ele><time>2026-05-01T18:26:13Z</time></trkpt><trkpt lat="45.3827918069546" lon="9.270774133514694"><ele>94.0</ele><time>2026-05-01T18:26:14Z</time></trkpt><trkpt lat="45.38298087841212" lon="9.27055165762373"><ele>95.5</ele><time>2026-05-01T18:26:15Z</time></trkpt><trkpt lat="45.38317086378153" lon="9.27033071777985"><ele>97.0</ele><time>2026-05-01T18:26:16Z</time></trkpt><trkpt lat="45.38335969938852" lon="9.270109292285081"><ele>97.0</ele><time>2026-05-01T18:26:17Z</time></trkpt><trkpt lat="45.383548389655495" lon="9.269888171791512"><ele>97.0</ele><time>2026-05-01T18:26:18Z</time></trkpt><trkpt lat="45.38373612603256" lon="9.269663279788787"><ele>97.5</ele><time>2026-05-01T18:26:18.999Z</time></trkpt><trkpt lat="45.383920292672045" lon="9.269445249270552"><ele>98.0</ele><time>2026-05-01T18:26:19.999Z</time></trkpt><trkpt lat="45.384105942593415" lon="9.269226205048243"><ele>98.0</ele><time>2026-05-01T18:26:20.999Z</time></trkpt><trkpt lat="45.38429774712287" lon="9.26899803434922"><ele>98.0</ele><time>2026-05-01T18:26:21.999Z</time></trkpt><trkpt lat="45.384484599701665" lon="9.268785510893375"><ele>98.0</ele><time>2026-05-01T18:26:22.999Z</time></trkpt><trkpt lat="45.38467848772355" lon="9.268568036384552"><ele>98.0</ele><time>2026-05-01T18:26:23.999Z</time></trkpt><trkpt lat="45.38486544221545" lon="9.26835056420525"><ele>97.5</ele><time>2026-05-01T18:26:24.999Z</time></trkpt><trkpt lat="45.38504805496139" lon="9.268129813001076"><ele>97.0</ele><time>2026-05-01T18:26:25.999Z</time></trkpt><trkpt lat="45.38523534286243" lon="9.267905670265765"><ele>97.0</ele><time>2026-05-01T18:26:26.999Z</time></trkpt><trkpt lat="45.38542447644024" lon="9.267682488668969"><ele>97.0</ele><time>2026-05-01T18:26:27.999Z</time></trkpt><trkpt lat="45.385612949134966" lon="9.267457409174972"><ele>97.0</ele><time>2026-05-01T18:26:28.999Z</time></trkpt><trkpt lat="45.38580261261322" lon="9.26723102102414"><ele>97.0</ele><time>2026-05-01T18:26:29.999Z</time></trkpt><trkpt lat="45.38599364998997" lon="9.267004385287514"><ele>97.0</ele><time>2026-05-01T18:26:30.999Z</time></trkpt><trkpt lat="45.386184072311565" lon="9.266778234627992"><ele>97.0</ele><time>2026-05-01T18:26:31.999Z</time></trkpt><trkpt lat="45.386374100495" lon="9.266549692641956"><ele>97.0</ele><time>2026-05-01T18:26:32.999Z</time></trkpt><trkpt lat="45.386562338310185" lon="9.266320913314562"><ele>97.0</ele><time>2026-05-01T18:26:33.999Z</time></trkpt><trkpt lat="45.38675039964638" lon="9.266095907755501"><ele>97.0</ele><time>2026-05-01T18:26:34.999Z</time></trkpt><trkpt lat="45.38693792770534" lon="9.265867968067912"><ele>97.0</ele><time>2026-05-01T18:26:35.999Z</time></trkpt><trkpt lat="45.38712734127539" lon="9.265642386856692"><ele>97.5</ele><time>2026-05-01T18:26:36.999Z</time></trkpt><trkpt lat="45.38732210571556" lon="9.265417576915924"><ele>98.0</ele><time>2026-05-01T18:26:37.999Z</time></trkpt><trkpt lat="45.387512524434406" lon="9.265189024542973"><ele>98.0</ele><time>2026-05-01T18:26:38.999Z</time></trkpt><trkpt lat="45.38770365103531" lon="9.264961459598155"><ele>98.0</ele><time>2026-05-01T18:26:39.999Z</time></trkpt><trkpt lat="45.387892193081996" lon="9.264730911958566"><ele>96.5</ele><time>2026-05-01T18:26:40.999Z</time></trkpt><trkpt lat="45.38808291289335" lon="9.264501867268505"><ele>95.0</ele><time>2026-05-01T18:26:41.999Z</time></trkpt><trkpt lat="45.38827408246529" lon="9.264274216216153"><ele>95.0</ele><time>2026-05-01T18:26:42.999Z</time></trkpt><trkpt lat="45.388464866675676" lon="9.264051774960482"><ele>95.0</ele><time>2026-05-01T18:26:43.999Z</time></trkpt><trkpt lat="45.38865856294143" lon="9.2638299592225"><ele>95.5</ele><time>2026-05-01T18:26:44.999Z</time></trkpt><trkpt lat="45.38885270634322" lon="9.263605093423484"><ele>96.0</ele><time>2026-05-01T18:26:45.999Z</time></trkpt><trkpt lat="45.38904761786174" lon="9.263387526846232"><ele>96.0</ele><time>2026-05-01T18:26:46.999Z</time></trkpt><trkpt lat="45.38924960650199" lon="9.263178900292372"><ele>96.0</ele><time>2026-05-01T18:26:47.999Z</time></trkpt><trkpt lat="45.389457709853886" lon="9.262977325398921"><ele>96.0</ele><time>2026-05-01T18:26:48.999Z</time></trkpt><trkpt lat="45.38967013994986" lon="9.26277876513085"><ele>96.0</ele><time>2026-05-01T18:26:49.999Z</time></trkpt><trkpt lat="45.389888031133694" lon="9.262588833528012"><ele>96.0</ele><time>2026-05-01T18:26:50.999Z</time></trkpt><trkpt lat="45.39011008435044" lon="9.262403475116512"><ele>96.0</ele><time>2026-05-01T18:26:51.999Z</time></trkpt><trkpt lat="45.390338043339" lon="9.262222537543481"><ele>97.5</ele><time>2026-05-01T18:26:52.999Z</time></trkpt><trkpt lat="45.390572539147975" lon="9.262049299900156"><ele>99.0</ele><time>2026-05-01T18:26:53.999Z</time></trkpt><trkpt lat="45.39080862706595" lon="9.261883663501155"><ele>99.0</ele><time>2026-05-01T18:26:54.999Z</time></trkpt><trkpt lat="45.39105001137918" lon="9.261727716324762"><ele>99.0</ele><time>2026-05-01T18:26:55.999Z</time></trkpt><trkpt lat="45.39129199813023" lon="9.261579996641352"><ele>99.0</ele><time>2026-05-01T18:26:56.999Z</time></trkpt><trkpt lat="45.39153866509144" lon="9.261449173366552"><ele>99.0</ele><time>2026-05-01T18:26:57.999Z</time></trkpt><trkpt lat="45.39178791852136" lon="9.261324481780749"><ele>98.5</ele><time>2026-05-01T18:26:58.999Z</time></trkpt><trkpt lat="45.392040398510154" lon="9.261203776160933"><ele>98.0</ele><time>2026-05-01T18:26:59.999Z</time></trkpt><trkpt lat="45.392294627365125" lon="9.261089656354397"><ele>99.5</ele><time>2026-05-01T18:27:00.999Z</time></trkpt><trkpt lat="45.39255141230316" lon="9.260985235075195"><ele>101.0</ele><time>2026-05-01T18:27:01.999Z</time></trkpt><trkpt lat="45.39281159813003" lon="9.260900956907662"><ele>101.0</ele><time>2026-05-01T18:27:02.999Z</time></trkpt><trkpt lat="45.39306667685582" lon="9.260814036057498"><ele>101.0</ele><time>2026-05-01T18:27:03.999Z</time></trkpt><trkpt lat="45.39332281040907" lon="9.260729871179004"><ele>101.0</ele><time>2026-05-01T18:27:04.999Z</time></trkpt><trkpt lat="45.39357611502266" lon="9.2606572857752"><ele>101.0</ele><time>2026-05-01T18:27:05.999Z</time></trkpt><trkpt lat="45.39383170112239" lon="9.260602662656542"><ele>101.5</ele><time>2026-05-01T18:27:06.999Z</time></trkpt><trkpt lat="45.39408689408633" lon="9.260574499354211"><ele>102.0</ele><time>2026-05-01T18:27:07.999Z</time></trkpt><trkpt lat="45.39434583593018" lon="9.26057904289546"><ele>102.0</ele><time>2026-05-01T18:27:08.999Z</time></trkpt><trkpt lat="45.394604784781535" lon="9.260578185748907"><ele>102.0</ele><time>2026-05-01T18:27:09.999Z</time></trkpt><trkpt lat="45.39484977827453" lon="9.260479833568958"><ele>101.0</ele><time>2026-05-01T18:27:11Z</time></trkpt><trkpt lat="45.395093448929806" lon="9.260455757411593"><ele>100.0</ele><time>2026-05-01T18:27:12Z</time></trkpt><trkpt lat="45.39534712839639" lon="9.260440904280902"><ele>100.0</ele><time>2026-05-01T18:27:13Z</time></trkpt><trkpt lat="45.395598388160884" lon="9.260437719518187"><ele>100.0</ele><time>2026-05-01T18:27:14Z</time></trkpt><trkpt lat="45.39585354506082" lon="9.260444868708186"><ele>100.0</ele><time>2026-05-01T18:27:15Z</time></trkpt><trkpt lat="45.39610631895013" lon="9.260461660155185"><ele>100.0</ele><time>2026-05-01T18:27:16Z</time></trkpt><trkpt lat="45.39636087297887" lon="9.260486034651453"><ele>100.0</ele><time>2026-05-01T18:27:17Z</time></trkpt><trkpt lat="45.39661790656579" lon="9.260514169120315"><ele>100.0</ele><time>2026-05-01T18:27:18Z</time></trkpt><trkpt lat="45.39687105612174" lon="9.260540916950387"><ele>100.0</ele><time>2026-05-01T18:27:19Z</time></trkpt><trkpt lat="45.39712607165022" lon="9.260569086748026"><ele>100.0</ele><time>2026-05-01T18:27:20Z</time></trkpt><trkpt lat="45.39738090137669" lon="9.260603437663171"><ele>100.0</ele><time>2026-05-01T18:27:21Z</time></trkpt><trkpt lat="45.39763613200195" lon="9.260636283194502"><ele>100.0</ele><time>2026-05-01T18:27:22Z</time></trkpt><trkpt lat="45.39788637318953" lon="9.260667191058914"><ele>100.5</ele><time>2026-05-01T18:27:23Z</time></trkpt><trkpt lat="45.39814008208388" lon="9.260694372490063"><ele>101.0</ele><time>2026-05-01T18:27:24Z</time></trkpt><trkpt lat="45.398391027677114" lon="9.260718391060632"><ele>101.0</ele><time>2026-05-01T18:27:25Z</time></trkpt><trkpt lat="45.398633314905084" lon="9.260743582360236"><ele>101.0</ele><time>2026-05-01T18:27:26Z</time></trkpt><trkpt lat="45.398873442111785" lon="9.260769922758906"><ele>101.0</ele><time>2026-05-01T18:27:27Z</time></trkpt><trkpt lat="45.39911980397542" lon="9.26079658154487"><ele>101.0</ele><time>2026-05-01T18:27:28Z</time></trkpt><trkpt lat="45.3993639488177" lon="9.26082009678231"><ele>101.0</ele><time>2026-05-01T18:27:29Z</time></trkpt><trkpt lat="45.399612540824464" lon="9.260843655964518"><ele>101.0</ele><time>2026-05-01T18:27:30Z</time></trkpt><trkpt lat="45.39986091201937" lon="9.260867601218063"><ele>99.5</ele><time>2026-05-01T18:27:31Z</time></trkpt><trkpt lat="45.40011188243358" lon="9.26089035451172"><ele>98.0</ele><time>2026-05-01T18:27:32Z</time></trkpt><trkpt lat="45.40036335441082" lon="9.260915907054029"><ele>98.0</ele><time>2026-05-01T18:27:33Z</time></trkpt><trkpt lat="45.40061565319036" lon="9.260945714852404"><ele>98.0</ele><time>2026-05-01T18:27:34Z</time></trkpt><trkpt lat="45.40086892276594" lon="9.260976766883942"><ele>98.0</ele><time>2026-05-01T18:27:35Z</time></trkpt><trkpt lat="45.40112275877844" lon="9.261008715321665"><ele>98.0</ele><time>2026-05-01T18:27:36Z</time></trkpt><trkpt lat="45.40137645175375" lon="9.261040801793651"><ele>98.5</ele><time>2026-05-01T18:27:37Z</time></trkpt><trkpt lat="45.40162958560818" lon="9.261072568783167"><ele>99.0</ele><time>2026-05-01T18:27:38Z</time></trkpt><trkpt lat="45.401884204282815" lon="9.26110158881991"><ele>99.0</ele><time>2026-05-01T18:27:39Z</time></trkpt><trkpt lat="45.40213714328277" lon="9.261125910546538"><ele>99.0</ele><time>2026-05-01T18:27:40Z</time></trkpt><trkpt lat="45.40239463062045" lon="9.261151120602397"><ele>99.0</ele><time>2026-05-01T18:27:41Z</time></trkpt><trkpt lat="45.402650724695455" lon="9.261175213807237"><ele>99.0</ele><time>2026-05-01T18:27:42Z</time></trkpt><trkpt lat="45.40290675563937" lon="9.2611997384664"><ele>99.5</ele><time>2026-05-01T18:27:43Z</time></trkpt><trkpt lat="45.4031584244777" lon="9.26122688932027"><ele>100.0</ele><time>2026-05-01T18:27:44Z</time></trkpt><trkpt lat="45.403409033531155" lon="9.261246489587865"><ele>100.0</ele><time>2026-05-01T18:27:45Z</time></trkpt><trkpt lat="45.403655692144795" lon="9.261271577460073"><ele>100.0</ele><time>2026-05-01T18:27:46Z</time></trkpt><trkpt lat="45.40390177118881" lon="9.261310476391705"><ele>99.5</ele><time>2026-05-01T18:27:47Z</time></trkpt><trkpt lat="45.40414141227479" lon="9.261338862659347"><ele>99.0</ele><time>2026-05-01T18:27:48Z</time></trkpt><trkpt lat="45.404377158173865" lon="9.261369496707216"><ele>99.0</ele><time>2026-05-01T18:27:49Z</time></trkpt><trkpt lat="45.404608450932585" lon="9.261395186655696"><ele>99.0</ele><time>2026-05-01T18:27:50Z</time></trkpt><trkpt lat="45.40483970360959" lon="9.261420442705992"><ele>99.0</ele><time>2026-05-01T18:27:51Z</time></trkpt><trkpt lat="45.405064245614014" lon="9.261447732527007"><ele>99.0</ele><time>2026-05-01T18:27:52Z</time></trkpt><trkpt lat="45.405290505848804" lon="9.261467376705989"><ele>99.0</ele><time>2026-05-01T18:27:53Z</time></trkpt><trkpt lat="45.40551332150906" lon="9.261484653698963"><ele>99.0</ele><time>2026-05-01T18:27:54Z</time></trkpt><trkpt lat="45.40573381740036" lon="9.261489814096297"><ele>99.0</ele><time>2026-05-01T18:27:55Z</time></trkpt><trkpt lat="45.40595749074787" lon="9.26148436288928"><ele>99.0</ele><time>2026-05-01T18:27:56Z</time></trkpt><trkpt lat="45.40618127613102" lon="9.26146111842469"><ele>99.0</ele><time>2026-05-01T18:27:57Z</time></trkpt><trkpt lat="45.40641271734955" lon="9.261429001343123"><ele>99.0</ele><time>2026-05-01T18:27:58Z</time></trkpt><trkpt lat="45.406639172760165" lon="9.261379847603985"><ele>99.0</ele><time>2026-05-01T18:27:59Z</time></trkpt><trkpt lat="45.406862562976166" lon="9.26131345468099"><ele>99.0</ele><time>2026-05-01T18:28:00Z</time></trkpt><trkpt lat="45.407089794169075" lon="9.261235844848347"><ele>99.0</ele><time>2026-05-01T18:28:01Z</time></trkpt><trkpt lat="45.407307490961045" lon="9.261131484589194"><ele>98.5</ele><time>2026-05-01T18:28:02Z</time></trkpt><trkpt lat="45.407524812911255" lon="9.261009645616411"><ele>98.0</ele><time>2026-05-01T18:28:03Z</time></trkpt><trkpt lat="45.40774384684252" lon="9.260880111736563"><ele>98.0</ele><time>2026-05-01T18:28:04Z</time></trkpt><trkpt lat="45.407961644707974" lon="9.260746566009983"><ele>98.0</ele><time>2026-05-01T18:28:05Z</time></trkpt><trkpt lat="45.40817454517551" lon="9.260595975824241"><ele>98.0</ele><time>2026-05-01T18:28:06Z</time></trkpt><trkpt lat="45.40837572817468" lon="9.260431572901423"><ele>98.0</ele><time>2026-05-01T18:28:07Z</time></trkpt><trkpt lat="45.40857188836619" lon="9.260251927028309"><ele>98.0</ele><time>2026-05-01T18:28:08Z</time></trkpt><trkpt lat="45.40875966407208" lon="9.260056452970021"><ele>98.0</ele><time>2026-05-01T18:28:09Z</time></trkpt><trkpt lat="45.40894254681768" lon="9.259845671663657"><ele>98.0</ele><time>2026-05-01T18:28:10Z</time></trkpt><trkpt lat="45.40912397822946" lon="9.259619196537502"><ele>98.0</ele><time>2026-05-01T18:28:11Z</time></trkpt><trkpt lat="45.40930425831181" lon="9.259390488250183"><ele>98.0</ele><time>2026-05-01T18:28:11.999Z</time></trkpt><trkpt lat="45.409485566794224" lon="9.25915773971763"><ele>98.0</ele><time>2026-05-01T18:28:12.999Z</time></trkpt><trkpt lat="45.409667185473445" lon="9.258924300672309"><ele>100.0</ele><time>2026-05-01T18:28:13.999Z</time></trkpt><trkpt lat="45.409850102300446" lon="9.258690545032742"><ele>102.0</ele><time>2026-05-01T18:28:14.999Z</time></trkpt><trkpt lat="45.410032338562935" lon="9.258454130792002"><ele>102.0</ele><time>2026-05-01T18:28:15.999Z</time></trkpt><trkpt lat="45.41021868443206" lon="9.258223700206942"><ele>102.0</ele><time>2026-05-01T18:28:16.999Z</time></trkpt><trkpt lat="45.41040501118585" lon="9.257987311066787"><ele>102.0</ele><time>2026-05-01T18:28:17.999Z</time></trkpt><trkpt lat="45.4105933303804" lon="9.257752508586936"><ele>102.0</ele><time>2026-05-01T18:28:18.999Z</time></trkpt><trkpt lat="45.41078175248754" lon="9.257511299395695"><ele>100.5</ele><time>2026-05-01T18:28:19.999Z</time></trkpt><trkpt lat="45.410971653426124" lon="9.257271416685787"><ele>99.0</ele><time>2026-05-01T18:28:20.999Z</time></trkpt><trkpt lat="45.41116192969961" lon="9.257029977168589"><ele>100.0</ele><time>2026-05-01T18:28:21.999Z</time></trkpt><trkpt lat="45.4113538277197" lon="9.25678553085801"><ele>101.0</ele><time>2026-05-01T18:28:22.999Z</time></trkpt><trkpt lat="45.411549693630455" lon="9.256539119976356"><ele>100.5</ele><time>2026-05-01T18:28:23.999Z</time></trkpt><trkpt lat="45.411739336350195" lon="9.256294515839146"><ele>100.0</ele><time>2026-05-01T18:28:24.999Z</time></trkpt><trkpt lat="45.411930219434794" lon="9.256052495473833"><ele>100.0</ele><time>2026-05-01T18:28:25.999Z</time></trkpt><trkpt lat="45.41212360148902" lon="9.255813825424507"><ele>100.0</ele><time>2026-05-01T18:28:26.999Z</time></trkpt><trkpt lat="45.412314514463546" lon="9.255578162976931"><ele>100.0</ele><time>2026-05-01T18:28:27.999Z</time></trkpt><trkpt lat="45.41250378122099" lon="9.255341771513908"><ele>100.0</ele><time>2026-05-01T18:28:28.999Z</time></trkpt><trkpt lat="45.412690990722936" lon="9.255102818127765"><ele>100.0</ele><time>2026-05-01T18:28:29.999Z</time></trkpt><trkpt lat="45.4128784481107" lon="9.254861701702582"><ele>100.0</ele><time>2026-05-01T18:28:30.999Z</time></trkpt><trkpt lat="45.41306522675953" lon="9.254620788764477"><ele>100.5</ele><time>2026-05-01T18:28:31.999Z</time></trkpt><trkpt lat="45.413253046726" lon="9.254380024015205"><ele>101.0</ele><time>2026-05-01T18:28:32.999Z</time></trkpt><trkpt lat="45.413439247017315" lon="9.254135111192207"><ele>102.0</ele><time>2026-05-01T18:28:33.999Z</time></trkpt><trkpt lat="45.4136226263209" lon="9.253883073447822"><ele>103.0</ele><time>2026-05-01T18:28:34.999Z</time></trkpt><trkpt lat="45.41380607921001" lon="9.253632469068215"><ele>103.0</ele><time>2026-05-01T18:28:35.999Z</time></trkpt><trkpt lat="45.41398873264064" lon="9.253384034864819"><ele>103.0</ele><time>2026-05-01T18:28:36.999Z</time></trkpt><trkpt lat="45.41417009826315" lon="9.253131972243771"><ele>104.5</ele><time>2026-05-01T18:28:37.999Z</time></trkpt><trkpt lat="45.4143491044434" lon="9.252882797944197"><ele>106.0</ele><time>2026-05-01T18:28:38.999Z</time></trkpt><trkpt lat="45.41452524152352" lon="9.252633516681124"><ele>102.5</ele><time>2026-05-01T18:28:39.999Z</time></trkpt><trkpt lat="45.41469677584365" lon="9.252382005924794"><ele>99.0</ele><time>2026-05-01T18:28:40.999Z</time></trkpt><trkpt lat="45.414867500428485" lon="9.25213216872645"><ele>99.0</ele><time>2026-05-01T18:28:41.999Z</time></trkpt><trkpt lat="45.41504111682325" lon="9.251888330452854"><ele>99.0</ele><time>2026-05-01T18:28:42.999Z</time></trkpt><trkpt lat="45.415204574455885" lon="9.25164258492033"><ele>99.0</ele><time>2026-05-01T18:28:43.999Z</time></trkpt><trkpt lat="45.415367823249994" lon="9.251393577901354"><ele>99.0</ele><time>2026-05-01T18:28:44.999Z</time></trkpt><trkpt lat="45.41553209468623" lon="9.25114575311539"><ele>99.5</ele><time>2026-05-01T18:28:45.999Z</time></trkpt><trkpt lat="45.415695936651865" lon="9.250892365270238"><ele>100.0</ele><time>2026-05-01T18:28:46.999Z</time></trkpt><trkpt lat="45.41585937900625" lon="9.250641699602479"><ele>101.5</ele><time>2026-05-01T18:28:47.999Z</time></trkpt><trkpt lat="45.416021952044616" lon="9.2503951522285"><ele>103.0</ele><time>2026-05-01T18:28:48.999Z</time></trkpt><trkpt lat="45.41618442464519" lon="9.250150668386153"><ele>102.5</ele><time>2026-05-01T18:28:49.999Z</time></trkpt><trkpt lat="45.4163475470885" lon="9.249903286902187"><ele>102.0</ele><time>2026-05-01T18:28:50.999Z</time></trkpt><trkpt lat="45.41651210895406" lon="9.249656604541888"><ele>102.0</ele><time>2026-05-01T18:28:51.999Z</time></trkpt><trkpt lat="45.41667581428044" lon="9.24940812796325"><ele>102.0</ele><time>2026-05-01T18:28:52.999Z</time></trkpt><trkpt lat="45.4168407024994" lon="9.249159034268608"><ele>102.0</ele><time>2026-05-01T18:28:53.999Z</time></trkpt><trkpt lat="45.41700650712958" lon="9.248906012842816"><ele>102.0</ele><time>2026-05-01T18:28:54.999Z</time></trkpt><trkpt lat="45.41717435208215" lon="9.248653583616843"><ele>100.0</ele><time>2026-05-01T18:28:55.999Z</time></trkpt><trkpt lat="45.41734385737626" lon="9.248411905488652"><ele>98.0</ele><time>2026-05-01T18:28:56.999Z</time></trkpt><trkpt lat="45.4175186059227" lon="9.248181813779437"><ele>99.0</ele><time>2026-05-01T18:28:57.999Z</time></trkpt><trkpt lat="45.417695314994155" lon="9.247958651523879"><ele>100.0</ele><time>2026-05-01T18:28:58.999Z</time></trkpt><trkpt lat="45.417878972790405" lon="9.247741775248723"><ele>100.5</ele><time>2026-05-01T18:28:59.999Z</time></trkpt><trkpt lat="45.418067692639944" lon="9.247536543593972"><ele>101.0</ele><time>2026-05-01T18:29:00.999Z</time></trkpt><trkpt lat="45.41826184011223" lon="9.247343444940594"><ele>101.0</ele><time>2026-05-01T18:29:01.999Z</time></trkpt><trkpt lat="45.41846429827558" lon="9.247167362187595"><ele>101.0</ele><time>2026-05-01T18:29:02.999Z</time></trkpt><trkpt lat="45.418670472769364" lon="9.247002051759154"><ele>103.0</ele><time>2026-05-01T18:29:03.999Z</time></trkpt><trkpt lat="45.418882101639596" lon="9.246853052154535"><ele>105.0</ele><time>2026-05-01T18:29:04.999Z</time></trkpt><trkpt lat="45.41909383268488" lon="9.246713612388561"><ele>105.0</ele><time>2026-05-01T18:29:05.999Z</time></trkpt><trkpt lat="45.419308566905094" lon="9.246593492983955"><ele>105.0</ele><time>2026-05-01T18:29:06.999Z</time></trkpt><trkpt lat="45.41952206039897" lon="9.246484685094051"><ele>105.0</ele><time>2026-05-01T18:29:07.999Z</time></trkpt><trkpt lat="45.41973636890617" lon="9.246389868215646"><ele>105.0</ele><time>2026-05-01T18:29:08.999Z</time></trkpt><trkpt lat="45.419954380421835" lon="9.246311709071723"><ele>105.0</ele><time>2026-05-01T18:29:09.999Z</time></trkpt><trkpt lat="45.42017014990179" lon="9.246247947327372"><ele>105.0</ele><time>2026-05-01T18:29:10.999Z</time></trkpt><trkpt lat="45.42038688437823" lon="9.24618806487465"><ele>105.0</ele><time>2026-05-01T18:29:11.999Z</time></trkpt><trkpt lat="45.420605077341875" lon="9.24614090221414"><ele>105.0</ele><time>2026-05-01T18:29:12.999Z</time></trkpt><trkpt lat="45.42082387750945" lon="9.24610140209668"><ele>105.66666666666666</ele><time>2026-05-01T18:29:13.999Z</time></trkpt><trkpt lat="45.42104501933474" lon="9.246072348170449"><ele>106.33333333333333</ele><time>2026-05-01T18:29:14.999Z</time></trkpt><trkpt lat="45.42126050517422" lon="9.246046158602802"><ele>107.0</ele><time>2026-05-01T18:29:15.999Z</time></trkpt><trkpt lat="45.42147747410215" lon="9.246018316737027"><ele>107.0</ele><time>2026-05-01T18:29:17Z</time></trkpt><trkpt lat="45.42169675197702" lon="9.245998218938709"><ele>107.0</ele><time>2026-05-01T18:29:18Z</time></trkpt><trkpt lat="45.42192296860289" lon="9.245975417284233"><ele>107.0</ele><time>2026-05-01T18:29:19Z</time></trkpt><trkpt lat="45.422146374509026" lon="9.245956496824146"><ele>106.0</ele><time>2026-05-01T18:29:20Z</time></trkpt><trkpt lat="45.422371645294405" lon="9.245928233867188"><ele>105.0</ele><time>2026-05-01T18:29:21Z</time></trkpt><trkpt lat="45.422596768910694" lon="9.24589960067198"><ele>105.0</ele><time>2026-05-01T18:29:22Z</time></trkpt><trkpt lat="45.42281997339614" lon="9.245865298450536"><ele>105.0</ele><time>2026-05-01T18:29:23Z</time></trkpt><trkpt lat="45.42304731416484" lon="9.245830925257883"><ele>104.0</ele><time>2026-05-01T18:29:24Z</time></trkpt><trkpt lat="45.42327785419799" lon="9.245805614062014"><ele>103.0</ele><time>2026-05-01T18:29:25Z</time></trkpt><trkpt lat="45.423507351620074" lon="9.24577939067069"><ele>103.0</ele><time>2026-05-01T18:29:26Z</time></trkpt><trkpt lat="45.42373420428826" lon="9.245751306467952"><ele>103.0</ele><time>2026-05-01T18:29:27Z</time></trkpt><trkpt lat="45.42396164845747" lon="9.245725839963027"><ele>102.66666666666667</ele><time>2026-05-01T18:29:28Z</time></trkpt><trkpt lat="45.42418462582823" lon="9.245699653859349"><ele>102.33333333333334</ele><time>2026-05-01T18:29:29Z</time></trkpt><trkpt lat="45.42440333350313" lon="9.245677311371468"><ele>102.0</ele><time>2026-05-01T18:29:30Z</time></trkpt><trkpt lat="45.4246191484636" lon="9.245656087121343"><ele>101.33333333333334</ele><time>2026-05-01T18:29:31Z</time></trkpt><trkpt lat="45.42483650062241" lon="9.245642034431102"><ele>100.66666666666667</ele><time>2026-05-01T18:29:32Z</time></trkpt><trkpt lat="45.42504966286905" lon="9.245634181286748"><ele>100.0</ele><time>2026-05-01T18:29:33Z</time></trkpt><trkpt lat="45.425268046457" lon="9.245635748733081"><ele>101.33333333333334</ele><time>2026-05-01T18:29:34Z</time></trkpt><trkpt lat="45.42548878711138" lon="9.245645823602054"><ele>102.66666666666666</ele><time>2026-05-01T18:29:35Z</time></trkpt><trkpt lat="45.425706687633884" lon="9.245671191206688"><ele>104.0</ele><time>2026-05-01T18:29:36Z</time></trkpt><trkpt lat="45.42592524807444" lon="9.245714083828053"><ele>104.0</ele><time>2026-05-01T18:29:37Z</time></trkpt><trkpt lat="45.42613784378434" lon="9.245761384793456"><ele>104.0</ele><time>2026-05-01T18:29:38Z</time></trkpt><trkpt lat="45.42635132435135" lon="9.245833397137316"><ele>104.0</ele><time>2026-05-01T18:29:39Z</time></trkpt><trkpt lat="45.426557715163014" lon="9.245919312342204"><ele>104.0</ele><time>2026-05-01T18:29:40Z</time></trkpt><trkpt lat="45.42676507623804" lon="9.246012749566125"><ele>104.0</ele><time>2026-05-01T18:29:41Z</time></trkpt><trkpt lat="45.42696959144149" lon="9.246117121455868"><ele>104.0</ele><time>2026-05-01T18:29:42Z</time></trkpt><trkpt lat="45.42716469236092" lon="9.246232866303894"><ele>104.0</ele><time>2026-05-01T18:29:43Z</time></trkpt><trkpt lat="45.42735350121798" lon="9.246363668582932"><ele>104.0</ele><time>2026-05-01T18:29:44Z</time></trkpt><trkpt lat="45.42753291296978" lon="9.246501654466558"><ele>104.0</ele><time>2026-05-01T18:29:45Z</time></trkpt><trkpt lat="45.42770637005886" lon="9.246652489625923"><ele>104.66666666666666</ele><time>2026-05-01T18:29:46Z</time></trkpt><trkpt lat="45.427878567529184" lon="9.246815835796925"><ele>105.33333333333334</ele><time>2026-05-01T18:29:47Z</time></trkpt><trkpt lat="45.42804400198132" lon="9.246981554317914"><ele>106.0</ele><time>2026-05-01T18:29:48Z</time></trkpt><trkpt lat="45.42819960091356" lon="9.247155991760664"><ele>107.66666666666667</ele><time>2026-05-01T18:29:49Z</time></trkpt><trkpt lat="45.42834539129803" lon="9.247340093222078"><ele>109.33333333333334</ele><time>2026-05-01T18:29:50Z</time></trkpt><trkpt lat="45.42848494453537" lon="9.247535259152961"><ele>111.0</ele><time>2026-05-01T18:29:51Z</time></trkpt><trkpt lat="45.42862670360293" lon="9.247739001503993"><ele>111.0</ele><time>2026-05-01T18:29:52Z</time></trkpt><trkpt lat="45.42876625336896" lon="9.247956556590601"><ele>111.0</ele><time>2026-05-01T18:29:53Z</time></trkpt><trkpt lat="45.42891898766363" lon="9.248192024525208"><ele>111.0</ele><time>2026-05-01T18:29:54Z</time></trkpt><trkpt lat="45.42908061534246" lon="9.248455332989357"><ele>110.5</ele><time>2026-05-01T18:29:55Z</time></trkpt><trkpt lat="45.4292439316495" lon="9.248730472313103"><ele>110.0</ele><time>2026-05-01T18:29:56Z</time></trkpt><trkpt lat="45.4294010825722" lon="9.248992849969634"><ele>109.0</ele><time>2026-05-01T18:29:57Z</time></trkpt><trkpt lat="45.4295507270539" lon="9.24924124573369"><ele>108.0</ele><time>2026-05-01T18:29:58Z</time></trkpt><trkpt lat="45.42969983358458" lon="9.249483908490005"><ele>107.5</ele><time>2026-05-01T18:29:59Z</time></trkpt><trkpt lat="45.42985298500189" lon="9.249724781530876"><ele>107.0</ele><time>2026-05-01T18:30:00Z</time></trkpt><trkpt lat="45.43000655397451" lon="9.249972391123816"><ele>107.0</ele><time>2026-05-01T18:30:01Z</time></trkpt><trkpt lat="45.430156524140386" lon="9.250219268220599"><ele>107.0</ele><time>2026-05-01T18:30:02Z</time></trkpt><trkpt lat="45.4303012309595" lon="9.250462421485608"><ele>106.5</ele><time>2026-05-01T18:30:03Z</time></trkpt><trkpt lat="45.43044455052657" lon="9.25070128581951"><ele>106.0</ele><time>2026-05-01T18:30:04Z</time></trkpt><trkpt lat="45.430598680166746" lon="9.250943748671773"><ele>106.0</ele><time>2026-05-01T18:30:05Z</time></trkpt><trkpt lat="45.43076208140098" lon="9.251193092809494"><ele>106.0</ele><time>2026-05-01T18:30:06Z</time></trkpt><trkpt lat="45.430937056827986" lon="9.251445324195355"><ele>106.0</ele><time>2026-05-01T18:30:07Z</time></trkpt><trkpt lat="45.43112450170866" lon="9.251708144991177"><ele>106.0</ele><time>2026-05-01T18:30:08Z</time></trkpt><trkpt lat="45.4313130025647" lon="9.251972887817262"><ele>105.5</ele><time>2026-05-01T18:30:09Z</time></trkpt><trkpt lat="45.43150918851043" lon="9.252225908334196"><ele>105.0</ele><time>2026-05-01T18:30:10Z</time></trkpt><trkpt lat="45.43171031181745" lon="9.252474051249532"><ele>104.5</ele><time>2026-05-01T18:30:11Z</time></trkpt><trkpt lat="45.43191233470304" lon="9.25272296270336"><ele>104.0</ele><time>2026-05-01T18:30:12Z</time></trkpt><trkpt lat="45.43211938375964" lon="9.252969898201178"><ele>103.0</ele><time>2026-05-01T18:30:13Z</time></trkpt><trkpt lat="45.43233199159017" lon="9.253212219473804"><ele>102.0</ele><time>2026-05-01T18:30:14Z</time></trkpt><trkpt lat="45.43255205056908" lon="9.253449401385867"><ele>102.0</ele><time>2026-05-01T18:30:15Z</time></trkpt><trkpt lat="45.432786098905865" lon="9.253685641414215"><ele>102.0</ele><time>2026-05-01T18:30:16Z</time></trkpt><trkpt lat="45.43302248800006" lon="9.253916731114053"><ele>104.5</ele><time>2026-05-01T18:30:17Z</time></trkpt><trkpt lat="45.43326370684448" lon="9.254133606424503"><ele>107.0</ele><time>2026-05-01T18:30:18Z</time></trkpt><trkpt lat="45.43350483548968" lon="9.254346064764565"><ele>107.0</ele><time>2026-05-01T18:30:19Z</time></trkpt><trkpt lat="45.43375184219919" lon="9.25454548483592"><ele>107.0</ele><time>2026-05-01T18:30:20Z</time></trkpt><trkpt lat="45.434001787844075" lon="9.254741616109811"><ele>107.0</ele><time>2026-05-01T18:30:21Z</time></trkpt><trkpt lat="45.43425652295818" lon="9.254918768935893"><ele>107.0</ele><time>2026-05-01T18:30:22Z</time></trkpt><trkpt lat="45.434514931865685" lon="9.255092342150943"><ele>106.5</ele><time>2026-05-01T18:30:22.999Z</time></trkpt><trkpt lat="45.434775588469684" lon="9.255251496768718"><ele>106.0</ele><time>2026-05-01T18:30:23.999Z</time></trkpt><trkpt lat="45.43503870654362" lon="9.255407028869067"><ele>106.0</ele><time>2026-05-01T18:30:24.999Z</time></trkpt><trkpt lat="45.43530393203371" lon="9.255554035233724"><ele>106.0</ele><time>2026-05-01T18:30:25.999Z</time></trkpt><trkpt lat="45.43557565304772" lon="9.255697462950954"><ele>107.0</ele><time>2026-05-01T18:30:26.999Z</time></trkpt><trkpt lat="45.43584674528553" lon="9.255826937240753"><ele>108.0</ele><time>2026-05-01T18:30:27.999Z</time></trkpt><trkpt lat="45.436112018112354" lon="9.255958581768459"><ele>107.0</ele><time>2026-05-01T18:30:28.999Z</time></trkpt><trkpt lat="45.43638442015611" lon="9.25607035180454"><ele>106.0</ele><time>2026-05-01T18:30:29.999Z</time></trkpt><trkpt lat="45.43665601459849" lon="9.256179498657415"><ele>106.0</ele><time>2026-05-01T18:30:30.999Z</time></trkpt><trkpt lat="45.4369313632186" lon="9.25628080301773"><ele>106.0</ele><time>2026-05-01T18:30:31.999Z</time></trkpt><trkpt lat="45.43721188146114" lon="9.256371096399821"><ele>104.5</ele><time>2026-05-01T18:30:32.999Z</time></trkpt><trkpt lat="45.437499860961765" lon="9.256457157555442"><ele>103.0</ele><time>2026-05-01T18:30:33.999Z</time></trkpt><trkpt lat="45.43779233602281" lon="9.256542428659579"><ele>103.5</ele><time>2026-05-01T18:30:34.999Z</time></trkpt><trkpt lat="45.4380867264825" lon="9.256627826281111"><ele>104.0</ele><time>2026-05-01T18:30:35.999Z</time></trkpt><trkpt lat="45.43837801587024" lon="9.256715871240294"><ele>104.0</ele><time>2026-05-01T18:30:36.999Z</time></trkpt><trkpt lat="45.438668215378215" lon="9.256804091459474"><ele>104.0</ele><time>2026-05-01T18:30:37.999Z</time></trkpt><trkpt lat="45.43895804449251" lon="9.25689651468773"><ele>104.0</ele><time>2026-05-01T18:30:38.999Z</time></trkpt><trkpt lat="45.4392435108589" lon="9.256975508967292"><ele>104.0</ele><time>2026-05-01T18:30:39.999Z</time></trkpt><trkpt lat="45.43952997435958" lon="9.257047940435406"><ele>104.5</ele><time>2026-05-01T18:30:40.999Z</time></trkpt><trkpt lat="45.43981476957445" lon="9.257116460642322"><ele>105.0</ele><time>2026-05-01T18:30:41.999Z</time></trkpt><trkpt lat="45.44009309839755" lon="9.257191551011536"><ele>105.0</ele><time>2026-05-01T18:30:42.999Z</time></trkpt><trkpt lat="45.44036729225607" lon="9.25727020388606"><ele>105.0</ele><time>2026-05-01T18:30:43.999Z</time></trkpt><trkpt lat="45.44063000973494" lon="9.257347640891433"><ele>104.0</ele><time>2026-05-01T18:30:44.999Z</time></trkpt><trkpt lat="45.440895025151896" lon="9.257418301905371"><ele>103.0</ele><time>2026-05-01T18:30:45.999Z</time></trkpt><trkpt lat="45.44116843156288" lon="9.257486935535647"><ele>100.5</ele><time>2026-05-01T18:30:46.999Z</time></trkpt><trkpt lat="45.44144490066461" lon="9.257554411805259"><ele>98.0</ele><time>2026-05-01T18:30:47.999Z</time></trkpt><trkpt lat="45.4417246267549" lon="9.257626393069282"><ele>98.0</ele><time>2026-05-01T18:30:48.999Z</time></trkpt><trkpt lat="45.44200202127666" lon="9.257709938250589"><ele>98.0</ele><time>2026-05-01T18:30:49.999Z</time></trkpt><trkpt lat="45.44227511060558" lon="9.257800966539083"><ele>101.0</ele><time>2026-05-01T18:30:50.999Z</time></trkpt><trkpt lat="45.44254575985767" lon="9.257887189864594"><ele>104.0</ele><time>2026-05-01T18:30:51.999Z</time></trkpt><trkpt lat="45.44281206783676" lon="9.257969419424578"><ele>100.5</ele><time>2026-05-01T18:30:52.999Z</time></trkpt><trkpt lat="45.44307020922099" lon="9.25804453366807"><ele>97.0</ele><time>2026-05-01T18:30:53.999Z</time></trkpt><trkpt lat="45.44332564526488" lon="9.258113155717252"><ele>99.0</ele><time>2026-05-01T18:30:54.999Z</time></trkpt><trkpt lat="45.44358126464139" lon="9.258185225442938"><ele>101.0</ele><time>2026-05-01T18:30:55.999Z</time></trkpt><trkpt lat="45.44383778955757" lon="9.25826298297503"><ele>96.5</ele><time>2026-05-01T18:30:56.999Z</time></trkpt><trkpt lat="45.44409103804875" lon="9.25833810782694"><ele>92.0</ele><time>2026-05-01T18:30:57.999Z</time></trkpt><trkpt lat="45.444345663230216" lon="9.258412666754603"><ele>92.0</ele><time>2026-05-01T18:30:58.999Z</time></trkpt><trkpt lat="45.444600062146215" lon="9.258487774330124"><ele>92.0</ele><time>2026-05-01T18:30:59.999Z</time></trkpt><trkpt lat="45.44485157980585" lon="9.258551875117318"><ele>91.5</ele><time>2026-05-01T18:31:00.999Z</time></trkpt><trkpt lat="45.44510269985505" lon="9.258617153588913"><ele>91.0</ele><time>2026-05-01T18:31:01.999Z</time></trkpt><trkpt lat="45.445353034501466" lon="9.258688093726885"><ele>96.0</ele><time>2026-05-01T18:31:02.999Z</time></trkpt><trkpt lat="45.4456001137895" lon="9.25876433871492"><ele>101.0</ele><time>2026-05-01T18:31:03.999Z</time></trkpt><trkpt lat="45.44583894570364" lon="9.258835970721014"><ele>101.0</ele><time>2026-05-01T18:31:04.999Z</time></trkpt><trkpt lat="45.44606577462282" lon="9.25890195795073"><ele>101.0</ele><time>2026-05-01T18:31:05.999Z</time></trkpt><trkpt lat="45.44629317392085" lon="9.258962276431848"><ele>103.5</ele><time>2026-05-01T18:31:06.999Z</time></trkpt><trkpt lat="45.44651762756099" lon="9.259019310388997"><ele>106.0</ele><time>2026-05-01T18:31:07.999Z</time></trkpt><trkpt lat="45.44674305752817" lon="9.259061824643538"><ele>106.0</ele><time>2026-05-01T18:31:08.999Z</time></trkpt><trkpt lat="45.44697113974953" lon="9.259091789326996"><ele>106.0</ele><time>2026-05-01T18:31:09.999Z</time></trkpt><trkpt lat="45.447203185155246" lon="9.259111800209755"><ele>107.0</ele><time>2026-05-01T18:31:10.999Z</time></trkpt><trkpt lat="45.447437474387335" lon="9.25912297605127"><ele>108.0</ele><time>2026-05-01T18:31:11.999Z</time></trkpt><trkpt lat="45.44767100877066" lon="9.259124327068074"><ele>108.0</ele><time>2026-05-01T18:31:12.999Z</time></trkpt><trkpt lat="45.44790230003301" lon="9.259118103077595"><ele>108.0</ele><time>2026-05-01T18:31:13.999Z</time></trkpt><trkpt lat="45.44813440279802" lon="9.259101079053"><ele>107.33333333333334</ele><time>2026-05-01T18:31:14.999Z</time></trkpt><trkpt lat="45.44835831324057" lon="9.259056028412765"><ele>106.66666666666667</ele><time>2026-05-01T18:31:15.999Z</time></trkpt><trkpt lat="45.44857945509578" lon="9.259011493386284"><ele>106.0</ele><time>2026-05-01T18:31:16.999Z</time></trkpt><trkpt lat="45.44879820156577" lon="9.258955956409018"><ele>107.5</ele><time>2026-05-01T18:31:17.999Z</time></trkpt><trkpt lat="45.44901952105308" lon="9.258883921393991"><ele>109.0</ele><time>2026-05-01T18:31:18.999Z</time></trkpt><trkpt lat="45.44923911901583" lon="9.25880257484233"><ele>109.0</ele><time>2026-05-01T18:31:19.999Z</time></trkpt><trkpt lat="45.449461177903174" lon="9.258705109239832"><ele>109.0</ele><time>2026-05-01T18:31:20.999Z</time></trkpt><trkpt lat="45.449688937861225" lon="9.258595864227209"><ele>110.5</ele><time>2026-05-01T18:31:21.999Z</time></trkpt><trkpt lat="45.44991168785907" lon="9.258476938878674"><ele>112.0</ele><time>2026-05-01T18:31:23Z</time></trkpt><trkpt lat="45.45013374788214" lon="9.258344728283655"><ele>112.0</ele><time>2026-05-01T18:31:24Z</time></trkpt><trkpt lat="45.45035474790096" lon="9.258200338008681"><ele>112.0</ele><time>2026-05-01T18:31:25Z</time></trkpt><trkpt lat="45.450573732252785" lon="9.258049137999363"><ele>112.0</ele><time>2026-05-01T18:31:26Z</time></trkpt><trkpt lat="45.450788300728654" lon="9.257892744552974"><ele>112.0</ele><time>2026-05-01T18:31:27Z</time></trkpt><trkpt lat="45.450995133448615" lon="9.257736747461363"><ele>112.0</ele><time>2026-05-01T18:31:28Z</time></trkpt><trkpt lat="45.45119100775728" lon="9.25757781901721"><ele>112.0</ele><time>2026-05-01T18:31:29Z</time></trkpt><trkpt lat="45.451379398036664" lon="9.25741993770357"><ele>112.0</ele><time>2026-05-01T18:31:30Z</time></trkpt><trkpt lat="45.45156438335257" lon="9.257255108052053"><ele>111.66666666666667</ele><time>2026-05-01T18:31:31Z</time></trkpt><trkpt lat="45.451747004826906" lon="9.257099038792713"><ele>111.33333333333334</ele><time>2026-05-01T18:31:32Z</time></trkpt><trkpt lat="45.451927847304425" lon="9.256951471039164"><ele>111.0</ele><time>2026-05-01T18:31:33Z</time></trkpt><trkpt lat="45.4521127572486" lon="9.256796310257238"><ele>110.5</ele><time>2026-05-01T18:31:34Z</time></trkpt><trkpt lat="45.45231020990908" lon="9.256624618420606"><ele>110.0</ele><time>2026-05-01T18:31:35Z</time></trkpt><trkpt lat="45.45252074290904" lon="9.256436164284514"><ele>110.0</ele><time>2026-05-01T18:31:36Z</time></trkpt><trkpt lat="45.45274080031743" lon="9.256241369227608"><ele>110.0</ele><time>2026-05-01T18:31:37Z</time></trkpt><trkpt lat="45.4529597324587" lon="9.256051526249855"><ele>110.5</ele><time>2026-05-01T18:31:38Z</time></trkpt><trkpt lat="45.45318299503687" lon="9.255861272097906"><ele>111.0</ele><time>2026-05-01T18:31:39Z</time></trkpt><trkpt lat="45.4534148089492" lon="9.255672670639864"><ele>111.0</ele><time>2026-05-01T18:31:40Z</time></trkpt><trkpt lat="45.45364273046335" lon="9.255470858040818"><ele>111.0</ele><time>2026-05-01T18:31:41Z</time></trkpt><trkpt lat="45.453881126669394" lon="9.255276328729046"><ele>111.0</ele><time>2026-05-01T18:31:42Z</time></trkpt><trkpt lat="45.45412085054583" lon="9.255069553794442"><ele>111.0</ele><time>2026-05-01T18:31:43Z</time></trkpt><trkpt lat="45.45436385081151" lon="9.254871213400358"><ele>110.0</ele><time>2026-05-01T18:31:44Z</time></trkpt><trkpt lat="45.45460761709788" lon="9.254665315321564"><ele>109.0</ele><time>2026-05-01T18:31:45Z</time></trkpt><trkpt lat="45.454853900578215" lon="9.254460523392098"><ele>112.0</ele><time>2026-05-01T18:31:46Z</time></trkpt><trkpt lat="45.455098024731754" lon="9.254250037647362"><ele>115.0</ele><time>2026-05-01T18:31:47Z</time></trkpt><trkpt lat="45.45534385690601" lon="9.254041356258393"><ele>113.0</ele><time>2026-05-01T18:31:48Z</time></trkpt><trkpt lat="45.455582838009086" lon="9.25383954999501"><ele>111.0</ele><time>2026-05-01T18:31:49Z</time></trkpt><trkpt lat="45.45581612805461" lon="9.253644444704202"><ele>111.0</ele><time>2026-05-01T18:31:50Z</time></trkpt><trkpt lat="45.45604626392435" lon="9.253454972999458"><ele>111.0</ele><time>2026-05-01T18:31:51Z</time></trkpt><trkpt lat="45.45627287306707" lon="9.253265168715963"><ele>111.5</ele><time>2026-05-01T18:31:52Z</time></trkpt><trkpt lat="45.456504896283484" lon="9.25308356698037"><ele>112.0</ele><time>2026-05-01T18:31:53Z</time></trkpt><trkpt lat="45.456735388588015" lon="9.252902309311528"><ele>112.0</ele><time>2026-05-01T18:31:54Z</time></trkpt><trkpt lat="45.45696914141038" lon="9.252730464928332"><ele>112.0</ele><time>2026-05-01T18:31:55Z</time></trkpt><trkpt lat="45.4572098417456" lon="9.252572760580456"><ele>112.5</ele><time>2026-05-01T18:31:56Z</time></trkpt><trkpt lat="45.45746254048048" lon="9.25242511490175"><ele>113.0</ele><time>2026-05-01T18:31:57Z</time></trkpt><trkpt lat="45.457708006044825" lon="9.252286783513442"><ele>113.5</ele><time>2026-05-01T18:31:58Z</time></trkpt><trkpt lat="45.45795478067026" lon="9.25215557283451"><ele>114.0</ele><time>2026-05-01T18:31:59Z</time></trkpt><trkpt lat="45.45820188985635" lon="9.252031948277239"><ele>114.0</ele><time>2026-05-01T18:32:00Z</time></trkpt><trkpt lat="45.45846043252752" lon="9.251931572469983"><ele>114.0</ele><time>2026-05-01T18:32:01Z</time></trkpt><trkpt lat="45.45871299188073" lon="9.251830213018817"><ele>113.5</ele><time>2026-05-01T18:32:02Z</time></trkpt><trkpt lat="45.458963416883876" lon="9.251745612797265"><ele>113.0</ele><time>2026-05-01T18:32:03Z</time></trkpt><trkpt lat="45.45921184088939" lon="9.251664365620583"><ele>113.0</ele><time>2026-05-01T18:32:04Z</time></trkpt><trkpt lat="45.45946176479053" lon="9.25160047248657"><ele>113.0</ele><time>2026-05-01T18:32:05Z</time></trkpt><trkpt lat="45.45971026033403" lon="9.251541021813571"><ele>113.0</ele><time>2026-05-01T18:32:06Z</time></trkpt><trkpt lat="45.45995754105043" lon="9.251491689820044"><ele>113.0</ele><time>2026-05-01T18:32:07Z</time></trkpt><trkpt lat="45.460202582511535" lon="9.25145410462715"><ele>113.0</ele><time>2026-05-01T18:32:08Z</time></trkpt><trkpt lat="45.46044869469987" lon="9.2514230720707"><ele>113.0</ele><time>2026-05-01T18:32:09Z</time></trkpt><trkpt lat="45.46069282696448" lon="9.251402028236004"><ele>115.0</ele><time>2026-05-01T18:32:10Z</time></trkpt><trkpt lat="45.460942081378626" lon="9.251390243912304"><ele>117.0</ele><time>2026-05-01T18:32:11Z</time></trkpt><trkpt lat="45.46118994310099" lon="9.251387811701624"><ele>116.5</ele><time>2026-05-01T18:32:12Z</time></trkpt><trkpt lat="45.46143779429534" lon="9.251398454092156"><ele>116.0</ele><time>2026-05-01T18:32:13Z</time></trkpt><trkpt lat="45.461685035268715" lon="9.251421154465861"><ele>116.0</ele><time>2026-05-01T18:32:14Z</time></trkpt><trkpt lat="45.46193110717366" lon="9.25145273642975"><ele>116.0</ele><time>2026-05-01T18:32:15Z</time></trkpt><trkpt lat="45.46217669759982" lon="9.251485507140556"><ele>113.5</ele><time>2026-05-01T18:32:16Z</time></trkpt><trkpt lat="45.46242347915873" lon="9.251533608497416"><ele>111.0</ele><time>2026-05-01T18:32:17Z</time></trkpt><trkpt lat="45.462670125342854" lon="9.251582551218304"><ele>111.0</ele><time>2026-05-01T18:32:18Z</time></trkpt><trkpt lat="45.46291940461787" lon="9.251640138698653"><ele>111.0</ele><time>2026-05-01T18:32:19Z</time></trkpt><trkpt lat="45.46316287503958" lon="9.251704360903332"><ele>109.5</ele><time>2026-05-01T18:32:20Z</time></trkpt><trkpt lat="45.463408046665776" lon="9.251772229758172"><ele>108.0</ele><time>2026-05-01T18:32:21Z</time></trkpt><trkpt lat="45.46365048207045" lon="9.251840289978665"><ele>108.5</ele><time>2026-05-01T18:32:22Z</time></trkpt><trkpt lat="45.46390058558837" lon="9.251907469559049"><ele>109.0</ele><time>2026-05-01T18:32:23Z</time></trkpt><trkpt lat="45.46414980577252" lon="9.251979870985702"><ele>109.0</ele><time>2026-05-01T18:32:24Z</time></trkpt><trkpt lat="45.46440425158156" lon="9.252047734665794"><ele>109.0</ele><time>2026-05-01T18:32:25Z</time></trkpt><trkpt lat="45.464654779755215" lon="9.25211396558828"><ele>111.0</ele><time>2026-05-01T18:32:26Z</time></trkpt><trkpt lat="45.46490603387382" lon="9.252176224873704"><ele>113.0</ele><time>2026-05-01T18:32:27Z</time></trkpt><trkpt lat="45.46515553938873" lon="9.252223989136642"><ele>113.0</ele><time>2026-05-01T18:32:28Z</time></trkpt><trkpt lat="45.46540220117571" lon="9.252260729412662"><ele>113.0</ele><time>2026-05-01T18:32:29Z</time></trkpt><trkpt lat="45.465647981173234" lon="9.25227889502817"><ele>113.5</ele><time>2026-05-01T18:32:30Z</time></trkpt><trkpt lat="45.46589243999088" lon="9.252287629609803"><ele>114.0</ele><time>2026-05-01T18:32:31Z</time></trkpt><trkpt lat="45.466131011667" lon="9.252290808722181"><ele>114.5</ele><time>2026-05-01T18:32:32Z</time></trkpt><trkpt lat="45.46636995199442" lon="9.252283296054053"><ele>115.0</ele><time>2026-05-01T18:32:33Z</time></trkpt><trkpt lat="45.46660425520419" lon="9.252273388316347"><ele>115.0</ele><time>2026-05-01T18:32:34Z</time></trkpt><trkpt lat="45.466834647463166" lon="9.25226367572927"><ele>115.0</ele><time>2026-05-01T18:32:35Z</time></trkpt><trkpt lat="45.46707181434625" lon="9.25225734009587"><ele>115.0</ele><time>2026-05-01T18:32:36Z</time></trkpt><trkpt lat="45.467307684359476" lon="9.252250676018326"><ele>115.0</ele><time>2026-05-01T18:32:37Z</time></trkpt><trkpt lat="45.46754473230483" lon="9.252243925399648"><ele>115.0</ele><time>2026-05-01T18:32:37.999Z</time></trkpt><trkpt lat="45.46777874260798" lon="9.252237388707652"><ele>115.0</ele><time>2026-05-01T18:32:38.999Z</time></trkpt><trkpt lat="45.46801497494255" lon="9.252230217587323"><ele>115.0</ele><time>2026-05-01T18:32:39.999Z</time></trkpt><trkpt lat="45.468257100990876" lon="9.252222923532987"><ele>115.0</ele><time>2026-05-01T18:32:40.999Z</time></trkpt><trkpt lat="45.46850500785768" lon="9.252217231430661"><ele>115.0</ele><time>2026-05-01T18:32:41.999Z</time></trkpt><trkpt lat="45.46875848665198" lon="9.252208987195706"><ele>115.0</ele><time>2026-05-01T18:32:42.999Z</time></trkpt><trkpt lat="45.46901112837995" lon="9.252198029089893"><ele>113.5</ele><time>2026-05-01T18:32:43.999Z</time></trkpt><trkpt lat="45.46926815374426" lon="9.252188280278927"><ele>112.0</ele><time>2026-05-01T18:32:44.999Z</time></trkpt><trkpt lat="45.46952541946594" lon="9.252184172394626"><ele>113.0</ele><time>2026-05-01T18:32:45.999Z</time></trkpt><trkpt lat="45.46978219926226" lon="9.252185031577532"><ele>114.0</ele><time>2026-05-01T18:32:46.999Z</time></trkpt><trkpt lat="45.470039513228585" lon="9.252205331559043"><ele>114.0</ele><time>2026-05-01T18:32:47.999Z</time></trkpt><trkpt lat="45.4702998565805" lon="9.252236602211562"><ele>114.0</ele><time>2026-05-01T18:32:48.999Z</time></trkpt><trkpt lat="45.470562220795635" lon="9.252269308676519"><ele>115.0</ele><time>2026-05-01T18:32:49.999Z</time></trkpt><trkpt lat="45.47082500636337" lon="9.252302557837618"><ele>116.0</ele><time>2026-05-01T18:32:50.999Z</time></trkpt><trkpt lat="45.47108993420958" lon="9.252343032610614"><ele>116.5</ele><time>2026-05-01T18:32:51.999Z</time></trkpt><trkpt lat="45.47135742217105" lon="9.252382360241945"><ele>117.0</ele><time>2026-05-01T18:32:52.999Z</time></trkpt><trkpt lat="45.47162920407496" lon="9.252430942288273"><ele>117.0</ele><time>2026-05-01T18:32:53.999Z</time></trkpt><trkpt lat="45.47189862847129" lon="9.25248884402272"><ele>117.0</ele><time>2026-05-01T18:32:54.999Z</time></trkpt><trkpt lat="45.472167965567564" lon="9.252551046799665"><ele>119.0</ele><time>2026-05-01T18:32:55.999Z</time></trkpt><trkpt lat="45.47243555662812" lon="9.252618800165898"><ele>121.0</ele><time>2026-05-01T18:32:56.999Z</time></trkpt><trkpt lat="45.47270319843762" lon="9.25269117057523"><ele>120.0</ele><time>2026-05-01T18:32:57.999Z</time></trkpt><trkpt lat="45.472974940817714" lon="9.252778048282789"><ele>119.0</ele><time>2026-05-01T18:32:58.999Z</time></trkpt><trkpt lat="45.47324486176995" lon="9.252865121826076"><ele>119.0</ele><time>2026-05-01T18:32:59.999Z</time></trkpt><trkpt lat="45.4735206269309" lon="9.252966257375604"><ele>119.0</ele><time>2026-05-01T18:33:00.999Z</time></trkpt><trkpt lat="45.47378820476285" lon="9.253069448028008"><ele>119.5</ele><time>2026-05-01T18:33:01.999Z</time></trkpt><trkpt lat="45.474055613063555" lon="9.253175120025546"><ele>120.0</ele><time>2026-05-01T18:33:02.999Z</time></trkpt><trkpt lat="45.47432271511225" lon="9.253266799349243"><ele>120.0</ele><time>2026-05-01T18:33:03.999Z</time></trkpt><trkpt lat="45.474588368148375" lon="9.253347570676887"><ele>120.0</ele><time>2026-05-01T18:33:04.999Z</time></trkpt><trkpt lat="45.474849232288484" lon="9.253436920450127"><ele>120.0</ele><time>2026-05-01T18:33:05.999Z</time></trkpt><trkpt lat="45.47510279825795" lon="9.253525228097091"><ele>120.0</ele><time>2026-05-01T18:33:06.999Z</time></trkpt><trkpt lat="45.475351827299185" lon="9.253599758303755"><ele>118.5</ele><time>2026-05-01T18:33:07.999Z</time></trkpt><trkpt lat="45.47560837279826" lon="9.253671027836642"><ele>117.0</ele><time>2026-05-01T18:33:08.999Z</time></trkpt><trkpt lat="45.475861086009935" lon="9.253721297766077"><ele>117.0</ele><time>2026-05-01T18:33:09.999Z</time></trkpt><trkpt lat="45.47611171354078" lon="9.253736051557278"><ele>117.0</ele><time>2026-05-01T18:33:10.999Z</time></trkpt><trkpt lat="45.4763627905413" lon="9.2537523407595"><ele>117.0</ele><time>2026-05-01T18:33:11.999Z</time></trkpt><trkpt lat="45.4766122395249" lon="9.253750611070778"><ele>117.0</ele><time>2026-05-01T18:33:12.999Z</time></trkpt><trkpt lat="45.47685734413678" lon="9.253731311303214"><ele>117.0</ele><time>2026-05-01T18:33:13.999Z</time></trkpt><trkpt lat="45.47709726950568" lon="9.253692829110244"><ele>117.0</ele><time>2026-05-01T18:33:14.999Z</time></trkpt><trkpt lat="45.47733280643544" lon="9.253635218498633"><ele>115.5</ele><time>2026-05-01T18:33:15.999Z</time></trkpt><trkpt lat="45.47756813347472" lon="9.253567993677521"><ele>114.0</ele><time>2026-05-01T18:33:16.999Z</time></trkpt><trkpt lat="45.477800908354986" lon="9.2534880883592"><ele>115.5</ele><time>2026-05-01T18:33:17.999Z</time></trkpt><trkpt lat="45.47803480961616" lon="9.25338588967811"><ele>117.0</ele><time>2026-05-01T18:33:18.999Z</time></trkpt><trkpt lat="45.47826776108665" lon="9.253284167347916"><ele>117.0</ele><time>2026-05-01T18:33:19.999Z</time></trkpt><trkpt lat="45.47850237098098" lon="9.253184523817072"><ele>117.0</ele><time>2026-05-01T18:33:20.999Z</time></trkpt><trkpt lat="45.4787407137645" lon="9.253082177063687"><ele>118.0</ele><time>2026-05-01T18:33:21.999Z</time></trkpt><trkpt lat="45.47897867794843" lon="9.252973843101529"><ele>119.0</ele><time>2026-05-01T18:33:22.999Z</time></trkpt><trkpt lat="45.479213561926976" lon="9.252869355634388"><ele>119.0</ele><time>2026-05-01T18:33:23.999Z</time></trkpt><trkpt lat="45.47945495846779" lon="9.252769593344953"><ele>119.0</ele><time>2026-05-01T18:33:24.999Z</time></trkpt><trkpt lat="45.47969761589167" lon="9.252664927811415"><ele>118.0</ele><time>2026-05-01T18:33:25.999Z</time></trkpt><trkpt lat="45.479937133675016" lon="9.25256281540923"><ele>117.0</ele><time>2026-05-01T18:33:26.999Z</time></trkpt><trkpt lat="45.48017322283452" lon="9.252462902502307"><ele>117.0</ele><time>2026-05-01T18:33:27.999Z</time></trkpt><trkpt lat="45.48040707811992" lon="9.252356640098935"><ele>117.0</ele><time>2026-05-01T18:33:29Z</time></trkpt><trkpt lat="45.480641338363164" lon="9.25225189644786"><ele>119.0</ele><time>2026-05-01T18:33:30Z</time></trkpt><trkpt lat="45.480872085123" lon="9.25214709694799"><ele>121.0</ele><time>2026-05-01T18:33:31Z</time></trkpt><trkpt lat="45.481103389889036" lon="9.2520433791938"><ele>121.0</ele><time>2026-05-01T18:33:32Z</time></trkpt><trkpt lat="45.48133106485924" lon="9.251939713733208"><ele>121.0</ele><time>2026-05-01T18:33:33Z</time></trkpt><trkpt lat="45.48156070538816" lon="9.251834027352178"><ele>121.0</ele><time>2026-05-01T18:33:34Z</time></trkpt><trkpt lat="45.481794013961206" lon="9.251728427202313"><ele>121.0</ele><time>2026-05-01T18:33:35Z</time></trkpt><trkpt lat="45.482028574258194" lon="9.251627902777848"><ele>120.5</ele><time>2026-05-01T18:33:36Z</time></trkpt><trkpt lat="45.48226857780155" lon="9.25153401759726"><ele>120.0</ele><time>2026-05-01T18:33:37Z</time></trkpt><trkpt lat="45.48250540044101" lon="9.251451252451444"><ele>120.0</ele><time>2026-05-01T18:33:38Z</time></trkpt><trkpt lat="45.482743782584365" lon="9.25138165681254"><ele>120.0</ele><time>2026-05-01T18:33:39Z</time></trkpt><trkpt lat="45.482981851454426" lon="9.251320260322231"><ele>119.0</ele><time>2026-05-01T18:33:40Z</time></trkpt><trkpt lat="45.483220074152676" lon="9.251273730914637"><ele>118.0</ele><time>2026-05-01T18:33:41Z</time></trkpt><trkpt lat="45.483462677343184" lon="9.251239700121651"><ele>118.0</ele><time>2026-05-01T18:33:42Z</time></trkpt><trkpt lat="45.48370537601173" lon="9.251214709550897"><ele>118.0</ele><time>2026-05-01T18:33:43Z</time></trkpt><trkpt lat="45.48394998899203" lon="9.251201928123418"><ele>119.0</ele><time>2026-05-01T18:33:44Z</time></trkpt><trkpt lat="45.48419382238461" lon="9.25119941712336"><ele>120.0</ele><time>2026-05-01T18:33:45Z</time></trkpt><trkpt lat="45.48444013003032" lon="9.251208929459107"><ele>119.0</ele><time>2026-05-01T18:33:46Z</time></trkpt><trkpt lat="45.48468535000752" lon="9.251228656090452"><ele>118.0</ele><time>2026-05-01T18:33:47Z</time></trkpt><trkpt lat="45.48493296073532" lon="9.251260025985843"><ele>118.0</ele><time>2026-05-01T18:33:48Z</time></trkpt><trkpt lat="45.48518611005945" lon="9.251298832826162"><ele>118.0</ele><time>2026-05-01T18:33:49Z</time></trkpt><trkpt lat="45.48543532229961" lon="9.251328900056457"><ele>118.0</ele><time>2026-05-01T18:33:50Z</time></trkpt><trkpt lat="45.48567577083685" lon="9.251363636865534"><ele>118.0</ele><time>2026-05-01T18:33:51Z</time></trkpt><trkpt lat="45.485921289897874" lon="9.251398071626555"><ele>118.0</ele><time>2026-05-01T18:33:52Z</time></trkpt><trkpt lat="45.48616503763176" lon="9.251430537838772"><ele>118.0</ele><time>2026-05-01T18:33:53Z</time></trkpt><trkpt lat="45.486407884643285" lon="9.251461118616534"><ele>118.5</ele><time>2026-05-01T18:33:54Z</time></trkpt><trkpt lat="45.486650853927955" lon="9.251503739194828"><ele>119.0</ele><time>2026-05-01T18:33:55Z</time></trkpt><trkpt lat="45.48689773123053" lon="9.251540199512089"><ele>118.5</ele><time>2026-05-01T18:33:56Z</time></trkpt><trkpt lat="45.48714649561744" lon="9.25158733924261"><ele>118.0</ele><time>2026-05-01T18:33:57Z</time></trkpt><trkpt lat="45.48739351372444" lon="9.251625548344098"><ele>118.0</ele><time>2026-05-01T18:33:58Z</time></trkpt><trkpt lat="45.487638852376094" lon="9.251664244955101"><ele>118.0</ele><time>2026-05-01T18:33:59Z</time></trkpt><trkpt lat="45.48788401095795" lon="9.25170395206565"><ele>118.5</ele><time>2026-05-01T18:34:00Z</time></trkpt><trkpt lat="45.48812786435648" lon="9.251740304013754"><ele>119.0</ele><time>2026-05-01T18:34:01Z</time></trkpt><trkpt lat="45.48837356383402" lon="9.251776185965245"><ele>119.0</ele><time>2026-05-01T18:34:02Z</time></trkpt><trkpt lat="45.48861728663479" lon="9.25181122347755"><ele>119.0</ele><time>2026-05-01T18:34:03Z</time></trkpt><trkpt lat="45.48886061274113" lon="9.25184540173809"><ele>120.0</ele><time>2026-05-01T18:34:04Z</time></trkpt><trkpt lat="45.48910432578831" lon="9.251875521520244"><ele>121.0</ele><time>2026-05-01T18:34:05Z</time></trkpt><trkpt lat="45.48935026498167" lon="9.251903601506081"><ele>121.0</ele><time>2026-05-01T18:34:06Z</time></trkpt><trkpt lat="45.48959524850539" lon="9.251930178479498"><ele>121.0</ele><time>2026-05-01T18:34:07Z</time></trkpt><trkpt lat="45.489845435833786" lon="9.251962013917254"><ele>121.0</ele><time>2026-05-01T18:34:08Z</time></trkpt><trkpt lat="45.49009730132211" lon="9.252003860902137"><ele>121.0</ele><time>2026-05-01T18:34:09Z</time></trkpt><trkpt lat="45.490349017375806" lon="9.252056338791272"><ele>123.5</ele><time>2026-05-01T18:34:10Z</time></trkpt><trkpt lat="45.490602349190965" lon="9.252112983309303"><ele>126.0</ele><time>2026-05-01T18:34:11Z</time></trkpt><trkpt lat="45.490852516138546" lon="9.252182310534142"><ele>126.0</ele><time>2026-05-01T18:34:12Z</time></trkpt><trkpt lat="45.49110080608563" lon="9.252263782080613"><ele>126.0</ele><time>2026-05-01T18:34:13Z</time></trkpt><trkpt lat="45.491346545812185" lon="9.252358491640877"><ele>125.5</ele><time>2026-05-01T18:34:14Z</time></trkpt><trkpt lat="45.49159107063969" lon="9.25245419247584"><ele>125.0</ele><time>2026-05-01T18:34:15Z</time></trkpt><trkpt lat="45.49182654238822" lon="9.25256500266932"><ele>125.0</ele><time>2026-05-01T18:34:16Z</time></trkpt><trkpt lat="45.49205910334019" lon="9.252684964255714"><ele>125.0</ele><time>2026-05-01T18:34:17Z</time></trkpt><trkpt lat="45.4922837245738" lon="9.252811025118863"><ele>123.0</ele><time>2026-05-01T18:34:18Z</time></trkpt><trkpt lat="45.492504216563184" lon="9.252945946425314"><ele>121.0</ele><time>2026-05-01T18:34:19Z</time></trkpt><trkpt lat="45.49272331889517" lon="9.253086667379584"><ele>121.0</ele><time>2026-05-01T18:34:20Z</time></trkpt><trkpt lat="45.49294023736199" lon="9.253229403105648"><ele>121.0</ele><time>2026-05-01T18:34:21Z</time></trkpt><trkpt lat="45.4931511412881" lon="9.25336996610298"><ele>121.0</ele><time>2026-05-01T18:34:22Z</time></trkpt><trkpt lat="45.49336155725052" lon="9.253512643470586"><ele>121.0</ele><time>2026-05-01T18:34:23Z</time></trkpt><trkpt lat="45.493570540830106" lon="9.253654052955888"><ele>119.5</ele><time>2026-05-01T18:34:24Z</time></trkpt><trkpt lat="45.4937809150181" lon="9.25379618302331"><ele>118.0</ele><time>2026-05-01T18:34:25Z</time></trkpt><trkpt lat="45.49399066796995" lon="9.25393341617226"><ele>119.0</ele><time>2026-05-01T18:34:26Z</time></trkpt><trkpt lat="45.494202338480996" lon="9.254072162022124"><ele>120.0</ele><time>2026-05-01T18:34:27Z</time></trkpt><trkpt lat="45.494413499929784" lon="9.25421258249804"><ele>120.0</ele><time>2026-05-01T18:34:28Z</time></trkpt><trkpt lat="45.49462839195009" lon="9.2543580878497"><ele>120.0</ele><time>2026-05-01T18:34:29Z</time></trkpt><trkpt lat="45.49484573308446" lon="9.25450253173724"><ele>120.0</ele><time>2026-05-01T18:34:30Z</time></trkpt><trkpt lat="45.49506688497744" lon="9.254647484378669"><ele>120.0</ele><time>2026-05-01T18:34:31Z</time></trkpt><trkpt lat="45.4952902249526" lon="9.25478923621611"><ele>121.5</ele><time>2026-05-01T18:34:32Z</time></trkpt><trkpt lat="45.49551613418055" lon="9.254923229890531"><ele>123.0</ele><time>2026-05-01T18:34:33Z</time></trkpt><trkpt lat="45.49574324911808" lon="9.255044671860576"><ele>123.0</ele><time>2026-05-01T18:34:34Z</time></trkpt><trkpt lat="45.49597436945212" lon="9.255160071103218"><ele>123.0</ele><time>2026-05-01T18:34:35Z</time></trkpt><trkpt lat="45.496212926718165" lon="9.255255150969235"><ele>121.0</ele><time>2026-05-01T18:34:36Z</time></trkpt><trkpt lat="45.496456411230845" lon="9.255332398927909"><ele>119.0</ele><time>2026-05-01T18:34:37Z</time></trkpt><trkpt lat="45.49669201711605" lon="9.255392939814772"><ele>119.0</ele><time>2026-05-01T18:34:38Z</time></trkpt><trkpt lat="45.496924517731614" lon="9.255441419741217"><ele>119.0</ele><time>2026-05-01T18:34:39Z</time></trkpt><trkpt lat="45.49716074454504" lon="9.255477646562042"><ele>121.5</ele><time>2026-05-01T18:34:40Z</time></trkpt><trkpt lat="45.49739687040623" lon="9.255507923825501"><ele>124.0</ele><time>2026-05-01T18:34:41Z</time></trkpt><trkpt lat="45.497635288088546" lon="9.255534154165991"><ele>124.0</ele><time>2026-05-01T18:34:42Z</time></trkpt><trkpt lat="45.49787442306456" lon="9.255563447818952"><ele>124.0</ele><time>2026-05-01T18:34:43Z</time></trkpt><trkpt lat="45.49812180507866" lon="9.255592452399974"><ele>125.0</ele><time>2026-05-01T18:34:44Z</time></trkpt><trkpt lat="45.498372519121794" lon="9.255619750572613"><ele>126.0</ele><time>2026-05-01T18:34:44.999Z</time></trkpt><trkpt lat="45.49863073399301" lon="9.255646405208324"><ele>126.0</ele><time>2026-05-01T18:34:45.999Z</time></trkpt><trkpt lat="45.49889296488143" lon="9.255671579416452"><ele>126.0</ele><time>2026-05-01T18:34:46.999Z</time></trkpt><trkpt lat="45.49915394781268" lon="9.255696651108412"><ele>126.0</ele><time>2026-05-01T18:34:47.999Z</time></trkpt><trkpt lat="45.49941557597334" lon="9.2557246807337"><ele>126.0</ele><time>2026-05-01T18:34:48.999Z</time></trkpt><trkpt lat="45.49967824617112" lon="9.255757227910332"><ele>125.0</ele><time>2026-05-01T18:34:49.999Z</time></trkpt><trkpt lat="45.49993810404477" lon="9.255791111547325"><ele>124.0</ele><time>2026-05-01T18:34:50.999Z</time></trkpt><trkpt lat="45.50019731867685" lon="9.255836954613944"><ele>122.5</ele><time>2026-05-01T18:34:51.999Z</time></trkpt><trkpt lat="45.50045386107406" lon="9.25589267417093"><ele>121.0</ele><time>2026-05-01T18:34:52.999Z</time></trkpt><trkpt lat="45.500707581656336" lon="9.25597262589358"><ele>121.0</ele><time>2026-05-01T18:34:53.999Z</time></trkpt><trkpt lat="45.50095557253857" lon="9.256087262403103"><ele>121.0</ele><time>2026-05-01T18:34:54.999Z</time></trkpt><trkpt lat="45.501196630649595" lon="9.256211277263558"><ele>121.5</ele><time>2026-05-01T18:34:55.999Z</time></trkpt><trkpt lat="45.50143507580108" lon="9.2563338067541"><ele>122.0</ele><time>2026-05-01T18:34:56.999Z</time></trkpt><trkpt lat="45.501674828557505" lon="9.256468373958828"><ele>121.0</ele><time>2026-05-01T18:34:57.999Z</time></trkpt><trkpt lat="45.50191458673359" lon="9.256610969025694"><ele>120.0</ele><time>2026-05-01T18:34:58.999Z</time></trkpt><trkpt lat="45.502155537581736" lon="9.256791546300342"><ele>120.0</ele><time>2026-05-01T18:34:59.999Z</time></trkpt><trkpt lat="45.502397769029436" lon="9.256938102112821"><ele>120.0</ele><time>2026-05-01T18:35:00.999Z</time></trkpt><trkpt lat="45.50263306100726" lon="9.257101917633129"><ele>120.0</ele><time>2026-05-01T18:35:01.999Z</time></trkpt><trkpt lat="45.50286386669396" lon="9.257279058849695"><ele>120.0</ele><time>2026-05-01T18:35:02.999Z</time></trkpt><trkpt lat="45.50316883303416" lon="9.257562998101912"><ele>120.0</ele><time>2026-05-01T18:35:03.999Z</time></trkpt><trkpt lat="45.503426325540836" lon="9.257762968782993"><ele>120.0</ele><time>2026-05-01T18:35:04.999Z</time></trkpt><trkpt lat="45.50368223244189" lon="9.257966266226557"><ele>121.5</ele><time>2026-05-01T18:35:05.999Z</time></trkpt><trkpt lat="45.503941409937156" lon="9.258165521123132"><ele>123.0</ele><time>2026-05-01T18:35:06.999Z</time></trkpt><trkpt lat="45.5042011316168" lon="9.25836378404267"><ele>123.0</ele><time>2026-05-01T18:35:07.999Z</time></trkpt><trkpt lat="45.50445388952207" lon="9.25856436634264"><ele>123.0</ele><time>2026-05-01T18:35:08.999Z</time></trkpt><trkpt lat="45.50470776468674" lon="9.258761795637175"><ele>124.5</ele><time>2026-05-01T18:35:09.999Z</time></trkpt><trkpt lat="45.50495996077158" lon="9.258961923605845"><ele>126.0</ele><time>2026-05-01T18:35:10.999Z</time></trkpt><trkpt lat="45.50520461684709" lon="9.25916559104014"><ele>123.5</ele><time>2026-05-01T18:35:11.999Z</time></trkpt><trkpt lat="45.50545203339073" lon="9.259361995099946"><ele>121.0</ele><time>2026-05-01T18:35:12.999Z</time></trkpt><trkpt lat="45.50569688119522" lon="9.259556297744313"><ele>121.0</ele><time>2026-05-01T18:35:13.999Z</time></trkpt><trkpt lat="45.50593970678094" lon="9.259744990564133"><ele>121.0</ele><time>2026-05-01T18:35:14.999Z</time></trkpt><trkpt lat="45.50617978123055" lon="9.259931362045608"><ele>122.0</ele><time>2026-05-01T18:35:15.999Z</time></trkpt><trkpt lat="45.50641625426265" lon="9.260115899757713"><ele>123.0</ele><time>2026-05-01T18:35:16.999Z</time></trkpt><trkpt lat="45.50664597913336" lon="9.26029863356249"><ele>123.0</ele><time>2026-05-01T18:35:17.999Z</time></trkpt><trkpt lat="45.506871901392145" lon="9.26047948111961"><ele>123.0</ele><time>2026-05-01T18:35:18.999Z</time></trkpt><trkpt lat="45.507097187214846" lon="9.260657061751761"><ele>123.5</ele><time>2026-05-01T18:35:19.999Z</time></trkpt><trkpt lat="45.50731982449409" lon="9.260830864800292"><ele>124.0</ele><time>2026-05-01T18:35:20.999Z</time></trkpt><trkpt lat="45.50754051669463" lon="9.261003097288887"><ele>124.0</ele><time>2026-05-01T18:35:21.999Z</time></trkpt><trkpt lat="45.50776063101893" lon="9.261171564243744"><ele>124.0</ele><time>2026-05-01T18:35:22.999Z</time></trkpt><trkpt lat="45.50798452245058" lon="9.261336464405291"><ele>124.5</ele><time>2026-05-01T18:35:23.999Z</time></trkpt><trkpt lat="45.508202679650466" lon="9.261497485261787"><ele>125.0</ele><time>2026-05-01T18:35:24.999Z</time></trkpt><trkpt lat="45.50842642612989" lon="9.261646138092104"><ele>125.0</ele><time>2026-05-01T18:35:25.999Z</time></trkpt><trkpt lat="45.508648401122976" lon="9.261758281057984"><ele>125.0</ele><time>2026-05-01T18:35:26.999Z</time></trkpt><trkpt lat="45.50887535174239" lon="9.261839858288253"><ele>124.5</ele><time>2026-05-01T18:35:27.999Z</time></trkpt><trkpt lat="45.50910691259391" lon="9.2619032801865"><ele>124.0</ele><time>2026-05-01T18:35:28.999Z</time></trkpt><trkpt lat="45.50934354686564" lon="9.261951867647552"><ele>124.5</ele><time>2026-05-01T18:35:29.999Z</time></trkpt><trkpt lat="45.509580584679036" lon="9.26198417088517"><ele>125.0</ele><time>2026-05-01T18:35:30.999Z</time></trkpt><trkpt lat="45.50981976693235" lon="9.26199236065315"><ele>125.0</ele><time>2026-05-01T18:35:31.999Z</time></trkpt><trkpt lat="45.51005540544035" lon="9.261978963710469"><ele>125.0</ele><time>2026-05-01T18:35:32.999Z</time></trkpt><trkpt lat="45.51028970438715" lon="9.261943479663593"><ele>125.0</ele><time>2026-05-01T18:35:33.999Z</time></trkpt><trkpt lat="45.510525018048504" lon="9.261885503490895"><ele>125.0</ele><time>2026-05-01T18:35:35Z</time></trkpt><trkpt lat="45.51075953938407" lon="9.261809811146838"><ele>125.0</ele><time>2026-05-01T18:35:36Z</time></trkpt><trkpt lat="45.51099226262074" lon="9.261721445600338"><ele>125.0</ele><time>2026-05-01T18:35:37Z</time></trkpt><trkpt lat="45.51123388552022" lon="9.261650708667695"><ele>126.5</ele><time>2026-05-01T18:35:38Z</time></trkpt><trkpt lat="45.511472130011846" lon="9.26161803344843"><ele>128.0</ele><time>2026-05-01T18:35:39Z</time></trkpt><trkpt lat="45.51171923807664" lon="9.261587495476988"><ele>128.0</ele><time>2026-05-01T18:35:40Z</time></trkpt><trkpt lat="45.51194449052726" lon="9.261643498016154"><ele>128.0</ele><time>2026-05-01T18:35:41Z</time></trkpt><trkpt lat="45.512173313109436" lon="9.261699523031913"><ele>127.66666666666666</ele><time>2026-05-01T18:35:42Z</time></trkpt><trkpt lat="45.512391290397815" lon="9.261774601531641"><ele>127.33333333333334</ele><time>2026-05-01T18:35:43Z</time></trkpt><trkpt lat="45.51260285905652" lon="9.261858425454708"><ele>127.0</ele><time>2026-05-01T18:35:44Z</time></trkpt><trkpt lat="45.51280524967589" lon="9.26194433492299"><ele>128.0</ele><time>2026-05-01T18:35:45Z</time></trkpt><trkpt lat="45.513015851258515" lon="9.262022290432343"><ele>129.0</ele><time>2026-05-01T18:35:46Z</time></trkpt><trkpt lat="45.51322693409621" lon="9.262094871283042"><ele>130.0</ele><time>2026-05-01T18:35:47Z</time></trkpt><trkpt lat="45.51344486845921" lon="9.26214725292819"><ele>130.0</ele><time>2026-05-01T18:35:48Z</time></trkpt><trkpt lat="45.513668290955785" lon="9.262168553561878"><ele>130.0</ele><time>2026-05-01T18:35:49Z</time></trkpt><trkpt lat="45.513879574667115" lon="9.262239605305846"><ele>130.0</ele><time>2026-05-01T18:35:50Z</time></trkpt><trkpt lat="45.51413059383716" lon="9.262134494644096"><ele>130.5</ele><time>2026-05-01T18:35:51Z</time></trkpt><trkpt lat="45.51437412039457" lon="9.262137161299696"><ele>131.0</ele><time>2026-05-01T18:35:52Z</time></trkpt><trkpt lat="45.514619738985566" lon="9.262126090479162"><ele>130.0</ele><time>2026-05-01T18:35:53Z</time></trkpt><trkpt lat="45.514862296825164" lon="9.262113554342307"><ele>129.0</ele><time>2026-05-01T18:35:54Z</time></trkpt><trkpt lat="45.51510341214971" lon="9.262100032497248"><ele>129.0</ele><time>2026-05-01T18:35:55Z</time></trkpt><trkpt lat="45.51534833354571" lon="9.262081446680524"><ele>129.0</ele><time>2026-05-01T18:35:56Z</time></trkpt><trkpt lat="45.51559426220741" lon="9.262056387368887"><ele>128.5</ele><time>2026-05-01T18:35:57Z</time></trkpt><trkpt lat="45.515837056917356" lon="9.262028082358317"><ele>128.0</ele><time>2026-05-01T18:35:58Z</time></trkpt><trkpt lat="45.51607998427582" lon="9.261998650021319"><ele>126.5</ele><time>2026-05-01T18:35:59Z</time></trkpt><trkpt lat="45.516326102724875" lon="9.26195623771423"><ele>125.0</ele><time>2026-05-01T18:36:00Z</time></trkpt><trkpt lat="45.51657156058688" lon="9.261915189158072"><ele>125.0</ele><time>2026-05-01T18:36:01Z</time></trkpt><trkpt lat="45.51681762329525" lon="9.261872079307954"><ele>125.0</ele><time>2026-05-01T18:36:02Z</time></trkpt><trkpt lat="45.51706432064643" lon="9.261832979768519"><ele>124.0</ele><time>2026-05-01T18:36:03Z</time></trkpt><trkpt lat="45.517311234114466" lon="9.261794704346492"><ele>123.0</ele><time>2026-05-01T18:36:04Z</time></trkpt><trkpt lat="45.51755854003316" lon="9.261751208736074"><ele>123.0</ele><time>2026-05-01T18:36:05Z</time></trkpt><trkpt lat="45.517809961923035" lon="9.261714151693283"><ele>123.0</ele><time>2026-05-01T18:36:06Z</time></trkpt><trkpt lat="45.518059512053576" lon="9.261675961715392"><ele>124.0</ele><time>2026-05-01T18:36:07Z</time></trkpt><trkpt lat="45.518312948353" lon="9.261638167158189"><ele>125.0</ele><time>2026-05-01T18:36:08Z</time></trkpt><trkpt lat="45.51856504085472" lon="9.261599390056537"><ele>127.0</ele><time>2026-05-01T18:36:09Z</time></trkpt><trkpt lat="45.51881995752308" lon="9.261559644461094"><ele>129.0</ele><time>2026-05-01T18:36:10Z</time></trkpt><trkpt lat="45.5190744531442" lon="9.261518704623501"><ele>129.0</ele><time>2026-05-01T18:36:11Z</time></trkpt><trkpt lat="45.51932818570933" lon="9.261477690375553"><ele>129.0</ele><time>2026-05-01T18:36:12Z</time></trkpt><trkpt lat="45.519582074742004" lon="9.261436442212691"><ele>129.5</ele><time>2026-05-01T18:36:13Z</time></trkpt><trkpt lat="45.51983590541484" lon="9.261384691786587"><ele>130.0</ele><time>2026-05-01T18:36:14Z</time></trkpt><trkpt lat="45.52008719765939" lon="9.261329557763856"><ele>130.0</ele><time>2026-05-01T18:36:15Z</time></trkpt><trkpt lat="45.520333441577975" lon="9.261260012015878"><ele>130.0</ele><time>2026-05-01T18:36:16Z</time></trkpt><trkpt lat="45.52058201923944" lon="9.261194057590812"><ele>129.5</ele><time>2026-05-01T18:36:17Z</time></trkpt><trkpt lat="45.520830438585065" lon="9.261124019326669"><ele>129.0</ele><time>2026-05-01T18:36:18Z</time></trkpt><trkpt lat="45.52107895916878" lon="9.261052799119293"><ele>130.0</ele><time>2026-05-01T18:36:19Z</time></trkpt><trkpt lat="45.521328036742794" lon="9.26098322556805"><ele>131.0</ele><time>2026-05-01T18:36:20Z</time></trkpt><trkpt lat="45.52157907747401" lon="9.260912036165335"><ele>131.0</ele><time>2026-05-01T18:36:21Z</time></trkpt><trkpt lat="45.52182539754741" lon="9.260838753636964"><ele>131.0</ele><time>2026-05-01T18:36:22Z</time></trkpt><trkpt lat="45.522076851102895" lon="9.260770444148049"><ele>129.5</ele><time>2026-05-01T18:36:23Z</time></trkpt><trkpt lat="45.52232551374275" lon="9.260701438636325"><ele>128.0</ele><time>2026-05-01T18:36:24Z</time></trkpt><trkpt lat="45.522575297514905" lon="9.260638622650992"><ele>128.0</ele><time>2026-05-01T18:36:25Z</time></trkpt><trkpt lat="45.52282933590386" lon="9.260591117715766"><ele>128.0</ele><time>2026-05-01T18:36:26Z</time></trkpt><trkpt lat="45.52308051890612" lon="9.260558413076922"><ele>129.0</ele><time>2026-05-01T18:36:27Z</time></trkpt><trkpt lat="45.52333132414838" lon="9.26054521805087"><ele>130.0</ele><time>2026-05-01T18:36:28Z</time></trkpt><trkpt lat="45.52357654666866" lon="9.26057457631528"><ele>131.0</ele><time>2026-05-01T18:36:29Z</time></trkpt><trkpt lat="45.52382117021871" lon="9.260644368729054"><ele>132.0</ele><time>2026-05-01T18:36:30Z</time></trkpt><trkpt lat="45.52406128573132" lon="9.260740553152425"><ele>132.0</ele><time>2026-05-01T18:36:31Z</time></trkpt><trkpt lat="45.524292258385465" lon="9.260849584920328"><ele>132.0</ele><time>2026-05-01T18:36:32Z</time></trkpt><trkpt lat="45.524523696506996" lon="9.260977980800597"><ele>130.5</ele><time>2026-05-01T18:36:33Z</time></trkpt><trkpt lat="45.52474230017376" lon="9.261157310691386"><ele>129.0</ele><time>2026-05-01T18:36:34Z</time></trkpt><trkpt lat="45.524951319054665" lon="9.261347762959549"><ele>130.0</ele><time>2026-05-01T18:36:35Z</time></trkpt><trkpt lat="45.525149237104685" lon="9.261563917847752"><ele>131.0</ele><time>2026-05-01T18:36:36Z</time></trkpt><trkpt lat="45.525332669997056" lon="9.261799344428937"><ele>132.0</ele><time>2026-05-01T18:36:37Z</time></trkpt><trkpt lat="45.52550028208791" lon="9.26206119826753"><ele>133.0</ele><time>2026-05-01T18:36:38Z</time></trkpt><trkpt lat="45.525654076095535" lon="9.262336538712063"><ele>133.0</ele><time>2026-05-01T18:36:39Z</time></trkpt><trkpt lat="45.525796544047104" lon="9.262629954563597"><ele>133.0</ele><time>2026-05-01T18:36:40Z</time></trkpt><trkpt lat="45.52592501170519" lon="9.262934251180917"><ele>134.0</ele><time>2026-05-01T18:36:41Z</time></trkpt><trkpt lat="45.52603965894071" lon="9.263255129190506"><ele>135.0</ele><time>2026-05-01T18:36:42Z</time></trkpt><trkpt lat="45.52614226945471" lon="9.263585732393064"><ele>135.5</ele><time>2026-05-01T18:36:43Z</time></trkpt><trkpt lat="45.52625533348842" lon="9.263911574768901"><ele>136.0</ele><time>2026-05-01T18:36:44Z</time></trkpt><trkpt lat="45.5263772447921" lon="9.26422043038517"><ele>136.5</ele><time>2026-05-01T18:36:45Z</time></trkpt><trkpt lat="45.5265123077794" lon="9.264506852265677"><ele>137.0</ele><time>2026-05-01T18:36:46Z</time></trkpt><trkpt lat="45.52665677042602" lon="9.264771714702471"><ele>137.0</ele><time>2026-05-01T18:36:47Z</time></trkpt><trkpt lat="45.52680843586827" lon="9.265019480621651"><ele>137.0</ele><time>2026-05-01T18:36:48Z</time></trkpt><trkpt lat="45.526968003534236" lon="9.265250851769357"><ele>137.5</ele><time>2026-05-01T18:36:49Z</time></trkpt><trkpt lat="45.527137086513356" lon="9.26546490082071"><ele>138.0</ele><time>2026-05-01T18:36:50Z</time></trkpt><trkpt lat="45.52732065790676" lon="9.265660326759946"><ele>138.0</ele><time>2026-05-01T18:36:51Z</time></trkpt><trkpt lat="45.52751207091848" lon="9.265845957007514"><ele>138.0</ele><time>2026-05-01T18:36:52Z</time></trkpt><trkpt lat="45.52771675952347" lon="9.26601629032185"><ele>138.5</ele><time>2026-05-01T18:36:53Z</time></trkpt><trkpt lat="45.52793494944443" lon="9.266181303822636"><ele>139.0</ele><time>2026-05-01T18:36:54Z</time></trkpt><trkpt lat="45.52815897031935" lon="9.26634929004494"><ele>137.5</ele><time>2026-05-01T18:36:55Z</time></trkpt><trkpt lat="45.52838320770855" lon="9.266523708953388"><ele>136.0</ele><time>2026-05-01T18:36:56Z</time></trkpt><trkpt lat="45.528608161774606" lon="9.266706270000176"><ele>135.0</ele><time>2026-05-01T18:36:57Z</time></trkpt><trkpt lat="45.5288333216931" lon="9.266891605399842"><ele>134.0</ele><time>2026-05-01T18:36:58Z</time></trkpt><trkpt lat="45.52905895660814" lon="9.267084219262236"><ele>135.5</ele><time>2026-05-01T18:36:59Z</time></trkpt><trkpt lat="45.529281621727435" lon="9.26728546884818"><ele>137.0</ele><time>2026-05-01T18:37:00Z</time></trkpt><trkpt lat="45.52949015500019" lon="9.267514283586358"><ele>135.5</ele><time>2026-05-01T18:37:01Z</time></trkpt><trkpt lat="45.529690873684274" lon="9.26775812014833"><ele>134.0</ele><time>2026-05-01T18:37:01.999Z</time></trkpt><trkpt lat="45.52987636355627" lon="9.268022617617529"><ele>135.0</ele><time>2026-05-01T18:37:02.999Z</time></trkpt><trkpt lat="45.530055282132366" lon="9.26830237158842"><ele>136.0</ele><time>2026-05-01T18:37:03.999Z</time></trkpt><trkpt lat="45.53022207103837" lon="9.268596424953161"><ele>136.0</ele><time>2026-05-01T18:37:04.999Z</time></trkpt><trkpt lat="45.53038074018002" lon="9.268904095541291"><ele>136.0</ele><time>2026-05-01T18:37:05.999Z</time></trkpt><trkpt lat="45.53053462701653" lon="9.269220289669894"><ele>136.0</ele><time>2026-05-01T18:37:06.999Z</time></trkpt><trkpt lat="45.53068787243012" lon="9.26953817147199"><ele>136.0</ele><time>2026-05-01T18:37:07.999Z</time></trkpt><trkpt lat="45.53084189080583" lon="9.269858558414557"><ele>136.0</ele><time>2026-05-01T18:37:08.999Z</time></trkpt><trkpt lat="45.53099759540061" lon="9.270176456586636"><ele>136.0</ele><time>2026-05-01T18:37:09.999Z</time></trkpt><trkpt lat="45.53115409906496" lon="9.270491044833367"><ele>135.5</ele><time>2026-05-01T18:37:10.999Z</time></trkpt><trkpt lat="45.531309945326235" lon="9.270809089965526"><ele>135.0</ele><time>2026-05-01T18:37:11.999Z</time></trkpt><trkpt lat="45.53146378065489" lon="9.27112457697707"><ele>135.0</ele><time>2026-05-01T18:37:12.999Z</time></trkpt><trkpt lat="45.53162003718878" lon="9.27143640596191"><ele>135.0</ele><time>2026-05-01T18:37:13.999Z</time></trkpt><trkpt lat="45.53179377146911" lon="9.2717767300167"><ele>135.0</ele><time>2026-05-01T18:37:14.999Z</time></trkpt><trkpt lat="45.531954275092644" lon="9.272091027371827"><ele>135.0</ele><time>2026-05-01T18:37:15.999Z</time></trkpt><trkpt lat="45.53211813100238" lon="9.272426359667568"><ele>135.0</ele><time>2026-05-01T18:37:16.999Z</time></trkpt><trkpt lat="45.532275873887706" lon="9.272760262815558"><ele>135.0</ele><time>2026-05-01T18:37:17.999Z</time></trkpt><trkpt lat="45.53243152017093" lon="9.273097122854159"><ele>135.5</ele><time>2026-05-01T18:37:18.999Z</time></trkpt><trkpt lat="45.53258453133" lon="9.273427812194713"><ele>136.0</ele><time>2026-05-01T18:37:19.999Z</time></trkpt><trkpt lat="45.532735738185714" lon="9.273745322955659"><ele>136.5</ele><time>2026-05-01T18:37:20.999Z</time></trkpt><trkpt lat="45.5328842955984" lon="9.274057850303299"><ele>137.0</ele><time>2026-05-01T18:37:21.999Z</time></trkpt><trkpt lat="45.5330252044887" lon="9.274356545787816"><ele>137.0</ele><time>2026-05-01T18:37:22.999Z</time></trkpt><trkpt lat="45.533161829737494" lon="9.274648368542813"><ele>137.0</ele><time>2026-05-01T18:37:23.999Z</time></trkpt><trkpt lat="45.53329984291086" lon="9.274934532736596"><ele>136.5</ele><time>2026-05-01T18:37:24.999Z</time></trkpt><trkpt lat="45.53343490101281" lon="9.275219897049663"><ele>136.0</ele><time>2026-05-01T18:37:25.999Z</time></trkpt><trkpt lat="45.53356535219456" lon="9.275498315167404"><ele>136.0</ele><time>2026-05-01T18:37:26.999Z</time></trkpt><trkpt lat="45.533693711028405" lon="9.275770051687868"><ele>136.0</ele><time>2026-05-01T18:37:27.999Z</time></trkpt><trkpt lat="45.53381987116363" lon="9.276039453552094"><ele>136.0</ele><time>2026-05-01T18:37:28.999Z</time></trkpt><trkpt lat="45.53394684801418" lon="9.276317805306634"><ele>136.0</ele><time>2026-05-01T18:37:29.999Z</time></trkpt><trkpt lat="45.53407806989655" lon="9.276600639161186"><ele>135.5</ele><time>2026-05-01T18:37:30.999Z</time></trkpt><trkpt lat="45.53420823769641" lon="9.276883924760838"><ele>135.0</ele><time>2026-05-01T18:37:31.999Z</time></trkpt><trkpt lat="45.534340744897186" lon="9.277164351329025"><ele>136.0</ele><time>2026-05-01T18:37:32.999Z</time></trkpt><trkpt lat="45.534472922057944" lon="9.277449137135008"><ele>137.0</ele><time>2026-05-01T18:37:33.999Z</time></trkpt><trkpt lat="45.53460265256681" lon="9.277728214339817"><ele>137.0</ele><time>2026-05-01T18:37:34.999Z</time></trkpt><trkpt lat="45.5347327890454" lon="9.278004916238306"><ele>137.0</ele><time>2026-05-01T18:37:35.999Z</time></trkpt><trkpt lat="45.534864178551985" lon="9.278287342147333"><ele>137.0</ele><time>2026-05-01T18:37:36.999Z</time></trkpt><trkpt lat="45.53499481592736" lon="9.278568675642862"><ele>137.0</ele><time>2026-05-01T18:37:37.999Z</time></trkpt><trkpt lat="45.53513222102878" lon="9.278850014696209"><ele>137.5</ele><time>2026-05-01T18:37:38.999Z</time></trkpt><trkpt lat="45.535271067506734" lon="9.279128741026492"><ele>138.0</ele><time>2026-05-01T18:37:39.999Z</time></trkpt><trkpt lat="45.535401977303614" lon="9.279403327383193"><ele>137.5</ele><time>2026-05-01T18:37:41Z</time></trkpt><trkpt lat="45.53553049433008" lon="9.279675873416133"><ele>137.0</ele><time>2026-05-01T18:37:42Z</time></trkpt><trkpt lat="45.53566184238773" lon="9.279947823963644"><ele>137.0</ele><time>2026-05-01T18:37:43Z</time></trkpt><trkpt lat="45.53579319492423" lon="9.280221135388487"><ele>137.0</ele><time>2026-05-01T18:37:44Z</time></trkpt><trkpt lat="45.53593220960421" lon="9.280487944778837"><ele>137.5</ele><time>2026-05-01T18:37:45Z</time></trkpt><trkpt lat="45.53607015122575" lon="9.280759953455288"><ele>138.0</ele><time>2026-05-01T18:37:46Z</time></trkpt><trkpt lat="45.53620813538462" lon="9.281028617194936"><ele>138.0</ele><time>2026-05-01T18:37:47Z</time></trkpt><trkpt lat="45.53634618422871" lon="9.281298658396407"><ele>138.0</ele><time>2026-05-01T18:37:48Z</time></trkpt><trkpt lat="45.53648317608808" lon="9.281568834558392"><ele>138.0</ele><time>2026-05-01T18:37:49Z</time></trkpt><trkpt lat="45.536615041757564" lon="9.28183096813892"><ele>138.0</ele><time>2026-05-01T18:37:50Z</time></trkpt><trkpt lat="45.53674777362362" lon="9.282090327832817"><ele>138.33333333333334</ele><time>2026-05-01T18:37:51Z</time></trkpt><trkpt lat="45.5368820607075" lon="9.282348730177691"><ele>138.66666666666669</ele><time>2026-05-01T18:37:52Z</time></trkpt><trkpt lat="45.537011371807715" lon="9.282607358213541"><ele>139.0</ele><time>2026-05-01T18:37:53Z</time></trkpt><trkpt lat="45.53713259970704" lon="9.282854423154962"><ele>139.0</ele><time>2026-05-01T18:37:54Z</time></trkpt><trkpt lat="45.53725073485451" lon="9.283084232659613"><ele>139.0</ele><time>2026-05-01T18:37:55Z</time></trkpt><trkpt lat="45.53736938154395" lon="9.283310772935618"><ele>139.0</ele><time>2026-05-01T18:37:56Z</time></trkpt><trkpt lat="45.53747899037029" lon="9.283536970251758"><ele>139.0</ele><time>2026-05-01T18:37:57Z</time></trkpt><trkpt lat="45.53757963379399" lon="9.283764820131873"><ele>139.0</ele><time>2026-05-01T18:37:58Z</time></trkpt><trkpt lat="45.537672657892976" lon="9.284004002524261"><ele>139.0</ele><time>2026-05-01T18:37:59Z</time></trkpt><trkpt lat="45.53775339809296" lon="9.28425171327117"><ele>140.0</ele><time>2026-05-01T18:38:00Z</time></trkpt><trkpt lat="45.53781228877169" lon="9.284513691946767"><ele>141.0</ele><time>2026-05-01T18:38:01Z</time></trkpt><trkpt lat="45.537858392254215" lon="9.284782448134669"><ele>142.0</ele><time>2026-05-01T18:38:02Z</time></trkpt><trkpt lat="45.53788680713352" lon="9.28505400490508"><ele>140.33333333333334</ele><time>2026-05-01T18:38:03Z</time></trkpt><trkpt lat="45.53790429749796" lon="9.285324928753838"><ele>138.66666666666666</ele><time>2026-05-01T18:38:04Z</time></trkpt><trkpt lat="45.53790924707738" lon="9.285600023689302"><ele>137.0</ele><time>2026-05-01T18:38:05Z</time></trkpt><trkpt lat="45.537900503250036" lon="9.285874738356243"><ele>137.0</ele><time>2026-05-01T18:38:06Z</time></trkpt><trkpt lat="45.537889263961425" lon="9.286149270817557"><ele>137.0</ele><time>2026-05-01T18:38:07Z</time></trkpt><trkpt lat="45.53785404824849" lon="9.28642576098949"><ele>137.0</ele><time>2026-05-01T18:38:08Z</time></trkpt><trkpt lat="45.537801338229066" lon="9.286699919796309"><ele>136.66666666666666</ele><time>2026-05-01T18:38:09Z</time></trkpt><trkpt lat="45.53773367937272" lon="9.286966928895446"><ele>136.33333333333334</ele><time>2026-05-01T18:38:10Z</time></trkpt><trkpt lat="45.537652426647746" lon="9.287241347543802"><ele>136.0</ele><time>2026-05-01T18:38:11Z</time></trkpt><trkpt lat="45.53756308130581" lon="9.28751639231971"><ele>136.0</ele><time>2026-05-01T18:38:12Z</time></trkpt><trkpt lat="45.53745229034526" lon="9.287796706225908"><ele>136.0</ele><time>2026-05-01T18:38:13Z</time></trkpt><trkpt lat="45.5373442585423" lon="9.288075244109113"><ele>136.0</ele><time>2026-05-01T18:38:14Z</time></trkpt><trkpt lat="45.53723567456423" lon="9.288356473844843"><ele>135.5</ele><time>2026-05-01T18:38:15Z</time></trkpt><trkpt lat="45.53713186162199" lon="9.28864616867238"><ele>135.0</ele><time>2026-05-01T18:38:16Z</time></trkpt><trkpt lat="45.537036154703195" lon="9.28894821097058"><ele>133.5</ele><time>2026-05-01T18:38:17Z</time></trkpt><trkpt lat="45.53695760476002" lon="9.289262306715937"><ele>132.0</ele><time>2026-05-01T18:38:18Z</time></trkpt><trkpt lat="45.536891698297794" lon="9.289603582567397"><ele>133.5</ele><time>2026-05-01T18:38:19Z</time></trkpt><trkpt lat="45.53683585882554" lon="9.289974270343842"><ele>135.0</ele><time>2026-05-01T18:38:20Z</time></trkpt><trkpt lat="45.53679841623932" lon="9.290338882826614"><ele>135.0</ele><time>2026-05-01T18:38:21Z</time></trkpt><trkpt lat="45.536778776442546" lon="9.290708561400033"><ele>135.0</ele><time>2026-05-01T18:38:22Z</time></trkpt><trkpt lat="45.53676954144417" lon="9.291077343359056"><ele>133.5</ele><time>2026-05-01T18:38:23Z</time></trkpt><trkpt lat="45.53677772595918" lon="9.291452429506528"><ele>132.0</ele><time>2026-05-01T18:38:24Z</time></trkpt><trkpt lat="45.536813000704065" lon="9.291827376837336"><ele>132.0</ele><time>2026-05-01T18:38:25Z</time></trkpt><trkpt lat="45.53685415742399" lon="9.292211193191358"><ele>132.0</ele><time>2026-05-01T18:38:26Z</time></trkpt><trkpt lat="45.53690298591471" lon="9.292604526320439"><ele>133.5</ele><time>2026-05-01T18:38:27Z</time></trkpt><trkpt lat="45.53695645845969" lon="9.293014531785543"><ele>135.0</ele><time>2026-05-01T18:38:28Z</time></trkpt><trkpt lat="45.53700778990549" lon="9.293435426782276"><ele>137.0</ele><time>2026-05-01T18:38:29Z</time></trkpt><trkpt lat="45.53705329550909" lon="9.293863242303631"><ele>139.0</ele><time>2026-05-01T18:38:30Z</time></trkpt><trkpt lat="45.53709313038237" lon="9.29429062826466"><ele>139.5</ele><time>2026-05-01T18:38:31Z</time></trkpt><trkpt lat="45.53713214775041" lon="9.2947124897351"><ele>140.0</ele><time>2026-05-01T18:38:32Z</time></trkpt><trkpt lat="45.53717041812619" lon="9.295132501469835"><ele>140.0</ele><time>2026-05-01T18:38:33Z</time></trkpt><trkpt lat="45.5372142396019" lon="9.295540857185998"><ele>140.0</ele><time>2026-05-01T18:38:34Z</time></trkpt><trkpt lat="45.537247782738014" lon="9.295945950780716"><ele>137.0</ele><time>2026-05-01T18:38:35Z</time></trkpt><trkpt lat="45.53729096535111" lon="9.296341730887143"><ele>134.0</ele><time>2026-05-01T18:38:36Z</time></trkpt><trkpt lat="45.53733793939072" lon="9.296729593175911"><ele>133.5</ele><time>2026-05-01T18:38:37Z</time></trkpt><trkpt lat="45.53738762693053" lon="9.29711342069833"><ele>133.0</ele><time>2026-05-01T18:38:38Z</time></trkpt><trkpt lat="45.537404383780355" lon="9.297511973189945"><ele>133.5</ele><time>2026-05-01T18:38:39Z</time></trkpt><trkpt lat="45.53744752418379" lon="9.297895716036443"><ele>134.0</ele><time>2026-05-01T18:38:40Z</time></trkpt><trkpt lat="45.537486998021194" lon="9.298281858394612"><ele>134.0</ele><time>2026-05-01T18:38:41Z</time></trkpt><trkpt lat="45.53753196588511" lon="9.298667227175594"><ele>134.0</ele><time>2026-05-01T18:38:42Z</time></trkpt><trkpt lat="45.537575688250364" lon="9.299051345979152"><ele>133.0</ele><time>2026-05-01T18:38:43Z</time></trkpt><trkpt lat="45.53761817661674" lon="9.299434355847405"><ele>132.0</ele><time>2026-05-01T18:38:44Z</time></trkpt><trkpt lat="45.537659704418054" lon="9.29981587523155"><ele>132.0</ele><time>2026-05-01T18:38:45Z</time></trkpt><trkpt lat="45.53770256550477" lon="9.30019721468702"><ele>132.0</ele><time>2026-05-01T18:38:46Z</time></trkpt><trkpt lat="45.53774316270537" lon="9.300576630702302"><ele>133.0</ele><time>2026-05-01T18:38:47Z</time></trkpt><trkpt lat="45.537785977071884" lon="9.300951556089052"><ele>134.0</ele><time>2026-05-01T18:38:48Z</time></trkpt><trkpt lat="45.53782526326898" lon="9.301331302922822"><ele>133.5</ele><time>2026-05-01T18:38:49Z</time></trkpt><trkpt lat="45.53786496057181" lon="9.301711124585676"><ele>133.0</ele><time>2026-05-01T18:38:50Z</time></trkpt><trkpt lat="45.537898663024905" lon="9.302093876887131"><ele>134.5</ele><time>2026-05-01T18:38:51Z</time></trkpt><trkpt lat="45.53793409510941" lon="9.302470667674418"><ele>136.0</ele><time>2026-05-01T18:38:52Z</time></trkpt><trkpt lat="45.5379662011742" lon="9.302850396430996"><ele>134.5</ele><time>2026-05-01T18:38:53Z</time></trkpt><trkpt lat="45.53800032359535" lon="9.303224914861202"><ele>133.0</ele><time>2026-05-01T18:38:54Z</time></trkpt><trkpt lat="45.538036367662414" lon="9.303598670856926"><ele>133.5</ele><time>2026-05-01T18:38:55Z</time></trkpt><trkpt lat="45.538073842360205" lon="9.303963817496646"><ele>134.0</ele><time>2026-05-01T18:38:56Z</time></trkpt><trkpt lat="45.53810977187797" lon="9.304326822296776"><ele>134.0</ele><time>2026-05-01T18:38:57Z</time></trkpt><trkpt lat="45.5381493311215" lon="9.30468566166176"><ele>134.0</ele><time>2026-05-01T18:38:57.999Z</time></trkpt><trkpt lat="45.538185242766914" lon="9.305042947768708"><ele>134.5</ele><time>2026-05-01T18:38:58.999Z</time></trkpt><trkpt lat="45.53822719705319" lon="9.305397515959255"><ele>135.0</ele><time>2026-05-01T18:38:59.999Z</time></trkpt><trkpt lat="45.53826659465348" lon="9.305747576612255"><ele>134.0</ele><time>2026-05-01T18:39:00.999Z</time></trkpt><trkpt lat="45.53829759493199" lon="9.306089455326397"><ele>133.0</ele><time>2026-05-01T18:39:01.999Z</time></trkpt><trkpt lat="45.53833564311531" lon="9.306432604867519"><ele>133.0</ele><time>2026-05-01T18:39:02.999Z</time></trkpt><trkpt lat="45.53837603095398" lon="9.30677316266224"><ele>133.0</ele><time>2026-05-01T18:39:03.999Z</time></trkpt><trkpt lat="45.53841907335759" lon="9.307121372473864"><ele>135.0</ele><time>2026-05-01T18:39:04.999Z</time></trkpt><trkpt lat="45.53845727862347" lon="9.307478303215257"><ele>137.0</ele><time>2026-05-01T18:39:05.999Z</time></trkpt><trkpt lat="45.53849308113427" lon="9.307831739135686"><ele>137.5</ele><time>2026-05-01T18:39:06.999Z</time></trkpt><trkpt lat="45.53852274540789" lon="9.308188440612165"><ele>138.0</ele><time>2026-05-01T18:39:07.999Z</time></trkpt><trkpt lat="45.5385599893153" lon="9.308535963274519"><ele>138.0</ele><time>2026-05-01T18:39:08.999Z</time></trkpt><trkpt lat="45.53859329888137" lon="9.30888255404111"><ele>138.0</ele><time>2026-05-01T18:39:09.999Z</time></trkpt><trkpt lat="45.53863053116461" lon="9.309222896531683"><ele>137.0</ele><time>2026-05-01T18:39:10.999Z</time></trkpt><trkpt lat="45.53866530189408" lon="9.309565235437919"><ele>136.0</ele><time>2026-05-01T18:39:11.999Z</time></trkpt><trkpt lat="45.5387007315897" lon="9.309906636144751"><ele>136.5</ele><time>2026-05-01T18:39:12.999Z</time></trkpt><trkpt lat="45.53873516334395" lon="9.310249995261692"><ele>137.0</ele><time>2026-05-01T18:39:13.999Z</time></trkpt><trkpt lat="45.53877316792655" lon="9.31059078447436"><ele>136.0</ele><time>2026-05-01T18:39:14.999Z</time></trkpt><trkpt lat="45.5388117801042" lon="9.310932183330443"><ele>135.0</ele><time>2026-05-01T18:39:15.999Z</time></trkpt><trkpt lat="45.53885304970299" lon="9.31127366518641"><ele>134.5</ele><time>2026-05-01T18:39:16.999Z</time></trkpt><trkpt lat="45.538900263505155" lon="9.311611949358754"><ele>134.0</ele><time>2026-05-01T18:39:17.999Z</time></trkpt><trkpt lat="45.53895337580752" lon="9.311952622226004"><ele>134.5</ele><time>2026-05-01T18:39:18.999Z</time></trkpt><trkpt lat="45.53902037544517" lon="9.312288150194846"><ele>135.0</ele><time>2026-05-01T18:39:19.999Z</time></trkpt><trkpt lat="45.53909859288016" lon="9.312620072430144"><ele>135.0</ele><time>2026-05-01T18:39:20.999Z</time></trkpt><trkpt lat="45.53919136576973" lon="9.31294413963741"><ele>135.0</ele><time>2026-05-01T18:39:21.999Z</time></trkpt><trkpt lat="45.53929802379617" lon="9.313262910654371"><ele>136.0</ele><time>2026-05-01T18:39:22.999Z</time></trkpt><trkpt lat="45.53941075735677" lon="9.313576767688167"><ele>137.0</ele><time>2026-05-01T18:39:23.999Z</time></trkpt><trkpt lat="45.539541710002304" lon="9.31387433985672"><ele>136.0</ele><time>2026-05-01T18:39:24.999Z</time></trkpt><trkpt lat="45.53968559003149" lon="9.31416867060468"><ele>135.0</ele><time>2026-05-01T18:39:25.999Z</time></trkpt><trkpt lat="45.53984540354885" lon="9.314449360219989"><ele>135.0</ele><time>2026-05-01T18:39:26.999Z</time></trkpt><trkpt lat="45.54000602654748" lon="9.314724157690543"><ele>135.0</ele><time>2026-05-01T18:39:27.999Z</time></trkpt><trkpt lat="45.540179817988225" lon="9.314979887563902"><ele>135.5</ele><time>2026-05-01T18:39:28.999Z</time></trkpt><trkpt lat="45.54036273324017" lon="9.315223837920758"><ele>136.0</ele><time>2026-05-01T18:39:29.999Z</time></trkpt><trkpt lat="45.54055734022835" lon="9.315452133329696"><ele>136.0</ele><time>2026-05-01T18:39:30.999Z</time></trkpt><trkpt lat="45.54075604035462" lon="9.315668182152613"><ele>136.0</ele><time>2026-05-01T18:39:31.999Z</time></trkpt><trkpt lat="45.54096453859834" lon="9.315866185186602"><ele>136.0</ele><time>2026-05-01T18:39:32.999Z</time></trkpt><trkpt lat="45.54117810435896" lon="9.316048845556223"><ele>136.0</ele><time>2026-05-01T18:39:33.999Z</time></trkpt><trkpt lat="45.54140025016541" lon="9.31621849119694"><ele>136.5</ele><time>2026-05-01T18:39:34.999Z</time></trkpt><trkpt lat="45.541625370659396" lon="9.316375748284674"><ele>137.0</ele><time>2026-05-01T18:39:35.999Z</time></trkpt><trkpt lat="45.54185237286322" lon="9.316525193223502"><ele>138.5</ele><time>2026-05-01T18:39:36.999Z</time></trkpt><trkpt lat="45.54207695624475" lon="9.316675463500138"><ele>140.0</ele><time>2026-05-01T18:39:37.999Z</time></trkpt><trkpt lat="45.54229961337952" lon="9.316820900394484"><ele>140.0</ele><time>2026-05-01T18:39:38.999Z</time></trkpt><trkpt lat="45.54252210943032" lon="9.316964236871003"><ele>140.0</ele><time>2026-05-01T18:39:39.999Z</time></trkpt><trkpt lat="45.54274516712167" lon="9.317108995909496"><ele>140.0</ele><time>2026-05-01T18:39:40.999Z</time></trkpt><trkpt lat="45.542964411467096" lon="9.317256292993633"><ele>140.0</ele><time>2026-05-01T18:39:41.999Z</time></trkpt><trkpt lat="45.543177557136595" lon="9.31741381436882"><ele>140.0</ele><time>2026-05-01T18:39:42.999Z</time></trkpt><trkpt lat="45.54338785617775" lon="9.317576398685823"><ele>140.0</ele><time>2026-05-01T18:39:43.999Z</time></trkpt><trkpt lat="45.54359038248429" lon="9.31775785087065"><ele>140.0</ele><time>2026-05-01T18:39:44.999Z</time></trkpt><trkpt lat="45.54378654884235" lon="9.317952094619928"><ele>140.0</ele><time>2026-05-01T18:39:45.999Z</time></trkpt><trkpt lat="45.5439708983503" lon="9.318165573280968"><ele>140.0</ele><time>2026-05-01T18:39:47Z</time></trkpt><trkpt lat="45.544148597500225" lon="9.318396119958154"><ele>140.0</ele><time>2026-05-01T18:39:48Z</time></trkpt><trkpt lat="45.54432165397541" lon="9.31863857835518"><ele>140.0</ele><time>2026-05-01T18:39:49Z</time></trkpt><trkpt lat="45.5444861438677" lon="9.318899568746374"><ele>140.0</ele><time>2026-05-01T18:39:50Z</time></trkpt><trkpt lat="45.54464253933152" lon="9.319173660362758"><ele>140.5</ele><time>2026-05-01T18:39:51Z</time></trkpt><trkpt lat="45.54478977420358" lon="9.31946079463763"><ele>141.0</ele><time>2026-05-01T18:39:52Z</time></trkpt><trkpt lat="45.544924500643944" lon="9.319758297635948"><ele>141.5</ele><time>2026-05-01T18:39:53Z</time></trkpt><trkpt lat="45.545048713542585" lon="9.320063244075422"><ele>142.0</ele><time>2026-05-01T18:39:54Z</time></trkpt><trkpt lat="45.545166002114705" lon="9.320375633417651"><ele>141.0</ele><time>2026-05-01T18:39:55Z</time></trkpt><trkpt lat="45.54528431325083" lon="9.320682758068417"><ele>140.0</ele><time>2026-05-01T18:39:56Z</time></trkpt><trkpt lat="45.545400633121986" lon="9.320979688420312"><ele>140.0</ele><time>2026-05-01T18:39:57Z</time></trkpt><trkpt lat="45.54551922553121" lon="9.321278336713332"><ele>140.0</ele><time>2026-05-01T18:39:58Z</time></trkpt><trkpt lat="45.5456380986653" lon="9.321573441110298"><ele>140.5</ele><time>2026-05-01T18:39:59Z</time></trkpt><trkpt lat="45.54576526464845" lon="9.321862603933651"><ele>141.0</ele><time>2026-05-01T18:40:00Z</time></trkpt><trkpt lat="45.545892293824295" lon="9.322146691908834"><ele>141.0</ele><time>2026-05-01T18:40:01Z</time></trkpt><trkpt lat="45.54602862455866" lon="9.32242906072792"><ele>141.0</ele><time>2026-05-01T18:40:02Z</time></trkpt><trkpt lat="45.546167633253326" lon="9.322702566851657"><ele>141.5</ele><time>2026-05-01T18:40:03Z</time></trkpt><trkpt lat="45.54631618408452" lon="9.322974967454833"><ele>142.0</ele><time>2026-05-01T18:40:04Z</time></trkpt><trkpt lat="45.54646700143532" lon="9.32324656127644"><ele>142.0</ele><time>2026-05-01T18:40:05Z</time></trkpt><trkpt lat="45.5466264146272" lon="9.323509997210355"><ele>142.0</ele><time>2026-05-01T18:40:06Z</time></trkpt><trkpt lat="45.5467935598961" lon="9.323765194382355"><ele>142.0</ele><time>2026-05-01T18:40:07Z</time></trkpt><trkpt lat="45.54696735160742" lon="9.32401619497043"><ele>142.0</ele><time>2026-05-01T18:40:08Z</time></trkpt><trkpt lat="45.54714902070027" lon="9.324251285732357"><ele>142.5</ele><time>2026-05-01T18:40:09Z</time></trkpt><trkpt lat="45.547338123715676" lon="9.324485408562293"><ele>143.0</ele><time>2026-05-01T18:40:10Z</time></trkpt><trkpt lat="45.547529701197874" lon="9.3247158781258"><ele>143.5</ele><time>2026-05-01T18:40:11Z</time></trkpt><trkpt lat="45.54772485602617" lon="9.324936718480776"><ele>144.0</ele><time>2026-05-01T18:40:12Z</time></trkpt><trkpt lat="45.54792219694181" lon="9.32515057388195"><ele>144.5</ele><time>2026-05-01T18:40:13Z</time></trkpt><trkpt lat="45.548123258142866" lon="9.32535348731231"><ele>145.0</ele><time>2026-05-01T18:40:14Z</time></trkpt><trkpt lat="45.54832656379992" lon="9.325549385413956"><ele>144.0</ele><time>2026-05-01T18:40:15Z</time></trkpt><trkpt lat="45.54853500569678" lon="9.3257326458542"><ele>143.0</ele><time>2026-05-01T18:40:16Z</time></trkpt><trkpt lat="45.54875047337244" lon="9.325896722029222"><ele>142.0</ele><time>2026-05-01T18:40:17Z</time></trkpt><trkpt lat="45.548969818036255" lon="9.326055247437372"><ele>141.0</ele><time>2026-05-01T18:40:18Z</time></trkpt><trkpt lat="45.54919090829797" lon="9.326202827227736"><ele>141.0</ele><time>2026-05-01T18:40:19Z</time></trkpt><trkpt lat="45.54941368467361" lon="9.326349120103034"><ele>141.0</ele><time>2026-05-01T18:40:20Z</time></trkpt><trkpt lat="45.54963840497788" lon="9.326488006870509"><ele>142.5</ele><time>2026-05-01T18:40:21Z</time></trkpt><trkpt lat="45.549864745250986" lon="9.326628492884243"><ele>144.0</ele><time>2026-05-01T18:40:22Z</time></trkpt><trkpt lat="45.55009624433702" lon="9.326763396789262"><ele>144.0</ele><time>2026-05-01T18:40:23Z</time></trkpt><trkpt lat="45.55032537193922" lon="9.326899119210712"><ele>144.0</ele><time>2026-05-01T18:40:24Z</time></trkpt><trkpt lat="45.550555093916984" lon="9.327031645533571"><ele>144.0</ele><time>2026-05-01T18:40:25Z</time></trkpt><trkpt lat="45.550785687681014" lon="9.32716546403506"><ele>144.0</ele><time>2026-05-01T18:40:26Z</time></trkpt><trkpt lat="45.55101171201718" lon="9.327299774907603"><ele>144.0</ele><time>2026-05-01T18:40:27Z</time></trkpt><trkpt lat="45.551237931042344" lon="9.327434489586105"><ele>144.0</ele><time>2026-05-01T18:40:28Z</time></trkpt><trkpt lat="45.55146334263554" lon="9.327566155788636"><ele>144.0</ele><time>2026-05-01T18:40:29Z</time></trkpt><trkpt lat="45.551685345298026" lon="9.327695691969316"><ele>144.0</ele><time>2026-05-01T18:40:30Z</time></trkpt><trkpt lat="45.551906920162274" lon="9.327825168730923"><ele>144.5</ele><time>2026-05-01T18:40:31Z</time></trkpt><trkpt lat="45.55211844639439" lon="9.3279503431457"><ele>145.0</ele><time>2026-05-01T18:40:32Z</time></trkpt><trkpt lat="45.55232664597779" lon="9.328068694692517"><ele>145.0</ele><time>2026-05-01T18:40:33Z</time></trkpt><trkpt lat="45.552532246348875" lon="9.328188361701654"><ele>145.0</ele><time>2026-05-01T18:40:34Z</time></trkpt><trkpt lat="45.55273644248531" lon="9.328302084749906"><ele>145.0</ele><time>2026-05-01T18:40:35Z</time></trkpt><trkpt lat="45.552944173840245" lon="9.328411648200547"><ele>144.33333333333334</ele><time>2026-05-01T18:40:36Z</time></trkpt><trkpt lat="45.55315367531955" lon="9.328523933706032"><ele>143.66666666666666</ele><time>2026-05-01T18:40:37Z</time></trkpt><trkpt lat="45.55336274055109" lon="9.328640913304156"><ele>143.0</ele><time>2026-05-01T18:40:38Z</time></trkpt><trkpt lat="45.55357386223587" lon="9.328761274789937"><ele>143.5</ele><time>2026-05-01T18:40:39Z</time></trkpt><trkpt lat="45.55378472216237" lon="9.328881958050614"><ele>144.0</ele><time>2026-05-01T18:40:40Z</time></trkpt><trkpt lat="45.55399751943981" lon="9.329005347135904"><ele>145.5</ele><time>2026-05-01T18:40:41Z</time></trkpt><trkpt lat="45.55420837822056" lon="9.329131179530858"><ele>147.0</ele><time>2026-05-01T18:40:42Z</time></trkpt><trkpt lat="45.55441811411397" lon="9.329253768358566"><ele>148.0</ele><time>2026-05-01T18:40:43Z</time></trkpt><trkpt lat="45.554629628236846" lon="9.329375173908176"><ele>149.0</ele><time>2026-05-01T18:40:44Z</time></trkpt><trkpt lat="45.55483706097682" lon="9.329501334688306"><ele>149.0</ele><time>2026-05-01T18:40:45Z</time></trkpt><trkpt lat="45.55505007011236" lon="9.329629065245362"><ele>149.0</ele><time>2026-05-01T18:40:46Z</time></trkpt><trkpt lat="45.5552669037475" lon="9.3297542329068"><ele>148.0</ele><time>2026-05-01T18:40:47Z</time></trkpt><trkpt lat="45.555481927260466" lon="9.32988289789224"><ele>147.0</ele><time>2026-05-01T18:40:48Z</time></trkpt><trkpt lat="45.55570083935911" lon="9.330010012690922"><ele>147.0</ele><time>2026-05-01T18:40:49Z</time></trkpt><trkpt lat="45.555917718660446" lon="9.3301339031882"><ele>147.0</ele><time>2026-05-01T18:40:50Z</time></trkpt><trkpt lat="45.55613364747637" lon="9.330261228819653"><ele>148.5</ele><time>2026-05-01T18:40:51Z</time></trkpt><trkpt lat="45.55634711581413" lon="9.330389709727479"><ele>150.0</ele><time>2026-05-01T18:40:52Z</time></trkpt><trkpt lat="45.55655409765913" lon="9.330507286472415"><ele>150.0</ele><time>2026-05-01T18:40:53Z</time></trkpt><trkpt lat="45.55675612707534" lon="9.330623429283118"><ele>150.0</ele><time>2026-05-01T18:40:54Z</time></trkpt><trkpt lat="45.5569581174286" lon="9.330741051309598"><ele>150.0</ele><time>2026-05-01T18:40:55Z</time></trkpt><trkpt lat="45.55715541877892" lon="9.330854412311853"><ele>150.66666666666666</ele><time>2026-05-01T18:40:56Z</time></trkpt><trkpt lat="45.557347385631594" lon="9.330964215658938"><ele>151.33333333333331</ele><time>2026-05-01T18:40:57Z</time></trkpt><trkpt lat="45.5575352839752" lon="9.331075038285114"><ele>152.0</ele><time>2026-05-01T18:40:58Z</time></trkpt><trkpt lat="45.55772224578155" lon="9.331185366329628"><ele>152.0</ele><time>2026-05-01T18:40:59Z</time></trkpt><trkpt lat="45.55790659158351" lon="9.331294326591662"><ele>152.0</ele><time>2026-05-01T18:41:00Z</time></trkpt><trkpt lat="45.55808983119015" lon="9.331405061215122"><ele>152.0</ele><time>2026-05-01T18:41:01Z</time></trkpt><trkpt lat="45.55827393620956" lon="9.33151193704888"><ele>151.66666666666666</ele><time>2026-05-01T18:41:02Z</time></trkpt><trkpt lat="45.5584596795004" lon="9.331618559056116"><ele>151.33333333333334</ele><time>2026-05-01T18:41:03Z</time></trkpt><trkpt lat="45.558643904655334" lon="9.331724036432194"><ele>151.0</ele><time>2026-05-01T18:41:04Z</time></trkpt><trkpt lat="45.55882538183324" lon="9.331830644068056"><ele>150.33333333333334</ele><time>2026-05-01T18:41:05Z</time></trkpt><trkpt lat="45.55900512178608" lon="9.331934274766152"><ele>149.66666666666666</ele><time>2026-05-01T18:41:06Z</time></trkpt><trkpt lat="45.55917983118951" lon="9.33203270766816"><ele>149.0</ele><time>2026-05-01T18:41:07Z</time></trkpt><trkpt lat="45.559350519873206" lon="9.332128472883253"><ele>149.0</ele><time>2026-05-01T18:41:08Z</time></trkpt><trkpt lat="45.5595206238831" lon="9.332225649848802"><ele>149.0</ele><time>2026-05-01T18:41:09Z</time></trkpt><trkpt lat="45.55968759790003" lon="9.332318755712905"><ele>149.0</ele><time>2026-05-01T18:41:10Z</time></trkpt><trkpt lat="45.55984428765994" lon="9.332416926387904"><ele>149.66666666666666</ele><time>2026-05-01T18:41:10.999Z</time></trkpt><trkpt lat="45.55999142819187" lon="9.332517078024706"><ele>150.33333333333334</ele><time>2026-05-01T18:41:11.999Z</time></trkpt><trkpt lat="45.56013595458063" lon="9.332614963556297"><ele>151.0</ele><time>2026-05-01T18:41:12.999Z</time></trkpt><trkpt lat="45.560276009418764" lon="9.332710976825808"><ele>151.0</ele><time>2026-05-01T18:41:13.999Z</time></trkpt><trkpt lat="45.56041442909226" lon="9.332799434116124"><ele>151.0</ele><time>2026-05-01T18:41:14.999Z</time></trkpt><trkpt lat="45.5605446542901" lon="9.332887587361508"><ele>151.0</ele><time>2026-05-01T18:41:15.999Z</time></trkpt><trkpt lat="45.560665567015945" lon="9.332967252514347"><ele>151.0</ele><time>2026-05-01T18:41:16.999Z</time></trkpt><trkpt lat="45.56077994430825" lon="9.333048293810291"><ele>151.2</ele><time>2026-05-01T18:41:17.999Z</time></trkpt><trkpt lat="45.56088569496634" lon="9.33311930654056"><ele>151.39999999999998</ele><time>2026-05-01T18:41:18.999Z</time></trkpt><trkpt lat="45.56097852193778" lon="9.333185759932432"><ele>151.6</ele><time>2026-05-01T18:41:19.999Z</time></trkpt><trkpt lat="45.56106572868149" lon="9.333244455878415"><ele>151.79999999999998</ele><time>2026-05-01T18:41:20.999Z</time></trkpt><trkpt lat="45.56114549838841" lon="9.333299179868266"><ele>152.0</ele><time>2026-05-01T18:41:21.999Z</time></trkpt><trkpt lat="45.561222336020265" lon="9.333344847169407"><ele>152.79999999999998</ele><time>2026-05-01T18:41:22.999Z</time></trkpt><trkpt lat="45.56129050732834" lon="9.333379947809352"><ele>153.6</ele><time>2026-05-01T18:41:23.999Z</time></trkpt><trkpt lat="45.56136913274372" lon="9.333418692709605"><ele>154.39999999999998</ele><time>2026-05-01T18:41:24.999Z</time></trkpt><trkpt lat="45.56146617537653" lon="9.333459547930158"><ele>155.2</ele><time>2026-05-01T18:41:25.999Z</time></trkpt><trkpt lat="45.56158024652149" lon="9.333519746901597"><ele>156.0</ele><time>2026-05-01T18:41:26.999Z</time></trkpt><trkpt lat="45.56170900079991" lon="9.333597478314124"><ele>156.0</ele><time>2026-05-01T18:41:27.999Z</time></trkpt><trkpt lat="45.561851025681456" lon="9.333663745679678"><ele>156.0</ele><time>2026-05-01T18:41:28.999Z</time></trkpt><trkpt lat="45.56201603883611" lon="9.333740747536654"><ele>156.0</ele><time>2026-05-01T18:41:29.999Z</time></trkpt><trkpt lat="45.56219772524038" lon="9.333836235342925"><ele>155.0</ele><time>2026-05-01T18:41:30.999Z</time></trkpt><trkpt lat="45.56240106517958" lon="9.333952338064867"><ele>154.0</ele><time>2026-05-01T18:41:31.999Z</time></trkpt><trkpt lat="45.56261306269592" lon="9.334086049814855"><ele>154.0</ele><time>2026-05-01T18:41:32.999Z</time></trkpt><trkpt lat="45.56279433350376" lon="9.334225069130236"><ele>154.0</ele><time>2026-05-01T18:41:33.999Z</time></trkpt><trkpt lat="45.56296839245993" lon="9.334383066189952"><ele>154.0</ele><time>2026-05-01T18:41:34.999Z</time></trkpt><trkpt lat="45.563145135453894" lon="9.334537527587258"><ele>154.0</ele><time>2026-05-01T18:41:35.999Z</time></trkpt><trkpt lat="45.56332581261052" lon="9.33469981040642"><ele>154.0</ele><time>2026-05-01T18:41:36.999Z</time></trkpt><trkpt lat="45.563507671125365" lon="9.334862520736683"><ele>154.0</ele><time>2026-05-01T18:41:37.999Z</time></trkpt><trkpt lat="45.56369649985607" lon="9.33502027767544"><ele>155.0</ele><time>2026-05-01T18:41:38.999Z</time></trkpt><trkpt lat="45.563899892765804" lon="9.335179942305531"><ele>156.0</ele><time>2026-05-01T18:41:39.999Z</time></trkpt><trkpt lat="45.56410322703998" lon="9.33533535962947"><ele>156.0</ele><time>2026-05-01T18:41:40.999Z</time></trkpt><trkpt lat="45.56430489548852" lon="9.335456833330742"><ele>156.0</ele><time>2026-05-01T18:41:41.999Z</time></trkpt><trkpt lat="45.56451025699637" lon="9.33555994223538"><ele>156.0</ele><time>2026-05-01T18:41:42.999Z</time></trkpt><trkpt lat="45.5647261704556" lon="9.335652330250927"><ele>155.0</ele><time>2026-05-01T18:41:43.999Z</time></trkpt><trkpt lat="45.56494362345281" lon="9.33573308670838"><ele>154.0</ele><time>2026-05-01T18:41:44.999Z</time></trkpt><trkpt lat="45.5651642290907" lon="9.335815511288557"><ele>156.5</ele><time>2026-05-01T18:41:45.999Z</time></trkpt><trkpt lat="45.56539277397244" lon="9.335892923521683"><ele>159.0</ele><time>2026-05-01T18:41:46.999Z</time></trkpt><trkpt lat="45.56561756522091" lon="9.335971555270708"><ele>159.0</ele><time>2026-05-01T18:41:47.999Z</time></trkpt><trkpt lat="45.56584492011307" lon="9.336065179163139"><ele>159.0</ele><time>2026-05-01T18:41:48.999Z</time></trkpt><trkpt lat="45.5660677492916" lon="9.336158388970427"><ele>158.5</ele><time>2026-05-01T18:41:49.999Z</time></trkpt><trkpt lat="45.56629145181366" lon="9.336253995390809"><ele>158.0</ele><time>2026-05-01T18:41:50.999Z</time></trkpt><trkpt lat="45.566508290268516" lon="9.336350245987278"><ele>158.0</ele><time>2026-05-01T18:41:51.999Z</time></trkpt><trkpt lat="45.5667195996145" lon="9.336448283690595"><ele>158.0</ele><time>2026-05-01T18:41:53Z</time></trkpt><trkpt lat="45.56694005642756" lon="9.336526592692909"><ele>158.0</ele><time>2026-05-01T18:41:54Z</time></trkpt><trkpt lat="45.56716954185796" lon="9.33662889121222"><ele>157.5</ele><time>2026-05-01T18:41:55Z</time></trkpt><trkpt lat="45.5674029776691" lon="9.336743111467447"><ele>157.0</ele><time>2026-05-01T18:41:56Z</time></trkpt><trkpt lat="45.567633230122475" lon="9.336858622365403"><ele>157.0</ele><time>2026-05-01T18:41:57Z</time></trkpt><trkpt lat="45.56786543404296" lon="9.336973836848118"><ele>157.0</ele><time>2026-05-01T18:41:58Z</time></trkpt><trkpt lat="45.56809471455442" lon="9.337088747246566"><ele>157.0</ele><time>2026-05-01T18:41:59Z</time></trkpt><trkpt lat="45.568324706572184" lon="9.337214001576834"><ele>157.0</ele><time>2026-05-01T18:42:00Z</time></trkpt><trkpt lat="45.56855527417122" lon="9.337354635105466"><ele>157.5</ele><time>2026-05-01T18:42:01Z</time></trkpt><trkpt lat="45.56877435847739" lon="9.337471827820016"><ele>158.0</ele><time>2026-05-01T18:42:02Z</time></trkpt><trkpt lat="45.56900216146449" lon="9.337617971385198"><ele>158.0</ele><time>2026-05-01T18:42:03Z</time></trkpt><trkpt lat="45.56921689226885" lon="9.33773072252315"><ele>158.0</ele><time>2026-05-01T18:42:04Z</time></trkpt><trkpt lat="45.5694338191366" lon="9.337859346843857"><ele>158.0</ele><time>2026-05-01T18:42:05Z</time></trkpt><trkpt lat="45.569648194033114" lon="9.337978513858726"><ele>158.0</ele><time>2026-05-01T18:42:06Z</time></trkpt><trkpt lat="45.56986380531062" lon="9.33811382820473"><ele>156.5</ele><time>2026-05-01T18:42:07Z</time></trkpt><trkpt lat="45.57008214130917" lon="9.338254157070388"><ele>155.0</ele><time>2026-05-01T18:42:08Z</time></trkpt><trkpt lat="45.57030406407246" lon="9.338391361399626"><ele>155.5</ele><time>2026-05-01T18:42:09Z</time></trkpt><trkpt lat="45.57052558211606" lon="9.338529895980068"><ele>156.0</ele><time>2026-05-01T18:42:10Z</time></trkpt><trkpt lat="45.57074546169363" lon="9.338664375263924"><ele>156.0</ele><time>2026-05-01T18:42:11Z</time></trkpt><trkpt lat="45.57096863050507" lon="9.338803645211234"><ele>156.0</ele><time>2026-05-01T18:42:12Z</time></trkpt><trkpt lat="45.57119425701612" lon="9.338944846320567"><ele>157.0</ele><time>2026-05-01T18:42:13Z</time></trkpt><trkpt lat="45.57142037233444" lon="9.33908558305442"><ele>158.0</ele><time>2026-05-01T18:42:14Z</time></trkpt><trkpt lat="45.57164455807981" lon="9.339230605909009"><ele>158.0</ele><time>2026-05-01T18:42:15Z</time></trkpt><trkpt lat="45.57186865397296" lon="9.339371339086961"><ele>158.0</ele><time>2026-05-01T18:42:16Z</time></trkpt><trkpt lat="45.57209104071462" lon="9.339510882637615"><ele>159.0</ele><time>2026-05-01T18:42:17Z</time></trkpt><trkpt lat="45.57231447433061" lon="9.33964526169984"><ele>160.0</ele><time>2026-05-01T18:42:18Z</time></trkpt><trkpt lat="45.57253830853217" lon="9.339776237304324"><ele>160.5</ele><time>2026-05-01T18:42:19Z</time></trkpt><trkpt lat="45.57276122865925" lon="9.339909557304798"><ele>161.0</ele><time>2026-05-01T18:42:20Z</time></trkpt><trkpt lat="45.57298221031623" lon="9.340041902849517"><ele>161.5</ele><time>2026-05-01T18:42:21Z</time></trkpt><trkpt lat="45.57320508536797" lon="9.3401768583581"><ele>162.0</ele><time>2026-05-01T18:42:22Z</time></trkpt><trkpt lat="45.57342584465129" lon="9.340308431503427"><ele>162.0</ele><time>2026-05-01T18:42:23Z</time></trkpt><trkpt lat="45.57364450015893" lon="9.340438633407373"><ele>162.0</ele><time>2026-05-01T18:42:24Z</time></trkpt><trkpt lat="45.573859622688936" lon="9.34056657013747"><ele>161.0</ele><time>2026-05-01T18:42:25Z</time></trkpt><trkpt lat="45.574075467857384" lon="9.340689960710133"><ele>160.0</ele><time>2026-05-01T18:42:26Z</time></trkpt><trkpt lat="45.5742896184763" lon="9.34080431032223"><ele>160.0</ele><time>2026-05-01T18:42:27Z</time></trkpt><trkpt lat="45.57451006629945" lon="9.340906803658372"><ele>160.0</ele><time>2026-05-01T18:42:28Z</time></trkpt><trkpt lat="45.574740470385336" lon="9.341009907601942"><ele>160.0</ele><time>2026-05-01T18:42:29Z</time></trkpt><trkpt lat="45.57498453115933" lon="9.341113721302953"><ele>160.0</ele><time>2026-05-01T18:42:30Z</time></trkpt><trkpt lat="45.575224343153025" lon="9.341230550939706"><ele>161.0</ele><time>2026-05-01T18:42:31Z</time></trkpt><trkpt lat="45.575494738146475" lon="9.341363312211199"><ele>162.0</ele><time>2026-05-01T18:42:32Z</time></trkpt><trkpt lat="45.57577384546089" lon="9.341467881958943"><ele>162.0</ele><time>2026-05-01T18:42:33Z</time></trkpt><trkpt lat="45.576042653239334" lon="9.341650696706468"><ele>162.0</ele><time>2026-05-01T18:42:34Z</time></trkpt><trkpt lat="45.576305135313994" lon="9.341795819889047"><ele>163.0</ele><time>2026-05-01T18:42:35Z</time></trkpt><trkpt lat="45.576547990803085" lon="9.341922785466963"><ele>164.0</ele><time>2026-05-01T18:42:36Z</time></trkpt><trkpt lat="45.57678212490426" lon="9.342049711253262"><ele>164.0</ele><time>2026-05-01T18:42:37Z</time></trkpt><trkpt lat="45.57700334480494" lon="9.342197627231085"><ele>164.0</ele><time>2026-05-01T18:42:38Z</time></trkpt><trkpt lat="45.577248640426504" lon="9.342248523998366"><ele>164.0</ele><time>2026-05-01T18:42:39Z</time></trkpt><trkpt lat="45.57749881235732" lon="9.34235104401777"><ele>164.0</ele><time>2026-05-01T18:42:40Z</time></trkpt><trkpt lat="45.577754776606966" lon="9.342465376872225"><ele>163.5</ele><time>2026-05-01T18:42:41Z</time></trkpt><trkpt lat="45.57801166361426" lon="9.342586050588949"><ele>163.0</ele><time>2026-05-01T18:42:42Z</time></trkpt><trkpt lat="45.578260769884956" lon="9.34270679907545"><ele>163.0</ele><time>2026-05-01T18:42:43Z</time></trkpt><trkpt lat="45.57848983639952" lon="9.342822057013478"><ele>163.0</ele><time>2026-05-01T18:42:44Z</time></trkpt><trkpt lat="45.57870312822827" lon="9.342928699107587"><ele>162.66666666666669</ele><time>2026-05-01T18:42:45Z</time></trkpt><trkpt lat="45.57890454694428" lon="9.343033317895822"><ele>162.33333333333334</ele><time>2026-05-01T18:42:46Z</time></trkpt><trkpt lat="45.579106521696964" lon="9.343128752338682"><ele>162.0</ele><time>2026-05-01T18:42:47Z</time></trkpt><trkpt lat="45.57930208988734" lon="9.343222757930139"><ele>162.0</ele><time>2026-05-01T18:42:48Z</time></trkpt><trkpt lat="45.579494036496484" lon="9.343316173732905"><ele>162.0</ele><time>2026-05-01T18:42:49Z</time></trkpt><trkpt lat="45.57968284421043" lon="9.343414543231829"><ele>162.0</ele><time>2026-05-01T18:42:50Z</time></trkpt><trkpt lat="45.579866423792424" lon="9.343520638980808"><ele>162.66666666666666</ele><time>2026-05-01T18:42:51Z</time></trkpt><trkpt lat="45.58004953522034" lon="9.343628324933649"><ele>163.33333333333331</ele><time>2026-05-01T18:42:52Z</time></trkpt><trkpt lat="45.58022421039799" lon="9.343745104418845"><ele>164.0</ele><time>2026-05-01T18:42:53Z</time></trkpt><trkpt lat="45.58039663768658" lon="9.34387725995323"><ele>164.33333333333331</ele><time>2026-05-01T18:42:54Z</time></trkpt><trkpt lat="45.5805633400272" lon="9.344017677674131"><ele>164.66666666666666</ele><time>2026-05-01T18:42:55Z</time></trkpt><trkpt lat="45.580725557348586" lon="9.344166414339757"><ele>165.0</ele><time>2026-05-01T18:42:56Z</time></trkpt><trkpt lat="45.58088142155489" lon="9.344326775275801"><ele>165.0</ele><time>2026-05-01T18:42:57Z</time></trkpt><trkpt lat="45.58102870283033" lon="9.344500041004189"><ele>165.0</ele><time>2026-05-01T18:42:58Z</time></trkpt><trkpt lat="45.581161359001804" lon="9.344701919920679"><ele>165.0</ele><time>2026-05-01T18:42:59Z</time></trkpt><trkpt lat="45.58130072808338" lon="9.344887968919805"><ele>165.66666666666666</ele><time>2026-05-01T18:43:00Z</time></trkpt><trkpt lat="45.5814507047734" lon="9.345069706208525"><ele>166.33333333333331</ele><time>2026-05-01T18:43:01Z</time></trkpt><trkpt lat="45.5815738750518" lon="9.345277575402303"><ele>167.0</ele><time>2026-05-01T18:43:02Z</time></trkpt><trkpt lat="45.58170292647493" lon="9.345447775433797"><ele>166.5</ele><time>2026-05-01T18:43:03Z</time></trkpt><trkpt lat="45.58182547560494" lon="9.345604740936874"><ele>166.0</ele><time>2026-05-01T18:43:04Z</time></trkpt><trkpt lat="45.581930902156046" lon="9.34574710090448"><ele>165.5</ele><time>2026-05-01T18:43:05Z</time></trkpt><trkpt lat="45.58202122417308" lon="9.345871026285808"><ele>165.0</ele><time>2026-05-01T18:43:06Z</time></trkpt><trkpt lat="45.58210366534591" lon="9.345981607432522"><ele>164.8</ele><time>2026-05-01T18:43:07Z</time></trkpt><trkpt lat="45.582175588922446" lon="9.346067085380557"><ele>164.6</ele><time>2026-05-01T18:43:07.999Z</time></trkpt><trkpt lat="45.58224295611729" lon="9.346123391408387"><ele>164.39999999999998</ele><time>2026-05-01T18:43:08.999Z</time></trkpt><trkpt lat="45.58230895712864" lon="9.346233495463917"><ele>164.2</ele><time>2026-05-01T18:43:10.999Z</time></trkpt><trkpt lat="45.582420175344865" lon="9.346076431573186"><ele>164.0</ele><time>2026-05-01T18:43:12.999Z</time></trkpt><trkpt lat="45.582476165416125" lon="9.345978099122947"><ele>164.0</ele><time>2026-05-01T18:43:13.999Z</time></trkpt><trkpt lat="45.582533550837034" lon="9.345835280807002"><ele>164.0</ele><time>2026-05-01T18:43:14.999Z</time></trkpt><trkpt lat="45.58258688680776" lon="9.345693010571233"><ele>164.0</ele><time>2026-05-01T18:43:15.999Z</time></trkpt><trkpt lat="45.5826486907506" lon="9.345553431006039"><ele>164.0</ele><time>2026-05-01T18:43:16.999Z</time></trkpt><trkpt lat="45.58271592447275" lon="9.345401487680265"><ele>164.0</ele><time>2026-05-01T18:43:17.999Z</time></trkpt><trkpt lat="45.58278674842147" lon="9.345240436919287"><ele>164.0</ele><time>2026-05-01T18:43:18.999Z</time></trkpt><trkpt lat="45.582899037221274" lon="9.345116787779778"><ele>164.0</ele><time>2026-05-01T18:43:19.999Z</time></trkpt><trkpt lat="45.5830225498809" lon="9.344961997738304"><ele>164.0</ele><time>2026-05-01T18:43:20.999Z</time></trkpt><trkpt lat="45.58313438537454" lon="9.344861949712453"><ele>164.6</ele><time>2026-05-01T18:43:21.999Z</time></trkpt><trkpt lat="45.583246402005585" lon="9.344791095079744"><ele>165.2</ele><time>2026-05-01T18:43:22.999Z</time></trkpt><trkpt lat="45.58334585997184" lon="9.34473668586361"><ele>165.79999999999998</ele><time>2026-05-01T18:43:23.999Z</time></trkpt><trkpt lat="45.58342743451304" lon="9.344684687292737"><ele>166.39999999999998</ele><time>2026-05-01T18:43:24.999Z</time></trkpt><trkpt lat="45.58350353349541" lon="9.344631510731976"><ele>167.0</ele><time>2026-05-01T18:43:25.999Z</time></trkpt><trkpt lat="45.58356583336281" lon="9.344595367893989"><ele>167.0</ele><time>2026-05-01T18:43:26.999Z</time></trkpt><trkpt lat="45.583639399852316" lon="9.344596211183912"><ele>167.0</ele><time>2026-05-01T18:43:28.999Z</time></trkpt><trkpt lat="45.58367483201205" lon="9.344507056272024"><ele>167.0</ele><time>2026-05-01T18:48:48Z</time></trkpt><trkpt lat="45.58372323001101" lon="9.344393937392416"><ele>167.0</ele><time>2026-05-01T18:48:50Z</time></trkpt><trkpt lat="45.58375311336493" lon="9.34430656459509"><ele>167.0</ele><time>2026-05-01T18:48:51Z</time></trkpt><trkpt lat="45.58378321035567" lon="9.344220184869558"><ele>167.0</ele><time>2026-05-01T18:48:52Z</time></trkpt><trkpt lat="45.58381493834474" lon="9.34413566854703"><ele>167.0</ele><time>2026-05-01T18:48:53Z</time></trkpt><trkpt lat="45.58384800107824" lon="9.344040862118272"><ele>167.16666666666666</ele><time>2026-05-01T18:48:54Z</time></trkpt><trkpt lat="45.583889749295516" lon="9.343938826611806"><ele>167.33333333333331</ele><time>2026-05-01T18:48:55Z</time></trkpt><trkpt lat="45.583930349949995" lon="9.343831361489883"><ele>167.5</ele><time>2026-05-01T18:48:56Z</time></trkpt><trkpt lat="45.58397783406294" lon="9.343728166400451"><ele>167.66666666666666</ele><time>2026-05-01T18:48:57Z</time></trkpt><trkpt lat="45.58401937501756" lon="9.343618449269554"><ele>167.83333333333334</ele><time>2026-05-01T18:48:58Z</time></trkpt><trkpt lat="45.58405786769071" lon="9.34351445517441"><ele>168.0</ele><time>2026-05-01T18:48:59Z</time></trkpt><trkpt lat="45.584093827592206" lon="9.343415702708532"><ele>168.0</ele><time>2026-05-01T18:49:00Z</time></trkpt><trkpt lat="45.584140841684736" lon="9.34333163335384"><ele>168.0</ele><time>2026-05-01T18:49:01Z</time></trkpt><trkpt lat="45.58417897866958" lon="9.343231080442775"><ele>168.0</ele><time>2026-05-01T18:49:02Z</time></trkpt><trkpt lat="45.58422332780362" lon="9.343114143207455"><ele>168.0</ele><time>2026-05-01T18:49:03Z</time></trkpt><trkpt lat="45.584270871950075" lon="9.342988201849918"><ele>168.0</ele><time>2026-05-01T18:49:04Z</time></trkpt><trkpt lat="45.58430822989809" lon="9.342844985948481"><ele>167.8</ele><time>2026-05-01T18:49:05Z</time></trkpt><trkpt lat="45.584356819219344" lon="9.3427211712993"><ele>167.60000000000002</ele><time>2026-05-01T18:49:06Z</time></trkpt><trkpt lat="45.58440287744435" lon="9.342598096006803"><ele>167.39999999999998</ele><time>2026-05-01T18:49:07Z</time></trkpt><trkpt lat="45.584452327865584" lon="9.34246999749942"><ele>167.2</ele><time>2026-05-01T18:49:08Z</time></trkpt><trkpt lat="45.58450228578027" lon="9.342335109136815"><ele>167.0</ele><time>2026-05-01T18:49:09Z</time></trkpt><trkpt lat="45.5845543877803" lon="9.342195235564283"><ele>167.75</ele><time>2026-05-01T18:49:10Z</time></trkpt><trkpt lat="45.584610379762" lon="9.342051022519723"><ele>168.5</ele><time>2026-05-01T18:49:11Z</time></trkpt><trkpt lat="45.58466363389661" lon="9.341905473138409"><ele>169.25</ele><time>2026-05-01T18:49:12Z</time></trkpt><trkpt lat="45.584722307914085" lon="9.341757986545115"><ele>170.0</ele><time>2026-05-01T18:49:13Z</time></trkpt><trkpt lat="45.58477820001468" lon="9.341611324598569"><ele>170.0</ele><time>2026-05-01T18:49:14Z</time></trkpt><trkpt lat="45.58483566992598" lon="9.34147581166284"><ele>170.0</ele><time>2026-05-01T18:49:15Z</time></trkpt><trkpt lat="45.584887783302705" lon="9.34132969884914"><ele>170.0</ele><time>2026-05-01T18:49:16Z</time></trkpt><trkpt lat="45.58493577644106" lon="9.34119150475917"><ele>170.0</ele><time>2026-05-01T18:49:17Z</time></trkpt><trkpt lat="45.584982720624474" lon="9.341061229852043"><ele>170.0</ele><time>2026-05-01T18:49:18Z</time></trkpt><trkpt lat="45.585046535686054" lon="9.34094162549012"><ele>170.0</ele><time>2026-05-01T18:49:19Z</time></trkpt><trkpt lat="45.58509347215194" lon="9.34081693575136"><ele>170.0</ele><time>2026-05-01T18:49:20Z</time></trkpt><trkpt lat="45.58513695185989" lon="9.34070326586393"><ele>170.0</ele><time>2026-05-01T18:49:21Z</time></trkpt><trkpt lat="45.5851622779837" lon="9.340591264167065"><ele>170.0</ele><time>2026-05-01T18:49:22Z</time></trkpt><trkpt lat="45.58520348454007" lon="9.340503961173775"><ele>170.0</ele><time>2026-05-01T18:49:23Z</time></trkpt><trkpt lat="45.58524604348374" lon="9.340425250119495"><ele>170.0</ele><time>2026-05-01T18:49:24Z</time></trkpt><trkpt lat="45.58528959314689" lon="9.340345042440813"><ele>169.8</ele><time>2026-05-01T18:49:25Z</time></trkpt><trkpt lat="45.58533671902779" lon="9.340276521973168"><ele>169.6</ele><time>2026-05-01T18:49:26Z</time></trkpt><trkpt lat="45.58539461045493" lon="9.340202177861785"><ele>169.39999999999998</ele><time>2026-05-01T18:49:28Z</time></trkpt><trkpt lat="45.585221563754324" lon="9.340045573733056"><ele>169.2</ele><time>2026-05-01T18:49:32Z</time></trkpt><trkpt lat="45.58514055445495" lon="9.340030934298987"><ele>169.0</ele><time>2026-05-01T18:49:33Z</time></trkpt><trkpt lat="45.585059037211245" lon="9.340006421464487"><ele>169.0</ele><time>2026-05-01T18:49:34Z</time></trkpt><trkpt lat="45.5849707984137" lon="9.339991996160022"><ele>169.0</ele><time>2026-05-01T18:49:35Z</time></trkpt><trkpt lat="45.58486725185323" lon="9.33995610184829"><ele>169.0</ele><time>2026-05-01T18:49:36Z</time></trkpt><trkpt lat="45.58476942190142" lon="9.339930759669238"><ele>169.0</ele><time>2026-05-01T18:49:37Z</time></trkpt><trkpt lat="45.58467545688821" lon="9.339908962367902"><ele>169.0</ele><time>2026-05-01T18:49:38Z</time></trkpt><trkpt lat="45.584581650612336" lon="9.339877353487596"><ele>168.79999999999998</ele><time>2026-05-01T18:49:38.999Z</time></trkpt><trkpt lat="45.584476522773805" lon="9.33984970233383"><ele>168.6</ele><time>2026-05-01T18:49:39.999Z</time></trkpt><trkpt lat="45.584374430868344" lon="9.339812528433995"><ele>168.4</ele><time>2026-05-01T18:49:40.999Z</time></trkpt><trkpt lat="45.584269312955755" lon="9.339777364839005"><ele>168.2</ele><time>2026-05-01T18:49:41.999Z</time></trkpt><trkpt lat="45.58415767777522" lon="9.339755290129137"><ele>168.0</ele><time>2026-05-01T18:49:42.999Z</time></trkpt><trkpt lat="45.58405292520188" lon="9.339727795262055"><ele>168.16666666666666</ele><time>2026-05-01T18:49:43.999Z</time></trkpt><trkpt lat="45.58396099699489" lon="9.33969639337021"><ele>168.33333333333334</ele><time>2026-05-01T18:49:44.999Z</time></trkpt><trkpt lat="45.58387230981289" lon="9.339665751916778"><ele>168.5</ele><time>2026-05-01T18:49:45.999Z</time></trkpt><trkpt lat="45.58379100848685" lon="9.339638367236173"><ele>168.66666666666669</ele><time>2026-05-01T18:49:46.999Z</time></trkpt><trkpt lat="45.583720521570896" lon="9.339606411461151"><ele>168.83333333333334</ele><time>2026-05-01T18:49:47.999Z</time></trkpt><trkpt lat="45.58365324524687" lon="9.339589827036535"><ele>169.0</ele><time>2026-05-01T18:49:48.999Z</time></trkpt><trkpt lat="45.58359165583391" lon="9.339551575218357"><ele>168.66666666666669</ele><time>2026-05-01T18:49:49.999Z</time></trkpt><trkpt lat="45.58352615585627" lon="9.339522292772717"><ele>168.33333333333334</ele><time>2026-05-01T18:49:50.999Z</time></trkpt><trkpt lat="45.583527703965736" lon="9.33939795424256"><ele>168.0</ele><time>2026-05-01T18:49:52.999Z</time></trkpt><trkpt lat="45.583536017979824" lon="9.339301242871652"><ele>167.66666666666666</ele><time>2026-05-01T18:49:53.999Z</time></trkpt><trkpt lat="45.58355020066637" lon="9.339185112357764"><ele>167.33333333333331</ele><time>2026-05-01T18:49:54.999Z</time></trkpt><trkpt lat="45.58356647781893" lon="9.339049868333214"><ele>167.0</ele><time>2026-05-01T18:49:55.999Z</time></trkpt><trkpt lat="45.58358403501345" lon="9.338903988661045"><ele>167.5</ele><time>2026-05-01T18:49:56.999Z</time></trkpt><trkpt lat="45.58358782986735" lon="9.338738898053128"><ele>168.0</ele><time>2026-05-01T18:49:57.999Z</time></trkpt><trkpt lat="45.58362484999016" lon="9.338575036634493"><ele>168.5</ele><time>2026-05-01T18:49:58.999Z</time></trkpt><trkpt lat="45.5836469763783" lon="9.338397576990033"><ele>169.0</ele><time>2026-05-01T18:49:59.999Z</time></trkpt><trkpt lat="45.58366971698699" lon="9.338214374671216"><ele>168.75</ele><time>2026-05-01T18:50:00.999Z</time></trkpt><trkpt lat="45.58369293153187" lon="9.338027568782492"><ele>168.5</ele><time>2026-05-01T18:50:01.999Z</time></trkpt><trkpt lat="45.583717856684586" lon="9.337827069261234"><ele>168.25</ele><time>2026-05-01T18:50:02.999Z</time></trkpt><trkpt lat="45.583741047201876" lon="9.33764052324315"><ele>168.0</ele><time>2026-05-01T18:50:03.999Z</time></trkpt><trkpt lat="45.583763223948" lon="9.337462133392433"><ele>168.0</ele><time>2026-05-01T18:50:04.999Z</time></trkpt><trkpt lat="45.58378249660495" lon="9.337301484550506"><ele>168.0</ele><time>2026-05-01T18:50:05.999Z</time></trkpt><trkpt lat="45.58380066289655" lon="9.33715153208327"><ele>168.0</ele><time>2026-05-01T18:50:06.999Z</time></trkpt><trkpt lat="45.58380002354259" lon="9.33702097842786"><ele>168.0</ele><time>2026-05-01T18:50:07.999Z</time></trkpt><trkpt lat="45.58381559854664" lon="9.3369006513232"><ele>168.0</ele><time>2026-05-01T18:50:08.999Z</time></trkpt><trkpt lat="45.583832140628076" lon="9.33677624259368"><ele>167.8</ele><time>2026-05-01T18:50:09.999Z</time></trkpt><trkpt lat="45.58384613304181" lon="9.336640356691317"><ele>167.60000000000002</ele><time>2026-05-01T18:50:10.999Z</time></trkpt><trkpt lat="45.583871184532185" lon="9.336501820606253"><ele>167.39999999999998</ele><time>2026-05-01T18:50:11.999Z</time></trkpt><trkpt lat="45.58388570418152" lon="9.33635497234764"><ele>167.2</ele><time>2026-05-01T18:50:12.999Z</time></trkpt><trkpt lat="45.58388682784987" lon="9.336207035938758"><ele>167.0</ele><time>2026-05-01T18:50:13.999Z</time></trkpt><trkpt lat="45.5839137749383" lon="9.33607135026617"><ele>167.6</ele><time>2026-05-01T18:50:14.999Z</time></trkpt><trkpt lat="45.583934518345835" lon="9.33593446513663"><ele>168.2</ele><time>2026-05-01T18:50:15.999Z</time></trkpt><trkpt lat="45.58393921642638" lon="9.335817065071113"><ele>168.8</ele><time>2026-05-01T18:50:17Z</time></trkpt><trkpt lat="45.58394978913714" lon="9.335711606235348"><ele>169.4</ele><time>2026-05-01T18:50:18Z</time></trkpt><trkpt lat="45.583955146769256" lon="9.335621589124825"><ele>170.0</ele><time>2026-05-01T18:50:19Z</time></trkpt><trkpt lat="45.584098713113235" lon="9.335561161131885"><ele>170.0</ele><time>2026-05-01T18:50:22Z</time></trkpt><trkpt lat="45.58420187269959" lon="9.335607048742544"><ele>170.0</ele><time>2026-05-01T18:50:24Z</time></trkpt><trkpt lat="45.58427816864654" lon="9.335627034375534"><ele>170.0</ele><time>2026-05-01T18:50:26Z</time></trkpt><trkpt lat="45.584263188208766" lon="9.335949298390366"><ele>170.0</ele><time>2026-05-01T18:51:00Z</time></trkpt><trkpt lat="45.58428341708307" lon="9.336044453065384"><ele>170.0</ele><time>2026-05-01T18:51:20Z</time></trkpt><trkpt lat="45.584273717046585" lon="9.336139545475762"><ele>170.0</ele><time>2026-05-01T18:51:21.999Z</time></trkpt><trkpt lat="45.58428675166706" lon="9.336232032391207"><ele>170.0</ele><time>2026-05-01T18:51:26.018Z</time></trkpt><trkpt lat="45.58418177072479" lon="9.336096011110895"><ele>170.0</ele><time>2026-05-01T18:51:38.999Z</time></trkpt><trkpt lat="45.58460354809264" lon="9.335963493221755"><ele>170.0</ele><time>2026-05-01T18:55:33Z</time></trkpt><trkpt lat="45.58430794881431" lon="9.336025527472215"><ele>170.0</ele><time>2026-05-01T18:55:38Z</time></trkpt><trkpt lat="45.58435691982541" lon="9.335905918715389"><ele>170.0</ele><time>2026-05-01T18:55:42Z</time></trkpt><trkpt lat="45.584393378939026" lon="9.336124635312395"><ele>167.0</ele><time>2026-05-01T18:56:18.999Z</time></trkpt><trkpt lat="45.585014596623914" lon="9.335648836576691"><ele>167.0</ele><time>2026-05-01T18:56:26.999Z</time></trkpt><trkpt lat="45.584916654085355" lon="9.335958212622755"><ele>167.0</ele><time>2026-05-01T18:56:31.999Z</time></trkpt><trkpt lat="45.58478245981558" lon="9.335864419126263"><ele>167.0</ele><time>2026-05-01T18:56:33.999Z</time></trkpt><trkpt lat="45.584506325615074" lon="9.33584866780657"><ele>167.0</ele><time>2026-05-01T18:56:46Z</time></trkpt><trkpt lat="45.584326336363986" lon="9.33602118759535"><ele>167.0</ele><time>2026-05-01T18:58:28.999Z</time></trkpt><trkpt lat="45.58443637404608" lon="9.336056358923756"><ele>167.0</ele><time>2026-05-01T18:58:38.999Z</time></trkpt><trkpt lat="45.58463687987055" lon="9.336109064145584"><ele>167.0</ele><time>2026-05-01T18:58:39.999Z</time></trkpt><trkpt lat="45.58476729301046" lon="9.336144904879124"><ele>167.0</ele><time>2026-05-01T18:58:41Z</time></trkpt><trkpt lat="45.5845505744646" lon="9.336144458511228"><ele>167.0</ele><time>2026-05-01T18:58:47Z</time></trkpt><trkpt lat="45.5843525203476" lon="9.335945734998889"><ele>167.5</ele><time>2026-05-01T18:58:48Z</time></trkpt><trkpt lat="45.58436220712411" lon="9.336054368125563"><ele>168.0</ele><time>2026-05-01T18:59:14Z</time></trkpt><trkpt lat="45.584287308684665" lon="9.336117974542097"><ele>168.5</ele><time>2026-05-01T18:59:17Z</time></trkpt><trkpt lat="45.5842279006194" lon="9.336069595627135"><ele>169.0</ele><time>2026-05-01T18:59:20Z</time></trkpt><trkpt lat="45.58430702083303" lon="9.336016079970046"><ele>169.5</ele><time>2026-05-01T18:59:28Z</time></trkpt><trkpt lat="45.58437277921137" lon="9.336002004720697"><ele>170.0</ele><time>2026-05-01T18:59:37Z</time></trkpt><trkpt lat="45.584408989174364" lon="9.335924514123302"><ele>170.0</ele><time>2026-05-01T18:59:41Z</time></trkpt><trkpt lat="45.58441286719478" lon="9.335758099714047"><ele>170.0</ele><time>2026-05-01T18:59:51.999Z</time></trkpt><trkpt lat="45.58427789342787" lon="9.335862789967834"><ele>170.0</ele><time>2026-05-01T18:59:54.999Z</time></trkpt><trkpt lat="45.58431282178115" lon="9.336176225924246"><ele>170.0</ele><time>2026-05-01T19:00:14.999Z</time></trkpt><trkpt lat="45.58430969113909" lon="9.335821223921752"><ele>170.0</ele><time>2026-05-01T19:00:33.999Z</time></trkpt><trkpt lat="45.58417131326797" lon="9.335689433236823"><ele>170.0</ele><time>2026-05-01T19:00:35.999Z</time></trkpt><trkpt lat="45.58411515583654" lon="9.335919890593884"><ele>170.0</ele><time>2026-05-01T19:00:41.999Z</time></trkpt><trkpt lat="45.58405101427049" lon="9.335773777596007"><ele>170.0</ele><time>2026-05-01T19:01:12Z</time></trkpt><trkpt lat="45.5840651105842" lon="9.33586753105185"><ele>170.0</ele><time>2026-05-01T19:01:34Z</time></trkpt><trkpt lat="45.584123869064356" lon="9.335945723945885"><ele>170.0</ele><time>2026-05-01T19:14:30.999Z</time></trkpt><trkpt lat="45.584134277009156" lon="9.335855026623022"><ele>170.0</ele><time>2026-05-01T19:20:34Z</time></trkpt><trkpt lat="45.58402729224934" lon="9.335487820216766"><ele>170.0</ele><time>2026-05-01T19:20:46.999Z</time></trkpt><trkpt lat="45.58405554466533" lon="9.33582878334756"><ele>170.0</ele><time>2026-05-01T19:20:47.999Z</time></trkpt><trkpt lat="45.58413537689099" lon="9.335936503493542"><ele>170.0</ele><time>2026-05-01T19:20:58.999Z</time></trkpt><trkpt lat="45.584187889514105" lon="9.335658391946307"><ele>167.0</ele><time>2026-05-01T19:21:03.999Z</time></trkpt><trkpt lat="45.584692602600256" lon="9.335636668703"><ele>170.0</ele><time>2026-05-01T19:21:04.999Z</time></trkpt><trkpt lat="45.584140511690634" lon="9.335826261758065"><ele>170.0</ele><time>2026-05-01T19:21:58.438Z</time></trkpt></trkseg></trk></gpx>